
Distance (Route):
Temperature : 16.7°C
Humidity : 81.7%
Pressure : 971.7hPa| Receiver | Frames | First received | Last received |
|---|---|---|---|
| DM0DOS-11 | 557 | 2026-09-03 09:46:25 | 2026-09-03 11:18:32 |
| BIOWL1-15 | 511 | 2026-09-03 09:47:58 | 2026-09-03 11:17:00 |
| DL1XH-west | 422 | 2026-09-03 09:52:05 | 2026-09-03 11:12:50 |
| DL1XH1-15 | 347 | 2026-09-03 09:52:29 | 2026-09-03 11:12:34 |
| DO2JMG | 345 | 2026-09-03 09:58:14 | 2026-09-03 11:15:15 |
| AA1-15 | 241 | 2026-09-03 10:11:39 | 2026-09-03 11:07:18 |
| DL1XH-15 | 223 | 2026-09-03 10:00:21 | 2026-09-03 11:09:43 |
| HSKMA3-T | 195 | 2026-09-03 10:17:48 | 2026-09-03 11:09:38 |
| DF8AY | 194 | 2026-09-03 10:23:58 | 2026-09-03 11:11:36 |
| DB0DAN | 189 | 2026-09-03 09:54:10 | 2026-09-03 11:18:10 |
| GOEST3-10 | 160 | 2026-09-03 09:50:45 | 2026-09-03 11:06:30 |
| DD8BA-10 | 106 | 2026-09-03 09:47:58 | 2026-09-03 11:13:38 |
| DO2SHX-10 | 94 | 2026-09-03 10:23:12 | 2026-09-03 10:59:05 |
| DJ2DS-15 | 75 | 2026-09-03 09:47:50 | 2026-09-03 11:13:57 |
| DF5WG-10 | 59 | 2026-09-03 09:56:45 | 2026-09-03 10:57:40 |
| DO9LL-15 | 52 | 2026-09-03 09:47:54 | 2026-09-03 11:07:42 |
| DL3AQ-11 | 49 | 2026-09-03 09:58:22 | 2026-09-03 11:17:21 |
| DL4XJ-10 | 49 | 2026-09-03 10:11:06 | 2026-09-03 11:18:23 |
| DL4BBY-15 | 47 | 2026-09-03 09:48:09 | 2026-09-03 11:13:03 |
| DL1NUX | 44 | 2026-09-03 10:21:14 | 2026-09-03 11:00:43 |
| DK9SH | 35 | 2026-09-03 09:52:34 | 2026-09-03 11:16:47 |
| DC6BW-12 | 34 | 2026-09-03 09:47:59 | 2026-09-03 11:09:05 |
| DO3DL | 31 | 2026-09-03 10:07:37 | 2026-09-03 10:53:19 |
| DF8AY-15 | 28 | 2026-09-03 10:36:31 | 2026-09-03 11:10:48 |
| DL1LOL-11 | 27 | 2026-09-03 09:46:16 | 2026-09-03 11:12:21 |
| HTAHTA | 27 | 2026-09-03 09:52:58 | 2026-09-03 11:02:22 |
| DL3OBA | 25 | 2026-09-03 10:15:03 | 2026-09-03 11:18:50 |
| DD1CC3-15 | 24 | 2026-09-03 09:56:30 | 2026-09-03 11:13:16 |
| DD1CC8 | 22 | 2026-09-03 10:10:29 | 2026-09-03 11:13:06 |
| BIOWL9-15 | 21 | 2026-09-03 09:48:33 | 2026-09-03 11:17:01 |
| DL1CLM-18 | 20 | 2026-09-03 09:48:12 | 2026-09-03 10:51:27 |
| BIOWL7-15 | 20 | 2026-09-03 09:51:12 | 2026-09-03 10:53:07 |
| BUE01 | 19 | 2026-09-03 10:04:25 | 2026-09-03 11:13:46 |
| DL8OAI-8 | 18 | 2026-09-03 10:19:37 | 2026-09-03 11:16:42 |
| SONCRA | 16 | 2026-09-03 10:07:47 | 2026-09-03 11:15:04 |
| DB0NH | 14 | 2026-09-03 10:17:58 | 2026-09-03 10:46:21 |
| DK5PH-5 | 14 | 2026-09-03 10:29:59 | 2026-09-03 10:45:20 |
| DF4FW | 13 | 2026-09-03 09:54:58 | 2026-09-03 10:09:38 |
| DJ2KF-10 | 13 | 2026-09-03 10:14:38 | 2026-09-03 10:53:44 |
| D01LWL | 13 | 2026-09-03 10:15:48 | 2026-09-03 11:09:06 |
| SMARD9-10 | 10 | 2026-09-03 10:12:20 | 2026-09-03 10:58:26 |
| DB0ND-19 | 10 | 2026-09-03 10:17:50 | 2026-09-03 10:44:44 |
| EDDB2-11 | 9 | 2026-09-03 10:31:46 | 2026-09-03 11:02:46 |
| AU51GT2 | 8 | 2026-09-03 10:12:17 | 2026-09-03 10:41:47 |
| MET0W-2 | 7 | 2026-09-03 09:59:48 | 2026-09-03 10:48:59 |
| EDDB2-12 | 7 | 2026-09-03 10:22:11 | 2026-09-03 11:04:05 |
| DF7PN | 7 | 2026-09-03 10:23:07 | 2026-09-03 10:43:50 |
| DO2LYB-13 | 6 | 2026-09-03 10:10:38 | 2026-09-03 10:55:41 |
| SONDE2-11 | 6 | 2026-09-03 10:20:44 | 2026-09-03 10:50:45 |
| DL8DAS-15 | 6 | 2026-09-03 10:30:32 | 2026-09-03 10:44:07 |
| SMARD9-15 | 6 | 2026-09-03 10:31:58 | 2026-09-03 11:01:29 |
| SO1NDE-10 | 5 | 2026-09-03 10:35:46 | 2026-09-03 10:59:40 |
| DO2KSM | 4 | 2026-09-03 10:00:17 | 2026-09-03 10:33:32 |
| DB0UT-7 | 4 | 2026-09-03 10:02:03 | 2026-09-03 10:45:04 |
| DL8DAS-14 | 4 | 2026-09-03 10:33:55 | 2026-09-03 10:43:44 |
| NBG1-10 | 3 | 2026-09-03 10:30:30 | 2026-09-03 10:46:58 |
| HARRO8 | 3 | 2026-09-03 10:37:25 | 2026-09-03 10:38:58 |
| WEDDY | 1 | 2026-09-03 10:07:34 | 2026-09-03 10:07:34 |
| DD1CC1-15 | 1 | 2026-09-03 10:21:42 | 2026-09-03 10:21:42 |
| DL9SK-14 | 1 | 2026-09-03 10:42:10 | 2026-09-03 10:42:10 |
| AM1SDL-15 | 1 | 2026-09-03 10:58:21 | 2026-09-03 10:58:21 |
| Receiver | Date | Latitude | Longitude | Direction | Speed | Altitude | Climb | Temperature | Humidity | Pressure | Voltage | Killtimer | Uptime | BKT | XDATA |
|---|---|---|---|---|---|---|---|---|---|---|---|---|---|---|---|
| DL3OBA | 2026-09-03 11:18:50 | 52.14672 | 9.52192 | 48° | 27km/h | 412m | -5.7m/s | 16.7°C | 81.7% | 971.7hPa | 2.7V | 07:54:00 | 00:00:00 | 00:00:00 | |
| DM0DOS-11 | 2026-09-03 11:18:32 | 52.14581 | 9.51970 | 58° | 31km/h | 543m | -7.2m/s | 15.2°C | 88.6% | 956.7hPa | 2.7V | 07:55:01 | 01:47:04 | 00:00:00 | |
| DM0DOS-11 | 2026-09-03 11:18:32 | 52.14573 | 9.51948 | 59° | 33km/h | 557m | -6.8m/s | 15°C | 89.6% | 954.9hPa | 2.7V | 07:55:03 | 01:47:02 | 00:00:00 | |
| DL3OBA | 2026-09-03 11:18:29 | 52.14585 | 9.51981 | 57° | 31km/h | 536m | -7.0m/s | 15.3°C | 87.9% | 957.6hPa | 2.8V | 07:55:00 | 00:00:00 | 00:00:00 | |
| DM0DOS-11 | 2026-09-03 11:18:25 | 52.14561 | 9.51914 | 60° | 33km/h | 575m | -6.5m/s | 14.7°C | 90.9% | 952.9hPa | 2.8V | 07:55:06 | 01:46:59 | 00:00:00 | |
| DM0DOS-11 | 2026-09-03 11:18:25 | 52.14553 | 9.51892 | 59° | 31km/h | 589m | -7m/s | 14.6°C | 91.2% | 951.6hPa | 2.8V | 07:55:08 | 01:46:57 | 00:00:00 | |
| DL4XJ-10 | 2026-09-03 11:18:23 | 52.14557 | 9.51903 | 62° | 29km/h | 583m | -7.3m/s | 16.3°C | 0% | 0hPa | 2.7V | 00:00:00 | 00:00:00 | 00:00:00 | |
| DM0DOS-11 | 2026-09-03 11:18:20 | 52.14534 | 9.51841 | 56° | 27km/h | 621m | -5.5m/s | 14.3°C | 92.5% | 947.8hPa | 2.7V | 07:55:13 | 01:46:52 | 00:00:00 | |
| DM0DOS-11 | 2026-09-03 11:18:20 | 52.14527 | 9.51821 | 58° | 29km/h | 632m | -5.3m/s | 14.1°C | 93.5% | 946.8hPa | 2.7V | 07:55:15 | 01:46:50 | 00:00:00 | |
| DM0DOS-11 | 2026-09-03 11:18:14 | 52.14518 | 9.51801 | 54° | 29km/h | 643m | -5.5m/s | 14°C | 94% | 945.6hPa | 2.7V | 07:55:17 | 01:46:48 | 00:00:00 | |
| DM0DOS-11 | 2026-09-03 11:18:14 | 52.14510 | 9.51781 | 56° | 31km/h | 653m | -5.5m/s | 13.9°C | 94.7% | 944hPa | 2.7V | 07:55:19 | 01:46:46 | 00:00:00 | |
| DM0DOS-11 | 2026-09-03 11:18:14 | 52.14501 | 9.51759 | 60° | 33km/h | 664m | -5.5m/s | 13.9°C | 94.8% | 943.4hPa | 2.8V | 07:55:21 | 01:46:44 | 00:00:00 | |
| DL4XJ-10 | 2026-09-03 11:18:13 | 52.14518 | 9.51801 | 55° | 33km/h | 643m | -5.5m/s | 15.6°C | 0% | 0hPa | 2.7V | 00:00:00 | 00:00:00 | 00:00:00 | |
| DB0DAN | 2026-09-03 11:18:10 | 52.14505 | 9.51770 | 57° | 31km/h | 659m | -5.2m/s | 13.9°C | 94.1% | 943.81hPa | 2.7V | 00:00:00 | 00:00:00 | 00:00:00 | |
| DL3OBA | 2026-09-03 11:18:08 | 52.14501 | 9.51759 | 61° | 33km/h | 664m | -5.5m/s | 13.9°C | 94.2% | 943.4hPa | 2.7V | 07:55:00 | 00:00:00 | 00:00:00 | |
| DL4XJ-10 | 2026-09-03 11:18:03 | 52.14475 | 9.51684 | 57° | 37km/h | 696m | -6.2m/s | 15.2°C | 0% | 0hPa | 2.7V | 00:00:00 | 00:00:00 | 00:00:00 | |
| DM0DOS-11 | 2026-09-03 11:18:01 | 52.14465 | 9.51660 | 50° | 37km/h | 707m | -4.1m/s | 13.5°C | 96.5% | 938.4hPa | 2.7V | 07:55:29 | 01:46:36 | 00:00:00 | |
| DM0DOS-11 | 2026-09-03 11:18:01 | 52.14453 | 9.51637 | 50° | 37km/h | 715m | -4.5m/s | 13.4°C | 97.2% | 937.1hPa | 2.7V | 07:55:31 | 01:46:34 | 00:00:00 | |
| DM0DOS-11 | 2026-09-03 11:18:01 | 52.14442 | 9.51613 | 53° | 38km/h | 725m | -5m/s | 13.3°C | 97.7% | 936.1hPa | 2.7V | 07:55:33 | 01:46:32 | 00:00:00 | |
| DM0DOS-11 | 2026-09-03 11:17:56 | 52.14431 | 9.51586 | 57° | 40km/h | 734m | -4.4m/s | 13.3°C | 97.7% | 935.2hPa | 2.7V | 07:55:35 | 01:46:30 | 00:00:00 | |
| DM0DOS-11 | 2026-09-03 11:17:56 | 52.14421 | 9.51558 | 60° | 40km/h | 743m | -5m/s | 13.2°C | 97.9% | 934.1hPa | 2.7V | 07:55:37 | 01:46:28 | 00:00:00 | |
| DM0DOS-11 | 2026-09-03 11:17:56 | 52.14410 | 9.51528 | 59° | 44km/h | 753m | -4.3m/s | 13.1°C | 98.5% | 933.2hPa | 2.7V | 07:55:39 | 01:46:26 | 00:00:00 | |
| DB0DAN | 2026-09-03 11:17:55 | 52.14431 | 9.51586 | 58° | 38km/h | 734m | -4.4m/s | 13.3°C | 97% | 935.2hPa | 2.7V | 00:00:00 | 00:00:00 | 00:00:00 | |
| DL4XJ-10 | 2026-09-03 11:17:53 | 52.14421 | 9.51558 | 61° | 44km/h | 742m | -5.0m/s | 14.8°C | 0% | 0hPa | 2.7V | 00:00:00 | 00:00:00 | 00:00:00 | |
| DM0DOS-11 | 2026-09-03 11:17:50 | 52.14397 | 9.51498 | 54° | 46km/h | 761m | -4.3m/s | 13.1°C | 98.6% | 932.1hPa | 2.7V | 07:55:41 | 01:46:24 | 00:00:00 | |
| DM0DOS-11 | 2026-09-03 11:17:50 | 52.14384 | 9.51469 | 52° | 44km/h | 769m | -3.3m/s | 13°C | 98.7% | 931.3hPa | 2.7V | 07:55:43 | 01:46:22 | 00:00:00 | |
| DM0DOS-11 | 2026-09-03 11:17:50 | 52.14370 | 9.51441 | 50° | 42km/h | 776m | -4.6m/s | 13°C | 99.3% | 930.5hPa | 2.7V | 07:55:45 | 01:46:20 | 00:00:00 | |
| DL3OBA | 2026-09-03 11:17:48 | 52.14397 | 9.51498 | 56° | 46km/h | 761m | -4.3m/s | 13.1°C | 98.0% | 932.2hPa | 2.7V | 07:55:00 | 00:00:00 | 00:00:00 | |
| DM0DOS-11 | 2026-09-03 11:17:44 | 52.14356 | 9.51415 | 48° | 42km/h | 785m | -3.5m/s | 12.9°C | 99.4% | 929.8hPa | 2.7V | 07:55:47 | 01:46:18 | 00:00:00 | |
| DM0DOS-11 | 2026-09-03 11:17:44 | 52.14342 | 9.51388 | 50° | 44km/h | 792m | -4.3m/s | 12.9°C | 99.5% | 928.8hPa | 2.7V | 07:55:49 | 01:46:16 | 00:00:00 | |
| DM0DOS-11 | 2026-09-03 11:17:44 | 52.14328 | 9.51358 | 53° | 47km/h | 801m | -5.4m/s | 12.8°C | 99.8% | 927.7hPa | 2.7V | 07:55:51 | 01:46:14 | 00:00:00 | |
| DL4XJ-10 | 2026-09-03 11:17:43 | 52.14356 | 9.51414 | 49° | 44km/h | 785m | -3.5m/s | 14.5°C | 0% | 0hPa | 2.7V | 00:00:00 | 00:00:00 | 00:00:00 | |
| DB0DAN | 2026-09-03 11:17:40 | 52.14335 | 9.51373 | 53° | 44km/h | 796m | -4.7m/s | 12.8°C | 99.1% | 928.31hPa | 2.7V | 00:00:00 | 00:00:00 | 00:00:00 | |
| DM0DOS-11 | 2026-09-03 11:17:39 | 52.14314 | 9.51328 | 48° | 46km/h | 812m | -5m/s | 12.7°C | 0% | 926.5hPa | 2.7V | 07:55:53 | 01:46:12 | 00:00:00 | |
| DM0DOS-11 | 2026-09-03 11:17:39 | 52.14299 | 9.51301 | 47° | 42km/h | 822m | -4.9m/s | 12.7°C | 0% | 925.6hPa | 2.7V | 07:55:55 | 01:46:10 | 00:00:00 | |
| DM0DOS-11 | 2026-09-03 11:17:34 | 52.14285 | 9.51275 | 47° | 44km/h | 832m | -5.6m/s | 12.7°C | 0% | 924.5hPa | 2.7V | 07:55:57 | 01:46:08 | 00:00:00 | |
| DM0DOS-11 | 2026-09-03 11:17:34 | 52.14270 | 9.51249 | 48° | 44km/h | 845m | -7.4m/s | 12.6°C | 0% | 923.2hPa | 2.7V | 07:55:59 | 01:46:06 | 00:00:00 | |
| DM0DOS-11 | 2026-09-03 11:17:34 | 52.14248 | 9.51204 | 50° | 47km/h | 863m | -5m/s | 12.4°C | 0% | 920.9hPa | 2.7V | 07:56:02 | 01:46:03 | 00:00:00 | |
| DL4XJ-10 | 2026-09-03 11:17:33 | 52.14284 | 9.51275 | 48° | 46km/h | 832m | -5.5m/s | 14.3°C | 0% | 0hPa | 2.6V | 00:00:00 | 00:00:00 | 00:00:00 | |
| DL3OBA | 2026-09-03 11:17:29 | 52.14256 | 9.51219 | 55° | 47km/h | 858m | -5.5m/s | 12.5°C | 0% | 921.4hPa | 2.6V | 07:56:00 | 00:00:00 | 00:00:00 | |
| DM0DOS-11 | 2026-09-03 11:17:28 | 52.14240 | 9.51189 | 48° | 47km/h | 868m | -5.7m/s | 12.4°C | 0% | 920.3hPa | 2.6V | 07:56:03 | 01:46:02 | 00:00:00 | |
| DM0DOS-11 | 2026-09-03 11:17:28 | 52.14225 | 9.51159 | 52° | 47km/h | 879m | -5.5m/s | 12.4°C | 0% | 919.2hPa | 2.7V | 07:56:05 | 01:46:00 | 00:00:00 | |
| DM0DOS-11 | 2026-09-03 11:17:28 | 52.14210 | 9.51129 | 51° | 44km/h | 891m | -6.8m/s | 12.4°C | 0% | 918.2hPa | 2.7V | 07:56:07 | 01:45:58 | 00:00:00 | |
| DB0DAN | 2026-09-03 11:17:25 | 52.14224 | 9.51159 | 52° | 46km/h | 879m | -5.6m/s | 12.4°C | 100% | 919.22hPa | 2.7V | 00:00:00 | 00:00:00 | 00:00:00 | |
| DL4XJ-10 | 2026-09-03 11:17:23 | 52.14210 | 9.51129 | 52° | 53km/h | 891m | -6.7m/s | 14.0°C | 0% | 0hPa | 2.7V | 00:00:00 | 00:00:00 | 00:00:00 | |
| DM0DOS-11 | 2026-09-03 11:17:22 | 52.14197 | 9.51096 | 60° | 51km/h | 905m | -7.3m/s | 12.4°C | 0% | 916.7hPa | 2.7V | 07:56:09 | 01:45:56 | 00:00:00 | |
| DM0DOS-11 | 2026-09-03 11:17:22 | 52.14184 | 9.51058 | 59° | 53km/h | 918m | -6.2m/s | 12.3°C | 0% | 915.3hPa | 2.7V | 07:56:11 | 01:45:54 | 00:00:00 | |
| DM0DOS-11 | 2026-09-03 11:17:22 | 52.14162 | 9.51000 | 57° | 57km/h | 936m | -5.1m/s | 12.2°C | 0% | 912.9hPa | 2.7V | 07:56:14 | 01:45:51 | 00:00:00 | |
| DL3AQ-11 | 2026-09-03 11:17:21 | 52.14197 | 9.51096 | 60° | 51km/h | 905m | -7.4m/s | 12.4°C | 100.0% | 916.7hPa | 2.7V | 00:00:00 | 00:00:00 | 00:00:00 | |
| DM0DOS-11 | 2026-09-03 11:17:17 | 52.14155 | 9.50980 | 57° | 57km/h | 942m | -5.6m/s | 12.2°C | 0% | 912.4hPa | 2.7V | 07:56:15 | 01:45:50 | 00:00:00 | |
| DM0DOS-11 | 2026-09-03 11:17:17 | 52.14124 | 9.50878 | 67° | 55km/h | 971m | -5.7m/s | 12.6°C | 0% | 909.3hPa | 2.7V | 07:56:20 | 01:45:45 | 00:00:00 | |
| DL4XJ-10 | 2026-09-03 11:17:13 | 52.14140 | 9.50940 | 63° | 55km/h | 954m | -5.5m/s | 13.8°C | 0% | 0hPa | 2.7V | 00:00:00 | 00:00:00 | 00:00:00 | |
| DM0DOS-11 | 2026-09-03 11:17:11 | 52.14114 | 9.50835 | 70° | 57km/h | 983m | -6.1m/s | 12.4°C | 0% | 908.1hPa | 2.7V | 07:56:22 | 01:45:43 | 00:00:00 | |
| DM0DOS-11 | 2026-09-03 11:17:11 | 52.14105 | 9.50792 | 74° | 53km/h | 995m | -6.3m/s | 12.5°C | 0% | 906.9hPa | 2.7V | 07:56:24 | 01:45:41 | 00:00:00 | |
| DB0DAN | 2026-09-03 11:17:10 | 52.14124 | 9.50878 | 67° | 53km/h | 971m | -5.7m/s | 12.6°C | 100% | 909.3hPa | 2.7V | 00:00:00 | 00:00:00 | 00:00:00 | |
| DL3OBA | 2026-09-03 11:17:07 | 52.14114 | 9.50835 | 71° | 57km/h | 983m | -6.1m/s | 12.4°C | 0% | 908.1hPa | 2.7V | 07:56:00 | 00:00:00 | 00:00:00 | |
| DM0DOS-11 | 2026-09-03 11:17:05 | 52.14097 | 9.50750 | 74° | 53km/h | 1007m | -5.7m/s | 12.5°C | 0% | 905.4hPa | 2.7V | 07:56:26 | 01:45:39 | 00:00:00 | |
| DM0DOS-11 | 2026-09-03 11:17:05 | 52.14091 | 9.50707 | 75° | 53km/h | 1020m | -7.2m/s | 12.5°C | 0% | 903.8hPa | 2.7V | 07:56:28 | 01:45:37 | 00:00:00 | |
| DM0DOS-11 | 2026-09-03 11:17:05 | 52.14084 | 9.50665 | 75° | 55km/h | 1033m | -6.9m/s | 12.4°C | 0% | 902.5hPa | 2.6V | 07:56:30 | 01:45:35 | 00:00:00 | |
| DL4XJ-10 | 2026-09-03 11:17:03 | 52.14094 | 9.50728 | 78° | 55km/h | 1013m | -6.2m/s | 14.1°C | 0% | 0hPa | 2.7V | 00:00:00 | 00:00:00 | 00:00:00 | |
| BIOWL9-15 | 2026-09-03 11:17:01 | 52.14078 | 9.50620 | 79° | 57km/h | 1047m | -6.9m/s | 12.3°C | -1.0% | 901.0hPa | 2.7V | 00:00:00 | 00:00:00 | 00:00:00 | |
| DM0DOS-11 | 2026-09-03 11:17:00 | 52.14078 | 9.50620 | 79° | 57km/h | 1047m | -6.9m/s | 12.3°C | 0% | 901hPa | 2.7V | 07:56:32 | 01:45:33 | 00:00:00 | |
| DM0DOS-11 | 2026-09-03 11:17:00 | 52.14073 | 9.50573 | 80° | 57km/h | 1061m | -7m/s | 12.3°C | 0% | 899.6hPa | 2.7V | 07:56:34 | 01:45:31 | 00:00:00 | |
| BIOWL1-15 | 2026-09-03 11:17:00 | 52.14078 | 9.50620 | 79° | 57km/h | 1047m | -6.9m/s | 12.3°C | 100% | 0hPa | 2.7V | 07:57:32 | 01:45:33 | 00:00:00 | |
| BIOWL1-15 | 2026-09-03 11:16:59 | 52.14075 | 9.50596 | 79° | 57km/h | 1054m | -7.5m/s | 12.3°C | 100% | 0hPa | 2.7V | 07:57:32 | 01:45:32 | 00:00:00 | |
| DM0DOS-11 | 2026-09-03 11:16:55 | 52.14068 | 9.50528 | 80° | 57km/h | 1075m | -6.9m/s | 12.3°C | 0% | 898.5hPa | 2.6V | 07:56:36 | 01:45:29 | 00:00:00 | |
| DM0DOS-11 | 2026-09-03 11:16:55 | 52.14064 | 9.50484 | 82° | 53km/h | 1088m | -6.4m/s | 12.4°C | 0% | 896.7hPa | 2.7V | 07:56:38 | 01:45:27 | 00:00:00 | |
| DM0DOS-11 | 2026-09-03 11:16:55 | 52.14061 | 9.50439 | 86° | 55km/h | 1100m | -5.6m/s | 12.5°C | 0% | 895.4hPa | 2.7V | 07:56:40 | 01:45:25 | 00:00:00 | |
| DB0DAN | 2026-09-03 11:16:55 | 52.14070 | 9.50550 | 80° | 53km/h | 1068m | -6.9m/s | 12.3°C | 100% | 898.88hPa | 2.7V | 00:00:00 | 00:00:00 | 00:00:00 | |
| DL3AQ-11 | 2026-09-03 11:16:53 | 52.14060 | 9.50328 | 91° | 55km/h | 1128m | -5.8m/s | 12.4°C | 100.0% | 892.3hPa | 2.7V | 00:00:00 | 00:00:00 | 00:00:00 | |
| DM0DOS-11 | 2026-09-03 11:16:50 | 52.14060 | 9.50395 | 87° | 53km/h | 1112m | -5.6m/s | 12.2°C | 0% | 894.1hPa | 2.7V | 07:56:42 | 01:45:23 | 00:00:00 | |
| DM0DOS-11 | 2026-09-03 11:16:50 | 52.14060 | 9.50350 | 91° | 55km/h | 1122m | -5.7m/s | 12.3°C | 0% | 892.6hPa | 2.7V | 07:56:44 | 01:45:21 | 00:00:00 | |
| DK9SH | 2026-09-03 11:16:47 | 52.14060 | 9.50395 | 89° | 53km/h | 1112m | -5.6m/s | 12.2°C | 0% | 894.1hPa | 2.6V | 00:00:00 | 00:00:00 | 00:00:00 | |
| DL3OBA | 2026-09-03 11:16:46 | 52.14060 | 9.50373 | 91° | 53km/h | 1117m | -5.2m/s | 12.3°C | 0% | 893.4hPa | 2.6V | 07:57:00 | 00:00:00 | 00:00:00 | |
| DM0DOS-11 | 2026-09-03 11:16:45 | 52.14061 | 9.50306 | 91° | 55km/h | 1134m | -5.8m/s | 12.3°C | 0% | 891.8hPa | 2.6V | 07:56:46 | 01:45:19 | 00:00:00 | |
| DM0DOS-11 | 2026-09-03 11:16:45 | 52.14062 | 9.50262 | 91° | 53km/h | 1145m | -6.2m/s | 12.2°C | 0% | 890.4hPa | 2.7V | 07:56:48 | 01:45:17 | 00:00:00 | |
| DM0DOS-11 | 2026-09-03 11:16:45 | 52.14062 | 9.50218 | 90° | 53km/h | 1158m | -6.5m/s | 12.2°C | 0% | 889.3hPa | 2.7V | 07:56:50 | 01:45:15 | 00:00:00 | |
| BIOWL1-15 | 2026-09-03 11:16:43 | 52.14061 | 9.50284 | 91° | 53km/h | 1139m | -5.2m/s | 12.3°C | 100% | 0hPa | 2.6V | 07:57:32 | 01:45:18 | 00:00:00 | |
| DL4XJ-10 | 2026-09-03 11:16:43 | 52.14062 | 9.50284 | 92° | 55km/h | 1140m | -5.2m/s | 13.9°C | 0% | 0hPa | 2.7V | 00:00:00 | 00:00:00 | 00:00:00 | |
| DL8OAI-8 | 2026-09-03 11:16:42 | 52.14061 | 9.50284 | 92° | 53km/h | 1140m | -5.2m/s | 12.3°C | 110.3% | 891.1hPa | 2.7V | 07:57:00 | 00:00:00 | 00:00:00 | |
| DB0DAN | 2026-09-03 11:16:40 | 52.14062 | 9.50218 | 91° | 51km/h | 1158m | -6.5m/s | 12.3°C | 100% | 889.3hPa | 2.7V | 00:00:00 | 00:00:00 | 00:00:00 | |
| DM0DOS-11 | 2026-09-03 11:16:39 | 52.14063 | 9.50173 | 91° | 53km/h | 1170m | -6.2m/s | 12.2°C | 0% | 888hPa | 2.7V | 07:56:52 | 01:45:13 | 00:00:00 | |
| DM0DOS-11 | 2026-09-03 11:16:39 | 52.14064 | 9.50083 | 92° | 53km/h | 1195m | -6.1m/s | 12.1°C | 0% | 885.3hPa | 2.7V | 07:56:56 | 01:45:09 | 00:00:00 | |
| DM0DOS-11 | 2026-09-03 11:16:34 | 52.14066 | 9.50040 | 93° | 53km/h | 1207m | -6m/s | 12.2°C | 0% | 884hPa | 2.6V | 07:56:58 | 01:45:07 | 00:00:00 | |
| DM0DOS-11 | 2026-09-03 11:16:34 | 52.14067 | 9.49995 | 92° | 55km/h | 1219m | -6.6m/s | 12.2°C | 0% | 882.7hPa | 2.7V | 07:57:00 | 01:45:05 | 00:00:00 | |
| BIOWL1-15 | 2026-09-03 11:16:33 | 52.14065 | 9.50061 | 94° | 53km/h | 1201m | -6.2m/s | 12.1°C | 100% | 0hPa | 2.6V | 07:57:32 | 01:45:08 | 00:00:00 | |
| BIOWL1-15 | 2026-09-03 11:16:31 | 52.14069 | 9.49929 | 93° | 53km/h | 1238m | -6.6m/s | 12.1°C | 100% | 0hPa | 2.7V | 07:57:32 | 01:45:02 | 00:00:00 | |
| DM0DOS-11 | 2026-09-03 11:16:29 | 52.14068 | 9.49951 | 92° | 51km/h | 1232m | -6.3m/s | 12.2°C | 0% | 881.5hPa | 2.7V | 07:57:02 | 01:45:03 | 00:00:00 | |
| DM0DOS-11 | 2026-09-03 11:16:29 | 52.14070 | 9.49908 | 96° | 53km/h | 1244m | -6.3m/s | 12.1°C | 0% | 880.1hPa | 2.7V | 07:57:04 | 01:45:01 | 00:00:00 | |
| DK9SH | 2026-09-03 11:16:27 | 52.14068 | 9.49951 | 93° | 51km/h | 1232m | -6.3m/s | 12.2°C | 0% | 881.5hPa | 2.7V | 00:00:00 | 00:00:00 | 00:00:00 | |
| DB0DAN | 2026-09-03 11:16:25 | 52.14071 | 9.49886 | 95° | 49km/h | 1251m | -6.5m/s | 12.1°C | 100% | 879.52hPa | 2.7V | 00:00:00 | 00:00:00 | 00:00:00 | |
| DM0DOS-11 | 2026-09-03 11:16:24 | 52.14074 | 9.49773 | 86° | 53km/h | 1282m | -5.6m/s | 12.1°C | 0% | 876.1hPa | 2.7V | 07:57:10 | 01:44:55 | 00:00:00 | |
| BIOWL1-15 | 2026-09-03 11:16:22 | 52.14074 | 9.49773 | 87° | 53km/h | 1282m | -5.6m/s | 12.1°C | 100% | 0hPa | 2.7V | 07:57:32 | 01:44:55 | 00:00:00 | |
| BIOWL1-15 | 2026-09-03 11:16:21 | 52.14073 | 9.49751 | 87° | 51km/h | 1288m | -6.3m/s | 12.1°C | 100% | 0hPa | 2.7V | 07:57:32 | 01:44:54 | 00:00:00 | |
| DM0DOS-11 | 2026-09-03 11:16:19 | 52.14072 | 9.49690 | 91° | 49km/h | 1306m | -6.1m/s | 12°C | 0% | 873.8hPa | 2.7V | 07:57:14 | 01:44:51 | 00:00:00 | |
| DM0DOS-11 | 2026-09-03 11:16:19 | 52.14073 | 9.49649 | 92° | 51km/h | 1318m | -5.7m/s | 12°C | 0% | 872.3hPa | 2.7V | 07:57:16 | 01:44:49 | 00:00:00 | |
| BIOWL1-15 | 2026-09-03 11:16:15 | 52.14074 | 9.49628 | 94° | 51km/h | 1323m | -5.4m/s | 11.9°C | 100% | 0hPa | 2.7V | 07:57:32 | 01:44:48 | 00:00:00 | |
| DM0DOS-11 | 2026-09-03 11:16:13 | 52.14074 | 9.49562 | 90° | 53km/h | 1341m | -5.7m/s | 11.8°C | 0% | 870.1hPa | 2.6V | 07:57:20 | 01:44:45 | 00:00:00 | |
| DL4XJ-10 | 2026-09-03 11:16:13 | 52.14074 | 9.49628 | 94° | 53km/h | 1324m | -5.3m/s | 13.5°C | 0% | 0hPa | 2.6V | 00:00:00 | 00:00:00 | 00:00:00 | |
| DB0DAN | 2026-09-03 11:16:10 | 52.14074 | 9.49562 | 90° | 51km/h | 1341m | -5.7m/s | 11.9°C | 100% | 870.07hPa | 2.6V | 00:00:00 | 00:00:00 | 00:00:00 | |
| DM0DOS-11 | 2026-09-03 11:16:08 | 52.14072 | 9.49454 | 88° | 51km/h | 1371m | -5.8m/s | 11.7°C | 0% | 866.8hPa | 2.7V | 07:57:25 | 01:44:40 | 00:00:00 | |
| DM0DOS-11 | 2026-09-03 11:16:08 | 52.14073 | 9.49411 | 91° | 53km/h | 1383m | -6.5m/s | 11.7°C | 0% | 865.6hPa | 2.7V | 07:57:27 | 01:44:38 | 00:00:00 | |
| BIOWL1-15 | 2026-09-03 11:16:08 | 52.14074 | 9.49518 | 89° | 53km/h | 1352m | -6.1m/s | 11.8°C | 100% | 0hPa | 2.7V | 07:57:32 | 01:44:43 | 00:00:00 | |
| BIOWL1-15 | 2026-09-03 11:16:06 | 52.14073 | 9.49475 | 88° | 53km/h | 1365m | -6.1m/s | 11.7°C | 100% | 0hPa | 2.7V | 07:57:32 | 01:44:41 | 00:00:00 | |
| BIOWL1-15 | 2026-09-03 11:16:05 | 52.14072 | 9.49454 | 89° | 51km/h | 1371m | -5.8m/s | 11.7°C | 100% | 0hPa | 2.7V | 07:57:32 | 01:44:40 | 00:00:00 | |
| BIOWL1-15 | 2026-09-03 11:16:03 | 52.14073 | 9.49411 | 92° | 53km/h | 1383m | -6.5m/s | 11.7°C | 100% | 0hPa | 2.7V | 07:57:32 | 01:44:38 | 00:00:00 | |
| BIOWL1-15 | 2026-09-03 11:16:02 | 52.14073 | 9.49389 | 91° | 55km/h | 1389m | -6.3m/s | 11.6°C | 100% | 0hPa | 2.7V | 07:57:32 | 01:44:37 | 00:00:00 | |
| DM0DOS-11 | 2026-09-03 11:16:01 | 52.14073 | 9.49366 | 88° | 55km/h | 1395m | -5.7m/s | 11.6°C | 0% | 864.4hPa | 2.7V | 07:57:29 | 01:44:36 | 00:00:00 | |
| DM0DOS-11 | 2026-09-03 11:16:01 | 52.14070 | 9.49278 | 85° | 51km/h | 1419m | -6.3m/s | 11.5°C | 0% | 861.8hPa | 2.7V | 07:57:33 | 01:44:32 | 00:00:00 | |
| BIOWL1-15 | 2026-09-03 11:16:01 | 52.14073 | 9.49366 | 89° | 55km/h | 1395m | -5.7m/s | 11.6°C | 100% | 0hPa | 2.7V | 07:57:32 | 01:44:36 | 00:00:00 | |
| BIOWL1-15 | 2026-09-03 11:15:59 | 52.14072 | 9.49322 | 87° | 55km/h | 1407m | -6.3m/s | 11.6°C | 100% | 0hPa | 2.7V | 07:57:32 | 01:44:34 | 00:00:00 | |
| BIOWL1-15 | 2026-09-03 11:15:58 | 52.14070 | 9.49278 | 85° | 51km/h | 1419m | -6.3m/s | 11.5°C | 100% | 0hPa | 2.7V | 07:58:23 | 01:44:32 | 00:00:00 | |
| DM0DOS-11 | 2026-09-03 11:15:56 | 52.14068 | 9.49194 | 90° | 53km/h | 1444m | -5.6m/s | 11.4°C | 0% | 859.5hPa | 2.7V | 07:57:37 | 01:44:28 | 00:00:00 | |
| BIOWL1-15 | 2026-09-03 11:15:56 | 52.14069 | 9.49258 | 86° | 49km/h | 1426m | -6.4m/s | 11.5°C | 100% | 0hPa | 2.7V | 07:58:23 | 01:44:31 | 00:00:00 | |
| DB0DAN | 2026-09-03 11:15:55 | 52.14068 | 9.49237 | 90° | 49km/h | 1432m | -6.2m/s | 11.5°C | 100% | 860.69hPa | 2.6V | 00:00:00 | 00:00:00 | 00:00:00 | |
| BIOWL1-15 | 2026-09-03 11:15:54 | 52.14067 | 9.49150 | 87° | 55km/h | 1456m | -5.9m/s | 11.3°C | 100% | 0hPa | 2.7V | 07:58:23 | 01:44:26 | 00:00:00 | |
| BIOWL1-15 | 2026-09-03 11:15:54 | 52.14067 | 9.49127 | 88° | 53km/h | 1462m | -6.2m/s | 11.3°C | 100% | 0hPa | 2.7V | 07:58:23 | 01:44:25 | 00:00:00 | |
| DL4XJ-10 | 2026-09-03 11:15:53 | 52.14068 | 9.49194 | 91° | 53km/h | 1444m | -5.6m/s | 13.0°C | 0% | 0hPa | 2.7V | 00:00:00 | 00:00:00 | 00:00:00 | |
| DM0DOS-11 | 2026-09-03 11:15:50 | 52.14066 | 9.49106 | 86° | 53km/h | 1468m | -5.9m/s | 11.3°C | 0% | 857.2hPa | 2.7V | 07:57:41 | 01:44:24 | 00:00:00 | |
| DM0DOS-11 | 2026-09-03 11:15:50 | 52.14065 | 9.49063 | 89° | 53km/h | 1480m | -6.7m/s | 11.2°C | 0% | 855.8hPa | 2.7V | 07:57:43 | 01:44:22 | 00:00:00 | |
| BIOWL1-15 | 2026-09-03 11:15:47 | 52.14063 | 9.48974 | 87° | 57km/h | 1504m | -5.5m/s | 11.1°C | 100% | 0hPa | 2.7V | 07:58:23 | 01:44:18 | 00:00:00 | |
| BIOWL1-15 | 2026-09-03 11:15:46 | 52.14061 | 9.48951 | 83° | 57km/h | 1509m | -5.6m/s | 11.1°C | 100% | 0hPa | 2.7V | 07:58:23 | 01:44:17 | 00:00:00 | |
| DL3AQ-11 | 2026-09-03 11:15:45 | 52.14064 | 9.49019 | 87° | 53km/h | 1492m | -5.6m/s | 11.2°C | 100.0% | 854.7hPa | 2.7V | 00:00:00 | 00:00:00 | 00:00:00 | |
| DM0DOS-11 | 2026-09-03 11:15:44 | 52.14063 | 9.48974 | 86° | 57km/h | 1504m | -5.5m/s | 11.1°C | 0% | 853.3hPa | 2.7V | 07:57:47 | 01:44:18 | 00:00:00 | |
| DM0DOS-11 | 2026-09-03 11:15:44 | 52.14060 | 9.48928 | 84° | 55km/h | 1515m | -6.2m/s | 11.1°C | 0% | 852.2hPa | 2.7V | 07:57:49 | 01:44:16 | 00:00:00 | |
| DM0DOS-11 | 2026-09-03 11:15:44 | 52.14058 | 9.48884 | 85° | 53km/h | 1527m | -5.7m/s | 11.1°C | 0% | 851hPa | 2.7V | 07:57:51 | 01:44:14 | 00:00:00 | |
| BIOWL1-15 | 2026-09-03 11:15:41 | 52.14057 | 9.48884 | 86° | 53km/h | 1527m | -5.7m/s | 11.1°C | 100% | 0hPa | 2.7V | 07:58:23 | 01:44:14 | 00:00:00 | |
| DB0DAN | 2026-09-03 11:15:40 | 52.14059 | 9.48906 | 84° | 51km/h | 1521m | -5.7m/s | 11.1°C | 100% | 851.58hPa | 2.7V | 00:00:00 | 00:00:00 | 00:00:00 | |
| BIOWL1-15 | 2026-09-03 11:15:40 | 52.14057 | 9.48862 | 88° | 53km/h | 1533m | -5.6m/s | 11°C | 100% | 0hPa | 2.6V | 07:58:23 | 01:44:13 | 00:00:00 | |
| DM0DOS-11 | 2026-09-03 11:15:39 | 52.14056 | 9.48817 | 88° | 55km/h | 1544m | -5.9m/s | 10.9°C | 0% | 849hPa | 2.7V | 07:57:54 | 01:44:11 | 00:00:00 | |
| DM0DOS-11 | 2026-09-03 11:15:39 | 52.14056 | 9.48773 | 89° | 53km/h | 1556m | -5.8m/s | 10.9°C | 0% | 847.7hPa | 2.7V | 07:57:56 | 01:44:09 | 00:00:00 | |
| BIOWL1-15 | 2026-09-03 11:15:35 | 52.14056 | 9.48795 | 90° | 55km/h | 1550m | -6.6m/s | 10.9°C | 100% | 0hPa | 2.7V | 07:58:23 | 01:44:10 | 00:00:00 | |
| BIOWL1-15 | 2026-09-03 11:15:33 | 52.14058 | 9.48682 | 90° | 58km/h | 1580m | -6.1m/s | 10.8°C | 100% | 0hPa | 2.7V | 07:58:23 | 01:44:05 | 00:00:00 | |
| BIOWL1-15 | 2026-09-03 11:15:29 | 52.14058 | 9.48658 | 90° | 58km/h | 1586m | -6.5m/s | 10.7°C | 100% | 0hPa | 2.7V | 07:58:23 | 01:44:04 | 00:00:00 | |
| DM0DOS-11 | 2026-09-03 11:15:28 | 52.14057 | 9.48610 | 88° | 58km/h | 1600m | -6.6m/s | 10.8°C | 0% | 843.4hPa | 2.7V | 07:58:03 | 01:44:02 | 00:00:00 | |
| BIOWL1-15 | 2026-09-03 11:15:28 | 52.14057 | 9.48491 | 91° | 62km/h | 1633m | -6.6m/s | 10.9°C | 100% | 0hPa | 2.7V | 07:58:23 | 01:43:57 | 00:00:00 | |
| DB0DAN | 2026-09-03 11:15:25 | 52.14056 | 9.48563 | 88° | 53km/h | 1613m | -6.7m/s | 10.8°C | 98.9% | 842.29hPa | 2.7V | 00:00:00 | 00:00:00 | 00:00:00 | |
| BIOWL1-15 | 2026-09-03 11:15:19 | 52.14055 | 9.48341 | 91° | 60km/h | 1671m | -6.4m/s | 10.6°C | 100% | 0hPa | 2.7V | 07:58:23 | 01:43:51 | 00:00:00 | |
| DL8OAI-8 | 2026-09-03 11:15:19 | 52.14056 | 9.48441 | 89° | 62km/h | 1647m | -6.5m/s | 10.8°C | 99.9% | 839.0hPa | 2.7V | 07:58:00 | 00:00:00 | 00:00:00 | |
| DM0DOS-11 | 2026-09-03 11:15:18 | 52.14056 | 9.48264 | 89° | 64km/h | 1690m | -6.4m/s | 10.6°C | 0% | 834.7hPa | 2.7V | 07:58:17 | 01:43:48 | 00:00:00 | |
| DO2JMG | 2026-09-03 11:15:15 | 52.14056 | 9.48316 | 91° | 62km/h | 1678m | -6.3m/s | 10.6°C | 100% | 835.8hPa | 2.7V | 08:00:05 | 01:43:50 | 00:00:00 | |
| DO2JMG | 2026-09-03 11:15:13 | 52.14056 | 9.48264 | 89° | 64km/h | 1690m | -6.4m/s | 10.6°C | 0% | 834.7hPa | 2.7V | 08:00:05 | 01:43:48 | 00:00:00 | |
| BIOWL1-15 | 2026-09-03 11:15:12 | 52.14056 | 9.48238 | 89° | 62km/h | 1697m | -6.6m/s | 0°C | 0% | 0hPa | 2.7V | 07:58:23 | 01:43:47 | 00:00:00 | |
| BIOWL1-15 | 2026-09-03 11:15:11 | 52.14057 | 9.48109 | 93° | 66km/h | 1729m | -6.9m/s | 0°C | 0% | 0hPa | 2.7V | 07:58:23 | 01:43:42 | 00:00:00 | |
| DB0DAN | 2026-09-03 11:15:10 | 52.14056 | 9.48187 | 90° | 58km/h | 1710m | -6.5m/s | 10.5°C | 99.9% | 832.67hPa | 2.6V | 00:00:00 | 00:00:00 | 00:00:00 | |
| DO2JMG | 2026-09-03 11:15:09 | 52.14056 | 9.48162 | 92° | 62km/h | 1716m | -6.3m/s | 10.5°C | 0% | 831.8hPa | 2.6V | 08:00:05 | 01:43:44 | 00:00:00 | |
| DM0DOS-11 | 2026-09-03 11:15:08 | 52.14058 | 9.48001 | 90° | 66km/h | 1754m | -6.2m/s | 10.5°C | 98.3% | 828.1hPa | 2.7V | 07:58:27 | 01:43:38 | 00:00:00 | |
| DO2JMG | 2026-09-03 11:15:08 | 52.14056 | 9.48136 | 93° | 64km/h | 1722m | -6.8m/s | 10.5°C | 0% | 831.3hPa | 2.7V | 08:00:05 | 01:43:43 | 00:00:00 | |
| DO2JMG | 2026-09-03 11:15:06 | 52.14058 | 9.48083 | 92° | 66km/h | 1736m | -6.6m/s | 10.5°C | 0% | 830hPa | 2.7V | 08:00:05 | 01:43:41 | 00:00:00 | |
| BIOWL1-15 | 2026-09-03 11:15:05 | 52.14058 | 9.48055 | 90° | 66km/h | 1743m | -6.4m/s | 0°C | 0% | 0hPa | 2.7V | 18:12:15 | 01:43:40 | 00:00:00 | |
| BIOWL1-15 | 2026-09-03 11:15:04 | 52.14058 | 9.48028 | 90° | 66km/h | 1749m | -5.8m/s | 0°C | 0% | 0hPa | 2.7V | 18:12:15 | 01:43:39 | 00:00:00 | |
| SONCRA | 2026-09-03 11:15:04 | 52.14058 | 9.48001 | 90° | 64km/h | 1754m | -6.3m/s | 10.5°C | 97.5% | 828.1hPa | 2.7V | 00:00:00 | 00:00:00 | 00:00:00 | |
| DM0DOS-11 | 2026-09-03 11:15:03 | 52.14059 | 9.47890 | 90° | 71km/h | 1779m | -5.7m/s | 10.3°C | 99.6% | 825.5hPa | 2.7V | 07:58:31 | 01:43:34 | 00:00:00 | |
| DO2JMG | 2026-09-03 11:15:03 | 52.14058 | 9.48001 | 90° | 66km/h | 1754m | -6.3m/s | 10.5°C | 0% | 828.1hPa | 2.7V | 08:00:05 | 01:43:38 | 00:00:00 | |
| DO2JMG | 2026-09-03 11:15:01 | 52.14059 | 9.47947 | 91° | 68km/h | 1767m | -6.5m/s | 10.4°C | 0% | 826.6hPa | 2.6V | 08:00:05 | 01:43:36 | 00:00:00 | |
| BIOWL1-15 | 2026-09-03 11:14:59 | 52.14059 | 9.47890 | 91° | 71km/h | 1779m | -5.7m/s | 0°C | 0% | 0hPa | 2.7V | 18:12:15 | 01:43:34 | 00:00:00 | |
| DM0DOS-11 | 2026-09-03 11:14:58 | 52.14059 | 9.47832 | 88° | 71km/h | 1791m | -6.2m/s | 10.2°C | 99.4% | 824.4hPa | 2.7V | 07:58:33 | 01:43:32 | 00:00:00 | |
| DM0DOS-11 | 2026-09-03 11:14:58 | 52.14059 | 9.47718 | 91° | 69km/h | 1815m | -6.1m/s | 10°C | 0% | 822.1hPa | 2.7V | 07:58:37 | 01:43:28 | 00:00:00 | |
| DO2JMG | 2026-09-03 11:14:58 | 52.14059 | 9.47861 | 89° | 69km/h | 1785m | -6.2m/s | 10.2°C | 0% | 824.9hPa | 2.7V | 08:00:05 | 01:43:33 | 00:00:00 | |
| BIOWL1-15 | 2026-09-03 11:14:55 | 52.14058 | 9.47774 | 89° | 69km/h | 1804m | -6m/s | 0°C | 0% | 0hPa | 2.7V | 18:12:15 | 01:43:30 | 00:00:00 | |
| DB0DAN | 2026-09-03 11:14:55 | 52.14058 | 9.47774 | 89° | 66km/h | 1804m | -6m/s | 10.1°C | 98.7% | 823.06hPa | 2.7V | 00:00:00 | 00:00:00 | 00:00:00 | |
| BIOWL1-15 | 2026-09-03 11:14:54 | 52.14058 | 9.47746 | 92° | 69km/h | 1809m | -5.5m/s | 0°C | 0% | 0hPa | 2.7V | 18:12:15 | 01:43:29 | 00:00:00 | |
| DM0DOS-11 | 2026-09-03 11:14:53 | 52.14061 | 9.47600 | 90° | 73km/h | 1839m | -5.7m/s | 10.2°C | 96.9% | 819.5hPa | 2.7V | 07:58:41 | 01:43:24 | 00:00:00 | |
| BIOWL1-15 | 2026-09-03 11:14:53 | 52.14059 | 9.47718 | 92° | 69km/h | 1815m | -6.1m/s | 0°C | 0% | 0hPa | 2.7V | 18:12:15 | 01:43:28 | 00:00:00 | |
| BIOWL1-15 | 2026-09-03 11:14:52 | 52.14060 | 9.47659 | 91° | 73km/h | 1827m | -5.8m/s | 0°C | 0% | 0hPa | 2.6V | 18:12:15 | 01:43:26 | 00:00:00 | |
| BIOWL1-15 | 2026-09-03 11:14:51 | 52.14060 | 9.47482 | 90° | 73km/h | 1863m | -5.8m/s | 0°C | 0% | 0hPa | 2.7V | 18:12:15 | 01:43:20 | 00:00:00 | |
| DM0DOS-11 | 2026-09-03 11:14:48 | 52.14060 | 9.47541 | 88° | 71km/h | 1851m | -6m/s | 10.1°C | 96.8% | 818.3hPa | 2.7V | 07:58:43 | 01:43:22 | 00:00:00 | |
| DM0DOS-11 | 2026-09-03 11:14:48 | 52.14060 | 9.47482 | 89° | 73km/h | 1863m | -5.8m/s | 10.1°C | 96.1% | 817.3hPa | 2.7V | 07:58:45 | 01:43:20 | 00:00:00 | |
| DM0DOS-11 | 2026-09-03 11:14:48 | 52.14059 | 9.47391 | 88° | 75km/h | 1881m | -6.2m/s | 10.3°C | 91.4% | 815.5hPa | 2.6V | 07:58:48 | 01:43:17 | 00:00:00 | |
| DO2JMG | 2026-09-03 11:14:44 | 52.14060 | 9.47452 | 90° | 73km/h | 1869m | -5.8m/s | 10.3°C | 0% | 816.7hPa | 2.7V | 08:00:05 | 01:43:19 | 00:00:00 | |
| DM0DOS-11 | 2026-09-03 11:14:43 | 52.14057 | 9.47301 | 89° | 73km/h | 1899m | -6.2m/s | 10.3°C | 89% | 813.7hPa | 2.7V | 07:58:51 | 01:43:14 | 00:00:00 | |
| DM0DOS-11 | 2026-09-03 11:14:43 | 52.14058 | 9.47240 | 91° | 77km/h | 1911m | -5.9m/s | 10.3°C | 87% | 812.5hPa | 2.7V | 07:58:53 | 01:43:12 | 00:00:00 | |
| DO2JMG | 2026-09-03 11:14:42 | 52.14059 | 9.47391 | 88° | 75km/h | 1881m | -6.2m/s | 10.3°C | 0% | 815.5hPa | 2.6V | 08:00:05 | 01:43:17 | 00:00:00 | |
| DL3OBA | 2026-09-03 11:14:42 | 52.14059 | 9.47391 | 89° | 75km/h | 1881m | -6.2m/s | 10.3°C | 90.6% | 815.5hPa | 2.7V | 07:59:00 | 00:00:00 | 00:00:00 | |
| DK9SH | 2026-09-03 11:14:42 | 52.14059 | 9.47391 | 89° | 75km/h | 1881m | -6.2m/s | 10.3°C | 90.6% | 815.5hPa | 2.7V | 00:00:00 | 00:00:00 | 00:00:00 | |
| DB0DAN | 2026-09-03 11:14:40 | 52.14058 | 9.47331 | 89° | 69km/h | 1893m | -6.3m/s | 10.3°C | 89% | 814.2hPa | 2.7V | 00:00:00 | 00:00:00 | 00:00:00 | |
| BIOWL1-15 | 2026-09-03 11:14:39 | 52.14057 | 9.47301 | 90° | 73km/h | 1899m | -6.2m/s | 0°C | 0% | 0hPa | 2.7V | 18:12:15 | 01:43:14 | 00:00:00 | |
| BIOWL1-15 | 2026-09-03 11:14:38 | 52.14057 | 9.47270 | 91° | 75km/h | 1905m | -6.1m/s | 0°C | 0% | 0hPa | 2.7V | 18:12:15 | 01:43:13 | 00:00:00 | |
| DM0DOS-11 | 2026-09-03 11:14:37 | 52.14058 | 9.47177 | 89° | 77km/h | 1923m | -6.5m/s | 10.2°C | 86.2% | 811.3hPa | 2.7V | 07:58:55 | 01:43:10 | 00:00:00 | |
| DM0DOS-11 | 2026-09-03 11:14:37 | 52.14058 | 9.47116 | 89° | 73km/h | 1935m | -5.9m/s | 10.2°C | 84.4% | 810.1hPa | 2.6V | 07:58:57 | 01:43:08 | 00:00:00 | |
| DO2JMG | 2026-09-03 11:14:37 | 52.14058 | 9.47208 | 90° | 77km/h | 1917m | -6.3m/s | 10.2°C | 0% | 811.9hPa | 2.7V | 08:00:05 | 01:43:11 | 00:00:00 | |
| DO2JMG | 2026-09-03 11:14:35 | 52.14058 | 9.47177 | 90° | 77km/h | 1923m | -6.5m/s | 10.2°C | 0% | 811.3hPa | 2.7V | 08:00:05 | 01:43:10 | 00:00:00 | |
| DL4XJ-10 | 2026-09-03 11:14:33 | 52.14057 | 9.47116 | 90° | 75km/h | 1935m | -5.8m/s | 11.8°C | 0% | 0hPa | 2.7V | 00:00:00 | 00:00:00 | 00:00:00 | |
| DM0DOS-11 | 2026-09-03 11:14:32 | 52.14058 | 9.47056 | 91° | 73km/h | 1948m | -6.7m/s | 10.2°C | 82.8% | 808.9hPa | 2.7V | 07:58:59 | 01:43:06 | 00:00:00 | |
| DM0DOS-11 | 2026-09-03 11:14:32 | 52.14059 | 9.46994 | 90° | 77km/h | 1961m | -6.7m/s | 10.1°C | 83.5% | 807.8hPa | 2.7V | 07:59:01 | 01:43:04 | 00:00:00 | |
| DM0DOS-11 | 2026-09-03 11:14:32 | 52.14059 | 9.46931 | 89° | 75km/h | 1974m | -6.3m/s | 10.1°C | 82.1% | 806.4hPa | 2.7V | 07:59:03 | 01:43:02 | 00:00:00 | |
| DO2JMG | 2026-09-03 11:14:32 | 52.14058 | 9.47086 | 91° | 73km/h | 1942m | -6.3m/s | 10.2°C | 0% | 809.6hPa | 2.7V | 08:00:05 | 01:43:07 | 00:00:00 | |
| DM0DOS-11 | 2026-09-03 11:14:27 | 52.14058 | 9.46871 | 88° | 73km/h | 1986m | -5.8m/s | 10°C | 82.3% | 805.3hPa | 2.6V | 07:59:05 | 01:43:00 | 00:00:00 | |
| DM0DOS-11 | 2026-09-03 11:14:27 | 52.14057 | 9.46811 | 89° | 73km/h | 1999m | -6.2m/s | 9.9°C | 83.2% | 804.1hPa | 2.7V | 07:59:07 | 01:42:58 | 00:00:00 | |
| DB0DAN | 2026-09-03 11:14:25 | 52.14057 | 9.46871 | 88° | 69km/h | 1986m | -5.8m/s | 10°C | 81.6% | 805.33hPa | 2.6V | 00:00:00 | 00:00:00 | 00:00:00 | |
| DL4XJ-10 | 2026-09-03 11:14:23 | 52.14057 | 9.46811 | 90° | 73km/h | 1999m | -6.2m/s | 11.5°C | 0% | 0hPa | 2.7V | 00:00:00 | 00:00:00 | 00:00:00 | |
| DM0DOS-11 | 2026-09-03 11:14:21 | 52.14056 | 9.46751 | 88° | 73km/h | 2011m | -6.4m/s | 9.8°C | 83% | 802.9hPa | 2.7V | 07:59:09 | 01:42:56 | 00:00:00 | |
| DM0DOS-11 | 2026-09-03 11:14:21 | 52.14055 | 9.46601 | 91° | 73km/h | 2042m | -6.1m/s | 9.5°C | 85% | 800.2hPa | 2.7V | 07:59:14 | 01:42:51 | 00:00:00 | |
| DL8OAI-8 | 2026-09-03 11:14:17 | 52.14055 | 9.46661 | 90° | 71km/h | 2030m | -6.2m/s | 9.6°C | 84.3% | 801.2hPa | 2.6V | 07:59:00 | 00:00:00 | 00:00:00 | |
| DM0DOS-11 | 2026-09-03 11:14:16 | 52.14054 | 9.46444 | 86° | 78km/h | 2071m | -6.3m/s | 9.4°C | 82.8% | 797.1hPa | 2.6V | 07:59:19 | 01:42:46 | 00:00:00 | |
| DL4XJ-10 | 2026-09-03 11:14:12 | 52.14055 | 9.46476 | 88° | 78km/h | 2065m | -5.7m/s | 11.0°C | 0% | 0hPa | 2.6V | 00:00:00 | 00:00:00 | 00:00:00 | |
| DM0DOS-11 | 2026-09-03 11:14:11 | 52.14048 | 9.46287 | 88° | 75km/h | 2101m | -6.1m/s | 9.1°C | 82.9% | 794.3hPa | 2.6V | 07:59:24 | 01:42:41 | 00:00:00 | |
| DB0DAN | 2026-09-03 11:14:10 | 52.14053 | 9.46412 | 86° | 75km/h | 2078m | -6.5m/s | 9.3°C | 81.6% | 796.66hPa | 2.7V | 00:00:00 | 00:00:00 | 00:00:00 | |
| DM0DOS-11 | 2026-09-03 11:14:06 | 52.14048 | 9.46128 | 89° | 82km/h | 2129m | -5.5m/s | 8.9°C | 84.8% | 791.3hPa | 2.7V | 07:59:29 | 01:42:36 | 00:00:00 | |
| DL3OBA | 2026-09-03 11:14:01 | 52.14048 | 9.46161 | 91° | 80km/h | 2124m | -5.7m/s | 8.9°C | 84.6% | 791.9hPa | 2.7V | 08:00:00 | 00:00:00 | 00:00:00 | |
| DM0DOS-11 | 2026-09-03 11:14:00 | 52.14043 | 9.45961 | 86° | 78km/h | 2158m | -6.4m/s | 8.6°C | 88% | 788.5hPa | 2.7V | 07:59:34 | 01:42:31 | 00:00:00 | |
| DJ2DS-15 | 2026-09-03 11:13:57 | 52.14032 | 9.45595 | 88° | 82km/h | 2225m | -5.9m/s | 8.2°C | 82.1% | 782.2hPa | 2.7V | 00:00:00 | 00:00:00 | 00:00:00 | |
| DL8OAI-8 | 2026-09-03 11:13:56 | 52.14044 | 9.45993 | 86° | 80km/h | 2152m | -5.8m/s | 8.7°C | 87.0% | 789.1hPa | 2.7V | 08:00:00 | 00:00:00 | 00:00:00 | |
| DB0DAN | 2026-09-03 11:13:55 | 52.14041 | 9.45929 | 87° | 75km/h | 2164m | -6.8m/s | 8.5°C | 87.8% | 787.98hPa | 2.7V | 00:00:00 | 00:00:00 | 00:00:00 | |
| DM0DOS-11 | 2026-09-03 11:13:53 | 52.14038 | 9.45798 | 87° | 82km/h | 2189m | -6m/s | 8.4°C | 89% | 785.8hPa | 2.6V | 07:59:39 | 01:42:26 | 00:00:00 | |
| DL4XJ-10 | 2026-09-03 11:13:52 | 52.14039 | 9.45832 | 89° | 86km/h | 2184m | -6.0m/s | 10.0°C | 0% | 0hPa | 2.7V | 00:00:00 | 00:00:00 | 00:00:00 | |
| DK9SH | 2026-09-03 11:13:49 | 52.14037 | 9.45764 | 88° | 84km/h | 2195m | -5.8m/s | 8.4°C | 86.3% | 785.1hPa | 2.7V | 08:00:00 | 00:00:00 | 00:00:00 | |
| DM0DOS-11 | 2026-09-03 11:13:47 | 52.14032 | 9.45628 | 88° | 82km/h | 2219m | -6.2m/s | 8.2°C | 84.4% | 782.7hPa | 2.7V | 07:59:44 | 01:42:21 | 00:00:00 | |
| BUE01 | 2026-09-03 11:13:46 | 52.14033 | 9.45628 | 88° | 82km/h | 2219m | -6.2m/s | 8.3°C | 83.6% | 782.7hPa | 2.7V | 00:00:00 | 00:00:00 | 00:00:00 | |
| DM0DOS-11 | 2026-09-03 11:13:41 | 52.14032 | 9.45455 | 88° | 88km/h | 2250m | -6.8m/s | 8.1°C | 80.5% | 779.9hPa | 2.7V | 07:59:49 | 01:42:16 | 00:00:00 | |
| DM0DOS-11 | 2026-09-03 11:13:41 | 52.14028 | 9.45275 | 87° | 88km/h | 2280m | -6.1m/s | 7.9°C | 80.5% | 777.1hPa | 2.7V | 07:59:54 | 01:42:11 | 00:00:00 | |
| DB0DAN | 2026-09-03 11:13:40 | 52.14032 | 9.45419 | 88° | 84km/h | 2257m | -6.2m/s | 8.1°C | 80.2% | 779.29hPa | 2.7V | 00:00:00 | 00:00:00 | 00:00:00 | |
| DD8BA-10 | 2026-09-03 11:13:38 | 52.14030 | 9.45347 | 88° | 88km/h | 2269m | -5.4m/s | 7.9°C | 79.9% | 778.2hPa | 2.7V | 07:59:00 | 00:00:00 | 00:00:00 | |
| DM0DOS-11 | 2026-09-03 11:13:36 | 52.14026 | 9.45096 | 92° | 89km/h | 2309m | -5.9m/s | 8.6°C | 49.5% | 774.4hPa | 2.7V | 07:59:59 | 01:42:06 | 00:00:00 | |
| DL8OAI-8 | 2026-09-03 11:13:36 | 52.14028 | 9.45275 | 89° | 88km/h | 2280m | -6.1m/s | 7.9°C | 79.7% | 777.2hPa | 2.6V | 08:00:00 | 00:00:00 | 00:00:00 | |
| DL3AQ-11 | 2026-09-03 11:13:33 | 52.14026 | 9.45132 | 90° | 86km/h | 2303m | -5.8m/s | 8.5°C | 52.4% | 775.0hPa | 2.6V | 00:00:00 | 00:00:00 | 00:00:00 | |
| DL4XJ-10 | 2026-09-03 11:13:32 | 52.14026 | 9.45132 | 91° | 93km/h | 2303m | -5.7m/s | 10.1°C | 0% | 0hPa | 2.6V | 00:00:00 | 00:00:00 | 00:00:00 | |
| DM0DOS-11 | 2026-09-03 11:13:31 | 52.14027 | 9.44906 | 88° | 93km/h | 2339m | -5.8m/s | 8.5°C | 44.4% | 771.6hPa | 2.6V | 08:00:04 | 01:42:01 | 00:00:00 | |
| SONCRA | 2026-09-03 11:13:30 | 52.14027 | 9.45059 | 91° | 89km/h | 2315m | -6.0m/s | 8.6°C | 45.1% | 773.9hPa | 2.7V | 00:00:00 | 00:00:00 | 00:00:00 | |
| DD8BA-10 | 2026-09-03 11:13:28 | 52.14028 | 9.44983 | 91° | 93km/h | 2327m | -5.7m/s | 8.6°C | 42.4% | 772.7hPa | 2.7V | 00:00:00 | 00:00:00 | 00:00:00 | |
| DM0DOS-11 | 2026-09-03 11:13:26 | 52.14024 | 9.44722 | 89° | 89km/h | 2368m | -6.4m/s | 8.3°C | 44% | 769hPa | 2.7V | 08:00:09 | 01:41:56 | 00:00:00 | |
| DB0DAN | 2026-09-03 11:13:25 | 52.14027 | 9.44868 | 89° | 88km/h | 2345m | -5.7m/s | 8.4°C | 44.8% | 771.26hPa | 2.7V | 00:00:00 | 00:00:00 | 00:00:00 | |
| DO2JMG | 2026-09-03 11:13:23 | 52.14025 | 9.44794 | 88° | 88km/h | 2356m | -6.1m/s | 0°C | 0% | 770.2hPa | 2.7V | 18:12:15 | 01:41:58 | 00:00:00 | |
| DJ2DS-15 | 2026-09-03 11:13:21 | 52.14024 | 9.44684 | 89° | 91km/h | 2374m | -5.8m/s | 8.3°C | 43.9% | 768.5hPa | 2.7V | 00:00:00 | 00:00:00 | 00:00:00 | |
| DM0DOS-11 | 2026-09-03 11:13:20 | 52.14023 | 9.44528 | 88° | 95km/h | 2397m | -6.5m/s | 8.9°C | 29.9% | 766.2hPa | 2.7V | 08:00:14 | 01:41:51 | 00:00:00 | |
| DD1CC3-15 | 2026-09-03 11:13:16 | 52.14023 | 9.44567 | 89° | 95km/h | 2391m | -5.8m/s | 8.7°C | 35.4% | 766.8hPa | 2.6V | 00:00:00 | 00:00:00 | 00:00:00 | |
| DJ2DS-15 | 2026-09-03 11:13:15 | 52.14023 | 9.44488 | 91° | 91km/h | 2404m | -5.9m/s | 8.9°C | 25.7% | 765.6hPa | 2.6V | 00:00:00 | 01:41:50 | 00:00:00 | |
| DL8OAI-8 | 2026-09-03 11:13:14 | 52.14023 | 9.44488 | 91° | 95km/h | 2404m | -5.9m/s | 8.9°C | 25.5% | 765.7hPa | 2.6V | 08:00:00 | 00:00:00 | 00:00:00 | |
| DM0DOS-11 | 2026-09-03 11:13:13 | 52.14027 | 9.44333 | 93° | 91km/h | 2426m | -5.8m/s | 8.9°C | 17.3% | 763.5hPa | 2.6V | 08:00:19 | 01:41:46 | 00:00:00 | |
| DO2JMG | 2026-09-03 11:13:12 | 52.14025 | 9.44371 | 93° | 93km/h | 2420m | -5.6m/s | 0°C | 0% | 0hPa | 2.7V | 18:12:15 | 01:41:47 | 00:00:00 | |
| DL4XJ-10 | 2026-09-03 11:13:12 | 52.14025 | 9.44371 | 94° | 91km/h | 2420m | -5.5m/s | 10.5°C | 0% | 0hPa | 2.6V | 00:00:00 | 00:00:00 | 00:00:00 | |
| DB0DAN | 2026-09-03 11:13:10 | 52.14028 | 9.44296 | 94° | 86km/h | 2432m | -6m/s | 8.8°C | 17.4% | 763.09hPa | 2.6V | 00:00:00 | 00:00:00 | 00:00:00 | |
| DK9SH | 2026-09-03 11:13:08 | 52.14029 | 9.44260 | 94° | 88km/h | 2438m | -6.4m/s | 8.8°C | 16.5% | 762.4hPa | 2.7V | 08:00:00 | 00:00:00 | 00:00:00 | |
| DD1CC8 | 2026-09-03 11:13:06 | 52.14032 | 9.44080 | 89° | 88km/h | 2468m | -6.2m/s | 8.6°C | 15.6% | 759.8hPa | 2.7V | 00:00:00 | 00:00:00 | 00:00:00 | |
| DL4BBY-15 | 2026-09-03 11:13:03 | 52.14031 | 9.44043 | 89° | 91km/h | 2473m | -6.2m/s | 10.1°C | 0% | 0hPa | 2.7V | 00:00:00 | 00:00:00 | 00:00:00 | |
| DM0DOS-11 | 2026-09-03 11:13:02 | 52.14031 | 9.43966 | 90° | 95km/h | 2486m | -6.2m/s | 8.4°C | 14.1% | 758hPa | 2.7V | 08:00:29 | 01:41:36 | 00:00:00 | |
| DM0DOS-11 | 2026-09-03 11:13:02 | 52.14034 | 9.43770 | 90° | 95km/h | 2517m | -6.4m/s | 8.1°C | 14.1% | 755.1hPa | 2.6V | 08:00:34 | 01:41:31 | 00:00:00 | |
| DO2JMG | 2026-09-03 11:13:01 | 52.14031 | 9.43966 | 90° | 95km/h | 2486m | -6.2m/s | 0°C | 0% | 0hPa | 2.7V | 18:12:15 | 01:41:36 | 00:00:00 | |
| DD8BA-10 | 2026-09-03 11:13:00 | 52.14032 | 9.43927 | 91° | 95km/h | 2492m | -5.6m/s | 8.3°C | 13.7% | 757.4hPa | 2.7V | 00:00:00 | 00:00:00 | 00:00:00 | |
| DM0DOS-11 | 2026-09-03 11:12:56 | 52.14038 | 9.43537 | 94° | 91km/h | 2557m | -7.2m/s | 7.7°C | 16.9% | 751.6hPa | 2.7V | 08:00:40 | 01:41:25 | 00:00:00 | |
| DB0DAN | 2026-09-03 11:12:55 | 52.14033 | 9.43731 | 90° | 91km/h | 2523m | -6.5m/s | 8.1°C | 14% | 754.59hPa | 2.6V | 00:00:00 | 00:00:00 | 00:00:00 | |
| BIOWL9-15 | 2026-09-03 11:12:53 | 52.14046 | 9.43393 | 94° | 84km/h | 2588m | -8.2m/s | 7.2°C | 25.9% | 748.6hPa | 2.7V | 00:00:00 | 00:00:00 | 00:00:00 | |
| DL4XJ-10 | 2026-09-03 11:12:52 | 52.14034 | 9.43613 | 92° | 88km/h | 2543m | -6.9m/s | 9.4°C | 0% | 0hPa | 2.7V | 00:00:00 | 00:00:00 | 00:00:00 | |
| DM0DOS-11 | 2026-09-03 11:12:51 | 52.14047 | 9.43359 | 94° | 84km/h | 2597m | -8.5m/s | 6.9°C | 29.5% | 748hPa | 2.7V | 08:00:45 | 01:41:20 | 00:00:00 | |
| DL1XH-west | 2026-09-03 11:12:50 | 52.14038 | 9.43537 | 95° | 91km/h | 2557m | -7.2m/s | 7.7°C | 19.8% | 751.6hPa | 2.7V | 08:00:56 | 01:41:25 | 00:00:00 | |
| BIOWL1-15 | 2026-09-03 11:12:44 | 52.14049 | 9.43324 | 92° | 84km/h | 2606m | -10.4m/s | 6.5°C | 43.5% | 747.1hPa | 2.7V | 08:01:47 | 01:41:19 | 00:00:00 | |
| BUE01 | 2026-09-03 11:12:44 | 52.14049 | 9.43324 | 92° | 84km/h | 2606m | -10.4m/s | 6.5°C | 36.8% | 747.1hPa | 2.6V | 00:00:00 | 00:00:00 | 00:00:00 | |
| DM0DOS-11 | 2026-09-03 11:12:40 | 52.14051 | 9.43183 | 89° | 88km/h | 2642m | -7.7m/s | 6.3°C | 35.2% | 743.7hPa | 2.6V | 08:00:50 | 01:41:15 | 00:00:00 | |
| DM0DOS-11 | 2026-09-03 11:12:40 | 52.14052 | 9.42998 | 92° | 89km/h | 2686m | -9.1m/s | 6°C | 31.9% | 739.8hPa | 2.7V | 08:00:55 | 01:41:10 | 00:00:00 | |
| DB0DAN | 2026-09-03 11:12:40 | 52.14051 | 9.43183 | 90° | 84km/h | 2642m | -7.7m/s | 6.3°C | 34.8% | 743.69hPa | 2.6V | 00:00:00 | 00:00:00 | 00:00:00 | |
| DL1XH-west | 2026-09-03 11:12:39 | 52.14051 | 9.43146 | 90° | 89km/h | 2650m | -8.5m/s | 6.2°C | 40.7% | 743.1hPa | 2.7V | 08:00:56 | 01:41:14 | 00:00:00 | |
| DL3OBA | 2026-09-03 11:12:39 | 52.14051 | 9.43183 | 91° | 88km/h | 2642m | -7.7m/s | 6.3°C | 34.8% | 743.7hPa | 2.6V | 08:00:00 | 00:00:00 | 00:00:00 | |
| DL1XH1-15 | 2026-09-03 11:12:34 | 52.14053 | 9.42962 | 91° | 88km/h | 2695m | -9.1m/s | 5.8°C | 36.5% | 739hPa | 2.6V | 08:00:56 | 01:41:09 | 00:00:00 | |
| BIOWL1-15 | 2026-09-03 11:12:31 | 52.14060 | 9.42817 | 98° | 88km/h | 2730m | -8.4m/s | 5.3°C | 46% | 735.8hPa | 2.7V | 08:01:47 | 01:41:05 | 00:00:00 | |
| DD8BA-10 | 2026-09-03 11:12:30 | 52.14060 | 9.42817 | 98° | 84km/h | 2730m | -8.4m/s | 5.2°C | 40.8% | 735.7hPa | 2.7V | 00:00:00 | 00:00:00 | 00:00:00 | |
| DL1XH1-15 | 2026-09-03 11:12:29 | 52.14077 | 9.42612 | 96° | 82km/h | 2777m | -8.1m/s | 4.9°C | 40.8% | 731.5hPa | 2.7V | 08:01:06 | 01:40:59 | 00:00:00 | |
| DL1XH-west | 2026-09-03 11:12:28 | 52.14067 | 9.42747 | 99° | 86km/h | 2746m | -8m/s | 5.1°C | 46.2% | 734.5hPa | 2.7V | 08:01:47 | 01:41:03 | 00:00:00 | |
| DK9SH | 2026-09-03 11:12:26 | 52.14070 | 9.42713 | 98° | 84km/h | 2754m | -7.8m/s | 5.2°C | 39.6% | 733.6hPa | 2.7V | 08:01:00 | 00:00:00 | 00:00:00 | |
| DB0DAN | 2026-09-03 11:12:25 | 52.14075 | 9.42645 | 96° | 78km/h | 2769m | -8.4m/s | 4.9°C | 42.9% | 732.19hPa | 2.7V | 00:00:00 | 00:00:00 | 00:00:00 | |
| DL1XH1-15 | 2026-09-03 11:12:24 | 52.14090 | 9.42440 | 97° | 86km/h | 2818m | -8.1m/s | 4.5°C | 40.4% | 728hPa | 2.6V | 08:01:11 | 01:40:54 | 00:00:00 | |
| DL1LOL-11 | 2026-09-03 11:12:21 | 52.14082 | 9.42544 | 98° | 84km/h | 2795m | -8.5m/s | 4.9°C | 38.7% | 730.1hPa | 2.6V | 00:00:00 | 00:00:00 | 00:00:00 | |
| DM0DOS-11 | 2026-09-03 11:12:20 | 52.14087 | 9.42475 | 96° | 84km/h | 2810m | -7.6m/s | 4.8°C | 37.8% | 728.8hPa | 2.6V | 08:01:10 | 01:40:55 | 00:00:00 | |
| DM0DOS-11 | 2026-09-03 11:12:20 | 52.14112 | 9.42168 | 101° | 80km/h | 2885m | -7.8m/s | 4.5°C | 29.8% | 722hPa | 2.7V | 08:01:19 | 01:40:46 | 00:00:00 | |
| DD8BA-10 | 2026-09-03 11:12:20 | 52.14087 | 9.42475 | 97° | 84km/h | 2810m | -7.6m/s | 4.7°C | 37.8% | 728.7hPa | 2.7V | 00:00:00 | 00:00:00 | 00:00:00 | |
| DL1XH1-15 | 2026-09-03 11:12:19 | 52.14112 | 9.42168 | 101° | 80km/h | 2885m | -7.8m/s | 4.5°C | 29.8% | 722hPa | 2.7V | 08:01:19 | 01:40:46 | 00:00:00 | |
| BIOWL1-15 | 2026-09-03 11:12:19 | 52.14103 | 9.42267 | 97° | 82km/h | 2861m | -8.5m/s | 4°C | 53.7% | 724.2hPa | 2.7V | 08:01:47 | 01:40:49 | 00:00:00 | |
| DL1XH-west | 2026-09-03 11:12:18 | 52.14112 | 9.42168 | 101° | 80km/h | 2885m | -7.8m/s | 4.5°C | 34.3% | 722hPa | 2.7V | 08:01:47 | 01:40:46 | 00:00:00 | |
| DL8OAI-8 | 2026-09-03 11:12:16 | 52.14106 | 9.42233 | 98° | 82km/h | 2869m | -7.7m/s | 4.1°C | 44.7% | 723.4hPa | 2.7V | 08:01:00 | 00:00:00 | 00:00:00 | |
| DO2JMG | 2026-09-03 11:12:16 | 52.14106 | 9.42233 | 97° | 82km/h | 2869m | -7.7m/s | 0°C | 0% | 0hPa | 2.6V | 18:12:15 | 01:40:48 | 00:00:00 | |
| DL4XJ-10 | 2026-09-03 11:12:13 | 52.14109 | 9.42200 | 100° | 73km/h | 2877m | -8.3m/s | 5.8°C | 0% | 0hPa | 2.7V | 00:00:00 | 00:00:00 | 00:00:00 | |
| DB0DAN | 2026-09-03 11:12:10 | 52.14117 | 9.42136 | 102° | 75km/h | 2893m | -8.2m/s | 4.6°C | 29.3% | 721.18hPa | 2.7V | 00:00:00 | 00:00:00 | 00:00:00 | |
| BIOWL1-15 | 2026-09-03 11:12:09 | 52.14121 | 9.42104 | 104° | 77km/h | 2901m | -8.3m/s | 4.6°C | 46.2% | 720.4hPa | 2.7V | 08:01:47 | 01:40:44 | 00:00:00 | |
| DJ2DS-15 | 2026-09-03 11:12:09 | 52.14126 | 9.42074 | 104° | 75km/h | 2909m | -8.6m/s | 4.7°C | 49.3% | 719.8hPa | 2.7V | 00:00:00 | 00:00:00 | 00:00:00 | |
| DL1XH1-15 | 2026-09-03 11:12:05 | 52.14155 | 9.41873 | 101° | 69km/h | 2971m | -9.4m/s | 4.5°C | 56.1% | 714.3hPa | 2.7V | 08:01:29 | 01:40:36 | 00:00:00 | |
| DL1XH-west | 2026-09-03 11:12:00 | 52.14159 | 9.41845 | 102° | 69km/h | 2981m | -9.2m/s | 4.4°C | 64% | 713.6hPa | 2.7V | 08:01:47 | 01:40:35 | 00:00:00 | |
| DD8BA-10 | 2026-09-03 11:12:00 | 52.14159 | 9.41845 | 103° | 69km/h | 2981m | -9.2m/s | 4.3°C | 56.3% | 713.5hPa | 2.7V | 00:00:00 | 00:00:00 | 00:00:00 | |
| DL3OBA | 2026-09-03 11:11:58 | 52.14162 | 9.41816 | 100° | 69km/h | 2990m | -9.6m/s | 4.3°C | 56.4% | 712.8hPa | 2.7V | 08:01:00 | 00:00:00 | 00:00:00 | |
| DL1XH1-15 | 2026-09-03 11:11:57 | 52.14170 | 9.41729 | 98° | 73km/h | 3020m | -10m/s | 3.9°C | 58% | 710.3hPa | 2.7V | 08:01:34 | 01:40:31 | 00:00:00 | |
| BIOWL1-15 | 2026-09-03 11:11:56 | 52.14170 | 9.41729 | 99° | 73km/h | 3020m | -10m/s | 3.9°C | 66.3% | 710.4hPa | 2.7V | 08:01:47 | 01:40:31 | 00:00:00 | |
| DB0DAN | 2026-09-03 11:11:55 | 52.14173 | 9.41700 | 98° | 69km/h | 3030m | -10m/s | 3.8°C | 57.9% | 709.54hPa | 2.7V | 00:00:00 | 00:00:00 | 00:00:00 | |
| DJ2DS-15 | 2026-09-03 11:11:55 | 52.14173 | 9.41699 | 99° | 60km/h | 3030m | -10.0m/s | 3.7°C | 58.6% | 709.5hPa | 2.7V | 08:01:00 | 01:40:30 | 00:00:00 | |
| DL1XH1-15 | 2026-09-03 11:11:52 | 52.14185 | 9.41589 | 103° | 64km/h | 3068m | -9.3m/s | 3.1°C | 64.2% | 706.2hPa | 2.6V | 08:01:39 | 01:40:26 | 00:00:00 | |
| DL1XH-west | 2026-09-03 11:11:50 | 52.14189 | 9.41564 | 104° | 64km/h | 3077m | -8.3m/s | 3.1°C | 70.7% | 705.4hPa | 2.7V | 08:01:47 | 01:40:25 | 00:00:00 | |
| DD8BA-10 | 2026-09-03 11:11:50 | 52.14189 | 9.41564 | 104° | 57km/h | 3077m | -8.3m/s | 3.1°C | 64.7% | 705.3hPa | 2.7V | 00:00:00 | 00:00:00 | 00:00:00 | |
| DL1XH1-15 | 2026-09-03 11:11:46 | 52.14204 | 9.41466 | 104° | 62km/h | 3110m | -9.3m/s | 2.8°C | 70.6% | 702.5hPa | 2.7V | 08:01:44 | 01:40:21 | 00:00:00 | |
| BIOWL1-15 | 2026-09-03 11:11:42 | 52.14220 | 9.41375 | 107° | 55km/h | 3147m | -8.5m/s | 2.8°C | 75.5% | 699.3hPa | 2.7V | 08:03:29 | 01:40:17 | 00:00:00 | |
| BUE01 | 2026-09-03 11:11:42 | 52.14220 | 9.41375 | 107° | 53km/h | 3146m | -8.5m/s | 2.8°C | 68.6% | 699.3hPa | 2.7V | 00:00:00 | 00:00:00 | 00:00:00 | |
| DL1XH1-15 | 2026-09-03 11:11:41 | 52.14249 | 9.41225 | 108° | 60km/h | 3209m | -10.1m/s | 2.4°C | 71.6% | 693.7hPa | 2.7V | 08:01:55 | 01:40:10 | 00:00:00 | |
| DB0DAN | 2026-09-03 11:11:40 | 52.14227 | 9.41332 | 105° | 51km/h | 3164m | -9m/s | 2.7°C | 69.5% | 697.9hPa | 2.7V | 00:00:00 | 00:00:00 | 00:00:00 | |
| DL1XH-west | 2026-09-03 11:11:39 | 52.14231 | 9.41311 | 107° | 53km/h | 3173m | -8.4m/s | 2.6°C | 76.8% | 697hPa | 2.7V | 08:02:38 | 01:40:14 | 00:00:00 | |
| DF8AY | 2026-09-03 11:11:36 | 52.14244 | 9.41247 | 109° | 57km/h | 3200m | -9m/s | 2.4°C | 77.3% | 694.7hPa | 2.7V | 08:02:38 | 01:40:11 | 00:00:00 | |
| DL1XH1-15 | 2026-09-03 11:11:35 | 52.14266 | 9.41128 | 101° | 58km/h | 3248m | -9.6m/s | 2.2°C | 72.1% | 690.2hPa | 2.6V | 08:01:59 | 01:40:06 | 00:00:00 | |
| BIOWL1-15 | 2026-09-03 11:11:30 | 52.14294 | 9.40939 | 108° | 51km/h | 3337m | -10.7m/s | 1.6°C | 81.1% | 682.8hPa | 2.7V | 08:03:29 | 01:39:57 | 00:00:00 | |
| DL1XH-west | 2026-09-03 11:11:29 | 52.14272 | 9.41082 | 101° | 55km/h | 3268m | -10.1m/s | 1.8°C | 80% | 688.7hPa | 2.7V | 08:02:38 | 01:40:04 | 00:00:00 | |
| DF8AY | 2026-09-03 11:11:25 | 52.14283 | 9.40999 | 106° | 49km/h | 3307m | -9.3m/s | 1.6°C | 81.1% | 685.3hPa | 2.6V | 08:02:38 | 01:40:00 | 00:00:00 | |
| DB0DAN | 2026-09-03 11:11:25 | 52.14283 | 9.40999 | 106° | 47km/h | 3307m | -9.3m/s | 1.6°C | 73.8% | 685.3hPa | 2.6V | 00:00:00 | 00:00:00 | 00:00:00 | |
| DD1CC3-15 | 2026-09-03 11:11:24 | 52.14290 | 9.40959 | 108° | 51km/h | 3327m | -9.9m/s | 1.6°C | 72.9% | 683.7hPa | 2.7V | 00:00:00 | 00:00:00 | 00:00:00 | |
| DL1XH1-15 | 2026-09-03 11:11:23 | 52.14298 | 9.40919 | 108° | 49km/h | 3347m | -9.3m/s | 1.4°C | 74.1% | 681.8hPa | 2.7V | 08:02:09 | 01:39:56 | 00:00:00 | |
| DL1XH-west | 2026-09-03 11:11:19 | 52.14306 | 9.40880 | 109° | 51km/h | 3366m | -9.8m/s | 1.3°C | 81.4% | 680.2hPa | 2.7V | 08:02:38 | 01:39:54 | 00:00:00 | |
| DD8BA-10 | 2026-09-03 11:11:18 | 52.14311 | 9.40860 | 110° | 53km/h | 3376m | -9.4m/s | 1.1°C | 75.4% | 679.6hPa | 2.7V | 00:00:00 | 00:00:00 | 00:00:00 | |
| DL1XH1-15 | 2026-09-03 11:11:17 | 52.14319 | 9.40821 | 107° | 51km/h | 3395m | -10.3m/s | 1°C | 75.9% | 678hPa | 2.7V | 08:02:14 | 01:39:51 | 00:00:00 | |
| DF8AY | 2026-09-03 11:11:14 | 52.14327 | 9.40781 | 108° | 51km/h | 3415m | -9.7m/s | 0.8°C | 80.9% | 676.3hPa | 2.7V | 08:02:38 | 01:39:49 | 00:00:00 | |
| BIOWL1-15 | 2026-09-03 11:11:12 | 52.14342 | 9.40697 | 106° | 55km/h | 3451m | -8.6m/s | 0.7°C | 80.3% | 673.2hPa | 2.7V | 08:03:29 | 01:39:45 | 00:00:00 | |
| DL1XH1-15 | 2026-09-03 11:11:11 | 52.14339 | 9.40719 | 105° | 53km/h | 3442m | -8.7m/s | 0.7°C | 76.6% | 673.9hPa | 2.6V | 08:02:19 | 01:39:46 | 00:00:00 | |
| DB0DAN | 2026-09-03 11:11:10 | 52.14342 | 9.40697 | 106° | 53km/h | 3451m | -8.6m/s | 0.7°C | 75.7% | 673.22hPa | 2.7V | 00:00:00 | 00:00:00 | 00:00:00 | |
| DL1XH-west | 2026-09-03 11:11:09 | 52.14346 | 9.40675 | 106° | 57km/h | 3459m | -8.6m/s | 0.6°C | 80.4% | 672.5hPa | 2.7V | 08:02:38 | 01:39:44 | 00:00:00 | |
| DM0DOS-11 | 2026-09-03 11:11:08 | 52.14359 | 9.40607 | 108° | 58km/h | 3486m | -9.1m/s | 0.7°C | 75.7% | 670.4hPa | 2.7V | 08:02:24 | 01:39:41 | 00:00:00 | |
| DF8AY | 2026-09-03 11:11:04 | 52.14368 | 9.40561 | 109° | 58km/h | 3504m | -8.5m/s | 0.6°C | 80.9% | 668.8hPa | 2.6V | 08:02:38 | 01:39:39 | 00:00:00 | |
| DM0DOS-11 | 2026-09-03 11:11:03 | 52.14383 | 9.40491 | 109° | 60km/h | 3528m | -8.9m/s | 0.4°C | 76.9% | 666.6hPa | 2.7V | 08:02:29 | 01:39:36 | 00:00:00 | |
| BIOWL1-15 | 2026-09-03 11:11:02 | 52.14378 | 9.40514 | 109° | 60km/h | 3520m | -8.4m/s | 0.4°C | 81.2% | 667.4hPa | 2.7V | 08:03:29 | 01:39:37 | 00:00:00 | |
| DL1XH-west | 2026-09-03 11:10:58 | 52.14399 | 9.40417 | 109° | 66km/h | 3555m | -9.5m/s | 0.2°C | 81.4% | 664.5hPa | 2.6V | 08:02:38 | 01:39:33 | 00:00:00 | |
| DD8BA-10 | 2026-09-03 11:10:58 | 52.14399 | 9.40417 | 109° | 69km/h | 3555m | -9.4m/s | 0.1°C | 76.6% | 664.4hPa | 2.7V | 00:00:00 | 00:00:00 | 00:00:00 | |
| DM0DOS-11 | 2026-09-03 11:10:57 | 52.14409 | 9.40365 | 108° | 68km/h | 3574m | -9.2m/s | 0.4°C | 76.5% | 662.9hPa | 2.7V | 08:02:34 | 01:39:31 | 00:00:00 | |
| DJ2DS-15 | 2026-09-03 11:10:56 | 52.14409 | 9.40365 | 108° | 66km/h | 3574m | -9.2m/s | 0.4°C | 75.5% | 662.9hPa | 2.7V | 00:00:00 | 00:00:00 | 00:00:00 | |
| DB0DAN | 2026-09-03 11:10:55 | 52.14415 | 9.40338 | 109° | 66km/h | 3583m | -8.9m/s | 0.3°C | 75.8% | 662.07hPa | 2.7V | 00:00:00 | 00:00:00 | 00:00:00 | |
| DF8AY | 2026-09-03 11:10:53 | 52.14432 | 9.40257 | 109° | 71km/h | 3609m | -8.7m/s | 0°C | 82.9% | 660hPa | 2.6V | 08:02:38 | 01:39:27 | 00:00:00 | |
| DL1XH1-15 | 2026-09-03 11:10:52 | 52.14438 | 9.40229 | 108° | 71km/h | 3618m | -9.1m/s | 0°C | 77.6% | 659.2hPa | 2.6V | 08:02:39 | 01:39:26 | 00:00:00 | |
| DL1XH-west | 2026-09-03 11:10:48 | 52.14456 | 9.40142 | 108° | 77km/h | 3646m | -9.2m/s | -0.2°C | 82.6% | 657hPa | 2.7V | 08:03:29 | 01:39:23 | 00:00:00 | |
| DF8AY-15 | 2026-09-03 11:10:48 | 52.14456 | 9.40142 | 109° | 80km/h | 3646m | -9.1m/s | -0.1°C | 78.3% | 656.9hPa | 2.6V | 00:00:00 | 01:39:23 | 00:00:00 | |
| DL1XH1-15 | 2026-09-03 11:10:47 | 52.14468 | 9.40080 | 107° | 80km/h | 3664m | -9m/s | -0.1°C | 78% | 655.7hPa | 2.6V | 08:02:44 | 01:39:21 | 00:00:00 | |
| DF8AY | 2026-09-03 11:10:42 | 52.14493 | 9.39956 | 109° | 80km/h | 3700m | -9.1m/s | -0.1°C | 85.2% | 652.7hPa | 2.7V | 08:03:29 | 01:39:17 | 00:00:00 | |
| DL1XH1-15 | 2026-09-03 11:10:41 | 52.14500 | 9.39924 | 108° | 80km/h | 3709m | -8.7m/s | -0.1°C | 79.4% | 652hPa | 2.7V | 08:02:49 | 01:39:16 | 00:00:00 | |
| DB0DAN | 2026-09-03 11:10:40 | 52.14506 | 9.39893 | 108° | 77km/h | 3717m | -8.6m/s | -0.2°C | 78.6% | 651.14hPa | 2.6V | 00:00:00 | 00:00:00 | 00:00:00 | |
| DL1XH-west | 2026-09-03 11:10:38 | 52.14519 | 9.39829 | 106° | 82km/h | 3735m | -8.9m/s | -0.4°C | 85.6% | 649.8hPa | 2.7V | 08:03:29 | 01:39:13 | 00:00:00 | |
| DD8BA-10 | 2026-09-03 11:10:38 | 52.14519 | 9.39829 | 106° | 82km/h | 3735m | -8.9m/s | -0.3°C | 80.1% | 649.7hPa | 2.7V | 08:02:00 | 00:00:00 | 00:00:00 | |
| DM0DOS-11 | 2026-09-03 11:10:37 | 52.14530 | 9.39762 | 104° | 84km/h | 3752m | -8.3m/s | -0.4°C | 80.1% | 648.3hPa | 2.7V | 08:02:54 | 01:39:11 | 00:00:00 | |
| BIOWL1-15 | 2026-09-03 11:10:37 | 52.14524 | 9.39796 | 106° | 84km/h | 3744m | -8.7m/s | -0.4°C | 85.5% | 649.1hPa | 2.7V | 08:03:29 | 01:39:12 | 00:00:00 | |
| DL1XH1-15 | 2026-09-03 11:10:36 | 52.14556 | 9.39564 | 98° | 80km/h | 3804m | -9.3m/s | -0.8°C | 79% | 644.1hPa | 2.7V | 08:03:00 | 01:39:05 | 00:00:00 | |
| DJ2DS-15 | 2026-09-03 11:10:35 | 52.14535 | 9.39729 | 104° | 82km/h | 3761m | -8.3m/s | -0.4°C | 80.0% | 647.6hPa | 2.7V | 00:00:00 | 01:39:10 | 00:00:00 | |
| DL4BBY-15 | 2026-09-03 11:10:33 | 52.14545 | 9.39662 | 103° | 82km/h | 3778m | -8.7m/s | 1.0°C | 0% | 0hPa | 2.7V | 00:00:00 | 00:00:00 | 00:00:00 | |
| DM0DOS-11 | 2026-09-03 11:10:32 | 52.14553 | 9.39596 | 99° | 80km/h | 3795m | -8.7m/s | -0.7°C | 79.4% | 644.8hPa | 2.7V | 08:02:59 | 01:39:06 | 00:00:00 | |
| DF8AY | 2026-09-03 11:10:31 | 52.14553 | 9.39596 | 100° | 80km/h | 3795m | -8.7m/s | -0.7°C | 85.7% | 644.8hPa | 2.7V | 08:03:29 | 01:39:06 | 00:00:00 | |
| DD1CC8 | 2026-09-03 11:10:31 | 52.14553 | 9.39596 | 99° | 80km/h | 3795m | -8.7m/s | -0.7°C | 78.2% | 644.8hPa | 2.7V | 00:00:00 | 00:00:00 | 00:00:00 | |
| DL1XH1-15 | 2026-09-03 11:10:30 | 52.14571 | 9.39399 | 98° | 86km/h | 3849m | -9.3m/s | -1.2°C | 81.7% | 640.3hPa | 2.7V | 08:03:05 | 01:39:00 | 00:00:00 | |
| DL8OAI-8 | 2026-09-03 11:10:30 | 52.14556 | 9.39564 | 99° | 80km/h | 3804m | -9.3m/s | -0.8°C | 77.9% | 644.1hPa | 2.7V | 08:03:00 | 00:00:00 | 00:00:00 | |
| DD1CC3-15 | 2026-09-03 11:10:29 | 52.14556 | 9.39564 | 99° | 80km/h | 3804m | -9.3m/s | -0.8°C | 77.9% | 644.1hPa | 2.7V | 08:03:00 | 00:00:00 | 00:00:00 | |
| DF8AY-15 | 2026-09-03 11:10:28 | 52.14562 | 9.39499 | 100° | 80km/h | 3823m | -9.2m/s | -0.9°C | 81.5% | 642.5hPa | 2.7V | 00:00:00 | 01:39:03 | 00:00:00 | |
| DM0DOS-11 | 2026-09-03 11:10:27 | 52.14568 | 9.39433 | 98° | 84km/h | 3840m | -8.6m/s | -1.1°C | 80.5% | 641.2hPa | 2.6V | 08:03:04 | 01:39:01 | 00:00:00 | |
| DL1XH-west | 2026-09-03 11:10:27 | 52.14565 | 9.39467 | 98° | 80km/h | 3832m | -8.8m/s | -1°C | 87.9% | 641.8hPa | 2.6V | 08:03:29 | 01:39:02 | 00:00:00 | |
| BIOWL1-15 | 2026-09-03 11:10:25 | 52.14574 | 9.39363 | 99° | 88km/h | 3858m | -9.1m/s | -1.2°C | 88% | 639.7hPa | 2.7V | 08:03:29 | 01:38:59 | 00:00:00 | |
| DL1XH1-15 | 2026-09-03 11:10:25 | 52.14590 | 9.39221 | 102° | 86km/h | 3894m | -8.3m/s | -1.4°C | 78.2% | 636.9hPa | 2.6V | 08:03:10 | 01:38:55 | 00:00:00 | |
| DB0DAN | 2026-09-03 11:10:25 | 52.14571 | 9.39399 | 99° | 82km/h | 3849m | -9.3m/s | -1.2°C | 80.5% | 640.34hPa | 2.7V | 00:00:00 | 00:00:00 | 00:00:00 | |
| SONCRA | 2026-09-03 11:10:24 | 52.14574 | 9.39363 | 99° | 86km/h | 3858m | -9.1m/s | -1.2°C | 80.7% | 639.7hPa | 2.6V | 00:00:00 | 00:00:00 | 00:00:00 | |
| DM0DOS-11 | 2026-09-03 11:10:21 | 52.14586 | 9.39256 | 100° | 88km/h | 3885m | -9m/s | -1.3°C | 77.5% | 637.6hPa | 2.6V | 08:03:09 | 01:38:56 | 00:00:00 | |
| DF8AY | 2026-09-03 11:10:21 | 52.14586 | 9.39256 | 101° | 88km/h | 3885m | -9m/s | -1.3°C | 83.8% | 637.6hPa | 2.6V | 08:03:29 | 01:38:56 | 00:00:00 | |
| DL1XH1-15 | 2026-09-03 11:10:20 | 52.14614 | 9.39061 | 104° | 75km/h | 3935m | -8.2m/s | -1.7°C | 79.5% | 633.5hPa | 2.6V | 08:03:15 | 01:38:50 | 00:00:00 | |
| DL1XH-west | 2026-09-03 11:10:17 | 52.14605 | 9.39122 | 105° | 78km/h | 3919m | -7.7m/s | -1.6°C | 85.9% | 634.9hPa | 2.7V | 08:03:29 | 01:38:52 | 00:00:00 | |
| DD8BA-10 | 2026-09-03 11:10:17 | 52.14605 | 9.39122 | 105° | 75km/h | 3919m | -7.7m/s | -1.6°C | 80.7% | 634.8hPa | 2.7V | 00:00:00 | 00:00:00 | 00:00:00 | |
| DL3OBA | 2026-09-03 11:10:16 | 52.14605 | 9.39122 | 106° | 78km/h | 3919m | -7.7m/s | -1.6°C | 79.5% | 634.9hPa | 2.7V | 08:03:00 | 00:00:00 | 00:00:00 | |
| DL1XH1-15 | 2026-09-03 11:10:15 | 52.14635 | 9.38915 | 99° | 71km/h | 3977m | -8.6m/s | -2.1°C | 81.8% | 630.2hPa | 2.7V | 08:03:20 | 01:38:45 | 00:00:00 | |
| BIOWL1-15 | 2026-09-03 11:10:12 | 52.14628 | 9.38973 | 102° | 73km/h | 3960m | -8.7m/s | -2°C | 86.3% | 631.6hPa | 2.7V | 08:03:29 | 01:38:47 | 00:00:00 | |
| DF8AY | 2026-09-03 11:10:11 | 52.14632 | 9.38944 | 101° | 71km/h | 3969m | -8.5m/s | -2°C | 86.3% | 630.8hPa | 2.7V | 08:03:29 | 01:38:46 | 00:00:00 | |
| DL1XH1-15 | 2026-09-03 11:10:10 | 52.14646 | 9.38760 | 94° | 80km/h | 4018m | -8.8m/s | -2.5°C | 83.2% | 626.9hPa | 2.7V | 08:03:25 | 01:38:40 | 00:00:00 | |
| DB0DAN | 2026-09-03 11:10:10 | 52.14635 | 9.38915 | 99° | 69km/h | 3977m | -8.6m/s | -2.1°C | 80.5% | 630.16hPa | 2.7V | 00:00:00 | 00:00:00 | 00:00:00 | |
| DL1XH-west | 2026-09-03 11:10:06 | 52.14644 | 9.38792 | 95° | 78km/h | 4010m | -7.9m/s | -2.4°C | 88.7% | 627.6hPa | 2.7V | 08:03:29 | 01:38:41 | 00:00:00 | |
| DL1XH1-15 | 2026-09-03 11:10:05 | 52.14660 | 9.38587 | 100° | 84km/h | 4059m | -7.8m/s | -2.7°C | 84.5% | 623.6hPa | 2.7V | 08:03:30 | 01:38:35 | 00:00:00 | |
| BIOWL1-15 | 2026-09-03 11:10:01 | 52.14656 | 9.38622 | 99° | 86km/h | 4051m | -8.6m/s | -2.7°C | 89.7% | 624.2hPa | 2.7V | 08:03:29 | 01:38:36 | 00:00:00 | |
| DL1XH1-15 | 2026-09-03 11:10:00 | 52.14681 | 9.38427 | 100° | 73km/h | 4099m | -8m/s | -3.1°C | 86.6% | 620.5hPa | 2.7V | 08:03:35 | 01:38:30 | 00:00:00 | |
| DF8AY | 2026-09-03 11:10:00 | 52.14660 | 9.38587 | 100° | 84km/h | 4059m | -7.8m/s | -2.7°C | 89.8% | 623.7hPa | 2.7V | 08:04:20 | 01:38:35 | 00:00:00 | |
| DD8BA-10 | 2026-09-03 11:09:57 | 52.14673 | 9.38488 | 103° | 75km/h | 4083m | -8.0m/s | -3.0°C | 86.1% | 621.6hPa | 2.6V | 00:00:00 | 00:00:00 | 00:00:00 | |
| DM0DOS-11 | 2026-09-03 11:09:56 | 52.14692 | 9.38308 | 95° | 73km/h | 4132m | -8.5m/s | -3.4°C | 88.3% | 617.9hPa | 2.6V | 08:03:39 | 01:38:26 | 00:00:00 | |
| DL1XH-west | 2026-09-03 11:09:55 | 52.14681 | 9.38427 | 101° | 73km/h | 4099m | -8m/s | -3.1°C | 91.9% | 620.5hPa | 2.7V | 08:04:20 | 01:38:30 | 00:00:00 | |
| DB0DAN | 2026-09-03 11:09:55 | 52.14681 | 9.38427 | 101° | 71km/h | 4099m | -8m/s | -3.1°C | 85.2% | 620.45hPa | 2.7V | 00:00:00 | 00:00:00 | 00:00:00 | |
| BIOWL1-15 | 2026-09-03 11:09:51 | 52.14692 | 9.38308 | 96° | 73km/h | 4132m | -8.5m/s | -3.4°C | 93.2% | 617.9hPa | 2.6V | 08:04:20 | 01:38:26 | 00:00:00 | |
| DF8AY | 2026-09-03 11:09:50 | 52.14694 | 9.38277 | 94° | 75km/h | 4140m | -8.2m/s | -3.5°C | 92.6% | 617.3hPa | 2.6V | 08:04:20 | 01:38:25 | 00:00:00 | |
| DL1XH-west | 2026-09-03 11:09:45 | 52.14703 | 9.38115 | 98° | 84km/h | 4181m | -9.1m/s | -3.8°C | 92.8% | 614.1hPa | 2.6V | 08:04:20 | 01:38:20 | 00:00:00 | |
| DJ2DS-15 | 2026-09-03 11:09:44 | 52.14706 | 9.38081 | 100° | 82km/h | 4190m | -8.5m/s | -3.9°C | 86.8% | 613.3hPa | 2.6V | 00:00:00 | 00:00:00 | 00:00:00 | |
| DL1XH-15 | 2026-09-03 11:09:43 | 52.14730 | 9.37892 | 101° | 73km/h | 4241m | -9m/s | -4.3°C | 87.3% | 609.4hPa | 2.6V | 08:03:52 | 01:38:13 | 00:00:00 | |
| DF8AY | 2026-09-03 11:09:40 | 52.14722 | 9.37952 | 102° | 77km/h | 4224m | -8.5m/s | -4.2°C | 91.7% | 610.8hPa | 2.7V | 08:04:20 | 01:38:15 | 00:00:00 | |
| DB0DAN | 2026-09-03 11:09:40 | 52.14722 | 9.37952 | 102° | 73km/h | 4224m | -8.5m/s | -4.2°C | 86.1% | 610.75hPa | 2.7V | 00:00:00 | 00:00:00 | 00:00:00 | |
| HSKMA3-T | 2026-09-03 11:09:38 | 52.14730 | 9.37892 | 102° | 73km/h | 4241m | -9m/s | -4.3°C | 91.6% | 609.4hPa | 2.6V | 08:07:44 | 01:38:13 | 00:00:00 | |
| DL1XH-west | 2026-09-03 11:09:34 | 52.14743 | 9.37776 | 98° | 69km/h | 4276m | -9m/s | -4.5°C | 92.1% | 606.7hPa | 2.7V | 08:04:20 | 01:38:09 | 00:00:00 | |
| DL1XH-15 | 2026-09-03 11:09:32 | 52.14753 | 9.37570 | 92° | 75km/h | 4334m | -8.5m/s | -4.8°C | 88% | 602.4hPa | 2.6V | 08:04:03 | 01:38:02 | 00:00:00 | |
| DF8AY | 2026-09-03 11:09:30 | 52.14751 | 9.37631 | 93° | 73km/h | 4318m | -8.5m/s | -4.8°C | 91.6% | 603.5hPa | 2.7V | 08:04:20 | 01:38:04 | 00:00:00 | |
| BIOWL1-15 | 2026-09-03 11:09:30 | 52.14750 | 9.37661 | 94° | 71km/h | 4310m | -8m/s | -4.7°C | 91.2% | 604.2hPa | 2.7V | 08:04:20 | 01:38:05 | 00:00:00 | |
| DD1CC8 | 2026-09-03 11:09:29 | 52.14751 | 9.37631 | 93° | 73km/h | 4318m | -8.5m/s | -4.8°C | 86.3% | 603.5hPa | 2.7V | 00:00:00 | 00:00:00 | 00:00:00 | |
| DF8AY-15 | 2026-09-03 11:09:28 | 52.14752 | 9.37601 | 93° | 82km/h | 4326m | -7.9m/s | -4.8°C | 88.0% | 602.9hPa | 2.7V | 08:04:00 | 01:38:03 | 00:00:00 | |
| DD8BA-10 | 2026-09-03 11:09:27 | 52.14753 | 9.37570 | 93° | 80km/h | 4334m | -8.4m/s | -4.8°C | 88.0% | 602.3hPa | 2.7V | 00:00:00 | 00:00:00 | 00:00:00 | |
| DK9SH | 2026-09-03 11:09:26 | 52.14753 | 9.37570 | 94° | 75km/h | 4334m | -8.5m/s | -4.8°C | 86.5% | 602.4hPa | 2.7V | 00:00:00 | 00:00:00 | 00:00:00 | |
| DM0DOS-11 | 2026-09-03 11:09:25 | 52.14755 | 9.37507 | 93° | 78km/h | 4350m | -8.2m/s | -4.9°C | 88.3% | 601.1hPa | 2.7V | 08:04:05 | 01:38:00 | 00:00:00 | |
| DB0DAN | 2026-09-03 11:09:25 | 52.14755 | 9.37507 | 94° | 75km/h | 4350m | -8.3m/s | -4.9°C | 86.8% | 601.08hPa | 2.7V | 00:00:00 | 00:00:00 | 00:00:00 | |
| DL1XH-west | 2026-09-03 11:09:24 | 52.14756 | 9.37475 | 94° | 78km/h | 4359m | -8.3m/s | -5°C | 92.3% | 600.5hPa | 2.7V | 08:04:20 | 01:37:59 | 00:00:00 | |
| SONCRA | 2026-09-03 11:09:22 | 52.14759 | 9.37410 | 95° | 80km/h | 4374m | -7.6m/s | -5.1°C | 87.6% | 599.2hPa | 2.6V | 00:00:00 | 00:00:00 | 00:00:00 | |
| DM0DOS-11 | 2026-09-03 11:09:20 | 52.14763 | 9.37343 | 95° | 80km/h | 4390m | -8.1m/s | -5.2°C | 88.4% | 598hPa | 2.6V | 08:04:10 | 01:37:55 | 00:00:00 | |
| DL1XH1-15 | 2026-09-03 11:09:20 | 52.14775 | 9.37175 | 96° | 82km/h | 4429m | -7.7m/s | -5.5°C | 89.4% | 595.1hPa | 2.6V | 08:04:15 | 01:37:50 | 00:00:00 | |
| DF8AY | 2026-09-03 11:09:19 | 52.14766 | 9.37310 | 97° | 82km/h | 4398m | -8m/s | -5.3°C | 92% | 597.5hPa | 2.7V | 08:04:20 | 01:37:54 | 00:00:00 | |
| DO2JMG | 2026-09-03 11:09:16 | 52.14773 | 9.37209 | 97° | 82km/h | 4421m | -7.5m/s | -5.5°C | 92.8% | 595.7hPa | 2.6V | 08:08:35 | 01:37:51 | 00:00:00 | |
| DL1XH-west | 2026-09-03 11:09:14 | 52.14778 | 9.37142 | 98° | 82km/h | 4437m | -7.7m/s | -5.5°C | 92.3% | 594.4hPa | 2.7V | 08:04:20 | 01:37:49 | 00:00:00 | |
| DL4XJ-10 | 2026-09-03 11:09:12 | 52.14784 | 9.37074 | 100° | 78km/h | 4452m | -7.8m/s | -4.0°C | 0% | 0hPa | 2.7V | 00:00:00 | 00:00:00 | 00:00:00 | |
| DM0DOS-11 | 2026-09-03 11:09:10 | 52.14811 | 9.36842 | 101° | 78km/h | 4506m | -7.8m/s | -6°C | 92.7% | 589.1hPa | 2.7V | 08:04:25 | 01:37:40 | 00:00:00 | |
| DL1XH1-15 | 2026-09-03 11:09:10 | 52.14814 | 9.36810 | 100° | 78km/h | 4514m | -8m/s | -6°C | 91.7% | 588.5hPa | 2.6V | 08:04:26 | 01:37:39 | 00:00:00 | |
| DB0DAN | 2026-09-03 11:09:10 | 52.14791 | 9.37007 | 100° | 78km/h | 4467m | -8.2m/s | -5.8°C | 89.4% | 592.12hPa | 2.6V | 00:00:00 | 00:00:00 | 00:00:00 | |
| DF8AY | 2026-09-03 11:09:08 | 52.14799 | 9.36940 | 100° | 80km/h | 4483m | -7.8m/s | -5.9°C | 93.8% | 590.8hPa | 2.7V | 08:05:11 | 01:37:43 | 00:00:00 | |
| BUE01 | 2026-09-03 11:09:07 | 52.14806 | 9.36874 | 101° | 80km/h | 4499m | -7.5m/s | -6.0°C | 90.2% | 589.8hPa | 2.6V | 00:00:00 | 00:00:00 | 00:00:00 | |
| D01LWL | 2026-09-03 11:09:06 | 52.14806 | 9.36874 | 101° | 80km/h | 4499m | -7.5m/s | -6.0°C | 90.2% | 589.8hPa | 2.6V | 00:00:00 | 00:00:00 | 00:00:00 | |
| DC6BW-12 | 2026-09-03 11:09:05 | 52.14806 | 9.36874 | 103° | 80km/h | 4499m | -7.5m/s | -6.0°C | 90.2% | 589.8hPa | 2.6V | 00:00:00 | 00:00:00 | 00:00:00 | |
| DL1XH1-15 | 2026-09-03 11:09:04 | 52.14832 | 9.36653 | 99° | 78km/h | 4553m | -8m/s | -6.1°C | 88.4% | 585.6hPa | 2.6V | 08:04:31 | 01:37:34 | 00:00:00 | |
| DL1XH-west | 2026-09-03 11:09:03 | 52.14818 | 9.36778 | 101° | 78km/h | 4522m | -8.2m/s | -6.1°C | 93% | 587.9hPa | 2.6V | 08:05:11 | 01:37:38 | 00:00:00 | |
| DO2JMG | 2026-09-03 11:09:02 | 52.14822 | 9.36747 | 100° | 78km/h | 4530m | -7.9m/s | -6.2°C | 92.8% | 587.3hPa | 2.7V | 08:08:35 | 01:37:37 | 00:00:00 | |
| DL4BBY-15 | 2026-09-03 11:09:02 | 52.14822 | 9.36747 | 101° | 84km/h | 4529m | -7.9m/s | -4.5°C | 0% | 0hPa | 2.7V | 00:00:00 | 00:00:00 | 00:00:00 | |
| DM0DOS-11 | 2026-09-03 11:09:00 | 52.14828 | 9.36684 | 99° | 77km/h | 4545m | -7.4m/s | -6.1°C | 89.6% | 586.1hPa | 2.7V | 08:04:30 | 01:37:35 | 00:00:00 | |
| DM0DOS-11 | 2026-09-03 11:09:00 | 52.14845 | 9.36529 | 99° | 73km/h | 4584m | -7.7m/s | -6.4°C | 90% | 583.3hPa | 2.7V | 08:04:35 | 01:37:30 | 00:00:00 | |
| DL1XH1-15 | 2026-09-03 11:08:59 | 52.14848 | 9.36500 | 99° | 73km/h | 4592m | -8m/s | -6.5°C | 90.3% | 582.8hPa | 2.7V | 08:04:36 | 01:37:29 | 00:00:00 | |
| BIOWL1-15 | 2026-09-03 11:08:58 | 52.14848 | 9.36500 | 99° | 73km/h | 4592m | -8m/s | -6.5°C | 93.6% | 582.8hPa | 2.7V | 08:05:11 | 01:37:29 | 00:00:00 | |
| DF8AY | 2026-09-03 11:08:58 | 52.14835 | 9.36621 | 99° | 78km/h | 4560m | -7.8m/s | -6.2°C | 91.8% | 585.1hPa | 2.6V | 08:05:11 | 01:37:33 | 00:00:00 | |
| DD1CC8 | 2026-09-03 11:08:58 | 52.14835 | 9.36621 | 99° | 77km/h | 4560m | -7.8m/s | -6.2°C | 86.6% | 585.1hPa | 2.7V | 00:00:00 | 00:00:00 | 00:00:00 | |
| DD8BA-10 | 2026-09-03 11:08:57 | 52.14838 | 9.36590 | 100° | 77km/h | 4569m | -8.3m/s | -6.2°C | 88.6% | 584.4hPa | 2.7V | 00:00:00 | 00:00:00 | 00:00:00 | |
| DM0DOS-11 | 2026-09-03 11:08:55 | 52.14859 | 9.36379 | 97° | 75km/h | 4623m | -7.7m/s | -6.4°C | 87.6% | 580.5hPa | 2.7V | 08:04:40 | 01:37:25 | 00:00:00 | |
| DB0DAN | 2026-09-03 11:08:55 | 52.14845 | 9.36529 | 99° | 69km/h | 4584m | -7.7m/s | -6.4°C | 88.4% | 583.32hPa | 2.7V | 00:00:00 | 00:00:00 | 00:00:00 | |
| DL1XH-west | 2026-09-03 11:08:52 | 52.14854 | 9.36440 | 99° | 75km/h | 4607m | -8.1m/s | -6.5°C | 93.1% | 581.5hPa | 2.6V | 08:05:11 | 01:37:27 | 00:00:00 | |
| SONCRA | 2026-09-03 11:08:51 | 52.14857 | 9.36410 | 99° | 75km/h | 4615m | -8.3m/s | -6.5°C | 87.4% | 581.0hPa | 2.7V | 00:00:00 | 00:00:00 | 00:00:00 | |
| DM0DOS-11 | 2026-09-03 11:08:50 | 52.14869 | 9.36187 | 96° | 84km/h | 4669m | -7.9m/s | -6.7°C | 87.8% | 577hPa | 2.7V | 08:04:46 | 01:37:19 | 00:00:00 | |
| DL1XH-15 | 2026-09-03 11:08:49 | 52.14862 | 9.36349 | 96° | 75km/h | 4631m | -7.6m/s | -6.5°C | 87.5% | 579.9hPa | 2.7V | 08:04:41 | 01:37:24 | 00:00:00 | |
| DL1XH1-15 | 2026-09-03 11:08:49 | 52.14872 | 9.36153 | 96° | 86km/h | 4677m | -8.2m/s | -6.8°C | 87.8% | 576.4hPa | 2.7V | 08:04:47 | 01:37:18 | 00:00:00 | |
| BIOWL1-15 | 2026-09-03 11:08:47 | 52.14865 | 9.36286 | 94° | 78km/h | 4646m | -8.1m/s | -6.5°C | 92% | 578.7hPa | 2.6V | 08:05:11 | 01:37:22 | 00:00:00 | |
| DD1CC3-15 | 2026-09-03 11:08:46 | 52.14865 | 9.36286 | 95° | 78km/h | 4646m | -8.1m/s | -6.5°C | 85.6% | 578.7hPa | 2.7V | 08:05:00 | 00:00:00 | 00:00:00 | |
| DM0DOS-11 | 2026-09-03 11:08:44 | 52.14883 | 9.36048 | 101° | 86km/h | 4700m | -7.9m/s | -6.9°C | 87.1% | 574.6hPa | 2.7V | 08:04:50 | 01:37:15 | 00:00:00 | |
| DL1XH1-15 | 2026-09-03 11:08:44 | 52.14893 | 9.35981 | 104° | 84km/h | 4716m | -7.9m/s | -7°C | 87.4% | 573.5hPa | 2.7V | 08:04:52 | 01:37:13 | 00:00:00 | |
| DO2JMG | 2026-09-03 11:08:42 | 52.14875 | 9.36118 | 99° | 84km/h | 4685m | -7.9m/s | -6.8°C | 91.9% | 575.8hPa | 2.6V | 08:08:35 | 01:37:17 | 00:00:00 | |
| DL1XH-west | 2026-09-03 11:08:41 | 52.14878 | 9.36083 | 101° | 88km/h | 4692m | -7.8m/s | -6.9°C | 92% | 575.1hPa | 2.6V | 08:05:11 | 01:37:16 | 00:00:00 | |
| DB0DAN | 2026-09-03 11:08:40 | 52.14883 | 9.36048 | 102° | 82km/h | 4700m | -7.9m/s | -6.9°C | 85.5% | 574.62hPa | 2.7V | 00:00:00 | 00:00:00 | 00:00:00 | |
| DL1XH1-15 | 2026-09-03 11:08:38 | 52.14918 | 9.35819 | 102° | 78km/h | 4753m | -7.2m/s | -7.3°C | 87.7% | 570.8hPa | 2.7V | 08:04:57 | 01:37:08 | 00:00:00 | |
| DF8AY | 2026-09-03 11:08:37 | 52.14898 | 9.35947 | 105° | 82km/h | 4723m | -7.9m/s | -7.1°C | 91.3% | 573hPa | 2.7V | 08:05:11 | 01:37:12 | 00:00:00 | |
| DL1XH-15 | 2026-09-03 11:08:35 | 52.14909 | 9.35883 | 104° | 80km/h | 4739m | -7.7m/s | -7.2°C | 87.3% | 571.9hPa | 2.6V | 08:04:55 | 01:37:10 | 00:00:00 | |
| DJ2DS-15 | 2026-09-03 11:08:35 | 52.14909 | 9.35883 | 105° | 86km/h | 4739m | -7.7m/s | -7.1°C | 87.3% | 571.8hPa | 2.6V | 00:00:00 | 01:37:10 | 00:00:00 | |
| DM0DOS-11 | 2026-09-03 11:08:34 | 52.14929 | 9.35721 | 98° | 84km/h | 4776m | -7.2m/s | -7.5°C | 88.2% | 569.3hPa | 2.6V | 08:05:00 | 01:37:05 | 00:00:00 | |
| DL1XH-west | 2026-09-03 11:08:31 | 52.14926 | 9.35755 | 99° | 80km/h | 4768m | -7.6m/s | -7.4°C | 90.8% | 569.8hPa | 2.6V | 08:05:11 | 01:37:06 | 00:00:00 | |
| DM0DOS-11 | 2026-09-03 11:08:29 | 52.14946 | 9.35545 | 99° | 89km/h | 4812m | -7.3m/s | -7.7°C | 90.4% | 566.6hPa | 2.6V | 08:05:05 | 01:37:00 | 00:00:00 | |
| DF8AY | 2026-09-03 11:08:26 | 52.14942 | 9.35581 | 100° | 89km/h | 4804m | -7.3m/s | -7.7°C | 91.5% | 567.2hPa | 2.7V | 08:05:11 | 01:37:01 | 00:00:00 | |
| BIOWL1-15 | 2026-09-03 11:08:25 | 52.14946 | 9.35545 | 100° | 89km/h | 4812m | -7.3m/s | -7.7°C | 92.3% | 566.6hPa | 2.6V | 08:05:11 | 01:37:00 | 00:00:00 | |
| DB0DAN | 2026-09-03 11:08:25 | 52.14946 | 9.35545 | 100° | 86km/h | 4812m | -7.3m/s | -7.7°C | 88.7% | 566.65hPa | 2.6V | 00:00:00 | 00:00:00 | 00:00:00 | |
| DD8BA-10 | 2026-09-03 11:08:25 | 52.14946 | 9.35545 | 100° | 89km/h | 4812m | -7.2m/s | -7.7°C | 90.4% | 566.6hPa | 2.7V | 00:00:00 | 00:00:00 | 00:00:00 | |
| DL1XH1-15 | 2026-09-03 11:08:23 | 52.14977 | 9.35289 | 103° | 89km/h | 4863m | -7.3m/s | -8.1°C | 93.2% | 562.9hPa | 2.7V | 08:05:12 | 01:36:53 | 00:00:00 | |
| DL1XH-west | 2026-09-03 11:08:21 | 52.14963 | 9.35398 | 101° | 91km/h | 4841m | -7.8m/s | -7.9°C | 94.7% | 564.5hPa | 2.7V | 08:05:11 | 01:36:56 | 00:00:00 | |
| SONCRA | 2026-09-03 11:08:20 | 52.14967 | 9.35361 | 101° | 89km/h | 4849m | -7.6m/s | -8.0°C | 90.8% | 564.0hPa | 2.7V | 00:00:00 | 00:00:00 | 00:00:00 | |
| DM0DOS-11 | 2026-09-03 11:08:19 | 52.14994 | 9.35185 | 106° | 88km/h | 4886m | -7.9m/s | -8.2°C | 94.7% | 561.3hPa | 2.7V | 08:05:15 | 01:36:50 | 00:00:00 | |
| DL1XH1-15 | 2026-09-03 11:08:18 | 52.15006 | 9.35115 | 105° | 88km/h | 4901m | -7.9m/s | -8.3°C | 95.5% | 560.3hPa | 2.6V | 08:05:17 | 01:36:48 | 00:00:00 | |
| DF8AY | 2026-09-03 11:08:15 | 52.14994 | 9.35185 | 106° | 88km/h | 4886m | -7.9m/s | -8.2°C | 97.8% | 561.3hPa | 2.7V | 08:06:02 | 01:36:50 | 00:00:00 | |
| BIOWL1-15 | 2026-09-03 11:08:14 | 52.15012 | 9.35081 | 106° | 88km/h | 4908m | -7.2m/s | -8.4°C | 98.3% | 559.7hPa | 2.7V | 08:06:02 | 01:36:47 | 00:00:00 | |
| DK9SH | 2026-09-03 11:08:14 | 52.14994 | 9.35184 | 107° | 88km/h | 4886m | -7.9m/s | -8.2°C | 92.9% | 561.3hPa | 2.6V | 08:06:00 | 00:00:00 | 00:00:00 | |
| DL1XH1-15 | 2026-09-03 11:08:13 | 52.15040 | 9.34945 | 109° | 86km/h | 4938m | -7.4m/s | -8.5°C | 94.7% | 557.5hPa | 2.6V | 08:05:22 | 01:36:43 | 00:00:00 | |
| DL3AQ-11 | 2026-09-03 11:08:13 | 52.15012 | 9.35081 | 106° | 86km/h | 4908m | -7.2m/s | -8.4°C | 93.9% | 559.7hPa | 2.7V | 00:00:00 | 00:00:00 | 00:00:00 | |
| DL1XH-15 | 2026-09-03 11:08:12 | 52.15047 | 9.34912 | 108° | 84km/h | 4945m | -7.8m/s | -8.6°C | 94.9% | 557hPa | 2.7V | 08:05:23 | 01:36:42 | 00:00:00 | |
| DL1XH-west | 2026-09-03 11:08:10 | 52.15026 | 9.35012 | 108° | 88km/h | 4923m | -7.7m/s | -8.5°C | 95.9% | 558.6hPa | 2.7V | 08:06:02 | 01:36:45 | 00:00:00 | |
| DB0DAN | 2026-09-03 11:08:10 | 52.15026 | 9.35012 | 108° | 84km/h | 4923m | -7.7m/s | -8.5°C | 92% | 558.63hPa | 2.7V | 00:00:00 | 00:00:00 | 00:00:00 | |
| DL1XH1-15 | 2026-09-03 11:08:08 | 52.15072 | 9.34786 | 107° | 78km/h | 4975m | -6.9m/s | -8.8°C | 95.8% | 554.9hPa | 2.6V | 08:05:27 | 01:36:38 | 00:00:00 | |
| DO2JMG | 2026-09-03 11:08:07 | 52.15047 | 9.34912 | 109° | 84km/h | 4945m | -7.8m/s | -8.6°C | 96% | 557hPa | 2.7V | 08:08:35 | 01:36:42 | 00:00:00 | |
| DF8AY | 2026-09-03 11:08:05 | 52.15060 | 9.34848 | 108° | 80km/h | 4960m | -7m/s | -8.7°C | 96.5% | 556hPa | 2.7V | 08:06:02 | 01:36:40 | 00:00:00 | |
| BIOWL1-15 | 2026-09-03 11:08:04 | 52.15066 | 9.34817 | 108° | 78km/h | 4967m | -7.6m/s | -8.7°C | 97.1% | 555.5hPa | 2.6V | 08:06:02 | 01:36:39 | 00:00:00 | |
| DL1XH1-15 | 2026-09-03 11:08:03 | 52.15102 | 9.34631 | 107° | 78km/h | 5009m | -6.2m/s | -9°C | 96.3% | 552.5hPa | 2.6V | 08:05:32 | 01:36:33 | 00:00:00 | |
| DL1XH-west | 2026-09-03 11:08:00 | 52.15090 | 9.34693 | 107° | 78km/h | 4995m | -6.9m/s | -8.9°C | 97.6% | 553.5hPa | 2.7V | 08:06:02 | 01:36:35 | 00:00:00 | |
| DF8AY | 2026-09-03 11:07:59 | 52.15124 | 9.34507 | 107° | 80km/h | 5034m | -6.8m/s | -9.2°C | 98.8% | 550.5hPa | 2.7V | 08:06:02 | 01:36:29 | 00:00:00 | |
| DO2JMG | 2026-09-03 11:07:56 | 52.15113 | 9.34569 | 106° | 78km/h | 5021m | -6.5m/s | -9.1°C | 98.6% | 551.6hPa | 2.7V | 08:08:35 | 01:36:31 | 00:00:00 | |
| DD1CC8 | 2026-09-03 11:07:56 | 52.15113 | 9.34569 | 106° | 77km/h | 5021m | -6.5m/s | -9.1°C | 94.7% | 551.6hPa | 2.7V | 00:00:00 | 00:00:00 | 00:00:00 | |
| DB0DAN | 2026-09-03 11:07:55 | 52.15118 | 9.34539 | 107° | 75km/h | 5028m | -6.7m/s | -9.1°C | 94.6% | 551.06hPa | 2.7V | 00:00:00 | 00:00:00 | 00:00:00 | |
| DM0DOS-11 | 2026-09-03 11:07:54 | 52.15124 | 9.34507 | 106° | 80km/h | 5034m | -6.8m/s | -9.2°C | 96.5% | 550.5hPa | 2.7V | 08:05:36 | 01:36:29 | 00:00:00 | |
| BIOWL1-15 | 2026-09-03 11:07:53 | 52.15130 | 9.34476 | 108° | 80km/h | 5041m | -7.1m/s | -9.2°C | 99% | 550hPa | 2.6V | 08:06:02 | 01:36:28 | 00:00:00 | |
| DL1XH1-15 | 2026-09-03 11:07:52 | 52.15166 | 9.34311 | 109° | 89km/h | 5076m | -7.3m/s | -9.4°C | 96.9% | 547.5hPa | 2.6V | 08:05:42 | 01:36:23 | 00:00:00 | |
| DL1XH-west | 2026-09-03 11:07:49 | 52.15159 | 9.34346 | 110° | 88km/h | 5068m | -7.8m/s | -9.4°C | 99.2% | 547.9hPa | 2.7V | 08:06:02 | 01:36:24 | 00:00:00 | |
| DF8AY | 2026-09-03 11:07:44 | 52.15197 | 9.34174 | 109° | 89km/h | 5103m | -7.3m/s | -9.6°C | 99.7% | 545.5hPa | 2.7V | 08:06:02 | 01:36:19 | 00:00:00 | |
| DD8BA-10 | 2026-09-03 11:07:44 | 52.15197 | 9.34174 | 110° | 88km/h | 5103m | -7.2m/s | -9.6°C | 97.2% | 545.4hPa | 2.7V | 00:00:00 | 00:00:00 | 00:00:00 | |
| DL1XH-15 | 2026-09-03 11:07:43 | 52.15225 | 9.34036 | 107° | 88km/h | 5132m | -7m/s | -9.8°C | 97.2% | 543.5hPa | 2.7V | 08:05:50 | 01:36:15 | 00:00:00 | |
| BIOWL1-15 | 2026-09-03 11:07:43 | 52.15204 | 9.34139 | 109° | 89km/h | 5111m | -7.7m/s | -9.7°C | 99.4% | 545hPa | 2.7V | 08:06:02 | 01:36:18 | 00:00:00 | |
| DL1XH1-15 | 2026-09-03 11:07:43 | 52.15237 | 9.33967 | 105° | 84km/h | 5146m | -6.9m/s | -9.9°C | 96.3% | 542.5hPa | 2.7V | 08:05:52 | 01:36:13 | 00:00:00 | |
| DF8AY-15 | 2026-09-03 11:07:43 | 52.15204 | 9.34139 | 110° | 86km/h | 5111m | -7.6m/s | -9.6°C | 97.0% | 545.0hPa | 2.7V | 00:00:00 | 01:36:18 | 00:00:00 | |
| DO9LL-15 | 2026-09-03 11:07:42 | 52.15211 | 9.34104 | 109° | 89km/h | 5118m | -7.1m/s | -9.7°C | 96.6% | 544.4hPa | 2.7V | 00:00:00 | 01:36:17 | 00:00:00 | |
| DB0DAN | 2026-09-03 11:07:40 | 52.15225 | 9.34036 | 108° | 84km/h | 5132m | -7m/s | -9.8°C | 95.3% | 543.55hPa | 2.7V | 00:00:00 | 00:00:00 | 00:00:00 | |
| DL1XH-west | 2026-09-03 11:07:39 | 52.15232 | 9.34001 | 106° | 88km/h | 5139m | -7m/s | -9.8°C | 98.2% | 543hPa | 2.7V | 08:06:02 | 01:36:14 | 00:00:00 | |
| DJ2DS-15 | 2026-09-03 11:07:35 | 52.15255 | 9.33867 | 106° | 84km/h | 5166m | -6.9m/s | -10.0°C | 96.8% | 541.1hPa | 2.6V | 00:00:00 | 01:36:10 | 00:00:00 | |
| DL1XH-15 | 2026-09-03 11:07:34 | 52.15284 | 9.33700 | 105° | 82km/h | 5200m | -7.3m/s | -10.3°C | 97.6% | 538.8hPa | 2.6V | 08:06:00 | 01:36:05 | 00:00:00 | |
| DF8AY | 2026-09-03 11:07:34 | 52.15261 | 9.33834 | 106° | 84km/h | 5173m | -7.4m/s | -10.2°C | 96.8% | 540.7hPa | 2.7V | 08:06:02 | 01:36:09 | 00:00:00 | |
| BIOWL1-15 | 2026-09-03 11:07:33 | 52.15301 | 9.33602 | 107° | 86km/h | 5220m | -7.2m/s | -10.5°C | 98.5% | 537.4hPa | 2.7V | 08:06:53 | 01:36:02 | 00:00:00 | |
| DL1XH-west | 2026-09-03 11:07:28 | 52.15295 | 9.33635 | 106° | 84km/h | 5214m | -6.7m/s | -10.4°C | 97.8% | 537.8hPa | 2.7V | 08:06:02 | 01:36:03 | 00:00:00 | |
| DC6BW-12 | 2026-09-03 11:07:27 | 52.15295 | 9.33635 | 107° | 84km/h | 5214m | -6.7m/s | -10.4°C | 95.1% | 537.8hPa | 2.7V | 08:06:00 | 00:00:00 | 00:00:00 | |
| DB0DAN | 2026-09-03 11:07:25 | 52.15313 | 9.33534 | 106° | 82km/h | 5234m | -6.7m/s | -10.6°C | 95% | 536.43hPa | 2.7V | 00:00:00 | 00:00:00 | 00:00:00 | |
| DD1CC8 | 2026-09-03 11:07:25 | 52.15319 | 9.33501 | 105° | 84km/h | 5241m | -6.9m/s | -10.6°C | 95.3% | 535.9hPa | 2.7V | 00:00:00 | 00:00:00 | 00:00:00 | |
| DL1XH-15 | 2026-09-03 11:07:24 | 52.15344 | 9.33364 | 105° | 88km/h | 5268m | -7.2m/s | -10.8°C | 96.8% | 534.1hPa | 2.7V | 08:06:10 | 01:35:55 | 00:00:00 | |
| DF8AY | 2026-09-03 11:07:23 | 52.15325 | 9.33467 | 107° | 86km/h | 5247m | -6.3m/s | -10.6°C | 99.2% | 535.4hPa | 2.6V | 08:06:53 | 01:35:58 | 00:00:00 | |
| DO2JMG | 2026-09-03 11:07:21 | 52.15338 | 9.33399 | 106° | 86km/h | 5261m | -7.3m/s | -10.7°C | 100% | 534.6hPa | 2.7V | 08:08:35 | 01:35:56 | 00:00:00 | |
| DJ2DS-15 | 2026-09-03 11:07:20 | 52.15344 | 9.33364 | 105° | 86km/h | 5268m | -7.2m/s | -10.8°C | 94.8% | 534.1hPa | 2.6V | 00:00:00 | 00:00:00 | 00:00:00 | |
| DM0DOS-11 | 2026-09-03 11:07:19 | 52.15380 | 9.33164 | 106° | 84km/h | 5312m | -7.9m/s | -11°C | 93.9% | 531hPa | 2.6V | 08:06:16 | 01:35:49 | 00:00:00 | |
| AA1-15 | 2026-09-03 11:07:18 | 52.15356 | 9.33297 | 107° | 86km/h | 5282m | -7.5m/s | -10.8°C | 98.2% | 533hPa | 2.6V | 08:07:44 | 01:35:53 | 00:00:00 | |
| DL1XH-west | 2026-09-03 11:07:17 | 52.15363 | 9.33263 | 106° | 86km/h | 5289m | -7.9m/s | -10.9°C | 97.2% | 532.6hPa | 2.7V | 08:06:53 | 01:35:52 | 00:00:00 | |
| BIOWL1-15 | 2026-09-03 11:07:16 | 52.15369 | 9.33230 | 106° | 82km/h | 5297m | -7.7m/s | -10.9°C | 96.3% | 532hPa | 2.7V | 08:06:53 | 01:35:51 | 00:00:00 | |
| DJ2DS-15 | 2026-09-03 11:07:15 | 52.15374 | 9.33197 | 107° | 86km/h | 5304m | -7.1m/s | -10.9°C | 94.0% | 531.6hPa | 2.7V | 00:00:00 | 01:35:50 | 00:00:00 | |
| DL1XH-15 | 2026-09-03 11:07:14 | 52.15405 | 9.33029 | 107° | 86km/h | 5340m | -6.9m/s | -11.1°C | 93% | 529hPa | 2.7V | 08:06:20 | 01:35:45 | 00:00:00 | |
| DF8AY | 2026-09-03 11:07:12 | 52.15392 | 9.33098 | 106° | 86km/h | 5327m | -7.6m/s | -11°C | 94.3% | 530.1hPa | 2.7V | 08:06:53 | 01:35:47 | 00:00:00 | |
| DL4XJ-10 | 2026-09-03 11:07:12 | 52.15392 | 9.33097 | 107° | 88km/h | 5326m | -7.5m/s | -9.4°C | 0% | 0hPa | 2.7V | 00:00:00 | 00:00:00 | 00:00:00 | |
| DB0DAN | 2026-09-03 11:07:10 | 52.15404 | 9.33029 | 107° | 82km/h | 5341m | -6.9m/s | -11.1°C | 91.1% | 529.06hPa | 2.7V | 00:00:00 | 00:00:00 | 00:00:00 | |
| DO2JMG | 2026-09-03 11:07:10 | 52.15404 | 9.33029 | 107° | 86km/h | 5341m | -6.9m/s | -11.1°C | 93.5% | 529.1hPa | 2.7V | 08:08:35 | 01:35:45 | 00:00:00 | |
| DM0DOS-11 | 2026-09-03 11:07:09 | 52.15443 | 9.32827 | 109° | 88km/h | 5384m | -7.2m/s | -11.4°C | 94.2% | 526.2hPa | 2.6V | 08:06:26 | 01:35:39 | 00:00:00 | |
| AA1-15 | 2026-09-03 11:07:08 | 52.15417 | 9.32962 | 106° | 86km/h | 5354m | -7.7m/s | -11.2°C | 93.9% | 528.1hPa | 2.6V | 08:07:44 | 01:35:43 | 00:00:00 | |
| DL1XH-west | 2026-09-03 11:07:06 | 52.15430 | 9.32894 | 108° | 88km/h | 5369m | -7.8m/s | -11.4°C | 94.4% | 527.2hPa | 2.7V | 08:06:53 | 01:35:41 | 00:00:00 | |
| DL3AQ-11 | 2026-09-03 11:07:05 | 52.15436 | 9.32860 | 107° | 86km/h | 5377m | -6.7m/s | -11.4°C | 91.9% | 526.7hPa | 2.7V | 00:00:00 | 00:00:00 | 00:00:00 | |
| DL1XH-15 | 2026-09-03 11:07:04 | 52.15472 | 9.32693 | 109° | 86km/h | 5413m | -7.3m/s | -11.6°C | 94.8% | 524.2hPa | 2.7V | 08:06:30 | 01:35:35 | 00:00:00 | |
| DD8BA-10 | 2026-09-03 11:07:04 | 52.15443 | 9.32827 | 110° | 88km/h | 5384m | -7.1m/s | -11.4°C | 94.2% | 526.2hPa | 2.6V | 00:00:00 | 00:00:00 | 00:00:00 | |
| DF8AY-15 | 2026-09-03 11:07:03 | 52.15451 | 9.32793 | 109° | 88km/h | 5391m | -7.5m/s | -11.4°C | 94.5% | 525.6hPa | 2.6V | 00:00:00 | 01:35:38 | 00:00:00 | |
| DL1XH1-15 | 2026-09-03 11:07:02 | 52.15488 | 9.32626 | 109° | 86km/h | 5428m | -7.9m/s | -11.7°C | 95.3% | 523.1hPa | 2.6V | 08:06:32 | 01:35:33 | 00:00:00 | |
| DF8AY | 2026-09-03 11:07:02 | 52.15458 | 9.32760 | 109° | 86km/h | 5398m | -7.1m/s | -11.5°C | 95.9% | 525.2hPa | 2.7V | 08:06:53 | 01:35:37 | 00:00:00 | |
| DO2JMG | 2026-09-03 11:07:00 | 52.15472 | 9.32693 | 110° | 86km/h | 5413m | -7.3m/s | -11.6°C | 95.7% | 524.2hPa | 2.7V | 08:08:35 | 01:35:35 | 00:00:00 | |
| DM0DOS-11 | 2026-09-03 11:06:59 | 52.15517 | 9.32487 | 107° | 89km/h | 5460m | -8.8m/s | -12°C | 96.9% | 520.9hPa | 2.6V | 08:06:36 | 01:35:29 | 00:00:00 | |
| BIOWL1-15 | 2026-09-03 11:06:57 | 52.15545 | 9.32344 | 107° | 91km/h | 5490m | -7.3m/s | -12.1°C | 97.4% | 518.8hPa | 2.7V | 08:06:53 | 01:35:25 | 00:00:00 | |
| AA1-15 | 2026-09-03 11:06:57 | 52.15495 | 9.32592 | 109° | 89km/h | 5436m | -8.1m/s | -11.8°C | 97.1% | 522.6hPa | 2.7V | 08:07:44 | 01:35:32 | 00:00:00 | |
| DL1XH-west | 2026-09-03 11:06:56 | 52.15502 | 9.32557 | 109° | 89km/h | 5444m | -7.7m/s | -11.8°C | 97.8% | 522.1hPa | 2.7V | 08:06:53 | 01:35:31 | 00:00:00 | |
| DB0DAN | 2026-09-03 11:06:55 | 52.15510 | 9.32522 | 109° | 88km/h | 5452m | -8.2m/s | -11.9°C | 94.4% | 521.54hPa | 2.7V | 00:00:00 | 00:00:00 | 00:00:00 | |
| DJ2DS-15 | 2026-09-03 11:06:55 | 52.15510 | 9.32522 | 110° | 89km/h | 5452m | -8.2m/s | -11.9°C | 96.5% | 521.5hPa | 2.7V | 00:00:00 | 01:35:30 | 00:00:00 | |
| DL1XH-15 | 2026-09-03 11:06:54 | 52.15545 | 9.32344 | 107° | 91km/h | 5490m | -7.3m/s | -12.1°C | 96.4% | 518.8hPa | 2.7V | 08:06:40 | 01:35:25 | 00:00:00 | |
| DD1CC8 | 2026-09-03 11:06:54 | 52.15524 | 9.32451 | 107° | 91km/h | 5468m | -7.7m/s | -12.0°C | 94.3% | 520.5hPa | 2.6V | 00:00:00 | 00:00:00 | 00:00:00 | |
| DL3AQ-11 | 2026-09-03 11:06:53 | 52.15531 | 9.32415 | 107° | 89km/h | 5476m | -7.8m/s | -12.0°C | 93.6% | 520.0hPa | 2.6V | 00:00:00 | 00:00:00 | 00:00:00 | |
| DL1XH1-15 | 2026-09-03 11:06:52 | 52.15558 | 9.32274 | 107° | 88km/h | 5505m | -7.6m/s | -12.2°C | 96.7% | 517.9hPa | 2.6V | 08:06:42 | 01:35:23 | 00:00:00 | |
| DF8AY | 2026-09-03 11:06:52 | 52.15531 | 9.32415 | 107° | 91km/h | 5476m | -7.8m/s | -12°C | 97.6% | 520hPa | 2.7V | 08:06:53 | 01:35:27 | 00:00:00 | |
| DL4XJ-10 | 2026-09-03 11:06:52 | 52.15531 | 9.32415 | 108° | 89km/h | 5477m | -7.7m/s | -10.4°C | 0% | 0hPa | 2.6V | 00:00:00 | 00:00:00 | 00:00:00 | |
| DK9SH | 2026-09-03 11:06:51 | 52.15531 | 9.32415 | 108° | 91km/h | 5476m | -7.8m/s | -12.0°C | 93.6% | 520.0hPa | 2.6V | 08:06:00 | 00:00:00 | 00:00:00 | |
| DM0DOS-11 | 2026-09-03 11:06:49 | 52.15585 | 9.32136 | 105° | 88km/h | 5533m | -6.8m/s | -12.3°C | 96.1% | 515.9hPa | 2.6V | 08:06:46 | 01:35:19 | 00:00:00 | |
| AA1-15 | 2026-09-03 11:06:47 | 52.15565 | 9.32240 | 108° | 88km/h | 5512m | -7.2m/s | -12.3°C | 97% | 517.4hPa | 2.7V | 08:07:44 | 01:35:22 | 00:00:00 | |
| DL1XH-west | 2026-09-03 11:06:45 | 52.15578 | 9.32171 | 107° | 88km/h | 5526m | -7.1m/s | -12.3°C | 96.9% | 516.4hPa | 2.7V | 08:06:53 | 01:35:20 | 00:00:00 | |
| DD8BA-10 | 2026-09-03 11:06:44 | 52.15584 | 9.32136 | 106° | 89km/h | 5533m | -6.7m/s | -12.3°C | 96.1% | 515.8hPa | 2.6V | 00:00:00 | 00:00:00 | 00:00:00 | |
| DF8AY-15 | 2026-09-03 11:06:43 | 52.15590 | 9.32101 | 106° | 89km/h | 5539m | -6.1m/s | -12.4°C | 96.4% | 515.5hPa | 2.6V | 00:00:00 | 01:35:18 | 00:00:00 | |
| DL3AQ-11 | 2026-09-03 11:06:42 | 52.15602 | 9.32030 | 103° | 88km/h | 5551m | -6.1m/s | -12.5°C | 94.5% | 514.7hPa | 2.6V | 00:00:00 | 00:00:00 | 00:00:00 | |
| DL1XH1-15 | 2026-09-03 11:06:41 | 52.15618 | 9.31924 | 104° | 89km/h | 5571m | -6.8m/s | -12.5°C | 96.2% | 513.4hPa | 2.6V | 08:06:52 | 01:35:13 | 00:00:00 | |
| DF8AY | 2026-09-03 11:06:41 | 52.15602 | 9.32030 | 104° | 89km/h | 5551m | -6.1m/s | -12.5°C | 96.9% | 514.7hPa | 2.7V | 08:06:53 | 01:35:16 | 00:00:00 | |
| DB0DAN | 2026-09-03 11:06:40 | 52.15607 | 9.31995 | 104° | 84km/h | 5558m | -6.5m/s | -12.4°C | 93.5% | 514.25hPa | 2.7V | 00:00:00 | 00:00:00 | 00:00:00 | |
| AA1-15 | 2026-09-03 11:06:36 | 52.15630 | 9.31853 | 105° | 88km/h | 5583m | -6.6m/s | -12.6°C | 96.7% | 512.5hPa | 2.7V | 08:07:44 | 01:35:11 | 00:00:00 | |
| DL1XH-west | 2026-09-03 11:06:35 | 52.15636 | 9.31818 | 105° | 89km/h | 5590m | -7.1m/s | -12.7°C | 96.2% | 512hPa | 2.7V | 08:07:44 | 01:35:10 | 00:00:00 | |
| DJ2DS-15 | 2026-09-03 11:06:35 | 52.15636 | 9.31818 | 106° | 89km/h | 5590m | -7.0m/s | -12.6°C | 95.6% | 511.9hPa | 2.6V | 00:00:00 | 01:35:10 | 00:00:00 | |
| DD8BA-10 | 2026-09-03 11:06:34 | 52.15642 | 9.31782 | 107° | 91km/h | 5596m | -6.4m/s | -12.7°C | 95.8% | 511.7hPa | 2.6V | 00:00:00 | 00:00:00 | 00:00:00 | |
| DL4XJ-10 | 2026-09-03 11:06:32 | 52.15655 | 9.31711 | 105° | 91km/h | 5609m | -6.0m/s | -11.3°C | 0% | 0hPa | 2.6V | 00:00:00 | 00:00:00 | 00:00:00 | |
| DL1XH1-15 | 2026-09-03 11:06:31 | 52.15679 | 9.31568 | 106° | 91km/h | 5635m | -7.2m/s | -13.1°C | 95.5% | 509hPa | 2.6V | 08:07:02 | 01:35:03 | 00:00:00 | |
| DF8AY | 2026-09-03 11:06:30 | 52.15667 | 9.31639 | 105° | 89km/h | 5622m | -6.4m/s | -13°C | 95.9% | 509.9hPa | 2.7V | 08:07:44 | 01:35:05 | 00:00:00 | |
| GOEST3-10 | 2026-09-03 11:06:30 | 52.15667 | 9.31639 | 105° | 91km/h | 5622m | -6.4m/s | -12.9°C | 95.5% | 509.8hPa | 2.7V | 08:07:00 | 00:00:00 | 00:00:00 | |
| DM0DOS-11 | 2026-09-03 11:06:29 | 52.15705 | 9.31424 | 106° | 91km/h | 5661m | -6.7m/s | -13.2°C | 96.6% | 507.2hPa | 2.7V | 08:07:06 | 01:34:59 | 00:00:00 | |
| DO2JMG | 2026-09-03 11:06:29 | 52.15673 | 9.31604 | 105° | 91km/h | 5628m | -7m/s | -13°C | 95.7% | 509.5hPa | 2.7V | 08:08:35 | 01:35:04 | 00:00:00 | |
| HSKMA3-T | 2026-09-03 11:06:25 | 52.15698 | 9.31460 | 106° | 91km/h | 5655m | -6.2m/s | -13.2°C | 95% | 507.8hPa | 2.7V | 08:07:44 | 01:35:00 | 00:00:00 | |
| DB0DAN | 2026-09-03 11:06:25 | 52.15698 | 9.31460 | 106° | 88km/h | 5655m | -6.2m/s | -13.2°C | 94.1% | 507.78hPa | 2.7V | 00:00:00 | 00:00:00 | 00:00:00 | |
| DL1XH-west | 2026-09-03 11:06:24 | 52.15705 | 9.31424 | 106° | 91km/h | 5661m | -6.7m/s | -13.2°C | 95.2% | 507.3hPa | 2.7V | 08:07:44 | 01:34:59 | 00:00:00 | |
| DD8BA-10 | 2026-09-03 11:06:24 | 52.15705 | 9.31424 | 107° | 89km/h | 5661m | -6.6m/s | -13.2°C | 96.6% | 507.2hPa | 2.7V | 00:00:00 | 00:00:00 | 00:00:00 | |
| DD1CC3-15 | 2026-09-03 11:06:23 | 52.15711 | 9.31388 | 106° | 89km/h | 5667m | -6.5m/s | -13.3°C | 94.5% | 506.9hPa | 2.7V | 00:00:00 | 00:00:00 | 00:00:00 | |
| DL1XH1-15 | 2026-09-03 11:06:21 | 52.15742 | 9.31210 | 105° | 88km/h | 5699m | -6.4m/s | -13.5°C | 98.3% | 504.9hPa | 2.7V | 08:07:12 | 01:34:53 | 00:00:00 | |
| DF8AY | 2026-09-03 11:06:20 | 52.15730 | 9.31281 | 106° | 89km/h | 5686m | -6.1m/s | -13.4°C | 97% | 505.7hPa | 2.7V | 08:07:44 | 01:34:55 | 00:00:00 | |
| BIOWL1-15 | 2026-09-03 11:06:19 | 52.15761 | 9.31103 | 106° | 91km/h | 5719m | -6.8m/s | -13.6°C | 100% | 503.7hPa | 2.7V | 08:07:44 | 01:34:50 | 00:00:00 | |
| AA1-15 | 2026-09-03 11:06:19 | 52.15736 | 9.31245 | 106° | 89km/h | 5692m | -6.5m/s | -13.4°C | 97.5% | 505.4hPa | 2.7V | 08:07:44 | 01:34:54 | 00:00:00 | |
| DO2JMG | 2026-09-03 11:06:18 | 52.15742 | 9.31210 | 105° | 88km/h | 5699m | -6.4m/s | -13.5°C | 97.9% | 504.9hPa | 2.7V | 08:08:35 | 01:34:53 | 00:00:00 | |
| DL1XH-west | 2026-09-03 11:06:14 | 52.15767 | 9.31067 | 106° | 91km/h | 5725m | -6.7m/s | -13.7°C | 100% | 503.1hPa | 2.7V | 08:07:44 | 01:34:49 | 00:00:00 | |
| DD8BA-10 | 2026-09-03 11:06:14 | 52.15767 | 9.31067 | 106° | 95km/h | 5725m | -6.7m/s | -13.6°C | 0% | 503.1hPa | 2.7V | 00:00:00 | 00:00:00 | 00:00:00 | |
| DL3AQ-11 | 2026-09-03 11:06:13 | 52.15780 | 9.30993 | 105° | 93km/h | 5739m | -6.2m/s | -13.6°C | 97.6% | 502.4hPa | 2.7V | 00:00:00 | 00:00:00 | 00:00:00 | |
| DL4XJ-10 | 2026-09-03 11:06:12 | 52.15780 | 9.30993 | 106° | 95km/h | 5739m | -6.2m/s | -12.0°C | 0% | 0hPa | 2.7V | 00:00:00 | 00:00:00 | 00:00:00 | |
| DL1XH1-15 | 2026-09-03 11:06:11 | 52.15807 | 9.30843 | 106° | 95km/h | 5765m | -6.8m/s | -13.8°C | 98.4% | 500.5hPa | 2.7V | 08:07:22 | 01:34:43 | 00:00:00 | |
| DB0DAN | 2026-09-03 11:06:10 | 52.15794 | 9.30919 | 106° | 89km/h | 5752m | -6.5m/s | -13.7°C | 97.3% | 501.39hPa | 2.6V | 00:00:00 | 00:00:00 | 00:00:00 | |
| BIOWL1-15 | 2026-09-03 11:06:09 | 52.15800 | 9.30881 | 106° | 95km/h | 5758m | -6.7m/s | -13.8°C | 100% | 501hPa | 2.6V | 08:07:44 | 01:34:44 | 00:00:00 | |
| DO2JMG | 2026-09-03 11:06:07 | 52.15814 | 9.30806 | 105° | 93km/h | 5772m | -7.6m/s | -13.9°C | 96.2% | 500hPa | 2.7V | 08:08:35 | 01:34:42 | 00:00:00 | |
| DL1XH-west | 2026-09-03 11:06:04 | 52.15833 | 9.30694 | 107° | 93km/h | 5792m | -6.4m/s | -14°C | 93.3% | 498.7hPa | 2.6V | 08:07:44 | 01:34:39 | 00:00:00 | |
| HSKMA3-T | 2026-09-03 11:06:03 | 52.15840 | 9.30657 | 106° | 93km/h | 5798m | -6.8m/s | -14°C | 93.4% | 498.2hPa | 2.7V | 08:07:44 | 01:34:38 | 00:00:00 | |
| DF8AY-15 | 2026-09-03 11:06:03 | 52.15840 | 9.30657 | 106° | 95km/h | 5798m | -6.7m/s | -14.0°C | 92.2% | 498.1hPa | 2.6V | 00:00:00 | 01:34:38 | 00:00:00 | |
| DL3AQ-11 | 2026-09-03 11:06:02 | 52.15853 | 9.30583 | 105° | 95km/h | 5811m | -6.5m/s | -14.1°C | 91.2% | 497.4hPa | 2.6V | 00:00:00 | 00:00:00 | 00:00:00 | |
| DL1XH1-15 | 2026-09-03 11:06:01 | 52.15872 | 9.30468 | 104° | 99km/h | 5831m | -6.7m/s | -14.3°C | 94.1% | 496.1hPa | 2.6V | 08:07:32 | 01:34:33 | 00:00:00 | |
| DF8AY | 2026-09-03 11:05:59 | 52.15865 | 9.30507 | 105° | 95km/h | 5824m | -7m/s | -14.2°C | 94.3% | 496.5hPa | 2.6V | 08:07:44 | 01:34:34 | 00:00:00 | |
| BIOWL1-15 | 2026-09-03 11:05:58 | 52.15872 | 9.30468 | 105° | 99km/h | 5831m | -6.7m/s | -14.3°C | 94.7% | 496.1hPa | 2.6V | 08:07:44 | 01:34:33 | 00:00:00 | |
| DO2JMG | 2026-09-03 11:05:56 | 52.15884 | 9.30390 | 106° | 97km/h | 5843m | -6m/s | -14.4°C | 95.4% | 495.2hPa | 2.7V | 08:08:35 | 01:34:31 | 00:00:00 | |
| DB0DAN | 2026-09-03 11:05:55 | 52.15891 | 9.30352 | 104° | 91km/h | 5849m | -6.5m/s | -14.5°C | 93.2% | 494.82hPa | 2.7V | 00:00:00 | 00:00:00 | 00:00:00 | |
| AA1-15 | 2026-09-03 11:05:54 | 52.15897 | 9.30314 | 105° | 95km/h | 5856m | -6.3m/s | -14.5°C | 94.9% | 494.5hPa | 2.7V | 08:07:44 | 01:34:29 | 00:00:00 | |
| HSKMA3-T | 2026-09-03 11:05:53 | 52.15903 | 9.30276 | 105° | 95km/h | 5862m | -6.2m/s | -14.5°C | 93.5% | 494hPa | 2.7V | 08:07:44 | 01:34:28 | 00:00:00 | |
| DD1CC8 | 2026-09-03 11:05:52 | 52.15916 | 9.30200 | 104° | 93km/h | 5874m | -6.0m/s | -14.6°C | 91.6% | 493.2hPa | 2.7V | 00:00:00 | 00:00:00 | 00:00:00 | |
| DL1XH1-15 | 2026-09-03 11:05:51 | 52.15934 | 9.30088 | 104° | 95km/h | 5893m | -6.6m/s | -14.7°C | 93.5% | 492hPa | 2.7V | 08:07:42 | 01:34:23 | 00:00:00 | |
| DL3OBA | 2026-09-03 11:05:50 | 52.15916 | 9.30200 | 106° | 95km/h | 5874m | -6.0m/s | -14.6°C | 91.6% | 493.2hPa | 2.6V | 08:07:00 | 00:00:00 | 00:00:00 | |
| DL4BBY-15 | 2026-09-03 11:05:49 | 52.15928 | 9.30126 | 107° | 95km/h | 5887m | -6.5m/s | -13.0°C | 0% | 0hPa | 2.6V | 00:00:00 | 00:00:00 | 00:00:00 | |
| DM0DOS-11 | 2026-09-03 11:05:48 | 52.15964 | 9.29896 | 103° | 97km/h | 5926m | -6.9m/s | -14.9°C | 94% | 489.9hPa | 2.6V | 08:07:47 | 01:34:18 | 00:00:00 | |
| BIOWL1-15 | 2026-09-03 11:05:48 | 52.15934 | 9.30088 | 105° | 95km/h | 5893m | -6.6m/s | -14.7°C | 93.6% | 492hPa | 2.7V | 08:07:44 | 01:34:23 | 00:00:00 | |
| DO2JMG | 2026-09-03 11:05:45 | 52.15952 | 9.29974 | 105° | 97km/h | 5913m | -6.7m/s | -14.9°C | 93.9% | 490.8hPa | 2.6V | 08:08:35 | 01:34:20 | 00:00:00 | |
| AA1-15 | 2026-09-03 11:05:44 | 52.15958 | 9.29935 | 104° | 97km/h | 5920m | -6.6m/s | -14.9°C | 94.1% | 490.3hPa | 2.6V | 08:08:35 | 01:34:19 | 00:00:00 | |
| DL1XH-west | 2026-09-03 11:05:43 | 52.15964 | 9.29896 | 104° | 97km/h | 5927m | -6.9m/s | -15°C | 94.5% | 489.9hPa | 2.6V | 08:08:35 | 01:34:18 | 00:00:00 | |
| DF8AY-15 | 2026-09-03 11:05:43 | 52.15964 | 9.29896 | 104° | 95km/h | 5927m | -6.9m/s | -14.9°C | 94.0% | 489.8hPa | 2.7V | 00:00:00 | 01:34:18 | 00:00:00 | |
| DL1XH-15 | 2026-09-03 11:05:42 | 52.15982 | 9.29782 | 105° | 95km/h | 5947m | -6.3m/s | -15.1°C | 94.1% | 488.6hPa | 2.7V | 08:07:50 | 01:34:15 | 00:00:00 | |
| DD1CC3-15 | 2026-09-03 11:05:41 | 52.15970 | 9.29858 | 105° | 97km/h | 5933m | -7.0m/s | -15.0°C | 91.9% | 489.4hPa | 2.7V | 08:08:00 | 00:00:00 | 00:00:00 | |
| DB0DAN | 2026-09-03 11:05:40 | 52.15982 | 9.29783 | 106° | 89km/h | 5947m | -6.4m/s | -15.1°C | 91.8% | 488.63hPa | 2.7V | 00:00:00 | 00:00:00 | 00:00:00 | |
| DF8AY | 2026-09-03 11:05:38 | 52.15994 | 9.29708 | 104° | 95km/h | 5961m | -7.5m/s | -15.4°C | 96% | 487.7hPa | 2.6V | 08:08:35 | 01:34:13 | 00:00:00 | |
| BIOWL1-15 | 2026-09-03 11:05:37 | 52.16000 | 9.29670 | 104° | 95km/h | 5968m | -7.4m/s | -15.4°C | 96% | 487.2hPa | 2.6V | 08:08:35 | 01:34:12 | 00:00:00 | |
| AA1-15 | 2026-09-03 11:05:34 | 52.16018 | 9.29557 | 104° | 95km/h | 5990m | -7.4m/s | -15.5°C | 96.2% | 485.8hPa | 2.7V | 08:08:35 | 01:34:09 | 00:00:00 | |
| DL1XH-west | 2026-09-03 11:05:33 | 52.16024 | 9.29519 | 104° | 93km/h | 5997m | -6.7m/s | -15.6°C | 95.6% | 485.4hPa | 2.7V | 08:08:35 | 01:34:08 | 00:00:00 | |
| DL1XH-15 | 2026-09-03 11:05:32 | 52.16041 | 9.29406 | 103° | 95km/h | 6016m | -6.8m/s | -15.7°C | 96.1% | 484.2hPa | 2.6V | 08:08:00 | 01:34:05 | 00:00:00 | |
| DL4XJ-10 | 2026-09-03 11:05:32 | 52.16029 | 9.29481 | 105° | 93km/h | 6003m | -6.0m/s | -14.0°C | 0% | 0hPa | 2.7V | 00:00:00 | 00:00:00 | 00:00:00 | |
| DL3OBA | 2026-09-03 11:05:30 | 52.16035 | 9.29443 | 105° | 93km/h | 6009m | -6.2m/s | -15.7°C | 93.1% | 484.5hPa | 2.7V | 08:08:00 | 00:00:00 | 00:00:00 | |
| D01LWL | 2026-09-03 11:05:29 | 52.16052 | 9.29331 | 103° | 93km/h | 6028m | -6.9m/s | -15.8°C | 93.9% | 483.4hPa | 2.7V | 00:00:00 | 00:00:00 | 00:00:00 | |
| DM0DOS-11 | 2026-09-03 11:05:28 | 52.16080 | 9.29143 | 103° | 93km/h | 6062m | -6.3m/s | -16.1°C | 93.5% | 481.2hPa | 2.7V | 08:08:07 | 01:33:58 | 00:00:00 | |
| DF8AY | 2026-09-03 11:05:28 | 52.16052 | 9.29331 | 103° | 93km/h | 6029m | -6.9m/s | -15.8°C | 97.1% | 483.4hPa | 2.7V | 08:08:35 | 01:34:03 | 00:00:00 | |
| BIOWL1-15 | 2026-09-03 11:05:26 | 52.16064 | 9.29256 | 103° | 93km/h | 6042m | -6.6m/s | -16°C | 95.2% | 482.6hPa | 2.7V | 08:08:35 | 01:34:01 | 00:00:00 | |
| HSKMA3-T | 2026-09-03 11:05:25 | 52.16069 | 9.29218 | 103° | 95km/h | 6048m | -6.9m/s | -16°C | 94.5% | 482.1hPa | 2.6V | 08:08:35 | 01:34:00 | 00:00:00 | |
| DB0DAN | 2026-09-03 11:05:25 | 52.16069 | 9.29218 | 103° | 89km/h | 6048m | -6.9m/s | -16°C | 91.9% | 482.08hPa | 2.6V | 00:00:00 | 00:00:00 | 00:00:00 | |
| DO2JMG | 2026-09-03 11:05:23 | 52.16080 | 9.29143 | 103° | 93km/h | 6062m | -6.4m/s | -16.1°C | 93.2% | 481.2hPa | 2.7V | 08:08:35 | 01:33:58 | 00:00:00 | |
| DF8AY-15 | 2026-09-03 11:05:23 | 52.16080 | 9.29143 | 104° | 93km/h | 6062m | -6.3m/s | -16.1°C | 93.5% | 481.2hPa | 2.7V | 00:00:00 | 01:33:58 | 00:00:00 | |
| DL1XH-15 | 2026-09-03 11:05:22 | 52.16096 | 9.29031 | 103° | 93km/h | 6080m | -6.2m/s | -16.2°C | 94.2% | 480hPa | 2.6V | 08:08:10 | 01:33:55 | 00:00:00 | |
| DL1XH-west | 2026-09-03 11:05:22 | 52.16085 | 9.29106 | 104° | 93km/h | 6068m | -6.5m/s | -16.2°C | 93.1% | 480.9hPa | 2.7V | 08:08:35 | 01:33:57 | 00:00:00 | |
| DL1LOL-11 | 2026-09-03 11:05:21 | 52.16085 | 9.29106 | 105° | 93km/h | 6068m | -6.5m/s | -16.2°C | 91.6% | 480.8hPa | 2.6V | 00:00:00 | 00:00:00 | 00:00:00 | |
| DD1CC3-15 | 2026-09-03 11:05:20 | 52.16091 | 9.29068 | 104° | 95km/h | 6074m | -6.4m/s | -16.2°C | 91.8% | 480.4hPa | 2.6V | 08:08:00 | 00:00:00 | 00:00:00 | |
| DL8OAI-8 | 2026-09-03 11:05:19 | 52.16096 | 9.29031 | 104° | 93km/h | 6080m | -6.2m/s | -16.2°C | 91.9% | 480.0hPa | 2.6V | 08:08:00 | 00:00:00 | 00:00:00 | |
| DM0DOS-11 | 2026-09-03 11:05:18 | 52.16135 | 9.28772 | 103° | 93km/h | 6122m | -7.2m/s | -16.6°C | 97.5% | 477.3hPa | 2.6V | 08:08:17 | 01:33:48 | 00:00:00 | |
| DF8AY | 2026-09-03 11:05:17 | 52.16113 | 9.28920 | 103° | 91km/h | 6098m | -6.7m/s | -16.4°C | 93.9% | 478.9hPa | 2.7V | 08:08:35 | 01:33:52 | 00:00:00 | |
| BIOWL1-15 | 2026-09-03 11:05:16 | 52.16118 | 9.28883 | 104° | 93km/h | 6104m | -5.9m/s | -16.4°C | 94.5% | 478.4hPa | 2.7V | 08:08:35 | 01:33:51 | 00:00:00 | |
| DO2JMG | 2026-09-03 11:05:12 | 52.16140 | 9.28734 | 104° | 95km/h | 6129m | -7m/s | -16.7°C | 97.1% | 476.9hPa | 2.7V | 08:08:35 | 01:33:47 | 00:00:00 | |
| DL1XH-west | 2026-09-03 11:05:11 | 52.16146 | 9.28696 | 103° | 95km/h | 6136m | -6.6m/s | -16.7°C | 95.9% | 476.5hPa | 2.7V | 08:08:35 | 01:33:46 | 00:00:00 | |
| DB0DAN | 2026-09-03 11:05:10 | 52.16151 | 9.28658 | 103° | 91km/h | 6143m | -7.5m/s | -16.8°C | 94.2% | 476.05hPa | 2.7V | 00:00:00 | 00:00:00 | 00:00:00 | |
| GOEST3-10 | 2026-09-03 11:05:09 | 52.16156 | 9.28620 | 103° | 93km/h | 6150m | -7.4m/s | -16.8°C | 97.6% | 475.5hPa | 2.7V | 00:00:00 | 01:33:44 | 00:00:00 | |
| DM0DOS-11 | 2026-09-03 11:05:08 | 52.16187 | 9.28396 | 102° | 93km/h | 6192m | -7.2m/s | -17.1°C | 96% | 472.9hPa | 2.7V | 08:08:27 | 01:33:38 | 00:00:00 | |
| BIOWL1-15 | 2026-09-03 11:05:07 | 52.16177 | 9.28470 | 103° | 93km/h | 6178m | -7.2m/s | -17°C | 96.8% | 473.7hPa | 2.7V | 08:08:35 | 01:33:40 | 00:00:00 | |
| HSKMA3-T | 2026-09-03 11:05:06 | 52.16172 | 9.28507 | 102° | 91km/h | 6171m | -7.1m/s | -17°C | 97.6% | 474.2hPa | 2.6V | 08:08:35 | 01:33:41 | 00:00:00 | |
| DD8BA-10 | 2026-09-03 11:05:04 | 52.16182 | 9.28433 | 103° | 95km/h | 6185m | -6.5m/s | -17.0°C | 96.7% | 473.3hPa | 2.7V | 00:00:00 | 00:00:00 | 00:00:00 | |
| DF8AY-15 | 2026-09-03 11:05:03 | 52.16187 | 9.28396 | 103° | 97km/h | 6192m | -7.1m/s | -17.1°C | 96.0% | 472.8hPa | 2.6V | 00:00:00 | 01:33:38 | 00:00:00 | |
| DL1XH-15 | 2026-09-03 11:05:02 | 52.16202 | 9.28282 | 102° | 97km/h | 6212m | -7.3m/s | -17.2°C | 94.8% | 471.5hPa | 2.6V | 08:08:30 | 01:33:35 | 00:00:00 | |
| DO2JMG | 2026-09-03 11:05:02 | 52.16192 | 9.28359 | 102° | 93km/h | 6199m | -7.2m/s | -17.2°C | 94.7% | 472.5hPa | 2.7V | 08:08:35 | 01:33:37 | 00:00:00 | |
| DL1XH-west | 2026-09-03 11:05:01 | 52.16197 | 9.28320 | 102° | 97km/h | 6205m | -7.1m/s | -17.3°C | 94.6% | 472hPa | 2.6V | 08:08:35 | 01:33:36 | 00:00:00 | |
| DF8AY | 2026-09-03 11:04:56 | 52.16221 | 9.28127 | 103° | 95km/h | 6242m | -6.5m/s | -17.3°C | 93.1% | 469.8hPa | 2.7V | 08:08:35 | 01:33:31 | 00:00:00 | |
| HSKMA3-T | 2026-09-03 11:04:55 | 52.16226 | 9.28089 | 102° | 95km/h | 6248m | -6.8m/s | -17.3°C | 93% | 469.4hPa | 2.6V | 08:08:35 | 01:33:30 | 00:00:00 | |
| DB0DAN | 2026-09-03 11:04:55 | 52.16226 | 9.28089 | 101° | 89km/h | 6248m | -6.8m/s | -17.3°C | 91.6% | 469.38hPa | 2.6V | 00:00:00 | 00:00:00 | 00:00:00 | |
| BIOWL1-15 | 2026-09-03 11:04:54 | 52.16231 | 9.28050 | 102° | 97km/h | 6255m | -7m/s | -17.4°C | 93.5% | 469hPa | 2.6V | 08:09:26 | 01:33:29 | 00:00:00 | |
| DO2JMG | 2026-09-03 11:04:52 | 52.16242 | 9.27973 | 102° | 95km/h | 6269m | -7.4m/s | -17.5°C | 94.5% | 468.1hPa | 2.7V | 08:09:26 | 01:33:27 | 00:00:00 | |
| AA1-15 | 2026-09-03 11:04:51 | 52.16247 | 9.27934 | 102° | 99km/h | 6276m | -7m/s | -17.6°C | 95% | 467.6hPa | 2.7V | 08:09:26 | 01:33:26 | 00:00:00 | |
| DL1XH-west | 2026-09-03 11:04:50 | 52.16253 | 9.27895 | 102° | 99km/h | 6283m | -7m/s | -17.7°C | 96% | 467.2hPa | 2.6V | 08:09:26 | 01:33:25 | 00:00:00 | |
| DF8AY | 2026-09-03 11:04:45 | 52.16276 | 9.27698 | 100° | 97km/h | 6317m | -7.5m/s | -18°C | 98.4% | 465.1hPa | 2.7V | 08:09:26 | 01:33:20 | 00:00:00 | |
| BIOWL1-15 | 2026-09-03 11:04:44 | 52.16289 | 9.27579 | 100° | 99km/h | 6340m | -7.2m/s | -18.1°C | 99.6% | 463.8hPa | 2.6V | 08:09:26 | 01:33:17 | 00:00:00 | |
| DM0DOS-11 | 2026-09-03 11:04:43 | 52.16284 | 9.27619 | 100° | 99km/h | 6332m | -7.8m/s | -18.1°C | 99.6% | 464.3hPa | 2.6V | 08:08:47 | 01:33:18 | 00:00:00 | |
| HSKMA3-T | 2026-09-03 11:04:43 | 52.16284 | 9.27619 | 100° | 99km/h | 6332m | -7.8m/s | -18.1°C | 99.5% | 464.3hPa | 2.6V | 08:09:26 | 01:33:18 | 00:00:00 | |
| DF8AY-15 | 2026-09-03 11:04:43 | 52.16284 | 9.27619 | 101° | 99km/h | 6332m | -7.7m/s | -18.0°C | 0% | 464.2hPa | 2.7V | 00:00:00 | 01:33:18 | 00:00:00 | |
| DL1XH-15 | 2026-09-03 11:04:42 | 52.16299 | 9.27499 | 101° | 99km/h | 6354m | -6.8m/s | -18.3°C | 0% | 462.8hPa | 2.7V | 08:08:50 | 01:33:15 | 00:00:00 | |
| DL1XH-west | 2026-09-03 11:04:40 | 52.16299 | 9.27499 | 102° | 99km/h | 6354m | -6.8m/s | -18.3°C | 99.5% | 462.8hPa | 2.7V | 08:09:26 | 01:33:15 | 00:00:00 | |
| DB0DAN | 2026-09-03 11:04:40 | 52.16299 | 9.27499 | 102° | 95km/h | 6354m | -6.8m/s | -18.3°C | 97.5% | 462.81hPa | 2.7V | 00:00:00 | 00:00:00 | 00:00:00 | |
| DM0DOS-11 | 2026-09-03 11:04:38 | 52.16333 | 9.27222 | 100° | 97km/h | 6401m | -7.3m/s | -18.5°C | 96.5% | 459.9hPa | 2.7V | 08:08:57 | 01:33:08 | 00:00:00 | |
| DO2JMG | 2026-09-03 11:04:37 | 52.16313 | 9.27380 | 102° | 99km/h | 6375m | -6.9m/s | -18.3°C | 97.6% | 461.6hPa | 2.6V | 08:09:26 | 01:33:12 | 00:00:00 | |
| DF8AY | 2026-09-03 11:04:34 | 52.16329 | 9.27262 | 101° | 99km/h | 6395m | -6.3m/s | -18.5°C | 94.5% | 459.9hPa | 2.7V | 08:09:26 | 01:33:09 | 00:00:00 | |
| BIOWL1-15 | 2026-09-03 11:04:34 | 52.16338 | 9.27183 | 101° | 99km/h | 6408m | -6.1m/s | -18.5°C | 93.9% | 459.6hPa | 2.6V | 08:09:26 | 01:33:07 | 00:00:00 | |
| HSKMA3-T | 2026-09-03 11:04:33 | 52.16333 | 9.27222 | 101° | 97km/h | 6401m | -7.3m/s | -18.5°C | 93.9% | 459.9hPa | 2.7V | 08:09:26 | 01:33:08 | 00:00:00 | |
| DL1XH-15 | 2026-09-03 11:04:32 | 52.16347 | 9.27104 | 100° | 99km/h | 6420m | -6.4m/s | -18.6°C | 98.2% | 458.7hPa | 2.6V | 08:09:00 | 01:33:05 | 00:00:00 | |
| AA1-15 | 2026-09-03 11:04:30 | 52.16347 | 9.27104 | 101° | 99km/h | 6420m | -6.4m/s | -18.7°C | 94.2% | 458.7hPa | 2.6V | 08:09:26 | 01:33:05 | 00:00:00 | |
| DL1XH-west | 2026-09-03 11:04:29 | 52.16351 | 9.27064 | 100° | 97km/h | 6426m | -6.1m/s | -18.7°C | 94.8% | 458.3hPa | 2.7V | 08:09:26 | 01:33:04 | 00:00:00 | |
| DO2JMG | 2026-09-03 11:04:26 | 52.16365 | 9.26947 | 100° | 97km/h | 6446m | -7.2m/s | -18.9°C | 97.3% | 457.2hPa | 2.6V | 08:09:26 | 01:33:01 | 00:00:00 | |
| DL1XH-15 | 2026-09-03 11:04:26 | 52.16389 | 9.26714 | 99° | 93km/h | 6488m | -7.5m/s | -19.3°C | 99.7% | 454.7hPa | 2.6V | 08:09:10 | 01:32:55 | 00:00:00 | |
| DF8AY | 2026-09-03 11:04:23 | 52.16377 | 9.26830 | 100° | 97km/h | 6466m | -7.1m/s | -19.1°C | 98.1% | 456hPa | 2.7V | 08:09:26 | 01:32:58 | 00:00:00 | |
| HSKMA3-T | 2026-09-03 11:04:22 | 52.16381 | 9.26791 | 100° | 95km/h | 6473m | -7.3m/s | -19.2°C | 97.8% | 455.5hPa | 2.7V | 08:09:26 | 01:32:57 | 00:00:00 | |
| BIOWL1-15 | 2026-09-03 11:04:21 | 52.16385 | 9.26752 | 100° | 95km/h | 6481m | -7.7m/s | -19.3°C | 97.6% | 455hPa | 2.6V | 08:09:26 | 01:32:56 | 00:00:00 | |
| AA1-15 | 2026-09-03 11:04:20 | 52.16389 | 9.26714 | 99° | 93km/h | 6488m | -7.5m/s | -19.3°C | 97.1% | 454.7hPa | 2.6V | 08:09:26 | 01:32:55 | 00:00:00 | |
| DL1XH-west | 2026-09-03 11:04:18 | 52.16397 | 9.26637 | 99° | 95km/h | 6502m | -6.5m/s | -19.3°C | 96.1% | 453.7hPa | 2.7V | 08:09:26 | 01:32:53 | 00:00:00 | |
| DM0DOS-11 | 2026-09-03 11:04:16 | 52.16414 | 9.26446 | 98° | 95km/h | 6537m | -7.8m/s | -19.3°C | 93.2% | 451.6hPa | 2.7V | 08:09:17 | 01:32:48 | 00:00:00 | |
| GOEST3-10 | 2026-09-03 11:04:16 | 52.16404 | 9.26560 | 99° | 93km/h | 6515m | -7.0m/s | -19.4°C | 96.9% | 452.9hPa | 2.6V | 00:00:00 | 00:00:00 | 00:00:00 | |
| DL1XH-15 | 2026-09-03 11:04:15 | 52.16428 | 9.26295 | 97° | 91km/h | 6564m | -6.7m/s | -19.6°C | 94.9% | 449.9hPa | 2.6V | 08:09:21 | 01:32:44 | 00:00:00 | |
| DO2JMG | 2026-09-03 11:04:13 | 52.16414 | 9.26446 | 98° | 95km/h | 6537m | -7.8m/s | -19.3°C | 91.7% | 451.6hPa | 2.7V | 08:09:26 | 01:32:48 | 00:00:00 | |
| DF8AY | 2026-09-03 11:04:12 | 52.16418 | 9.26408 | 98° | 93km/h | 6545m | -7.2m/s | -19.4°C | 92.1% | 451.2hPa | 2.7V | 08:09:26 | 01:32:47 | 00:00:00 | |
| HSKMA3-T | 2026-09-03 11:04:10 | 52.16425 | 9.26332 | 98° | 91km/h | 6558m | -6.8m/s | -19.5°C | 92.3% | 450.3hPa | 2.6V | 08:09:26 | 01:32:45 | 00:00:00 | |
| AA1-15 | 2026-09-03 11:04:09 | 52.16428 | 9.26295 | 98° | 91km/h | 6564m | -6.7m/s | -19.6°C | 92.8% | 449.9hPa | 2.6V | 08:09:26 | 01:32:44 | 00:00:00 | |
| DF8AY | 2026-09-03 11:04:07 | 52.16448 | 9.26029 | 96° | 91km/h | 6614m | -6.9m/s | -19.8°C | 88.4% | 446.9hPa | 2.7V | 08:10:17 | 01:32:37 | 00:00:00 | |
| DL1XH-west | 2026-09-03 11:04:07 | 52.16435 | 9.26219 | 98° | 95km/h | 6579m | -7.3m/s | -19.6°C | 92% | 449.1hPa | 2.7V | 08:09:26 | 01:32:42 | 00:00:00 | |
| DM0DOS-11 | 2026-09-03 11:04:06 | 52.16446 | 9.26067 | 95° | 93km/h | 6607m | -7m/s | -19.9°C | 93.8% | 447.3hPa | 2.6V | 08:09:27 | 01:32:38 | 00:00:00 | |
| GOEST3-10 | 2026-09-03 11:04:06 | 52.16438 | 9.26180 | 98° | 93km/h | 6586m | -7.2m/s | -19.7°C | 95.3% | 448.6hPa | 2.7V | 00:00:00 | 00:00:00 | 00:00:00 | |
| EDDB2-12 | 2026-09-03 11:04:05 | 52.16443 | 9.26105 | 96° | 91km/h | 6600m | -6.8m/s | -19.9°C | 92.2% | 447.7hPa | 2.7V | 00:00:00 | 00:00:00 | 00:00:00 | |
| DL1XH-15 | 2026-09-03 11:04:04 | 52.16453 | 9.25954 | 96° | 91km/h | 6627m | -6.8m/s | -19.9°C | 89% | 446.1hPa | 2.7V | 08:09:30 | 01:32:35 | 00:00:00 | |
| DO2JMG | 2026-09-03 11:04:03 | 52.16446 | 9.26067 | 96° | 93km/h | 6607m | -7m/s | -19.9°C | 90.8% | 447.3hPa | 2.6V | 08:15:23 | 01:32:38 | 00:00:00 | |
| BIOWL1-15 | 2026-09-03 11:04:01 | 52.16456 | 9.25917 | 97° | 89km/h | 6634m | -7.1m/s | -20°C | 87.2% | 445.7hPa | 2.6V | 08:10:17 | 01:32:34 | 00:00:00 | |
| HSKMA3-T | 2026-09-03 11:04:00 | 52.16453 | 9.25954 | 97° | 91km/h | 6627m | -6.8m/s | -19.9°C | 87.2% | 446.1hPa | 2.7V | 08:10:17 | 01:32:35 | 00:00:00 | |
| DL1XH1-15 | 2026-09-03 11:03:59 | 52.16459 | 9.25880 | 96° | 89km/h | 6641m | -7.3m/s | -20°C | 88.7% | 445.3hPa | 2.6V | 08:09:32 | 01:32:33 | 00:00:00 | |
| AA1-15 | 2026-09-03 11:03:58 | 52.16459 | 9.25880 | 97° | 89km/h | 6642m | -7.3m/s | -20°C | 86.6% | 445.3hPa | 2.6V | 08:10:17 | 01:32:33 | 00:00:00 | |
| DL1XH-west | 2026-09-03 11:03:56 | 52.16464 | 9.25807 | 98° | 91km/h | 6656m | -6.5m/s | -20°C | 85.5% | 444.4hPa | 2.7V | 08:10:17 | 01:32:31 | 00:00:00 | |
| DB0DAN | 2026-09-03 11:03:55 | 52.16467 | 9.25769 | 98° | 88km/h | 6662m | -7.2m/s | -20.1°C | 85.5% | 444.04hPa | 2.7V | 00:00:00 | 00:00:00 | 00:00:00 | |
| DL1XH-15 | 2026-09-03 11:03:54 | 52.16484 | 9.25586 | 98° | 89km/h | 6697m | -6.3m/s | -20.4°C | 91.3% | 442hPa | 2.7V | 08:09:40 | 01:32:25 | 00:00:00 | |
| DF8AY | 2026-09-03 11:03:52 | 52.16477 | 9.25659 | 98° | 91km/h | 6684m | -7.4m/s | -20.2°C | 86.5% | 442.8hPa | 2.6V | 08:10:17 | 01:32:27 | 00:00:00 | |
| HSKMA3-T | 2026-09-03 11:03:49 | 52.16488 | 9.25549 | 99° | 91km/h | 6703m | -7.2m/s | -20.5°C | 88.4% | 441.6hPa | 2.6V | 08:10:17 | 01:32:24 | 00:00:00 | |
| BIOWL1-15 | 2026-09-03 11:03:49 | 52.16554 | 9.24930 | 101° | 89km/h | 6829m | -7.5m/s | -21.1°C | 51.4% | 434.2hPa | 2.7V | 08:10:17 | 01:32:07 | 00:00:00 | |
| AA1-15 | 2026-09-03 11:03:48 | 52.16491 | 9.25512 | 98° | 89km/h | 6710m | -6.9m/s | -20.6°C | 88.4% | 441.1hPa | 2.6V | 08:10:17 | 01:32:23 | 00:00:00 | |
| DL3OBA | 2026-09-03 11:03:47 | 52.16491 | 9.25512 | 99° | 89km/h | 6711m | -6.9m/s | -20.6°C | 87.7% | 441.1hPa | 2.6V | 08:10:00 | 00:00:00 | 00:00:00 | |
| DM0DOS-11 | 2026-09-03 11:03:46 | 52.16509 | 9.25329 | 99° | 89km/h | 6746m | -7.3m/s | -20.8°C | 85.2% | 439.1hPa | 2.6V | 08:09:47 | 01:32:18 | 00:00:00 | |
| DL1XH-west | 2026-09-03 11:03:46 | 52.16498 | 9.25439 | 99° | 91km/h | 6724m | -6.9m/s | -20.7°C | 86.5% | 440.4hPa | 2.7V | 08:10:17 | 01:32:21 | 00:00:00 | |
| DK9SH | 2026-09-03 11:03:45 | 52.16498 | 9.25439 | 100° | 91km/h | 6724m | -6.9m/s | -20.7°C | 84.8% | 440.4hPa | 2.7V | 08:10:00 | 00:00:00 | 00:00:00 | |
| DL1XH-15 | 2026-09-03 11:03:44 | 52.16521 | 9.25222 | 100° | 89km/h | 6768m | -7.7m/s | -20.6°C | 60% | 437.8hPa | 2.7V | 08:09:50 | 01:32:15 | 00:00:00 | |
| DF8AY | 2026-09-03 11:03:41 | 52.16517 | 9.25257 | 100° | 88km/h | 6761m | -7.1m/s | -20.8°C | 75.8% | 438.2hPa | 2.7V | 08:10:17 | 01:32:16 | 00:00:00 | |
| GOEST3-10 | 2026-09-03 11:03:40 | 52.16521 | 9.25222 | 101° | 91km/h | 6768m | -7.7m/s | -20.6°C | 60.0% | 437.7hPa | 2.7V | 08:09:00 | 01:32:15 | 00:00:00 | |
| DL1XH1-15 | 2026-09-03 11:03:39 | 52.16529 | 9.25149 | 99° | 89km/h | 6783m | -7.6m/s | -20.7°C | 59.5% | 436.9hPa | 2.6V | 08:09:52 | 01:32:13 | 00:00:00 | |
| HSKMA3-T | 2026-09-03 11:03:39 | 52.16525 | 9.25185 | 101° | 91km/h | 6776m | -7.6m/s | -20.7°C | 62.1% | 437.3hPa | 2.7V | 08:10:17 | 01:32:14 | 00:00:00 | |
| AA1-15 | 2026-09-03 11:03:37 | 52.16533 | 9.25112 | 101° | 91km/h | 6791m | -7.6m/s | -20.8°C | 61.7% | 436.5hPa | 2.6V | 08:10:17 | 01:32:12 | 00:00:00 | |
| DM0DOS-11 | 2026-09-03 11:03:36 | 52.16550 | 9.24966 | 100° | 89km/h | 6821m | -8.1m/s | -21.1°C | 53.6% | 434.7hPa | 2.6V | 08:09:57 | 01:32:08 | 00:00:00 | |
| DL1XH-west | 2026-09-03 11:03:36 | 52.16538 | 9.25075 | 102° | 91km/h | 6799m | -7.5m/s | -20.9°C | 59.1% | 436hPa | 2.7V | 08:10:17 | 01:32:11 | 00:00:00 | |
| DL8OAI-8 | 2026-09-03 11:03:35 | 52.16537 | 9.25075 | 103° | 91km/h | 6799m | -7.5m/s | -20.9°C | 54.1% | 436.0hPa | 2.7V | 08:10:00 | 00:00:00 | 00:00:00 | |
| DL1XH-15 | 2026-09-03 11:03:34 | 52.16563 | 9.24858 | 101° | 89km/h | 6844m | -7.5m/s | -21.3°C | 47% | 433.5hPa | 2.7V | 08:10:00 | 01:32:05 | 00:00:00 | |
| DF8AY | 2026-09-03 11:03:31 | 52.16559 | 9.24894 | 101° | 89km/h | 6836m | -7.6m/s | -21.2°C | 50.6% | 433.9hPa | 2.7V | 08:10:17 | 01:32:06 | 00:00:00 | |
| DO9LL-15 | 2026-09-03 11:03:31 | 52.16558 | 9.24893 | 102° | 91km/h | 6836m | -7.5m/s | -21.1°C | 47.1% | 433.8hPa | 2.7V | 00:00:00 | 01:32:06 | 00:00:00 | |
| DL1XH1-15 | 2026-09-03 11:03:29 | 52.16572 | 9.24786 | 101° | 89km/h | 6858m | -7.7m/s | -21.4°C | 45.7% | 432.5hPa | 2.6V | 08:10:02 | 01:32:03 | 00:00:00 | |
| HSKMA3-T | 2026-09-03 11:03:29 | 52.16567 | 9.24822 | 101° | 89km/h | 6851m | -7.1m/s | -21.3°C | 51.8% | 433hPa | 2.6V | 08:10:17 | 01:32:04 | 00:00:00 | |
| GOEST3-10 | 2026-09-03 11:03:29 | 52.16567 | 9.24822 | 101° | 89km/h | 6851m | -7.1m/s | -21.3°C | 48.5% | 432.9hPa | 2.6V | 00:00:00 | 01:32:04 | 00:00:00 | |
| DM0DOS-11 | 2026-09-03 11:03:26 | 52.16595 | 9.24604 | 102° | 91km/h | 6895m | -7.2m/s | -21.7°C | 36.7% | 430.4hPa | 2.6V | 08:10:07 | 01:31:58 | 00:00:00 | |
| AA1-15 | 2026-09-03 11:03:26 | 52.16581 | 9.24713 | 102° | 89km/h | 6874m | -6.8m/s | -21.5°C | 39% | 431.7hPa | 2.7V | 08:10:17 | 01:32:01 | 00:00:00 | |
| DL1XH-west | 2026-09-03 11:03:25 | 52.16586 | 9.24677 | 102° | 89km/h | 6881m | -7.2m/s | -21.5°C | 38.3% | 431.3hPa | 2.7V | 08:10:17 | 01:32:00 | 00:00:00 | |
| DB0DAN | 2026-09-03 11:03:25 | 52.16586 | 9.24677 | 102° | 86km/h | 6881m | -7.2m/s | -21.5°C | 32.8% | 431.32hPa | 2.7V | 00:00:00 | 00:00:00 | 00:00:00 | |
| DF8AY | 2026-09-03 11:03:21 | 52.16605 | 9.24530 | 103° | 91km/h | 6910m | -7.4m/s | -21.9°C | 44.9% | 429.6hPa | 2.6V | 08:10:17 | 01:31:56 | 00:00:00 | |
| HSKMA3-T | 2026-09-03 11:03:19 | 52.16615 | 9.24457 | 103° | 91km/h | 6924m | -7.1m/s | -22°C | 43% | 428.6hPa | 2.7V | 08:10:17 | 01:31:54 | 00:00:00 | |
| DL1XH1-15 | 2026-09-03 11:03:19 | 52.16621 | 9.24420 | 102° | 91km/h | 6931m | -7m/s | -22.1°C | 34.9% | 428.3hPa | 2.7V | 08:10:12 | 01:31:53 | 00:00:00 | |
| AA1-15 | 2026-09-03 11:03:16 | 52.16631 | 9.24347 | 102° | 91km/h | 6945m | -7.5m/s | -22.2°C | 38% | 427.3hPa | 2.6V | 08:10:17 | 01:31:51 | 00:00:00 | |
| DL1XH-west | 2026-09-03 11:03:15 | 52.16635 | 9.24311 | 101° | 91km/h | 6953m | -8.4m/s | -22.3°C | 38% | 426.9hPa | 2.7V | 08:10:17 | 01:31:50 | 00:00:00 | |
| DF8AY | 2026-09-03 11:03:11 | 52.16654 | 9.24162 | 103° | 93km/h | 6984m | -7.5m/s | -22.5°C | 34.4% | 425.1hPa | 2.7V | 08:11:08 | 01:31:46 | 00:00:00 | |
| DB0DAN | 2026-09-03 11:03:10 | 52.16659 | 9.24125 | 102° | 86km/h | 6992m | -7.7m/s | -22.6°C | 29.3% | 424.71hPa | 2.7V | 00:00:00 | 00:00:00 | 00:00:00 | |
| DL1XH1-15 | 2026-09-03 11:03:08 | 52.16668 | 9.24051 | 102° | 89km/h | 7006m | -7.8m/s | -22.8°C | 30.9% | 423.7hPa | 2.6V | 08:10:22 | 01:31:43 | 00:00:00 | |
| HSKMA3-T | 2026-09-03 11:03:08 | 52.16668 | 9.24051 | 102° | 89km/h | 7006m | -7.8m/s | -22.8°C | 34.6% | 423.7hPa | 2.6V | 08:11:08 | 01:31:43 | 00:00:00 | |
| BIOWL1-15 | 2026-09-03 11:03:06 | 52.16693 | 9.23870 | 102° | 91km/h | 7044m | -7.8m/s | -23.1°C | 35.6% | 421.5hPa | 2.7V | 08:11:08 | 01:31:38 | 00:00:00 | |
| AA1-15 | 2026-09-03 11:03:05 | 52.16683 | 9.23943 | 102° | 91km/h | 7029m | -7.7m/s | -23°C | 35.6% | 422.4hPa | 2.7V | 08:11:08 | 01:31:40 | 00:00:00 | |
| DL1XH-west | 2026-09-03 11:03:04 | 52.16688 | 9.23906 | 102° | 89km/h | 7037m | -7.9m/s | -23°C | 35.6% | 421.9hPa | 2.7V | 08:11:08 | 01:31:39 | 00:00:00 | |
| GOEST3-10 | 2026-09-03 11:03:04 | 52.16688 | 9.23906 | 103° | 91km/h | 7037m | -7.8m/s | -23.0°C | 31.8% | 421.9hPa | 2.6V | 00:00:00 | 00:00:00 | 00:00:00 | |
| DL1XH-15 | 2026-09-03 11:03:03 | 52.16708 | 9.23760 | 102° | 91km/h | 7067m | -8.2m/s | -23.3°C | 32.7% | 420.3hPa | 2.6V | 08:10:30 | 01:31:35 | 00:00:00 | |
| DL1XH1-15 | 2026-09-03 11:03:03 | 52.16723 | 9.23650 | 103° | 91km/h | 7090m | -7.6m/s | -23.6°C | 33.6% | 419hPa | 2.7V | 08:10:33 | 01:31:32 | 00:00:00 | |
| DF8AY | 2026-09-03 11:03:00 | 52.16708 | 9.23760 | 103° | 91km/h | 7067m | -8.2m/s | -23.3°C | 36.7% | 420.3hPa | 2.6V | 08:11:08 | 01:31:35 | 00:00:00 | |
| HSKMA3-T | 2026-09-03 11:02:57 | 52.16723 | 9.23650 | 104° | 91km/h | 7090m | -7.6m/s | -23.6°C | 37.3% | 419hPa | 2.7V | 08:11:08 | 01:31:32 | 00:00:00 | |
| DM0DOS-11 | 2026-09-03 11:02:56 | 52.16746 | 9.23503 | 104° | 95km/h | 7119m | -7.5m/s | -23.8°C | 32.7% | 417.3hPa | 2.7V | 08:10:37 | 01:31:28 | 00:00:00 | |
| DB0DAN | 2026-09-03 11:02:55 | 52.16734 | 9.23577 | 104° | 88km/h | 7104m | -7.5m/s | -23.7°C | 31.8% | 418.14hPa | 2.6V | 00:00:00 | 00:00:00 | 00:00:00 | |
| DL1XH-west | 2026-09-03 11:02:54 | 52.16740 | 9.23540 | 104° | 93km/h | 7111m | -7.5m/s | -23.8°C | 36.6% | 417.7hPa | 2.6V | 08:11:08 | 01:31:29 | 00:00:00 | |
| DJ2DS-15 | 2026-09-03 11:02:54 | 52.16740 | 9.23540 | 105° | 97km/h | 7112m | -7.5m/s | -23.7°C | 33.0% | 417.6hPa | 2.6V | 08:10:00 | 01:31:29 | 00:00:00 | |
| DL1XH-15 | 2026-09-03 11:02:53 | 52.16764 | 9.23389 | 104° | 97km/h | 7141m | -7.5m/s | -24°C | 29.4% | 416hPa | 2.6V | 08:10:40 | 01:31:25 | 00:00:00 | |
| DL3AQ-11 | 2026-09-03 11:02:53 | 52.16784 | 9.23274 | 106° | 95km/h | 7163m | -7.8m/s | -24.2°C | 25.8% | 414.7hPa | 2.7V | 00:00:00 | 00:00:00 | 00:00:00 | |
| DL1XH1-15 | 2026-09-03 11:02:52 | 52.16784 | 9.23274 | 106° | 97km/h | 7163m | -7.8m/s | -24.2°C | 27.2% | 414.7hPa | 2.7V | 08:10:43 | 01:31:22 | 00:00:00 | |
| DF8AY | 2026-09-03 11:02:50 | 52.16764 | 9.23389 | 105° | 97km/h | 7141m | -7.6m/s | -24°C | 33.2% | 416hPa | 2.6V | 08:11:08 | 01:31:25 | 00:00:00 | |
| HSKMA3-T | 2026-09-03 11:02:47 | 52.16784 | 9.23274 | 106° | 97km/h | 7164m | -7.8m/s | -24.2°C | 31.1% | 414.7hPa | 2.7V | 08:11:08 | 01:31:22 | 00:00:00 | |
| EDDB2-11 | 2026-09-03 11:02:46 | 52.16791 | 9.23236 | 107° | 95km/h | 7171m | -7.4m/s | -24.3°C | 24.9% | 414.4hPa | 2.7V | 00:00:00 | 00:00:00 | 00:00:00 | |
| DM0DOS-11 | 2026-09-03 11:02:46 | 52.16813 | 9.23123 | 107° | 97km/h | 7194m | -7.2m/s | -24.5°C | 25.6% | 413hPa | 2.7V | 08:10:47 | 01:31:18 | 00:00:00 | |
| DD1CC8 | 2026-09-03 11:02:45 | 52.16798 | 9.23199 | 106° | 95km/h | 7179m | -8.1m/s | -24.3°C | 24.5% | 413.9hPa | 2.7V | 00:00:00 | 00:00:00 | 00:00:00 | |
| DL1XH-west | 2026-09-03 11:02:43 | 52.16813 | 9.23123 | 108° | 97km/h | 7194m | -7.2m/s | -24.5°C | 29.4% | 413hPa | 2.7V | 08:11:08 | 01:31:18 | 00:00:00 | |
| DL1XH-15 | 2026-09-03 11:02:43 | 52.16835 | 9.23009 | 108° | 99km/h | 7215m | -7.6m/s | -24.5°C | 14.5% | 411.8hPa | 2.7V | 08:10:50 | 01:31:15 | 00:00:00 | |
| DF8AY | 2026-09-03 11:02:40 | 52.16876 | 9.22816 | 109° | 100km/h | 7253m | -7.8m/s | -24.9°C | 16.6% | 409.5hPa | 2.6V | 08:11:08 | 01:31:10 | 00:00:00 | |
| DB0DAN | 2026-09-03 11:02:40 | 52.16836 | 9.23009 | 109° | 95km/h | 7216m | -7.6m/s | -24.5°C | 13.5% | 411.84hPa | 2.7V | 00:00:00 | 00:00:00 | 00:00:00 | |
| GOEST3-10 | 2026-09-03 11:02:39 | 52.16843 | 9.22971 | 109° | 99km/h | 7223m | -8.1m/s | -24.5°C | 15.1% | 411.2hPa | 2.7V | 00:00:00 | 01:31:14 | 00:00:00 | |
| DL1XH1-15 | 2026-09-03 11:02:37 | 52.16860 | 9.22893 | 108° | 100km/h | 7238m | -7.8m/s | -24.7°C | 15.4% | 410.4hPa | 2.6V | 08:10:53 | 01:31:12 | 00:00:00 | |
| HSKMA3-T | 2026-09-03 11:02:36 | 52.16868 | 9.22855 | 109° | 99km/h | 7246m | -7.3m/s | -24.8°C | 18.2% | 410hPa | 2.6V | 08:11:08 | 01:31:11 | 00:00:00 | |
| DJ2DS-15 | 2026-09-03 11:02:34 | 52.16884 | 9.22778 | 110° | 104km/h | 7261m | -8.4m/s | -24.9°C | 14.5% | 409.2hPa | 2.7V | 00:00:00 | 01:31:09 | 00:00:00 | |
| BIOWL1-15 | 2026-09-03 11:02:33 | 52.17056 | 9.22064 | 113° | 110km/h | 7394m | -7.4m/s | -25.8°C | 4.8% | 401.7hPa | 2.7V | 08:11:59 | 01:30:51 | 00:00:00 | |
| DL1XH1-15 | 2026-09-03 11:02:32 | 52.17015 | 9.22229 | 111° | 108km/h | 7365m | -7.6m/s | -25.7°C | 5.8% | 403.4hPa | 2.7V | 08:11:10 | 01:30:55 | 00:00:00 | |
| DF8AY | 2026-09-03 11:02:30 | 52.17035 | 9.22147 | 113° | 110km/h | 7379m | -7.1m/s | -25.8°C | 5.1% | 402.5hPa | 2.6V | 08:11:59 | 01:30:53 | 00:00:00 | |
| HSKMA3-T | 2026-09-03 11:02:29 | 52.16965 | 9.22429 | 112° | 104km/h | 7326m | -8m/s | -25.4°C | 6.9% | 405.5hPa | 2.6V | 08:11:08 | 01:31:00 | 00:00:00 | |
| DB0DAN | 2026-09-03 11:02:25 | 52.16965 | 9.22429 | 112° | 99km/h | 7326m | -8m/s | -25.4°C | 6.1% | 405.46hPa | 2.6V | 00:00:00 | 00:00:00 | 00:00:00 | |
| HTAHTA | 2026-09-03 11:02:22 | 52.17046 | 9.22106 | 111° | 108km/h | 7386m | -7.8m/s | -25.8°C | 4.7% | 402.2hPa | 2.6V | 00:00:00 | 00:00:00 | 00:00:00 | |
| DF8AY | 2026-09-03 11:02:22 | 52.17046 | 9.22106 | 112° | 110km/h | 7386m | -7.8m/s | -25.8°C | 4.9% | 402.2hPa | 2.6V | 08:11:59 | 01:30:52 | 00:00:00 | |
| DM0DOS-11 | 2026-09-03 11:02:18 | 52.17088 | 9.21940 | 113° | 110km/h | 7415m | -7m/s | -25.9°C | 5.6% | 400.6hPa | 2.6V | 08:11:17 | 01:30:48 | 00:00:00 | |
| DL1XH-west | 2026-09-03 11:02:15 | 52.17067 | 9.22023 | 112° | 110km/h | 7401m | -7.6m/s | -25.9°C | 4.9% | 401.4hPa | 2.7V | 08:11:59 | 01:30:50 | 00:00:00 | |
| AA1-15 | 2026-09-03 11:02:14 | 52.17077 | 9.21981 | 113° | 110km/h | 7408m | -7.3m/s | -25.9°C | 4.9% | 400.9hPa | 2.7V | 08:11:59 | 01:30:49 | 00:00:00 | |
| DF8AY | 2026-09-03 11:02:07 | 52.17153 | 9.21692 | 113° | 111km/h | 7461m | -7.2m/s | -25.6°C | 11% | 398.1hPa | 2.6V | 08:11:59 | 01:30:42 | 00:00:00 | |
| BIOWL1-15 | 2026-09-03 11:02:05 | 52.17174 | 9.21608 | 113° | 111km/h | 7476m | -7.3m/s | -25.7°C | 11.5% | 397.4hPa | 2.6V | 08:11:59 | 01:30:40 | 00:00:00 | |
| DM0DOS-11 | 2026-09-03 11:02:05 | 52.17195 | 9.21525 | 112° | 108km/h | 7490m | -7.9m/s | -25.9°C | 10.3% | 396.5hPa | 2.7V | 08:11:27 | 01:30:38 | 00:00:00 | |
| DL1XH-west | 2026-09-03 11:02:04 | 52.17185 | 9.21567 | 112° | 110km/h | 7483m | -7.5m/s | -25.8°C | 11.6% | 396.9hPa | 2.7V | 08:11:59 | 01:30:39 | 00:00:00 | |
| AA1-15 | 2026-09-03 11:02:03 | 52.17195 | 9.21525 | 113° | 108km/h | 7490m | -7.9m/s | -25.9°C | 11.8% | 396.5hPa | 2.7V | 08:11:59 | 01:30:38 | 00:00:00 | |
| DF8AY | 2026-09-03 11:01:56 | 52.17272 | 9.21234 | 113° | 110km/h | 7544m | -7.9m/s | -26.3°C | 12.6% | 393.7hPa | 2.7V | 08:11:59 | 01:30:31 | 00:00:00 | |
| DJ2DS-15 | 2026-09-03 11:01:56 | 52.17282 | 9.21193 | 112° | 108km/h | 7551m | -7.6m/s | -26.3°C | 10.0% | 393.3hPa | 2.7V | 00:00:00 | 00:00:00 | 00:00:00 | |
| DL1XH1-15 | 2026-09-03 11:01:55 | 52.17314 | 9.21069 | 112° | 110km/h | 7574m | -7.9m/s | -26.5°C | 11.2% | 392hPa | 2.7V | 08:11:38 | 01:30:27 | 00:00:00 | |
| HSKMA3-T | 2026-09-03 11:01:55 | 52.17282 | 9.21193 | 113° | 110km/h | 7551m | -7.6m/s | -26.3°C | 12.6% | 393.3hPa | 2.6V | 08:11:59 | 01:30:30 | 00:00:00 | |
| DB0DAN | 2026-09-03 11:01:55 | 52.17282 | 9.21193 | 113° | 104km/h | 7551m | -7.6m/s | -26.3°C | 10% | 393.26hPa | 2.6V | 00:00:00 | 00:00:00 | 00:00:00 | |
| DM0DOS-11 | 2026-09-03 11:01:54 | 52.17304 | 9.21110 | 112° | 110km/h | 7566m | -8m/s | -26.5°C | 11.1% | 392.3hPa | 2.6V | 08:11:37 | 01:30:28 | 00:00:00 | |
| DL1XH-west | 2026-09-03 11:01:54 | 52.17293 | 9.21151 | 112° | 110km/h | 7559m | -7.2m/s | -26.4°C | 12.7% | 392.8hPa | 2.6V | 08:11:59 | 01:30:29 | 00:00:00 | |
| AA1-15 | 2026-09-03 11:01:53 | 52.17304 | 9.21110 | 113° | 110km/h | 7566m | -8m/s | -26.5°C | 12.7% | 392.4hPa | 2.6V | 08:11:59 | 01:30:28 | 00:00:00 | |
| DF8AY | 2026-09-03 11:01:46 | 52.17379 | 9.20821 | 113° | 110km/h | 7621m | -7.6m/s | -26.9°C | 13.2% | 389.5hPa | 2.7V | 08:11:59 | 01:30:21 | 00:00:00 | |
| DL1XH-15 | 2026-09-03 11:01:45 | 52.17445 | 9.20570 | 113° | 113km/h | 7667m | -7.3m/s | -27.3°C | 11.9% | 387.1hPa | 2.7V | 08:11:50 | 01:30:15 | 00:00:00 | |
| DL1XH1-15 | 2026-09-03 11:01:45 | 52.17422 | 9.20654 | 112° | 111km/h | 7651m | -7.1m/s | -27.1°C | 11.8% | 387.9hPa | 2.6V | 08:11:48 | 01:30:17 | 00:00:00 | |
| DM0DOS-11 | 2026-09-03 11:01:44 | 52.17411 | 9.20696 | 113° | 110km/h | 7644m | -7.8m/s | -27.1°C | 11.8% | 388.2hPa | 2.6V | 08:11:47 | 01:30:18 | 00:00:00 | |
| BIOWL1-15 | 2026-09-03 11:01:44 | 52.17400 | 9.20738 | 113° | 110km/h | 7636m | -7.7m/s | -27°C | 13.4% | 388.6hPa | 2.7V | 08:11:59 | 01:30:19 | 00:00:00 | |
| AA1-15 | 2026-09-03 11:01:42 | 52.17422 | 9.20654 | 113° | 111km/h | 7651m | -7.1m/s | -27.1°C | 13.6% | 387.9hPa | 2.6V | 08:11:59 | 01:30:17 | 00:00:00 | |
| DK9SH | 2026-09-03 11:01:41 | 52.17422 | 9.20654 | 114° | 111km/h | 7651m | -7.1m/s | -27.1°C | 10.8% | 387.9hPa | 2.7V | 08:11:00 | 00:00:00 | 00:00:00 | |
| DB0DAN | 2026-09-03 11:01:40 | 52.17445 | 9.20570 | 113° | 108km/h | 7667m | -7.3m/s | -27.3°C | 10.8% | 387.06hPa | 2.7V | 00:00:00 | 00:00:00 | 00:00:00 | |
| DF8AY | 2026-09-03 11:01:35 | 52.17505 | 9.20356 | 115° | 115km/h | 7705m | -7.6m/s | -27.5°C | 14.5% | 384.9hPa | 2.6V | 08:11:59 | 01:30:10 | 00:00:00 | |
| DL1XH1-15 | 2026-09-03 11:01:35 | 52.17543 | 9.20226 | 115° | 117km/h | 7728m | -8m/s | -27.6°C | 13.1% | 383.7hPa | 2.7V | 08:11:58 | 01:30:07 | 00:00:00 | |
| DL1XH-west | 2026-09-03 11:01:34 | 52.17517 | 9.20313 | 116° | 117km/h | 7713m | -8.2m/s | -27.5°C | 14.7% | 384.6hPa | 2.7V | 08:11:59 | 01:30:09 | 00:00:00 | |
| DM0DOS-11 | 2026-09-03 11:01:33 | 52.17530 | 9.20269 | 115° | 119km/h | 7720m | -7.4m/s | -27.6°C | 12.9% | 384.1hPa | 2.7V | 08:11:57 | 01:30:08 | 00:00:00 | |
| BIOWL1-15 | 2026-09-03 11:01:33 | 52.17530 | 9.20269 | 116° | 119km/h | 7720m | -7.4m/s | -27.6°C | 14.9% | 384.1hPa | 2.7V | 08:11:59 | 01:30:08 | 00:00:00 | |
| AA1-15 | 2026-09-03 11:01:32 | 52.17543 | 9.20226 | 116° | 117km/h | 7728m | -8m/s | -27.6°C | 15.2% | 383.7hPa | 2.7V | 08:11:59 | 01:30:07 | 00:00:00 | |
| DL4XJ-10 | 2026-09-03 11:01:32 | 52.17543 | 9.20226 | 116° | 124km/h | 7728m | -8.0m/s | -26.1°C | 0% | 0hPa | 2.7V | 00:00:00 | 00:00:00 | 00:00:00 | |
| DO9LL-15 | 2026-09-03 11:01:31 | 52.17556 | 9.20182 | 116° | 128km/h | 7736m | -7.3m/s | -27.6°C | 13.2% | 383.3hPa | 2.7V | 00:00:00 | 01:30:06 | 00:00:00 | |
| BIOWL9-15 | 2026-09-03 11:01:30 | 52.17582 | 9.20094 | 115° | 119km/h | 7751m | -7.9m/s | -27.7°C | 12.4% | 382.5hPa | 2.7V | 00:00:00 | 00:00:00 | 00:00:00 | |
| SMARD9-15 | 2026-09-03 11:01:29 | 52.17595 | 9.20049 | 115° | 119km/h | 7758m | -7.6m/s | -27.8°C | 12.5% | 382.0hPa | 2.7V | 00:00:00 | 00:00:00 | 00:00:00 | |
| GOEST3-10 | 2026-09-03 11:01:28 | 52.17595 | 9.20049 | 116° | 122km/h | 7759m | -7.5m/s | -27.7°C | 13.7% | 381.9hPa | 2.7V | 00:00:00 | 01:30:03 | 00:00:00 | |
| DL1XH-15 | 2026-09-03 11:01:25 | 52.17705 | 9.19686 | 117° | 128km/h | 7820m | -6.8m/s | -28.1°C | 14.8% | 378.9hPa | 2.6V | 08:12:10 | 01:29:55 | 00:00:00 | |
| DL1XH1-15 | 2026-09-03 11:01:25 | 52.17677 | 9.19778 | 116° | 126km/h | 7806m | -7.5m/s | -28°C | 14.5% | 379.6hPa | 2.7V | 08:12:08 | 01:29:57 | 00:00:00 | |
| DF8AY | 2026-09-03 11:01:25 | 52.17635 | 9.19915 | 116° | 122km/h | 7782m | -7.9m/s | -27.9°C | 16.4% | 380.9hPa | 2.6V | 08:12:50 | 01:30:00 | 00:00:00 | |
| DB0DAN | 2026-09-03 11:01:25 | 52.17635 | 9.19915 | 116° | 117km/h | 7782m | -7.9m/s | -27.9°C | 12.8% | 380.89hPa | 2.6V | 00:00:00 | 00:00:00 | 00:00:00 | |
| DM0DOS-11 | 2026-09-03 11:01:23 | 52.17662 | 9.19824 | 116° | 122km/h | 7798m | -8.1m/s | -27.9°C | 14.4% | 380hPa | 2.6V | 08:12:07 | 01:29:58 | 00:00:00 | |
| BIOWL1-15 | 2026-09-03 11:01:23 | 52.17663 | 9.19824 | 117° | 122km/h | 7798m | -8.1m/s | -27.9°C | 16.8% | 380hPa | 2.6V | 08:12:50 | 01:29:58 | 00:00:00 | |
| AA1-15 | 2026-09-03 11:01:22 | 52.17677 | 9.19778 | 117° | 126km/h | 7806m | -7.5m/s | -28°C | 16.9% | 379.6hPa | 2.7V | 08:12:50 | 01:29:57 | 00:00:00 | |
| DO2JMG | 2026-09-03 11:01:21 | 52.17691 | 9.19732 | 117° | 126km/h | 7813m | -6.8m/s | -28°C | 17% | 379.2hPa | 2.7V | 08:15:23 | 01:29:56 | 00:00:00 | |
| D01LWL | 2026-09-03 11:01:20 | 52.17705 | 9.19686 | 117° | 126km/h | 7820m | -6.8m/s | -28.1°C | 13.6% | 378.9hPa | 2.7V | 00:00:00 | 00:00:00 | 00:00:00 | |
| DJ2DS-15 | 2026-09-03 11:01:19 | 52.17720 | 9.19639 | 116° | 128km/h | 7827m | -7.5m/s | -28.1°C | 13.6% | 378.5hPa | 2.7V | 00:00:00 | 00:00:00 | 00:00:00 | |
| DM0DOS-11 | 2026-09-03 11:01:18 | 52.17809 | 9.19355 | 117° | 130km/h | 7871m | -7.6m/s | -28.3°C | 14.7% | 376hPa | 2.7V | 08:12:17 | 01:29:48 | 00:00:00 | |
| DF8AY | 2026-09-03 11:01:14 | 52.17794 | 9.19402 | 118° | 131km/h | 7863m | -8m/s | -28.2°C | 17.2% | 376.5hPa | 2.7V | 08:12:50 | 01:29:49 | 00:00:00 | |
| DL1XH-west | 2026-09-03 11:01:13 | 52.17809 | 9.19355 | 117° | 130km/h | 7871m | -7.6m/s | -28.3°C | 17.2% | 376hPa | 2.7V | 08:12:50 | 01:29:48 | 00:00:00 | |
| AA1-15 | 2026-09-03 11:01:11 | 52.17840 | 9.19259 | 117° | 133km/h | 7887m | -7.9m/s | -28.4°C | 16.9% | 375.3hPa | 2.6V | 08:12:50 | 01:29:46 | 00:00:00 | |
| DO2JMG | 2026-09-03 11:01:10 | 52.17855 | 9.19210 | 117° | 131km/h | 7894m | -7.8m/s | -28.5°C | 16.8% | 374.9hPa | 2.6V | 08:15:23 | 01:29:45 | 00:00:00 | |
| GOEST3-10 | 2026-09-03 11:01:08 | 52.17885 | 9.19113 | 117° | 133km/h | 7910m | -8.0m/s | -28.5°C | 14.2% | 374.1hPa | 2.7V | 00:00:00 | 01:29:43 | 00:00:00 | |
| DM0DOS-11 | 2026-09-03 11:01:07 | 52.17962 | 9.18870 | 118° | 135km/h | 7949m | -7.6m/s | -28.9°C | 14.2% | 372.1hPa | 2.7V | 08:12:27 | 01:29:38 | 00:00:00 | |
| DL3AQ-11 | 2026-09-03 11:01:06 | 52.17930 | 9.18968 | 116° | 130km/h | 7933m | -8.4m/s | -28.7°C | 12.8% | 372.8hPa | 2.7V | 00:00:00 | 00:00:00 | 00:00:00 | |
| DL1XH1-15 | 2026-09-03 11:01:05 | 52.17978 | 9.18821 | 117° | 135km/h | 7956m | -7.8m/s | -28.9°C | 14.1% | 371.7hPa | 2.7V | 08:12:28 | 01:29:37 | 00:00:00 | |
| DF8AY | 2026-09-03 11:01:03 | 52.17962 | 9.18870 | 118° | 135km/h | 7949m | -7.6m/s | -28.9°C | 16.4% | 372.1hPa | 2.7V | 08:12:50 | 01:29:38 | 00:00:00 | |
| DL1XH-west | 2026-09-03 11:01:02 | 52.17978 | 9.18821 | 118° | 137km/h | 7956m | -7.8m/s | -28.9°C | 16.4% | 371.7hPa | 2.7V | 08:12:50 | 01:29:37 | 00:00:00 | |
| AA1-15 | 2026-09-03 11:01:00 | 52.18011 | 9.18721 | 118° | 139km/h | 7972m | -7.8m/s | -29.1°C | 16.5% | 370.8hPa | 2.6V | 08:12:50 | 01:29:35 | 00:00:00 | |
| BIOWL1-15 | 2026-09-03 11:00:57 | 52.18077 | 9.18516 | 117° | 141km/h | 8003m | -7.8m/s | -29.4°C | 17.1% | 369.3hPa | 2.7V | 08:12:50 | 01:29:31 | 00:00:00 | |
| DM0DOS-11 | 2026-09-03 11:00:57 | 52.18126 | 9.18360 | 116° | 142km/h | 8025m | -7.5m/s | -29.5°C | 15.8% | 368.1hPa | 2.6V | 08:12:37 | 01:29:28 | 00:00:00 | |
| DB0DAN | 2026-09-03 11:00:55 | 52.18093 | 9.18464 | 117° | 135km/h | 8010m | -7.7m/s | -29.4°C | 13.7% | 368.78hPa | 2.7V | 00:00:00 | 00:00:00 | 00:00:00 | |
| DL1XH1-15 | 2026-09-03 11:00:55 | 52.18142 | 9.18308 | 117° | 144km/h | 8033m | -7.6m/s | -29.5°C | 16.5% | 367.6hPa | 2.6V | 08:12:38 | 01:29:27 | 00:00:00 | |
| DO2JMG | 2026-09-03 11:00:54 | 52.18109 | 9.18412 | 117° | 141km/h | 8018m | -7.7m/s | -29.5°C | 17.7% | 368.5hPa | 2.6V | 08:15:23 | 01:29:29 | 00:00:00 | |
| DF8AY | 2026-09-03 11:00:53 | 52.18125 | 9.18360 | 117° | 142km/h | 8026m | -7.5m/s | -29.5°C | 18.2% | 368.1hPa | 2.6V | 08:12:50 | 01:29:28 | 00:00:00 | |
| DL1XH-west | 2026-09-03 11:00:52 | 52.18142 | 9.18308 | 117° | 144km/h | 8033m | -7.7m/s | -29.5°C | 19% | 367.6hPa | 2.6V | 08:12:50 | 01:29:27 | 00:00:00 | |
| HSKMA3-T | 2026-09-03 11:00:51 | 52.18159 | 9.18255 | 117° | 142km/h | 8041m | -8.1m/s | -29.5°C | 20.1% | 367.2hPa | 2.7V | 08:12:50 | 01:29:26 | 00:00:00 | |
| AA1-15 | 2026-09-03 11:00:49 | 52.18191 | 9.18150 | 116° | 144km/h | 8056m | -8m/s | -29.5°C | 22.8% | 366.4hPa | 2.6V | 08:12:50 | 01:29:24 | 00:00:00 | |
| GOEST3-10 | 2026-09-03 11:00:48 | 52.18208 | 9.18097 | 117° | 146km/h | 8064m | -7.8m/s | -29.4°C | 20.7% | 366.1hPa | 2.6V | 00:00:00 | 01:29:23 | 00:00:00 | |
| DM0DOS-11 | 2026-09-03 11:00:47 | 52.18291 | 9.17827 | 116° | 148km/h | 8102m | -8m/s | -29.5°C | 24.7% | 364.2hPa | 2.6V | 08:12:47 | 01:29:18 | 00:00:00 | |
| BIOWL1-15 | 2026-09-03 11:00:45 | 52.18257 | 9.17936 | 117° | 146km/h | 8087m | -8m/s | -29.5°C | 27.5% | 364.9hPa | 2.6V | 08:12:50 | 01:29:20 | 00:00:00 | |
| DL1XH1-15 | 2026-09-03 11:00:44 | 52.18307 | 9.17773 | 116° | 146km/h | 8110m | -8.2m/s | -29.6°C | 25.1% | 363.6hPa | 2.7V | 08:12:48 | 01:29:17 | 00:00:00 | |
| DO2JMG | 2026-09-03 11:00:44 | 52.18274 | 9.17882 | 117° | 148km/h | 8095m | -7.9m/s | -29.5°C | 28.2% | 364.5hPa | 2.6V | 08:15:23 | 01:29:19 | 00:00:00 | |
| DD8BA-10 | 2026-09-03 11:00:44 | 52.18274 | 9.17882 | 117° | 146km/h | 8095m | -7.8m/s | -29.4°C | 24.2% | 364.4hPa | 2.6V | 00:00:00 | 00:00:00 | 00:00:00 | |
| DL1NUX | 2026-09-03 11:00:43 | 52.18357 | 9.17611 | 116° | 146km/h | 8135m | -7.5m/s | -29.8°C | 25.8% | 362.4hPa | 2.6V | 08:12:51 | 01:29:14 | 00:00:00 | |
| DF8AY | 2026-09-03 11:00:42 | 52.18307 | 9.17773 | 117° | 148km/h | 8110m | -8.2m/s | -29.6°C | 29.3% | 363.6hPa | 2.7V | 08:12:50 | 01:29:17 | 00:00:00 | |
| DL1XH-west | 2026-09-03 11:00:41 | 52.18324 | 9.17719 | 116° | 148km/h | 8119m | -8.4m/s | -29.7°C | 29.6% | 363.3hPa | 2.7V | 08:12:50 | 01:29:16 | 00:00:00 | |
| HSKMA3-T | 2026-09-03 11:00:40 | 52.18340 | 9.17665 | 116° | 144km/h | 8127m | -8m/s | -29.7°C | 29.8% | 362.9hPa | 2.7V | 08:12:50 | 01:29:15 | 00:00:00 | |
| DB0DAN | 2026-09-03 11:00:40 | 52.18340 | 9.17665 | 116° | 139km/h | 8127m | -8m/s | -29.7°C | 23.9% | 362.86hPa | 2.7V | 00:00:00 | 00:00:00 | 00:00:00 | |
| AA1-15 | 2026-09-03 11:00:38 | 52.18374 | 9.17557 | 116° | 146km/h | 8142m | -8.1m/s | -29.8°C | 30.3% | 362hPa | 2.6V | 08:13:41 | 01:29:13 | 00:00:00 | |
| GOEST3-10 | 2026-09-03 11:00:38 | 52.18373 | 9.17557 | 117° | 146km/h | 8142m | -8.0m/s | -29.8°C | 26.1% | 362.0hPa | 2.6V | 00:00:00 | 01:29:13 | 00:00:00 | |
| DM0DOS-11 | 2026-09-03 11:00:37 | 52.18455 | 9.17290 | 116° | 144km/h | 8181m | -8.2m/s | -30.2°C | 27.4% | 360.2hPa | 2.6V | 08:12:57 | 01:29:08 | 00:00:00 | |
| DF8AY-15 | 2026-09-03 11:00:37 | 52.18390 | 9.17504 | 117° | 144km/h | 8150m | -8.0m/s | -29.9°C | 26.3% | 361.7hPa | 2.7V | 00:00:00 | 01:29:12 | 00:00:00 | |
| DL1XH-15 | 2026-09-03 11:00:34 | 52.18504 | 9.17129 | 115° | 144km/h | 8205m | -8.2m/s | -30.4°C | 28.2% | 358.9hPa | 2.7V | 08:13:00 | 01:29:05 | 00:00:00 | |
| BIOWL1-15 | 2026-09-03 11:00:34 | 52.18439 | 9.17343 | 116° | 144km/h | 8173m | -8.4m/s | -30.1°C | 31.4% | 360.4hPa | 2.7V | 08:13:41 | 01:29:09 | 00:00:00 | |
| DF8AY | 2026-09-03 11:00:32 | 52.18471 | 9.17237 | 117° | 146km/h | 8189m | -7.5m/s | -30.3°C | 32.1% | 359.7hPa | 2.6V | 08:13:41 | 01:29:07 | 00:00:00 | |
| DL1XH-west | 2026-09-03 11:00:31 | 52.18488 | 9.17183 | 116° | 146km/h | 8196m | -7.9m/s | -30.3°C | 32.2% | 359.3hPa | 2.6V | 08:13:41 | 01:29:06 | 00:00:00 | |
| HSKMA3-T | 2026-09-03 11:00:30 | 52.18504 | 9.17129 | 116° | 144km/h | 8205m | -8.2m/s | -30.4°C | 32.5% | 358.9hPa | 2.7V | 08:13:41 | 01:29:05 | 00:00:00 | |
| DO2JMG | 2026-09-03 11:00:29 | 52.18520 | 9.17076 | 116° | 146km/h | 8213m | -8m/s | -30.5°C | 32.8% | 358.6hPa | 2.7V | 08:15:23 | 01:29:04 | 00:00:00 | |
| AA1-15 | 2026-09-03 11:00:28 | 52.18536 | 9.17021 | 116° | 146km/h | 8220m | -7.9m/s | -30.6°C | 33.2% | 358.1hPa | 2.6V | 08:13:41 | 01:29:03 | 00:00:00 | |
| BIOWL9-15 | 2026-09-03 11:00:28 | 52.18552 | 9.16968 | 115° | 142km/h | 8228m | -7.4m/s | -30.6°C | 27.3% | 357.8hPa | 2.7V | 00:00:00 | 00:00:00 | 00:00:00 | |
| DM0DOS-11 | 2026-09-03 11:00:27 | 52.18616 | 9.16753 | 116° | 144km/h | 8257m | -7.3m/s | -30.9°C | 31% | 356.2hPa | 2.7V | 08:13:07 | 01:28:58 | 00:00:00 | |
| DB0DAN | 2026-09-03 11:00:25 | 52.18584 | 9.16860 | 116° | 139km/h | 8242m | -7.9m/s | -30.8°C | 28.1% | 357hPa | 2.7V | 00:00:00 | 00:00:00 | 00:00:00 | |
| DL1XH-15 | 2026-09-03 11:00:24 | 52.18663 | 9.16594 | 116° | 144km/h | 8279m | -7.6m/s | -31.1°C | 32.1% | 355.1hPa | 2.6V | 08:13:10 | 01:28:55 | 00:00:00 | |
| BIOWL1-15 | 2026-09-03 11:00:24 | 52.18600 | 9.16806 | 116° | 142km/h | 8250m | -7.5m/s | -30.8°C | 35% | 356.7hPa | 2.7V | 08:13:41 | 01:28:59 | 00:00:00 | |
| DD8BA-10 | 2026-09-03 11:00:24 | 52.18600 | 9.16806 | 116° | 142km/h | 8250m | -7.4m/s | -30.8°C | 30.6% | 356.6hPa | 2.7V | 00:00:00 | 00:00:00 | 00:00:00 | |
| DL1NUX | 2026-09-03 11:00:23 | 52.18695 | 9.16488 | 115° | 141km/h | 8294m | -7.8m/s | -31.3°C | 32.6% | 354.3hPa | 2.7V | 08:13:12 | 01:28:53 | 00:00:00 | |
| DF8AY | 2026-09-03 11:00:21 | 52.18648 | 9.16647 | 115° | 142km/h | 8272m | -8m/s | -31.1°C | 36.2% | 355.5hPa | 2.6V | 08:13:41 | 01:28:56 | 00:00:00 | |
| HSKMA3-T | 2026-09-03 11:00:19 | 52.18679 | 9.16541 | 115° | 144km/h | 8287m | -7.4m/s | -31.2°C | 36.9% | 354.7hPa | 2.7V | 08:13:41 | 01:28:54 | 00:00:00 | |
| DO2JMG | 2026-09-03 11:00:18 | 52.18695 | 9.16488 | 115° | 141km/h | 8294m | -7.8m/s | -31.3°C | 37.1% | 354.3hPa | 2.7V | 08:15:23 | 01:28:53 | 00:00:00 | |
| DM0DOS-11 | 2026-09-03 11:00:17 | 52.18774 | 9.16224 | 115° | 144km/h | 8333m | -8.1m/s | -31.6°C | 35.4% | 352.4hPa | 2.7V | 08:13:17 | 01:28:48 | 00:00:00 | |
| AA1-15 | 2026-09-03 11:00:17 | 52.18727 | 9.16382 | 116° | 144km/h | 8309m | -8.4m/s | -31.4°C | 37.9% | 353.5hPa | 2.6V | 08:13:41 | 01:28:51 | 00:00:00 | |
| BIOWL1-15 | 2026-09-03 11:00:15 | 52.18774 | 9.16224 | 116° | 144km/h | 8333m | -8.1m/s | -31.6°C | 39.9% | 352.4hPa | 2.7V | 08:13:41 | 01:28:48 | 00:00:00 | |
| DF8AY | 2026-09-03 11:00:10 | 52.18821 | 9.16066 | 115° | 141km/h | 8356m | -7.7m/s | -31.9°C | 41.8% | 351.2hPa | 2.6V | 08:13:41 | 01:28:45 | 00:00:00 | |
| DB0DAN | 2026-09-03 11:00:10 | 52.18821 | 9.16066 | 115° | 133km/h | 8356m | -7.7m/s | -31.9°C | 34.9% | 351.18hPa | 2.6V | 00:00:00 | 00:00:00 | 00:00:00 | |
| HSKMA3-T | 2026-09-03 11:00:08 | 52.18852 | 9.15961 | 116° | 141km/h | 8371m | -7.8m/s | -32°C | 41.9% | 350.4hPa | 2.7V | 08:13:41 | 01:28:43 | 00:00:00 | |
| DO2JMG | 2026-09-03 11:00:06 | 52.18883 | 9.15856 | 116° | 141km/h | 8387m | -8.5m/s | -32.2°C | 42.1% | 349.8hPa | 2.7V | 08:15:23 | 01:28:41 | 00:00:00 | |
| AA1-15 | 2026-09-03 11:00:05 | 52.18899 | 9.15803 | 115° | 142km/h | 8395m | -7.9m/s | -32.2°C | 42.3% | 349.3hPa | 2.6V | 08:13:41 | 01:28:40 | 00:00:00 | |
| DM0DOS-11 | 2026-09-03 11:00:04 | 52.18930 | 9.15699 | 115° | 142km/h | 8411m | -8.1m/s | -32.4°C | 38% | 348.5hPa | 2.6V | 08:13:27 | 01:28:38 | 00:00:00 | |
| BIOWL1-15 | 2026-09-03 11:00:04 | 52.18930 | 9.15699 | 116° | 142km/h | 8411m | -8.1m/s | -32.4°C | 42.6% | 348.5hPa | 2.6V | 08:13:41 | 01:28:38 | 00:00:00 | |
| DL1XH-west | 2026-09-03 11:00:00 | 52.18978 | 9.15542 | 117° | 142km/h | 8434m | -8.2m/s | -32.6°C | 43.7% | 347.4hPa | 2.7V | 08:13:41 | 01:28:35 | 00:00:00 | |
| DF8AY | 2026-09-03 10:59:59 | 52.19057 | 9.15281 | 116° | 141km/h | 8474m | -8.5m/s | -33°C | 45.9% | 345.4hPa | 2.7V | 08:13:41 | 01:28:30 | 00:00:00 | |
| HSKMA3-T | 2026-09-03 10:59:58 | 52.19010 | 9.15437 | 116° | 142km/h | 8450m | -8m/s | -32.8°C | 44.5% | 346.6hPa | 2.6V | 08:13:41 | 01:28:33 | 00:00:00 | |
| DO2JMG | 2026-09-03 10:59:56 | 52.19041 | 9.15333 | 116° | 142km/h | 8466m | -8m/s | -32.9°C | 45.4% | 345.8hPa | 2.6V | 08:15:23 | 01:28:31 | 00:00:00 | |
| DB0DAN | 2026-09-03 10:59:55 | 52.19057 | 9.15281 | 116° | 133km/h | 8474m | -8.5m/s | -33°C | 39% | 345.39hPa | 2.7V | 00:00:00 | 00:00:00 | 00:00:00 | |
| AA1-15 | 2026-09-03 10:59:54 | 52.19073 | 9.15229 | 116° | 142km/h | 8482m | -8.5m/s | -33.1°C | 46.5% | 344.9hPa | 2.7V | 08:13:41 | 01:28:29 | 00:00:00 | |
| DD8BA-10 | 2026-09-03 10:59:54 | 52.19073 | 9.15229 | 117° | 141km/h | 8482m | -8.4m/s | -33.1°C | 42.1% | 344.9hPa | 2.6V | 00:00:00 | 00:00:00 | 00:00:00 | |
| DL1XH1-15 | 2026-09-03 10:59:53 | 52.19105 | 9.15125 | 116° | 142km/h | 8499m | -8.7m/s | -33.2°C | 43.9% | 344.3hPa | 2.6V | 08:13:38 | 01:28:27 | 00:00:00 | |
| BIOWL1-15 | 2026-09-03 10:59:53 | 52.19089 | 9.15177 | 116° | 141km/h | 8491m | -8.5m/s | -33.2°C | 47.4% | 344.6hPa | 2.7V | 08:13:41 | 01:28:28 | 00:00:00 | |
| DL1XH-west | 2026-09-03 10:59:50 | 52.19137 | 9.15022 | 118° | 141km/h | 8514m | -7.9m/s | -33.4°C | 49.7% | 343.4hPa | 2.6V | 08:13:41 | 01:28:25 | 00:00:00 | |
| HSKMA3-T | 2026-09-03 10:59:48 | 52.19169 | 9.14918 | 117° | 139km/h | 8530m | -8.6m/s | -33.6°C | 50.9% | 342.6hPa | 2.7V | 08:14:32 | 01:28:23 | 00:00:00 | |
| DF8AY | 2026-09-03 10:59:46 | 52.19202 | 9.14815 | 117° | 141km/h | 8546m | -8.2m/s | -33.7°C | 52% | 341.9hPa | 2.6V | 08:17:05 | 01:28:21 | 00:00:00 | |
| AA1-15 | 2026-09-03 10:59:44 | 52.19235 | 9.14712 | 118° | 142km/h | 8562m | -8.6m/s | -33.9°C | 53.5% | 341.2hPa | 2.6V | 08:14:32 | 01:28:19 | 00:00:00 | |
| BIOWL1-15 | 2026-09-03 10:59:44 | 52.19268 | 9.14609 | 118° | 141km/h | 8579m | -8.6m/s | -34°C | 56.6% | 340.4hPa | 2.7V | 08:14:32 | 01:28:17 | 00:00:00 | |
| DD8BA-10 | 2026-09-03 10:59:44 | 52.19235 | 9.14712 | 118° | 142km/h | 8562m | -8.5m/s | -33.8°C | 49.4% | 341.1hPa | 2.7V | 00:00:00 | 00:00:00 | 00:00:00 | |
| DL1XH1-15 | 2026-09-03 10:59:43 | 52.19268 | 9.14609 | 117° | 141km/h | 8579m | -8.6m/s | -34°C | 52.5% | 340.4hPa | 2.7V | 08:13:48 | 01:28:17 | 00:00:00 | |
| DO2JMG | 2026-09-03 10:59:43 | 52.19252 | 9.14660 | 118° | 142km/h | 8571m | -7.9m/s | -33.9°C | 54.8% | 340.8hPa | 2.6V | 08:15:23 | 01:28:18 | 00:00:00 | |
| GOEST3-10 | 2026-09-03 10:59:43 | 52.19251 | 9.14660 | 118° | 141km/h | 8571m | -7.8m/s | -33.9°C | 50.7% | 340.7hPa | 2.6V | 08:13:00 | 00:00:00 | 00:00:00 | |
| DB0DAN | 2026-09-03 10:59:40 | 52.19302 | 9.14507 | 118° | 135km/h | 8595m | -7.9m/s | -34.1°C | 51.2% | 339.58hPa | 2.7V | 00:00:00 | 00:00:00 | 00:00:00 | |
| DL1XH-west | 2026-09-03 10:59:40 | 52.19302 | 9.14507 | 118° | 141km/h | 8595m | -7.9m/s | -34.1°C | 58.1% | 339.6hPa | 2.7V | 08:14:32 | 01:28:15 | 00:00:00 | |
| SO1NDE-10 | 2026-09-03 10:59:40 | 52.19302 | 9.14507 | 119° | 161km/h | 8595m | -7.9m/s | -34.1°C | 54.2% | 339.5hPa | 2.6V | 00:00:00 | 01:28:15 | 00:00:00 | |
| DD1CC8 | 2026-09-03 10:59:39 | 52.19319 | 9.14456 | 118° | 141km/h | 8603m | -8.1m/s | -34.2°C | 51.8% | 339.1hPa | 2.6V | 00:00:00 | 00:00:00 | 00:00:00 | |
| DM0DOS-11 | 2026-09-03 10:59:38 | 52.19424 | 9.14146 | 118° | 142km/h | 8650m | -8.1m/s | -34.6°C | 61.2% | 336.9hPa | 2.6V | 08:13:57 | 01:28:08 | 00:00:00 | |
| HSKMA3-T | 2026-09-03 10:59:37 | 52.19354 | 9.14354 | 119° | 142km/h | 8619m | -7.7m/s | -34.4°C | 59.8% | 338.5hPa | 2.6V | 08:14:32 | 01:28:12 | 00:00:00 | |
| DF8AY | 2026-09-03 10:59:35 | 52.19389 | 9.14251 | 118° | 144km/h | 8634m | -7.9m/s | -34.5°C | 61.8% | 337.7hPa | 2.7V | 08:17:05 | 01:28:10 | 00:00:00 | |
| AA1-15 | 2026-09-03 10:59:34 | 52.19406 | 9.14198 | 118° | 144km/h | 8642m | -8.3m/s | -34.6°C | 62.9% | 337.2hPa | 2.7V | 08:14:32 | 01:28:09 | 00:00:00 | |
| DJ2DS-15 | 2026-09-03 10:59:34 | 52.19406 | 9.14198 | 119° | 148km/h | 8642m | -8.2m/s | -34.5°C | 59.6% | 337.2hPa | 2.7V | 00:00:00 | 01:28:09 | 00:00:00 | |
| DL1NUX | 2026-09-03 10:59:33 | 52.19496 | 9.13939 | 119° | 146km/h | 8681m | -8.2m/s | -34.8°C | 64% | 335.5hPa | 2.7V | 08:14:01 | 01:28:04 | 00:00:00 | |
| DO2JMG | 2026-09-03 10:59:31 | 52.19459 | 9.14043 | 120° | 144km/h | 8665m | -7.1m/s | -34.7°C | 66.4% | 336.2hPa | 2.6V | 08:15:23 | 01:28:06 | 00:00:00 | |
| DL1XH-west | 2026-09-03 10:59:29 | 52.19496 | 9.13939 | 119° | 146km/h | 8681m | -8.2m/s | -34.8°C | 67.4% | 335.5hPa | 2.7V | 08:14:32 | 01:28:04 | 00:00:00 | |
| HSKMA3-T | 2026-09-03 10:59:27 | 52.19532 | 9.13834 | 119° | 148km/h | 8697m | -8.4m/s | -35°C | 69.1% | 334.7hPa | 2.7V | 08:14:32 | 01:28:02 | 00:00:00 | |
| DM0DOS-11 | 2026-09-03 10:59:26 | 52.19606 | 9.13622 | 119° | 150km/h | 8729m | -8.3m/s | -35.2°C | 69% | 333.1hPa | 2.7V | 08:14:07 | 01:27:58 | 00:00:00 | |
| DB0DAN | 2026-09-03 10:59:25 | 52.19569 | 9.13729 | 120° | 141km/h | 8713m | -7.7m/s | -35.1°C | 64.4% | 333.86hPa | 2.6V | 00:00:00 | 00:00:00 | 00:00:00 | |
| DF8AY | 2026-09-03 10:59:24 | 52.19588 | 9.13676 | 120° | 150km/h | 8721m | -7.7m/s | -35.1°C | 71.4% | 333.6hPa | 2.6V | 08:17:05 | 01:27:59 | 00:00:00 | |
| DD8BA-10 | 2026-09-03 10:59:24 | 52.19588 | 9.13675 | 120° | 150km/h | 8721m | -7.7m/s | -35.1°C | 68.4% | 333.6hPa | 2.7V | 00:00:00 | 00:00:00 | 00:00:00 | |
| DL1XH1-15 | 2026-09-03 10:59:23 | 52.19625 | 9.13569 | 119° | 150km/h | 8737m | -8.4m/s | -35.3°C | 69.5% | 332.8hPa | 2.7V | 08:14:08 | 01:27:57 | 00:00:00 | |
| AA1-15 | 2026-09-03 10:59:23 | 52.19607 | 9.13622 | 120° | 150km/h | 8729m | -8.3m/s | -35.2°C | 71.9% | 333.1hPa | 2.7V | 08:14:32 | 01:27:58 | 00:00:00 | |
| BIOWL1-15 | 2026-09-03 10:59:23 | 52.19644 | 9.13515 | 120° | 150km/h | 8745m | -7.8m/s | -35.3°C | 72.8% | 332.5hPa | 2.6V | 08:14:32 | 01:27:56 | 00:00:00 | |
| DL1XH-west | 2026-09-03 10:59:18 | 52.19701 | 9.13356 | 121° | 150km/h | 8769m | -8.3m/s | -35.5°C | 74.2% | 331.2hPa | 2.7V | 08:14:32 | 01:27:53 | 00:00:00 | |
| HSKMA3-T | 2026-09-03 10:59:16 | 52.19741 | 9.13249 | 121° | 151km/h | 8785m | -8.4m/s | -35.6°C | 75% | 330.5hPa | 2.6V | 08:14:32 | 01:27:51 | 00:00:00 | |
| DF8AY | 2026-09-03 10:59:14 | 52.19780 | 9.13140 | 120° | 153km/h | 8801m | -8.6m/s | -35.7°C | 75.7% | 329.8hPa | 2.7V | 08:17:05 | 01:27:49 | 00:00:00 | |
| DD8BA-10 | 2026-09-03 10:59:14 | 52.19780 | 9.13140 | 121° | 157km/h | 8802m | -8.6m/s | -35.7°C | 73.2% | 329.8hPa | 2.7V | 00:00:00 | 00:00:00 | 00:00:00 | |
| DL1XH1-15 | 2026-09-03 10:59:13 | 52.19819 | 9.13031 | 120° | 153km/h | 8818m | -7.8m/s | -35.8°C | 73.7% | 328.9hPa | 2.7V | 08:14:18 | 01:27:47 | 00:00:00 | |
| AA1-15 | 2026-09-03 10:59:12 | 52.19819 | 9.13031 | 120° | 153km/h | 8818m | -7.8m/s | -35.8°C | 76.3% | 328.9hPa | 2.7V | 08:14:32 | 01:27:47 | 00:00:00 | |
| BIOWL1-15 | 2026-09-03 10:59:11 | 52.19839 | 9.12977 | 120° | 155km/h | 8826m | -7.8m/s | -35.9°C | 76.5% | 328.6hPa | 2.6V | 08:14:32 | 01:27:46 | 00:00:00 | |
| DL1XH-15 | 2026-09-03 10:59:10 | 52.19878 | 9.12866 | 120° | 157km/h | 8842m | -7.9m/s | -36°C | 74.2% | 327.8hPa | 2.6V | 08:14:21 | 01:27:44 | 00:00:00 | |
| DL1XH-west | 2026-09-03 10:59:08 | 52.19899 | 9.12811 | 120° | 157km/h | 8850m | -7.9m/s | -36.1°C | 76.5% | 327.5hPa | 2.6V | 08:14:32 | 01:27:43 | 00:00:00 | |
| HSKMA3-T | 2026-09-03 10:59:05 | 52.19959 | 9.12641 | 120° | 159km/h | 8873m | -8.1m/s | -36.2°C | 77% | 326.4hPa | 2.7V | 08:14:32 | 01:27:40 | 00:00:00 | |
| DO2SHX-10 | 2026-09-03 10:59:05 | 52.19959 | 9.12641 | 121° | 159km/h | 8873m | -8.0m/s | -36.1°C | 74.4% | 326.3hPa | 2.6V | 00:00:00 | 01:27:40 | 00:00:00 | |
| DD8BA-10 | 2026-09-03 10:59:04 | 52.19980 | 9.12585 | 121° | 161km/h | 8881m | -7.8m/s | -36.2°C | 74.9% | 325.9hPa | 2.6V | 00:00:00 | 00:00:00 | 00:00:00 | |
| DL1XH1-15 | 2026-09-03 10:59:03 | 52.20020 | 9.12473 | 120° | 159km/h | 8897m | -8.3m/s | -36.4°C | 76.1% | 325.1hPa | 2.6V | 08:14:28 | 01:27:37 | 00:00:00 | |
| DF8AY | 2026-09-03 10:59:03 | 52.20000 | 9.12529 | 121° | 157km/h | 8889m | -7.8m/s | -36.3°C | 78% | 325.6hPa | 2.6V | 08:17:05 | 01:27:38 | 00:00:00 | |
| AA1-15 | 2026-09-03 10:59:01 | 52.20041 | 9.12417 | 121° | 161km/h | 8905m | -8.1m/s | -36.5°C | 78.8% | 324.8hPa | 2.7V | 08:14:32 | 01:27:36 | 00:00:00 | |
| BIOWL1-15 | 2026-09-03 10:59:01 | 52.20124 | 9.12190 | 121° | 161km/h | 8938m | -8.1m/s | -36.7°C | 79.9% | 323.3hPa | 2.6V | 08:15:23 | 01:27:32 | 00:00:00 | |
| DL1XH-west | 2026-09-03 10:58:58 | 52.20104 | 9.12247 | 121° | 161km/h | 8930m | -8m/s | -36.6°C | 79.6% | 323.7hPa | 2.6V | 08:14:32 | 01:27:33 | 00:00:00 | |
| HSKMA3-T | 2026-09-03 10:58:54 | 52.20188 | 9.12017 | 121° | 164km/h | 8961m | -8.3m/s | -36.9°C | 80.7% | 322.1hPa | 2.7V | 08:15:23 | 01:27:29 | 00:00:00 | |
| AA1-15 | 2026-09-03 10:58:51 | 52.20253 | 9.11841 | 121° | 168km/h | 8986m | -7.9m/s | -37.1°C | 81.5% | 321hPa | 2.6V | 08:15:23 | 01:27:26 | 00:00:00 | |
| BIOWL1-15 | 2026-09-03 10:58:48 | 52.20319 | 9.11664 | 121° | 168km/h | 9008m | -7.7m/s | -37.3°C | 81.9% | 319.9hPa | 2.6V | 08:15:23 | 01:27:23 | 00:00:00 | |
| DL1XH-west | 2026-09-03 10:58:47 | 52.20341 | 9.11605 | 121° | 168km/h | 9016m | -7.9m/s | -37.3°C | 82% | 319.5hPa | 2.6V | 08:15:23 | 01:27:22 | 00:00:00 | |
| BUE01 | 2026-09-03 10:58:46 | 52.20385 | 9.11486 | 120° | 168km/h | 9032m | -8.0m/s | -37.4°C | 76.9% | 318.7hPa | 2.6V | 00:00:00 | 00:00:00 | 00:00:00 | |
| D01LWL | 2026-09-03 10:58:45 | 52.20385 | 9.11486 | 120° | 168km/h | 9032m | -8.0m/s | -37.4°C | 76.9% | 318.7hPa | 2.6V | 00:00:00 | 00:00:00 | 00:00:00 | |
| DD8BA-10 | 2026-09-03 10:58:44 | 52.20407 | 9.11426 | 121° | 172km/h | 9040m | -7.8m/s | -37.4°C | 81.2% | 318.4hPa | 2.6V | 00:00:00 | 00:00:00 | 00:00:00 | |
| DL1XH1-15 | 2026-09-03 10:58:43 | 52.20451 | 9.11306 | 120° | 172km/h | 9055m | -8.1m/s | -37.5°C | 80.4% | 317.7hPa | 2.6V | 08:14:48 | 01:27:17 | 00:00:00 | |
| HSKMA3-T | 2026-09-03 10:58:43 | 52.20429 | 9.11366 | 121° | 172km/h | 9047m | -8.2m/s | -37.5°C | 81.8% | 318.1hPa | 2.7V | 08:15:23 | 01:27:18 | 00:00:00 | |
| AA1-15 | 2026-09-03 10:58:40 | 52.20496 | 9.11184 | 121° | 173km/h | 9071m | -8.1m/s | -37.7°C | 80.5% | 317.1hPa | 2.6V | 08:15:23 | 01:27:15 | 00:00:00 | |
| DB0DAN | 2026-09-03 10:58:40 | 52.20496 | 9.11184 | 121° | 164km/h | 9071m | -8.1m/s | -37.7°C | 75.2% | 317.07hPa | 2.6V | 00:00:00 | 00:00:00 | 00:00:00 | |
| BIOWL1-15 | 2026-09-03 10:58:37 | 52.20563 | 9.10999 | 121° | 172km/h | 9095m | -8m/s | -37.8°C | 76.9% | 315.9hPa | 2.7V | 08:15:23 | 01:27:12 | 00:00:00 | |
| DL1XH-west | 2026-09-03 10:58:36 | 52.20585 | 9.10938 | 121° | 173km/h | 9103m | -7.8m/s | -37.8°C | 75.4% | 315.6hPa | 2.7V | 08:15:23 | 01:27:11 | 00:00:00 | |
| DO2SHX-10 | 2026-09-03 10:58:35 | 52.20608 | 9.10877 | 121° | 175km/h | 9110m | -7.8m/s | -37.8°C | 71.9% | 315.1hPa | 2.6V | 00:00:00 | 01:27:10 | 00:00:00 | |
| DM0DOS-11 | 2026-09-03 10:58:34 | 52.20654 | 9.10754 | 121° | 173km/h | 9126m | -7.9m/s | -37.8°C | 68.7% | 314.5hPa | 2.6V | 08:14:57 | 01:27:08 | 00:00:00 | |
| HSKMA3-T | 2026-09-03 10:58:33 | 52.20653 | 9.10754 | 121° | 175km/h | 9126m | -7.9m/s | -37.8°C | 71.2% | 314.5hPa | 2.6V | 08:15:23 | 01:27:08 | 00:00:00 | |
| DO2JMG | 2026-09-03 10:58:31 | 52.20699 | 9.10631 | 121° | 173km/h | 9142m | -8.1m/s | -37.9°C | 70.1% | 313.8hPa | 2.7V | 08:15:23 | 01:27:06 | 00:00:00 | |
| DL1XH-15 | 2026-09-03 10:58:30 | 52.20745 | 9.10509 | 120° | 175km/h | 9158m | -8.3m/s | -38°C | 66.5% | 313.1hPa | 2.6V | 08:15:01 | 01:27:04 | 00:00:00 | |
| AA1-15 | 2026-09-03 10:58:29 | 52.20745 | 9.10509 | 121° | 175km/h | 9158m | -8.3m/s | -38.1°C | 69.1% | 313.1hPa | 2.6V | 08:15:23 | 01:27:04 | 00:00:00 | |
| BIOWL1-15 | 2026-09-03 10:58:27 | 52.20790 | 9.10385 | 121° | 175km/h | 9174m | -8.3m/s | -38.1°C | 67.3% | 312.3hPa | 2.7V | 08:15:23 | 01:27:02 | 00:00:00 | |
| SMARD9-10 | 2026-09-03 10:58:26 | 52.20790 | 9.10385 | 122° | 175km/h | 9174m | -8.3m/s | -38.1°C | 60.8% | 312.3hPa | 2.7V | 00:00:00 | 00:00:00 | 00:00:00 | |
| DB0DAN | 2026-09-03 10:58:25 | 52.20836 | 9.10261 | 121° | 170km/h | 9189m | -8m/s | -38.2°C | 60.6% | 311.62hPa | 2.7V | 00:00:00 | 00:00:00 | 00:00:00 | |
| DL1XH-west | 2026-09-03 10:58:25 | 52.20836 | 9.10261 | 121° | 177km/h | 9189m | -8m/s | -38.2°C | 67.3% | 311.6hPa | 2.7V | 08:15:23 | 01:27:00 | 00:00:00 | |
| DD8BA-10 | 2026-09-03 10:58:24 | 52.20860 | 9.10199 | 122° | 177km/h | 9198m | -8.1m/s | -38.2°C | 64.7% | 311.2hPa | 2.6V | 00:00:00 | 00:00:00 | 00:00:00 | |
| DL1XH1-15 | 2026-09-03 10:58:23 | 52.20906 | 9.10076 | 122° | 177km/h | 9213m | -8.1m/s | -38.4°C | 64.3% | 310.5hPa | 2.6V | 08:15:08 | 01:26:57 | 00:00:00 | |
| DF8AY | 2026-09-03 10:58:23 | 52.20883 | 9.10138 | 122° | 175km/h | 9205m | -8.2m/s | -38.3°C | 67.4% | 310.9hPa | 2.6V | 08:17:05 | 01:26:58 | 00:00:00 | |
| HSKMA3-T | 2026-09-03 10:58:22 | 52.20906 | 9.10076 | 122° | 177km/h | 9213m | -8.1m/s | -38.4°C | 67.2% | 310.5hPa | 2.6V | 08:15:23 | 01:26:57 | 00:00:00 | |
| DL1LOL-11 | 2026-09-03 10:58:22 | 52.20906 | 9.10076 | 123° | 177km/h | 9213m | -8.1m/s | -38.4°C | 60.5% | 310.5hPa | 2.7V | 00:00:00 | 00:00:00 | 00:00:00 | |
| AM1SDL-15 | 2026-09-03 10:58:21 | 52.20930 | 9.10014 | 122° | 181km/h | 9221m | -8.0m/s | 0°C | 0% | 0hPa | 2.7V | 08:15:00 | 01:26:56 | 00:00:00 | |
| DL1XH-15 | 2026-09-03 10:58:20 | 52.20977 | 9.09891 | 122° | 179km/h | 9237m | -7.9m/s | -38.6°C | 65.8% | 309.5hPa | 2.7V | 08:15:11 | 01:26:54 | 00:00:00 | |
| AA1-15 | 2026-09-03 10:58:18 | 52.21001 | 9.09829 | 122° | 179km/h | 9245m | -8.6m/s | -38.6°C | 68.9% | 309.1hPa | 2.7V | 08:15:23 | 01:26:53 | 00:00:00 | |
| DO2JMG | 2026-09-03 10:58:16 | 52.21050 | 9.09705 | 123° | 179km/h | 9261m | -8.1m/s | -38.8°C | 69.4% | 308.4hPa | 2.6V | 08:15:23 | 01:26:51 | 00:00:00 | |
| DL1XH-west | 2026-09-03 10:58:14 | 52.21098 | 9.09582 | 123° | 179km/h | 9277m | -8.5m/s | -38.9°C | 69.7% | 307.6hPa | 2.7V | 08:15:23 | 01:26:49 | 00:00:00 | |
| DJ2DS-15 | 2026-09-03 10:58:14 | 52.21098 | 9.09582 | 123° | 183km/h | 9277m | -8.5m/s | -38.8°C | 67.5% | 307.6hPa | 2.6V | 00:00:00 | 01:26:49 | 00:00:00 | |
| DL1XH1-15 | 2026-09-03 10:58:13 | 52.21148 | 9.09457 | 122° | 181km/h | 9293m | -8.3m/s | -39°C | 67.7% | 306.9hPa | 2.6V | 08:15:18 | 01:26:47 | 00:00:00 | |
| HSKMA3-T | 2026-09-03 10:58:12 | 52.21148 | 9.09457 | 123° | 181km/h | 9293m | -8.3m/s | -39°C | 69.9% | 306.9hPa | 2.6V | 08:15:23 | 01:26:47 | 00:00:00 | |
| DL4XJ-10 | 2026-09-03 10:58:12 | 52.21147 | 9.09457 | 123° | 183km/h | 9293m | -8.3m/s | -37.5°C | 0% | 0hPa | 2.6V | 00:00:00 | 00:00:00 | 00:00:00 | |
| DB0DAN | 2026-09-03 10:58:10 | 52.21197 | 9.09333 | 123° | 172km/h | 9310m | -8m/s | -39.1°C | 63.7% | 306.28hPa | 2.6V | 00:00:00 | 00:00:00 | 00:00:00 | |
| AA1-15 | 2026-09-03 10:58:07 | 52.21272 | 9.09146 | 124° | 183km/h | 9333m | -7.4m/s | -39.3°C | 69.9% | 305.2hPa | 2.6V | 08:15:23 | 01:26:42 | 00:00:00 | |
| DF8AY | 2026-09-03 10:58:06 | 52.21427 | 9.08774 | 124° | 183km/h | 9381m | -8.7m/s | -39.6°C | 69.3% | 303.1hPa | 2.6V | 08:17:05 | 01:26:36 | 00:00:00 | |
| DO2JMG | 2026-09-03 10:58:05 | 52.21324 | 9.09022 | 124° | 183km/h | 9349m | -8.1m/s | -39.4°C | 69% | 304.5hPa | 2.7V | 08:16:14 | 01:26:40 | 00:00:00 | |
| DL1XH-west | 2026-09-03 10:58:04 | 52.21349 | 9.08960 | 124° | 183km/h | 9357m | -7.9m/s | -39.4°C | 69% | 304.2hPa | 2.7V | 08:16:14 | 01:26:39 | 00:00:00 | |
| DD8BA-10 | 2026-09-03 10:58:04 | 52.21349 | 9.08960 | 125° | 183km/h | 9357m | -7.9m/s | -39.4°C | 66.2% | 304.1hPa | 2.7V | 00:00:00 | 00:00:00 | 00:00:00 | |
| DL1XH1-15 | 2026-09-03 10:58:03 | 52.21401 | 9.08836 | 124° | 183km/h | 9373m | -8.3m/s | -39.5°C | 66.5% | 303.5hPa | 2.6V | 08:15:28 | 01:26:37 | 00:00:00 | |
| HSKMA3-T | 2026-09-03 10:58:02 | 52.21401 | 9.08836 | 124° | 183km/h | 9373m | -8.3m/s | -39.6°C | 69.4% | 303.5hPa | 2.6V | 08:16:14 | 01:26:37 | 00:00:00 | |
| AA1-15 | 2026-09-03 10:57:57 | 52.21531 | 9.08528 | 125° | 183km/h | 9416m | -8.1m/s | -39.9°C | 69% | 301.6hPa | 2.6V | 08:16:14 | 01:26:32 | 00:00:00 | |
| DD1CC3-15 | 2026-09-03 10:57:56 | 52.21531 | 9.08528 | 126° | 183km/h | 9416m | -8.1m/s | -39.9°C | 62.1% | 301.6hPa | 2.7V | 00:00:00 | 00:00:00 | 00:00:00 | |
| DB0DAN | 2026-09-03 10:57:55 | 52.21585 | 9.08405 | 126° | 175km/h | 9431m | -8.1m/s | -40.1°C | 62.1% | 300.87hPa | 2.7V | 00:00:00 | 00:00:00 | 00:00:00 | |
| DO2JMG | 2026-09-03 10:57:54 | 52.21612 | 9.08344 | 126° | 184km/h | 9439m | -8.2m/s | -40.1°C | 68.4% | 300.5hPa | 2.7V | 08:16:14 | 01:26:29 | 00:00:00 | |
| DD8BA-10 | 2026-09-03 10:57:54 | 52.21612 | 9.08344 | 126° | 184km/h | 9439m | -8.2m/s | -40.1°C | 65.9% | 300.5hPa | 2.6V | 00:00:00 | 00:00:00 | 00:00:00 | |
| DL1XH1-15 | 2026-09-03 10:57:53 | 52.21666 | 9.08222 | 125° | 184km/h | 9455m | -8.6m/s | -40.2°C | 64.9% | 299.8hPa | 2.6V | 08:15:38 | 01:26:27 | 00:00:00 | |
| DL1XH-west | 2026-09-03 10:57:53 | 52.21639 | 9.08283 | 126° | 184km/h | 9447m | -8.1m/s | -40.2°C | 68% | 300.2hPa | 2.7V | 08:16:14 | 01:26:28 | 00:00:00 | |
| HSKMA3-T | 2026-09-03 10:57:51 | 52.21694 | 9.08160 | 126° | 184km/h | 9464m | -8.7m/s | -40.3°C | 67.3% | 299.4hPa | 2.6V | 08:16:14 | 01:26:26 | 00:00:00 | |
| AA1-15 | 2026-09-03 10:57:47 | 52.21803 | 9.07915 | 127° | 186km/h | 9497m | -8.4m/s | -40.5°C | 65.5% | 298.1hPa | 2.7V | 08:16:14 | 01:26:22 | 00:00:00 | |
| DO9LL-15 | 2026-09-03 10:57:45 | 52.21859 | 9.07792 | 128° | 192km/h | 9513m | -7.7m/s | -40.6°C | 61.3% | 297.2hPa | 2.7V | 00:00:00 | 01:26:20 | 00:00:00 | |
| DD8BA-10 | 2026-09-03 10:57:44 | 52.21888 | 9.07732 | 128° | 188km/h | 9521m | -7.8m/s | -40.7°C | 60.3% | 296.9hPa | 2.7V | 00:00:00 | 00:00:00 | 00:00:00 | |
| DL1XH1-15 | 2026-09-03 10:57:43 | 52.21945 | 9.07609 | 127° | 186km/h | 9537m | -7.9m/s | -40.8°C | 58.8% | 296.2hPa | 2.7V | 08:15:48 | 01:26:17 | 00:00:00 | |
| BIOWL1-15 | 2026-09-03 10:57:43 | 52.21916 | 9.07670 | 127° | 186km/h | 9528m | -8.3m/s | -40.8°C | 62.5% | 296.6hPa | 2.6V | 08:16:14 | 01:26:18 | 00:00:00 | |
| HSKMA3-T | 2026-09-03 10:57:41 | 52.21973 | 9.07547 | 127° | 186km/h | 9545m | -8.8m/s | -40.9°C | 61.1% | 295.9hPa | 2.7V | 08:16:14 | 01:26:16 | 00:00:00 | |
| DB0DAN | 2026-09-03 10:57:40 | 52.22002 | 9.07486 | 127° | 179km/h | 9553m | -8.3m/s | -40.9°C | 53.4% | 295.56hPa | 2.6V | 00:00:00 | 00:00:00 | 00:00:00 | |
| DF5WG-10 | 2026-09-03 10:57:40 | 52.22002 | 9.07486 | 128° | 190km/h | 9553m | -8.3m/s | -40.9°C | 57.2% | 295.5hPa | 2.6V | 00:00:00 | 01:26:15 | 00:00:00 | |
| DL1NUX | 2026-09-03 10:57:39 | 52.22178 | 9.07120 | 128° | 190km/h | 9602m | -8.3m/s | -41.3°C | 55.7% | 293.4hPa | 2.6V | 08:15:56 | 01:26:09 | 00:00:00 | |
| AA1-15 | 2026-09-03 10:57:37 | 52.22089 | 9.07303 | 128° | 188km/h | 9577m | -7.8m/s | -41.1°C | 59.6% | 294.4hPa | 2.7V | 08:16:14 | 01:26:12 | 00:00:00 | |
| GOEST3-10 | 2026-09-03 10:57:37 | 52.22089 | 9.07303 | 129° | 188km/h | 9577m | -7.7m/s | -41.1°C | 56.3% | 294.4hPa | 2.6V | 00:00:00 | 01:26:12 | 00:00:00 | |
| DM0DOS-11 | 2026-09-03 10:57:36 | 52.22207 | 9.07059 | 128° | 190km/h | 9610m | -8.2m/s | -41.4°C | 55.3% | 293.1hPa | 2.6V | 08:15:57 | 01:26:08 | 00:00:00 | |
| DL1XH-west | 2026-09-03 10:57:33 | 52.22207 | 9.07059 | 128° | 190km/h | 9610m | -8.2m/s | -41.4°C | 58.6% | 293.1hPa | 2.6V | 08:16:14 | 01:26:08 | 00:00:00 | |
| BIOWL1-15 | 2026-09-03 10:57:32 | 52.22237 | 9.06997 | 128° | 190km/h | 9618m | -8.1m/s | -41.4°C | 58.3% | 292.7hPa | 2.7V | 08:16:14 | 01:26:07 | 00:00:00 | |
| HSKMA3-T | 2026-09-03 10:57:30 | 52.22296 | 9.06874 | 128° | 192km/h | 9634m | -8.4m/s | -41.5°C | 58.1% | 292hPa | 2.7V | 08:16:14 | 01:26:05 | 00:00:00 | |
| AA1-15 | 2026-09-03 10:57:27 | 52.22387 | 9.06688 | 128° | 192km/h | 9659m | -8.3m/s | -41.7°C | 58.3% | 290.9hPa | 2.6V | 08:16:14 | 01:26:02 | 00:00:00 | |
| GOEST3-10 | 2026-09-03 10:57:27 | 52.22386 | 9.06688 | 129° | 193km/h | 9659m | -8.2m/s | -41.6°C | 54.7% | 290.8hPa | 2.6V | 08:16:00 | 01:26:02 | 00:00:00 | |
| DM0DOS-11 | 2026-09-03 10:57:26 | 52.22508 | 9.06440 | 128° | 193km/h | 9693m | -8.1m/s | -41.9°C | 56.4% | 289.4hPa | 2.7V | 08:16:07 | 01:25:58 | 00:00:00 | |
| BIOWL1-15 | 2026-09-03 10:57:23 | 52.22569 | 9.06315 | 129° | 193km/h | 9710m | -8.4m/s | -42°C | 61.1% | 288.7hPa | 2.6V | 08:16:14 | 01:25:56 | 00:00:00 | |
| DL1XH-west | 2026-09-03 10:57:23 | 52.22508 | 9.06440 | 129° | 193km/h | 9693m | -8.1m/s | -41.9°C | 59.8% | 289.4hPa | 2.7V | 08:16:14 | 01:25:58 | 00:00:00 | |
| DL1XH1-15 | 2026-09-03 10:57:22 | 52.22539 | 9.06377 | 128° | 193km/h | 9701m | -8.4m/s | -42°C | 56.9% | 289.1hPa | 2.6V | 08:16:08 | 01:25:57 | 00:00:00 | |
| DF8AY | 2026-09-03 10:57:22 | 52.22539 | 9.06377 | 129° | 193km/h | 9701m | -8.4m/s | -42°C | 60.5% | 289.1hPa | 2.6V | 08:17:05 | 01:25:57 | 00:00:00 | |
| HSKMA3-T | 2026-09-03 10:57:19 | 52.22631 | 9.06190 | 129° | 195km/h | 9726m | -8.7m/s | -42.2°C | 62.3% | 288hPa | 2.6V | 08:16:14 | 01:25:54 | 00:00:00 | |
| DO2SHX-10 | 2026-09-03 10:57:19 | 52.22631 | 9.06190 | 130° | 195km/h | 9727m | -8.7m/s | -42.1°C | 58.8% | 287.9hPa | 2.6V | 00:00:00 | 01:25:54 | 00:00:00 | |
| GOEST3-10 | 2026-09-03 10:57:17 | 52.22693 | 9.06064 | 129° | 195km/h | 9744m | -8.8m/s | -42.2°C | 59.5% | 287.2hPa | 2.6V | 00:00:00 | 01:25:52 | 00:00:00 | |
| DL1NUX | 2026-09-03 10:57:16 | 52.22849 | 9.05750 | 129° | 195km/h | 9787m | -9.2m/s | -42.7°C | 61.6% | 285.5hPa | 2.6V | 08:16:18 | 01:25:47 | 00:00:00 | |
| AA1-15 | 2026-09-03 10:57:16 | 52.22724 | 9.06002 | 129° | 195km/h | 9752m | -9.1m/s | -42.4°C | 63.7% | 286.9hPa | 2.7V | 08:16:14 | 01:25:51 | 00:00:00 | |
| DO2SHX-10 | 2026-09-03 10:57:16 | 52.22724 | 9.06002 | 130° | 197km/h | 9752m | -9.1m/s | -42.3°C | 59.9% | 286.9hPa | 2.6V | 00:00:00 | 01:25:51 | 00:00:00 | |
| DM0DOS-11 | 2026-09-03 10:57:15 | 52.22817 | 9.05813 | 128° | 195km/h | 9778m | -8.6m/s | -42.6°C | 61.2% | 285.8hPa | 2.6V | 08:16:17 | 01:25:48 | 00:00:00 | |
| DL1XH-west | 2026-09-03 10:57:13 | 52.22817 | 9.05813 | 129° | 195km/h | 9778m | -8.6m/s | -42.6°C | 64.8% | 285.8hPa | 2.6V | 08:17:05 | 01:25:48 | 00:00:00 | |
| DO2JMG | 2026-09-03 10:57:12 | 52.22848 | 9.05750 | 129° | 195km/h | 9787m | -9.2m/s | -42.7°C | 65.1% | 285.5hPa | 2.6V | 08:17:05 | 01:25:47 | 00:00:00 | |
| DF8AY | 2026-09-03 10:57:11 | 52.22880 | 9.05688 | 130° | 197km/h | 9795m | -8.5m/s | -42.8°C | 65.4% | 285.1hPa | 2.7V | 08:17:05 | 01:25:46 | 00:00:00 | |
| BIOWL1-15 | 2026-09-03 10:57:10 | 52.22912 | 9.05625 | 130° | 199km/h | 9804m | -8.3m/s | -42.8°C | 65.7% | 284.8hPa | 2.7V | 08:17:05 | 01:25:45 | 00:00:00 | |
| DB0DAN | 2026-09-03 10:57:10 | 52.22912 | 9.05625 | 130° | 190km/h | 9804m | -8.3m/s | -42.8°C | 58% | 284.77hPa | 2.7V | 00:00:00 | 00:00:00 | 00:00:00 | |
| DL1XH-15 | 2026-09-03 10:57:09 | 52.22944 | 9.05562 | 129° | 199km/h | 9812m | -8.5m/s | -42.9°C | 62.5% | 284.4hPa | 2.7V | 08:16:21 | 01:25:44 | 00:00:00 | |
| HSKMA3-T | 2026-09-03 10:57:09 | 52.22944 | 9.05563 | 130° | 199km/h | 9812m | -8.5m/s | -42.9°C | 66% | 284.4hPa | 2.7V | 08:17:05 | 01:25:44 | 00:00:00 | |
| HTAHTA | 2026-09-03 10:57:08 | 52.23008 | 9.05436 | 129° | 199km/h | 9829m | -8.5m/s | -43.0°C | 58.8% | 283.7hPa | 2.7V | 00:00:00 | 00:00:00 | 00:00:00 | |
| DO2SHX-10 | 2026-09-03 10:57:07 | 52.23008 | 9.05436 | 130° | 199km/h | 9829m | -8.4m/s | -43.0°C | 63.1% | 283.6hPa | 2.7V | 00:00:00 | 01:25:42 | 00:00:00 | |
| DL1NUX | 2026-09-03 10:57:06 | 52.23169 | 9.05119 | 129° | 201km/h | 9871m | -9m/s | -43.4°C | 64.8% | 281.9hPa | 2.7V | 08:16:28 | 01:25:37 | 00:00:00 | |
| AA1-15 | 2026-09-03 10:57:05 | 52.23072 | 9.05309 | 129° | 197km/h | 9845m | -9m/s | -43.2°C | 67.4% | 282.9hPa | 2.6V | 08:17:05 | 01:25:40 | 00:00:00 | |
| BIOWL1-15 | 2026-09-03 10:57:05 | 52.23233 | 9.04991 | 129° | 201km/h | 9888m | -9m/s | -43.6°C | 69.1% | 281.2hPa | 2.6V | 08:17:05 | 01:25:35 | 00:00:00 | |
| DM0DOS-11 | 2026-09-03 10:57:05 | 52.23137 | 9.05183 | 129° | 201km/h | 9862m | -8.1m/s | -43.4°C | 64.4% | 282.2hPa | 2.7V | 08:16:27 | 01:25:38 | 00:00:00 | |
| EDDB2-11 | 2026-09-03 10:57:05 | 52.23104 | 9.05246 | 129° | 199km/h | 9854m | -8.8m/s | -43.3°C | 59.8% | 282.6hPa | 2.6V | 00:00:00 | 00:00:00 | 00:00:00 | |
| DL1XH-15 | 2026-09-03 10:57:04 | 52.23265 | 9.04927 | 129° | 201km/h | 9897m | -8.5m/s | -43.6°C | 65.8% | 280.8hPa | 2.6V | 08:16:31 | 01:25:34 | 00:00:00 | |
| DL1XH-west | 2026-09-03 10:57:03 | 52.23136 | 9.05183 | 130° | 201km/h | 9862m | -8.1m/s | -43.4°C | 68% | 282.2hPa | 2.7V | 08:17:05 | 01:25:38 | 00:00:00 | |
| DO2JMG | 2026-09-03 10:57:01 | 52.23201 | 9.05055 | 129° | 201km/h | 9879m | -8.6m/s | -43.5°C | 68.8% | 281.5hPa | 2.6V | 08:17:05 | 01:25:36 | 00:00:00 | |
| HSKMA3-T | 2026-09-03 10:56:59 | 52.23265 | 9.04927 | 130° | 201km/h | 9897m | -8.5m/s | -43.6°C | 69.5% | 280.8hPa | 2.6V | 08:17:05 | 01:25:34 | 00:00:00 | |
| DL4BBY-15 | 2026-09-03 10:56:59 | 52.23265 | 9.04927 | 130° | 206km/h | 9897m | -8.5m/s | -42.2°C | 0% | 0hPa | 2.7V | 00:00:00 | 00:00:00 | 00:00:00 | |
| DO2SHX-10 | 2026-09-03 10:56:58 | 52.23297 | 9.04863 | 130° | 203km/h | 9905m | -8.6m/s | -43.7°C | 66.3% | 280.4hPa | 2.7V | 00:00:00 | 01:25:33 | 00:00:00 | |
| GOEST3-10 | 2026-09-03 10:56:57 | 52.23330 | 9.04799 | 131° | 203km/h | 9914m | -8.3m/s | -43.8°C | 66.9% | 280.0hPa | 2.7V | 00:00:00 | 01:25:32 | 00:00:00 | |
| DL1NUX | 2026-09-03 10:56:56 | 52.23495 | 9.04478 | 129° | 204km/h | 9955m | -9.2m/s | -44.1°C | 69% | 278.3hPa | 2.6V | 08:16:38 | 01:25:27 | 00:00:00 | |
| DL1XH1-15 | 2026-09-03 10:56:55 | 52.23528 | 9.04414 | 130° | 203km/h | 9964m | -9.1m/s | -44.2°C | 69.6% | 277.9hPa | 2.6V | 08:16:39 | 01:25:26 | 00:00:00 | |
| AA1-15 | 2026-09-03 10:56:55 | 52.23396 | 9.04671 | 130° | 203km/h | 9930m | -8.6m/s | -43.9°C | 71.3% | 279.3hPa | 2.7V | 08:17:05 | 01:25:30 | 00:00:00 | |
| DO2SHX-10 | 2026-09-03 10:56:55 | 52.23396 | 9.04671 | 130° | 204km/h | 9930m | -8.5m/s | -43.9°C | 67.8% | 279.3hPa | 2.6V | 00:00:00 | 01:25:30 | 00:00:00 | |
| DM0DOS-11 | 2026-09-03 10:56:53 | 52.23462 | 9.04542 | 129° | 204km/h | 9947m | -8.7m/s | -44.1°C | 68.6% | 278.7hPa | 2.6V | 08:16:37 | 01:25:28 | 00:00:00 | |
| DL1XH-15 | 2026-09-03 10:56:53 | 52.23595 | 9.04286 | 130° | 203km/h | 9982m | -8.6m/s | -44.4°C | 70.6% | 277.2hPa | 2.7V | 08:16:41 | 01:25:24 | 00:00:00 | |
| DL1XH-west | 2026-09-03 10:56:52 | 52.23495 | 9.04478 | 130° | 204km/h | 9955m | -9.3m/s | -44.1°C | 72.7% | 278.3hPa | 2.6V | 08:17:05 | 01:25:27 | 00:00:00 | |
| DO2JMG | 2026-09-03 10:56:51 | 52.23528 | 9.04414 | 130° | 203km/h | 9964m | -9.1m/s | -44.2°C | 73.2% | 277.9hPa | 2.6V | 08:17:05 | 01:25:26 | 00:00:00 | |
| BIOWL1-15 | 2026-09-03 10:56:50 | 52.23562 | 9.04350 | 130° | 203km/h | 9973m | -9.2m/s | -44.3°C | 73.7% | 277.6hPa | 2.7V | 08:17:05 | 01:25:25 | 00:00:00 | |
| HSKMA3-T | 2026-09-03 10:56:49 | 52.23595 | 9.04286 | 130° | 203km/h | 9982m | -8.6m/s | -44.4°C | 74.2% | 277.2hPa | 2.7V | 08:17:05 | 01:25:24 | 00:00:00 | |
| AA1-15 | 2026-09-03 10:56:45 | 52.23729 | 9.04028 | 130° | 206km/h | 10017m | -9m/s | -44.7°C | 74.9% | 275.8hPa | 2.6V | 08:17:05 | 01:25:20 | 00:00:00 | |
| DD8BA-10 | 2026-09-03 10:56:44 | 52.23762 | 9.03963 | 131° | 208km/h | 10025m | -9.0m/s | -44.7°C | 71.4% | 275.4hPa | 2.7V | 00:00:00 | 00:00:00 | 00:00:00 | |
| DL1XH1-15 | 2026-09-03 10:56:43 | 52.23864 | 9.03768 | 130° | 206km/h | 10051m | -8.4m/s | -44.9°C | 71% | 274.3hPa | 2.7V | 08:16:49 | 01:25:16 | 00:00:00 | |
| DL1XH-15 | 2026-09-03 10:56:43 | 52.23932 | 9.03639 | 130° | 206km/h | 10068m | -9.4m/s | -45°C | 70.6% | 273.6hPa | 2.6V | 08:16:51 | 01:25:14 | 00:00:00 | |
| DL1XH-west | 2026-09-03 10:56:42 | 52.23864 | 9.03768 | 131° | 206km/h | 10051m | -8.4m/s | -44.9°C | 74.5% | 274.4hPa | 2.7V | 08:17:05 | 01:25:16 | 00:00:00 | |
| DB0DAN | 2026-09-03 10:56:40 | 52.23898 | 9.03704 | 131° | 197km/h | 10060m | -9m/s | -45°C | 66% | 273.99hPa | 2.6V | 00:00:00 | 00:00:00 | 00:00:00 | |
| DO2JMG | 2026-09-03 10:56:40 | 52.23898 | 9.03704 | 131° | 206km/h | 10060m | -9m/s | -45°C | 74.3% | 274hPa | 2.6V | 08:17:05 | 01:25:15 | 00:00:00 | |
| BIOWL1-15 | 2026-09-03 10:56:39 | 52.23932 | 9.03639 | 131° | 206km/h | 10069m | -9.4m/s | -45°C | 74% | 273.6hPa | 2.6V | 08:17:05 | 01:25:14 | 00:00:00 | |
| HSKMA3-T | 2026-09-03 10:56:38 | 52.23967 | 9.03575 | 131° | 206km/h | 10078m | -9.1m/s | -45.1°C | 73.6% | 273.2hPa | 2.6V | 08:17:05 | 01:25:13 | 00:00:00 | |
| AA1-15 | 2026-09-03 10:56:35 | 52.24105 | 9.03315 | 131° | 208km/h | 10113m | -9m/s | -45.5°C | 70.4% | 271.9hPa | 2.7V | 08:17:05 | 01:25:09 | 00:00:00 | |
| DJ2DS-15 | 2026-09-03 10:56:35 | 52.24105 | 9.03315 | 131° | 206km/h | 10113m | -9.0m/s | -45.4°C | 66.9% | 271.8hPa | 2.7V | 00:00:00 | 01:25:09 | 00:00:00 | |
| DO2SHX-10 | 2026-09-03 10:56:34 | 52.24105 | 9.03315 | 131° | 208km/h | 10113m | -9.0m/s | -45.4°C | 66.9% | 271.8hPa | 2.7V | 08:16:00 | 01:25:09 | 00:00:00 | |
| DD1CC8 | 2026-09-03 10:56:33 | 52.24139 | 9.03251 | 131° | 208km/h | 10122m | -9.0m/s | -45.5°C | 60.8% | 271.5hPa | 2.7V | 00:00:00 | 00:00:00 | 00:00:00 | |
| DL4XJ-10 | 2026-09-03 10:56:32 | 52.24174 | 9.03186 | 132° | 206km/h | 10131m | -8.8m/s | -44.2°C | 0% | 0hPa | 2.7V | 00:00:00 | 00:00:00 | 00:00:00 | |
| DL1XH-15 | 2026-09-03 10:56:31 | 52.24279 | 9.02991 | 131° | 208km/h | 10157m | -9m/s | -45.7°C | 59% | 270hPa | 2.7V | 08:17:01 | 01:25:04 | 00:00:00 | |
| DL1XH-west | 2026-09-03 10:56:30 | 52.24244 | 9.03055 | 131° | 210km/h | 10148m | -8.8m/s | -45.7°C | 63.6% | 270.4hPa | 2.6V | 08:17:05 | 01:25:05 | 00:00:00 | |
| DO2JMG | 2026-09-03 10:56:29 | 52.24279 | 9.02991 | 131° | 208km/h | 10157m | -9m/s | -45.7°C | 62.8% | 270.1hPa | 2.7V | 08:17:05 | 01:25:04 | 00:00:00 | |
| HSKMA3-T | 2026-09-03 10:56:27 | 52.24348 | 9.02862 | 131° | 208km/h | 10175m | -9m/s | -45.9°C | 61.7% | 269.4hPa | 2.7V | 08:17:05 | 01:25:02 | 00:00:00 | |
| DF8AY | 2026-09-03 10:56:26 | 52.24383 | 9.02798 | 132° | 208km/h | 10184m | -9m/s | -46°C | 60.9% | 269hPa | 2.6V | 08:17:05 | 01:25:01 | 00:00:00 | |
| DB0DAN | 2026-09-03 10:56:25 | 52.24418 | 9.02733 | 131° | 197km/h | 10193m | -9m/s | -46.1°C | 51.7% | 268.65hPa | 2.6V | 00:00:00 | 00:00:00 | 00:00:00 | |
| DO2SHX-10 | 2026-09-03 10:56:25 | 52.24418 | 9.02733 | 132° | 206km/h | 10193m | -9.0m/s | -46.0°C | 56.2% | 268.6hPa | 2.6V | 00:00:00 | 01:25:00 | 00:00:00 | |
| DM0DOS-11 | 2026-09-03 10:56:24 | 52.24487 | 9.02605 | 131° | 206km/h | 10211m | -9.5m/s | -46.2°C | 53.6% | 267.9hPa | 2.6V | 08:17:07 | 01:24:58 | 00:00:00 | |
| AA1-15 | 2026-09-03 10:56:24 | 52.24453 | 9.02669 | 131° | 206km/h | 10202m | -9.1m/s | -46.2°C | 58.6% | 268.3hPa | 2.6V | 08:17:56 | 01:24:59 | 00:00:00 | |
| DL1XH-west | 2026-09-03 10:56:19 | 52.24623 | 9.02348 | 131° | 204km/h | 10246m | -8.7m/s | -46.4°C | 50.2% | 266.4hPa | 2.6V | 08:17:56 | 01:24:54 | 00:00:00 | |
| HSKMA3-T | 2026-09-03 10:56:17 | 52.24691 | 9.02220 | 130° | 206km/h | 10264m | -8.8m/s | -46.5°C | 48.2% | 265.7hPa | 2.6V | 08:17:56 | 01:24:52 | 00:00:00 | |
| DF8AY | 2026-09-03 10:56:15 | 52.24757 | 9.02091 | 130° | 204km/h | 10281m | -9m/s | -46.7°C | 46.5% | 265hPa | 2.7V | 08:17:56 | 01:24:50 | 00:00:00 | |
| AA1-15 | 2026-09-03 10:56:14 | 52.24790 | 9.02027 | 130° | 203km/h | 10290m | -9m/s | -46.8°C | 45.2% | 264.7hPa | 2.7V | 08:17:56 | 01:24:49 | 00:00:00 | |
| DJ2DS-15 | 2026-09-03 10:56:14 | 52.24790 | 9.02027 | 130° | 201km/h | 10290m | -9.0m/s | -46.7°C | 41.0% | 264.6hPa | 2.6V | 00:00:00 | 01:24:49 | 00:00:00 | |
| DL1XH1-15 | 2026-09-03 10:56:13 | 52.24887 | 9.01834 | 129° | 203km/h | 10316m | -8.8m/s | -47°C | 37.3% | 263.6hPa | 2.6V | 08:17:19 | 01:24:46 | 00:00:00 | |
| BIOWL1-15 | 2026-09-03 10:56:11 | 52.24952 | 9.01705 | 130° | 203km/h | 10333m | -8.4m/s | -47.1°C | 39.3% | 263hPa | 2.6V | 08:17:56 | 01:24:44 | 00:00:00 | |
| DB0DAN | 2026-09-03 10:56:10 | 52.24920 | 9.01770 | 129° | 192km/h | 10324m | -8.9m/s | -47°C | 32.5% | 263.34hPa | 2.6V | 00:00:00 | 00:00:00 | 00:00:00 | |
| DL1XH-west | 2026-09-03 10:56:09 | 52.24985 | 9.01641 | 129° | 201km/h | 10341m | -8.6m/s | -47.1°C | 38.4% | 262.7hPa | 2.7V | 08:17:56 | 01:24:43 | 00:00:00 | |
| HSKMA3-T | 2026-09-03 10:56:06 | 52.25048 | 9.01511 | 129° | 203km/h | 10359m | -8.9m/s | -47.2°C | 36.8% | 261.9hPa | 2.7V | 08:17:56 | 01:24:41 | 00:00:00 | |
| DF8AY | 2026-09-03 10:56:05 | 52.25080 | 9.01446 | 129° | 201km/h | 10368m | -8.8m/s | -47.3°C | 36.2% | 261.5hPa | 2.6V | 08:17:56 | 01:24:40 | 00:00:00 | |
| AA1-15 | 2026-09-03 10:56:03 | 52.25143 | 9.01316 | 128° | 201km/h | 10385m | -9m/s | -47.4°C | 35.1% | 260.9hPa | 2.6V | 08:17:56 | 01:24:38 | 00:00:00 | |
| DL1XH-15 | 2026-09-03 10:56:03 | 52.25267 | 9.01058 | 128° | 197km/h | 10419m | -7.9m/s | -47.6°C | 30.7% | 259.6hPa | 2.7V | 08:17:31 | 01:24:34 | 00:00:00 | |
| DL1XH1-15 | 2026-09-03 10:56:02 | 52.25205 | 9.01186 | 128° | 199km/h | 10402m | -8.1m/s | -47.5°C | 30.9% | 260.2hPa | 2.7V | 08:17:29 | 01:24:36 | 00:00:00 | |
| DO2JMG | 2026-09-03 10:55:58 | 52.25298 | 9.00994 | 128° | 197km/h | 10427m | -8.5m/s | -47.6°C | 33.8% | 259.2hPa | 2.6V | 08:17:56 | 01:24:33 | 00:00:00 | |
| DL1XH-west | 2026-09-03 10:55:57 | 52.25329 | 9.00930 | 129° | 197km/h | 10435m | -9m/s | -47.7°C | 33.8% | 258.9hPa | 2.6V | 08:17:56 | 01:24:32 | 00:00:00 | |
| HSKMA3-T | 2026-09-03 10:55:56 | 52.25360 | 9.00866 | 129° | 199km/h | 10444m | -8.8m/s | -47.7°C | 33.8% | 258.6hPa | 2.6V | 08:17:56 | 01:24:31 | 00:00:00 | |
| DB0DAN | 2026-09-03 10:55:55 | 52.25392 | 9.00802 | 129° | 192km/h | 10453m | -8.8m/s | -47.8°C | 26.9% | 258.25hPa | 2.6V | 00:00:00 | 00:00:00 | 00:00:00 | |
| DF8AY | 2026-09-03 10:55:54 | 52.25423 | 9.00738 | 128° | 201km/h | 10461m | -8.7m/s | -47.9°C | 33.9% | 257.9hPa | 2.7V | 08:17:56 | 01:24:29 | 00:00:00 | |
| AA1-15 | 2026-09-03 10:55:53 | 52.25454 | 9.00673 | 128° | 199km/h | 10470m | -8.9m/s | -47.9°C | 33.9% | 257.6hPa | 2.7V | 08:17:56 | 01:24:28 | 00:00:00 | |
| DO2SHX-10 | 2026-09-03 10:55:52 | 52.25485 | 9.00608 | 128° | 201km/h | 10479m | -8.8m/s | -48.0°C | 30.7% | 257.1hPa | 2.6V | 00:00:00 | 01:24:27 | 00:00:00 | |
| DL1XH-15 | 2026-09-03 10:55:49 | 52.25578 | 9.00412 | 127° | 201km/h | 10505m | -8.5m/s | -48.2°C | 30.4% | 256.2hPa | 2.6V | 08:17:41 | 01:24:24 | 00:00:00 | |
| DL1XH-west | 2026-09-03 10:55:47 | 52.25640 | 9.00281 | 128° | 201km/h | 10523m | -9.1m/s | -48.3°C | 33.2% | 255.5hPa | 2.7V | 08:17:56 | 01:24:22 | 00:00:00 | |
| HSKMA3-T | 2026-09-03 10:55:46 | 52.25670 | 9.00216 | 127° | 199km/h | 10532m | -9.7m/s | -48.4°C | 33% | 255.2hPa | 2.7V | 08:17:56 | 01:24:21 | 00:00:00 | |
| DF8AY | 2026-09-03 10:55:44 | 52.25731 | 9.00084 | 127° | 201km/h | 10549m | -8.4m/s | -48.4°C | 32.9% | 254.4hPa | 2.6V | 08:17:56 | 01:24:19 | 00:00:00 | |
| AA1-15 | 2026-09-03 10:55:42 | 52.25792 | 8.99952 | 127° | 201km/h | 10567m | -8.7m/s | -48.4°C | 33.1% | 253.8hPa | 2.6V | 08:17:56 | 01:24:17 | 00:00:00 | |
| GOEST3-10 | 2026-09-03 10:55:42 | 52.25792 | 8.99952 | 128° | 201km/h | 10567m | -8.7m/s | -48.4°C | 29.4% | 253.7hPa | 2.6V | 00:00:00 | 00:00:00 | 00:00:00 | |
| DO2LYB-13 | 2026-09-03 10:55:41 | 52.25792 | 8.99952 | 128° | 201km/h | 10567m | -8.7m/s | -48.4°C | 25.8% | 253.8hPa | 2.7V | 00:00:00 | 00:00:00 | 00:00:00 | |
| DB0DAN | 2026-09-03 10:55:40 | 52.25852 | 8.99820 | 126° | 192km/h | 10584m | -8.8m/s | -48.5°C | 25.9% | 253.09hPa | 2.7V | 00:00:00 | 00:00:00 | 00:00:00 | |
| DO2JMG | 2026-09-03 10:55:36 | 52.25971 | 8.99553 | 126° | 201km/h | 10618m | -8.8m/s | -48.7°C | 33.7% | 251.8hPa | 2.6V | 08:17:56 | 01:24:11 | 00:00:00 | |
| DM0DOS-11 | 2026-09-03 10:55:36 | 52.26116 | 8.99216 | 124° | 199km/h | 10661m | -8m/s | -48.9°C | 30.4% | 250.1hPa | 2.7V | 08:17:59 | 01:24:06 | 00:00:00 | |
| HSKMA3-T | 2026-09-03 10:55:36 | 52.26001 | 8.99486 | 125° | 199km/h | 10627m | -9.2m/s | -48.7°C | 33.8% | 251.5hPa | 2.6V | 08:17:56 | 01:24:10 | 00:00:00 | |
| DF8AY | 2026-09-03 10:55:35 | 52.26030 | 8.99419 | 125° | 199km/h | 10636m | -8.8m/s | -48.8°C | 33.9% | 251.2hPa | 2.6V | 08:17:56 | 01:24:09 | 00:00:00 | |
| AA1-15 | 2026-09-03 10:55:32 | 52.26087 | 8.99283 | 125° | 201km/h | 10653m | -8.3m/s | -48.8°C | 34.2% | 250.5hPa | 2.7V | 08:18:47 | 01:24:07 | 00:00:00 | |
| DO2JMG | 2026-09-03 10:55:25 | 52.26286 | 8.98803 | 124° | 204km/h | 10713m | -9.1m/s | -49.3°C | 35.8% | 248.2hPa | 2.7V | 08:18:47 | 01:24:00 | 00:00:00 | |
| DB0DAN | 2026-09-03 10:55:25 | 52.26286 | 8.98803 | 124° | 193km/h | 10713m | -9.1m/s | -49.3°C | 27.7% | 248.22hPa | 2.7V | 00:00:00 | 00:00:00 | 00:00:00 | |
| HSKMA3-T | 2026-09-03 10:55:24 | 52.26314 | 8.98733 | 123° | 203km/h | 10722m | -9.2m/s | -49.4°C | 36% | 247.9hPa | 2.7V | 08:18:47 | 01:23:59 | 00:00:00 | |
| DL1XH1-15 | 2026-09-03 10:55:24 | 52.26399 | 8.98523 | 122° | 203km/h | 10749m | -9m/s | -49.5°C | 32.3% | 246.9hPa | 2.6V | 08:18:09 | 01:23:56 | 00:00:00 | |
| DF8AY | 2026-09-03 10:55:23 | 52.26343 | 8.98663 | 123° | 203km/h | 10731m | -9.1m/s | -49.4°C | 36.3% | 247.5hPa | 2.6V | 08:18:47 | 01:23:58 | 00:00:00 | |
| AA1-15 | 2026-09-03 10:55:21 | 52.26399 | 8.98523 | 123° | 203km/h | 10749m | -9m/s | -49.5°C | 36.9% | 246.9hPa | 2.6V | 08:18:47 | 01:23:56 | 00:00:00 | |
| DO2JMG | 2026-09-03 10:55:14 | 52.26595 | 8.98027 | 123° | 206km/h | 10812m | -9.2m/s | -50°C | 39.2% | 244.5hPa | 2.6V | 08:18:47 | 01:23:49 | 00:00:00 | |
| DL1XH-west | 2026-09-03 10:55:13 | 52.26623 | 8.97956 | 123° | 208km/h | 10821m | -9m/s | -50.1°C | 39.5% | 244.2hPa | 2.6V | 08:18:47 | 01:23:48 | 00:00:00 | |
| DL1XH1-15 | 2026-09-03 10:55:13 | 52.26680 | 8.97812 | 122° | 206km/h | 10838m | -9.2m/s | -50.2°C | 35.4% | 243.5hPa | 2.7V | 08:18:19 | 01:23:46 | 00:00:00 | |
| DF8AY | 2026-09-03 10:55:12 | 52.26651 | 8.97884 | 122° | 208km/h | 10830m | -8.7m/s | -50.2°C | 39.8% | 243.8hPa | 2.7V | 08:18:47 | 01:23:47 | 00:00:00 | |
| DO2SHX-10 | 2026-09-03 10:55:12 | 52.26651 | 8.97884 | 123° | 208km/h | 10830m | -8.6m/s | -50.1°C | 35.1% | 243.8hPa | 2.7V | 08:18:00 | 01:23:47 | 00:00:00 | |
| DC6BW-12 | 2026-09-03 10:55:11 | 52.26651 | 8.97884 | 123° | 208km/h | 10830m | -8.7m/s | -50.2°C | 30.9% | 243.8hPa | 2.7V | 08:18:00 | 00:00:00 | 00:00:00 | |
| DB0DAN | 2026-09-03 10:55:10 | 52.26708 | 8.97740 | 123° | 197km/h | 10848m | -9.7m/s | -50.3°C | 31.5% | 243.11hPa | 2.7V | 00:00:00 | 00:00:00 | 00:00:00 | |
| AA1-15 | 2026-09-03 10:55:10 | 52.26708 | 8.97740 | 123° | 208km/h | 10848m | -9.7m/s | -50.3°C | 40.5% | 243.1hPa | 2.7V | 08:18:47 | 01:23:45 | 00:00:00 | |
| BIOWL1-15 | 2026-09-03 10:55:04 | 52.26878 | 8.97308 | 123° | 208km/h | 10903m | -8.8m/s | -50.8°C | 42.6% | 241.1hPa | 2.7V | 08:18:47 | 01:23:39 | 00:00:00 | |
| HSKMA3-T | 2026-09-03 10:55:03 | 52.26907 | 8.97236 | 123° | 206km/h | 10912m | -9m/s | -50.9°C | 43% | 240.8hPa | 2.7V | 08:18:47 | 01:23:38 | 00:00:00 | |
| DM0DOS-11 | 2026-09-03 10:55:02 | 52.26964 | 8.97093 | 123° | 206km/h | 10930m | -9.1m/s | -51°C | 39% | 240.2hPa | 2.6V | 08:18:29 | 01:23:36 | 00:00:00 | |
| DF8AY | 2026-09-03 10:55:02 | 52.26935 | 8.97165 | 123° | 208km/h | 10921m | -8.8m/s | -51°C | 43.3% | 240.5hPa | 2.6V | 08:18:47 | 01:23:37 | 00:00:00 | |
| AA1-15 | 2026-09-03 10:54:59 | 52.27021 | 8.96949 | 123° | 210km/h | 10949m | -9m/s | -51.2°C | 44.2% | 239.5hPa | 2.6V | 08:18:47 | 01:23:34 | 00:00:00 | |
| DL4BBY-15 | 2026-09-03 10:54:59 | 52.27021 | 8.96949 | 123° | 214km/h | 10949m | -9.0m/s | -49.8°C | 0% | 0hPa | 2.7V | 00:00:00 | 00:00:00 | 00:00:00 | |
| DL8OAI-8 | 2026-09-03 10:54:58 | 52.27021 | 8.96949 | 124° | 210km/h | 10949m | -9.0m/s | -51.2°C | 34.9% | 239.5hPa | 2.7V | 08:18:00 | 00:00:00 | 00:00:00 | |
| DO2SHX-10 | 2026-09-03 10:54:57 | 52.27079 | 8.96804 | 124° | 208km/h | 10966m | -9.2m/s | -51.3°C | 40.0% | 238.8hPa | 2.7V | 00:00:00 | 01:23:32 | 00:00:00 | |
| DL1XH1-15 | 2026-09-03 10:54:56 | 52.27250 | 8.96368 | 121° | 212km/h | 11025m | -9.4m/s | -51.9°C | 41.1% | 236.8hPa | 2.7V | 08:18:39 | 01:23:26 | 00:00:00 | |
| DB0DAN | 2026-09-03 10:54:55 | 52.27137 | 8.96660 | 123° | 199km/h | 10985m | -9.9m/s | -51.6°C | 35.6% | 238.15hPa | 2.6V | 00:00:00 | 00:00:00 | 00:00:00 | |
| DO2JMG | 2026-09-03 10:54:53 | 52.27193 | 8.96515 | 122° | 210km/h | 11004m | -10m/s | -51.8°C | 45.7% | 237.4hPa | 2.6V | 08:18:47 | 01:23:28 | 00:00:00 | |
| DL1XH-west | 2026-09-03 10:54:52 | 52.27221 | 8.96442 | 122° | 212km/h | 11015m | -10m/s | -51.8°C | 45.9% | 237.1hPa | 2.6V | 08:18:47 | 01:23:27 | 00:00:00 | |
| DL4XJ-10 | 2026-09-03 10:54:52 | 52.27221 | 8.96442 | 122° | 214km/h | 11015m | -10.0m/s | -50.5°C | 0% | 0hPa | 2.7V | 00:00:00 | 00:00:00 | 00:00:00 | |
| DL1XH-15 | 2026-09-03 10:54:51 | 52.27306 | 8.96218 | 122° | 214km/h | 11044m | -9.4m/s | -52.1°C | 41.5% | 236hPa | 2.7V | 08:18:41 | 01:23:24 | 00:00:00 | |
| DF8AY | 2026-09-03 10:54:51 | 52.27250 | 8.96368 | 122° | 214km/h | 11025m | -9.4m/s | -51.9°C | 46.1% | 236.8hPa | 2.7V | 08:18:47 | 01:23:26 | 00:00:00 | |
| AA1-15 | 2026-09-03 10:54:48 | 52.27335 | 8.96144 | 122° | 214km/h | 11053m | -9.1m/s | -52.2°C | 46.7% | 235.7hPa | 2.6V | 08:18:47 | 01:23:23 | 00:00:00 | |
| DO2SHX-10 | 2026-09-03 10:54:47 | 52.27364 | 8.96069 | 123° | 214km/h | 11062m | -9.4m/s | -52.2°C | 41.8% | 235.2hPa | 2.6V | 00:00:00 | 01:23:22 | 00:00:00 | |
| DL1XH1-15 | 2026-09-03 10:54:46 | 52.27534 | 8.95619 | 120° | 215km/h | 11119m | -9.9m/s | -52.8°C | 42.6% | 233.1hPa | 2.6V | 08:18:49 | 01:23:16 | 00:00:00 | |
| DL3AQ-11 | 2026-09-03 10:54:45 | 52.27421 | 8.95919 | 121° | 214km/h | 11081m | -9.9m/s | -52.4°C | 37.3% | 234.6hPa | 2.7V | 00:00:00 | 00:00:00 | 00:00:00 | |
| BIOWL1-15 | 2026-09-03 10:54:45 | 52.27477 | 8.95769 | 122° | 210km/h | 11100m | -9.9m/s | -52.6°C | 47.6% | 233.9hPa | 2.7V | 08:18:47 | 01:23:18 | 00:00:00 | |
| DO2JMG | 2026-09-03 10:54:42 | 52.27505 | 8.95694 | 122° | 214km/h | 11110m | -9.8m/s | -52.7°C | 47.6% | 233.5hPa | 2.7V | 08:19:38 | 01:23:17 | 00:00:00 | |
| DL1XH-west | 2026-09-03 10:54:41 | 52.27561 | 8.95543 | 121° | 212km/h | 11129m | -10.4m/s | -52.9°C | 47.9% | 232.8hPa | 2.6V | 08:19:38 | 01:23:15 | 00:00:00 | |
| DF8AY | 2026-09-03 10:54:41 | 52.27534 | 8.95618 | 121° | 215km/h | 11119m | -9.9m/s | -52.8°C | 47.7% | 233.1hPa | 2.6V | 08:19:38 | 01:23:16 | 00:00:00 | |
| DL1XH-15 | 2026-09-03 10:54:40 | 52.27589 | 8.95468 | 121° | 214km/h | 11139m | -10.1m/s | -52.9°C | 43% | 232.4hPa | 2.6V | 08:18:51 | 01:23:14 | 00:00:00 | |
| DB0DAN | 2026-09-03 10:54:40 | 52.27561 | 8.95543 | 121° | 203km/h | 11129m | -10.4m/s | -52.9°C | 37.9% | 232.83hPa | 2.6V | 00:00:00 | 00:00:00 | 00:00:00 | |
| AA1-15 | 2026-09-03 10:54:38 | 52.27618 | 8.95392 | 121° | 217km/h | 11150m | -10.3m/s | -53°C | 48.4% | 232hPa | 2.6V | 08:19:38 | 01:23:13 | 00:00:00 | |
| GOEST3-10 | 2026-09-03 10:54:37 | 52.27645 | 8.95316 | 121° | 215km/h | 11160m | -10.4m/s | -53.1°C | 43.7% | 231.7hPa | 2.7V | 00:00:00 | 01:23:12 | 00:00:00 | |
| SO1NDE-10 | 2026-09-03 10:54:36 | 52.27673 | 8.95240 | 122° | 215km/h | 11170m | -10.6m/s | -53.2°C | 44.0% | 231.3hPa | 2.7V | 00:00:00 | 01:23:11 | 00:00:00 | |
| DL1XH-15 | 2026-09-03 10:54:34 | 52.27872 | 8.94707 | 121° | 215km/h | 11241m | -10.6m/s | -53.9°C | 47% | 228.8hPa | 2.7V | 08:19:01 | 01:23:04 | 00:00:00 | |
| DM0DOS-11 | 2026-09-03 10:54:34 | 52.27815 | 8.94860 | 121° | 217km/h | 11221m | -9.6m/s | -53.7°C | 46.2% | 229.5hPa | 2.6V | 08:18:59 | 01:23:06 | 00:00:00 | |
| BIOWL1-15 | 2026-09-03 10:54:32 | 52.27786 | 8.94935 | 122° | 215km/h | 11211m | -10.3m/s | -53.6°C | 50.2% | 229.9hPa | 2.6V | 08:19:38 | 01:23:07 | 00:00:00 | |
| DL1XH-west | 2026-09-03 10:54:31 | 52.27815 | 8.94860 | 122° | 217km/h | 11221m | -9.6m/s | -53.7°C | 50.4% | 229.5hPa | 2.6V | 08:19:38 | 01:23:06 | 00:00:00 | |
| HSKMA3-T | 2026-09-03 10:54:30 | 52.27844 | 8.94783 | 121° | 217km/h | 11231m | -10.2m/s | -53.8°C | 50.8% | 229.1hPa | 2.7V | 08:19:38 | 01:23:05 | 00:00:00 | |
| AA1-15 | 2026-09-03 10:54:27 | 52.27928 | 8.94557 | 122° | 214km/h | 11262m | -10.6m/s | -54.1°C | 51.8% | 228hPa | 2.6V | 08:19:38 | 01:23:02 | 00:00:00 | |
| DO2SHX-10 | 2026-09-03 10:54:27 | 52.27928 | 8.94557 | 122° | 214km/h | 11262m | -10.6m/s | -54.0°C | 47.5% | 228.0hPa | 2.6V | 00:00:00 | 01:23:02 | 00:00:00 | |
| DB0DAN | 2026-09-03 10:54:25 | 52.27986 | 8.94407 | 122° | 206km/h | 11282m | -10.6m/s | -54.3°C | 42.6% | 227.31hPa | 2.6V | 00:00:00 | 00:00:00 | 00:00:00 | |
| DL1XH-15 | 2026-09-03 10:54:24 | 52.28158 | 8.93949 | 122° | 219km/h | 11344m | -10.3m/s | -54.8°C | 50.5% | 225.1hPa | 2.6V | 08:19:11 | 01:22:54 | 00:00:00 | |
| DO2SHX-10 | 2026-09-03 10:54:24 | 52.28014 | 8.94331 | 122° | 215km/h | 11293m | -10.1m/s | -54.3°C | 48.6% | 226.9hPa | 2.6V | 00:00:00 | 01:22:59 | 00:00:00 | |
| DL1XH1-15 | 2026-09-03 10:54:23 | 52.28101 | 8.94102 | 121° | 215km/h | 11323m | -10.8m/s | -54.7°C | 49.8% | 225.8hPa | 2.7V | 08:19:09 | 01:22:56 | 00:00:00 | |
| BIOWL1-15 | 2026-09-03 10:54:21 | 52.28100 | 8.94102 | 122° | 215km/h | 11323m | -10.8m/s | -54.7°C | 53.9% | 225.8hPa | 2.7V | 08:19:38 | 01:22:56 | 00:00:00 | |
| DL1XH-west | 2026-09-03 10:54:20 | 52.28129 | 8.94026 | 121° | 219km/h | 11333m | -10.7m/s | -54.8°C | 54.2% | 225.4hPa | 2.6V | 08:19:38 | 01:22:55 | 00:00:00 | |
| HSKMA3-T | 2026-09-03 10:54:19 | 52.28158 | 8.93949 | 122° | 219km/h | 11344m | -10.3m/s | -54.8°C | 54.5% | 225.1hPa | 2.6V | 08:19:38 | 01:22:54 | 00:00:00 | |
| DL1XH1-15 | 2026-09-03 10:54:18 | 52.28426 | 8.93273 | 123° | 208km/h | 11440m | -10.6m/s | -55.4°C | 52.5% | 221.7hPa | 2.6V | 08:19:20 | 01:22:45 | 00:00:00 | |
| AA1-15 | 2026-09-03 10:54:17 | 52.28247 | 8.93718 | 123° | 221km/h | 11376m | -10.4m/s | -55.1°C | 55.8% | 224hPa | 2.7V | 08:19:38 | 01:22:51 | 00:00:00 | |
| DL8OAI-8 | 2026-09-03 10:54:17 | 52.28217 | 8.93795 | 123° | 219km/h | 11365m | -11.1m/s | -55.0°C | 45.7% | 224.3hPa | 2.7V | 08:19:00 | 00:00:00 | 00:00:00 | |
| BIOWL9-15 | 2026-09-03 10:54:16 | 52.28277 | 8.93642 | 122° | 219km/h | 11386m | -10.7m/s | -55.2°C | 46.8% | 223.6hPa | 2.7V | 00:00:00 | 00:00:00 | 00:00:00 | |
| DO2SHX-10 | 2026-09-03 10:54:15 | 52.28277 | 8.93642 | 123° | 219km/h | 11386m | -10.6m/s | -55.1°C | 52.7% | 223.6hPa | 2.7V | 00:00:00 | 01:22:50 | 00:00:00 | |
| DL1XH-15 | 2026-09-03 10:54:14 | 52.28455 | 8.93200 | 122° | 208km/h | 11451m | -10.7m/s | -55.5°C | 52.5% | 221.3hPa | 2.7V | 08:19:21 | 01:22:44 | 00:00:00 | |
| DO2JMG | 2026-09-03 10:54:10 | 52.28426 | 8.93273 | 123° | 208km/h | 11440m | -10.6m/s | -55.4°C | 56.5% | 221.7hPa | 2.6V | 08:19:38 | 01:22:45 | 00:00:00 | |
| DB0DAN | 2026-09-03 10:54:10 | 52.28426 | 8.93273 | 123° | 199km/h | 11440m | -10.6m/s | -55.4°C | 46.6% | 221.7hPa | 2.6V | 00:00:00 | 00:00:00 | 00:00:00 | |
| DL1XH-west | 2026-09-03 10:54:09 | 52.28455 | 8.93200 | 123° | 208km/h | 11451m | -10.7m/s | -55.5°C | 56.3% | 221.3hPa | 2.7V | 08:19:38 | 01:22:44 | 00:00:00 | |
| AA1-15 | 2026-09-03 10:54:06 | 52.28540 | 8.92981 | 122° | 212km/h | 11480m | -9.1m/s | -55.6°C | 55.2% | 220.3hPa | 2.6V | 08:19:38 | 01:22:41 | 00:00:00 | |
| DL1NUX | 2026-09-03 10:54:06 | 52.28540 | 8.92981 | 122° | 212km/h | 11480m | -9.1m/s | -55.6°C | 51.9% | 220.3hPa | 2.6V | 08:19:24 | 01:22:41 | 00:00:00 | |
| DL3AQ-11 | 2026-09-03 10:54:06 | 52.28569 | 8.92906 | 121° | 212km/h | 11490m | -10.0m/s | -55.6°C | 45.4% | 220.0hPa | 2.6V | 00:00:00 | 00:00:00 | 00:00:00 | |
| DO2SHX-10 | 2026-09-03 10:54:05 | 52.28569 | 8.92906 | 122° | 217km/h | 11490m | -10.0m/s | -55.6°C | 51.4% | 220.0hPa | 2.6V | 00:00:00 | 01:22:40 | 00:00:00 | |
| DD8BA-10 | 2026-09-03 10:54:04 | 52.28597 | 8.92831 | 123° | 223km/h | 11499m | -9.7m/s | -55.6°C | 51.5% | 219.6hPa | 2.6V | 08:19:00 | 00:00:00 | 00:00:00 | |
| DK9SH | 2026-09-03 10:54:03 | 52.28597 | 8.92831 | 123° | 215km/h | 11499m | -9.7m/s | -55.7°C | 45.6% | 219.7hPa | 2.6V | 08:19:00 | 00:00:00 | 00:00:00 | |
| HTAHTA | 2026-09-03 10:54:02 | 52.28717 | 8.92522 | 122° | 224km/h | 11538m | -9.6m/s | -56.0°C | 45.7% | 218.3hPa | 2.6V | 00:00:00 | 00:00:00 | 00:00:00 | |
| DL1NUX | 2026-09-03 10:54:01 | 52.28838 | 8.92208 | 123° | 224km/h | 11578m | -9.9m/s | -56.3°C | 51.8% | 216.9hPa | 2.6V | 08:19:34 | 01:22:31 | 00:00:00 | |
| DO2JMG | 2026-09-03 10:54:00 | 52.28717 | 8.92522 | 122° | 226km/h | 11538m | -9.6m/s | -56°C | 55.7% | 218.3hPa | 2.7V | 08:19:38 | 01:22:35 | 00:00:00 | |
| DL1XH-15 | 2026-09-03 10:53:59 | 52.28748 | 8.92443 | 121° | 224km/h | 11547m | -10.6m/s | -56°C | 51.7% | 217.9hPa | 2.6V | 08:19:31 | 01:22:34 | 00:00:00 | |
| DL1XH-west | 2026-09-03 10:53:59 | 52.28747 | 8.92443 | 122° | 226km/h | 11547m | -10.6m/s | -56.1°C | 55.7% | 217.9hPa | 2.6V | 08:19:38 | 01:22:34 | 00:00:00 | |
| AA1-15 | 2026-09-03 10:53:56 | 52.28838 | 8.92208 | 123° | 224km/h | 11578m | -9.9m/s | -56.3°C | 55.7% | 216.9hPa | 2.6V | 08:19:38 | 01:22:31 | 00:00:00 | |
| DO2SHX-10 | 2026-09-03 10:53:56 | 52.28838 | 8.92208 | 124° | 221km/h | 11578m | -9.9m/s | -56.2°C | 51.8% | 216.9hPa | 2.6V | 00:00:00 | 01:22:31 | 00:00:00 | |
| DL1XH1-15 | 2026-09-03 10:53:55 | 52.28992 | 8.91829 | 123° | 219km/h | 11629m | -10.2m/s | -56.6°C | 51.8% | 215.2hPa | 2.6V | 08:19:39 | 01:22:26 | 00:00:00 | |
| DB0DAN | 2026-09-03 10:53:55 | 52.28869 | 8.92131 | 123° | 212km/h | 11588m | -10.3m/s | -56.4°C | 45.8% | 216.57hPa | 2.7V | 00:00:00 | 00:00:00 | 00:00:00 | |
| DL1XH-15 | 2026-09-03 10:53:54 | 52.29145 | 8.91450 | 123° | 219km/h | 11680m | -10.2m/s | -56.9°C | 51.8% | 213.5hPa | 2.7V | 08:19:44 | 01:22:21 | 00:00:00 | |
| DD8BA-10 | 2026-09-03 10:53:54 | 52.28900 | 8.92055 | 124° | 219km/h | 11598m | -10.2m/s | -56.4°C | 51.7% | 216.2hPa | 2.7V | 00:00:00 | 00:00:00 | 00:00:00 | |
| DF8AY-15 | 2026-09-03 10:53:53 | 52.28930 | 8.91980 | 124° | 219km/h | 11609m | -10.4m/s | -56.4°C | 51.8% | 215.9hPa | 2.7V | 08:19:00 | 01:22:28 | 00:00:00 | |
| GOEST3-10 | 2026-09-03 10:53:52 | 52.28961 | 8.91905 | 124° | 221km/h | 11619m | -10.3m/s | -56.5°C | 51.9% | 215.5hPa | 2.7V | 00:00:00 | 00:00:00 | 00:00:00 | |
| DL1NUX | 2026-09-03 10:53:51 | 52.29145 | 8.91450 | 123° | 219km/h | 11680m | -10.2m/s | -56.9°C | 51.8% | 213.5hPa | 2.7V | 08:19:44 | 01:22:21 | 00:00:00 | |
| BIOWL1-15 | 2026-09-03 10:53:50 | 52.29206 | 8.91300 | 124° | 219km/h | 11698m | -8.3m/s | -57°C | 54.5% | 212.8hPa | 2.6V | 08:20:29 | 01:22:19 | 00:00:00 | |
| DO2JMG | 2026-09-03 10:53:49 | 52.29053 | 8.91677 | 124° | 223km/h | 11648m | -10.4m/s | -56.7°C | 55% | 214.6hPa | 2.6V | 08:20:29 | 01:22:24 | 00:00:00 | |
| DL1XH-west | 2026-09-03 10:53:49 | 52.29114 | 8.91525 | 123° | 219km/h | 11670m | -10.8m/s | -56.8°C | 54.9% | 213.8hPa | 2.7V | 08:20:29 | 01:22:22 | 00:00:00 | |
| HSKMA3-T | 2026-09-03 10:53:49 | 52.29084 | 8.91601 | 123° | 221km/h | 11659m | -10.8m/s | -56.8°C | 55% | 214.2hPa | 2.7V | 08:20:29 | 01:22:23 | 00:00:00 | |
| AA1-15 | 2026-09-03 10:53:45 | 52.29175 | 8.91375 | 124° | 217km/h | 11689m | -8.9m/s | -57°C | 54.8% | 213.1hPa | 2.6V | 08:20:29 | 01:22:20 | 00:00:00 | |
| DL1XH1-15 | 2026-09-03 10:53:44 | 52.29299 | 8.91076 | 124° | 217km/h | 11724m | -10.1m/s | -57.3°C | 49.1% | 212hPa | 2.7V | 08:19:49 | 01:22:16 | 00:00:00 | |
| DJ2KF-10 | 2026-09-03 10:53:44 | 52.29206 | 8.91300 | 124° | 219km/h | 11698m | -8.3m/s | -57.0°C | 51.3% | 212.8hPa | 2.7V | 00:00:00 | 01:22:19 | 00:00:00 | |
| GOEST3-10 | 2026-09-03 10:53:42 | 52.29268 | 8.91150 | 125° | 219km/h | 11715m | -8.7m/s | -57.1°C | 49.9% | 212.2hPa | 2.7V | 08:19:00 | 00:00:00 | 00:00:00 | |
| DL1NUX | 2026-09-03 10:53:41 | 52.29457 | 8.90706 | 125° | 219km/h | 11774m | -10m/s | -57.5°C | 47.7% | 210.3hPa | 2.7V | 08:19:54 | 01:22:11 | 00:00:00 | |
| DF5WG-10 | 2026-09-03 10:53:41 | 52.29330 | 8.91002 | 125° | 219km/h | 11735m | -10.1m/s | -57.3°C | 48.4% | 211.6hPa | 2.7V | 00:00:00 | 01:22:15 | 00:00:00 | |
| DL1XH-15 | 2026-09-03 10:53:40 | 52.29425 | 8.90780 | 124° | 219km/h | 11764m | -9.2m/s | -57.5°C | 47.5% | 210.7hPa | 2.7V | 08:19:53 | 01:22:12 | 00:00:00 | |
| DB0DAN | 2026-09-03 10:53:40 | 52.29331 | 8.91002 | 125° | 208km/h | 11735m | -10.2m/s | -57.3°C | 42.3% | 211.63hPa | 2.6V | 00:00:00 | 00:00:00 | 00:00:00 | |
| DL1XH-west | 2026-09-03 10:53:38 | 52.29394 | 8.90854 | 125° | 217km/h | 11754m | -10.7m/s | -57.5°C | 51.8% | 211hPa | 2.6V | 08:20:29 | 01:22:13 | 00:00:00 | |
| BIOWL1-15 | 2026-09-03 10:53:37 | 52.29425 | 8.90780 | 125° | 219km/h | 11764m | -9.2m/s | -57.5°C | 51.4% | 210.7hPa | 2.7V | 08:20:29 | 01:22:12 | 00:00:00 | |
| AA1-15 | 2026-09-03 10:53:34 | 52.29520 | 8.90559 | 125° | 219km/h | 11791m | -7.4m/s | -57.7°C | 50.5% | 209.8hPa | 2.6V | 08:20:29 | 01:22:09 | 00:00:00 | |
| DJ2DS-15 | 2026-09-03 10:53:34 | 52.29520 | 8.90559 | 126° | 219km/h | 11791m | -7.3m/s | -57.6°C | 48.2% | 209.7hPa | 2.7V | 00:00:00 | 01:22:09 | 00:00:00 | |
| DF8AY-15 | 2026-09-03 10:53:33 | 52.29552 | 8.90485 | 126° | 219km/h | 11799m | -7.1m/s | -57.7°C | 48.3% | 209.4hPa | 2.7V | 00:00:00 | 01:22:08 | 00:00:00 | |
| DL1XH-15 | 2026-09-03 10:53:32 | 52.29744 | 8.90044 | 125° | 217km/h | 11843m | -9m/s | -58.1°C | 45.9% | 208.1hPa | 2.7V | 08:20:03 | 01:22:02 | 00:00:00 | |
| DL4XJ-10 | 2026-09-03 10:53:32 | 52.29584 | 8.90411 | 126° | 219km/h | 11805m | -7.1m/s | -56.5°C | 0% | 0hPa | 2.6V | 00:00:00 | 00:00:00 | 00:00:00 | |
| DJ2DS-15 | 2026-09-03 10:53:31 | 52.29648 | 8.90264 | 125° | 219km/h | 11820m | -6.5m/s | -57.9°C | 41.1% | 208.8hPa | 2.6V | 00:00:00 | 00:00:00 | 00:00:00 | |
| DL1NUX | 2026-09-03 10:53:30 | 52.29808 | 8.89898 | 125° | 219km/h | 11860m | -8.6m/s | -58.2°C | 44.7% | 207.5hPa | 2.6V | 08:20:05 | 01:22:00 | 00:00:00 | |
| DF8AY | 2026-09-03 10:53:28 | 52.29744 | 8.90044 | 126° | 217km/h | 11843m | -9m/s | -58.1°C | 47.7% | 208.1hPa | 2.7V | 08:20:29 | 01:22:02 | 00:00:00 | |
| DL1XH-west | 2026-09-03 10:53:28 | 52.29712 | 8.90117 | 126° | 217km/h | 11834m | -9.4m/s | -58°C | 48.1% | 208.4hPa | 2.7V | 08:20:29 | 01:22:03 | 00:00:00 | |
| HSKMA3-T | 2026-09-03 10:53:26 | 52.29776 | 8.89971 | 126° | 219km/h | 11852m | -7.7m/s | -58.1°C | 47.1% | 207.8hPa | 2.6V | 08:20:29 | 01:22:01 | 00:00:00 | |
| AA1-15 | 2026-09-03 10:53:23 | 52.29872 | 8.89751 | 126° | 221km/h | 11877m | -8.9m/s | -58.4°C | 45.5% | 206.9hPa | 2.7V | 08:20:29 | 01:21:58 | 00:00:00 | |
| DO2SHX-10 | 2026-09-03 10:53:23 | 52.29872 | 8.89751 | 127° | 219km/h | 11877m | -8.9m/s | -58.3°C | 43.9% | 206.9hPa | 2.6V | 00:00:00 | 01:21:58 | 00:00:00 | |
| GOEST3-10 | 2026-09-03 10:53:22 | 52.29905 | 8.89678 | 127° | 219km/h | 11887m | -9.2m/s | -58.4°C | 43.4% | 206.6hPa | 2.6V | 00:00:00 | 00:00:00 | 00:00:00 | |
| DO2SHX-10 | 2026-09-03 10:53:20 | 52.29970 | 8.89531 | 127° | 219km/h | 11904m | -7.7m/s | -58.5°C | 42.9% | 206.0hPa | 2.6V | 00:00:00 | 01:21:55 | 00:00:00 | |
| DL1XH-15 | 2026-09-03 10:53:19 | 52.30069 | 8.89313 | 126° | 219km/h | 11928m | -9m/s | -58.7°C | 40.8% | 205.2hPa | 2.6V | 08:20:13 | 01:21:52 | 00:00:00 | |
| DO3DL | 2026-09-03 10:53:19 | 52.29970 | 8.89532 | 127° | 221km/h | 11904m | -7.7m/s | -58.6°C | 36.6% | 206.0hPa | 2.7V | 08:20:00 | 00:00:00 | 00:00:00 | |
| DL1NUX | 2026-09-03 10:53:18 | 52.30136 | 8.89169 | 127° | 217km/h | 11947m | -10m/s | -58.8°C | 39.5% | 204.6hPa | 2.7V | 08:20:15 | 01:21:50 | 00:00:00 | |
| DL1XH-west | 2026-09-03 10:53:18 | 52.30036 | 8.89386 | 127° | 219km/h | 11920m | -8m/s | -58.7°C | 42% | 205.5hPa | 2.6V | 08:20:29 | 01:21:53 | 00:00:00 | |
| DO2JMG | 2026-09-03 10:53:17 | 52.30070 | 8.89313 | 127° | 219km/h | 11928m | -9m/s | -58.7°C | 41.1% | 205.3hPa | 2.6V | 08:20:29 | 01:21:52 | 00:00:00 | |
| DF8AY | 2026-09-03 10:53:16 | 52.30103 | 8.89241 | 127° | 221km/h | 11937m | -9.1m/s | -58.8°C | 40.3% | 205hPa | 2.7V | 08:20:29 | 01:21:51 | 00:00:00 | |
| HSKMA3-T | 2026-09-03 10:53:15 | 52.30136 | 8.89169 | 127° | 217km/h | 11947m | -10m/s | -58.8°C | 39.4% | 204.6hPa | 2.7V | 08:20:29 | 01:21:50 | 00:00:00 | |
| AA1-15 | 2026-09-03 10:53:12 | 52.30236 | 8.88954 | 127° | 217km/h | 11974m | -8.3m/s | -59°C | 36.5% | 203.7hPa | 2.6V | 08:20:29 | 01:21:47 | 00:00:00 | |
| DL4XJ-10 | 2026-09-03 10:53:12 | 52.30236 | 8.88954 | 128° | 204km/h | 11975m | -8.3m/s | -57.6°C | 0% | 0hPa | 2.6V | 00:00:00 | 00:00:00 | 00:00:00 | |
| DL3OBA | 2026-09-03 10:53:11 | 52.30236 | 8.88954 | 128° | 217km/h | 11974m | -8.3m/s | -59.0°C | 31.3% | 203.7hPa | 2.6V | 08:20:00 | 00:00:00 | 00:00:00 | |
| DB0DAN | 2026-09-03 10:53:10 | 52.30303 | 8.88813 | 128° | 204km/h | 11991m | -9.1m/s | -59.1°C | 29.7% | 203.2hPa | 2.6V | 00:00:00 | 00:00:00 | 00:00:00 | |
| DL1NUX | 2026-09-03 10:53:10 | 52.30469 | 8.88472 | 128° | 206km/h | 12033m | -8.1m/s | -59°C | 30.4% | 201.8hPa | 2.6V | 08:20:25 | 01:21:40 | 00:00:00 | |
| DO2JMG | 2026-09-03 10:53:07 | 52.30403 | 8.88606 | 129° | 212km/h | 12016m | -8.7m/s | -59°C | 31.7% | 202.4hPa | 2.7V | 08:20:29 | 01:21:42 | 00:00:00 | |
| BIOWL7-15 | 2026-09-03 10:53:07 | 52.30403 | 8.88606 | 130° | 212km/h | 12016m | -8.7m/s | -59.0°C | 26.9% | 202.4hPa | 2.6V | 00:00:00 | 00:00:00 | 00:00:00 | |
| DC6BW-12 | 2026-09-03 10:53:06 | 52.30403 | 8.88606 | 130° | 212km/h | 12016m | -8.7m/s | -59.0°C | 26.9% | 202.4hPa | 2.6V | 08:20:00 | 00:00:00 | 00:00:00 | |
| SO1NDE-10 | 2026-09-03 10:53:05 | 52.30469 | 8.88472 | 129° | 186km/h | 12033m | -8.1m/s | -59.0°C | 30.4% | 201.7hPa | 2.6V | 00:00:00 | 01:21:40 | 00:00:00 | |
| BIOWL1-15 | 2026-09-03 10:53:05 | 52.30469 | 8.88472 | 129° | 206km/h | 12033m | -8.1m/s | -59°C | 29.6% | 201.8hPa | 2.6V | 08:20:29 | 01:21:40 | 00:00:00 | |
| DD8BA-10 | 2026-09-03 10:53:04 | 52.30502 | 8.88405 | 129° | 201km/h | 12041m | -8.2m/s | -59.0°C | 29.4% | 201.6hPa | 2.6V | 00:00:00 | 00:00:00 | 00:00:00 | |
| DL1XH1-15 | 2026-09-03 10:53:03 | 52.30599 | 8.88208 | 129° | 204km/h | 12067m | -7.2m/s | -59°C | 27.1% | 200.8hPa | 2.6V | 08:20:29 | 01:21:36 | 00:00:00 | |
| AA1-15 | 2026-09-03 10:53:02 | 52.30567 | 8.88274 | 129° | 204km/h | 12059m | -8.7m/s | -59°C | 26.7% | 201hPa | 2.7V | 08:20:29 | 01:21:37 | 00:00:00 | |
| DK9SH | 2026-09-03 10:53:02 | 52.30567 | 8.88273 | 130° | 204km/h | 12059m | -8.7m/s | -59.0°C | 22.2% | 201.0hPa | 2.6V | 08:20:00 | 00:00:00 | 00:00:00 | |
| DF5WG-10 | 2026-09-03 10:53:00 | 52.30631 | 8.88143 | 129° | 195km/h | 12075m | -8.0m/s | -59.0°C | 26.5% | 200.5hPa | 2.6V | 00:00:00 | 01:21:35 | 00:00:00 | |
| DL1NUX | 2026-09-03 10:52:59 | 52.30790 | 8.87826 | 129° | 193km/h | 12113m | -8.6m/s | -58.4°C | 22.4% | 199.3hPa | 2.6V | 08:20:35 | 01:21:30 | 00:00:00 | |
| DL1XH-west | 2026-09-03 10:52:57 | 52.30727 | 8.87951 | 129° | 197km/h | 12098m | -6m/s | -58.7°C | 22.9% | 199.8hPa | 2.7V | 08:21:20 | 01:21:32 | 00:00:00 | |
| DO2JMG | 2026-09-03 10:52:56 | 52.30758 | 8.87888 | 129° | 197km/h | 12105m | -7.7m/s | -58.6°C | 22% | 199.5hPa | 2.7V | 08:21:20 | 01:21:31 | 00:00:00 | |
| HSKMA3-T | 2026-09-03 10:52:55 | 52.30790 | 8.87826 | 130° | 193km/h | 12113m | -8.6m/s | -58.4°C | 21.3% | 199.3hPa | 2.6V | 08:21:20 | 01:21:30 | 00:00:00 | |
| BIOWL1-15 | 2026-09-03 10:52:54 | 52.30821 | 8.87765 | 131° | 192km/h | 12121m | -7.6m/s | -58.2°C | 20.5% | 199.1hPa | 2.6V | 08:21:20 | 01:21:29 | 00:00:00 | |
| AA1-15 | 2026-09-03 10:52:51 | 52.30913 | 8.87586 | 130° | 188km/h | 12145m | -9.7m/s | -57.9°C | 18.4% | 198.3hPa | 2.7V | 08:21:20 | 01:21:26 | 00:00:00 | |
| DO9LL-15 | 2026-09-03 10:52:51 | 52.30913 | 8.87586 | 130° | 172km/h | 12145m | -9.6m/s | -57.9°C | 18.7% | 198.3hPa | 2.7V | 00:00:00 | 01:21:26 | 00:00:00 | |
| DL1LOL-11 | 2026-09-03 10:52:50 | 52.30943 | 8.87527 | 130° | 184km/h | 12155m | -9.4m/s | -57.8°C | 13.9% | 198.0hPa | 2.7V | 00:00:00 | 00:00:00 | 00:00:00 | |
| DL1NUX | 2026-09-03 10:52:49 | 52.31117 | 8.87176 | 128° | 179km/h | 12207m | -10.2m/s | -57.6°C | 14.6% | 196.4hPa | 2.7V | 08:20:46 | 01:21:19 | 00:00:00 | |
| DL1XH-west | 2026-09-03 10:52:47 | 52.31031 | 8.87351 | 129° | 183km/h | 12181m | -8.1m/s | -57.7°C | 15.9% | 197.1hPa | 2.6V | 08:21:20 | 01:21:22 | 00:00:00 | |
| DL1XH1-15 | 2026-09-03 10:52:47 | 52.31227 | 8.86948 | 128° | 173km/h | 12244m | -8.6m/s | -57.2°C | 13.1% | 195.2hPa | 2.6V | 08:20:50 | 01:21:15 | 00:00:00 | |
| DO2JMG | 2026-09-03 10:52:47 | 52.31060 | 8.87292 | 129° | 183km/h | 12189m | -8.2m/s | -57.6°C | 15.3% | 196.8hPa | 2.6V | 08:21:20 | 01:21:21 | 00:00:00 | |
| DL3AQ-11 | 2026-09-03 10:52:46 | 52.31089 | 8.87234 | 128° | 177km/h | 12198m | -8.7m/s | -57.6°C | 11.1% | 196.7hPa | 2.7V | 00:00:00 | 00:00:00 | 00:00:00 | |
| BIOWL1-15 | 2026-09-03 10:52:45 | 52.31145 | 8.87118 | 128° | 177km/h | 12217m | -9.6m/s | -57.5°C | 13.7% | 196hPa | 2.7V | 08:21:20 | 01:21:18 | 00:00:00 | |
| HSKMA3-T | 2026-09-03 10:52:44 | 52.31117 | 8.87176 | 128° | 179km/h | 12207m | -10.2m/s | -57.6°C | 14.1% | 196.4hPa | 2.7V | 08:21:20 | 01:21:19 | 00:00:00 | |
| AA1-15 | 2026-09-03 10:52:41 | 52.31200 | 8.87004 | 128° | 175km/h | 12236m | -8m/s | -57.2°C | 12.7% | 195.4hPa | 2.6V | 08:21:20 | 01:21:16 | 00:00:00 | |
| DL1XH-west | 2026-09-03 10:52:37 | 52.31307 | 8.86779 | 128° | 172km/h | 12269m | -9.1m/s | -57.1°C | 11.1% | 194.5hPa | 2.7V | 08:21:20 | 01:21:12 | 00:00:00 | |
| DO2JMG | 2026-09-03 10:52:35 | 52.31360 | 8.86669 | 128° | 170km/h | 12285m | -7.6m/s | -57.1°C | 10.4% | 193.9hPa | 2.6V | 08:21:20 | 01:21:10 | 00:00:00 | |
| HSKMA3-T | 2026-09-03 10:52:34 | 52.31386 | 8.86613 | 128° | 168km/h | 12293m | -8.4m/s | -57.1°C | 10.1% | 193.8hPa | 2.6V | 08:21:20 | 01:21:09 | 00:00:00 | |
| BIOWL1-15 | 2026-09-03 10:52:33 | 52.31412 | 8.86559 | 127° | 166km/h | 12302m | -9.3m/s | -57.2°C | 9.8% | 193.5hPa | 2.7V | 08:21:20 | 01:21:08 | 00:00:00 | |
| AA1-15 | 2026-09-03 10:52:31 | 52.31462 | 8.86450 | 126° | 162km/h | 12320m | -9.1m/s | -57.2°C | 9.4% | 192.9hPa | 2.7V | 08:21:20 | 01:21:06 | 00:00:00 | |
| DF5WG-10 | 2026-09-03 10:52:30 | 52.31486 | 8.86395 | 126° | 161km/h | 12329m | -8.4m/s | -57.1°C | 10.9% | 192.5hPa | 2.6V | 00:00:00 | 01:21:05 | 00:00:00 | |
| DL1XH-15 | 2026-09-03 10:52:29 | 52.31556 | 8.86230 | 123° | 161km/h | 12350m | -7.4m/s | -57.3°C | 10.4% | 192hPa | 2.6V | 08:21:03 | 01:21:02 | 00:00:00 | |
| DL1XH-west | 2026-09-03 10:52:26 | 52.31579 | 8.86174 | 123° | 161km/h | 12357m | -6.6m/s | -57.3°C | 8.1% | 191.8hPa | 2.7V | 08:21:20 | 01:21:01 | 00:00:00 | |
| DB0DAN | 2026-09-03 10:52:25 | 52.31601 | 8.86118 | 122° | 153km/h | 12365m | -7.6m/s | -57.5°C | 6.5% | 191.52hPa | 2.7V | 00:00:00 | 00:00:00 | 00:00:00 | |
| DO2JMG | 2026-09-03 10:52:24 | 52.31622 | 8.86061 | 122° | 161km/h | 12372m | -7m/s | -57.5°C | 7.6% | 191.3hPa | 2.7V | 08:21:20 | 01:20:59 | 00:00:00 | |
| DF8AY | 2026-09-03 10:52:23 | 52.31644 | 8.86005 | 122° | 161km/h | 12379m | -8m/s | -57.5°C | 7.3% | 191.2hPa | 2.6V | 08:21:20 | 01:20:58 | 00:00:00 | |
| BIOWL1-15 | 2026-09-03 10:52:22 | 52.31706 | 8.85836 | 121° | 159km/h | 12404m | -6.3m/s | -57.4°C | 6.5% | 190.3hPa | 2.7V | 08:21:20 | 01:20:55 | 00:00:00 | |
| AA1-15 | 2026-09-03 10:52:21 | 52.31686 | 8.85892 | 121° | 159km/h | 12396m | -8m/s | -57.3°C | 6.7% | 190.5hPa | 2.6V | 08:21:20 | 01:20:56 | 00:00:00 | |
| DO9LL-15 | 2026-09-03 10:52:21 | 52.31686 | 8.85892 | 121° | 153km/h | 12396m | -7.9m/s | -57.3°C | 9.1% | 190.5hPa | 2.6V | 08:21:00 | 01:20:56 | 00:00:00 | |
| DL1NUX | 2026-09-03 10:52:19 | 52.31727 | 8.85780 | 120° | 157km/h | 12410m | -6.6m/s | -57.4°C | 8.9% | 190.1hPa | 2.7V | 08:21:11 | 01:20:54 | 00:00:00 | |
| DL1XH-west | 2026-09-03 10:52:15 | 52.31827 | 8.85504 | 120° | 153km/h | 12448m | -6.6m/s | -56.9°C | 5.2% | 189hPa | 2.7V | 08:21:20 | 01:20:49 | 00:00:00 | |
| HSKMA3-T | 2026-09-03 10:52:15 | 52.31846 | 8.85449 | 119° | 153km/h | 12456m | -7.7m/s | -56.5°C | 5% | 188.8hPa | 2.7V | 08:21:20 | 01:20:48 | 00:00:00 | |
| DJ2DS-15 | 2026-09-03 10:52:15 | 52.31827 | 8.85504 | 121° | 153km/h | 12449m | -6.6m/s | -56.8°C | 7.9% | 188.9hPa | 2.7V | 00:00:00 | 01:20:49 | 00:00:00 | |
| DL1NUX | 2026-09-03 10:52:13 | 52.31942 | 8.85167 | 118° | 159km/h | 12496m | -7.8m/s | -56°C | 7.1% | 187.6hPa | 2.7V | 08:21:22 | 01:20:43 | 00:00:00 | |
| DF8AY | 2026-09-03 10:52:13 | 52.31865 | 8.85393 | 119° | 155km/h | 12464m | -8.1m/s | -56.1°C | 4.8% | 188.5hPa | 2.6V | 08:21:20 | 01:20:47 | 00:00:00 | |
| BIOWL1-15 | 2026-09-03 10:52:10 | 52.31903 | 8.85281 | 119° | 157km/h | 12480m | -7.4m/s | -56.1°C | 4.6% | 188hPa | 2.6V | 08:21:20 | 01:20:45 | 00:00:00 | |
| DB0DAN | 2026-09-03 10:52:10 | 52.31903 | 8.85281 | 119° | 150km/h | 12480m | -7.4m/s | -56.1°C | 4% | 188.04hPa | 2.6V | 00:00:00 | 00:00:00 | 00:00:00 | |
| DL1XH-west | 2026-09-03 10:52:04 | 52.32019 | 8.84939 | 120° | 157km/h | 12525m | -4.7m/s | -55.4°C | 4.2% | 186.7hPa | 2.6V | 08:22:11 | 01:20:39 | 00:00:00 | |
| DO2JMG | 2026-09-03 10:52:02 | 52.32059 | 8.84829 | 121° | 151km/h | 12536m | -7.4m/s | -55.4°C | 4% | 186.3hPa | 2.7V | 08:22:11 | 01:20:37 | 00:00:00 | |
| DF8AY | 2026-09-03 10:52:01 | 52.32079 | 8.84776 | 121° | 151km/h | 12543m | -8m/s | -55.4°C | 4% | 186.2hPa | 2.7V | 08:22:11 | 01:20:36 | 00:00:00 | |
| DL1NUX | 2026-09-03 10:52:01 | 52.32138 | 8.84620 | 121° | 148km/h | 12562m | -5.9m/s | -55.4°C | 6.4% | 185.5hPa | 2.6V | 08:21:32 | 01:20:33 | 00:00:00 | |
| BIOWL1-15 | 2026-09-03 10:52:00 | 52.32099 | 8.84723 | 122° | 148km/h | 12550m | -5.8m/s | -55.4°C | 3.9% | 186hPa | 2.6V | 08:22:11 | 01:20:35 | 00:00:00 | |
| DF5WG-10 | 2026-09-03 10:51:59 | 52.32119 | 8.84671 | 123° | 146km/h | 12557m | -6.3m/s | -55.4°C | 6.6% | 185.7hPa | 2.7V | 00:00:00 | 01:20:34 | 00:00:00 | |
| DO3DL | 2026-09-03 10:51:58 | 52.32119 | 8.84671 | 123° | 148km/h | 12557m | -6.4m/s | -55.4°C | 3.6% | 185.8hPa | 2.7V | 08:22:00 | 00:00:00 | 00:00:00 | |
| GOEST3-10 | 2026-09-03 10:51:57 | 52.32158 | 8.84569 | 122° | 144km/h | 12569m | -7.5m/s | -55.2°C | 6.3% | 185.4hPa | 2.7V | 00:00:00 | 01:20:32 | 00:00:00 | |
| DB0DAN | 2026-09-03 10:51:55 | 52.32197 | 8.84467 | 123° | 137km/h | 12585m | -8m/s | -55.2°C | 3.2% | 185hPa | 2.7V | 00:00:00 | 00:00:00 | 00:00:00 | |
| DL1XH-west | 2026-09-03 10:51:54 | 52.32217 | 8.84417 | 123° | 144km/h | 12593m | -8m/s | -55.1°C | 3.2% | 184.8hPa | 2.6V | 08:22:11 | 01:20:29 | 00:00:00 | |
| DD8BA-10 | 2026-09-03 10:51:54 | 52.32217 | 8.84417 | 123° | 137km/h | 12593m | -7.9m/s | -55.0°C | 5.9% | 184.7hPa | 2.6V | 00:00:00 | 00:00:00 | 00:00:00 | |
| DL1XH-15 | 2026-09-03 10:51:53 | 52.32352 | 8.84083 | 123° | 133km/h | 12651m | -8.3m/s | -54.2°C | 5.3% | 183hPa | 2.6V | 08:21:43 | 01:20:22 | 00:00:00 | |
| DO2SHX-10 | 2026-09-03 10:51:53 | 52.32237 | 8.84367 | 124° | 141km/h | 12601m | -8.1m/s | -54.8°C | 5.8% | 184.5hPa | 2.7V | 00:00:00 | 01:20:28 | 00:00:00 | |
| DL1XH1-15 | 2026-09-03 10:51:52 | 52.32295 | 8.84223 | 123° | 137km/h | 12626m | -9m/s | -54.4°C | 5.4% | 183.8hPa | 2.7V | 08:21:40 | 01:20:25 | 00:00:00 | |
| HSKMA3-T | 2026-09-03 10:51:51 | 52.32276 | 8.84270 | 124° | 141km/h | 12617m | -8.3m/s | -54.5°C | 2.9% | 184hPa | 2.6V | 08:22:11 | 01:20:26 | 00:00:00 | |
| DL1NUX | 2026-09-03 10:51:51 | 52.32334 | 8.84129 | 123° | 135km/h | 12643m | -8.2m/s | -54.2°C | 5.3% | 183.3hPa | 2.7V | 08:21:42 | 01:20:23 | 00:00:00 | |
| AA1-15 | 2026-09-03 10:51:50 | 52.32295 | 8.84223 | 124° | 137km/h | 12626m | -9m/s | -54.4°C | 2.7% | 183.8hPa | 2.7V | 08:22:11 | 01:20:25 | 00:00:00 | |
| DL1XH-west | 2026-09-03 10:51:45 | 52.32408 | 8.83946 | 123° | 131km/h | 12677m | -9.5m/s | -54.2°C | 2.5% | 182.3hPa | 2.7V | 08:22:11 | 01:20:19 | 00:00:00 | |
| DO2SHX-10 | 2026-09-03 10:51:45 | 52.32408 | 8.83946 | 123° | 130km/h | 12678m | -9.5m/s | -54.2°C | 5.2% | 182.3hPa | 2.6V | 00:00:00 | 01:20:19 | 00:00:00 | |
| DM0DOS-11 | 2026-09-03 10:51:45 | 52.32478 | 8.83766 | 121° | 128km/h | 12711m | -8.4m/s | -54.4°C | 5.2% | 181.4hPa | 2.6V | 08:21:50 | 01:20:15 | 00:00:00 | |
| DC6BW-12 | 2026-09-03 10:51:44 | 52.32408 | 8.83946 | 124° | 131km/h | 12678m | -9.5m/s | -54.2°C | 2.7% | 182.3hPa | 2.6V | 08:22:00 | 00:00:00 | 00:00:00 | |
| DJ2DS-15 | 2026-09-03 10:51:43 | 52.32444 | 8.83856 | 122° | 128km/h | 12696m | -7.9m/s | -54.3°C | 2.6% | 181.8hPa | 2.6V | 00:00:00 | 00:00:00 | 00:00:00 | |
| GOEST3-10 | 2026-09-03 10:51:42 | 52.32444 | 8.83856 | 123° | 126km/h | 12696m | -7.9m/s | -54.3°C | 5.2% | 181.8hPa | 2.6V | 00:00:00 | 00:00:00 | 00:00:00 | |
| DL1NUX | 2026-09-03 10:51:41 | 52.32510 | 8.83677 | 120° | 124km/h | 12727m | -8.4m/s | -54.4°C | 5.3% | 180.9hPa | 2.7V | 08:21:52 | 01:20:13 | 00:00:00 | |
| DO2JMG | 2026-09-03 10:51:41 | 52.32461 | 8.83811 | 121° | 128km/h | 12703m | -7.3m/s | -54.4°C | 2.5% | 181.6hPa | 2.6V | 08:22:11 | 01:20:16 | 00:00:00 | |
| DO2SHX-10 | 2026-09-03 10:51:41 | 52.32461 | 8.83811 | 122° | 126km/h | 12703m | -7.2m/s | -54.3°C | 5.3% | 181.6hPa | 2.7V | 00:00:00 | 01:20:16 | 00:00:00 | |
| DL1XH-15 | 2026-09-03 10:51:40 | 52.32526 | 8.83633 | 120° | 124km/h | 12735m | -6.1m/s | -54.4°C | 5.3% | 180.6hPa | 2.7V | 08:21:53 | 01:20:12 | 00:00:00 | |
| BIOWL1-15 | 2026-09-03 10:51:40 | 52.32478 | 8.83766 | 121° | 128km/h | 12711m | -8.4m/s | -54.4°C | 2.4% | 181.4hPa | 2.6V | 08:22:11 | 01:20:15 | 00:00:00 | |
| AA1-15 | 2026-09-03 10:51:39 | 52.32494 | 8.83722 | 121° | 126km/h | 12719m | -7.5m/s | -54.4°C | 2.4% | 181.1hPa | 2.7V | 08:22:11 | 01:20:14 | 00:00:00 | |
| DL1XH-west | 2026-09-03 10:51:33 | 52.32589 | 8.83459 | 121° | 120km/h | 12762m | -6.7m/s | -54.4°C | 2.3% | 179.9hPa | 2.6V | 08:22:11 | 01:20:08 | 00:00:00 | |
| DF8AY-15 | 2026-09-03 10:51:33 | 52.32589 | 8.83459 | 121° | 119km/h | 12762m | -6.7m/s | -54.3°C | 5.3% | 179.9hPa | 2.7V | 00:00:00 | 01:20:08 | 00:00:00 | |
| DM0DOS-11 | 2026-09-03 10:51:32 | 52.32635 | 8.83331 | 119° | 120km/h | 12784m | -6.6m/s | -54.2°C | 5.1% | 179.3hPa | 2.7V | 08:22:00 | 01:20:05 | 00:00:00 | |
| BIOWL1-15 | 2026-09-03 10:51:30 | 52.32636 | 8.83332 | 120° | 120km/h | 12784m | -6.6m/s | -54.2°C | 2.2% | 179.3hPa | 2.7V | 08:22:11 | 01:20:05 | 00:00:00 | |
| AA1-15 | 2026-09-03 10:51:29 | 52.32651 | 8.83288 | 120° | 120km/h | 12791m | -7.9m/s | -54.2°C | 2.3% | 179.1hPa | 2.6V | 08:22:11 | 01:20:04 | 00:00:00 | |
| DO2SHX-10 | 2026-09-03 10:51:29 | 52.32651 | 8.83288 | 120° | 120km/h | 12791m | -7.8m/s | -54.2°C | 5.1% | 179.0hPa | 2.6V | 08:22:00 | 01:20:04 | 00:00:00 | |
| DL1XH-15 | 2026-09-03 10:51:28 | 52.32680 | 8.83202 | 118° | 119km/h | 12807m | -8.3m/s | -54.2°C | 5.1% | 178.6hPa | 2.6V | 08:22:03 | 01:20:02 | 00:00:00 | |
| DL1CLM-18 | 2026-09-03 10:51:27 | 52.32680 | 8.83202 | 119° | 119km/h | 12807m | -8.3m/s | -54.2°C | 2.5% | 178.6hPa | 2.7V | 08:22:00 | 00:00:00 | 00:00:00 | |
| DL1LOL-11 | 2026-09-03 10:51:26 | 52.32680 | 8.83202 | 119° | 119km/h | 12807m | -8.3m/s | -54.2°C | 2.5% | 178.6hPa | 2.7V | 00:00:00 | 00:00:00 | 00:00:00 | |
| DB0DAN | 2026-09-03 10:51:25 | 52.32708 | 8.83114 | 118° | 113km/h | 12823m | -8m/s | -54.2°C | 2.4% | 178.19hPa | 2.7V | 00:00:00 | 00:00:00 | 00:00:00 | |
| DL1XH-west | 2026-09-03 10:51:23 | 52.32736 | 8.83028 | 117° | 117km/h | 12841m | -8.9m/s | -54°C | 2.1% | 177.7hPa | 2.6V | 08:22:11 | 01:19:58 | 00:00:00 | |
| DO2SHX-10 | 2026-09-03 10:51:23 | 52.32736 | 8.83028 | 118° | 117km/h | 12841m | -8.8m/s | -54.0°C | 5.0% | 177.7hPa | 2.6V | 00:00:00 | 01:19:58 | 00:00:00 | |
| DL1XH-15 | 2026-09-03 10:51:22 | 52.32833 | 8.82732 | 119° | 117km/h | 12899m | -7.3m/s | -53.8°C | 4.9% | 176.1hPa | 2.6V | 08:22:14 | 01:19:51 | 00:00:00 | |
| DO2JMG | 2026-09-03 10:51:20 | 52.32777 | 8.82900 | 118° | 115km/h | 12867m | -8.7m/s | -54.1°C | 2.2% | 177hPa | 2.7V | 08:22:11 | 01:19:55 | 00:00:00 | |
| HSKMA3-T | 2026-09-03 10:51:19 | 52.32791 | 8.82858 | 118° | 115km/h | 12876m | -7.7m/s | -54°C | 2.2% | 176.7hPa | 2.7V | 08:22:11 | 01:19:54 | 00:00:00 | |
| AA1-15 | 2026-09-03 10:51:18 | 52.32805 | 8.82817 | 119° | 115km/h | 12884m | -9m/s | -54°C | 2.2% | 176.6hPa | 2.6V | 08:23:02 | 01:19:53 | 00:00:00 | |
| DL1XH1-15 | 2026-09-03 10:51:17 | 52.32920 | 8.82475 | 120° | 120km/h | 12948m | -8.9m/s | -53.6°C | 4.9% | 174.8hPa | 2.7V | 08:22:20 | 01:19:45 | 00:00:00 | |
| DO3DL | 2026-09-03 10:51:17 | 52.32819 | 8.82775 | 120° | 117km/h | 12892m | -7.5m/s | -53.9°C | 2.4% | 176.3hPa | 2.7V | 08:23:00 | 00:00:00 | 00:00:00 | |
| DL1NUX | 2026-09-03 10:51:15 | 52.32950 | 8.82390 | 120° | 119km/h | 12964m | -7.7m/s | -53.5°C | 4.9% | 174.3hPa | 2.7V | 08:22:22 | 01:19:43 | 00:00:00 | |
| DL1XH-west | 2026-09-03 10:51:12 | 52.32889 | 8.82561 | 119° | 120km/h | 12931m | -8.9m/s | -53.7°C | 2.1% | 175.2hPa | 2.6V | 08:23:02 | 01:19:47 | 00:00:00 | |
| BIOWL1-15 | 2026-09-03 10:51:10 | 52.33013 | 8.82222 | 121° | 119km/h | 12995m | -7.3m/s | -53.5°C | 2% | 173.4hPa | 2.6V | 08:23:02 | 01:19:39 | 00:00:00 | |
| DO2JMG | 2026-09-03 10:51:10 | 52.32920 | 8.82475 | 121° | 120km/h | 12948m | -8.9m/s | -53.6°C | 2.1% | 174.8hPa | 2.7V | 08:23:02 | 01:19:45 | 00:00:00 | |
| GOEST3-10 | 2026-09-03 10:51:10 | 52.32919 | 8.82475 | 121° | 119km/h | 12948m | -8.8m/s | -53.5°C | 4.9% | 174.8hPa | 2.7V | 00:00:00 | 00:00:00 | 00:00:00 | |
| DL1XH-15 | 2026-09-03 10:51:09 | 52.32982 | 8.82307 | 122° | 120km/h | 12979m | -8.5m/s | -53.5°C | 4.9% | 173.9hPa | 2.6V | 08:22:24 | 01:19:41 | 00:00:00 | |
| HSKMA3-T | 2026-09-03 10:51:08 | 52.32950 | 8.82390 | 121° | 119km/h | 12964m | -7.7m/s | -53.5°C | 2.1% | 174.3hPa | 2.7V | 08:23:02 | 01:19:43 | 00:00:00 | |
| SMARD9-15 | 2026-09-03 10:51:08 | 52.32966 | 8.82348 | 121° | 117km/h | 12971m | -7.1m/s | -53.5°C | 2.4% | 174.1hPa | 2.6V | 00:00:00 | 00:00:00 | 00:00:00 | |
| AA1-15 | 2026-09-03 10:51:08 | 52.32966 | 8.82348 | 122° | 119km/h | 12971m | -7.1m/s | -53.5°C | 2.1% | 174.1hPa | 2.6V | 08:23:02 | 01:19:42 | 00:00:00 | |
| DL4XJ-10 | 2026-09-03 10:51:06 | 52.32982 | 8.82306 | 123° | 117km/h | 12979m | -8.5m/s | -52.2°C | 0% | 0hPa | 2.6V | 00:00:00 | 00:00:00 | 00:00:00 | |
| DO2SHX-10 | 2026-09-03 10:51:05 | 52.32998 | 8.82264 | 122° | 119km/h | 12987m | -8.7m/s | -53.5°C | 4.9% | 173.6hPa | 2.6V | 00:00:00 | 01:19:40 | 00:00:00 | |
| DD8BA-10 | 2026-09-03 10:51:04 | 52.33013 | 8.82222 | 122° | 117km/h | 12995m | -7.2m/s | -53.4°C | 4.8% | 173.3hPa | 2.6V | 08:22:00 | 00:00:00 | 00:00:00 | |
| DL1XH1-15 | 2026-09-03 10:51:03 | 52.33075 | 8.82054 | 120° | 115km/h | 13032m | -11.6m/s | -53.7°C | 4.8% | 172.5hPa | 2.6V | 08:22:30 | 01:19:35 | 00:00:00 | |
| DL1XH-west | 2026-09-03 10:51:02 | 52.33044 | 8.82137 | 121° | 119km/h | 13011m | -8.3m/s | -53.6°C | 2% | 173hPa | 2.7V | 08:23:02 | 01:19:37 | 00:00:00 | |
| DO2JMG | 2026-09-03 10:51:00 | 52.33075 | 8.82054 | 120° | 115km/h | 13032m | -11.6m/s | -53.7°C | 2% | 172.5hPa | 2.6V | 08:23:02 | 01:19:35 | 00:00:00 | |
| HSKMA3-T | 2026-09-03 10:50:58 | 52.33104 | 8.81970 | 120° | 117km/h | 13052m | -9.9m/s | -53.6°C | 2% | 171.9hPa | 2.6V | 08:23:02 | 01:19:33 | 00:00:00 | |
| AA1-15 | 2026-09-03 10:50:57 | 52.33120 | 8.81929 | 122° | 115km/h | 13062m | -9.8m/s | -53.6°C | 2% | 171.7hPa | 2.7V | 08:23:02 | 01:19:32 | 00:00:00 | |
| DO2SHX-10 | 2026-09-03 10:50:56 | 52.33135 | 8.81889 | 122° | 111km/h | 13072m | -9.9m/s | -53.6°C | 4.7% | 171.4hPa | 2.6V | 00:00:00 | 01:19:31 | 00:00:00 | |
| GOEST3-10 | 2026-09-03 10:50:55 | 52.33150 | 8.81849 | 121° | 113km/h | 13082m | -10.1m/s | -53.7°C | 4.7% | 171.1hPa | 2.6V | 00:00:00 | 01:19:30 | 00:00:00 | |
| DD8BA-10 | 2026-09-03 10:50:54 | 52.33164 | 8.81810 | 121° | 113km/h | 13092m | -10.6m/s | -53.7°C | 4.7% | 170.8hPa | 2.6V | 00:00:00 | 00:00:00 | 00:00:00 | |
| DL1NUX | 2026-09-03 10:50:53 | 52.33252 | 8.81568 | 119° | 113km/h | 13150m | -9.2m/s | -53.8°C | 5% | 169.2hPa | 2.6V | 08:22:42 | 01:19:23 | 00:00:00 | |
| EDDB2-11 | 2026-09-03 10:50:52 | 52.33193 | 8.81729 | 119° | 113km/h | 13112m | -9.9m/s | -53.9°C | 2.3% | 170.3hPa | 2.6V | 00:00:00 | 00:00:00 | 00:00:00 | |
| DL1XH-15 | 2026-09-03 10:50:51 | 52.33309 | 8.81403 | 118° | 115km/h | 13186m | -11.3m/s | -53.9°C | 4.9% | 168.4hPa | 2.6V | 08:22:46 | 01:19:19 | 00:00:00 | |
| DL1XH-west | 2026-09-03 10:50:51 | 52.33208 | 8.81688 | 121° | 115km/h | 13122m | -10.2m/s | -53.9°C | 2% | 170.1hPa | 2.7V | 08:23:02 | 01:19:26 | 00:00:00 | |
| DO2JMG | 2026-09-03 10:50:49 | 52.33238 | 8.81608 | 120° | 111km/h | 13141m | -9.3m/s | -53.8°C | 2.1% | 169.5hPa | 2.6V | 08:23:02 | 01:19:24 | 00:00:00 | |
| BIOWL1-15 | 2026-09-03 10:50:48 | 52.33338 | 8.81318 | 117° | 119km/h | 13209m | -10.4m/s | -53.9°C | 1.9% | 167.8hPa | 2.6V | 08:23:02 | 01:19:17 | 00:00:00 | |
| HSKMA3-T | 2026-09-03 10:50:47 | 52.33266 | 8.81528 | 120° | 115km/h | 13159m | -9.7m/s | -53.8°C | 2.1% | 169hPa | 2.6V | 08:23:02 | 01:19:22 | 00:00:00 | |
| AA1-15 | 2026-09-03 10:50:47 | 52.33323 | 8.81361 | 119° | 119km/h | 13198m | -11.2m/s | -53.9°C | 1.9% | 168.1hPa | 2.6V | 08:23:02 | 01:19:18 | 00:00:00 | |
| SONCRA | 2026-09-03 10:50:46 | 52.33309 | 8.81403 | 118° | 113km/h | 13187m | -11.3m/s | -53.9°C | 2.3% | 168.4hPa | 2.7V | 00:00:00 | 00:00:00 | 00:00:00 | |
| SONDE2-11 | 2026-09-03 10:50:45 | 52.33309 | 8.81403 | 118° | 113km/h | 13187m | -11.3m/s | -53.9°C | 2.3% | 168.4hPa | 2.7V | 00:00:00 | 00:00:00 | 00:00:00 | |
| DL1XH-west | 2026-09-03 10:50:40 | 52.33365 | 8.81230 | 116° | 120km/h | 13235m | -15.2m/s | -54.1°C | 1.9% | 167.2hPa | 2.7V | 08:23:02 | 01:19:15 | 00:00:00 | |
| GOEST3-10 | 2026-09-03 10:50:40 | 52.33365 | 8.81230 | 116° | 124km/h | 13235m | -15.1m/s | -54.1°C | 4.8% | 167.1hPa | 2.7V | 08:22:00 | 00:00:00 | 00:00:00 | |
| DL1NUX | 2026-09-03 10:50:39 | 52.33392 | 8.81138 | 114° | 124km/h | 13264m | -15.1m/s | -54.2°C | 4.8% | 166.4hPa | 2.6V | 08:22:52 | 01:19:13 | 00:00:00 | |
| DO2JMG | 2026-09-03 10:50:38 | 52.33392 | 8.81138 | 115° | 124km/h | 13265m | -15.1m/s | -54.2°C | 1.9% | 166.4hPa | 2.6V | 08:23:02 | 01:19:13 | 00:00:00 | |
| DO2SHX-10 | 2026-09-03 10:50:38 | 52.33392 | 8.81138 | 115° | 124km/h | 13265m | -15.0m/s | -54.1°C | 4.8% | 166.3hPa | 2.7V | 00:00:00 | 01:19:13 | 00:00:00 | |
| DL1XH-15 | 2026-09-03 10:50:37 | 52.33445 | 8.80951 | 114° | 124km/h | 13324m | -15.2m/s | -54.2°C | 4.8% | 164.9hPa | 2.7V | 08:22:56 | 01:19:09 | 00:00:00 | |
| HSKMA3-T | 2026-09-03 10:50:36 | 52.33419 | 8.81045 | 114° | 126km/h | 13294m | -14.2m/s | -54.2°C | 1.9% | 165.6hPa | 2.6V | 08:23:02 | 01:19:11 | 00:00:00 | |
| BIOWL1-15 | 2026-09-03 10:50:34 | 52.33445 | 8.80951 | 115° | 124km/h | 13324m | -15.2m/s | -54.2°C | 1.9% | 164.9hPa | 2.7V | 08:23:02 | 01:19:09 | 00:00:00 | |
| DD8BA-10 | 2026-09-03 10:50:34 | 52.33445 | 8.80951 | 115° | 117km/h | 13324m | -15.2m/s | -54.2°C | 4.8% | 164.8hPa | 2.7V | 00:00:00 | 00:00:00 | 00:00:00 | |
| DL3AQ-11 | 2026-09-03 10:50:33 | 52.33471 | 8.80860 | 114° | 119km/h | 13355m | -15.9m/s | -54.2°C | 2.2% | 164.2hPa | 2.7V | 00:00:00 | 00:00:00 | 00:00:00 | |
| DO2SHX-10 | 2026-09-03 10:50:32 | 52.33471 | 8.80860 | 115° | 117km/h | 13355m | -15.9m/s | -54.1°C | 4.8% | 164.1hPa | 2.7V | 08:22:00 | 01:19:07 | 00:00:00 | |
| DL1XH1-15 | 2026-09-03 10:50:31 | 52.33497 | 8.80772 | 115° | 117km/h | 13386m | -15.9m/s | -54.1°C | 4.8% | 163.3hPa | 2.6V | 08:23:00 | 01:19:05 | 00:00:00 | |
| DL1XH-west | 2026-09-03 10:50:29 | 52.33510 | 8.80729 | 116° | 117km/h | 13402m | -15.8m/s | -54.1°C | 1.8% | 162.9hPa | 2.6V | 08:23:02 | 01:19:04 | 00:00:00 | |
| DO2JMG | 2026-09-03 10:50:28 | 52.33523 | 8.80685 | 115° | 117km/h | 13417m | -15.6m/s | -54.1°C | 1.8% | 162.6hPa | 2.7V | 08:23:02 | 01:19:03 | 00:00:00 | |
| HSKMA3-T | 2026-09-03 10:50:26 | 52.33549 | 8.80599 | 117° | 115km/h | 13446m | -14.7m/s | -54.2°C | 1.8% | 161.8hPa | 2.6V | 08:23:53 | 01:19:01 | 00:00:00 | |
| DL1XH-15 | 2026-09-03 10:50:25 | 52.33574 | 8.80517 | 114° | 113km/h | 13475m | -13.2m/s | -54.3°C | 4.8% | 161hPa | 2.6V | 08:23:06 | 01:18:59 | 00:00:00 | |
| AA1-15 | 2026-09-03 10:50:25 | 52.33562 | 8.80558 | 116° | 110km/h | 13461m | -14.6m/s | -54.2°C | 1.7% | 161.4hPa | 2.6V | 08:23:53 | 01:19:00 | 00:00:00 | |
| GOEST3-10 | 2026-09-03 10:50:25 | 52.33562 | 8.80558 | 116° | 111km/h | 13461m | -14.6m/s | -54.2°C | 4.8% | 161.3hPa | 2.6V | 00:00:00 | 01:19:00 | 00:00:00 | |
| DM0DOS-11 | 2026-09-03 10:50:24 | 52.33622 | 8.80350 | 114° | 110km/h | 13527m | -14.8m/s | -54.4°C | 4.8% | 159.8hPa | 2.6V | 08:23:10 | 01:18:55 | 00:00:00 | |
| BIOWL1-15 | 2026-09-03 10:50:24 | 52.33574 | 8.80517 | 115° | 113km/h | 13475m | -13.2m/s | -54.3°C | 1.8% | 161hPa | 2.6V | 08:23:53 | 01:18:59 | 00:00:00 | |
| DD8BA-10 | 2026-09-03 10:50:23 | 52.33586 | 8.80475 | 116° | 110km/h | 13488m | -13.1m/s | -54.3°C | 4.9% | 160.7hPa | 2.7V | 00:00:00 | 00:00:00 | 00:00:00 | |
| DL3AQ-11 | 2026-09-03 10:50:22 | 52.33610 | 8.80391 | 114° | 110km/h | 13513m | -13.1m/s | -54.4°C | 2.1% | 160.1hPa | 2.7V | 00:00:00 | 00:00:00 | 00:00:00 | |
| DO9LL-15 | 2026-09-03 10:50:21 | 52.33610 | 8.80391 | 115° | 108km/h | 13514m | -13.1m/s | -54.4°C | 4.8% | 160.0hPa | 2.7V | 00:00:00 | 01:18:56 | 00:00:00 | |
| DD1CC8 | 2026-09-03 10:50:20 | 52.33622 | 8.80350 | 114° | 108km/h | 13527m | -14.8m/s | -54.4°C | 2.1% | 159.8hPa | 2.7V | 00:00:00 | 00:00:00 | 00:00:00 | |
| DL1XH-15 | 2026-09-03 10:50:19 | 52.33706 | 8.80024 | 110° | 108km/h | 13647m | -14.7m/s | -53.9°C | 4.5% | 156.8hPa | 2.7V | 08:23:18 | 01:18:47 | 00:00:00 | |
| DL1XH-west | 2026-09-03 10:50:19 | 52.33715 | 8.79983 | 111° | 106km/h | 13661m | -12.9m/s | -53.8°C | 1.4% | 156.5hPa | 2.7V | 08:23:53 | 01:18:46 | 00:00:00 | |
| DO2JMG | 2026-09-03 10:50:18 | 52.33655 | 8.80228 | 113° | 108km/h | 13574m | -14.7m/s | -54.2°C | 1.6% | 158.6hPa | 2.7V | 08:23:53 | 01:18:52 | 00:00:00 | |
| HSKMA3-T | 2026-09-03 10:50:17 | 52.33676 | 8.80146 | 113° | 106km/h | 13603m | -13m/s | -54.2°C | 1.5% | 157.9hPa | 2.6V | 08:23:53 | 01:18:50 | 00:00:00 | |
| AA1-15 | 2026-09-03 10:50:16 | 52.33705 | 8.80024 | 110° | 108km/h | 13647m | -14.7m/s | -53.9°C | 1.4% | 156.8hPa | 2.7V | 08:23:53 | 01:18:47 | 00:00:00 | |
| BIOWL1-15 | 2026-09-03 10:50:16 | 52.33724 | 8.79942 | 110° | 106km/h | 13672m | -10.7m/s | -53.9°C | 1.5% | 156.2hPa | 2.7V | 08:23:53 | 01:18:45 | 00:00:00 | |
| DO2JMG | 2026-09-03 10:50:07 | 52.33753 | 8.79820 | 111° | 108km/h | 13702m | -10.8m/s | -53.9°C | 1.5% | 155.4hPa | 2.6V | 08:23:53 | 01:18:42 | 00:00:00 | |
| EDDB2-12 | 2026-09-03 10:50:07 | 52.33763 | 8.79779 | 111° | 106km/h | 13712m | -10.6m/s | -53.9°C | 2.0% | 155.2hPa | 2.6V | 00:00:00 | 00:00:00 | 00:00:00 | |
| DL1XH-15 | 2026-09-03 10:50:06 | 52.33784 | 8.79696 | 113° | 110km/h | 13733m | -10.8m/s | -53.9°C | 4.5% | 154.7hPa | 2.6V | 08:23:26 | 01:18:39 | 00:00:00 | |
| HSKMA3-T | 2026-09-03 10:50:05 | 52.33773 | 8.79737 | 112° | 110km/h | 13723m | -9.8m/s | -53.9°C | 1.4% | 154.9hPa | 2.7V | 08:23:53 | 01:18:40 | 00:00:00 | |
| BIOWL1-15 | 2026-09-03 10:50:01 | 52.33831 | 8.79529 | 117° | 113km/h | 13784m | -11.7m/s | -53.8°C | 1.3% | 153.5hPa | 2.7V | 08:23:53 | 01:18:35 | 00:00:00 | |
| AA1-15 | 2026-09-03 10:50:01 | 52.33819 | 8.79571 | 116° | 113km/h | 13772m | -12m/s | -53.9°C | 1.4% | 153.8hPa | 2.7V | 08:23:53 | 01:18:36 | 00:00:00 | |
| DO2SHX-10 | 2026-09-03 10:50:01 | 52.33819 | 8.79571 | 117° | 113km/h | 13772m | -12.0m/s | -53.9°C | 4.5% | 153.7hPa | 2.7V | 00:00:00 | 01:18:36 | 00:00:00 | |
| GOEST3-10 | 2026-09-03 10:50:00 | 52.33831 | 8.79529 | 117° | 111km/h | 13784m | -11.6m/s | -53.8°C | 4.4% | 153.4hPa | 2.7V | 00:00:00 | 00:00:00 | 00:00:00 | |
| DL1XH-15 | 2026-09-03 10:49:59 | 52.33909 | 8.79289 | 117° | 108km/h | 13852m | -9.8m/s | -53.4°C | 4.4% | 151.8hPa | 2.7V | 08:23:36 | 01:18:29 | 00:00:00 | |
| DO2JMG | 2026-09-03 10:49:56 | 52.33883 | 8.79368 | 119° | 110km/h | 13831m | -10.9m/s | -53.6°C | 1.3% | 152.4hPa | 2.6V | 08:23:53 | 01:18:31 | 00:00:00 | |
| DF8AY | 2026-09-03 10:49:54 | 52.33909 | 8.79289 | 118° | 108km/h | 13852m | -9.8m/s | -53.4°C | 1.3% | 151.8hPa | 2.7V | 08:23:53 | 01:18:29 | 00:00:00 | |
| DL1XH-west | 2026-09-03 10:49:51 | 52.33946 | 8.79172 | 117° | 104km/h | 13879m | -7.4m/s | -53.2°C | 1.3% | 151.2hPa | 2.6V | 08:23:53 | 01:18:26 | 00:00:00 | |
| DO2JMG | 2026-09-03 10:49:45 | 52.34013 | 8.78944 | 114° | 102km/h | 13931m | -9.5m/s | -52.9°C | 1.2% | 149.9hPa | 2.6V | 08:23:53 | 01:18:20 | 00:00:00 | |
| HSKMA3-T | 2026-09-03 10:49:44 | 52.34023 | 8.78905 | 112° | 102km/h | 13941m | -10.2m/s | -53°C | 1.1% | 149.7hPa | 2.6V | 08:23:53 | 01:18:19 | 00:00:00 | |
| AA1-15 | 2026-09-03 10:49:41 | 52.34074 | 8.78705 | 113° | 108km/h | 13991m | -10.2m/s | -53.2°C | 1.2% | 148.6hPa | 2.6V | 08:23:53 | 01:18:14 | 00:00:00 | |
| DF8AY | 2026-09-03 10:49:40 | 52.34130 | 8.78502 | 116° | 108km/h | 14033m | -8.2m/s | -52.9°C | 1.2% | 147.6hPa | 2.6V | 08:24:44 | 01:18:09 | 00:00:00 | |
| DB0DAN | 2026-09-03 10:49:40 | 52.34064 | 8.78746 | 112° | 102km/h | 13980m | -10.5m/s | -53.1°C | 1.8% | 148.78hPa | 2.6V | 00:00:00 | 00:00:00 | 00:00:00 | |
| DO2JMG | 2026-09-03 10:49:35 | 52.34118 | 8.78542 | 116° | 108km/h | 14025m | -7.5m/s | -53.1°C | 1.3% | 147.7hPa | 2.6V | 08:24:44 | 01:18:10 | 00:00:00 | |
| HSKMA3-T | 2026-09-03 10:49:33 | 52.34142 | 8.78463 | 117° | 104km/h | 14041m | -8.3m/s | -52.8°C | 1.3% | 147.4hPa | 2.6V | 08:24:44 | 01:18:08 | 00:00:00 | |
| DL1XH-west | 2026-09-03 10:49:30 | 52.34190 | 8.78316 | 118° | 99km/h | 14075m | -8.2m/s | -52.7°C | 1.3% | 146.6hPa | 2.6V | 08:24:44 | 01:18:04 | 00:00:00 | |
| DL1XH-15 | 2026-09-03 10:49:30 | 52.34250 | 8.78144 | 117° | 95km/h | 14121m | -10.8m/s | -52.1°C | 4.1% | 145.6hPa | 2.6V | 08:24:06 | 01:17:59 | 00:00:00 | |
| BIOWL1-15 | 2026-09-03 10:49:28 | 52.34202 | 8.78281 | 120° | 97km/h | 14083m | -7.6m/s | -52.6°C | 1.3% | 146.4hPa | 2.6V | 08:24:44 | 01:18:03 | 00:00:00 | |
| DO2JMG | 2026-09-03 10:49:24 | 52.34250 | 8.78144 | 117° | 95km/h | 14121m | -10.8m/s | -52.1°C | 1.1% | 145.6hPa | 2.6V | 08:24:44 | 01:17:59 | 00:00:00 | |
| DF8AY | 2026-09-03 10:49:23 | 52.34261 | 8.78109 | 117° | 93km/h | 14132m | -11.2m/s | -52.1°C | 1% | 145.3hPa | 2.6V | 08:24:44 | 01:17:58 | 00:00:00 | |
| HSKMA3-T | 2026-09-03 10:49:22 | 52.34272 | 8.78075 | 118° | 97km/h | 14144m | -12.7m/s | -52.1°C | 1% | 145.1hPa | 2.6V | 08:24:44 | 01:17:57 | 00:00:00 | |
| BIOWL1-15 | 2026-09-03 10:49:18 | 52.34317 | 8.77938 | 118° | 91km/h | 14198m | -13.2m/s | -51.9°C | 1% | 143.9hPa | 2.6V | 08:24:44 | 01:17:53 | 00:00:00 | |
| DL1XH-15 | 2026-09-03 10:49:17 | 52.34361 | 8.77806 | 117° | 88km/h | 14243m | -9.6m/s | -51.8°C | 4.1% | 142.8hPa | 2.7V | 08:24:16 | 01:17:49 | 00:00:00 | |
| AA1-15 | 2026-09-03 10:49:17 | 52.34328 | 8.77905 | 118° | 93km/h | 14210m | -11.5m/s | -51.7°C | 1.1% | 143.6hPa | 2.6V | 08:24:44 | 01:17:52 | 00:00:00 | |
| DO2JMG | 2026-09-03 10:49:14 | 52.34361 | 8.77806 | 118° | 88km/h | 14243m | -9.6m/s | -51.8°C | 1.1% | 142.8hPa | 2.7V | 08:24:44 | 01:17:49 | 00:00:00 | |
| DO2SHX-10 | 2026-09-03 10:49:14 | 52.34360 | 8.77806 | 118° | 88km/h | 14243m | -9.6m/s | -51.7°C | 4.1% | 142.8hPa | 2.7V | 00:00:00 | 01:17:49 | 00:00:00 | |
| DL3AQ-11 | 2026-09-03 10:49:13 | 52.34381 | 8.77741 | 116° | 88km/h | 14261m | -7.8m/s | -51.6°C | 1.7% | 142.4hPa | 2.7V | 00:00:00 | 00:00:00 | 00:00:00 | |
| DM0DOS-11 | 2026-09-03 10:49:12 | 52.34401 | 8.77677 | 117° | 84km/h | 14277m | -9m/s | -51.6°C | 4% | 142.1hPa | 2.7V | 08:24:20 | 01:17:45 | 00:00:00 | |
| HSKMA3-T | 2026-09-03 10:49:12 | 52.34381 | 8.77741 | 116° | 88km/h | 14261m | -7.8m/s | -51.6°C | 1.1% | 142.4hPa | 2.6V | 08:24:44 | 01:17:47 | 00:00:00 | |
| DF8AY-15 | 2026-09-03 10:49:12 | 52.34381 | 8.77741 | 117° | 78km/h | 14261m | -7.8m/s | -51.6°C | 4.0% | 142.3hPa | 2.7V | 00:00:00 | 01:17:47 | 00:00:00 | |
| DB0DAN | 2026-09-03 10:49:10 | 52.34401 | 8.77677 | 117° | 80km/h | 14277m | -9m/s | -51.6°C | 1.7% | 142.06hPa | 2.7V | 00:00:00 | 00:00:00 | 00:00:00 | |
| BIOWL1-15 | 2026-09-03 10:49:08 | 52.34449 | 8.77525 | 117° | 82km/h | 14320m | -6.7m/s | -51.4°C | 1% | 141.1hPa | 2.6V | 08:24:44 | 01:17:40 | 00:00:00 | |
| AA1-15 | 2026-09-03 10:49:08 | 52.34439 | 8.77555 | 118° | 80km/h | 14313m | -7.2m/s | -51.4°C | 1.1% | 141.2hPa | 2.6V | 08:24:44 | 01:17:41 | 00:00:00 | |
| DL8OAI-8 | 2026-09-03 10:49:07 | 52.34420 | 8.77615 | 118° | 82km/h | 14297m | -9.4m/s | -51.4°C | 1.7% | 141.6hPa | 2.7V | 08:24:00 | 00:00:00 | 00:00:00 | |
| DL1XH-15 | 2026-09-03 10:49:06 | 52.34458 | 8.77496 | 116° | 82km/h | 14329m | -10.2m/s | -51.4°C | 3.8% | 140.9hPa | 2.7V | 08:24:26 | 01:17:39 | 00:00:00 | |
| DO2JMG | 2026-09-03 10:49:06 | 52.34458 | 8.77496 | 117° | 82km/h | 14329m | -10.2m/s | -51.4°C | 1% | 140.9hPa | 2.7V | 08:24:44 | 01:17:39 | 00:00:00 | |
| DF8AY | 2026-09-03 10:49:02 | 52.34476 | 8.77436 | 117° | 80km/h | 14349m | -12.9m/s | -51.4°C | 1% | 140.6hPa | 2.6V | 08:24:44 | 01:17:37 | 00:00:00 | |
| HSKMA3-T | 2026-09-03 10:49:01 | 52.34486 | 8.77407 | 118° | 78km/h | 14362m | -13.3m/s | -51.4°C | 0.9% | 140.3hPa | 2.6V | 08:24:44 | 01:17:36 | 00:00:00 | |
| MET0W-2 | 2026-09-03 10:48:59 | 52.34511 | 8.77324 | 114° | 73km/h | 14397m | -11.0m/s | -51.7°C | 1.6% | 139.4hPa | 2.6V | 00:00:00 | 00:00:00 | 00:00:00 | |
| DL1XH-15 | 2026-09-03 10:48:58 | 52.34539 | 8.77215 | 113° | 71km/h | 14437m | -8m/s | -51.9°C | 3.9% | 138.6hPa | 2.6V | 08:24:36 | 01:17:29 | 00:00:00 | |
| BIOWL1-15 | 2026-09-03 10:48:57 | 52.34518 | 8.77296 | 114° | 73km/h | 14409m | -11.3m/s | -51.7°C | 1% | 139.2hPa | 2.7V | 08:24:44 | 01:17:32 | 00:00:00 | |
| AA1-15 | 2026-09-03 10:48:55 | 52.34532 | 8.77242 | 113° | 69km/h | 14429m | -8.9m/s | -51.8°C | 1.1% | 138.8hPa | 2.6V | 08:24:44 | 01:17:30 | 00:00:00 | |
| DO2JMG | 2026-09-03 10:48:53 | 52.34546 | 8.77187 | 111° | 73km/h | 14444m | -6.8m/s | -51.9°C | 1.1% | 138.4hPa | 2.7V | 08:24:44 | 01:17:28 | 00:00:00 | |
| DF8AY | 2026-09-03 10:48:52 | 52.34553 | 8.77160 | 112° | 71km/h | 14451m | -7.2m/s | -52°C | 1.1% | 138.3hPa | 2.7V | 08:24:44 | 01:17:27 | 00:00:00 | |
| HSKMA3-T | 2026-09-03 10:48:51 | 52.34560 | 8.77132 | 111° | 75km/h | 14459m | -8.6m/s | -52.1°C | 1.2% | 138.1hPa | 2.6V | 08:24:44 | 01:17:26 | 00:00:00 | |
| EDDB2-11 | 2026-09-03 10:48:48 | 52.34581 | 8.77048 | 111° | 71km/h | 14483m | -10.2m/s | -52.3°C | 1.7% | 137.6hPa | 2.6V | 00:00:00 | 00:00:00 | 00:00:00 | |
| DO2SHX-10 | 2026-09-03 10:48:47 | 52.34587 | 8.77020 | 111° | 75km/h | 14493m | -9.4m/s | -52.3°C | 4.1% | 137.3hPa | 2.6V | 00:00:00 | 01:17:22 | 00:00:00 | |
| DL1XH-15 | 2026-09-03 10:48:46 | 52.34607 | 8.76934 | 112° | 73km/h | 14521m | -8.8m/s | -52.6°C | 4.1% | 136.7hPa | 2.6V | 08:24:46 | 01:17:19 | 00:00:00 | |
| AA1-15 | 2026-09-03 10:48:45 | 52.34600 | 8.76962 | 112° | 75km/h | 14512m | -10.9m/s | -52.5°C | 1.2% | 136.9hPa | 2.6V | 08:25:35 | 01:17:20 | 00:00:00 | |
| DL1XH-west | 2026-09-03 10:48:44 | 52.34607 | 8.76934 | 112° | 73km/h | 14521m | -8.8m/s | -52.6°C | 1.2% | 136.7hPa | 2.6V | 08:25:35 | 01:17:19 | 00:00:00 | |
| DO2JMG | 2026-09-03 10:48:43 | 52.34614 | 8.76905 | 110° | 73km/h | 14530m | -8.8m/s | -52.7°C | 1.2% | 136.5hPa | 2.6V | 08:25:35 | 01:17:18 | 00:00:00 | |
| HSKMA3-T | 2026-09-03 10:48:41 | 52.34627 | 8.76847 | 111° | 77km/h | 14548m | -10.1m/s | -52.9°C | 1.2% | 136.2hPa | 2.7V | 08:25:35 | 01:17:16 | 00:00:00 | |
| DB0DAN | 2026-09-03 10:48:40 | 52.34634 | 8.76817 | 111° | 73km/h | 14558m | -11.5m/s | 0°C | 0% | 135.9hPa | 2.6V | 00:00:00 | 00:00:00 | 00:00:00 | |
| GOEST3-10 | 2026-09-03 10:48:40 | 52.34634 | 8.76817 | 112° | 80km/h | 14558m | -11.4m/s | -52.9°C | 4.1% | 135.8hPa | 2.6V | 00:00:00 | 00:00:00 | 00:00:00 | |
| DL1XH-15 | 2026-09-03 10:48:39 | 52.34679 | 8.76631 | 112° | 80km/h | 14616m | -10m/s | -53.3°C | 4.3% | 134.7hPa | 2.6V | 08:24:56 | 01:17:09 | 00:00:00 | |
| BIOWL1-15 | 2026-09-03 10:48:36 | 52.34695 | 8.76569 | 113° | 82km/h | 14636m | -10.4m/s | -53.5°C | 1.4% | 134.3hPa | 2.6V | 08:25:35 | 01:17:07 | 00:00:00 | |
| AA1-15 | 2026-09-03 10:48:34 | 52.34679 | 8.76631 | 113° | 80km/h | 14616m | -10m/s | -53.3°C | 1.4% | 134.7hPa | 2.6V | 08:25:35 | 01:17:09 | 00:00:00 | |
| DO2JMG | 2026-09-03 10:48:33 | 52.34687 | 8.76600 | 113° | 80km/h | 14626m | -10.1m/s | -53.4°C | 1.4% | 134.5hPa | 2.6V | 08:25:35 | 01:17:08 | 00:00:00 | |
| DF8AY | 2026-09-03 10:48:31 | 52.34703 | 8.76537 | 113° | 86km/h | 14647m | -11.4m/s | -53.6°C | 1.5% | 134.1hPa | 2.7V | 08:25:35 | 01:17:06 | 00:00:00 | |
| HSKMA3-T | 2026-09-03 10:48:30 | 52.34711 | 8.76504 | 111° | 86km/h | 14658m | -9.4m/s | -53.6°C | 1.5% | 133.9hPa | 2.7V | 08:25:35 | 01:17:05 | 00:00:00 | |
| GOEST3-10 | 2026-09-03 10:48:30 | 52.34711 | 8.76503 | 112° | 86km/h | 14658m | -9.4m/s | -53.6°C | 4.6% | 133.8hPa | 2.7V | 00:00:00 | 00:00:00 | 00:00:00 | |
| DO2SHX-10 | 2026-09-03 10:48:29 | 52.34719 | 8.76471 | 112° | 86km/h | 14668m | -10.2m/s | -53.7°C | 4.6% | 133.6hPa | 2.7V | 00:00:00 | 01:17:04 | 00:00:00 | |
| DL1XH-15 | 2026-09-03 10:48:28 | 52.34762 | 8.76309 | 115° | 86km/h | 14724m | -13m/s | -53.8°C | 4.5% | 132.6hPa | 2.7V | 08:25:06 | 01:16:59 | 00:00:00 | |
| AA1-15 | 2026-09-03 10:48:24 | 52.34762 | 8.76309 | 116° | 86km/h | 14724m | -13m/s | -53.8°C | 1.5% | 132.6hPa | 2.7V | 08:25:35 | 01:16:59 | 00:00:00 | |
| D01LWL | 2026-09-03 10:48:24 | 52.34772 | 8.76277 | 116° | 84km/h | 14737m | -12.7m/s | -53.8°C | 1.9% | 132.3hPa | 2.7V | 00:00:00 | 00:00:00 | 00:00:00 | |
| DM0DOS-11 | 2026-09-03 10:48:23 | 52.34800 | 8.76186 | 117° | 80km/h | 14777m | -13.7m/s | -53.9°C | 4.5% | 131.5hPa | 2.7V | 08:25:10 | 01:16:55 | 00:00:00 | |
| DL1XH-west | 2026-09-03 10:48:23 | 52.34772 | 8.76277 | 117° | 84km/h | 14737m | -12.7m/s | -53.8°C | 1.4% | 132.3hPa | 2.6V | 08:25:35 | 01:16:58 | 00:00:00 | |
| DO2JMG | 2026-09-03 10:48:22 | 52.34781 | 8.76246 | 117° | 84km/h | 14750m | -13.4m/s | -53.8°C | 1.4% | 132.1hPa | 2.6V | 08:25:35 | 01:16:57 | 00:00:00 | |
| HSKMA3-T | 2026-09-03 10:48:20 | 52.34800 | 8.76186 | 117° | 80km/h | 14777m | -13.7m/s | -53.9°C | 1.5% | 131.5hPa | 2.7V | 08:25:35 | 01:16:55 | 00:00:00 | |
| AA1-15 | 2026-09-03 10:48:14 | 52.34854 | 8.76010 | 118° | 80km/h | 14857m | -13.4m/s | -54°C | 1.5% | 129.9hPa | 2.7V | 08:25:35 | 01:16:49 | 00:00:00 | |
| DO2JMG | 2026-09-03 10:48:12 | 52.34872 | 8.75954 | 116° | 77km/h | 14885m | -13.5m/s | -53.5°C | 1.5% | 129.3hPa | 2.6V | 08:25:35 | 01:16:47 | 00:00:00 | |
| DF8AY-15 | 2026-09-03 10:48:12 | 52.34872 | 8.75954 | 116° | 73km/h | 14885m | -13.5m/s | -53.5°C | 4.5% | 129.3hPa | 2.6V | 00:00:00 | 01:16:47 | 00:00:00 | |
| DM0DOS-11 | 2026-09-03 10:48:11 | 52.34889 | 8.75898 | 114° | 73km/h | 14912m | -12.8m/s | -53.5°C | 4.5% | 128.8hPa | 2.6V | 08:25:20 | 01:16:45 | 00:00:00 | |
| DF8AY | 2026-09-03 10:48:10 | 52.34889 | 8.75898 | 115° | 73km/h | 14912m | -12.8m/s | -53.6°C | 1.4% | 128.8hPa | 2.6V | 08:25:35 | 01:16:45 | 00:00:00 | |
| HSKMA3-T | 2026-09-03 10:48:09 | 52.34897 | 8.75870 | 113° | 77km/h | 14924m | -11.4m/s | -53.6°C | 1.5% | 128.5hPa | 2.7V | 08:25:35 | 01:16:44 | 00:00:00 | |
| AA1-15 | 2026-09-03 10:48:03 | 52.34934 | 8.75698 | 106° | 71km/h | 14996m | -15m/s | -53.8°C | 1.4% | 127.2hPa | 2.7V | 08:25:35 | 01:16:38 | 00:00:00 | |
| DO2JMG | 2026-09-03 10:48:01 | 52.34945 | 8.75640 | 105° | 73km/h | 15024m | -12.8m/s | -53.8°C | 1.3% | 126.6hPa | 2.6V | 08:25:35 | 01:16:36 | 00:00:00 | |
| DL1XH1-15 | 2026-09-03 10:48:00 | 52.34949 | 8.75612 | 105° | 69km/h | 15038m | -15.1m/s | -53.8°C | 4.3% | 126.3hPa | 2.6V | 08:25:30 | 01:16:35 | 00:00:00 | |
| BIOWL1-15 | 2026-09-03 10:48:00 | 52.34964 | 8.75525 | 105° | 73km/h | 15078m | -11.8m/s | -53.7°C | 1.3% | 125.5hPa | 2.7V | 08:25:35 | 01:16:32 | 00:00:00 | |
| DF8AY | 2026-09-03 10:48:00 | 52.34954 | 8.75584 | 107° | 73km/h | 15052m | -13.3m/s | -53.7°C | 1.4% | 126hPa | 2.6V | 08:25:35 | 01:16:34 | 00:00:00 | |
| HSKMA3-T | 2026-09-03 10:48:00 | 52.34959 | 8.75555 | 106° | 73km/h | 15066m | -12.5m/s | -53.6°C | 1.3% | 125.8hPa | 2.7V | 08:25:35 | 01:16:33 | 00:00:00 | |
| GOEST3-10 | 2026-09-03 10:48:00 | 52.34949 | 8.75612 | 106° | 73km/h | 15038m | -15.0m/s | -53.7°C | 4.3% | 126.3hPa | 2.6V | 00:00:00 | 00:00:00 | 00:00:00 | |
| DO2SHX-10 | 2026-09-03 10:47:59 | 52.34954 | 8.75584 | 108° | 73km/h | 15053m | -13.3m/s | -53.6°C | 4.3% | 126.0hPa | 2.6V | 00:00:00 | 01:16:34 | 00:00:00 | |
| SMARD9-10 | 2026-09-03 10:47:57 | 52.34964 | 8.75525 | 106° | 73km/h | 15078m | -11.8m/s | -53.7°C | 1.8% | 125.5hPa | 2.6V | 00:00:00 | 00:00:00 | 00:00:00 | |
| DO2SHX-10 | 2026-09-03 10:47:56 | 52.34969 | 8.75496 | 106° | 71km/h | 15090m | -9.1m/s | -53.6°C | 4.3% | 125.2hPa | 2.6V | 00:00:00 | 01:16:31 | 00:00:00 | |
| GOEST3-10 | 2026-09-03 10:47:55 | 52.34973 | 8.75467 | 107° | 71km/h | 15100m | -11.5m/s | -53.7°C | 4.4% | 125.0hPa | 2.6V | 00:00:00 | 01:16:30 | 00:00:00 | |
| DL1XH1-15 | 2026-09-03 10:47:54 | 52.35003 | 8.75327 | 108° | 73km/h | 15155m | -12.3m/s | -53.9°C | 4.5% | 124hPa | 2.6V | 08:25:40 | 01:16:25 | 00:00:00 | |
| AA1-15 | 2026-09-03 10:47:53 | 52.34984 | 8.75411 | 109° | 71km/h | 15121m | -10.5m/s | -53.8°C | 1.4% | 124.6hPa | 2.7V | 08:26:26 | 01:16:28 | 00:00:00 | |
| DL1XH-west | 2026-09-03 10:47:52 | 52.34990 | 8.75384 | 110° | 71km/h | 15131m | -12m/s | -53.9°C | 1.4% | 124.4hPa | 2.7V | 08:26:26 | 01:16:27 | 00:00:00 | |
| DF8AY-15 | 2026-09-03 10:47:52 | 52.34990 | 8.75384 | 110° | 69km/h | 15131m | -11.9m/s | -53.8°C | 4.5% | 124.4hPa | 2.7V | 08:25:00 | 01:16:27 | 00:00:00 | |
| DM0DOS-11 | 2026-09-03 10:47:51 | 52.35008 | 8.75299 | 106° | 71km/h | 15167m | -10.7m/s | -53.9°C | 4.6% | 123.7hPa | 2.6V | 08:25:41 | 01:16:24 | 00:00:00 | |
| DO2JMG | 2026-09-03 10:47:51 | 52.34996 | 8.75356 | 110° | 73km/h | 15143m | -11.9m/s | -53.9°C | 1.4% | 124.1hPa | 2.7V | 08:26:26 | 01:16:26 | 00:00:00 | |
| BIOWL1-15 | 2026-09-03 10:47:48 | 52.35012 | 8.75270 | 105° | 69km/h | 15178m | -12.6m/s | -54°C | 1.5% | 123.5hPa | 2.6V | 08:26:26 | 01:16:23 | 00:00:00 | |
| HSKMA3-T | 2026-09-03 10:47:47 | 52.35017 | 8.75242 | 106° | 71km/h | 15190m | -10.6m/s | -53.9°C | 1.4% | 123.3hPa | 2.7V | 08:26:26 | 01:16:22 | 00:00:00 | |
| EDDB2-11 | 2026-09-03 10:47:46 | 52.35022 | 8.75215 | 104° | 66km/h | 15202m | -13.2m/s | -53.9°C | 1.8% | 123.1hPa | 2.6V | 00:00:00 | 00:00:00 | 00:00:00 | |
| GOEST3-10 | 2026-09-03 10:47:45 | 52.35025 | 8.75187 | 101° | 69km/h | 15215m | -12.9m/s | -54.0°C | 4.5% | 122.8hPa | 2.6V | 00:00:00 | 01:16:20 | 00:00:00 | |
| DM0DOS-11 | 2026-09-03 10:47:44 | 52.35046 | 8.75022 | 101° | 66km/h | 15299m | -17.5m/s | -54°C | 4.3% | 121.3hPa | 2.6V | 08:25:51 | 01:16:14 | 00:00:00 | |
| AA1-15 | 2026-09-03 10:47:43 | 52.35032 | 8.75132 | 100° | 69km/h | 15240m | -13.4m/s | -54°C | 1.4% | 122.3hPa | 2.6V | 08:26:26 | 01:16:18 | 00:00:00 | |
| DL1XH-west | 2026-09-03 10:47:42 | 52.35036 | 8.75103 | 101° | 71km/h | 15254m | -13.8m/s | -54°C | 1.3% | 122.1hPa | 2.7V | 08:26:26 | 01:16:17 | 00:00:00 | |
| DO2JMG | 2026-09-03 10:47:40 | 52.35042 | 8.75048 | 101° | 66km/h | 15283m | -15.1m/s | -54°C | 1.3% | 121.6hPa | 2.7V | 08:26:26 | 01:16:15 | 00:00:00 | |
| DB0DAN | 2026-09-03 10:47:40 | 52.35042 | 8.75048 | 101° | 62km/h | 15283m | -15.1m/s | 0°C | 0% | 121.57hPa | 2.7V | 00:00:00 | 00:00:00 | 00:00:00 | |
| DL1XH-15 | 2026-09-03 10:47:39 | 52.35061 | 8.74886 | 99° | 66km/h | 15379m | -17.2m/s | -53.9°C | 4.2% | 119.7hPa | 2.6V | 08:25:56 | 01:16:09 | 00:00:00 | |
| DF8AY | 2026-09-03 10:47:38 | 52.35049 | 8.74995 | 99° | 68km/h | 15317m | -17.6m/s | -54.1°C | 1.3% | 121hPa | 2.6V | 08:26:26 | 01:16:13 | 00:00:00 | |
| BIOWL1-15 | 2026-09-03 10:47:37 | 52.35052 | 8.74967 | 100° | 69km/h | 15333m | -14.2m/s | -54.1°C | 1.2% | 120.6hPa | 2.6V | 08:26:26 | 01:16:12 | 00:00:00 | |
| HSKMA3-T | 2026-09-03 10:47:36 | 52.35055 | 8.74940 | 101° | 68km/h | 15348m | -15.7m/s | -54°C | 1.2% | 120.3hPa | 2.7V | 08:26:26 | 01:16:11 | 00:00:00 | |
| DO2SHX-10 | 2026-09-03 10:47:35 | 52.35058 | 8.74913 | 101° | 64km/h | 15363m | -16.0m/s | -53.8°C | 4.2% | 119.9hPa | 2.6V | 00:00:00 | 01:16:10 | 00:00:00 | |
| DJ2DS-15 | 2026-09-03 10:47:34 | 52.35061 | 8.74886 | 100° | 62km/h | 15380m | -17.2m/s | -53.8°C | 4.2% | 119.7hPa | 2.6V | 00:00:00 | 01:16:09 | 00:00:00 | |
| DD8BA-10 | 2026-09-03 10:47:33 | 52.35063 | 8.74860 | 99° | 58km/h | 15397m | -18.0m/s | -53.9°C | 4.2% | 119.4hPa | 2.6V | 00:00:00 | 00:00:00 | 00:00:00 | |
| DM0DOS-11 | 2026-09-03 10:47:32 | 52.35070 | 8.74761 | 96° | 57km/h | 15455m | -14.1m/s | -54.4°C | 4.4% | 118.2hPa | 2.6V | 08:26:01 | 01:16:04 | 00:00:00 | |
| AA1-15 | 2026-09-03 10:47:32 | 52.35065 | 8.74835 | 95° | 62km/h | 15413m | -14.4m/s | -54.1°C | 1.2% | 119hPa | 2.7V | 08:26:26 | 01:16:07 | 00:00:00 | |
| DL1XH-west | 2026-09-03 10:47:31 | 52.35067 | 8.74810 | 98° | 60km/h | 15427m | -13.8m/s | -54.2°C | 1.2% | 118.8hPa | 2.7V | 08:26:26 | 01:16:06 | 00:00:00 | |
| DL1XH1-15 | 2026-09-03 10:47:30 | 52.35069 | 8.74785 | 95° | 60km/h | 15441m | -14.3m/s | -54.3°C | 4.3% | 118.5hPa | 2.6V | 08:26:00 | 01:16:05 | 00:00:00 | |
| GOEST3-10 | 2026-09-03 10:47:30 | 52.35069 | 8.74785 | 96° | 58km/h | 15441m | -14.3m/s | -54.3°C | 4.3% | 118.4hPa | 2.6V | 00:00:00 | 00:00:00 | 00:00:00 | |
| DL1XH-15 | 2026-09-03 10:47:29 | 52.35079 | 8.74643 | 97° | 57km/h | 15519m | -13.6m/s | -54.7°C | 4.5% | 117hPa | 2.6V | 08:26:06 | 01:15:59 | 00:00:00 | |
| DO2JMG | 2026-09-03 10:47:29 | 52.35070 | 8.74761 | 96° | 57km/h | 15455m | -14.1m/s | -54.4°C | 1.3% | 118.3hPa | 2.6V | 08:26:26 | 01:16:04 | 00:00:00 | |
| DF8AY | 2026-09-03 10:47:28 | 52.35072 | 8.74737 | 96° | 60km/h | 15469m | -13.3m/s | -54.5°C | 1.3% | 118hPa | 2.6V | 08:26:26 | 01:16:03 | 00:00:00 | |
| BIOWL1-15 | 2026-09-03 10:47:26 | 52.35079 | 8.74643 | 97° | 57km/h | 15519m | -13.6m/s | -54.7°C | 1.4% | 117hPa | 2.6V | 08:26:26 | 01:15:59 | 00:00:00 | |
| HSKMA3-T | 2026-09-03 10:47:26 | 52.35075 | 8.74689 | 99° | 58km/h | 15495m | -12.9m/s | -54.6°C | 1.4% | 117.6hPa | 2.7V | 08:26:26 | 01:16:01 | 00:00:00 | |
| DO2SHX-10 | 2026-09-03 10:47:26 | 52.35075 | 8.74689 | 100° | 57km/h | 15495m | -12.9m/s | -54.5°C | 4.5% | 117.5hPa | 2.6V | 00:00:00 | 01:16:01 | 00:00:00 | |
| DL4XJ-10 | 2026-09-03 10:47:25 | 52.35077 | 8.74666 | 99° | 68km/h | 15507m | -11.7m/s | -53.3°C | 0% | 0hPa | 2.6V | 00:00:00 | 00:00:00 | 00:00:00 | |
| DL1NUX | 2026-09-03 10:47:24 | 52.35096 | 8.74493 | 101° | 68km/h | 15600m | -16.1m/s | -54.6°C | 4.5% | 115.6hPa | 2.6V | 08:26:12 | 01:15:53 | 00:00:00 | |
| AA1-15 | 2026-09-03 10:47:21 | 52.35086 | 8.74570 | 102° | 62km/h | 15558m | -12.6m/s | -54.4°C | 1.3% | 116.3hPa | 2.7V | 08:26:26 | 01:15:56 | 00:00:00 | |
| DL1XH-west | 2026-09-03 10:47:20 | 52.35089 | 8.74545 | 102° | 62km/h | 15571m | -14.6m/s | -54.5°C | 1.3% | 116.1hPa | 2.7V | 08:26:26 | 01:15:55 | 00:00:00 | |
| DM0DOS-11 | 2026-09-03 10:47:20 | 52.35092 | 8.74520 | 100° | 64km/h | 15585m | -14.9m/s | -54.5°C | 4.4% | 115.9hPa | 2.6V | 08:26:11 | 01:15:54 | 00:00:00 | |
| DO2SHX-10 | 2026-09-03 10:47:20 | 52.35089 | 8.74545 | 102° | 64km/h | 15571m | -14.6m/s | -54.4°C | 4.5% | 116.1hPa | 2.7V | 00:00:00 | 01:15:55 | 00:00:00 | |
| DL1XH-15 | 2026-09-03 10:47:19 | 52.35112 | 8.74384 | 103° | 73km/h | 15654m | -10.9m/s | -54.7°C | 4.5% | 114.5hPa | 2.7V | 08:26:16 | 01:15:49 | 00:00:00 | |
| DO2JMG | 2026-09-03 10:47:19 | 52.35092 | 8.74520 | 100° | 64km/h | 15585m | -14.9m/s | -54.6°C | 1.3% | 115.9hPa | 2.6V | 08:26:26 | 01:15:54 | 00:00:00 | |
| DF8AY | 2026-09-03 10:47:17 | 52.35099 | 8.74467 | 103° | 64km/h | 15616m | -15.8m/s | -54.7°C | 1.4% | 115.4hPa | 2.6V | 08:26:26 | 01:15:52 | 00:00:00 | |
| HSKMA3-T | 2026-09-03 10:47:15 | 52.35107 | 8.74412 | 105° | 71km/h | 15643m | -13.1m/s | -54.8°C | 1.3% | 114.8hPa | 2.7V | 08:26:26 | 01:15:50 | 00:00:00 | |
| AA1-15 | 2026-09-03 10:47:10 | 52.35133 | 8.74270 | 107° | 75km/h | 15706m | -15.1m/s | -54.7°C | 1.2% | 113.7hPa | 2.7V | 08:26:26 | 01:15:45 | 00:00:00 | |
| DL1XH-west | 2026-09-03 10:47:09 | 52.35139 | 8.74240 | 108° | 77km/h | 15721m | -16m/s | -54.7°C | 1.2% | 113.4hPa | 2.7V | 08:26:26 | 01:15:44 | 00:00:00 | |
| DO3DL | 2026-09-03 10:47:09 | 52.35139 | 8.74240 | 109° | 77km/h | 15721m | -16.0m/s | -54.7°C | 1.7% | 113.4hPa | 2.6V | 08:26:00 | 00:00:00 | 00:00:00 | |
| DO2SHX-10 | 2026-09-03 10:47:08 | 52.35145 | 8.74210 | 111° | 77km/h | 15738m | -18.6m/s | -54.7°C | 4.4% | 113.2hPa | 2.6V | 00:00:00 | 01:15:43 | 00:00:00 | |
| DL1NUX | 2026-09-03 10:47:07 | 52.35189 | 8.74033 | 112° | 77km/h | 15827m | -12.5m/s | -54.6°C | 4.4% | 111.5hPa | 2.6V | 08:26:28 | 01:15:37 | 00:00:00 | |
| DF8AY | 2026-09-03 10:47:06 | 52.35160 | 8.74151 | 111° | 78km/h | 15772m | -15.4m/s | -54.5°C | 1.1% | 112.5hPa | 2.7V | 08:26:26 | 01:15:41 | 00:00:00 | |
| DL1XH1-15 | 2026-09-03 10:47:05 | 52.35205 | 8.73973 | 112° | 84km/h | 15854m | -14.8m/s | -54.7°C | 4.4% | 111.1hPa | 2.7V | 08:26:30 | 01:15:35 | 00:00:00 | |
| HSKMA3-T | 2026-09-03 10:47:04 | 52.35175 | 8.74093 | 112° | 78km/h | 15802m | -14m/s | -54.6°C | 1.2% | 112hPa | 2.6V | 08:26:26 | 01:15:39 | 00:00:00 | |
| DO2JMG | 2026-09-03 10:46:59 | 52.35213 | 8.73942 | 113° | 82km/h | 15868m | -13.2m/s | -54.7°C | 1.2% | 110.8hPa | 2.7V | 08:27:17 | 01:15:34 | 00:00:00 | |
| DO2SHX-10 | 2026-09-03 10:46:59 | 52.35213 | 8.73942 | 113° | 84km/h | 15868m | -13.1m/s | -54.6°C | 4.4% | 110.8hPa | 2.6V | 00:00:00 | 01:15:34 | 00:00:00 | |
| NBG1-10 | 2026-09-03 10:46:58 | 52.35221 | 8.73910 | 112° | 82km/h | 15881m | -13.2m/s | -54.6°C | 4.4% | 110.5hPa | 2.6V | 00:00:00 | 01:15:33 | 08:30:00 | |
| DL1NUX | 2026-09-03 10:46:57 | 52.35277 | 8.73716 | 118° | 84km/h | 15962m | -12.3m/s | -55.1°C | 4.5% | 109.2hPa | 2.6V | 08:26:38 | 01:15:27 | 00:00:00 | |
| DF8AY | 2026-09-03 10:46:56 | 52.35239 | 8.73845 | 114° | 88km/h | 15907m | -14m/s | -54.8°C | 1.2% | 110.2hPa | 2.6V | 08:27:17 | 01:15:31 | 00:00:00 | |
| BIOWL1-15 | 2026-09-03 10:46:56 | 52.35258 | 8.73780 | 116° | 88km/h | 15935m | -13.7m/s | -54.9°C | 1.2% | 109.7hPa | 2.7V | 08:27:17 | 01:15:29 | 00:00:00 | |
| DO2SHX-10 | 2026-09-03 10:46:56 | 52.35239 | 8.73845 | 114° | 88km/h | 15907m | -13.9m/s | -54.7°C | 4.4% | 110.1hPa | 2.7V | 00:00:00 | 01:15:31 | 00:00:00 | |
| DL1XH1-15 | 2026-09-03 10:46:55 | 52.35297 | 8.73654 | 119° | 86km/h | 15986m | -12.5m/s | -55.2°C | 4.6% | 108.8hPa | 2.7V | 08:26:40 | 01:15:25 | 00:00:00 | |
| DB0DAN | 2026-09-03 10:46:55 | 52.35248 | 8.73812 | 117° | 82km/h | 15921m | -13.8m/s | 0°C | 0% | 109.88hPa | 2.7V | 00:00:00 | 00:00:00 | 00:00:00 | |
| HSKMA3-T | 2026-09-03 10:46:53 | 52.35268 | 8.73748 | 116° | 86km/h | 15948m | -12.8m/s | -55°C | 1.3% | 109.5hPa | 2.6V | 08:27:17 | 01:15:28 | 00:00:00 | |
| AA1-15 | 2026-09-03 10:46:50 | 52.35308 | 8.73624 | 119° | 82km/h | 15999m | -13.3m/s | -55.2°C | 1.3% | 108.6hPa | 2.6V | 08:27:17 | 01:15:24 | 00:00:00 | |
| DL1XH-west | 2026-09-03 10:46:50 | 52.35318 | 8.73593 | 119° | 86km/h | 16012m | -13.2m/s | -55.1°C | 1.2% | 108.4hPa | 2.6V | 08:27:17 | 01:15:23 | 00:00:00 | |
| DF8AY | 2026-09-03 10:46:45 | 52.35350 | 8.73505 | 120° | 82km/h | 16054m | -14.3m/s | -54.5°C | 1.2% | 107.7hPa | 2.7V | 08:27:17 | 01:15:20 | 00:00:00 | |
| DL4XJ-10 | 2026-09-03 10:46:45 | 52.35349 | 8.73505 | 120° | 73km/h | 16054m | -14.3m/s | -53.1°C | 0% | 0hPa | 2.7V | 00:00:00 | 00:00:00 | 00:00:00 | |
| DM0DOS-11 | 2026-09-03 10:46:44 | 52.35406 | 8.73344 | 115° | 71km/h | 16128m | -10.2m/s | -54.8°C | 4.5% | 106.4hPa | 2.7V | 08:26:51 | 01:15:14 | 00:00:00 | |
| HSKMA3-T | 2026-09-03 10:46:43 | 52.35370 | 8.73450 | 122° | 77km/h | 16081m | -11.2m/s | -54.5°C | 1.3% | 107.2hPa | 2.6V | 08:27:17 | 01:15:18 | 00:00:00 | |
| AA1-15 | 2026-09-03 10:46:38 | 52.35414 | 8.73317 | 115° | 73km/h | 16140m | -13.3m/s | -54.9°C | 1.2% | 106.3hPa | 2.6V | 08:27:17 | 01:15:13 | 00:00:00 | |
| DO2JMG | 2026-09-03 10:46:37 | 52.35421 | 8.73291 | 115° | 69km/h | 16155m | -15.6m/s | -55°C | 1.2% | 106hPa | 2.6V | 08:27:17 | 01:15:12 | 00:00:00 | |
| DF8AY | 2026-09-03 10:46:35 | 52.35435 | 8.73237 | 111° | 68km/h | 16181m | -11.2m/s | -55°C | 1.2% | 105.6hPa | 2.7V | 08:27:17 | 01:15:10 | 00:00:00 | |
| DO2SHX-10 | 2026-09-03 10:46:35 | 52.35435 | 8.73237 | 111° | 69km/h | 16182m | -11.1m/s | -54.9°C | 4.5% | 105.5hPa | 2.7V | 00:00:00 | 01:15:10 | 00:00:00 | |
| DL1NUX | 2026-09-03 10:46:34 | 52.35473 | 8.73075 | 111° | 73km/h | 16263m | -13.1m/s | -54.6°C | 4.3% | 104.2hPa | 2.7V | 08:27:01 | 01:15:04 | 00:00:00 | |
| BIOWL1-15 | 2026-09-03 10:46:33 | 52.35447 | 8.73183 | 110° | 73km/h | 16209m | -15.5m/s | -54.5°C | 1% | 105.2hPa | 2.7V | 08:27:17 | 01:15:08 | 00:00:00 | |
| DD8BA-10 | 2026-09-03 10:46:33 | 52.35447 | 8.73183 | 111° | 71km/h | 16209m | -15.4m/s | -54.4°C | 4.2% | 105.2hPa | 2.7V | 08:26:00 | 00:00:00 | 00:00:00 | |
| DF8AY-15 | 2026-09-03 10:46:32 | 52.35453 | 8.73156 | 112° | 73km/h | 16225m | -15.4m/s | -54.4°C | 4.2% | 104.9hPa | 2.6V | 00:00:00 | 01:15:07 | 00:00:00 | |
| DK9SH | 2026-09-03 10:46:31 | 52.35453 | 8.73156 | 113° | 68km/h | 16225m | -15.4m/s | -54.4°C | 1.6% | 104.9hPa | 2.6V | 08:27:00 | 00:00:00 | 00:00:00 | |
| GOEST3-10 | 2026-09-03 10:46:30 | 52.35467 | 8.73103 | 114° | 71km/h | 16250m | -9.8m/s | -54.4°C | 4.2% | 104.4hPa | 2.6V | 00:00:00 | 00:00:00 | 00:00:00 | |
| DL1XH-15 | 2026-09-03 10:46:29 | 52.35507 | 8.72937 | 110° | 71km/h | 16318m | -11m/s | -54.5°C | 4.3% | 103.3hPa | 2.6V | 08:27:06 | 01:14:59 | 00:00:00 | |
| AA1-15 | 2026-09-03 10:46:28 | 52.35480 | 8.73048 | 113° | 69km/h | 16276m | -12m/s | -54.6°C | 1.1% | 104hPa | 2.7V | 08:27:17 | 01:15:03 | 00:00:00 | |
| DL1XH-west | 2026-09-03 10:46:27 | 52.35487 | 8.73021 | 114° | 73km/h | 16286m | -9.6m/s | -54.6°C | 1.2% | 103.8hPa | 2.7V | 08:27:17 | 01:15:02 | 00:00:00 | |
| DO2JMG | 2026-09-03 10:46:26 | 52.35494 | 8.72993 | 110° | 73km/h | 16296m | -10.9m/s | -54.6°C | 1.2% | 103.7hPa | 2.6V | 08:27:17 | 01:15:01 | 00:00:00 | |
| DF8AY | 2026-09-03 10:46:24 | 52.35507 | 8.72937 | 111° | 71km/h | 16318m | -11m/s | -54.5°C | 1.1% | 103.3hPa | 2.6V | 08:27:17 | 01:14:59 | 00:00:00 | |
| HSKMA3-T | 2026-09-03 10:46:22 | 52.35520 | 8.72880 | 110° | 77km/h | 16339m | -11.3m/s | -54.4°C | 1% | 103hPa | 2.7V | 08:27:17 | 01:14:57 | 00:00:00 | |
| BIOWL1-15 | 2026-09-03 10:46:21 | 52.35526 | 8.72851 | 111° | 73km/h | 16351m | -12.5m/s | -54.4°C | 1% | 102.8hPa | 2.7V | 08:27:17 | 01:14:56 | 00:00:00 | |
| DB0NH | 2026-09-03 10:46:21 | 52.35526 | 8.72851 | 111° | 75km/h | 16351m | -12.5m/s | -54.3°C | 4.2% | 102.7hPa | 2.7V | 00:00:00 | 01:14:56 | 00:00:00 | |
| DM0DOS-11 | 2026-09-03 10:46:20 | 52.35539 | 8.72793 | 110° | 77km/h | 16375m | -12.6m/s | -54.4°C | 4.1% | 102.4hPa | 2.6V | 08:27:11 | 01:14:54 | 00:00:00 | |
| DO2SHX-10 | 2026-09-03 10:46:20 | 52.35533 | 8.72822 | 111° | 77km/h | 16364m | -10.9m/s | -54.4°C | 4.2% | 102.5hPa | 2.7V | 00:00:00 | 01:14:55 | 00:00:00 | |
| DL1XH-15 | 2026-09-03 10:46:19 | 52.35574 | 8.72647 | 109° | 75km/h | 16443m | -13.4m/s | -54.8°C | 4.3% | 101.3hPa | 2.7V | 08:27:16 | 01:14:49 | 00:00:00 | |
| AA1-15 | 2026-09-03 10:46:18 | 52.35546 | 8.72763 | 110° | 78km/h | 16388m | -13m/s | -54.4°C | 0.9% | 102.2hPa | 2.6V | 08:27:17 | 01:14:53 | 00:00:00 | |
| DL1XH-west | 2026-09-03 10:46:17 | 52.35553 | 8.72733 | 113° | 77km/h | 16402m | -15.2m/s | -54.5°C | 0.9% | 102hPa | 2.6V | 08:27:17 | 01:14:52 | 00:00:00 | |
| DO2JMG | 2026-09-03 10:46:16 | 52.35560 | 8.72704 | 110° | 75km/h | 16417m | -13.1m/s | -54.6°C | 1% | 101.8hPa | 2.7V | 08:27:17 | 01:14:51 | 00:00:00 | |
| HTAHTA | 2026-09-03 10:46:16 | 52.35574 | 8.72647 | 109° | 75km/h | 16443m | -13.5m/s | -54.8°C | 1.5% | 101.3hPa | 2.7V | 00:00:00 | 00:00:00 | 00:00:00 | |
| DL1XH1-15 | 2026-09-03 10:46:15 | 52.35600 | 8.72530 | 108° | 77km/h | 16491m | -10.5m/s | -54.9°C | 4.4% | 100.5hPa | 2.7V | 08:27:20 | 01:14:45 | 00:00:00 | |
| DF8AY | 2026-09-03 10:46:15 | 52.35574 | 8.72647 | 109° | 75km/h | 16443m | -13.5m/s | -54.8°C | 1% | 101.3hPa | 2.7V | 08:27:17 | 01:14:49 | 00:00:00 | |
| HSKMA3-T | 2026-09-03 10:46:11 | 52.35593 | 8.72560 | 111° | 77km/h | 16481m | -9.8m/s | -54.9°C | 1.1% | 100.7hPa | 2.6V | 08:28:08 | 01:14:46 | 00:00:00 | |
| BIOWL1-15 | 2026-09-03 10:46:10 | 52.35599 | 8.72530 | 109° | 77km/h | 16491m | -10.5m/s | -54.9°C | 1.1% | 100.5hPa | 2.7V | 08:28:08 | 01:14:45 | 00:00:00 | |
| DL1XH-15 | 2026-09-03 10:46:09 | 52.35642 | 8.72346 | 111° | 80km/h | 16556m | -14.2m/s | -55°C | 4.4% | 99.6hPa | 2.7V | 08:27:26 | 01:14:39 | 00:00:00 | |
| AA1-15 | 2026-09-03 10:46:07 | 52.35620 | 8.72439 | 112° | 80km/h | 16522m | -11m/s | -54.8°C | 1.1% | 100.1hPa | 2.6V | 08:28:08 | 01:14:42 | 00:00:00 | |
| DO2JMG | 2026-09-03 10:46:06 | 52.35627 | 8.72408 | 109° | 82km/h | 16532m | -9.1m/s | -54.9°C | 1.1% | 99.9hPa | 2.6V | 08:28:08 | 01:14:41 | 00:00:00 | |
| DF8AY | 2026-09-03 10:46:04 | 52.35642 | 8.72346 | 112° | 80km/h | 16556m | -14.2m/s | -55°C | 1.1% | 99.6hPa | 2.7V | 08:28:08 | 01:14:39 | 00:00:00 | |
| BIOWL1-15 | 2026-09-03 10:46:00 | 52.35675 | 8.72226 | 114° | 78km/h | 16601m | -9.5m/s | -55°C | 1% | 98.8hPa | 2.6V | 08:28:08 | 01:14:35 | 00:00:00 | |
| DM0DOS-11 | 2026-09-03 10:46:00 | 52.35683 | 8.72197 | 116° | 77km/h | 16613m | -13.3m/s | -55°C | 4.3% | 98.7hPa | 2.7V | 08:27:31 | 01:14:34 | 00:00:00 | |
| AA1-15 | 2026-09-03 10:45:56 | 52.35710 | 8.72119 | 119° | 69km/h | 16659m | -14.2m/s | -55.2°C | 1.1% | 98hPa | 2.6V | 08:28:08 | 01:14:31 | 00:00:00 | |
| DO2SHX-10 | 2026-09-03 10:45:56 | 52.35710 | 8.72119 | 120° | 68km/h | 16659m | -14.1m/s | -55.2°C | 4.4% | 97.9hPa | 2.7V | 00:00:00 | 01:14:31 | 00:00:00 | |
| DL1XH1-15 | 2026-09-03 10:45:55 | 52.35768 | 8.71982 | 129° | 68km/h | 16737m | -11.9m/s | -55°C | 4.4% | 96.7hPa | 2.7V | 08:27:40 | 01:14:25 | 00:00:00 | |
| DL1XH-west | 2026-09-03 10:45:55 | 52.35718 | 8.72095 | 124° | 69km/h | 16673m | -14.3m/s | -55.2°C | 1.1% | 97.8hPa | 2.6V | 08:28:08 | 01:14:30 | 00:00:00 | |
| DF8AY | 2026-09-03 10:45:53 | 52.35737 | 8.72049 | 123° | 68km/h | 16701m | -12.5m/s | -55°C | 1% | 97.3hPa | 2.6V | 08:28:08 | 01:14:28 | 00:00:00 | |
| BIOWL1-15 | 2026-09-03 10:45:49 | 52.35779 | 8.71960 | 126° | 68km/h | 16749m | -13m/s | -55°C | 1.1% | 96.5hPa | 2.6V | 08:28:08 | 01:14:24 | 00:00:00 | |
| AA1-15 | 2026-09-03 10:45:46 | 52.35807 | 8.71895 | 122° | 64km/h | 16784m | -9.6m/s | -54.9°C | 1% | 96hPa | 2.7V | 08:28:08 | 01:14:21 | 00:00:00 | |
| DL1XH1-15 | 2026-09-03 10:45:45 | 52.35859 | 8.71781 | 124° | 51km/h | 16855m | -10m/s | -54.8°C | 4.4% | 94.8hPa | 2.7V | 08:27:50 | 01:14:15 | 00:00:00 | |
| DL1XH-west | 2026-09-03 10:45:45 | 52.35816 | 8.71874 | 127° | 62km/h | 16794m | -10.3m/s | -54.8°C | 0.9% | 95.8hPa | 2.7V | 08:28:08 | 01:14:20 | 00:00:00 | |
| DO2JMG | 2026-09-03 10:45:44 | 52.35825 | 8.71854 | 125° | 58km/h | 16805m | -12.5m/s | -54.8°C | 1% | 95.7hPa | 2.7V | 08:28:08 | 01:14:19 | 00:00:00 | |
| DF8AY | 2026-09-03 10:45:42 | 52.35842 | 8.71817 | 128° | 53km/h | 16832m | -12.5m/s | -54.9°C | 1% | 95.3hPa | 2.6V | 08:28:08 | 01:14:17 | 00:00:00 | |
| DO2SHX-10 | 2026-09-03 10:45:41 | 52.35851 | 8.71799 | 126° | 55km/h | 16844m | -12.8m/s | -54.8°C | 4.3% | 95.1hPa | 2.6V | 00:00:00 | 01:14:16 | 00:00:00 | |
| GOEST3-10 | 2026-09-03 10:45:40 | 52.35858 | 8.71781 | 125° | 55km/h | 16856m | -10.0m/s | -54.8°C | 4.4% | 94.8hPa | 2.7V | 00:00:00 | 00:00:00 | 00:00:00 | |
| DL1XH-15 | 2026-09-03 10:45:39 | 52.35902 | 8.71660 | 118° | 60km/h | 16925m | -10.5m/s | -54.9°C | 4.5% | 93.8hPa | 2.7V | 08:27:56 | 01:14:09 | 00:00:00 | |
| BIOWL1-15 | 2026-09-03 10:45:39 | 52.35866 | 8.71763 | 125° | 53km/h | 16867m | -11.8m/s | -54.8°C | 1% | 94.8hPa | 2.7V | 08:28:08 | 01:14:14 | 00:00:00 | |
| HSKMA3-T | 2026-09-03 10:45:38 | 52.35873 | 8.71744 | 120° | 57km/h | 16879m | -11.1m/s | -54.9°C | 1% | 94.6hPa | 2.6V | 08:28:08 | 01:14:13 | 00:00:00 | |
| AA1-15 | 2026-09-03 10:45:36 | 52.35887 | 8.71704 | 121° | 60km/h | 16903m | -11.3m/s | -54.9°C | 1.1% | 94.2hPa | 2.6V | 08:28:08 | 01:14:11 | 00:00:00 | |
| DL1XH-west | 2026-09-03 10:45:35 | 52.35895 | 8.71682 | 117° | 62km/h | 16914m | -11.2m/s | -54.9°C | 1% | 94.1hPa | 2.7V | 08:28:08 | 01:14:10 | 00:00:00 | |
| DO2JMG | 2026-09-03 10:45:33 | 52.35910 | 8.71637 | 119° | 66km/h | 16935m | -10.5m/s | -54.9°C | 1.1% | 93.7hPa | 2.7V | 08:28:08 | 01:14:08 | 00:00:00 | |
| DF8AY | 2026-09-03 10:45:32 | 52.35917 | 8.71613 | 116° | 66km/h | 16947m | -10.5m/s | -54.9°C | 1.1% | 93.6hPa | 2.6V | 08:28:08 | 01:14:07 | 00:00:00 | |
| DF8AY-15 | 2026-09-03 10:45:32 | 52.35917 | 8.71612 | 117° | 58km/h | 16947m | -10.4m/s | -54.9°C | 4.5% | 93.5hPa | 2.6V | 00:00:00 | 01:14:07 | 00:00:00 | |
| DD1CC3-15 | 2026-09-03 10:45:31 | 52.35917 | 8.71612 | 117° | 66km/h | 16947m | -10.5m/s | -54.9°C | 1.6% | 93.6hPa | 2.6V | 08:28:00 | 00:00:00 | 00:00:00 | |
| GOEST3-10 | 2026-09-03 10:45:30 | 52.35933 | 8.71565 | 118° | 60km/h | 16967m | -11.7m/s | -54.7°C | 4.5% | 93.3hPa | 2.6V | 00:00:00 | 00:00:00 | 00:00:00 | |
| DL1XH-15 | 2026-09-03 10:45:29 | 52.35977 | 8.71439 | 121° | 53km/h | 17034m | -8.9m/s | -54.6°C | 4.5% | 92.3hPa | 2.6V | 08:28:06 | 01:13:59 | 00:00:00 | |
| BIOWL1-15 | 2026-09-03 10:45:28 | 52.35948 | 8.71520 | 121° | 62km/h | 16990m | -11.2m/s | -54.8°C | 1.1% | 93hPa | 2.7V | 08:28:08 | 01:14:03 | 00:00:00 | |
| AA1-15 | 2026-09-03 10:45:26 | 52.35963 | 8.71478 | 121° | 57km/h | 17012m | -11.6m/s | -54.8°C | 1.1% | 92.7hPa | 2.6V | 08:28:08 | 01:14:01 | 00:00:00 | |
| DO2SHX-10 | 2026-09-03 10:45:26 | 52.35963 | 8.71478 | 122° | 53km/h | 17012m | -11.5m/s | -54.8°C | 4.6% | 92.6hPa | 2.6V | 00:00:00 | 01:14:01 | 00:00:00 | |
| DL1XH1-15 | 2026-09-03 10:45:25 | 52.36003 | 8.71366 | 120° | 53km/h | 17079m | -11.5m/s | -53.9°C | 4.2% | 91.7hPa | 2.6V | 08:28:10 | 01:13:55 | 00:00:00 | |
| DL1XH-west | 2026-09-03 10:45:25 | 52.35970 | 8.71458 | 118° | 55km/h | 17024m | -11.4m/s | -54.8°C | 1.1% | 92.5hPa | 2.6V | 08:28:08 | 01:14:00 | 00:00:00 | |
| DO2JMG | 2026-09-03 10:45:23 | 52.35984 | 8.71421 | 119° | 51km/h | 17044m | -10.8m/s | -54.3°C | 1% | 92.1hPa | 2.7V | 08:28:08 | 01:13:58 | 00:00:00 | |
| DF8AY | 2026-09-03 10:45:21 | 52.35997 | 8.71385 | 120° | 51km/h | 17067m | -11.8m/s | -53.9°C | 0.9% | 91.8hPa | 2.6V | 08:28:59 | 01:13:56 | 00:00:00 | |
| DB0NH | 2026-09-03 10:45:21 | 52.35997 | 8.71384 | 121° | 49km/h | 17067m | -11.8m/s | -53.9°C | 4.2% | 91.8hPa | 2.6V | 00:00:00 | 01:13:56 | 00:00:00 | |
| DK5PH-5 | 2026-09-03 10:45:20 | 52.36003 | 8.71366 | 121° | 49km/h | 17079m | -11.5m/s | -53.8°C | 4.2% | 91.6hPa | 2.6V | 00:00:00 | 01:13:55 | 00:00:00 | |
| DL1XH-15 | 2026-09-03 10:45:19 | 52.36043 | 8.71247 | 114° | 58km/h | 17147m | -11.9m/s | -53.4°C | 4.1% | 90.7hPa | 2.6V | 08:28:16 | 01:13:49 | 00:00:00 | |
| HSKMA3-T | 2026-09-03 10:45:17 | 52.36024 | 8.71308 | 121° | 53km/h | 17112m | -10.8m/s | -53.8°C | 0.9% | 91.2hPa | 2.7V | 08:28:59 | 01:13:52 | 00:00:00 | |
| DL1XH1-15 | 2026-09-03 10:45:16 | 52.36067 | 8.71164 | 116° | 53km/h | 17193m | -11.1m/s | -53°C | 3.9% | 90hPa | 2.7V | 08:28:20 | 01:13:45 | 00:00:00 | |
| AA1-15 | 2026-09-03 10:45:15 | 52.36037 | 8.71268 | 118° | 55km/h | 17135m | -13.1m/s | -53.5°C | 0.9% | 91hPa | 2.6V | 08:28:59 | 01:13:50 | 00:00:00 | |
| DL1XH-west | 2026-09-03 10:45:14 | 52.36043 | 8.71247 | 114° | 58km/h | 17147m | -11.9m/s | -53.4°C | 0.8% | 90.7hPa | 2.6V | 08:28:59 | 01:13:49 | 00:00:00 | |
| DO2JMG | 2026-09-03 10:45:13 | 52.36049 | 8.71225 | 116° | 55km/h | 17159m | -10.8m/s | -53.3°C | 0.8% | 90.5hPa | 2.6V | 08:28:59 | 01:13:48 | 00:00:00 | |
| DF8AY | 2026-09-03 10:45:11 | 52.36061 | 8.71184 | 114° | 53km/h | 17182m | -13.4m/s | -53°C | 0.7% | 90.3hPa | 2.7V | 08:28:59 | 01:13:46 | 00:00:00 | |
| EDDB2-11 | 2026-09-03 10:45:11 | 52.36067 | 8.71164 | 116° | 53km/h | 17194m | -11.1m/s | -53.0°C | 1.3% | 90.0hPa | 2.6V | 00:00:00 | 00:00:00 | 00:00:00 | |
| DD1CC8 | 2026-09-03 10:45:10 | 52.36072 | 8.71144 | 113° | 51km/h | 17205m | -11.9m/s | -53.0°C | 1.3% | 89.9hPa | 2.6V | 00:00:00 | 00:00:00 | 00:00:00 | |
| DL1XH-15 | 2026-09-03 10:45:09 | 52.36095 | 8.71052 | 108° | 44km/h | 17263m | -12.4m/s | -52.7°C | 3.8% | 89.1hPa | 2.6V | 08:28:26 | 01:13:39 | 00:00:00 | |
| HSKMA3-T | 2026-09-03 10:45:07 | 52.36083 | 8.71107 | 112° | 51km/h | 17229m | -13.1m/s | -52.9°C | 0.6% | 89.5hPa | 2.6V | 08:28:59 | 01:13:42 | 00:00:00 | |
| DF8AY | 2026-09-03 10:45:05 | 52.36108 | 8.70983 | 107° | 46km/h | 17302m | -8.4m/s | -52.8°C | 0.6% | 88.5hPa | 2.7V | 08:28:59 | 01:13:35 | 00:00:00 | |
| AA1-15 | 2026-09-03 10:45:05 | 52.36091 | 8.71069 | 109° | 46km/h | 17251m | -9.7m/s | -52.8°C | 0.7% | 89.2hPa | 2.7V | 08:28:59 | 01:13:40 | 00:00:00 | |
| DL1XH-west | 2026-09-03 10:45:04 | 52.36098 | 8.71035 | 108° | 42km/h | 17274m | -10.7m/s | -52.7°C | 0.7% | 88.9hPa | 2.6V | 08:28:59 | 01:13:38 | 00:00:00 | |
| DB0UT-7 | 2026-09-03 10:45:04 | 52.36095 | 8.71052 | 109° | 44km/h | 17263m | -12.3m/s | -52.6°C | 3.8% | 89.0hPa | 2.7V | 00:00:00 | 00:00:00 | 00:00:00 | |
| DO2JMG | 2026-09-03 10:45:03 | 52.36101 | 8.71018 | 107° | 44km/h | 17285m | -10.5m/s | -52.7°C | 0.6% | 88.8hPa | 2.6V | 08:28:59 | 01:13:37 | 00:00:00 | |
| DO2SHX-10 | 2026-09-03 10:45:01 | 52.36105 | 8.71001 | 108° | 46km/h | 17294m | -8.0m/s | -52.7°C | 3.8% | 88.6hPa | 2.7V | 00:00:00 | 01:13:36 | 00:00:00 | |
| DF5WG-10 | 2026-09-03 10:45:00 | 52.36108 | 8.70983 | 107° | 47km/h | 17303m | -8.4m/s | -52.7°C | 3.8% | 88.5hPa | 2.7V | 00:00:00 | 01:13:35 | 00:00:00 | |
| DL1XH-15 | 2026-09-03 10:44:59 | 52.36125 | 8.70879 | 106° | 40km/h | 17358m | -10.7m/s | -52.9°C | 3.8% | 87.8hPa | 2.7V | 08:28:36 | 01:13:29 | 00:00:00 | |
| BIOWL1-15 | 2026-09-03 10:44:56 | 52.36120 | 8.70912 | 105° | 44km/h | 17339m | -8.7m/s | -53°C | 0.7% | 88hPa | 2.6V | 08:28:59 | 01:13:31 | 00:00:00 | |
| DL1XH1-15 | 2026-09-03 10:44:55 | 52.36139 | 8.70815 | 109° | 40km/h | 17397m | -8.9m/s | -53°C | 3.8% | 87.2hPa | 2.6V | 08:28:40 | 01:13:25 | 00:00:00 | |
| AA1-15 | 2026-09-03 10:44:55 | 52.36122 | 8.70895 | 106° | 42km/h | 17348m | -9.9m/s | -53°C | 0.7% | 87.9hPa | 2.7V | 08:28:59 | 01:13:30 | 00:00:00 | |
| DL1XH-west | 2026-09-03 10:44:53 | 52.36128 | 8.70862 | 108° | 42km/h | 17369m | -10.1m/s | -52.9°C | 0.7% | 87.6hPa | 2.7V | 08:28:59 | 01:13:28 | 00:00:00 | |
| DO2JMG | 2026-09-03 10:44:51 | 52.36135 | 8.70830 | 109° | 40km/h | 17388m | -9.9m/s | -53°C | 0.7% | 87.3hPa | 2.6V | 08:28:59 | 01:13:26 | 00:00:00 | |
| DF8AY | 2026-09-03 10:44:50 | 52.36139 | 8.70815 | 109° | 40km/h | 17397m | -8.9m/s | -53°C | 0.7% | 87.2hPa | 2.6V | 08:28:59 | 01:13:25 | 00:00:00 | |
| DK5PH-5 | 2026-09-03 10:44:50 | 52.36138 | 8.70814 | 110° | 46km/h | 17397m | -8.9m/s | -52.9°C | 3.8% | 87.1hPa | 2.7V | 00:00:00 | 01:13:25 | 00:00:00 | |
| DL1XH-15 | 2026-09-03 10:44:49 | 52.36160 | 8.70710 | 108° | 47km/h | 17456m | -9.8m/s | -53.3°C | 3.9% | 86.4hPa | 2.7V | 08:28:46 | 01:13:19 | 00:00:00 | |
| HSKMA3-T | 2026-09-03 10:44:46 | 52.36153 | 8.70747 | 107° | 47km/h | 17435m | -10.4m/s | -53.2°C | 0.7% | 86.7hPa | 2.6V | 08:28:59 | 01:13:21 | 00:00:00 | |
| AA1-15 | 2026-09-03 10:44:44 | 52.36160 | 8.70710 | 108° | 47km/h | 17456m | -9.8m/s | -53.3°C | 0.7% | 86.4hPa | 2.7V | 08:28:59 | 01:13:19 | 00:00:00 | |
| DB0ND-19 | 2026-09-03 10:44:44 | 52.36160 | 8.70710 | 108° | 46km/h | 17456m | -9.8m/s | -53.3°C | 1.3% | 86.4hPa | 2.7V | 00:00:00 | 00:00:00 | 00:00:00 | |
| DL1XH-west | 2026-09-03 10:44:43 | 52.36164 | 8.70692 | 108° | 46km/h | 17465m | -8.7m/s | -53.4°C | 0.7% | 86.3hPa | 2.7V | 08:28:59 | 01:13:18 | 00:00:00 | |
| DO2JMG | 2026-09-03 10:44:40 | 52.36175 | 8.70641 | 110° | 40km/h | 17492m | -9.8m/s | -53.5°C | 0.8% | 85.9hPa | 2.6V | 08:28:59 | 01:13:15 | 00:00:00 | |
| DF8AY | 2026-09-03 10:44:39 | 52.36178 | 8.70625 | 107° | 44km/h | 17503m | -11.8m/s | -53.5°C | 0.7% | 85.8hPa | 2.6V | 08:28:59 | 01:13:14 | 00:00:00 | |
| DL4BBY-15 | 2026-09-03 10:44:39 | 52.36178 | 8.70625 | 108° | 47km/h | 17503m | -11.7m/s | -52.2°C | 0% | 0hPa | 2.6V | 00:00:00 | 00:00:00 | 00:00:00 | |
| DD1CC8 | 2026-09-03 10:44:38 | 52.36181 | 8.70608 | 104° | 40km/h | 17514m | -10.1m/s | -53.5°C | 1.3% | 85.7hPa | 2.6V | 00:00:00 | 00:00:00 | 00:00:00 | |
| DL3OBA | 2026-09-03 10:44:37 | 52.36184 | 8.70592 | 104° | 40km/h | 17523m | -8.5m/s | -53.4°C | 1.3% | 85.5hPa | 2.6V | 00:00:00 | 00:00:00 | 00:00:00 | |
| DO3DL | 2026-09-03 10:44:36 | 52.36184 | 8.70592 | 104° | 40km/h | 17523m | -8.5m/s | -53.4°C | 1.3% | 85.5hPa | 2.6V | 08:28:00 | 00:00:00 | 00:00:00 | |
| DL1XH1-15 | 2026-09-03 10:44:35 | 52.36193 | 8.70467 | 90° | 49km/h | 17587m | -9.7m/s | -53.4°C | 4.1% | 84.6hPa | 2.6V | 08:29:00 | 01:13:05 | 00:00:00 | |
| BIOWL1-15 | 2026-09-03 10:44:35 | 52.36188 | 8.70559 | 101° | 44km/h | 17541m | -9.9m/s | -53.4°C | 0.8% | 85.3hPa | 2.6V | 08:28:59 | 01:13:10 | 00:00:00 | |
| AA1-15 | 2026-09-03 10:44:34 | 52.36190 | 8.70524 | 93° | 44km/h | 17559m | -8.6m/s | -53.4°C | 0.8% | 85hPa | 2.6V | 08:28:59 | 01:13:08 | 00:00:00 | |
| DL1XH-west | 2026-09-03 10:44:33 | 52.36191 | 8.70506 | 94° | 44km/h | 17567m | -9.4m/s | -53.4°C | 0.8% | 84.9hPa | 2.7V | 08:28:59 | 01:13:07 | 00:00:00 | |
| DO2JMG | 2026-09-03 10:44:30 | 52.36193 | 8.70467 | 90° | 49km/h | 17587m | -9.7m/s | -53.4°C | 0.8% | 84.6hPa | 2.6V | 08:29:50 | 01:13:05 | 00:00:00 | |
| DF8AY | 2026-09-03 10:44:29 | 52.36193 | 8.70448 | 91° | 46km/h | 17597m | -10.5m/s | -53.5°C | 0.8% | 84.5hPa | 2.6V | 08:29:50 | 01:13:04 | 00:00:00 | |
| BIOWL1-15 | 2026-09-03 10:44:27 | 52.36195 | 8.70366 | 92° | 49km/h | 17634m | -9m/s | -53.6°C | 0.9% | 84hPa | 2.7V | 08:29:50 | 01:13:00 | 00:00:00 | |
| DL4XJ-10 | 2026-09-03 10:44:25 | 52.36195 | 8.70366 | 93° | 49km/h | 17634m | -9.0m/s | -52.2°C | 0% | 0hPa | 2.7V | 00:00:00 | 00:00:00 | 00:00:00 | |
| DM0DOS-11 | 2026-09-03 10:44:24 | 52.36209 | 8.70241 | 107° | 51km/h | 17696m | -10.8m/s | -53°C | 4.1% | 83.2hPa | 2.7V | 08:29:11 | 01:12:54 | 00:00:00 | |
| HSKMA3-T | 2026-09-03 10:44:24 | 52.36196 | 8.70345 | 98° | 53km/h | 17644m | -11.1m/s | -53.4°C | 0.9% | 83.9hPa | 2.6V | 08:29:50 | 01:12:59 | 00:00:00 | |
| DL1XH-west | 2026-09-03 10:44:22 | 52.36200 | 8.70302 | 99° | 53km/h | 17664m | -12m/s | -53.2°C | 0.8% | 83.6hPa | 2.6V | 08:29:50 | 01:12:57 | 00:00:00 | |
| DO2JMG | 2026-09-03 10:44:20 | 52.36205 | 8.70261 | 105° | 49km/h | 17685m | -11m/s | -53°C | 0.8% | 83.4hPa | 2.7V | 08:29:50 | 01:12:55 | 00:00:00 | |
| DF8AY | 2026-09-03 10:44:18 | 52.36213 | 8.70221 | 105° | 51km/h | 17706m | -9.4m/s | -53°C | 0.8% | 83.1hPa | 2.6V | 08:29:50 | 01:12:53 | 00:00:00 | |
| BIOWL1-15 | 2026-09-03 10:44:17 | 52.36221 | 8.70161 | 101° | 49km/h | 17733m | -9.7m/s | -52.9°C | 0.8% | 82.7hPa | 2.7V | 08:29:50 | 01:12:50 | 00:00:00 | |
| DO2SHX-10 | 2026-09-03 10:44:16 | 52.36219 | 8.70180 | 103° | 49km/h | 17724m | -9.2m/s | -52.9°C | 4.1% | 82.8hPa | 2.7V | 00:00:00 | 01:12:51 | 00:00:00 | |
| GOEST3-10 | 2026-09-03 10:44:15 | 52.36221 | 8.70161 | 102° | 49km/h | 17733m | -9.6m/s | -52.9°C | 4.1% | 82.7hPa | 2.7V | 00:00:00 | 01:12:50 | 00:00:00 | |
| DM0DOS-11 | 2026-09-03 10:44:14 | 52.36238 | 8.70040 | 104° | 46km/h | 17798m | -9.3m/s | -52°C | 3.7% | 81.9hPa | 2.7V | 08:29:21 | 01:12:44 | 00:00:00 | |
| HSKMA3-T | 2026-09-03 10:44:13 | 52.36227 | 8.70120 | 102° | 53km/h | 17756m | -11.5m/s | -52.7°C | 0.8% | 82.5hPa | 2.6V | 08:29:50 | 01:12:48 | 00:00:00 | |
| DL1XH-west | 2026-09-03 10:44:12 | 52.36229 | 8.70100 | 101° | 51km/h | 17767m | -12m/s | -52.5°C | 0.7% | 82.3hPa | 2.6V | 08:29:50 | 01:12:47 | 00:00:00 | |
| HTAHTA | 2026-09-03 10:44:12 | 52.36232 | 8.70080 | 104° | 47km/h | 17778m | -10.5m/s | -52.3°C | 1.3% | 82.2hPa | 2.7V | 00:00:00 | 00:00:00 | 00:00:00 | |
| DO2SHX-10 | 2026-09-03 10:44:10 | 52.36235 | 8.70060 | 103° | 47km/h | 17789m | -10.2m/s | -52.0°C | 3.8% | 82.0hPa | 2.7V | 00:00:00 | 01:12:45 | 00:00:00 | |
| DL1XH-15 | 2026-09-03 10:44:09 | 52.36258 | 8.69952 | 110° | 47km/h | 17855m | -9.9m/s | -52°C | 3.7% | 81.1hPa | 2.7V | 08:29:26 | 01:12:39 | 00:00:00 | |
| DO2JMG | 2026-09-03 10:44:09 | 52.36238 | 8.70040 | 105° | 46km/h | 17798m | -9.4m/s | -52°C | 0.6% | 81.9hPa | 2.7V | 08:29:50 | 01:12:44 | 00:00:00 | |
| DF8AY | 2026-09-03 10:44:08 | 52.36241 | 8.70022 | 110° | 46km/h | 17809m | -11.4m/s | -52°C | 0.6% | 81.8hPa | 2.7V | 08:29:50 | 01:12:43 | 00:00:00 | |
| DL8DAS-15 | 2026-09-03 10:44:07 | 52.36241 | 8.70022 | 111° | 46km/h | 17809m | -11.4m/s | -52.0°C | 1.3% | 81.8hPa | 2.6V | 08:29:00 | 00:00:00 | 00:00:00 | |
| DL1XH1-15 | 2026-09-03 10:44:05 | 52.36276 | 8.69876 | 110° | 53km/h | 17895m | -11.6m/s | -51.8°C | 3.7% | 80.7hPa | 2.6V | 08:29:30 | 01:12:35 | 00:00:00 | |
| BIOWL1-15 | 2026-09-03 10:44:04 | 52.36257 | 8.69952 | 110° | 47km/h | 17855m | -9.9m/s | -52°C | 0.6% | 81.1hPa | 2.7V | 08:29:50 | 01:12:39 | 00:00:00 | |
| HSKMA3-T | 2026-09-03 10:44:02 | 52.36266 | 8.69915 | 115° | 49km/h | 17874m | -9.9m/s | -51.9°C | 0.6% | 80.9hPa | 2.7V | 08:29:50 | 01:12:37 | 00:00:00 | |
| DL1XH-west | 2026-09-03 10:44:01 | 52.36271 | 8.69896 | 113° | 53km/h | 17884m | -9.6m/s | -51.9°C | 0.6% | 80.8hPa | 2.6V | 08:29:50 | 01:12:36 | 00:00:00 | |
| DL1XH-15 | 2026-09-03 10:44:00 | 52.36311 | 8.69755 | 123° | 53km/h | 17952m | -9.7m/s | -51.7°C | 3.7% | 80hPa | 2.6V | 08:29:36 | 01:12:29 | 00:00:00 | |
| DO2JMG | 2026-09-03 10:43:59 | 52.36287 | 8.69835 | 111° | 51km/h | 17914m | -9.9m/s | -51.8°C | 0.6% | 80.4hPa | 2.7V | 08:29:50 | 01:12:33 | 00:00:00 | |
| DF8AY | 2026-09-03 10:43:57 | 52.36292 | 8.69815 | 115° | 57km/h | 17923m | -7.9m/s | -51.7°C | 0.5% | 80.3hPa | 2.7V | 08:29:50 | 01:12:32 | 00:00:00 | |
| DO2SHX-10 | 2026-09-03 10:43:57 | 52.36292 | 8.69815 | 115° | 55km/h | 17923m | -7.8m/s | -51.7°C | 3.7% | 80.2hPa | 2.6V | 00:00:00 | 01:12:32 | 00:00:00 | |
| SMARD9-10 | 2026-09-03 10:43:56 | 52.36292 | 8.69815 | 116° | 55km/h | 17923m | -7.9m/s | -51.7°C | 1.2% | 80.3hPa | 2.6V | 00:00:00 | 00:00:00 | 00:00:00 | |
| DL1XH1-15 | 2026-09-03 10:43:55 | 52.36341 | 8.69682 | 125° | 53km/h | 17991m | -9.8m/s | -51.8°C | 3.7% | 79.5hPa | 2.6V | 08:29:40 | 01:12:25 | 00:00:00 | |
| DB0DAN | 2026-09-03 10:43:55 | 52.36304 | 8.69775 | 116° | 53km/h | 17942m | -9.9m/s | 0°C | 0% | 80.08hPa | 2.6V | 00:00:00 | 00:00:00 | 00:00:00 | |
| BIOWL1-15 | 2026-09-03 10:43:54 | 52.36311 | 8.69755 | 123° | 53km/h | 17952m | -9.7m/s | -51.7°C | 0.6% | 80hPa | 2.6V | 08:29:50 | 01:12:29 | 00:00:00 | |
| HSKMA3-T | 2026-09-03 10:43:52 | 52.36326 | 8.69717 | 126° | 55km/h | 17971m | -9.8m/s | -51.7°C | 0.5% | 79.7hPa | 2.7V | 08:29:50 | 01:12:27 | 00:00:00 | |
| AA1-15 | 2026-09-03 10:43:51 | 52.36334 | 8.69699 | 125° | 51km/h | 17981m | -9.9m/s | -51.8°C | 0.6% | 79.6hPa | 2.7V | 08:29:50 | 01:12:26 | 00:00:00 | |
| DL1XH-west | 2026-09-03 10:43:50 | 52.36341 | 8.69682 | 126° | 53km/h | 17991m | -9.8m/s | -51.8°C | 0.6% | 79.5hPa | 2.6V | 08:29:50 | 01:12:25 | 00:00:00 | |
| DF7PN | 2026-09-03 10:43:50 | 52.36349 | 8.69665 | 127° | 47km/h | 18001m | -9.3m/s | -51.9°C | 1.2% | 79.4hPa | 2.6V | 00:00:00 | 00:00:00 | 00:00:00 | |
| DL1XH-15 | 2026-09-03 10:43:49 | 52.36382 | 8.69589 | 127° | 40km/h | 18049m | -10.3m/s | -51.9°C | 3.7% | 78.8hPa | 2.6V | 08:29:46 | 01:12:19 | 00:00:00 | |
| DO2JMG | 2026-09-03 10:43:47 | 52.36363 | 8.69633 | 128° | 46km/h | 18020m | -9.3m/s | -51.9°C | 0.6% | 79.1hPa | 2.7V | 08:29:50 | 01:12:22 | 00:00:00 | |
| DF8AY | 2026-09-03 10:43:46 | 52.36369 | 8.69618 | 124° | 42km/h | 18030m | -9.7m/s | -52°C | 0.6% | 79hPa | 2.7V | 08:29:50 | 01:12:21 | 00:00:00 | |
| BUE01 | 2026-09-03 10:43:45 | 52.36375 | 8.69603 | 122° | 44km/h | 18039m | -10.6m/s | -51.9°C | 1.2% | 78.9hPa | 2.6V | 00:00:00 | 00:00:00 | 00:00:00 | |
| DL8DAS-14 | 2026-09-03 10:43:44 | 52.36382 | 8.69589 | 127° | 40km/h | 18050m | -10.3m/s | -51.9°C | 1.2% | 78.8hPa | 2.6V | 00:00:00 | 00:00:00 | 00:00:00 | |
| BIOWL1-15 | 2026-09-03 10:43:43 | 52.36388 | 8.69575 | 126° | 44km/h | 18060m | -9.7m/s | -51.9°C | 0.6% | 78.7hPa | 2.6V | 08:29:50 | 01:12:18 | 00:00:00 | |
| HSKMA3-T | 2026-09-03 10:43:41 | 52.36401 | 8.69548 | 132° | 46km/h | 18078m | -8.9m/s | -51.8°C | 0.5% | 78.5hPa | 2.7V | 08:29:50 | 01:12:16 | 00:00:00 | |
| DB0DAN | 2026-09-03 10:43:40 | 52.36409 | 8.69534 | 131° | 42km/h | 18087m | -9.2m/s | 0°C | 0% | 78.32hPa | 2.7V | 00:00:00 | 00:00:00 | 00:00:00 | |
| DL1XH-west | 2026-09-03 10:43:40 | 52.36409 | 8.69534 | 131° | 44km/h | 18087m | -9.2m/s | -51.7°C | 0.5% | 78.3hPa | 2.7V | 08:29:50 | 01:12:15 | 00:00:00 | |
| DO2JMG | 2026-09-03 10:43:37 | 52.36433 | 8.69493 | 136° | 49km/h | 18112m | -8.3m/s | -51.7°C | 0.4% | 78hPa | 2.6V | 18:12:15 | 01:12:12 | 00:00:00 | |
| DF8AY | 2026-09-03 10:43:36 | 52.36451 | 8.69466 | 140° | 47km/h | 18131m | -9.8m/s | -51.8°C | 0.4% | 77.8hPa | 2.7V | 18:12:15 | 01:12:10 | 00:00:00 | |
| DL1XH1-15 | 2026-09-03 10:43:35 | 52.36493 | 8.69405 | 138° | 40km/h | 18177m | -8.9m/s | -52.1°C | 3.6% | 77.2hPa | 2.7V | 08:30:00 | 01:12:05 | 00:00:00 | |
| BIOWL1-15 | 2026-09-03 10:43:33 | 52.36468 | 8.69440 | 137° | 44km/h | 18151m | -10.1m/s | -51.9°C | 0.5% | 77.6hPa | 2.6V | 18:12:15 | 01:12:08 | 00:00:00 | |
| HSKMA3-T | 2026-09-03 10:43:31 | 52.36485 | 8.69417 | 140° | 44km/h | 18169m | -7.9m/s | -52°C | 0.5% | 77.3hPa | 2.6V | 18:12:15 | 01:12:06 | 00:00:00 | |
| AA1-15 | 2026-09-03 10:43:30 | 52.36493 | 8.69405 | 139° | 40km/h | 18177m | -9m/s | -52.1°C | 0.5% | 77.2hPa | 2.7V | 18:12:15 | 01:12:05 | 00:00:00 | |
| DL1XH-west | 2026-09-03 10:43:29 | 52.36501 | 8.69395 | 143° | 38km/h | 18185m | -7.5m/s | -52.1°C | 0.5% | 77.2hPa | 2.7V | 18:12:15 | 01:12:04 | 00:00:00 | |
| DO2JMG | 2026-09-03 10:43:27 | 52.36515 | 8.69376 | 141° | 35km/h | 18204m | -9.7m/s | -52.2°C | 0.6% | 77hPa | 2.6V | 18:12:15 | 01:12:02 | 00:00:00 | |
| DL1XH1-15 | 2026-09-03 10:43:27 | 52.36565 | 8.69307 | 138° | 38km/h | 18263m | -10.4m/s | -52.3°C | 3.7% | 76.3hPa | 2.6V | 08:30:00 | 01:11:55 | 00:00:00 | |
| BIOWL1-15 | 2026-09-03 10:43:27 | 52.36543 | 8.69336 | 138° | 37km/h | 18239m | -8.5m/s | -52.2°C | 0.6% | 76.5hPa | 2.7V | 18:12:15 | 01:11:58 | 00:00:00 | |
| DL4XJ-10 | 2026-09-03 10:43:25 | 52.36529 | 8.69357 | 139° | 35km/h | 18222m | -8.7m/s | -50.9°C | 0% | 0hPa | 2.7V | 00:00:00 | 00:00:00 | 00:00:00 | |
| DM0DOS-11 | 2026-09-03 10:43:24 | 52.36572 | 8.69296 | 138° | 38km/h | 18273m | -10.2m/s | -52.4°C | 3.7% | 76.1hPa | 2.7V | 08:30:00 | 01:11:54 | 00:00:00 | |
| DF8AY | 2026-09-03 10:43:24 | 52.36536 | 8.69346 | 136° | 38km/h | 18230m | -7.7m/s | -52.2°C | 0.6% | 76.6hPa | 2.7V | 18:12:15 | 01:11:59 | 00:00:00 | |
| HSKMA3-T | 2026-09-03 10:43:20 | 52.36565 | 8.69307 | 139° | 40km/h | 18263m | -10.4m/s | -52.3°C | 0.6% | 76.3hPa | 2.6V | 18:12:15 | 01:11:55 | 00:00:00 | |
| DK5PH-5 | 2026-09-03 10:43:20 | 52.36565 | 8.69306 | 139° | 33km/h | 18263m | -10.3m/s | -52.3°C | 3.7% | 76.2hPa | 2.6V | 00:00:00 | 01:11:55 | 00:00:00 | |
| DL1XH-15 | 2026-09-03 10:43:19 | 52.36605 | 8.69248 | 128° | 33km/h | 18325m | -9.9m/s | -52.7°C | 3.8% | 75.6hPa | 2.6V | 08:30:00 | 01:11:49 | 00:00:00 | |
| AA1-15 | 2026-09-03 10:43:19 | 52.36572 | 8.69296 | 138° | 38km/h | 18273m | -10.2m/s | -52.4°C | 0.6% | 76.1hPa | 2.7V | 18:12:15 | 01:11:54 | 00:00:00 | |
| DL1XH-west | 2026-09-03 10:43:18 | 52.36579 | 8.69286 | 139° | 37km/h | 18283m | -10.1m/s | -52.4°C | 0.6% | 76hPa | 2.7V | 18:12:15 | 01:11:53 | 00:00:00 | |
| DO2JMG | 2026-09-03 10:43:16 | 52.36593 | 8.69267 | 139° | 35km/h | 18303m | -11m/s | -52.6°C | 0.6% | 75.8hPa | 2.6V | 18:12:15 | 01:11:51 | 00:00:00 | |
| DO2SHX-10 | 2026-09-03 10:43:16 | 52.36593 | 8.69267 | 140° | 33km/h | 18304m | -10.9m/s | -52.5°C | 3.8% | 75.8hPa | 2.6V | 00:00:00 | 01:11:51 | 00:00:00 | |
| DL1XH1-15 | 2026-09-03 10:43:15 | 52.36620 | 8.69204 | 116° | 29km/h | 18365m | -9.6m/s | -52.7°C | 3.8% | 75.1hPa | 2.6V | 08:30:00 | 01:11:45 | 00:00:00 | |
| GOEST3-10 | 2026-09-03 10:43:15 | 52.36599 | 8.69258 | 136° | 31km/h | 18315m | -10.7m/s | -52.6°C | 3.8% | 75.6hPa | 2.6V | 00:00:00 | 01:11:50 | 00:00:00 | |
| DM0DOS-11 | 2026-09-03 10:43:14 | 52.36623 | 8.69193 | 115° | 31km/h | 18375m | -9.3m/s | -52.7°C | 3.8% | 75hPa | 2.6V | 08:30:00 | 01:11:44 | 00:00:00 | |
| BIOWL1-15 | 2026-09-03 10:43:14 | 52.36613 | 8.69226 | 120° | 29km/h | 18345m | -9.8m/s | -52.7°C | 0.6% | 75.3hPa | 2.7V | 18:12:15 | 01:11:47 | 00:00:00 | |
| DF8AY | 2026-09-03 10:43:13 | 52.36609 | 8.69237 | 121° | 31km/h | 18335m | -10m/s | -52.7°C | 0.6% | 75.5hPa | 2.7V | 18:12:15 | 01:11:48 | 00:00:00 | |
| DD8BA-10 | 2026-09-03 10:43:13 | 52.36609 | 8.69237 | 122° | 31km/h | 18335m | -10.0m/s | -52.6°C | 3.8% | 75.4hPa | 2.6V | 00:00:00 | 00:00:00 | 00:00:00 | |
| DF8AY-15 | 2026-09-03 10:43:12 | 52.36613 | 8.69226 | 120° | 33km/h | 18345m | -9.8m/s | -52.6°C | 3.8% | 75.3hPa | 2.6V | 00:00:00 | 01:11:47 | 00:00:00 | |
| DL1LOL-11 | 2026-09-03 10:43:11 | 52.36613 | 8.69226 | 121° | 29km/h | 18345m | -9.8m/s | -52.7°C | 1.2% | 75.3hPa | 2.6V | 00:00:00 | 00:00:00 | 00:00:00 | |
| DB0DAN | 2026-09-03 10:43:10 | 52.36620 | 8.69204 | 116° | 27km/h | 18365m | -9.6m/s | 0°C | 0% | 75.11hPa | 2.6V | 00:00:00 | 00:00:00 | 00:00:00 | |
| HSKMA3-T | 2026-09-03 10:43:09 | 52.36623 | 8.69193 | 115° | 31km/h | 18375m | -9.3m/s | -52.7°C | 0.6% | 75hPa | 2.6V | 18:12:15 | 01:11:44 | 00:00:00 | |
| AA1-15 | 2026-09-03 10:43:08 | 52.36627 | 8.69182 | 124° | 31km/h | 18384m | -10.3m/s | -52.8°C | 0.6% | 74.9hPa | 2.6V | 18:12:15 | 01:11:43 | 00:00:00 | |
| DL1XH-west | 2026-09-03 10:43:07 | 52.36632 | 8.69172 | 131° | 33km/h | 18394m | -9.7m/s | -52.8°C | 0.7% | 74.7hPa | 2.7V | 18:12:15 | 01:11:42 | 00:00:00 | |
| DO2JMG | 2026-09-03 10:43:05 | 52.36643 | 8.69152 | 135° | 33km/h | 18415m | -9.9m/s | -52.9°C | 0.7% | 74.5hPa | 2.6V | 18:12:15 | 01:11:40 | 00:00:00 | |
| GOEST3-10 | 2026-09-03 10:43:05 | 52.36643 | 8.69152 | 135° | 31km/h | 18415m | -9.8m/s | -52.8°C | 3.9% | 74.5hPa | 2.6V | 00:00:00 | 01:11:40 | 00:00:00 | |
| DM0DOS-11 | 2026-09-03 10:43:04 | 52.36676 | 8.69096 | 131° | 31km/h | 18457m | 11m/s | -52.8°C | 3.8% | 73.9hPa | 2.6V | 08:30:00 | 01:11:34 | 00:00:00 | |
| DF8AY | 2026-09-03 10:43:02 | 52.36660 | 8.69123 | 137° | 29km/h | 18445m | -11.2m/s | -52.8°C | 0.6% | 74.2hPa | 2.7V | 18:12:15 | 01:11:37 | 00:00:00 | |
| BIOWL1-15 | 2026-09-03 10:43:01 | 52.36666 | 8.69115 | 135° | 31km/h | 18456m | -10.3m/s | -52.7°C | 0.6% | 74hPa | 2.7V | 18:12:15 | 01:11:36 | 00:00:00 | |
| DO2SHX-10 | 2026-09-03 10:43:01 | 52.36666 | 8.69115 | 136° | 31km/h | 18457m | -10.3m/s | -52.6°C | 3.8% | 74.0hPa | 2.7V | 00:00:00 | 01:11:36 | 00:00:00 | |
| GOEST3-10 | 2026-09-03 10:43:00 | 52.36671 | 8.69106 | 134° | 35km/h | 18462m | -0.2m/s | -52.6°C | 3.8% | 73.9hPa | 2.7V | 00:00:00 | 00:00:00 | 00:00:00 | |
| DL1XH-15 | 2026-09-03 10:42:59 | 52.36704 | 8.69045 | 125° | 38km/h | 18429m | 3.5m/s | -52.8°C | 3.9% | 74.3hPa | 2.7V | 08:30:00 | 01:11:29 | 00:00:00 | |
| HSKMA3-T | 2026-09-03 10:42:59 | 52.36676 | 8.69096 | 131° | 31km/h | 18457m | 11m/s | -52.8°C | 0.6% | 73.9hPa | 2.6V | 18:12:15 | 01:11:34 | 00:00:00 | |
| AA1-15 | 2026-09-03 10:42:57 | 52.36687 | 8.69079 | 135° | 31km/h | 18443m | 4.8m/s | -52.9°C | 0.7% | 74.1hPa | 2.6V | 18:12:15 | 01:11:32 | 00:00:00 | |
| DL1XH-west | 2026-09-03 10:42:56 | 52.36693 | 8.69069 | 132° | 35km/h | 18438m | 4.1m/s | -52.8°C | 0.7% | 74.1hPa | 2.7V | 18:12:15 | 01:11:31 | 00:00:00 | |
| DL1XH1-15 | 2026-09-03 10:42:55 | 52.36726 | 8.68997 | 122° | 33km/h | 18410m | 6.1m/s | -52.8°C | 3.9% | 74.5hPa | 2.7V | 08:30:00 | 01:11:25 | 00:00:00 | |
| DO2JMG | 2026-09-03 10:42:55 | 52.36699 | 8.69057 | 128° | 37km/h | 18433m | 5.6m/s | -52.8°C | 0.7% | 74.2hPa | 2.7V | 18:12:15 | 01:11:30 | 00:00:00 | |
| BIOWL1-15 | 2026-09-03 10:42:55 | 52.36721 | 8.69009 | 127° | 33km/h | 18415m | 4.1m/s | -52.8°C | 0.7% | 74.4hPa | 2.6V | 18:12:15 | 01:11:26 | 00:00:00 | |
| DF8AY | 2026-09-03 10:42:53 | 52.36716 | 8.69020 | 129° | 37km/h | 18419m | 4.8m/s | -52.8°C | 0.7% | 74.3hPa | 2.6V | 18:12:15 | 01:11:27 | 00:00:00 | |
| DF8AY-15 | 2026-09-03 10:42:53 | 52.36716 | 8.69020 | 129° | 29km/h | 18419m | 4.7m/s | -52.8°C | 3.9% | 74.3hPa | 2.6V | 00:00:00 | 01:11:27 | 00:00:00 | |
| DB0NH | 2026-09-03 10:42:51 | 52.36721 | 8.69008 | 127° | 31km/h | 18415m | 4.0m/s | -52.7°C | 3.9% | 74.3hPa | 2.7V | 00:00:00 | 01:11:26 | 00:00:00 | |
| DO2SHX-10 | 2026-09-03 10:42:50 | 52.36726 | 8.68997 | 123° | 31km/h | 18410m | 6.1m/s | -52.8°C | 3.9% | 74.4hPa | 2.7V | 00:00:00 | 01:11:25 | 00:00:00 | |
| DL1XH-15 | 2026-09-03 10:42:49 | 52.36748 | 8.68943 | 126° | 27km/h | 18379m | 4.8m/s | -52.6°C | 3.9% | 74.8hPa | 2.7V | 08:30:00 | 01:11:19 | 00:00:00 | |
| HSKMA3-T | 2026-09-03 10:42:48 | 52.36733 | 8.68976 | 119° | 26km/h | 18399m | 5m/s | -52.7°C | 0.7% | 74.5hPa | 2.6V | 18:12:15 | 01:11:23 | 00:00:00 | |
| DL1XH-west | 2026-09-03 10:42:46 | 52.36740 | 8.68960 | 129° | 24km/h | 18389m | 3.9m/s | -52.6°C | 0.6% | 74.7hPa | 2.6V | 18:12:15 | 01:11:21 | 00:00:00 | |
| DO2JMG | 2026-09-03 10:42:44 | 52.36748 | 8.68943 | 127° | 27km/h | 18380m | 4.8m/s | -52.6°C | 0.7% | 74.9hPa | 2.7V | 18:12:15 | 01:11:19 | 00:00:00 | |
| DF8AY | 2026-09-03 10:42:42 | 52.36757 | 8.68923 | 131° | 29km/h | 18370m | 6.3m/s | -52.6°C | 0.7% | 74.9hPa | 2.6V | 18:12:15 | 01:11:17 | 00:00:00 | |
| BIOWL1-15 | 2026-09-03 10:42:42 | 52.36767 | 8.68906 | 132° | 29km/h | 18360m | 4.2m/s | -52.6°C | 0.7% | 75hPa | 2.6V | 18:12:15 | 01:11:15 | 00:00:00 | |
| DJ2DS-15 | 2026-09-03 10:42:42 | 52.36762 | 8.68914 | 133° | 27km/h | 18365m | 5.1m/s | -52.5°C | 1.2% | 75.0hPa | 2.6V | 00:00:00 | 00:00:00 | 00:00:00 | |
| DO2SHX-10 | 2026-09-03 10:42:41 | 52.36762 | 8.68914 | 134° | 29km/h | 18365m | 5.0m/s | -52.5°C | 3.8% | 74.9hPa | 2.6V | 00:00:00 | 01:11:16 | 00:00:00 | |
| DB0ND-19 | 2026-09-03 10:42:40 | 52.36772 | 8.68896 | 129° | 29km/h | 18355m | 6.3m/s | -52.6°C | 1.3% | 75.1hPa | 2.6V | 00:00:00 | 00:00:00 | 00:00:00 | |
| DB0DAN | 2026-09-03 10:42:40 | 52.36767 | 8.68906 | 132° | 27km/h | 18360m | 4.2m/s | 0°C | 0% | 0hPa | 2.6V | 00:00:00 | 00:00:00 | 00:00:00 | |
| DL1XH-15 | 2026-09-03 10:42:39 | 52.36794 | 8.68843 | 122° | 33km/h | 18327m | 5.8m/s | -52.6°C | 4% | 75.4hPa | 2.6V | 08:30:00 | 01:11:09 | 00:00:00 | |
| HSKMA3-T | 2026-09-03 10:42:37 | 52.36781 | 8.68875 | 124° | 31km/h | 18343m | 5.9m/s | -52.7°C | 0.7% | 75.2hPa | 2.7V | 18:12:15 | 01:11:12 | 00:00:00 | |
| DL1XH-west | 2026-09-03 10:42:36 | 52.36786 | 8.68864 | 123° | 29km/h | 18337m | 5m/s | -52.6°C | 0.8% | 75.3hPa | 2.6V | 18:12:15 | 01:11:11 | 00:00:00 | |
| AA1-15 | 2026-09-03 10:42:35 | 52.36790 | 8.68854 | 122° | 31km/h | 18333m | 4.6m/s | -52.6°C | 0.6% | 75.4hPa | 2.6V | 18:12:15 | 01:11:10 | 00:00:00 | |
| DO2JMG | 2026-09-03 10:42:33 | 52.36799 | 8.68831 | 125° | 33km/h | 18322m | 4.5m/s | -52.5°C | 0.7% | 75.5hPa | 2.7V | 18:12:15 | 01:11:08 | 00:00:00 | |
| BIOWL1-15 | 2026-09-03 10:42:32 | 52.36813 | 8.68802 | 135° | 29km/h | 18306m | 5.1m/s | -52.5°C | 0.6% | 75.6hPa | 2.6V | 18:12:15 | 01:11:05 | 00:00:00 | |
| DF8AY | 2026-09-03 10:42:31 | 52.36808 | 8.68811 | 132° | 29km/h | 18311m | 5.2m/s | -52.5°C | 0.7% | 75.6hPa | 2.6V | 18:12:15 | 01:11:06 | 00:00:00 | |
| DF8AY-15 | 2026-09-03 10:42:31 | 52.36808 | 8.68811 | 132° | 35km/h | 18311m | 5.2m/s | -52.4°C | 3.9% | 75.5hPa | 2.6V | 00:00:00 | 01:11:06 | 00:00:00 | |
| DL1XH-15 | 2026-09-03 10:42:29 | 52.36847 | 8.68743 | 131° | 38km/h | 18274m | 5.3m/s | -52.2°C | 3.8% | 76hPa | 2.6V | 08:30:00 | 01:10:59 | 00:00:00 | |
| HSKMA3-T | 2026-09-03 10:42:27 | 52.36830 | 8.68774 | 134° | 31km/h | 18290m | 6.3m/s | -52.4°C | 0.6% | 75.8hPa | 2.7V | 18:12:15 | 01:11:02 | 00:00:00 | |
| DL1XH-west | 2026-09-03 10:42:25 | 52.36841 | 8.68754 | 131° | 35km/h | 18280m | 5.8m/s | -52.4°C | 0.6% | 75.9hPa | 2.6V | 18:12:15 | 01:11:00 | 00:00:00 | |
| DB0DAN | 2026-09-03 10:42:25 | 52.36841 | 8.68754 | 131° | 33km/h | 18280m | 5.8m/s | 0°C | 0% | 0hPa | 2.6V | 00:00:00 | 00:00:00 | 00:00:00 | |
| AA1-15 | 2026-09-03 10:42:24 | 52.36847 | 8.68743 | 132° | 38km/h | 18274m | 5.3m/s | -52.2°C | 0.6% | 76hPa | 2.6V | 18:12:15 | 01:10:59 | 00:00:00 | |
| DO2JMG | 2026-09-03 10:42:23 | 52.36854 | 8.68732 | 133° | 37km/h | 18269m | 5.5m/s | -52.3°C | 0.6% | 76.1hPa | 2.6V | 18:12:15 | 01:10:58 | 00:00:00 | |
| DF8AY | 2026-09-03 10:42:21 | 52.36867 | 8.68710 | 138° | 38km/h | 18259m | 4.1m/s | -52.3°C | 0.6% | 76.2hPa | 2.7V | 18:12:15 | 01:10:56 | 00:00:00 | |
| BIOWL1-15 | 2026-09-03 10:42:19 | 52.36882 | 8.68689 | 140° | 40km/h | 18249m | 4.3m/s | -52.2°C | 0.7% | 76.4hPa | 2.6V | 18:12:15 | 01:10:54 | 00:00:00 | |
| HSKMA3-T | 2026-09-03 10:42:16 | 52.36903 | 8.68660 | 138° | 35km/h | 18234m | 5.1m/s | -52.3°C | 0.7% | 76.5hPa | 2.7V | 18:12:15 | 01:10:51 | 00:00:00 | |
| DL1XH-west | 2026-09-03 10:42:14 | 52.36916 | 8.68640 | 132° | 35km/h | 18222m | 5.8m/s | -52.2°C | 0.6% | 76.7hPa | 2.6V | 18:12:15 | 01:10:49 | 00:00:00 | |
| AA1-15 | 2026-09-03 10:42:13 | 52.36922 | 8.68629 | 128° | 35km/h | 18217m | 5.4m/s | -52.3°C | 0.6% | 76.7hPa | 2.6V | 18:12:15 | 01:10:48 | 00:00:00 | |
| DO2JMG | 2026-09-03 10:42:12 | 52.36927 | 8.68617 | 127° | 37km/h | 18212m | 4.1m/s | -52.1°C | 0.6% | 76.8hPa | 2.6V | 18:12:15 | 01:10:47 | 00:00:00 | |
| DF8AY | 2026-09-03 10:42:11 | 52.36933 | 8.68605 | 127° | 38km/h | 18207m | 6.2m/s | -52.2°C | 0.6% | 76.9hPa | 2.7V | 18:12:15 | 01:10:46 | 00:00:00 | |
| DF8AY-15 | 2026-09-03 10:42:11 | 52.36932 | 8.68605 | 128° | 44km/h | 18207m | 6.1m/s | -52.2°C | 3.8% | 76.8hPa | 2.7V | 00:00:00 | 01:10:46 | 00:00:00 | |
| DL9SK-14 | 2026-09-03 10:42:10 | 52.36947 | 8.68579 | 135° | 42km/h | 18197m | 5.1m/s | -52.2°C | 1.2% | 76.9hPa | 2.7V | 00:00:00 | 00:00:00 | 00:00:00 | |
| DL1XH-15 | 2026-09-03 10:42:09 | 52.36995 | 8.68522 | 147° | 47km/h | 18172m | 6m/s | -52°C | 3.8% | 77.3hPa | 2.7V | 08:30:00 | 01:10:39 | 00:00:00 | |
| BIOWL1-15 | 2026-09-03 10:42:09 | 52.36947 | 8.68579 | 135° | 44km/h | 18197m | 5.1m/s | -52.2°C | 0.6% | 76.9hPa | 2.7V | 18:12:15 | 01:10:44 | 00:00:00 | |
| HSKMA3-T | 2026-09-03 10:42:06 | 52.36974 | 8.68544 | 146° | 49km/h | 18182m | 5.4m/s | -52.1°C | 0.6% | 77.1hPa | 2.6V | 18:12:15 | 01:10:41 | 00:00:00 | |
| DJ2DS-15 | 2026-09-03 10:42:06 | 52.36995 | 8.68522 | 147° | 46km/h | 18172m | 6.0m/s | -52.0°C | 1.2% | 77.3hPa | 2.6V | 00:00:00 | 00:00:00 | 00:00:00 | |
| DL1XH1-15 | 2026-09-03 10:42:05 | 52.37027 | 8.68474 | 127° | 42km/h | 18152m | 5m/s | -51.8°C | 3.7% | 77.5hPa | 2.6V | 08:30:00 | 01:10:35 | 00:00:00 | |
| DL1XH-west | 2026-09-03 10:42:04 | 52.36995 | 8.68522 | 147° | 47km/h | 18172m | 6m/s | -52°C | 0.6% | 77.3hPa | 2.7V | 18:12:15 | 01:10:39 | 00:00:00 | |
| AA1-15 | 2026-09-03 10:42:03 | 52.37004 | 8.68512 | 143° | 44km/h | 18166m | 4m/s | -51.9°C | 0.6% | 77.4hPa | 2.7V | 18:12:15 | 01:10:38 | 00:00:00 | |
| DO2JMG | 2026-09-03 10:42:01 | 52.37020 | 8.68488 | 132° | 42km/h | 18157m | 5.5m/s | -51.9°C | 0.6% | 77.4hPa | 2.6V | 18:12:15 | 01:10:36 | 00:00:00 | |
| DF8AY | 2026-09-03 10:42:01 | 52.37027 | 8.68474 | 127° | 42km/h | 18152m | 5m/s | -51.8°C | 0.6% | 77.5hPa | 2.6V | 18:12:15 | 01:10:35 | 00:00:00 | |
| BIOWL1-15 | 2026-09-03 10:42:00 | 52.37039 | 8.68448 | 130° | 38km/h | 18141m | 4.8m/s | -51.7°C | 0.5% | 77.6hPa | 2.7V | 18:12:15 | 01:10:33 | 00:00:00 | |
| DL1XH-15 | 2026-09-03 10:41:59 | 52.37067 | 8.68396 | 136° | 46km/h | 18121m | 6m/s | -51.6°C | 3.7% | 77.8hPa | 2.7V | 08:30:00 | 01:10:29 | 00:00:00 | |
| HSKMA3-T | 2026-09-03 10:41:56 | 52.37052 | 8.68423 | 131° | 42km/h | 18131m | 6.1m/s | -51.7°C | 0.5% | 77.7hPa | 2.6V | 18:12:15 | 01:10:31 | 00:00:00 | |
| DO2SHX-10 | 2026-09-03 10:41:56 | 52.37052 | 8.68423 | 131° | 42km/h | 18132m | 6.0m/s | -51.6°C | 3.7% | 77.7hPa | 2.6V | 00:00:00 | 01:10:31 | 00:00:00 | |
| DL1XH1-15 | 2026-09-03 10:41:55 | 52.37101 | 8.68346 | 132° | 46km/h | 18101m | 4.5m/s | -51.7°C | 3.7% | 78.1hPa | 2.6V | 08:30:00 | 01:10:25 | 00:00:00 | |
| DL1XH-west | 2026-09-03 10:41:54 | 52.37067 | 8.68396 | 137° | 46km/h | 18121m | 6m/s | -51.6°C | 0.5% | 77.8hPa | 2.7V | 18:12:15 | 01:10:29 | 00:00:00 | |
| AA1-15 | 2026-09-03 10:41:53 | 52.37076 | 8.68384 | 140° | 46km/h | 18115m | 4.7m/s | -51.6°C | 0.5% | 77.9hPa | 2.7V | 18:12:15 | 01:10:28 | 00:00:00 | |
| DO2JMG | 2026-09-03 10:41:51 | 52.37093 | 8.68359 | 136° | 46km/h | 18106m | 5.9m/s | -51.7°C | 0.6% | 78hPa | 2.6V | 18:12:15 | 01:10:26 | 00:00:00 | |
| DF8AY | 2026-09-03 10:41:50 | 52.37101 | 8.68346 | 133° | 46km/h | 18101m | 4.5m/s | -51.7°C | 0.6% | 78.1hPa | 2.6V | 18:12:15 | 01:10:25 | 00:00:00 | |
| DO2SHX-10 | 2026-09-03 10:41:50 | 52.37101 | 8.68346 | 133° | 46km/h | 18101m | 4.4m/s | -51.7°C | 3.7% | 78.1hPa | 2.6V | 00:00:00 | 01:10:25 | 00:00:00 | |
| DL1XH-15 | 2026-09-03 10:41:49 | 52.37142 | 8.68265 | 127° | 47km/h | 18071m | 4.5m/s | -51.9°C | 3.7% | 78.5hPa | 2.6V | 08:30:00 | 01:10:19 | 00:00:00 | |
| BIOWL1-15 | 2026-09-03 10:41:47 | 52.37122 | 8.68307 | 130° | 38km/h | 18086m | 4.1m/s | -51.9°C | 0.6% | 78.3hPa | 2.7V | 18:12:15 | 01:10:22 | 00:00:00 | |
| AU51GT2 | 2026-09-03 10:41:47 | 52.37128 | 8.68294 | 128° | 40km/h | 18082m | 4.6m/s | -51.9°C | 1.2% | 78.4hPa | 2.6V | 00:00:00 | 00:00:00 | 00:00:00 | |
| HSKMA3-T | 2026-09-03 10:41:47 | 52.37128 | 8.68294 | 129° | 40km/h | 18081m | 4.6m/s | -51.9°C | 0.6% | 78.4hPa | 2.7V | 18:12:15 | 01:10:21 | 00:00:00 | |
| DF7PN | 2026-09-03 10:41:45 | 52.37135 | 8.68280 | 126° | 44km/h | 18076m | 5.8m/s | -51.9°C | 1.2% | 78.4hPa | 2.6V | 00:00:00 | 00:00:00 | 00:00:00 | |
| MET0W-2 | 2026-09-03 10:41:44 | 52.37142 | 8.68265 | 127° | 46km/h | 18071m | 4.5m/s | -51.9°C | 1.2% | 78.5hPa | 2.6V | 00:00:00 | 00:00:00 | 00:00:00 | |
| DL1XH-west | 2026-09-03 10:41:43 | 52.37149 | 8.68250 | 130° | 47km/h | 18066m | 6.1m/s | -51.9°C | 0.6% | 78.5hPa | 2.6V | 18:12:15 | 01:10:18 | 00:00:00 | |
| AA1-15 | 2026-09-03 10:41:42 | 52.37157 | 8.68235 | 132° | 47km/h | 18060m | 5m/s | -51.9°C | 0.6% | 78.6hPa | 2.7V | 18:12:15 | 01:10:17 | 00:00:00 | |
| DO2JMG | 2026-09-03 10:41:41 | 52.37165 | 8.68221 | 132° | 49km/h | 18055m | 5.1m/s | -51.9°C | 0.7% | 78.7hPa | 2.7V | 18:12:15 | 01:10:16 | 00:00:00 | |
| DB0DAN | 2026-09-03 10:41:40 | 52.37174 | 8.68205 | 130° | 47km/h | 18050m | 5.6m/s | 0°C | 0% | 0hPa | 2.6V | 00:00:00 | 00:00:00 | 00:00:00 | |
| DF8AY | 2026-09-03 10:41:39 | 52.37181 | 8.68189 | 127° | 49km/h | 18045m | 4.6m/s | -51.9°C | 0.7% | 78.8hPa | 2.6V | 18:12:15 | 01:10:14 | 00:00:00 | |
| BIOWL1-15 | 2026-09-03 10:41:37 | 52.37196 | 8.68159 | 128° | 46km/h | 18034m | 4.9m/s | -51.9°C | 0.7% | 78.9hPa | 2.7V | 18:12:15 | 01:10:12 | 00:00:00 | |
| HSKMA3-T | 2026-09-03 10:41:35 | 52.37210 | 8.68127 | 124° | 49km/h | 18025m | 5.9m/s | -51.9°C | 0.6% | 79hPa | 2.6V | 18:12:15 | 01:10:10 | 00:00:00 | |
| DM0DOS-11 | 2026-09-03 10:41:34 | 52.37258 | 8.68014 | 127° | 57km/h | 17995m | 6.4m/s | -51.8°C | 3.6% | 79.4hPa | 2.6V | 08:30:00 | 01:10:04 | 00:00:00 | |
| DL1XH-west | 2026-09-03 10:41:33 | 52.37224 | 8.68090 | 122° | 57km/h | 18016m | 3.3m/s | -51.8°C | 0.5% | 79.2hPa | 2.7V | 18:12:15 | 01:10:08 | 00:00:00 | |
| AA1-15 | 2026-09-03 10:41:31 | 52.37240 | 8.68051 | 127° | 57km/h | 18006m | 4.9m/s | -51.8°C | 0.5% | 79.3hPa | 2.7V | 18:12:15 | 01:10:06 | 00:00:00 | |
| DO2JMG | 2026-09-03 10:41:30 | 52.37249 | 8.68033 | 128° | 57km/h | 18001m | 4.7m/s | -51.8°C | 0.6% | 79.3hPa | 2.6V | 18:12:15 | 01:10:05 | 00:00:00 | |
| DJ2DS-15 | 2026-09-03 10:41:30 | 52.37258 | 8.68014 | 127° | 57km/h | 17996m | 6.4m/s | -51.8°C | 1.2% | 79.4hPa | 2.6V | 00:00:00 | 00:00:00 | 00:00:00 | |
| DL1XH-15 | 2026-09-03 10:41:29 | 52.37297 | 8.67926 | 119° | 49km/h | 17970m | 6m/s | -51.7°C | 3.7% | 79.7hPa | 2.6V | 08:30:00 | 01:09:59 | 00:00:00 | |
| DF8AY | 2026-09-03 10:41:29 | 52.37258 | 8.68014 | 127° | 57km/h | 17996m | 6.4m/s | -51.8°C | 0.6% | 79.4hPa | 2.6V | 18:12:15 | 01:10:04 | 00:00:00 | |
| BIOWL1-15 | 2026-09-03 10:41:29 | 52.37275 | 8.67978 | 128° | 55km/h | 17984m | 6.3m/s | -51.7°C | 0.7% | 79.5hPa | 2.7V | 18:12:15 | 01:10:02 | 00:00:00 | |
| GOEST3-10 | 2026-09-03 10:41:28 | 52.37266 | 8.67996 | 127° | 51km/h | 17990m | 4.7m/s | -51.7°C | 3.7% | 79.4hPa | 2.7V | 00:00:00 | 00:00:00 | 00:00:00 | |
| DO2SHX-10 | 2026-09-03 10:41:27 | 52.37275 | 8.67977 | 128° | 51km/h | 17985m | 6.2m/s | -51.7°C | 3.7% | 79.4hPa | 2.7V | 00:00:00 | 01:10:02 | 00:00:00 | |
| SONDE2-11 | 2026-09-03 10:41:26 | 52.37290 | 8.67943 | 123° | 47km/h | 17975m | 3.4m/s | -51.7°C | 1.2% | 79.6hPa | 2.6V | 00:00:00 | 00:00:00 | 00:00:00 | |
| DL1XH1-15 | 2026-09-03 10:41:25 | 52.37315 | 8.67852 | 112° | 47km/h | 17951m | 4.5m/s | -51.8°C | 3.7% | 79.9hPa | 2.6V | 08:30:00 | 01:09:55 | 00:00:00 | |
| HSKMA3-T | 2026-09-03 10:41:24 | 52.37297 | 8.67926 | 119° | 49km/h | 17970m | 6m/s | -51.7°C | 0.6% | 79.7hPa | 2.6V | 18:12:15 | 01:09:59 | 00:00:00 | |
| DL1XH-west | 2026-09-03 10:41:23 | 52.37302 | 8.67908 | 113° | 49km/h | 17965m | 5.4m/s | -51.7°C | 0.6% | 79.8hPa | 2.7V | 18:12:15 | 01:09:58 | 00:00:00 | |
| AA1-15 | 2026-09-03 10:41:21 | 52.37311 | 8.67870 | 110° | 47km/h | 17955m | 5.8m/s | -51.7°C | 0.6% | 79.9hPa | 2.6V | 18:12:15 | 01:09:56 | 00:00:00 | |
| BIOWL1-15 | 2026-09-03 10:41:20 | 52.37336 | 8.67772 | 116° | 53km/h | 17931m | 5.4m/s | -51.9°C | 0.6% | 80.2hPa | 2.7V | 18:12:15 | 01:09:51 | 00:00:00 | |
| DO2JMG | 2026-09-03 10:41:20 | 52.37315 | 8.67852 | 112° | 47km/h | 17951m | 4.5m/s | -51.8°C | 0.6% | 79.9hPa | 2.6V | 18:12:15 | 01:09:55 | 00:00:00 | |
| DL1XH-15 | 2026-09-03 10:41:19 | 52.37349 | 8.67734 | 118° | 51km/h | 17921m | 4.3m/s | -51.9°C | 3.7% | 80.3hPa | 2.6V | 08:30:00 | 01:09:49 | 00:00:00 | |
| DF8AY | 2026-09-03 10:41:18 | 52.37325 | 8.67813 | 114° | 53km/h | 17941m | 5.6m/s | -51.9°C | 0.6% | 80hPa | 2.7V | 18:12:15 | 01:09:53 | 00:00:00 | |
| DO2SHX-10 | 2026-09-03 10:41:18 | 52.37325 | 8.67813 | 114° | 53km/h | 17941m | 5.5m/s | -51.8°C | 3.7% | 80.0hPa | 2.7V | 00:00:00 | 01:09:53 | 08:30:00 | |
| SMARD9-15 | 2026-09-03 10:41:17 | 52.37331 | 8.67793 | 114° | 55km/h | 17936m | 5.2m/s | -51.9°C | 1.2% | 80.1hPa | 2.7V | 00:00:00 | 00:00:00 | 00:00:00 | |
| DO3DL | 2026-09-03 10:41:16 | 52.37330 | 8.67793 | 115° | 55km/h | 17936m | 5.2m/s | -51.9°C | 1.2% | 80.1hPa | 2.7V | 00:00:00 | 00:00:00 | 00:00:00 | |
| DL1XH1-15 | 2026-09-03 10:41:15 | 52.37368 | 8.67661 | 108° | 44km/h | 17900m | 4.3m/s | -52.1°C | 3.7% | 80.5hPa | 2.7V | 08:30:00 | 01:09:45 | 00:00:00 | |
| DM0DOS-11 | 2026-09-03 10:41:15 | 52.37372 | 8.67644 | 105° | 46km/h | 17895m | 4.6m/s | -52.1°C | 3.7% | 80.6hPa | 2.6V | 08:30:00 | 01:09:44 | 00:00:00 | |
| HSKMA3-T | 2026-09-03 10:41:14 | 52.37349 | 8.67734 | 118° | 51km/h | 17921m | 4.3m/s | -51.9°C | 0.6% | 80.3hPa | 2.6V | 18:12:15 | 01:09:49 | 00:00:00 | |
| DL1XH-west | 2026-09-03 10:41:12 | 52.37360 | 8.67697 | 113° | 49km/h | 17911m | 4.6m/s | -51.9°C | 0.5% | 80.4hPa | 2.7V | 18:12:15 | 01:09:47 | 00:00:00 | |
| AA1-15 | 2026-09-03 10:41:11 | 52.37365 | 8.67679 | 112° | 46km/h | 17905m | 6.3m/s | -52°C | 0.5% | 80.5hPa | 2.7V | 18:12:15 | 01:09:46 | 00:00:00 | |
| DB0DAN | 2026-09-03 10:41:10 | 52.37368 | 8.67661 | 109° | 42km/h | 17900m | 4.3m/s | 0°C | 0% | 0hPa | 2.7V | 00:00:00 | 00:00:00 | 00:00:00 | |
| DO2JMG | 2026-09-03 10:41:09 | 52.37372 | 8.67644 | 106° | 46km/h | 17895m | 4.6m/s | -52.1°C | 0.6% | 80.6hPa | 2.6V | 18:12:15 | 01:09:44 | 00:00:00 | |
| DF8AY | 2026-09-03 10:41:07 | 52.37378 | 8.67604 | 102° | 51km/h | 17885m | 4m/s | -51.9°C | 0.6% | 80.8hPa | 2.6V | 18:12:15 | 01:09:42 | 00:00:00 | |
| BIOWL1-15 | 2026-09-03 10:41:07 | 52.37384 | 8.67563 | 105° | 51km/h | 17877m | 5.4m/s | -52°C | 0.6% | 80.9hPa | 2.7V | 18:12:15 | 01:09:40 | 00:00:00 | |
| DC6BW-12 | 2026-09-03 10:41:06 | 52.37377 | 8.67604 | 103° | 51km/h | 17886m | 4.0m/s | -51.9°C | 1.3% | 80.8hPa | 2.6V | 00:00:00 | 00:00:00 | 00:00:00 | |
| DO2SHX-10 | 2026-09-03 10:41:05 | 52.37384 | 8.67563 | 105° | 51km/h | 17877m | 5.4m/s | -51.9°C | 3.7% | 80.8hPa | 2.6V | 00:00:00 | 01:09:40 | 00:00:00 | |
| DM0DOS-11 | 2026-09-03 10:41:04 | 52.37403 | 8.67435 | 103° | 53km/h | 17849m | 5.3m/s | -52.1°C | 3.7% | 81.2hPa | 2.6V | 08:30:00 | 01:09:34 | 00:00:00 | |
| HSKMA3-T | 2026-09-03 10:41:03 | 52.37391 | 8.67522 | 106° | 53km/h | 17868m | 3.4m/s | -52°C | 0.6% | 81hPa | 2.6V | 18:12:15 | 01:09:38 | 00:00:00 | |
| DL1XH-west | 2026-09-03 10:41:02 | 52.37394 | 8.67501 | 104° | 53km/h | 17863m | 5.8m/s | -52.1°C | 0.7% | 81hPa | 2.7V | 18:12:15 | 01:09:37 | 00:00:00 | |
| AA1-15 | 2026-09-03 10:41:00 | 52.37400 | 8.67457 | 103° | 55km/h | 17854m | 3.5m/s | -52.1°C | 0.6% | 81.1hPa | 2.6V | 18:12:15 | 01:09:35 | 00:00:00 | |
| DL1XH-15 | 2026-09-03 10:40:59 | 52.37420 | 8.67332 | 105° | 46km/h | 17826m | 5.8m/s | -52.3°C | 3.7% | 81.5hPa | 2.6V | 08:30:00 | 01:09:29 | 00:00:00 | |
| DO2JMG | 2026-09-03 10:40:59 | 52.37403 | 8.67435 | 104° | 53km/h | 17849m | 5.3m/s | -52.1°C | 0.6% | 81.2hPa | 2.6V | 18:12:15 | 01:09:34 | 00:00:00 | |
| DF8AY | 2026-09-03 10:40:57 | 52.37410 | 8.67393 | 105° | 53km/h | 17839m | 5.7m/s | -52.2°C | 0.5% | 81.3hPa | 2.7V | 18:12:15 | 01:09:32 | 00:00:00 | |
| BIOWL1-15 | 2026-09-03 10:40:55 | 52.37416 | 8.67351 | 104° | 51km/h | 17830m | 3.4m/s | -52.2°C | 0.6% | 81.4hPa | 2.7V | 18:12:15 | 01:09:30 | 00:00:00 | |
| SONDE2-11 | 2026-09-03 10:40:55 | 52.37420 | 8.67331 | 105° | 46km/h | 17826m | 5.9m/s | -52.3°C | 1.2% | 81.5hPa | 2.6V | 00:00:00 | 00:00:00 | 00:00:00 | |
| DM0DOS-11 | 2026-09-03 10:40:54 | 52.37432 | 8.67241 | 102° | 46km/h | 17801m | 4.9m/s | -52.7°C | 3.8% | 81.8hPa | 2.6V | 08:30:00 | 01:09:24 | 00:00:00 | |
| DL1XH-west | 2026-09-03 10:40:52 | 52.37425 | 8.67296 | 105° | 44km/h | 17816m | 4.9m/s | -52.2°C | 0.6% | 81.6hPa | 2.6V | 18:12:15 | 01:09:27 | 00:00:00 | |
| AA1-15 | 2026-09-03 10:40:49 | 52.37432 | 8.67241 | 102° | 46km/h | 17801m | 4.9m/s | -52.7°C | 0.7% | 81.8hPa | 2.6V | 18:12:15 | 01:09:24 | 00:00:00 | |
| DO2JMG | 2026-09-03 10:40:48 | 52.37435 | 8.67223 | 104° | 46km/h | 17795m | 6m/s | -52.9°C | 0.6% | 81.9hPa | 2.6V | 18:12:15 | 01:09:23 | 00:00:00 | |
| DF8AY | 2026-09-03 10:40:46 | 52.37441 | 8.67186 | 106° | 49km/h | 17785m | 6m/s | -53°C | 0.7% | 82hPa | 2.7V | 18:12:15 | 01:09:21 | 00:00:00 | |
| DL1XH1-15 | 2026-09-03 10:40:45 | 52.37469 | 8.67070 | 110° | 53km/h | 17755m | 5.8m/s | -53°C | 3.8% | 82.4hPa | 2.7V | 08:30:00 | 01:09:15 | 00:00:00 | |
| BIOWL1-15 | 2026-09-03 10:40:44 | 52.37449 | 8.67147 | 111° | 51km/h | 17775m | 6.1m/s | -53.1°C | 0.7% | 82.2hPa | 2.6V | 18:12:15 | 01:09:19 | 00:00:00 | |
| HSKMA3-T | 2026-09-03 10:40:42 | 52.37459 | 8.67109 | 115° | 49km/h | 17764m | 3.4m/s | -53.1°C | 0.7% | 82.3hPa | 2.7V | 18:12:15 | 01:09:17 | 00:00:00 | |
| DL1XH-west | 2026-09-03 10:40:41 | 52.37464 | 8.67090 | 114° | 51km/h | 17760m | 4.9m/s | -53.1°C | 0.7% | 82.3hPa | 2.7V | 18:12:15 | 01:09:16 | 00:00:00 | |
| DL1XH-15 | 2026-09-03 10:40:41 | 52.37488 | 8.66945 | 96° | 55km/h | 17724m | 4.1m/s | -53°C | 3.9% | 82.8hPa | 2.7V | 08:30:00 | 01:09:09 | 00:00:00 | |
| AA1-15 | 2026-09-03 10:40:41 | 52.37474 | 8.67050 | 108° | 51km/h | 17750m | 4.4m/s | -53.1°C | 0.7% | 82.4hPa | 2.6V | 18:12:15 | 01:09:14 | 00:00:00 | |
| DO2JMG | 2026-09-03 10:40:39 | 52.37481 | 8.67010 | 104° | 49km/h | 17739m | 4.7m/s | -53°C | 0.7% | 82.6hPa | 2.6V | 18:12:15 | 01:09:12 | 00:00:00 | |
| DF8AY | 2026-09-03 10:40:36 | 52.37484 | 8.66989 | 101° | 53km/h | 17733m | 6.4m/s | -53.1°C | 0.7% | 82.7hPa | 2.7V | 18:12:15 | 01:09:11 | 00:00:00 | |
| BIOWL1-15 | 2026-09-03 10:40:36 | 52.37488 | 8.66945 | 96° | 55km/h | 17724m | 4.1m/s | -53°C | 0.7% | 82.8hPa | 2.7V | 18:12:15 | 01:09:09 | 00:00:00 | |
| DB0ND-19 | 2026-09-03 10:40:36 | 52.37486 | 8.66967 | 97° | 55km/h | 17728m | 4.6m/s | -53.0°C | 1.3% | 82.8hPa | 2.7V | 00:00:00 | 00:00:00 | 00:00:00 | |
| DL1XH1-15 | 2026-09-03 10:40:35 | 52.37493 | 8.66863 | 94° | 49km/h | 17702m | 6.5m/s | -53.1°C | 3.9% | 83.1hPa | 2.7V | 08:30:00 | 01:09:05 | 00:00:00 | |
| DM0DOS-11 | 2026-09-03 10:40:34 | 52.37494 | 8.66842 | 95° | 49km/h | 17696m | 4.9m/s | -53.1°C | 3.9% | 83.2hPa | 2.7V | 08:30:00 | 01:09:04 | 00:00:00 | |
| HSKMA3-T | 2026-09-03 10:40:31 | 52.37492 | 8.66883 | 95° | 47km/h | 17708m | 5.1m/s | -53.1°C | 0.7% | 83hPa | 2.6V | 18:12:15 | 01:09:06 | 00:00:00 | |
| DL1XH-west | 2026-09-03 10:40:30 | 52.37493 | 8.66863 | 95° | 49km/h | 17702m | 6.5m/s | -53.1°C | 0.8% | 83.1hPa | 2.7V | 18:12:15 | 01:09:05 | 00:00:00 | |
| DL1XH-15 | 2026-09-03 10:40:29 | 52.37503 | 8.66741 | 98° | 53km/h | 17670m | 4.5m/s | -53.6°C | 4.1% | 83.5hPa | 2.6V | 08:30:00 | 01:08:59 | 00:00:00 | |
| AA1-15 | 2026-09-03 10:40:28 | 52.37495 | 8.66822 | 97° | 49km/h | 17691m | 6m/s | -53.3°C | 0.7% | 83.2hPa | 2.6V | 18:12:15 | 01:09:03 | 00:00:00 | |
| DO2JMG | 2026-09-03 10:40:26 | 52.37499 | 8.66783 | 101° | 49km/h | 17681m | 4.1m/s | -53.5°C | 0.8% | 83.4hPa | 2.7V | 18:12:15 | 01:09:01 | 00:00:00 | |
| DL1XH1-15 | 2026-09-03 10:40:25 | 52.37506 | 8.66658 | 87° | 49km/h | 17648m | 6.3m/s | -53.7°C | 4.2% | 83.8hPa | 2.7V | 08:30:00 | 01:08:55 | 00:00:00 | |
| DF8AY | 2026-09-03 10:40:25 | 52.37501 | 8.66763 | 101° | 51km/h | 17675m | 6.5m/s | -53.6°C | 0.8% | 83.4hPa | 2.7V | 18:12:15 | 01:09:00 | 00:00:00 | |
| BIOWL1-15 | 2026-09-03 10:40:25 | 52.37505 | 8.66720 | 96° | 53km/h | 17665m | 5.3m/s | -53.6°C | 0.8% | 83.6hPa | 2.6V | 18:12:15 | 01:08:58 | 00:00:00 | |
| DL4XJ-10 | 2026-09-03 10:40:25 | 52.37501 | 8.66763 | 101° | 46km/h | 17675m | 6.4m/s | -52.2°C | 0% | 0hPa | 2.7V | 00:00:00 | 00:00:00 | 00:00:00 | |
| DM0DOS-11 | 2026-09-03 10:40:24 | 52.37505 | 8.66638 | 86° | 47km/h | 17643m | 4.5m/s | -53.7°C | 4.2% | 83.8hPa | 2.7V | 08:30:00 | 01:08:54 | 00:00:00 | |
| DL1XH-west | 2026-09-03 10:40:20 | 52.37506 | 8.66658 | 87° | 49km/h | 17648m | 6.3m/s | -53.7°C | 0.9% | 83.8hPa | 2.7V | 18:12:15 | 01:08:55 | 00:00:00 | |
| DK5PH-5 | 2026-09-03 10:40:20 | 52.37506 | 8.66658 | 88° | 44km/h | 17649m | 6.3m/s | -53.7°C | 4.2% | 83.7hPa | 2.7V | 00:00:00 | 01:08:55 | 00:00:00 | |
| DL1XH-15 | 2026-09-03 10:40:19 | 52.37503 | 8.66551 | 92° | 44km/h | 17617m | 4.1m/s | -53.6°C | 4.2% | 84.2hPa | 2.7V | 08:30:00 | 01:08:49 | 00:00:00 | |
| AA1-15 | 2026-09-03 10:40:17 | 52.37504 | 8.66602 | 86° | 40km/h | 17632m | 5.3m/s | -53.5°C | 0.9% | 84hPa | 2.6V | 18:12:15 | 01:08:52 | 00:00:00 | |
| DO2JMG | 2026-09-03 10:40:15 | 52.37503 | 8.66568 | 91° | 42km/h | 17621m | 5.7m/s | -53.6°C | 0.9% | 84.2hPa | 2.7V | 18:12:15 | 01:08:50 | 00:00:00 | |
| DM0DOS-11 | 2026-09-03 10:40:14 | 52.37505 | 8.66455 | 89° | 47km/h | 17589m | 5.9m/s | -53.4°C | 4% | 84.6hPa | 2.7V | 08:30:00 | 01:08:44 | 00:00:00 | |
| BIOWL1-15 | 2026-09-03 10:40:12 | 52.37504 | 8.66514 | 90° | 46km/h | 17606m | 4.6m/s | -53.4°C | 0.9% | 84.3hPa | 2.6V | 18:12:15 | 01:08:47 | 00:00:00 | |
| DL1XH-west | 2026-09-03 10:40:10 | 52.37505 | 8.66475 | 92° | 49km/h | 17594m | 5m/s | -53.4°C | 0.8% | 84.5hPa | 2.6V | 18:12:15 | 01:08:45 | 00:00:00 | |
| AA1-15 | 2026-09-03 10:40:07 | 52.37504 | 8.66418 | 90° | 44km/h | 17578m | 4.9m/s | -53.4°C | 0.8% | 84.7hPa | 2.6V | 18:12:15 | 01:08:42 | 00:00:00 | |
| DO2JMG | 2026-09-03 10:40:05 | 52.37506 | 8.66383 | 98° | 40km/h | 17567m | 4.5m/s | -53.3°C | 0.8% | 84.9hPa | 2.7V | 18:12:15 | 01:08:40 | 00:00:00 | |
| DB0ND-19 | 2026-09-03 10:40:05 | 52.37550 | 8.66051 | 103° | 42km/h | 17470m | 4.3m/s | -53.2°C | 1.3% | 86.2hPa | 2.7V | 00:00:00 | 00:00:00 | 00:00:00 | |
| DM0DOS-11 | 2026-09-03 10:40:04 | 52.37514 | 8.66286 | 101° | 46km/h | 17535m | 3.7m/s | -53.2°C | 4% | 85.3hPa | 2.7V | 08:30:00 | 01:08:34 | 00:00:00 | |
| BIOWL1-15 | 2026-09-03 10:40:02 | 52.37509 | 8.66336 | 95° | 37km/h | 17551m | 4.8m/s | -53.4°C | 0.7% | 85hPa | 2.6V | 18:12:15 | 01:08:37 | 00:00:00 | |
| DL1XH-west | 2026-09-03 10:39:59 | 52.37514 | 8.66286 | 101° | 46km/h | 17535m | 3.7m/s | -53.2°C | 0.8% | 85.3hPa | 2.7V | 18:12:15 | 01:08:34 | 00:00:00 | |
| AA1-15 | 2026-09-03 10:39:57 | 52.37518 | 8.66247 | 99° | 47km/h | 17524m | 4.6m/s | -53.3°C | 0.8% | 85.4hPa | 2.6V | 18:12:15 | 01:08:32 | 00:00:00 | |
| DO3DL | 2026-09-03 10:39:56 | 52.37518 | 8.66247 | 100° | 47km/h | 17524m | 4.6m/s | -53.3°C | 1.3% | 85.4hPa | 2.6V | 00:00:00 | 00:00:00 | 00:00:00 | |
| DL1XH1-15 | 2026-09-03 10:39:55 | 52.37536 | 8.66117 | 108° | 42km/h | 17489m | 5.8m/s | -53.3°C | 4.1% | 85.9hPa | 2.6V | 08:30:00 | 01:08:25 | 00:00:00 | |
| DO2JMG | 2026-09-03 10:39:54 | 52.37526 | 8.66188 | 104° | 47km/h | 17509m | 3.9m/s | -53.4°C | 0.8% | 85.6hPa | 2.7V | 18:12:15 | 01:08:29 | 00:00:00 | |
| BIOWL1-15 | 2026-09-03 10:39:53 | 52.37533 | 8.66133 | 105° | 44km/h | 17495m | 4.3m/s | -53.4°C | 0.9% | 85.8hPa | 2.6V | 18:12:15 | 01:08:26 | 00:00:00 | |
| DL3AQ-11 | 2026-09-03 10:39:53 | 52.37531 | 8.66151 | 102° | 44km/h | 17499m | 4.5m/s | -53.4°C | 1.4% | 85.8hPa | 2.6V | 00:00:00 | 00:00:00 | 00:00:00 | |
| SONCRA | 2026-09-03 10:39:52 | 52.37531 | 8.66151 | 102° | 44km/h | 17499m | 4.5m/s | -53.4°C | 1.4% | 85.8hPa | 2.6V | 00:00:00 | 00:00:00 | 00:00:00 | |
| DF8AY-15 | 2026-09-03 10:39:51 | 52.37533 | 8.66133 | 105° | 44km/h | 17495m | 4.2m/s | -53.3°C | 4.1% | 85.8hPa | 2.6V | 00:00:00 | 01:08:26 | 00:00:00 | |
| DK5PH-5 | 2026-09-03 10:39:50 | 52.37536 | 8.66117 | 109° | 44km/h | 17490m | 5.7m/s | -53.3°C | 4.1% | 85.8hPa | 2.7V | 00:00:00 | 01:08:25 | 00:00:00 | |
| DL1XH-15 | 2026-09-03 10:39:49 | 52.37555 | 8.66017 | 105° | 42km/h | 17459m | 5.7m/s | -53.3°C | 4% | 86.3hPa | 2.7V | 08:30:00 | 01:08:19 | 00:00:00 | |
| DL1XH-west | 2026-09-03 10:39:48 | 52.37544 | 8.66084 | 110° | 42km/h | 17480m | 4.1m/s | -53.2°C | 0.8% | 86hPa | 2.7V | 18:12:15 | 01:08:23 | 00:00:00 | |
| AA1-15 | 2026-09-03 10:39:46 | 52.37550 | 8.66051 | 103° | 42km/h | 17470m | 4.3m/s | -53.2°C | 0.8% | 86.2hPa | 2.6V | 18:12:15 | 01:08:21 | 00:00:00 | |
| DO2SHX-10 | 2026-09-03 10:39:46 | 52.37550 | 8.66051 | 104° | 42km/h | 17470m | 4.3m/s | -53.1°C | 4.0% | 86.1hPa | 2.6V | 00:00:00 | 01:08:21 | 00:00:00 | |
| DL1XH1-15 | 2026-09-03 10:39:45 | 52.37567 | 8.65949 | 104° | 46km/h | 17439m | 4.6m/s | -53.1°C | 4.1% | 86.6hPa | 2.6V | 08:30:00 | 01:08:15 | 00:00:00 | |
| BIOWL1-15 | 2026-09-03 10:39:44 | 52.37567 | 8.65949 | 104° | 46km/h | 17439m | 4.6m/s | -53.1°C | 0.9% | 86.6hPa | 2.6V | 18:12:15 | 01:08:15 | 00:00:00 | |
| DO2JMG | 2026-09-03 10:39:44 | 52.37555 | 8.66017 | 106° | 42km/h | 17459m | 5.7m/s | -53.3°C | 0.8% | 86.3hPa | 2.7V | 18:12:15 | 01:08:19 | 00:00:00 | |
| DD8BA-10 | 2026-09-03 10:39:43 | 52.37558 | 8.66000 | 107° | 46km/h | 17455m | 4.2m/s | -53.3°C | 4.1% | 86.3hPa | 2.6V | 00:00:00 | 00:00:00 | 00:00:00 | |
| DL3AQ-11 | 2026-09-03 10:39:42 | 52.37564 | 8.65967 | 105° | 44km/h | 17445m | 6.3m/s | -53.2°C | 1.4% | 86.5hPa | 2.6V | 00:00:00 | 00:00:00 | 00:00:00 | |
| DF7PN | 2026-09-03 10:39:41 | 52.37564 | 8.65967 | 105° | 44km/h | 17445m | 6.3m/s | -53.2°C | 1.4% | 86.5hPa | 2.6V | 00:00:00 | 00:00:00 | 00:00:00 | |
| MET0W-2 | 2026-09-03 10:39:40 | 52.37574 | 8.65912 | 109° | 46km/h | 17429m | 5.5m/s | -53.0°C | 1.4% | 86.7hPa | 2.6V | 00:00:00 | 00:00:00 | 00:00:00 | |
| DL1XH-15 | 2026-09-03 10:39:39 | 52.37590 | 8.65838 | 109° | 47km/h | 17408m | 4.3m/s | -53°C | 3.9% | 87hPa | 2.6V | 08:30:00 | 01:08:09 | 00:00:00 | |
| HSKMA3-T | 2026-09-03 10:39:38 | 52.37574 | 8.65912 | 109° | 46km/h | 17428m | 5.5m/s | -53°C | 0.8% | 86.7hPa | 2.7V | 18:12:15 | 01:08:13 | 00:00:00 | |
| DL1XH-west | 2026-09-03 10:39:37 | 52.37578 | 8.65894 | 111° | 46km/h | 17424m | 4.3m/s | -52.9°C | 0.8% | 86.8hPa | 2.7V | 18:12:15 | 01:08:12 | 00:00:00 | |
| DL8DAS-14 | 2026-09-03 10:39:37 | 52.37582 | 8.65876 | 111° | 47km/h | 17419m | 5.8m/s | -53.0°C | 1.4% | 86.9hPa | 2.6V | 00:00:00 | 00:00:00 | 00:00:00 | |
| AA1-15 | 2026-09-03 10:39:37 | 52.37582 | 8.65876 | 111° | 47km/h | 17419m | 5.8m/s | -53°C | 0.8% | 86.9hPa | 2.6V | 18:12:15 | 01:08:11 | 00:00:00 | |
| D01LWL | 2026-09-03 10:39:36 | 52.37586 | 8.65857 | 109° | 47km/h | 17413m | 5.1m/s | -53.0°C | 1.3% | 86.9hPa | 2.6V | 00:00:00 | 00:00:00 | 00:00:00 | |
| DL1XH1-15 | 2026-09-03 10:39:35 | 52.37608 | 8.65769 | 112° | 47km/h | 17389m | 5.8m/s | -52.9°C | 4% | 87.2hPa | 2.6V | 08:30:00 | 01:08:05 | 00:00:00 | |
| BIOWL1-15 | 2026-09-03 10:39:34 | 52.37608 | 8.65769 | 112° | 47km/h | 17389m | 5.8m/s | -52.9°C | 0.8% | 87.2hPa | 2.6V | 18:12:15 | 01:08:05 | 00:00:00 | |
| DO2JMG | 2026-09-03 10:39:33 | 52.37594 | 8.65820 | 112° | 46km/h | 17403m | 5.7m/s | -53.1°C | 0.8% | 87.1hPa | 2.7V | 18:12:15 | 01:08:08 | 00:00:00 | |
| HSKMA3-T | 2026-09-03 10:39:27 | 52.37621 | 8.65713 | 111° | 47km/h | 17373m | 5.9m/s | -53°C | 0.9% | 87.5hPa | 2.7V | 18:12:15 | 01:08:02 | 00:00:00 | |
| DL1XH-west | 2026-09-03 10:39:26 | 52.37625 | 8.65695 | 109° | 47km/h | 17368m | 4.1m/s | -53°C | 0.8% | 87.5hPa | 2.7V | 18:12:15 | 01:08:01 | 00:00:00 | |
| DL3AQ-11 | 2026-09-03 10:39:26 | 52.37629 | 8.65677 | 106° | 46km/h | 17363m | 6.5m/s | -53.1°C | 1.4% | 87.6hPa | 2.6V | 00:00:00 | 00:00:00 | 00:00:00 | |
| DO2SHX-10 | 2026-09-03 10:39:25 | 52.37629 | 8.65677 | 107° | 44km/h | 17363m | 6.5m/s | -53.0°C | 4.1% | 87.6hPa | 2.6V | 00:00:00 | 01:08:00 | 00:00:00 | |
| DM0DOS-11 | 2026-09-03 10:39:24 | 52.37642 | 8.65572 | 102° | 42km/h | 17331m | 5m/s | -52.8°C | 3.9% | 88hPa | 2.6V | 08:30:00 | 01:07:54 | 00:00:00 | |
| DO2JMG | 2026-09-03 10:39:23 | 52.37634 | 8.65640 | 103° | 44km/h | 17352m | 6m/s | -53°C | 0.9% | 87.7hPa | 2.7V | 18:12:15 | 01:07:58 | 00:00:00 | |
| BIOWL1-15 | 2026-09-03 10:39:19 | 52.37642 | 8.65572 | 102° | 42km/h | 17331m | 5m/s | -52.8°C | 0.8% | 88hPa | 2.6V | 18:12:15 | 01:07:54 | 00:00:00 | |
| DL1XH-west | 2026-09-03 10:39:16 | 52.37651 | 8.65522 | 107° | 46km/h | 17316m | 6.5m/s | -52.9°C | 0.9% | 88.3hPa | 2.7V | 18:12:15 | 01:07:51 | 00:00:00 | |
| AA1-15 | 2026-09-03 10:39:15 | 52.37654 | 8.65504 | 106° | 47km/h | 17310m | 5.3m/s | -52.9°C | 0.8% | 88.4hPa | 2.6V | 18:12:15 | 01:07:50 | 00:00:00 | |
| DF8AY | 2026-09-03 10:39:13 | 52.37661 | 8.65467 | 107° | 46km/h | 17299m | 6m/s | -52.8°C | 0.8% | 88.5hPa | 2.6V | 18:12:15 | 01:07:48 | 00:00:00 | |
| DO2JMG | 2026-09-03 10:39:12 | 52.37664 | 8.65449 | 108° | 46km/h | 17294m | 4m/s | -52.7°C | 0.8% | 88.6hPa | 2.7V | 18:12:15 | 01:07:47 | 00:00:00 | |
| DF8AY-15 | 2026-09-03 10:39:11 | 52.37668 | 8.65430 | 109° | 53km/h | 17289m | 5.8m/s | -52.6°C | 3.9% | 88.6hPa | 2.6V | 00:00:00 | 01:07:46 | 00:00:00 | |
| DF7PN | 2026-09-03 10:39:10 | 52.37672 | 8.65412 | 108° | 49km/h | 17284m | 5.2m/s | -52.7°C | 1.4% | 88.7hPa | 2.6V | 00:00:00 | 00:00:00 | 00:00:00 | |
| DL1XH-15 | 2026-09-03 10:39:09 | 52.37701 | 8.65301 | 113° | 51km/h | 17252m | 4.5m/s | -52.9°C | 3.9% | 89.1hPa | 2.6V | 08:30:00 | 01:07:39 | 00:00:00 | |
| BIOWL1-15 | 2026-09-03 10:39:08 | 52.37681 | 8.65374 | 113° | 47km/h | 17274m | 6.7m/s | -52.9°C | 0.8% | 88.8hPa | 2.6V | 18:12:15 | 01:07:43 | 00:00:00 | |
| DL1XH-west | 2026-09-03 10:39:05 | 52.37696 | 8.65320 | 114° | 49km/h | 17257m | 5.5m/s | -53°C | 0.8% | 89.1hPa | 2.7V | 18:12:15 | 01:07:40 | 00:00:00 | |
| AA1-15 | 2026-09-03 10:39:04 | 52.37701 | 8.65301 | 114° | 51km/h | 17252m | 4.5m/s | -52.9°C | 0.8% | 89.1hPa | 2.6V | 18:12:15 | 01:07:39 | 00:00:00 | |
| DF8AY | 2026-09-03 10:39:03 | 52.37711 | 8.65263 | 114° | 51km/h | 17240m | 4.9m/s | -53°C | 0.7% | 89.3hPa | 2.7V | 18:12:15 | 01:07:37 | 00:00:00 | |
| DO2JMG | 2026-09-03 10:39:01 | 52.37717 | 8.65243 | 111° | 55km/h | 17234m | 6.6m/s | -53.1°C | 0.8% | 89.4hPa | 2.7V | 18:12:15 | 01:07:36 | 00:00:00 | |
| DO2SHX-10 | 2026-09-03 10:39:01 | 52.37717 | 8.65243 | 112° | 58km/h | 17234m | 6.5m/s | -53.1°C | 3.9% | 89.3hPa | 2.6V | 00:00:00 | 01:07:36 | 00:00:00 | |
| DD1CC3-15 | 2026-09-03 10:39:00 | 52.37717 | 8.65243 | 112° | 55km/h | 17234m | 6.6m/s | -53.1°C | 1.4% | 89.4hPa | 2.6V | 00:00:00 | 00:00:00 | 00:00:00 | |
| DL1XH-15 | 2026-09-03 10:38:59 | 52.37752 | 8.65090 | 115° | 57km/h | 17198m | 4.2m/s | -52.9°C | 3.9% | 89.9hPa | 2.6V | 08:30:00 | 01:07:29 | 00:00:00 | |
| BIOWL1-15 | 2026-09-03 10:38:58 | 52.37731 | 8.65175 | 109° | 58km/h | 17220m | 5.4m/s | -53°C | 0.9% | 89.6hPa | 2.6V | 18:12:15 | 01:07:33 | 00:00:00 | |
| HARRO8 | 2026-09-03 10:38:58 | 52.37731 | 8.65175 | 108° | 57km/h | 17220m | 5.4m/s | -53.0°C | 1.4% | 89.6hPa | 2.7V | 00:00:00 | 00:00:00 | 00:00:00 | |
| DO2SHX-10 | 2026-09-03 10:38:57 | 52.37736 | 8.65153 | 111° | 55km/h | 17214m | 5.7m/s | -52.9°C | 4.0% | 89.6hPa | 2.7V | 00:00:00 | 01:07:32 | 00:00:00 | |
| DL1XH1-15 | 2026-09-03 10:38:56 | 52.37781 | 8.65007 | 119° | 60km/h | 17177m | 5m/s | -53.2°C | 3.9% | 90.1hPa | 2.7V | 08:30:00 | 01:07:25 | 00:00:00 | |
| HSKMA3-T | 2026-09-03 10:38:55 | 52.37746 | 8.65111 | 113° | 57km/h | 17204m | 6m/s | -52.9°C | 0.8% | 89.8hPa | 2.7V | 18:12:15 | 01:07:30 | 00:00:00 | |
| DL1XH-west | 2026-09-03 10:38:54 | 52.37752 | 8.65090 | 115° | 57km/h | 17198m | 4.2m/s | -52.9°C | 0.8% | 89.9hPa | 2.6V | 18:12:15 | 01:07:29 | 00:00:00 | |
| AA1-15 | 2026-09-03 10:38:53 | 52.37758 | 8.65069 | 119° | 57km/h | 17193m | 6m/s | -53°C | 0.8% | 89.9hPa | 2.6V | 18:12:15 | 01:07:28 | 00:00:00 | |
| DF8AY | 2026-09-03 10:38:51 | 52.37773 | 8.65029 | 121° | 58km/h | 17182m | 5.7m/s | -53.1°C | 0.8% | 90.1hPa | 2.7V | 18:12:15 | 01:07:26 | 00:00:00 | |
| DO2JMG | 2026-09-03 10:38:50 | 52.37781 | 8.65007 | 120° | 60km/h | 17177m | 5m/s | -53.2°C | 0.8% | 90.1hPa | 2.7V | 18:12:15 | 01:07:25 | 00:00:00 | |
| DK5PH-5 | 2026-09-03 10:38:50 | 52.37781 | 8.65007 | 120° | 60km/h | 17177m | 5.0m/s | -53.2°C | 3.9% | 90.1hPa | 2.7V | 00:00:00 | 01:07:25 | 00:00:00 | |
| DL1XH-15 | 2026-09-03 10:38:49 | 52.37822 | 8.64875 | 113° | 55km/h | 17147m | 4.9m/s | -53.4°C | 4.1% | 90.6hPa | 2.7V | 08:30:00 | 01:07:19 | 00:00:00 | |
| BIOWL1-15 | 2026-09-03 10:38:49 | 52.37803 | 8.64941 | 118° | 58km/h | 17162m | 4.3m/s | -53.4°C | 0.9% | 90.4hPa | 2.6V | 18:12:15 | 01:07:22 | 00:00:00 | |
| DL3AQ-11 | 2026-09-03 10:38:46 | 52.37816 | 8.64897 | 112° | 58km/h | 17152m | 4.4m/s | -53.3°C | 1.5% | 90.5hPa | 2.7V | 00:00:00 | 00:00:00 | 00:00:00 | |
| DL1XH1-15 | 2026-09-03 10:38:45 | 52.37844 | 8.64801 | 121° | 47km/h | 17128m | 4.1m/s | -53.7°C | 4% | 90.9hPa | 2.7V | 08:30:00 | 01:07:15 | 00:00:00 | |
| HSKMA3-T | 2026-09-03 10:38:44 | 52.37822 | 8.64875 | 113° | 55km/h | 17147m | 4.9m/s | -53.4°C | 1% | 90.6hPa | 2.7V | 18:12:15 | 01:07:19 | 00:00:00 | |
| DL1XH-west | 2026-09-03 10:38:43 | 52.37827 | 8.64855 | 115° | 51km/h | 17142m | 5.3m/s | -53.5°C | 0.9% | 90.7hPa | 2.6V | 18:12:15 | 01:07:18 | 00:00:00 | |
| DF8AY | 2026-09-03 10:38:41 | 52.37838 | 8.64819 | 118° | 49km/h | 17132m | 5.2m/s | -53.6°C | 1% | 90.8hPa | 2.7V | 18:12:15 | 01:07:16 | 00:00:00 | |
| DO2JMG | 2026-09-03 10:38:40 | 52.37844 | 8.64801 | 122° | 47km/h | 17128m | 4.1m/s | -53.7°C | 0.9% | 90.9hPa | 2.7V | 18:12:15 | 01:07:15 | 00:00:00 | |
| DL1XH-15 | 2026-09-03 10:38:39 | 52.37890 | 8.64705 | 120° | 53km/h | 17097m | 4.8m/s | -53.8°C | 4.1% | 91.3hPa | 2.7V | 08:30:00 | 01:07:09 | 00:00:00 | |
| BIOWL1-15 | 2026-09-03 10:38:39 | 52.37867 | 8.64755 | 133° | 49km/h | 17112m | 4.8m/s | -53.9°C | 0.9% | 91.1hPa | 2.6V | 18:12:15 | 01:07:12 | 00:00:00 | |
| DL4BBY-15 | 2026-09-03 10:38:39 | 52.37851 | 8.64785 | 127° | 58km/h | 17122m | 6.2m/s | -52.5°C | 0% | 0hPa | 2.6V | 00:00:00 | 00:00:00 | 00:00:00 | |
| DO2SHX-10 | 2026-09-03 10:38:38 | 52.37859 | 8.64770 | 133° | 49km/h | 17117m | 4.8m/s | -53.9°C | 4.0% | 91.0hPa | 2.6V | 00:00:00 | 01:07:13 | 00:00:00 | |
| DK9SH | 2026-09-03 10:38:37 | 52.37858 | 8.64770 | 133° | 47km/h | 17117m | 4.9m/s | -53.9°C | 1.4% | 91.0hPa | 2.7V | 00:00:00 | 00:00:00 | 00:00:00 | |
| DL1XH1-15 | 2026-09-03 10:38:35 | 52.37915 | 8.64627 | 113° | 57km/h | 17077m | 4.8m/s | -53.9°C | 4% | 91.5hPa | 2.7V | 08:30:00 | 01:07:05 | 00:00:00 | |
| HSKMA3-T | 2026-09-03 10:38:33 | 52.37897 | 8.64686 | 119° | 53km/h | 17091m | 5.6m/s | -53.8°C | 0.9% | 91.4hPa | 2.6V | 18:12:15 | 01:07:08 | 00:00:00 | |
| DL1XH-west | 2026-09-03 10:38:32 | 52.37903 | 8.64667 | 118° | 53km/h | 17086m | 4.4m/s | -53.9°C | 1% | 91.4hPa | 2.6V | 18:12:15 | 01:07:07 | 00:00:00 | |
| DF8AY | 2026-09-03 10:38:31 | 52.37909 | 8.64648 | 117° | 55km/h | 17082m | 4.6m/s | -53.8°C | 0.9% | 91.5hPa | 2.6V | 18:12:15 | 01:07:06 | 00:00:00 | |
| DO2JMG | 2026-09-03 10:38:30 | 52.37915 | 8.64627 | 114° | 57km/h | 17077m | 4.8m/s | -53.9°C | 0.9% | 91.6hPa | 2.7V | 18:12:15 | 01:07:05 | 00:00:00 | |
| DO3DL | 2026-09-03 10:38:30 | 52.37926 | 8.64584 | 111° | 55km/h | 17068m | 4.7m/s | -53.9°C | 1.4% | 91.7hPa | 2.7V | 00:00:00 | 00:00:00 | 00:00:00 | |
| BIOWL1-15 | 2026-09-03 10:38:30 | 52.37936 | 8.64545 | 118° | 53km/h | 17059m | 4.1m/s | -54.2°C | 1% | 91.8hPa | 2.6V | 18:12:15 | 01:07:01 | 00:00:00 | |
| DL8OAI-8 | 2026-09-03 10:38:29 | 52.37926 | 8.64584 | 111° | 55km/h | 17068m | 4.7m/s | -53.9°C | 1.5% | 91.7hPa | 2.7V | 00:00:00 | 00:00:00 | 00:00:00 | |
| EDDB2-11 | 2026-09-03 10:38:28 | 52.37931 | 8.64564 | 112° | 51km/h | 17064m | 4.5m/s | -54.1°C | 1.4% | 91.8hPa | 2.7V | 00:00:00 | 00:00:00 | 00:00:00 | |
| HARRO8 | 2026-09-03 10:38:27 | 52.37936 | 8.64545 | 117° | 51km/h | 17059m | 4.1m/s | -54.2°C | 1.5% | 91.8hPa | 2.7V | 00:00:00 | 00:00:00 | 00:00:00 | |
| DD1CC8 | 2026-09-03 10:38:26 | 52.37936 | 8.64545 | 117° | 51km/h | 17059m | 4.1m/s | -54.2°C | 1.5% | 91.8hPa | 2.7V | 00:00:00 | 00:00:00 | 00:00:00 | |
| DL4XJ-10 | 2026-09-03 10:38:25 | 52.37943 | 8.64525 | 122° | 62km/h | 17055m | 4.8m/s | -52.9°C | 0% | 0hPa | 2.7V | 00:00:00 | 00:00:00 | 00:00:00 | |
| DM0DOS-11 | 2026-09-03 10:38:24 | 52.37991 | 8.64403 | 120° | 62km/h | 17027m | 5.5m/s | -54.9°C | 4.5% | 92.3hPa | 2.7V | 08:30:00 | 01:06:54 | 00:00:00 | |
| HSKMA3-T | 2026-09-03 10:38:23 | 52.37959 | 8.64485 | 124° | 58km/h | 17046m | 3.4m/s | -54.6°C | 1.1% | 92hPa | 2.7V | 18:12:15 | 01:06:58 | 00:00:00 | |
| DL1XH-west | 2026-09-03 10:38:22 | 52.37967 | 8.64465 | 124° | 58km/h | 17041m | 5.4m/s | -54.7°C | 1.1% | 92.1hPa | 2.6V | 18:12:15 | 01:06:57 | 00:00:00 | |
| AA1-15 | 2026-09-03 10:38:21 | 52.37975 | 8.64445 | 123° | 58km/h | 17036m | 4.3m/s | -54.8°C | 1.1% | 92.2hPa | 2.6V | 18:12:15 | 01:06:56 | 00:00:00 | |
| DF8AY | 2026-09-03 10:38:20 | 52.37983 | 8.64425 | 122° | 60km/h | 17032m | 4.5m/s | -54.8°C | 1.2% | 92.2hPa | 2.7V | 18:12:15 | 01:06:55 | 00:00:00 | |
| DO2JMG | 2026-09-03 10:38:19 | 52.37991 | 8.64403 | 121° | 64km/h | 17027m | 5.5m/s | -54.9°C | 1.2% | 92.3hPa | 2.7V | 18:12:15 | 01:06:54 | 00:00:00 | |
| SO1NDE-10 | 2026-09-03 10:38:19 | 52.37991 | 8.64403 | 121° | 62km/h | 17027m | 5.4m/s | -54.8°C | 4.5% | 92.2hPa | 2.6V | 00:00:00 | 01:06:54 | 00:00:00 | |
| DO2SHX-10 | 2026-09-03 10:38:18 | 52.37999 | 8.64380 | 118° | 64km/h | 17022m | 4.8m/s | -54.9°C | 4.5% | 92.3hPa | 2.6V | 00:00:00 | 01:06:53 | 08:30:00 | |
| DL1NUX | 2026-09-03 10:38:17 | 52.38036 | 8.64229 | 109° | 64km/h | 16992m | 4.3m/s | -54.8°C | 4.3% | 92.8hPa | 2.6V | 08:30:00 | 01:06:47 | 00:00:00 | |
| DL1XH1-15 | 2026-09-03 10:38:15 | 52.38048 | 8.64180 | 113° | 64km/h | 16984m | 5.4m/s | -54.9°C | 4.3% | 92.9hPa | 2.6V | 08:30:00 | 01:06:45 | 00:00:00 | |
| BIOWL1-15 | 2026-09-03 10:38:15 | 52.38019 | 8.64307 | 111° | 68km/h | 17007m | 6.3m/s | -54.9°C | 1.2% | 92.6hPa | 2.7V | 18:12:15 | 01:06:50 | 00:00:00 | |
| HSKMA3-T | 2026-09-03 10:38:13 | 52.38031 | 8.64254 | 109° | 68km/h | 16997m | 5.4m/s | -54.8°C | 1.1% | 92.8hPa | 2.7V | 18:12:15 | 01:06:48 | 00:00:00 | |
| DL1XH-west | 2026-09-03 10:38:11 | 52.38042 | 8.64204 | 111° | 64km/h | 16988m | 3.6m/s | -54.9°C | 1.1% | 92.9hPa | 2.6V | 18:12:15 | 01:06:46 | 00:00:00 | |
| DF8AY | 2026-09-03 10:38:10 | 52.38048 | 8.64180 | 113° | 64km/h | 16984m | 5.4m/s | -54.9°C | 1.1% | 93hPa | 2.6V | 18:12:15 | 01:06:45 | 00:00:00 | |
| BIOWL1-15 | 2026-09-03 10:38:10 | 52.38093 | 8.64042 | 121° | 64km/h | 16954m | 4.1m/s | -54.8°C | 1.2% | 93.4hPa | 2.6V | 18:12:15 | 01:06:39 | 00:00:00 | |
| DB0DAN | 2026-09-03 10:38:10 | 52.38048 | 8.64180 | 113° | 62km/h | 16984m | 5.4m/s | -54.9°C | 1.5% | 92.95hPa | 2.6V | 00:00:00 | 00:00:00 | 00:00:00 | |
| DL1XH-15 | 2026-09-03 10:38:09 | 52.38093 | 8.64042 | 121° | 64km/h | 16954m | 4m/s | -54.8°C | 4.5% | 93.4hPa | 2.6V | 08:30:00 | 01:06:39 | 00:00:00 | |
| DO2JMG | 2026-09-03 10:38:08 | 52.38062 | 8.64132 | 117° | 64km/h | 16974m | 5.3m/s | -54.7°C | 1.1% | 93.1hPa | 2.7V | 18:12:15 | 01:06:43 | 00:00:00 | |
| DO2SHX-10 | 2026-09-03 10:38:08 | 52.38062 | 8.64132 | 118° | 62km/h | 16974m | 5.2m/s | -54.7°C | 4.3% | 93.1hPa | 2.7V | 00:00:00 | 01:06:43 | 00:00:00 | |
| DL1NUX | 2026-09-03 10:38:07 | 52.38109 | 8.63998 | 120° | 60km/h | 16945m | 5.8m/s | -54.9°C | 4.6% | 93.5hPa | 2.7V | 08:30:00 | 01:06:37 | 00:00:00 | |
| DL8OAI-8 | 2026-09-03 10:38:07 | 52.38069 | 8.64108 | 120° | 62km/h | 16969m | 5.1m/s | -54.8°C | 1.6% | 93.2hPa | 2.6V | 00:00:00 | 00:00:00 | 00:00:00 | |
| DL3OBA | 2026-09-03 10:38:06 | 52.38069 | 8.64108 | 120° | 62km/h | 16969m | 5.1m/s | -54.8°C | 1.6% | 93.2hPa | 2.6V | 00:00:00 | 00:00:00 | 00:00:00 | |
| DL1XH1-15 | 2026-09-03 10:38:05 | 52.38123 | 8.63956 | 118° | 57km/h | 16935m | 5.2m/s | -54.8°C | 4.5% | 93.6hPa | 2.6V | 08:30:00 | 01:06:35 | 00:00:00 | |
| DO2SHX-10 | 2026-09-03 10:38:05 | 52.38085 | 8.64064 | 121° | 62km/h | 16959m | 5.8m/s | -54.8°C | 4.4% | 93.3hPa | 2.7V | 00:00:00 | 01:06:40 | 00:00:00 | |
| DM0DOS-11 | 2026-09-03 10:38:04 | 52.38130 | 8.63935 | 118° | 58km/h | 16930m | 5.2m/s | -54.8°C | 4.4% | 93.7hPa | 2.7V | 08:30:00 | 01:06:34 | 00:00:00 | |
| HSKMA3-T | 2026-09-03 10:38:02 | 52.38109 | 8.63998 | 120° | 60km/h | 16945m | 5.8m/s | -54.9°C | 1.3% | 93.5hPa | 2.7V | 18:12:15 | 01:06:37 | 00:00:00 | |
| DL1XH-west | 2026-09-03 10:38:01 | 52.38116 | 8.63977 | 119° | 57km/h | 16940m | 4.4m/s | -54.8°C | 1.3% | 93.6hPa | 2.6V | 18:12:15 | 01:06:36 | 00:00:00 | |
| AA1-15 | 2026-09-03 10:38:00 | 52.38123 | 8.63956 | 118° | 57km/h | 16935m | 5.3m/s | -54.8°C | 1.2% | 93.6hPa | 2.6V | 18:12:15 | 01:06:35 | 00:00:00 | |
| DF8AY | 2026-09-03 10:37:59 | 52.38130 | 8.63935 | 118° | 58km/h | 16930m | 5.2m/s | -54.8°C | 1.1% | 93.7hPa | 2.7V | 18:12:15 | 01:06:34 | 00:00:00 | |
| DO2JMG | 2026-09-03 10:37:58 | 52.38137 | 8.63913 | 117° | 58km/h | 16925m | 5.1m/s | -54.7°C | 1.1% | 93.8hPa | 2.7V | 18:12:15 | 01:06:33 | 00:00:00 | |
| DF5WG-10 | 2026-09-03 10:37:58 | 52.38137 | 8.63913 | 118° | 60km/h | 16925m | 5.1m/s | -54.7°C | 4.4% | 93.7hPa | 2.7V | 00:00:00 | 01:06:33 | 00:00:00 | |
| DL1NUX | 2026-09-03 10:37:57 | 52.38177 | 8.63780 | 117° | 58km/h | 16894m | 5.2m/s | -54.7°C | 4.6% | 94.2hPa | 2.7V | 08:30:00 | 01:06:27 | 00:00:00 | |
| DO2SHX-10 | 2026-09-03 10:37:57 | 52.38144 | 8.63892 | 116° | 58km/h | 16920m | 5.8m/s | -54.7°C | 4.3% | 93.9hPa | 2.6V | 00:00:00 | 01:06:32 | 00:00:00 | |
| DL1XH1-15 | 2026-09-03 10:37:56 | 52.38191 | 8.63738 | 118° | 57km/h | 16884m | 6m/s | -54.6°C | 4.6% | 94.4hPa | 2.6V | 08:30:00 | 01:06:25 | 00:00:00 | |
| DM0DOS-11 | 2026-09-03 10:37:56 | 52.38198 | 8.63718 | 121° | 57km/h | 16879m | 4.2m/s | -54.6°C | 4.5% | 94.5hPa | 2.6V | 08:30:00 | 01:06:24 | 00:00:00 | |
| BIOWL1-15 | 2026-09-03 10:37:53 | 52.38171 | 8.63802 | 118° | 60km/h | 16899m | 4.6m/s | -54.9°C | 1.2% | 94.2hPa | 2.7V | 18:12:15 | 01:06:28 | 00:00:00 | |
| DL1XH-west | 2026-09-03 10:37:51 | 52.38184 | 8.63759 | 118° | 57km/h | 16889m | 4.4m/s | -54.7°C | 1.3% | 94.3hPa | 2.6V | 18:12:15 | 01:06:26 | 00:00:00 | |
| AA1-15 | 2026-09-03 10:37:49 | 52.38198 | 8.63718 | 121° | 57km/h | 16879m | 4.3m/s | -54.7°C | 1.2% | 94.5hPa | 2.6V | 18:12:15 | 01:06:24 | 00:00:00 | |
| DO2JMG | 2026-09-03 10:37:47 | 52.38213 | 8.63681 | 124° | 49km/h | 16869m | 5m/s | -54.8°C | 1.2% | 94.6hPa | 2.7V | 18:12:15 | 01:06:22 | 00:00:00 | |
| DL1XH1-15 | 2026-09-03 10:37:45 | 52.38266 | 8.63548 | 126° | 60km/h | 16835m | 5m/s | -54.8°C | 4.3% | 95.1hPa | 2.7V | 08:30:00 | 01:06:15 | 00:00:00 | |
| DM0DOS-11 | 2026-09-03 10:37:44 | 52.38275 | 8.63528 | 126° | 62km/h | 16830m | 5.5m/s | -54.8°C | 4.4% | 95.2hPa | 2.6V | 08:30:00 | 01:06:14 | 00:00:00 | |
| BIOWL1-15 | 2026-09-03 10:37:44 | 52.38249 | 8.63587 | 123° | 57km/h | 16845m | 5.8m/s | -54.9°C | 1.1% | 95hPa | 2.7V | 18:12:15 | 01:06:17 | 00:00:00 | |
| HSKMA3-T | 2026-09-03 10:37:41 | 52.38257 | 8.63568 | 125° | 57km/h | 16840m | 4.3m/s | -54.8°C | 1.1% | 95.1hPa | 2.7V | 18:12:15 | 01:06:16 | 00:00:00 | |
| DL1XH-west | 2026-09-03 10:37:40 | 52.38266 | 8.63548 | 126° | 60km/h | 16835m | 5m/s | -54.8°C | 1.1% | 95.1hPa | 2.7V | 18:12:15 | 01:06:15 | 00:00:00 | |
| AA1-15 | 2026-09-03 10:37:38 | 52.38284 | 8.63507 | 127° | 62km/h | 16825m | 4.7m/s | -54.8°C | 1.2% | 95.3hPa | 2.6V | 18:12:15 | 01:06:13 | 00:00:00 | |
| GOEST3-10 | 2026-09-03 10:37:38 | 52.38284 | 8.63507 | 127° | 60km/h | 16825m | 4.6m/s | -54.8°C | 4.4% | 95.3hPa | 2.6V | 00:00:00 | 00:00:00 | 00:00:00 | |
| DL1NUX | 2026-09-03 10:37:37 | 52.38343 | 8.63388 | 128° | 64km/h | 16795m | 5.4m/s | -54.8°C | 4.4% | 95.7hPa | 2.7V | 08:30:00 | 01:06:07 | 00:00:00 | |
| DO2JMG | 2026-09-03 10:37:37 | 52.38294 | 8.63487 | 127° | 60km/h | 16819m | 6.1m/s | -54.8°C | 1.2% | 95.4hPa | 2.6V | 18:12:15 | 01:06:12 | 00:00:00 | |
| DF7PN | 2026-09-03 10:37:37 | 52.38294 | 8.63487 | 127° | 58km/h | 16820m | 6.1m/s | -54.8°C | 1.6% | 95.4hPa | 2.6V | 00:00:00 | 00:00:00 | 00:00:00 | |
| DL1XH1-15 | 2026-09-03 10:37:35 | 52.38363 | 8.63347 | 126° | 64km/h | 16785m | 3.7m/s | -54.9°C | 4.4% | 95.9hPa | 2.6V | 08:30:00 | 01:06:05 | 00:00:00 | |
| DF5WG-10 | 2026-09-03 10:37:35 | 52.38312 | 8.63448 | 130° | 64km/h | 16810m | 4.8m/s | -54.9°C | 4.4% | 95.5hPa | 2.6V | 00:00:00 | 01:06:10 | 00:00:00 | |
| DM0DOS-11 | 2026-09-03 10:37:34 | 52.38372 | 8.63326 | 126° | 64km/h | 16780m | 5.8m/s | -54.9°C | 4.4% | 95.9hPa | 2.6V | 08:30:00 | 01:06:04 | 00:00:00 | |
| BIOWL1-15 | 2026-09-03 10:37:34 | 52.38343 | 8.63388 | 128° | 64km/h | 16795m | 5.4m/s | -54.8°C | 1.2% | 95.7hPa | 2.7V | 18:12:15 | 01:06:07 | 00:00:00 | |
| HSKMA3-T | 2026-09-03 10:37:31 | 52.38353 | 8.63368 | 127° | 62km/h | 16790m | 5.1m/s | -54.8°C | 1.1% | 95.8hPa | 2.7V | 18:12:15 | 01:06:06 | 00:00:00 | |
| DF8AY-15 | 2026-09-03 10:37:31 | 52.38353 | 8.63368 | 127° | 68km/h | 16790m | 5.1m/s | -54.8°C | 4.4% | 95.8hPa | 2.6V | 00:00:00 | 01:06:06 | 00:00:00 | |
| DK5PH-5 | 2026-09-03 10:37:30 | 52.38362 | 8.63347 | 127° | 71km/h | 16785m | 3.7m/s | -54.8°C | 4.4% | 95.8hPa | 2.6V | 00:00:00 | 01:06:05 | 00:00:00 | |
| DL1XH-15 | 2026-09-03 10:37:29 | 52.38423 | 8.63221 | 129° | 66km/h | 16754m | 6.1m/s | -55°C | 4.4% | 96.3hPa | 2.6V | 08:30:00 | 01:05:59 | 00:00:00 | |
| DL1XH-west | 2026-09-03 10:37:29 | 52.38372 | 8.63326 | 127° | 64km/h | 16780m | 5.8m/s | -54.9°C | 1.2% | 95.9hPa | 2.6V | 18:12:15 | 01:06:04 | 00:00:00 | |
| AA1-15 | 2026-09-03 10:37:28 | 52.38382 | 8.63304 | 128° | 66km/h | 16775m | 5.1m/s | -54.9°C | 1.1% | 96.1hPa | 2.6V | 18:12:15 | 01:06:03 | 00:00:00 | |
| DL1NUX | 2026-09-03 10:37:28 | 52.38445 | 8.63178 | 130° | 68km/h | 16744m | 4.6m/s | -55°C | 4.4% | 96.5hPa | 2.6V | 08:30:00 | 01:05:57 | 00:00:00 | |
| DO2JMG | 2026-09-03 10:37:28 | 52.38403 | 8.63262 | 128° | 64km/h | 16766m | 6.6m/s | -55.1°C | 1.2% | 96.2hPa | 2.7V | 18:12:15 | 01:06:01 | 00:00:00 | |
| DL3AQ-11 | 2026-09-03 10:37:26 | 52.38413 | 8.63241 | 127° | 62km/h | 16760m | 5.3m/s | -55.0°C | 1.6% | 96.3hPa | 2.7V | 00:00:00 | 00:00:00 | 00:00:00 | |
| DL1XH1-15 | 2026-09-03 10:37:25 | 52.38466 | 8.63135 | 126° | 68km/h | 16734m | 3.9m/s | -55°C | 4.5% | 96.7hPa | 2.7V | 08:30:00 | 01:05:55 | 00:00:00 | |
| DB0DAN | 2026-09-03 10:37:25 | 52.38413 | 8.63241 | 128° | 60km/h | 16760m | 5.3m/s | -55°C | 1.6% | 96.27hPa | 2.7V | 00:00:00 | 00:00:00 | 00:00:00 | |
| HARRO8 | 2026-09-03 10:37:25 | 52.38423 | 8.63221 | 129° | 64km/h | 16754m | 6.1m/s | -55.0°C | 1.6% | 96.4hPa | 2.7V | 00:00:00 | 00:00:00 | 00:00:00 | |
| DM0DOS-11 | 2026-09-03 10:37:24 | 52.38477 | 8.63112 | 126° | 69km/h | 16729m | 4.9m/s | -55°C | 4.4% | 96.7hPa | 2.7V | 08:30:00 | 01:05:54 | 00:00:00 | |
| BIOWL1-15 | 2026-09-03 10:37:23 | 52.38456 | 8.63157 | 129° | 68km/h | 16739m | 5.9m/s | -55°C | 1.3% | 96.6hPa | 2.8V | 18:12:15 | 01:05:56 | 00:00:00 | |
| HSKMA3-T | 2026-09-03 10:37:20 | 52.38466 | 8.63135 | 127° | 68km/h | 16734m | 3.9m/s | -55°C | 1.2% | 96.7hPa | 2.7V | 18:12:15 | 01:05:55 | 00:00:00 | |
| DL1XH-15 | 2026-09-03 10:37:19 | 52.38528 | 8.62992 | 124° | 69km/h | 16703m | 6.4m/s | -55.2°C | 4.5% | 97.1hPa | 2.7V | 08:30:00 | 01:05:49 | 00:00:00 | |
| DL1XH-west | 2026-09-03 10:37:18 | 52.38487 | 8.63089 | 126° | 71km/h | 16724m | 5.4m/s | -55°C | 1.2% | 96.8hPa | 2.6V | 18:12:15 | 01:05:53 | 00:00:00 | |
| DF8AY | 2026-09-03 10:37:17 | 52.38498 | 8.63065 | 125° | 73km/h | 16719m | 4.3m/s | -55.2°C | 1.2% | 96.9hPa | 2.6V | 18:12:15 | 01:05:52 | 00:00:00 | |
| DO2JMG | 2026-09-03 10:37:15 | 52.38518 | 8.63016 | 124° | 69km/h | 16709m | 5m/s | -55.1°C | 1.2% | 97hPa | 2.8V | 18:12:15 | 01:05:50 | 00:00:00 | |
| DM0DOS-11 | 2026-09-03 10:37:14 | 52.38570 | 8.62867 | 112° | 71km/h | 16679m | 4m/s | -55.2°C | 4.5% | 97.5hPa | 2.7V | 08:30:00 | 01:05:44 | 00:00:00 | |
| HSKMA3-T | 2026-09-03 10:37:10 | 52.38563 | 8.62894 | 114° | 69km/h | 16683m | 4.4m/s | -55.3°C | 1.2% | 97.5hPa | 2.6V | 18:12:15 | 01:05:45 | 00:00:00 | |
| DB0DAN | 2026-09-03 10:37:10 | 52.38563 | 8.62894 | 114° | 66km/h | 16683m | 4.4m/s | -55.3°C | 1.6% | 97.46hPa | 2.6V | 00:00:00 | 00:00:00 | 00:00:00 | |
| DL1XH-west | 2026-09-03 10:37:07 | 52.38585 | 8.62812 | 116° | 77km/h | 16669m | 4.4m/s | -55.2°C | 1.2% | 97.6hPa | 2.6V | 18:12:15 | 01:05:42 | 00:00:00 | |
| DF7PN | 2026-09-03 10:37:06 | 52.38602 | 8.62754 | 114° | 78km/h | 16659m | 6.0m/s | -55.2°C | 1.6% | 97.8hPa | 2.7V | 00:00:00 | 00:00:00 | 00:00:00 | |
| DL1XH1-15 | 2026-09-03 10:37:05 | 52.38649 | 8.62596 | 113° | 86km/h | 16635m | 4.9m/s | -55.1°C | 4.5% | 98.2hPa | 2.7V | 08:30:00 | 01:05:35 | 00:00:00 | |
| DO2JMG | 2026-09-03 10:37:05 | 52.38602 | 8.62754 | 115° | 80km/h | 16659m | 6m/s | -55.2°C | 1.2% | 97.8hPa | 2.8V | 18:12:15 | 01:05:40 | 00:00:00 | |
| BIOWL1-15 | 2026-09-03 10:36:59 | 52.38657 | 8.62564 | 113° | 84km/h | 16630m | 4m/s | -55.1°C | 1.2% | 98.2hPa | 2.6V | 18:12:15 | 01:05:34 | 00:00:00 | |
| DF8AY | 2026-09-03 10:36:57 | 52.38674 | 8.62503 | 115° | 78km/h | 16621m | 4.7m/s | -55°C | 1.2% | 98.4hPa | 2.6V | 18:12:15 | 01:05:32 | 00:00:00 | |
| DL1XH-west | 2026-09-03 10:36:56 | 52.38682 | 8.62473 | 113° | 77km/h | 16616m | 4.5m/s | -55.1°C | 1.2% | 98.4hPa | 2.8V | 18:12:15 | 01:05:31 | 00:00:00 | |
| DL1XH1-15 | 2026-09-03 10:36:55 | 52.38721 | 8.62293 | 106° | 80km/h | 16587m | 4.9m/s | -55°C | 4.5% | 98.9hPa | 2.8V | 08:30:00 | 01:05:25 | 00:00:00 | |
| DB0DAN | 2026-09-03 10:36:55 | 52.38689 | 8.62444 | 110° | 73km/h | 16611m | 5.7m/s | -55.1°C | 1.7% | 98.54hPa | 2.7V | 00:00:00 | 00:00:00 | 00:00:00 | |
| DM0DOS-11 | 2026-09-03 10:36:55 | 52.38727 | 8.62261 | 107° | 80km/h | 16582m | 4.6m/s | -55°C | 4.5% | 99hPa | 2.7V | 08:30:00 | 01:05:24 | 00:00:00 | |
| DO2JMG | 2026-09-03 10:36:54 | 52.38696 | 8.62414 | 109° | 77km/h | 16606m | 4.1m/s | -55.1°C | 1.3% | 98.6hPa | 2.7V | 18:12:15 | 01:05:29 | 00:00:00 | |
| BIOWL1-15 | 2026-09-03 10:36:51 | 52.38727 | 8.62261 | 108° | 80km/h | 16582m | 4.6m/s | -55°C | 1.2% | 99hPa | 2.7V | 18:12:15 | 01:05:24 | 00:00:00 | |
| DB0NH | 2026-09-03 10:36:51 | 52.38715 | 8.62324 | 109° | 80km/h | 16592m | 5.0m/s | -55.0°C | 4.6% | 98.8hPa | 2.8V | 00:00:00 | 01:05:26 | 00:00:00 | |
| SMARD9-10 | 2026-09-03 10:36:50 | 52.38715 | 8.62324 | 109° | 78km/h | 16592m | 5.1m/s | -55.1°C | 1.7% | 98.8hPa | 2.8V | 00:00:00 | 00:00:00 | 00:00:00 | |
| DL1XH-15 | 2026-09-03 10:36:49 | 52.38761 | 8.62098 | 108° | 84km/h | 16557m | 4.8m/s | -55°C | 4.5% | 99.4hPa | 2.8V | 08:30:00 | 01:05:19 | 00:00:00 | |
| HSKMA3-T | 2026-09-03 10:36:48 | 52.38733 | 8.62229 | 109° | 82km/h | 16577m | 5.6m/s | -55°C | 1.3% | 99.1hPa | 2.7V | 18:12:15 | 01:05:23 | 00:00:00 | |
| DF8AY | 2026-09-03 10:36:48 | 52.38740 | 8.62197 | 110° | 84km/h | 16572m | 4.5m/s | -55°C | 1.2% | 99.2hPa | 2.6V | 18:12:15 | 01:05:22 | 00:00:00 | |
| DL1XH-west | 2026-09-03 10:36:46 | 52.38747 | 8.62164 | 109° | 84km/h | 16567m | 5.8m/s | -55°C | 1.2% | 99.3hPa | 2.6V | 18:12:15 | 01:05:21 | 00:00:00 | |
| AA1-15 | 2026-09-03 10:36:45 | 52.38754 | 8.62131 | 108° | 84km/h | 16562m | 4.4m/s | -54.9°C | 1.2% | 99.3hPa | 2.6V | 18:12:15 | 01:05:20 | 00:00:00 | |
| DL4XJ-10 | 2026-09-03 10:36:45 | 52.38754 | 8.62131 | 109° | 80km/h | 16562m | 4.3m/s | -53.6°C | 0% | 0hPa | 2.6V | 00:00:00 | 00:00:00 | 00:00:00 | |
| DM0DOS-11 | 2026-09-03 10:36:44 | 52.38797 | 8.61934 | 110° | 84km/h | 16531m | 5.9m/s | -54.7°C | 4.4% | 99.8hPa | 2.6V | 08:30:00 | 01:05:14 | 00:00:00 | |
| DO2JMG | 2026-09-03 10:36:43 | 52.38768 | 8.62066 | 110° | 84km/h | 16552m | 5.6m/s | -54.9°C | 1.2% | 99.5hPa | 2.8V | 18:12:15 | 01:05:18 | 00:00:00 | |
| DD8BA-10 | 2026-09-03 10:36:43 | 52.38768 | 8.62066 | 111° | 82km/h | 16552m | 5.6m/s | -54.8°C | 4.5% | 99.4hPa | 2.7V | 00:00:00 | 00:00:00 | 00:00:00 | |
| DO9LL-15 | 2026-09-03 10:36:42 | 52.38775 | 8.62033 | 111° | 78km/h | 16547m | 4.7m/s | -54.8°C | 4.4% | 99.5hPa | 2.7V | 00:00:00 | 01:05:17 | 00:00:00 | |
| DL8DAS-15 | 2026-09-03 10:36:41 | 52.38775 | 8.62033 | 111° | 84km/h | 16547m | 4.7m/s | -54.8°C | 1.6% | 99.6hPa | 2.6V | 00:00:00 | 00:00:00 | 00:00:00 | |
| DB0DAN | 2026-09-03 10:36:40 | 52.38790 | 8.61967 | 109° | 82km/h | 16536m | 4.7m/s | -54.8°C | 1.7% | 99.73hPa | 2.6V | 00:00:00 | 00:00:00 | 00:00:00 | |
| DO2SHX-10 | 2026-09-03 10:36:40 | 52.38790 | 8.61967 | 110° | 84km/h | 16536m | 4.7m/s | -54.7°C | 4.5% | 99.7hPa | 2.8V | 00:00:00 | 01:05:15 | 00:00:00 | |
| DL1XH-15 | 2026-09-03 10:36:39 | 52.38829 | 8.61775 | 106° | 80km/h | 16507m | 5.6m/s | -54.7°C | 4.4% | 100.2hPa | 2.8V | 08:30:00 | 01:05:09 | 00:00:00 | |
| HSKMA3-T | 2026-09-03 10:36:38 | 52.38804 | 8.61902 | 110° | 82km/h | 16526m | 4.5m/s | -54.7°C | 1.2% | 99.9hPa | 2.8V | 18:12:15 | 01:05:13 | 00:00:00 | |
| DF8AY | 2026-09-03 10:36:36 | 52.38817 | 8.61839 | 107° | 80km/h | 16516m | 5.1m/s | -54.6°C | 1.2% | 100hPa | 2.6V | 18:12:15 | 01:05:11 | 00:00:00 | |
| DL1XH-west | 2026-09-03 10:36:35 | 52.38823 | 8.61807 | 106° | 80km/h | 16512m | 3.6m/s | -54.6°C | 1.1% | 100.1hPa | 2.6V | 18:12:15 | 01:05:10 | 00:00:00 | |
| DO2JMG | 2026-09-03 10:36:32 | 52.38841 | 8.61713 | 109° | 77km/h | 16497m | 4m/s | -54.7°C | 1.2% | 100.4hPa | 2.6V | 18:12:15 | 01:05:07 | 00:00:00 | |
| DF8AY-15 | 2026-09-03 10:36:31 | 52.38847 | 8.61683 | 109° | 77km/h | 16493m | 5.7m/s | 0°C | 0% | 0hPa | 2.8V | 00:00:00 | 01:05:06 | 00:00:00 | |
| DK5PH-5 | 2026-09-03 10:36:30 | 52.38853 | 8.61653 | 109° | 75km/h | 16488m | 4.5m/s | -54.6°C | 4.5% | 100.4hPa | 2.8V | 00:00:00 | 01:05:05 | 00:00:00 | |
| DL1XH-15 | 2026-09-03 10:36:29 | 52.38898 | 8.61471 | 110° | 77km/h | 16459m | 4.3m/s | -54.6°C | 4.5% | 101hPa | 2.8V | 08:30:00 | 01:04:59 | 00:00:00 | |
| HSKMA3-T | 2026-09-03 10:36:27 | 52.38875 | 8.61561 | 114° | 80km/h | 16473m | 4.1m/s | -54.7°C | 1.2% | 100.7hPa | 2.6V | 18:12:15 | 01:05:02 | 00:00:00 | |
| HTAHTA | 2026-09-03 10:36:26 | 52.38883 | 8.61531 | 113° | 78km/h | 16469m | 5.0m/s | -54.6°C | 1.7% | 100.8hPa | 2.6V | 00:00:00 | 00:00:00 | 00:00:00 | |
| DF8AY | 2026-09-03 10:36:26 | 52.38883 | 8.61531 | 114° | 80km/h | 16469m | 5m/s | -54.6°C | 1.3% | 100.8hPa | 2.6V | 18:12:15 | 01:05:01 | 00:00:00 | |
| DL1XH1-15 | 2026-09-03 10:36:25 | 52.38923 | 8.61361 | 107° | 69km/h | 16440m | 5.6m/s | -54.6°C | 4.5% | 101.2hPa | 2.6V | 08:30:00 | 01:04:55 | 00:00:00 | |
| DB0DAN | 2026-09-03 10:36:25 | 52.38891 | 8.61501 | 111° | 75km/h | 16463m | 5.3m/s | -54.6°C | 1.7% | 100.87hPa | 2.8V | 00:00:00 | 00:00:00 | 00:00:00 | |
| DL1XH-west | 2026-09-03 10:36:25 | 52.38891 | 8.61501 | 111° | 78km/h | 16463m | 5.3m/s | -54.6°C | 1.2% | 100.9hPa | 2.8V | 18:12:15 | 01:05:00 | 00:00:00 | |
| AA1-15 | 2026-09-03 10:36:24 | 52.38898 | 8.61471 | 110° | 77km/h | 16459m | 4.3m/s | -54.6°C | 1.3% | 101hPa | 2.8V | 18:12:15 | 01:04:59 | 00:00:00 | |
| DO2JMG | 2026-09-03 10:36:22 | 52.38911 | 8.61415 | 112° | 69km/h | 16449m | 4.6m/s | -54.6°C | 1.2% | 101.1hPa | 2.6V | 18:12:15 | 01:04:57 | 00:00:00 | |
| DO3DL | 2026-09-03 10:36:21 | 52.38911 | 8.61415 | 113° | 69km/h | 16449m | 4.6m/s | -54.6°C | 1.6% | 101.1hPa | 2.6V | 00:00:00 | 00:00:00 | 00:00:00 | |
| DL1XH-15 | 2026-09-03 10:36:20 | 52.38956 | 8.61181 | 105° | 82km/h | 16408m | 4.3m/s | -54.3°C | 4.5% | 101.7hPa | 2.6V | 08:30:00 | 01:04:49 | 00:00:00 | |
| BIOWL1-15 | 2026-09-03 10:36:20 | 52.38939 | 8.61276 | 108° | 77km/h | 16424m | 4.8m/s | -54.5°C | 1.2% | 101.5hPa | 2.7V | 18:12:15 | 01:04:52 | 00:00:00 | |
| HSKMA3-T | 2026-09-03 10:36:16 | 52.38945 | 8.61245 | 107° | 78km/h | 16419m | 5.5m/s | -54.4°C | 1.2% | 101.6hPa | 2.6V | 18:12:15 | 01:04:51 | 00:00:00 | |
| DF8AY | 2026-09-03 10:36:15 | 52.38951 | 8.61214 | 106° | 80km/h | 16413m | 5.9m/s | -54.4°C | 1.2% | 101.7hPa | 2.6V | 18:12:15 | 01:04:50 | 00:00:00 | |
| DL1XH-west | 2026-09-03 10:36:14 | 52.38956 | 8.61181 | 106° | 82km/h | 16408m | 4.3m/s | -54.3°C | 1.2% | 101.7hPa | 2.6V | 18:12:15 | 01:04:49 | 00:00:00 | |
| AA1-15 | 2026-09-03 10:36:13 | 52.38962 | 8.61149 | 107° | 82km/h | 16403m | 6.2m/s | -54.3°C | 1.3% | 101.8hPa | 2.8V | 18:12:15 | 01:04:48 | 00:00:00 | |
| DO2JMG | 2026-09-03 10:36:12 | 52.38968 | 8.61117 | 108° | 78km/h | 16397m | 4.2m/s | -54.2°C | 1.3% | 101.9hPa | 2.8V | 18:12:15 | 01:04:47 | 00:00:00 | |
| DO9LL-15 | 2026-09-03 10:36:12 | 52.38968 | 8.61117 | 108° | 73km/h | 16398m | 4.1m/s | -54.1°C | 4.5% | 101.9hPa | 2.6V | 00:00:00 | 01:04:47 | 00:00:00 | |
| DB0DAN | 2026-09-03 10:36:10 | 52.38979 | 8.61055 | 105° | 73km/h | 16388m | 5.4m/s | -54.1°C | 1.6% | 102.04hPa | 2.6V | 00:00:00 | 00:00:00 | 00:00:00 | |
| DL1XH-15 | 2026-09-03 10:36:09 | 52.39009 | 8.60880 | 107° | 68km/h | 16358m | 4.6m/s | -54.1°C | 4.3% | 102.5hPa | 2.6V | 08:30:00 | 01:04:39 | 00:00:00 | |
| BIOWL1-15 | 2026-09-03 10:36:06 | 52.38998 | 8.60935 | 107° | 71km/h | 16368m | 4m/s | -54.1°C | 1.2% | 102.3hPa | 2.7V | 18:12:15 | 01:04:41 | 00:00:00 | |
| HSKMA3-T | 2026-09-03 10:36:05 | 52.39004 | 8.60907 | 107° | 69km/h | 16363m | 6.1m/s | -54°C | 1.1% | 102.4hPa | 2.7V | 18:12:15 | 01:04:40 | 00:00:00 | |
| AA1-15 | 2026-09-03 10:36:03 | 52.39014 | 8.60854 | 110° | 68km/h | 16353m | 6.1m/s | -54.1°C | 1.2% | 102.6hPa | 2.6V | 18:12:15 | 01:04:38 | 00:00:00 | |
| DO2JMG | 2026-09-03 10:36:02 | 52.39020 | 8.60828 | 111° | 69km/h | 16347m | 4.4m/s | -54.1°C | 1.1% | 102.7hPa | 2.6V | 18:12:15 | 01:04:37 | 00:00:00 | |
| DO3DL | 2026-09-03 10:36:01 | 52.39020 | 8.60827 | 112° | 69km/h | 16348m | 4.4m/s | -54.1°C | 1.6% | 102.7hPa | 2.7V | 00:00:00 | 00:00:00 | 00:00:00 | |
| DK5PH-5 | 2026-09-03 10:36:00 | 52.39032 | 8.60773 | 108° | 71km/h | 16338m | 4.7m/s | -54.0°C | 4.3% | 102.8hPa | 2.7V | 00:00:00 | 01:04:35 | 00:00:00 | |
| DL1XH-15 | 2026-09-03 10:35:59 | 52.39065 | 8.60592 | 105° | 77km/h | 16308m | 3.9m/s | -54.1°C | 4.4% | 103.3hPa | 2.6V | 08:30:00 | 01:04:29 | 00:00:00 | |
| BIOWL1-15 | 2026-09-03 10:35:59 | 52.39060 | 8.60623 | 104° | 78km/h | 16312m | 4.1m/s | -54°C | 1.3% | 103.3hPa | 2.6V | 18:12:15 | 01:04:30 | 00:00:00 | |
| HSKMA3-T | 2026-09-03 10:35:54 | 52.39065 | 8.60592 | 105° | 77km/h | 16308m | 3.9m/s | -54.1°C | 1.2% | 103.3hPa | 2.6V | 18:12:15 | 01:04:29 | 00:00:00 | |
| DL1XH-west | 2026-09-03 10:35:53 | 52.39070 | 8.60563 | 107° | 73km/h | 16303m | 5.3m/s | -54.1°C | 1.3% | 103.4hPa | 2.8V | 18:12:15 | 01:04:28 | 00:00:00 | |
| DO2JMG | 2026-09-03 10:35:51 | 52.39082 | 8.60508 | 109° | 68km/h | 16293m | 6.1m/s | -54.3°C | 1.3% | 103.6hPa | 2.6V | 18:12:15 | 01:04:26 | 00:00:00 | |
| DD1CC8 | 2026-09-03 10:35:51 | 52.39087 | 8.60482 | 109° | 66km/h | 16288m | 4.6m/s | -54.3°C | 1.7% | 103.7hPa | 2.6V | 00:00:00 | 00:00:00 | 00:00:00 | |
| DL1XH-15 | 2026-09-03 10:35:49 | 52.39128 | 8.60314 | 110° | 78km/h | 16257m | 5.8m/s | -54.4°C | 4.4% | 104.2hPa | 2.6V | 08:30:00 | 01:04:19 | 00:00:00 | |
| GOEST3-10 | 2026-09-03 10:35:48 | 52.39100 | 8.60430 | 114° | 75km/h | 16277m | 4.6m/s | -54.3°C | 4.5% | 103.8hPa | 2.8V | 00:00:00 | 00:00:00 | 00:00:00 | |
| SO1NDE-10 | 2026-09-03 10:35:46 | 52.39114 | 8.60374 | 112° | 80km/h | 16267m | 5.2m/s | 0°C | 0% | 0hPa | 2.8V | 00:00:00 | 01:04:21 | 00:00:00 | |
| DL1NUX | 2026-09-03 10:35:45 | 52.39151 | 8.60198 | 103° | 68km/h | 16237m | 3.5m/s | -54.1°C | 0% | 104.5hPa | 2.8V | 08:30:00 | 01:04:15 | 00:00:00 | |
| DF8AY | 2026-09-03 10:35:44 | 52.39128 | 8.60314 | 111° | 78km/h | 16257m | 5.8m/s | -54.4°C | 1.2% | 104.2hPa | 2.6V | 18:12:15 | 01:04:19 | 00:00:00 | |
| HSKMA3-T | 2026-09-03 10:35:43 | 52.39135 | 8.60284 | 110° | 77km/h | 16252m | 4.2m/s | -54.3°C | 1.2% | 104.2hPa | 2.7V | 18:12:15 | 01:04:18 | 00:00:00 | |
| DL1XH-west | 2026-09-03 10:35:42 | 52.39141 | 8.60255 | 107° | 75km/h | 16247m | 5.6m/s | -54.2°C | 1.2% | 104.3hPa | 2.8V | 18:12:15 | 01:04:17 | 00:00:00 | |
| DO2JMG | 2026-09-03 10:35:41 | 52.39146 | 8.60226 | 105° | 71km/h | 16242m | 5.3m/s | -54.1°C | 1.3% | 104.4hPa | 2.8V | 18:12:15 | 01:04:16 | 00:00:00 | |
| DB0DAN | 2026-09-03 10:35:40 | 52.39151 | 8.60198 | 104° | 64km/h | 16237m | 3.5m/s | -54.2°C | 1.6% | 104.51hPa | 2.8V | 00:00:00 | 00:00:00 | 00:00:00 | |
| DL1XH-15 | 2026-09-03 10:35:39 | 52.39176 | 8.60042 | 107° | 64km/h | 16210m | 5.7m/s | -54.2°C | 4.3% | 104.9hPa | 2.7V | 08:30:00 | 01:04:09 | 00:00:00 | |
| DL4BBY-15 | 2026-09-03 10:35:39 | 52.39155 | 8.60171 | 105° | 69km/h | 16233m | 5.6m/s | -52.9°C | 0% | 0hPa | 2.6V | 00:00:00 | 00:00:00 | 00:00:00 | |
| GOEST3-10 | 2026-09-03 10:35:38 | 52.39159 | 8.60145 | 106° | 66km/h | 16228m | 3.8m/s | -54.1°C | 4.4% | 104.6hPa | 2.6V | 00:00:00 | 00:00:00 | 08:30:00 | |
| DL8DAS-15 | 2026-09-03 10:35:37 | 52.39159 | 8.60145 | 106° | 66km/h | 16228m | 3.9m/s | -54.2°C | 1.7% | 104.6hPa | 2.8V | 00:00:00 | 00:00:00 | 00:00:00 | |
| DO3DL | 2026-09-03 10:35:36 | 52.39163 | 8.60119 | 105° | 66km/h | 16223m | 5.0m/s | -54.1°C | 1.7% | 104.7hPa | 2.8V | 00:00:00 | 00:00:00 | 00:00:00 | |
| DL1XH1-15 | 2026-09-03 10:35:35 | 52.39198 | 8.59937 | 109° | 69km/h | 16190m | 4.9m/s | -54.2°C | 4.3% | 105.3hPa | 2.8V | 08:30:00 | 01:04:05 | 00:00:00 | |
| DM0DOS-11 | 2026-09-03 10:35:34 | 52.39205 | 8.59910 | 110° | 69km/h | 16184m | 5.8m/s | -54.3°C | 4.3% | 105.4hPa | 2.8V | 08:30:00 | 01:04:04 | 00:00:00 | |
| BIOWL1-15 | 2026-09-03 10:35:34 | 52.39176 | 8.60042 | 108° | 64km/h | 16210m | 5.7m/s | -54.2°C | 1.2% | 104.9hPa | 2.7V | 18:12:15 | 01:04:09 | 00:00:00 | |
| HSKMA3-T | 2026-09-03 10:35:33 | 52.39181 | 8.60017 | 110° | 66km/h | 16204m | 4.6m/s | -54.2°C | 1.3% | 105hPa | 2.6V | 18:12:15 | 01:04:08 | 00:00:00 | |
| DL1XH-west | 2026-09-03 10:35:32 | 52.39187 | 8.59991 | 110° | 68km/h | 16200m | 4.8m/s | -54.1°C | 1.3% | 105.2hPa | 2.6V | 18:12:15 | 01:04:07 | 00:00:00 | |
| DO2JMG | 2026-09-03 10:35:31 | 52.39193 | 8.59964 | 109° | 69km/h | 16195m | 5.1m/s | -54.1°C | 1.2% | 105.2hPa | 2.7V | 18:12:15 | 01:04:06 | 00:00:00 | |
| BUE01 | 2026-09-03 10:35:30 | 52.39211 | 8.59883 | 110° | 71km/h | 16179m | 4.4m/s | -54.6°C | 1.7% | 105.5hPa | 2.8V | 00:00:00 | 00:00:00 | 00:00:00 | |
| DL1XH-15 | 2026-09-03 10:35:30 | 52.39235 | 8.59772 | 111° | 68km/h | 16159m | 5.2m/s | -54.7°C | 4.6% | 105.8hPa | 2.8V | 08:30:00 | 01:03:59 | 00:00:00 | |
| GOEST3-10 | 2026-09-03 10:35:29 | 52.39211 | 8.59883 | 111° | 71km/h | 16179m | 4.3m/s | -54.5°C | 4.5% | 105.4hPa | 2.8V | 00:00:00 | 00:00:00 | 00:00:00 | |
| DL8DAS-15 | 2026-09-03 10:35:27 | 52.39211 | 8.59883 | 112° | 71km/h | 16179m | 4.4m/s | -54.6°C | 1.7% | 105.5hPa | 2.8V | 00:00:00 | 00:00:00 | 00:00:00 | |
| DL1LOL-11 | 2026-09-03 10:35:26 | 52.39217 | 8.59855 | 110° | 71km/h | 16174m | 6.2m/s | -54.6°C | 1.8% | 105.6hPa | 2.8V | 00:00:00 | 00:00:00 | 00:00:00 | |
| DL1XH1-15 | 2026-09-03 10:35:25 | 52.39262 | 8.59668 | 113° | 68km/h | 16138m | 6.3m/s | -54.8°C | 4.6% | 106.1hPa | 2.8V | 08:30:00 | 01:03:55 | 00:00:00 | |
| DB0DAN | 2026-09-03 10:35:25 | 52.39229 | 8.59799 | 109° | 68km/h | 16164m | 5.5m/s | -54.8°C | 1.7% | 105.7hPa | 2.6V | 00:00:00 | 00:00:00 | 00:00:00 | |
| DM0DOS-11 | 2026-09-03 10:35:24 | 52.39269 | 8.59642 | 114° | 68km/h | 16132m | 5.3m/s | -54.6°C | 4.6% | 106.2hPa | 2.8V | 08:30:00 | 01:03:54 | 00:00:00 | |
| DF8AY | 2026-09-03 10:35:23 | 52.39241 | 8.59746 | 113° | 68km/h | 16154m | 4.4m/s | -54.7°C | 1.3% | 105.9hPa | 2.8V | 18:12:15 | 01:03:58 | 00:00:00 | |
| HSKMA3-T | 2026-09-03 10:35:22 | 52.39248 | 8.59720 | 114° | 69km/h | 16149m | 5.8m/s | -54.8°C | 1.4% | 106hPa | 2.6V | 18:12:15 | 01:03:57 | 00:00:00 | |
| DL1XH-west | 2026-09-03 10:35:21 | 52.39255 | 8.59694 | 114° | 69km/h | 16144m | 5.1m/s | -54.7°C | 1.4% | 106hPa | 2.6V | 18:12:15 | 01:03:56 | 00:00:00 | |
| DO2JMG | 2026-09-03 10:35:20 | 52.39262 | 8.59668 | 114° | 68km/h | 16138m | 6.3m/s | -54.8°C | 1.4% | 106.1hPa | 2.8V | 18:12:15 | 01:03:55 | 00:00:00 | |
| DD1CC8 | 2026-09-03 10:35:20 | 52.39269 | 8.59642 | 114° | 66km/h | 16132m | 5.3m/s | -54.6°C | 1.7% | 106.2hPa | 2.6V | 00:00:00 | 00:00:00 | 00:00:00 | |
| DL1XH-15 | 2026-09-03 10:35:19 | 52.39309 | 8.59510 | 116° | 73km/h | 16109m | 4.3m/s | -54.5°C | 4.5% | 106.6hPa | 2.6V | 08:30:00 | 01:03:49 | 00:00:00 | |
| DO2SHX-10 | 2026-09-03 10:35:18 | 52.39276 | 8.59616 | 116° | 71km/h | 16128m | 3.6m/s | -54.6°C | 4.6% | 106.3hPa | 2.6V | 00:00:00 | 01:03:53 | 00:00:00 | |
| DC6BW-12 | 2026-09-03 10:35:17 | 52.39276 | 8.59616 | 116° | 69km/h | 16128m | 3.6m/s | -54.7°C | 1.8% | 106.3hPa | 2.6V | 00:00:00 | 00:00:00 | 00:00:00 | |
| DO3DL | 2026-09-03 10:35:16 | 52.39284 | 8.59590 | 117° | 71km/h | 16123m | 5.9m/s | -54.6°C | 1.8% | 106.4hPa | 2.6V | 00:00:00 | 00:00:00 | 00:00:00 | |
| DL1XH1-15 | 2026-09-03 10:35:15 | 52.39340 | 8.59399 | 115° | 73km/h | 16089m | 5.9m/s | -54.4°C | 4.3% | 107hPa | 2.6V | 08:30:00 | 01:03:45 | 00:00:00 | |
| DM0DOS-11 | 2026-09-03 10:35:14 | 52.39349 | 8.59372 | 118° | 73km/h | 16084m | 4.4m/s | -54.4°C | 4.4% | 107.1hPa | 2.6V | 08:30:00 | 01:03:44 | 00:00:00 | |
| DF8AY | 2026-09-03 10:35:12 | 52.39325 | 8.59455 | 114° | 75km/h | 16098m | 4.6m/s | -54.5°C | 1.3% | 106.8hPa | 2.8V | 18:12:15 | 01:03:47 | 00:00:00 | |
| HSKMA3-T | 2026-09-03 10:35:11 | 52.39332 | 8.59427 | 114° | 75km/h | 16094m | 3.9m/s | -54.4°C | 1.2% | 106.9hPa | 2.7V | 18:12:15 | 01:03:46 | 00:00:00 | |
| DL1XH-west | 2026-09-03 10:35:10 | 52.39340 | 8.59399 | 116° | 73km/h | 16089m | 5.9m/s | -54.4°C | 1.2% | 107hPa | 2.6V | 18:12:15 | 01:03:45 | 00:00:00 | |
| DO2JMG | 2026-09-03 10:35:09 | 52.39349 | 8.59372 | 119° | 73km/h | 16084m | 4.4m/s | -54.4°C | 1.3% | 107.1hPa | 2.6V | 18:12:15 | 01:03:44 | 00:00:00 | |
| DL4BBY-15 | 2026-09-03 10:35:09 | 52.39349 | 8.59372 | 119° | 84km/h | 16085m | 4.3m/s | -53.0°C | 0% | 0hPa | 2.7V | 00:00:00 | 00:00:00 | 00:00:00 | |
| GOEST3-10 | 2026-09-03 10:35:08 | 52.39358 | 8.59345 | 120° | 78km/h | 16080m | 4.5m/s | -54.3°C | 4.4% | 107.1hPa | 2.7V | 00:00:00 | 00:00:00 | 00:00:00 | |
| SMARD9-10 | 2026-09-03 10:35:06 | 52.39367 | 8.59317 | 120° | 78km/h | 16075m | 5.5m/s | -54.4°C | 1.7% | 107.2hPa | 2.8V | 00:00:00 | 00:00:00 | 00:00:00 | |
| DL1XH1-15 | 2026-09-03 10:35:05 | 52.39439 | 8.59115 | 118° | 80km/h | 16037m | 5.6m/s | -54.1°C | 4.3% | 107.8hPa | 2.8V | 08:30:00 | 01:03:35 | 00:00:00 | |
| NBG1-10 | 2026-09-03 10:35:05 | 52.39388 | 8.59260 | 122° | 80km/h | 16064m | 6.4m/s | -54.2°C | 4.4% | 107.3hPa | 2.7V | 00:00:00 | 01:03:40 | 00:00:00 | |
| DM0DOS-11 | 2026-09-03 10:35:04 | 52.39449 | 8.59086 | 117° | 80km/h | 16032m | 4.2m/s | -54.2°C | 4.3% | 107.9hPa | 2.7V | 08:30:00 | 01:03:34 | 00:00:00 | |
| DF8AY | 2026-09-03 10:35:02 | 52.39420 | 8.59175 | 119° | 82km/h | 16047m | 4.6m/s | -54.2°C | 1.3% | 107.6hPa | 2.7V | 18:12:15 | 01:03:37 | 00:00:00 | |
| HSKMA3-T | 2026-09-03 10:35:01 | 52.39430 | 8.59145 | 118° | 82km/h | 16043m | 4.3m/s | -54.2°C | 1.3% | 107.7hPa | 2.8V | 18:12:15 | 01:03:36 | 00:00:00 | |
| DL1XH-west | 2026-09-03 10:35:00 | 52.39439 | 8.59115 | 118° | 80km/h | 16037m | 5.6m/s | -54.1°C | 1.2% | 107.8hPa | 2.8V | 18:12:15 | 01:03:35 | 00:00:00 | |
| DO2JMG | 2026-09-03 10:34:59 | 52.39449 | 8.59086 | 118° | 80km/h | 16032m | 4.2m/s | -54.2°C | 1.3% | 107.9hPa | 2.7V | 18:12:15 | 01:03:34 | 00:00:00 | |
| DL8DAS-14 | 2026-09-03 10:34:57 | 52.39468 | 8.59026 | 116° | 82km/h | 16022m | 5.1m/s | -54.3°C | 1.7% | 108.0hPa | 2.7V | 00:00:00 | 00:00:00 | 00:00:00 | |
| D01LWL | 2026-09-03 10:34:56 | 52.39505 | 8.58909 | 117° | 80km/h | 16002m | 6.6m/s | -54.8°C | 1.7% | 108.4hPa | 2.7V | 00:00:00 | 00:00:00 | 00:00:00 | |
| DL1XH1-15 | 2026-09-03 10:34:55 | 52.39536 | 8.58815 | 120° | 89km/h | 15985m | 5.5m/s | -54.9°C | 4.6% | 108.7hPa | 2.7V | 08:30:00 | 01:03:25 | 00:00:00 | |
| DM0DOS-11 | 2026-09-03 10:34:55 | 52.39547 | 8.58783 | 120° | 91km/h | 15980m | 4.2m/s | -54.9°C | 4.6% | 108.8hPa | 2.8V | 08:30:00 | 01:03:24 | 00:00:00 | |
| DB0DAN | 2026-09-03 10:34:55 | 52.39486 | 8.58967 | 117° | 75km/h | 16011m | 5.3m/s | -54.6°C | 1.7% | 108.26hPa | 2.8V | 00:00:00 | 00:00:00 | 00:00:00 | |
| DF8AY | 2026-09-03 10:34:52 | 52.39514 | 8.58878 | 118° | 86km/h | 15996m | 4.8m/s | -54.8°C | 1.4% | 108.5hPa | 2.6V | 18:12:15 | 01:03:27 | 00:00:00 | |
| HSKMA3-T | 2026-09-03 10:34:51 | 52.39525 | 8.58846 | 119° | 88km/h | 15991m | 5.6m/s | -54.9°C | 1.3% | 108.6hPa | 2.6V | 18:12:15 | 01:03:26 | 00:00:00 | |
| BIOWL1-15 | 2026-09-03 10:34:50 | 52.39536 | 8.58815 | 120° | 89km/h | 15985m | 5.5m/s | -54.9°C | 1.4% | 108.7hPa | 2.7V | 18:12:15 | 01:03:25 | 00:00:00 | |
| DL1XH-west | 2026-09-03 10:34:49 | 52.39547 | 8.58783 | 120° | 91km/h | 15980m | 4.2m/s | -54.9°C | 1.4% | 108.8hPa | 2.8V | 18:12:15 | 01:03:24 | 00:00:00 | |
| DO2JMG | 2026-09-03 10:34:48 | 52.39559 | 8.58749 | 119° | 95km/h | 15975m | 6.1m/s | -54.9°C | 1.4% | 108.9hPa | 2.8V | 18:12:15 | 01:03:23 | 00:00:00 | |
| GOEST3-10 | 2026-09-03 10:34:48 | 52.39559 | 8.58749 | 120° | 93km/h | 15975m | 6.1m/s | -54.8°C | 4.6% | 108.9hPa | 2.6V | 00:00:00 | 00:00:00 | 00:00:00 | |
| DB0NH | 2026-09-03 10:34:47 | 52.39571 | 8.58715 | 118° | 91km/h | 15970m | 4.5m/s | -54.8°C | 4.6% | 108.9hPa | 2.6V | 00:00:00 | 01:03:22 | 00:00:00 | |
| DL1XH1-15 | 2026-09-03 10:34:45 | 52.39640 | 8.58483 | 115° | 86km/h | 15933m | 5m/s | -54.6°C | 4.6% | 109.7hPa | 2.6V | 08:30:00 | 01:03:15 | 00:00:00 | |
| DL4XJ-10 | 2026-09-03 10:34:45 | 52.39592 | 8.58647 | 117° | 88km/h | 15960m | 5.2m/s | -53.4°C | 0% | 0hPa | 2.6V | 00:00:00 | 00:00:00 | 00:00:00 | |
| DM0DOS-11 | 2026-09-03 10:34:44 | 52.39650 | 8.58451 | 115° | 88km/h | 15927m | 6.2m/s | -54.6°C | 4.6% | 109.7hPa | 2.6V | 08:30:00 | 01:03:14 | 00:00:00 | |
| DF8AY | 2026-09-03 10:34:41 | 52.39631 | 8.58515 | 116° | 86km/h | 15938m | 5.8m/s | -54.7°C | 1.4% | 109.6hPa | 2.8V | 18:12:15 | 01:03:16 | 00:00:00 | |
| BIOWL1-15 | 2026-09-03 10:34:40 | 52.39640 | 8.58483 | 115° | 86km/h | 15933m | 5m/s | -54.6°C | 1.4% | 109.7hPa | 2.6V | 18:12:15 | 01:03:15 | 00:00:00 | |
| DL1XH-west | 2026-09-03 10:34:39 | 52.39649 | 8.58451 | 116° | 88km/h | 15927m | 6.2m/s | -54.6°C | 1.4% | 109.7hPa | 2.6V | 18:12:15 | 01:03:14 | 00:00:00 | |
| DO2JMG | 2026-09-03 10:34:38 | 52.39659 | 8.58418 | 114° | 89km/h | 15922m | 4.2m/s | -54.5°C | 1.3% | 109.8hPa | 2.7V | 18:12:15 | 01:03:13 | 00:00:00 | |
| GOEST3-10 | 2026-09-03 10:34:38 | 52.39659 | 8.58418 | 115° | 88km/h | 15922m | 4.1m/s | -54.5°C | 4.5% | 109.8hPa | 2.7V | 00:00:00 | 00:00:00 | 00:00:00 | |
| EDDB2-12 | 2026-09-03 10:34:36 | 52.39685 | 8.58316 | 111° | 86km/h | 15908m | 5.0m/s | -54.5°C | 1.7% | 110.1hPa | 2.7V | 00:00:00 | 00:00:00 | 00:00:00 | |
| DL1XH1-15 | 2026-09-03 10:34:35 | 52.39729 | 8.58154 | 116° | 84km/h | 15882m | 5.7m/s | -54.5°C | 4.5% | 110.5hPa | 2.7V | 08:30:00 | 01:03:05 | 00:00:00 | |
| DM0DOS-11 | 2026-09-03 10:34:34 | 52.39738 | 8.58122 | 115° | 86km/h | 15877m | 4.2m/s | -54.5°C | 4.5% | 110.6hPa | 2.8V | 08:30:00 | 01:03:04 | 00:00:00 | |
| DF8AY | 2026-09-03 10:34:31 | 52.39719 | 8.58185 | 116° | 86km/h | 15888m | 5.3m/s | -54.5°C | 1.3% | 110.4hPa | 2.6V | 18:12:15 | 01:03:06 | 00:00:00 | |
| BIOWL1-15 | 2026-09-03 10:34:30 | 52.39729 | 8.58154 | 116° | 84km/h | 15882m | 5.7m/s | -54.5°C | 1.3% | 110.5hPa | 2.7V | 18:12:15 | 01:03:05 | 00:00:00 | |
| HSKMA3-T | 2026-09-03 10:34:29 | 52.39738 | 8.58122 | 116° | 86km/h | 15877m | 4.2m/s | -54.5°C | 1.4% | 110.6hPa | 2.8V | 18:12:15 | 01:03:04 | 00:00:00 | |
| DO2JMG | 2026-09-03 10:34:28 | 52.39747 | 8.58090 | 116° | 88km/h | 15872m | 6.2m/s | -54.4°C | 1.4% | 110.7hPa | 2.8V | 18:12:15 | 01:03:03 | 00:00:00 | |
| AA1-15 | 2026-09-03 10:34:27 | 52.39757 | 8.58058 | 114° | 88km/h | 15867m | 4.1m/s | -54.4°C | 1.3% | 110.8hPa | 2.6V | 18:12:15 | 01:03:02 | 00:00:00 | |
| D01LWL | 2026-09-03 10:34:26 | 52.39774 | 8.57992 | 111° | 84km/h | 15857m | 6.0m/s | -54.4°C | 1.7% | 110.9hPa | 2.6V | 00:00:00 | 00:00:00 | 00:00:00 | |
| DL1XH1-15 | 2026-09-03 10:34:25 | 52.39810 | 8.57831 | 109° | 78km/h | 15829m | 4.7m/s | -54.1°C | 4.4% | 111.4hPa | 2.8V | 08:30:00 | 01:02:55 | 00:00:00 | |
| DL4XJ-10 | 2026-09-03 10:34:25 | 52.39774 | 8.57992 | 112° | 78km/h | 15857m | 6.0m/s | -53.0°C | 0% | 0hPa | 2.6V | 00:00:00 | 00:00:00 | 00:00:00 | |
| DB0DAN | 2026-09-03 10:34:25 | 52.39774 | 8.57992 | 112° | 80km/h | 15857m | 6m/s | -54.4°C | 1.7% | 110.92hPa | 2.8V | 00:00:00 | 00:00:00 | 00:00:00 | |
| DM0DOS-11 | 2026-09-03 10:34:24 | 52.39817 | 8.57800 | 110° | 80km/h | 15824m | 5.6m/s | -54.2°C | 4.4% | 111.4hPa | 2.6V | 08:30:00 | 01:02:54 | 00:00:00 | |
| BIOWL1-15 | 2026-09-03 10:34:22 | 52.39810 | 8.57831 | 109° | 78km/h | 15829m | 4.7m/s | -54.2°C | 1.3% | 111.4hPa | 2.8V | 18:12:15 | 01:02:55 | 00:00:00 | |
| DL8DAS-15 | 2026-09-03 10:34:21 | 52.39796 | 8.57894 | 111° | 84km/h | 15841m | 4.9m/s | -54.3°C | 1.7% | 111.3hPa | 2.8V | 00:00:00 | 00:00:00 | 00:00:00 | |
| DL1XH-15 | 2026-09-03 10:34:20 | 52.39854 | 8.57652 | 111° | 78km/h | 15797m | 5.8m/s | -54.2°C | 4.4% | 112hPa | 2.8V | 08:30:00 | 01:02:49 | 00:00:00 | |
| DF8AY | 2026-09-03 10:34:19 | 52.39817 | 8.57800 | 111° | 80km/h | 15824m | 5.6m/s | -54.2°C | 1.3% | 111.5hPa | 2.6V | 18:12:15 | 01:02:54 | 00:00:00 | |
| HSKMA3-T | 2026-09-03 10:34:18 | 52.39824 | 8.57769 | 112° | 80km/h | 15819m | 4.4m/s | -54.1°C | 1.3% | 111.6hPa | 2.6V | 18:12:15 | 01:02:53 | 00:00:00 | |
| DL1XH-west | 2026-09-03 10:34:17 | 52.39832 | 8.57739 | 113° | 77km/h | 15815m | 4.9m/s | -54.1°C | 1.2% | 111.7hPa | 2.7V | 18:12:15 | 01:02:52 | 00:00:00 | |
| AA1-15 | 2026-09-03 10:34:16 | 52.39839 | 8.57710 | 113° | 75km/h | 15809m | 5.7m/s | -54.2°C | 1.2% | 111.8hPa | 2.8V | 18:12:15 | 01:02:51 | 00:00:00 | |
| DB0NH | 2026-09-03 10:34:16 | 52.39839 | 8.57710 | 113° | 75km/h | 15810m | 5.7m/s | -54.1°C | 4.3% | 111.7hPa | 2.8V | 00:00:00 | 01:02:51 | 00:00:00 | |
| DL1XH1-15 | 2026-09-03 10:34:15 | 52.39879 | 8.57531 | 108° | 78km/h | 15777m | 4.6m/s | -54.1°C | 4.4% | 112.3hPa | 2.8V | 08:30:00 | 01:02:45 | 00:00:00 | |
| DM0DOS-11 | 2026-09-03 10:34:14 | 52.39886 | 8.57500 | 108° | 78km/h | 15772m | 5.6m/s | -54.1°C | 4.4% | 112.4hPa | 2.8V | 08:30:00 | 01:02:44 | 00:00:00 | |
| BIOWL1-15 | 2026-09-03 10:34:11 | 52.39886 | 8.57500 | 109° | 78km/h | 15772m | 5.6m/s | -54.2°C | 1.3% | 112.4hPa | 2.8V | 18:12:15 | 01:02:44 | 00:00:00 | |
| DB0DAN | 2026-09-03 10:34:10 | 52.39879 | 8.57531 | 108° | 75km/h | 15777m | 4.6m/s | -54.1°C | 1.7% | 112.33hPa | 2.8V | 00:00:00 | 00:00:00 | 00:00:00 | |
| HSKMA3-T | 2026-09-03 10:34:08 | 52.39892 | 8.57469 | 109° | 80km/h | 15767m | 4.2m/s | -54.2°C | 1.4% | 112.5hPa | 2.8V | 18:12:15 | 01:02:43 | 00:00:00 | |
| DL1XH-west | 2026-09-03 10:34:07 | 52.39899 | 8.57438 | 109° | 78km/h | 15762m | 5.3m/s | -54.2°C | 1.4% | 112.6hPa | 2.6V | 18:12:15 | 01:02:42 | 00:00:00 | |
| DO2JMG | 2026-09-03 10:34:06 | 52.39905 | 8.57408 | 109° | 77km/h | 15757m | 5.3m/s | -54.1°C | 1.4% | 112.7hPa | 2.7V | 18:12:15 | 01:02:41 | 00:00:00 | |
| DF8AY | 2026-09-03 10:34:05 | 52.39912 | 8.57379 | 110° | 75km/h | 15752m | 4.6m/s | -54.2°C | 1.4% | 112.8hPa | 2.7V | 18:12:15 | 01:02:40 | 00:00:00 | |
| EDDB2-12 | 2026-09-03 10:34:05 | 52.39918 | 8.57349 | 110° | 75km/h | 15747m | 5.7m/s | -54.2°C | 1.8% | 112.9hPa | 2.7V | 00:00:00 | 00:00:00 | 00:00:00 | |
| DM0DOS-11 | 2026-09-03 10:34:04 | 52.39948 | 8.57198 | 106° | 78km/h | 15721m | 6.2m/s | -54.4°C | 4.5% | 113.3hPa | 2.7V | 08:30:00 | 01:02:34 | 00:00:00 | |
| DF5WG-10 | 2026-09-03 10:34:04 | 52.39918 | 8.57349 | 111° | 77km/h | 15747m | 5.7m/s | -54.2°C | 4.5% | 112.8hPa | 2.7V | 00:00:00 | 01:02:39 | 00:00:00 | |
| SMARD9-15 | 2026-09-03 10:34:03 | 52.39931 | 8.57289 | 107° | 75km/h | 15736m | 6.5m/s | -54.3°C | 1.8% | 113.0hPa | 2.7V | 00:00:00 | 00:00:00 | 00:00:00 | |
| AU51GT2 | 2026-09-03 10:34:01 | 52.39942 | 8.57229 | 105° | 77km/h | 15726m | 4.2m/s | -54.4°C | 1.8% | 113.2hPa | 2.7V | 00:00:00 | 00:00:00 | 00:00:00 | |
| DL1XH-15 | 2026-09-03 10:34:00 | 52.39977 | 8.57048 | 109° | 77km/h | 15694m | 5.5m/s | -54.4°C | 4.5% | 113.8hPa | 2.7V | 08:30:00 | 01:02:29 | 00:00:00 | |
| BIOWL1-15 | 2026-09-03 10:33:59 | 52.39947 | 8.57198 | 107° | 78km/h | 15721m | 6.2m/s | -54.4°C | 1.3% | 113.3hPa | 2.7V | 18:12:15 | 01:02:34 | 00:00:00 | |
| DL1XH-west | 2026-09-03 10:33:58 | 52.39959 | 8.57136 | 108° | 77km/h | 15710m | 5.7m/s | -54.4°C | 1.4% | 113.5hPa | 2.8V | 18:12:15 | 01:02:32 | 00:00:00 | |
| DO2JMG | 2026-09-03 10:33:57 | 52.39965 | 8.57106 | 107° | 75km/h | 15705m | 5.1m/s | -54.4°C | 1.4% | 113.6hPa | 2.8V | 18:12:15 | 01:02:31 | 00:00:00 | |
| DL1XH1-15 | 2026-09-03 10:33:55 | 52.40000 | 8.56932 | 105° | 69km/h | 15674m | 5.2m/s | -54.2°C | 4.5% | 114.1hPa | 2.8V | 08:30:00 | 01:02:25 | 00:00:00 | |
| DF8AY | 2026-09-03 10:33:55 | 52.39971 | 8.57077 | 108° | 75km/h | 15700m | 5.1m/s | -54.3°C | 1.3% | 113.7hPa | 2.6V | 18:12:15 | 01:02:30 | 00:00:00 | |
| DL8DAS-14 | 2026-09-03 10:33:55 | 52.39977 | 8.57048 | 109° | 75km/h | 15694m | 5.5m/s | -54.4°C | 1.8% | 113.8hPa | 2.8V | 00:00:00 | 00:00:00 | 00:00:00 | |
| D01LWL | 2026-09-03 10:33:54 | 52.39977 | 8.57048 | 109° | 75km/h | 15694m | 5.5m/s | -54.4°C | 1.8% | 113.8hPa | 2.8V | 00:00:00 | 00:00:00 | 00:00:00 | |
| HTAHTA | 2026-09-03 10:33:51 | 52.40000 | 8.56932 | 105° | 69km/h | 15674m | 5.2m/s | -54.2°C | 1.8% | 114.1hPa | 2.8V | 00:00:00 | 00:00:00 | 00:00:00 | |
| DD1CC3-15 | 2026-09-03 10:33:50 | 52.39995 | 8.56960 | 107° | 71km/h | 15680m | 5.5m/s | -54.3°C | 1.8% | 114.0hPa | 2.8V | 00:00:00 | 00:00:00 | 00:00:00 | |
| BIOWL1-15 | 2026-09-03 10:33:50 | 52.40009 | 8.56876 | 106° | 69km/h | 15663m | 4.3m/s | -54.1°C | 1.4% | 114.3hPa | 2.7V | 18:12:15 | 01:02:23 | 00:00:00 | |
| DL1XH-15 | 2026-09-03 10:33:49 | 52.40026 | 8.56769 | 104° | 66km/h | 15644m | 4.6m/s | -54°C | 4.5% | 114.7hPa | 2.8V | 08:30:00 | 01:02:19 | 00:00:00 | |
| DF8AY | 2026-09-03 10:33:49 | 52.40027 | 8.56769 | 105° | 66km/h | 15644m | 4.6m/s | -54.1°C | 1.4% | 114.7hPa | 2.8V | 18:12:15 | 01:02:19 | 00:00:00 | |
| DL1XH-west | 2026-09-03 10:33:47 | 52.40014 | 8.56848 | 105° | 69km/h | 15658m | 4.4m/s | -54.1°C | 1.4% | 114.4hPa | 2.7V | 18:12:15 | 01:02:22 | 00:00:00 | |
| DO2JMG | 2026-09-03 10:33:46 | 52.40018 | 8.56821 | 104° | 66km/h | 15653m | 6m/s | -54.1°C | 1.4% | 114.5hPa | 2.8V | 18:12:15 | 01:02:21 | 00:00:00 | |
| DL1XH1-15 | 2026-09-03 10:33:45 | 52.40046 | 8.56660 | 106° | 66km/h | 15624m | 5.8m/s | -54.3°C | 4.6% | 115hPa | 2.8V | 08:30:00 | 01:02:15 | 00:00:00 | |
| DB0NH | 2026-09-03 10:33:45 | 52.40022 | 8.56795 | 105° | 64km/h | 15649m | 3.7m/s | -54.0°C | 4.5% | 114.6hPa | 2.7V | 00:00:00 | 01:02:20 | 00:00:00 | |
| DM0DOS-11 | 2026-09-03 10:33:44 | 52.40050 | 8.56633 | 105° | 66km/h | 15619m | 4.6m/s | -54.3°C | 4.6% | 115.2hPa | 2.8V | 08:30:00 | 01:02:14 | 00:00:00 | |
| DF5WG-10 | 2026-09-03 10:33:44 | 52.40027 | 8.56769 | 105° | 66km/h | 15644m | 4.6m/s | -54.0°C | 4.5% | 114.6hPa | 2.6V | 00:00:00 | 01:02:19 | 00:00:00 | |
| DO2SHX-10 | 2026-09-03 10:33:43 | 52.40031 | 8.56742 | 106° | 68km/h | 15639m | 5.7m/s | -54.1°C | 4.6% | 114.7hPa | 2.6V | 00:00:00 | 01:02:18 | 00:00:00 | |
| DO9LL-15 | 2026-09-03 10:33:42 | 52.40036 | 8.56714 | 107° | 62km/h | 15634m | 3.9m/s | -54.1°C | 4.6% | 114.8hPa | 2.6V | 00:00:00 | 01:02:17 | 08:30:00 | |
| DB0DAN | 2026-09-03 10:33:40 | 52.40046 | 8.56660 | 106° | 64km/h | 15624m | 5.8m/s | -54.3°C | 1.8% | 115.02hPa | 2.8V | 00:00:00 | 00:00:00 | 00:00:00 | |
| DL1XH-15 | 2026-09-03 10:33:39 | 52.40071 | 8.56504 | 104° | 64km/h | 15592m | 4.8m/s | -54.2°C | 4.5% | 115.6hPa | 2.8V | 08:30:00 | 01:02:09 | 00:00:00 | |
| HSKMA3-T | 2026-09-03 10:33:37 | 52.40059 | 8.56581 | 104° | 68km/h | 15608m | 4.7m/s | -54.3°C | 1.5% | 115.3hPa | 2.6V | 18:12:15 | 01:02:12 | 00:00:00 | |
| DL1XH-west | 2026-09-03 10:33:36 | 52.40063 | 8.56555 | 105° | 64km/h | 15603m | 5.3m/s | -54.3°C | 1.5% | 115.4hPa | 2.7V | 18:12:15 | 01:02:11 | 00:00:00 | |
| DO2JMG | 2026-09-03 10:33:35 | 52.40067 | 8.56529 | 105° | 62km/h | 15597m | 5.6m/s | -54.3°C | 1.4% | 115.5hPa | 2.7V | 18:12:15 | 01:02:10 | 00:00:00 | |
| DM0DOS-11 | 2026-09-03 10:33:34 | 52.40092 | 8.56375 | 105° | 66km/h | 15566m | 5.7m/s | -54°C | 4.5% | 116.1hPa | 2.7V | 08:30:00 | 01:02:04 | 00:00:00 | |
| DF8AY | 2026-09-03 10:33:33 | 52.40075 | 8.56478 | 104° | 66km/h | 15587m | 5.4m/s | -54.2°C | 1.4% | 115.7hPa | 2.8V | 18:12:15 | 01:02:08 | 00:00:00 | |
| DO2SHX-10 | 2026-09-03 10:33:33 | 52.40075 | 8.56478 | 105° | 64km/h | 15587m | 5.3m/s | -54.1°C | 4.5% | 115.6hPa | 2.7V | 00:00:00 | 01:02:08 | 00:00:00 | |
| DO2KSM | 2026-09-03 10:33:32 | 52.40075 | 8.56478 | 105° | 66km/h | 15587m | 5.4m/s | -54.2°C | 1.8% | 115.7hPa | 2.7V | 00:00:00 | 00:00:00 | 00:00:00 | |
| DO3DL | 2026-09-03 10:33:31 | 52.40079 | 8.56452 | 105° | 66km/h | 15582m | 4.4m/s | -54.2°C | 1.8% | 115.8hPa | 2.7V | 00:00:00 | 00:00:00 | 00:00:00 | |
| DK5PH-5 | 2026-09-03 10:33:30 | 52.40087 | 8.56400 | 106° | 58km/h | 15571m | 4.9m/s | -54.0°C | 4.5% | 115.9hPa | 2.7V | 00:00:00 | 01:02:05 | 00:00:00 | |
| DL1XH-15 | 2026-09-03 10:33:29 | 52.40111 | 8.56250 | 102° | 60km/h | 15539m | 6m/s | -53.8°C | 4.5% | 116.6hPa | 2.7V | 08:30:00 | 01:01:59 | 00:00:00 | |
| HSKMA3-T | 2026-09-03 10:33:26 | 52.40104 | 8.56298 | 104° | 60km/h | 15550m | 5.5m/s | -53.9°C | 1.4% | 116.4hPa | 2.8V | 18:12:15 | 01:02:01 | 00:00:00 | |
| DO2JMG | 2026-09-03 10:33:25 | 52.40108 | 8.56274 | 103° | 60km/h | 15545m | 5m/s | -53.9°C | 1.3% | 116.5hPa | 2.7V | 18:12:15 | 01:02:00 | 00:00:00 | |
| DF8AY | 2026-09-03 10:33:24 | 52.40117 | 8.56203 | 101° | 57km/h | 15528m | 6.8m/s | -53.8°C | 1.4% | 116.8hPa | 2.8V | 18:12:15 | 01:01:57 | 00:00:00 | |
| BIOWL1-15 | 2026-09-03 10:33:20 | 52.40134 | 8.56062 | 100° | 60km/h | 15495m | 6.3m/s | -54.1°C | 1.5% | 117.3hPa | 2.8V | 18:12:15 | 01:01:51 | 00:00:00 | |
| HTAHTA | 2026-09-03 10:33:20 | 52.40126 | 8.56134 | 101° | 58km/h | 15512m | 5.2m/s | -53.8°C | 1.8% | 117.0hPa | 2.8V | 00:00:00 | 00:00:00 | 00:00:00 | |
| DL1XH-15 | 2026-09-03 10:33:19 | 52.40139 | 8.56011 | 97° | 60km/h | 15484m | 4.7m/s | -54°C | 4.6% | 117.5hPa | 2.8V | 08:30:00 | 01:01:49 | 00:00:00 | |
| HSKMA3-T | 2026-09-03 10:33:15 | 52.40137 | 8.56037 | 99° | 62km/h | 15489m | 4.6m/s | -54°C | 1.5% | 117.5hPa | 2.8V | 18:12:15 | 01:01:50 | 00:00:00 | |
| DL1XH-west | 2026-09-03 10:33:14 | 52.40139 | 8.56011 | 98° | 60km/h | 15484m | 4.7m/s | -54°C | 1.5% | 117.5hPa | 2.8V | 18:12:15 | 01:01:49 | 00:00:00 | |
| DF8AY | 2026-09-03 10:33:12 | 52.40143 | 8.55963 | 98° | 58km/h | 15474m | 4.4m/s | -54°C | 1.5% | 117.7hPa | 2.7V | 18:12:15 | 01:01:47 | 00:00:00 | |
| DO3DL | 2026-09-03 10:33:12 | 52.40143 | 8.55963 | 99° | 58km/h | 15474m | 4.4m/s | -54.0°C | 1.8% | 117.7hPa | 2.8V | 00:00:00 | 00:00:00 | 00:00:00 | |
| DB0DAN | 2026-09-03 10:33:10 | 52.40148 | 8.55916 | 100° | 53km/h | 15464m | 4.7m/s | -54°C | 1.8% | 117.92hPa | 2.8V | 00:00:00 | 00:00:00 | 00:00:00 | |
| DL1XH-15 | 2026-09-03 10:33:09 | 52.40162 | 8.55784 | 97° | 55km/h | 15432m | 5m/s | -53.8°C | 4.5% | 118.5hPa | 2.8V | 08:30:00 | 01:01:39 | 00:00:00 | |
| HSKMA3-T | 2026-09-03 10:33:05 | 52.40160 | 8.55806 | 99° | 55km/h | 15438m | 6.1m/s | -53.9°C | 1.5% | 118.4hPa | 2.7V | 18:12:15 | 01:01:40 | 00:00:00 | |
| DO2JMG | 2026-09-03 10:33:04 | 52.40162 | 8.55784 | 97° | 55km/h | 15432m | 5m/s | -53.8°C | 1.5% | 118.5hPa | 2.8V | 18:12:15 | 01:01:39 | 00:00:00 | |
| DL1XH-west | 2026-09-03 10:33:03 | 52.40164 | 8.55761 | 96° | 58km/h | 15427m | 6.1m/s | -53.8°C | 1.5% | 118.6hPa | 2.8V | 18:12:15 | 01:01:38 | 00:00:00 | |
| DF8AY | 2026-09-03 10:33:01 | 52.40167 | 8.55711 | 96° | 62km/h | 15417m | 4.1m/s | -53.6°C | 1.5% | 118.8hPa | 2.7V | 18:12:15 | 01:01:36 | 00:00:00 | |
| SMARD9-15 | 2026-09-03 10:33:01 | 52.40169 | 8.55686 | 95° | 58km/h | 15412m | 6.2m/s | -53.6°C | 1.8% | 118.9hPa | 2.7V | 00:00:00 | 00:00:00 | 00:00:00 | |
| DK5PH-5 | 2026-09-03 10:33:00 | 52.40169 | 8.55686 | 96° | 60km/h | 15412m | 6.2m/s | -53.6°C | 4.5% | 118.8hPa | 2.7V | 00:00:00 | 01:01:35 | 00:00:00 | |
| DM0DOS-11 | 2026-09-03 10:32:59 | 52.40185 | 8.55540 | 103° | 57km/h | 15381m | 4.8m/s | -53.4°C | 4.4% | 119.5hPa | 2.7V | 08:30:00 | 01:01:29 | 00:00:00 | |
| AU51GT2 | 2026-09-03 10:32:59 | 52.40173 | 8.55637 | 99° | 58km/h | 15402m | 4.3m/s | -53.5°C | 1.8% | 119.2hPa | 2.8V | 00:00:00 | 00:00:00 | 00:00:00 | |
| GOEST3-10 | 2026-09-03 10:32:58 | 52.40173 | 8.55637 | 100° | 60km/h | 15402m | 4.3m/s | -53.5°C | 4.4% | 119.1hPa | 2.8V | 00:00:00 | 00:00:00 | 00:00:00 | |
| DL3OBA | 2026-09-03 10:32:57 | 52.40173 | 8.55637 | 101° | 60km/h | 15402m | 4.3m/s | -53.5°C | 1.8% | 119.2hPa | 2.8V | 00:00:00 | 00:00:00 | 00:00:00 | |
| DL1XH1-15 | 2026-09-03 10:32:56 | 52.40197 | 8.55445 | 100° | 58km/h | 15360m | 5.9m/s | -53.4°C | 4.4% | 119.9hPa | 2.8V | 08:30:00 | 01:01:25 | 00:00:00 | |
| HSKMA3-T | 2026-09-03 10:32:56 | 52.40181 | 8.55563 | 102° | 60km/h | 15386m | 6.3m/s | -53.4°C | 1.4% | 119.4hPa | 2.7V | 18:12:15 | 01:01:30 | 00:00:00 | |
| BIOWL1-15 | 2026-09-03 10:32:55 | 52.40185 | 8.55540 | 104° | 57km/h | 15381m | 4.8m/s | -53.4°C | 1.4% | 119.5hPa | 2.7V | 18:12:15 | 01:01:29 | 00:00:00 | |
| DB0DAN | 2026-09-03 10:32:55 | 52.40181 | 8.55563 | 102° | 57km/h | 15386m | 6.3m/s | -53.4°C | 1.8% | 119.36hPa | 2.7V | 00:00:00 | 00:00:00 | 00:00:00 | |
| DO2JMG | 2026-09-03 10:32:53 | 52.40188 | 8.55517 | 104° | 58km/h | 15375m | 5.5m/s | -53.4°C | 1.4% | 119.5hPa | 2.7V | 18:12:15 | 01:01:28 | 00:00:00 | |
| DL1XH-west | 2026-09-03 10:32:52 | 52.40192 | 8.55493 | 103° | 60km/h | 15370m | 5m/s | -53.3°C | 1.4% | 119.7hPa | 2.8V | 18:12:15 | 01:01:27 | 00:00:00 | |
| DF8AY | 2026-09-03 10:32:51 | 52.40195 | 8.55469 | 101° | 58km/h | 15365m | 4.8m/s | -53.4°C | 1.4% | 119.8hPa | 2.8V | 18:12:15 | 01:01:26 | 00:00:00 | |
| DB0ND-19 | 2026-09-03 10:32:50 | 52.40197 | 8.55446 | 100° | 57km/h | 15360m | 5.9m/s | -53.4°C | 1.8% | 119.9hPa | 2.8V | 00:00:00 | 00:00:00 | 00:00:00 | |
| DL1XH-15 | 2026-09-03 10:32:49 | 52.40216 | 8.55300 | 107° | 58km/h | 15330m | 4.2m/s | -53.3°C | 4.4% | 120.4hPa | 2.8V | 08:30:00 | 01:01:19 | 00:00:00 | |
| HTAHTA | 2026-09-03 10:32:49 | 52.40206 | 8.55373 | 101° | 62km/h | 15345m | 4.7m/s | -53.4°C | 1.8% | 120.2hPa | 2.8V | 00:00:00 | 00:00:00 | 00:00:00 | |
| EDDB2-11 | 2026-09-03 10:32:46 | 52.40212 | 8.55323 | 104° | 58km/h | 15334m | 4.9m/s | -53.3°C | 1.8% | 120.3hPa | 2.8V | 00:00:00 | 00:00:00 | 00:00:00 | |
| DL1XH1-15 | 2026-09-03 10:32:45 | 52.40235 | 8.55204 | 106° | 60km/h | 15310m | 5.2m/s | -53.4°C | 4.4% | 120.8hPa | 2.8V | 08:30:00 | 01:01:15 | 00:00:00 | |
| HSKMA3-T | 2026-09-03 10:32:44 | 52.40217 | 8.55300 | 107° | 60km/h | 15330m | 4.3m/s | -53.3°C | 1.5% | 120.4hPa | 2.8V | 18:12:15 | 01:01:19 | 00:00:00 | |
| AA1-15 | 2026-09-03 10:32:43 | 52.40221 | 8.55276 | 109° | 60km/h | 15325m | 5.7m/s | -53.3°C | 1.4% | 120.5hPa | 2.7V | 18:12:15 | 01:01:18 | 00:00:00 | |
| DL1XH-west | 2026-09-03 10:32:42 | 52.40226 | 8.55252 | 108° | 62km/h | 15320m | 4.9m/s | -53.4°C | 1.4% | 120.7hPa | 2.7V | 18:12:15 | 01:01:17 | 00:00:00 | |
| DF8AY | 2026-09-03 10:32:41 | 52.40231 | 8.55228 | 107° | 60km/h | 15315m | 4.7m/s | -53.4°C | 1.4% | 120.7hPa | 2.7V | 18:12:15 | 01:01:16 | 00:00:00 | |
| DB0DAN | 2026-09-03 10:32:40 | 52.40235 | 8.55204 | 106° | 57km/h | 15310m | 5.2m/s | -53.4°C | 1.8% | 120.79hPa | 2.8V | 00:00:00 | 00:00:00 | 00:00:00 | |
| DM0DOS-11 | 2026-09-03 10:32:39 | 52.40262 | 8.55061 | 105° | 64km/h | 15279m | 5m/s | -53.5°C | 4.4% | 121.4hPa | 2.8V | 08:30:00 | 01:01:09 | 00:00:00 | |
| DL4BBY-15 | 2026-09-03 10:32:39 | 52.40239 | 8.55180 | 107° | 66km/h | 15305m | 4.6m/s | -52.1°C | 0% | 0hPa | 2.7V | 00:00:00 | 00:00:00 | 00:00:00 | |
| GOEST3-10 | 2026-09-03 10:32:38 | 52.40243 | 8.55157 | 108° | 60km/h | 15300m | 5.9m/s | -53.5°C | 4.3% | 120.9hPa | 2.7V | 00:00:00 | 00:00:00 | 08:30:00 | |
| DL3OBA | 2026-09-03 10:32:37 | 52.40243 | 8.55157 | 108° | 60km/h | 15300m | 6.0m/s | -53.5°C | 1.8% | 121.0hPa | 2.7V | 00:00:00 | 00:00:00 | 00:00:00 | |
| DL1XH1-15 | 2026-09-03 10:32:35 | 52.40278 | 8.54954 | 102° | 68km/h | 15258m | 4.7m/s | -53.5°C | 4.5% | 121.8hPa | 2.7V | 08:30:00 | 01:01:05 | 00:00:00 | |
| HSKMA3-T | 2026-09-03 10:32:33 | 52.40266 | 8.55035 | 105° | 68km/h | 15274m | 5m/s | -53.5°C | 1.5% | 121.5hPa | 2.8V | 18:12:15 | 01:01:08 | 00:00:00 | |
| DL1XH-west | 2026-09-03 10:32:32 | 52.40271 | 8.55008 | 105° | 68km/h | 15268m | 5.7m/s | -53.4°C | 1.5% | 121.6hPa | 2.8V | 18:12:15 | 01:01:07 | 00:00:00 | |
| DF8AY | 2026-09-03 10:32:31 | 52.40275 | 8.54981 | 103° | 66km/h | 15263m | 5.3m/s | -53.5°C | 1.5% | 121.7hPa | 2.7V | 18:12:15 | 01:01:06 | 00:00:00 | |
| DK5PH-5 | 2026-09-03 10:32:30 | 52.40278 | 8.54954 | 103° | 69km/h | 15258m | 4.6m/s | -53.4°C | 4.5% | 121.8hPa | 2.7V | 00:00:00 | 01:01:05 | 00:00:00 | |
| DM0DOS-11 | 2026-09-03 10:32:29 | 52.40297 | 8.54797 | 100° | 58km/h | 15228m | 5.1m/s | -53.6°C | 4.5% | 122.4hPa | 2.7V | 08:30:00 | 01:00:59 | 00:00:00 | |
| AU51GT2 | 2026-09-03 10:32:28 | 52.40289 | 8.54871 | 100° | 64km/h | 15243m | 4.8m/s | -53.6°C | 1.9% | 122.1hPa | 2.8V | 00:00:00 | 00:00:00 | 00:00:00 | |
| DL1XH1-15 | 2026-09-03 10:32:25 | 52.40313 | 8.54693 | 108° | 69km/h | 15205m | 7.1m/s | -53.5°C | 4.4% | 122.8hPa | 2.8V | 08:30:00 | 01:00:55 | 00:00:00 | |
| DB0DAN | 2026-09-03 10:32:25 | 52.40294 | 8.54821 | 100° | 57km/h | 15233m | 4m/s | -53.6°C | 1.8% | 122.3hPa | 2.7V | 00:00:00 | 00:00:00 | 00:00:00 | |
| BIOWL1-15 | 2026-09-03 10:32:23 | 52.40303 | 8.54747 | 104° | 66km/h | 15217m | 6.3m/s | -53.6°C | 1.4% | 122.7hPa | 2.8V | 18:12:15 | 01:00:57 | 00:00:00 | |
| DL1XH-west | 2026-09-03 10:32:22 | 52.40308 | 8.54720 | 107° | 69km/h | 15211m | 5.1m/s | -53.5°C | 1.4% | 122.7hPa | 2.8V | 18:12:15 | 01:00:56 | 00:00:00 | |
| DF8AY | 2026-09-03 10:32:22 | 52.40313 | 8.54693 | 108° | 69km/h | 15205m | 7.1m/s | -53.5°C | 1.4% | 122.8hPa | 2.8V | 18:12:15 | 01:00:55 | 00:00:00 | |
| DM0DOS-11 | 2026-09-03 10:32:20 | 52.40353 | 8.54530 | 109° | 71km/h | 15171m | 3.9m/s | -53.5°C | 4.5% | 123.5hPa | 2.8V | 08:30:00 | 01:00:49 | 00:00:00 | |
| HTAHTA | 2026-09-03 10:32:18 | 52.40333 | 8.54612 | 113° | 71km/h | 15186m | 5.5m/s | -53.5°C | 1.8% | 123.2hPa | 2.8V | 00:00:00 | 00:00:00 | 00:00:00 | |
| DL3OBA | 2026-09-03 10:32:16 | 52.40332 | 8.54612 | 115° | 73km/h | 15187m | 5.5m/s | -53.5°C | 1.8% | 123.2hPa | 2.8V | 00:00:00 | 00:00:00 | 00:00:00 | |
| DL1XH1-15 | 2026-09-03 10:32:15 | 52.40377 | 8.54418 | 107° | 69km/h | 15150m | 4.6m/s | -53.5°C | 4.5% | 123.9hPa | 2.8V | 08:30:00 | 01:00:45 | 00:00:00 | |
| BIOWL1-15 | 2026-09-03 10:32:12 | 52.40365 | 8.54473 | 110° | 73km/h | 15160m | 4.7m/s | -53.5°C | 1.5% | 123.7hPa | 2.7V | 18:12:15 | 01:00:47 | 00:00:00 | |
| HSKMA3-T | 2026-09-03 10:32:11 | 52.40371 | 8.54445 | 109° | 71km/h | 15155m | 5.7m/s | -53.6°C | 1.5% | 123.8hPa | 2.7V | 18:12:15 | 01:00:46 | 00:00:00 | |
| AA1-15 | 2026-09-03 10:32:10 | 52.40376 | 8.54418 | 108° | 69km/h | 15150m | 4.6m/s | -53.5°C | 1.5% | 123.9hPa | 2.8V | 18:12:15 | 01:00:45 | 00:00:00 | |
| DL1XH-15 | 2026-09-03 10:32:09 | 52.40411 | 8.54252 | 110° | 71km/h | 15119m | 5.1m/s | -53.4°C | 4.5% | 124.4hPa | 2.8V | 08:30:00 | 01:00:39 | 00:00:00 | |
| DL4BBY-15 | 2026-09-03 10:32:09 | 52.40382 | 8.54390 | 109° | 71km/h | 15145m | 5.6m/s | -52.2°C | 0% | 0hPa | 2.7V | 00:00:00 | 00:00:00 | 00:00:00 | |
| GOEST3-10 | 2026-09-03 10:32:08 | 52.40388 | 8.54363 | 110° | 71km/h | 15139m | 5.6m/s | -53.5°C | 4.5% | 124.1hPa | 2.7V | 00:00:00 | 00:00:00 | 00:00:00 | |
| SONCRA | 2026-09-03 10:32:07 | 52.40400 | 8.54307 | 108° | 69km/h | 15129m | 6.0m/s | -53.5°C | 1.8% | 124.3hPa | 2.7V | 00:00:00 | 00:00:00 | 00:00:00 | |
| DL3AQ-11 | 2026-09-03 10:32:06 | 52.40405 | 8.54279 | 109° | 69km/h | 15124m | 4.5m/s | -53.4°C | 1.8% | 124.4hPa | 2.7V | 00:00:00 | 00:00:00 | 00:00:00 | |
| DL1XH1-15 | 2026-09-03 10:32:05 | 52.40438 | 8.54144 | 110° | 68km/h | 15100m | 3.8m/s | -53.4°C | 4.5% | 124.9hPa | 2.7V | 08:30:00 | 01:00:35 | 00:00:00 | |
| BIOWL1-15 | 2026-09-03 10:32:02 | 52.40425 | 8.54197 | 114° | 71km/h | 15110m | 3.9m/s | -53.4°C | 1.4% | 124.6hPa | 2.8V | 18:12:15 | 01:00:37 | 00:00:00 | |
| DO2JMG | 2026-09-03 10:32:01 | 52.40432 | 8.54170 | 113° | 69km/h | 15105m | 5.7m/s | -53.4°C | 1.5% | 124.7hPa | 2.7V | 18:12:15 | 01:00:36 | 00:00:00 | |
| DL1XH-west | 2026-09-03 10:32:00 | 52.40438 | 8.54144 | 110° | 68km/h | 15100m | 3.8m/s | -53.4°C | 1.5% | 124.9hPa | 2.7V | 18:12:15 | 01:00:35 | 00:00:00 | |
| SMARD9-15 | 2026-09-03 10:31:58 | 52.40450 | 8.54090 | 107° | 71km/h | 15091m | 5.5m/s | -53.4°C | 1.9% | 125.0hPa | 2.8V | 00:00:00 | 00:00:00 | 00:00:00 | |
| AU51GT2 | 2026-09-03 10:31:57 | 52.40460 | 8.54033 | 104° | 69km/h | 15080m | 5.7m/s | -53.3°C | 1.9% | 125.2hPa | 2.8V | 00:00:00 | 00:00:00 | 00:00:00 | |
| DL3OBA | 2026-09-03 10:31:56 | 52.40455 | 8.54061 | 107° | 73km/h | 15085m | 4.7m/s | -53.3°C | 1.9% | 125.1hPa | 2.8V | 00:00:00 | 00:00:00 | 00:00:00 | |
| DL1XH1-15 | 2026-09-03 10:31:55 | 52.40487 | 8.53862 | 106° | 69km/h | 15050m | 5m/s | -53.1°C | 4.4% | 125.8hPa | 2.8V | 08:30:00 | 01:00:25 | 00:00:00 | |
| DB0DAN | 2026-09-03 10:31:55 | 52.40465 | 8.54004 | 104° | 68km/h | 15075m | 4.9m/s | -53.2°C | 1.9% | 125.32hPa | 2.7V | 00:00:00 | 00:00:00 | 00:00:00 | |
| BIOWL1-15 | 2026-09-03 10:31:53 | 52.40482 | 8.53890 | 106° | 71km/h | 15055m | 5m/s | -53.1°C | 1.5% | 125.7hPa | 2.8V | 18:12:15 | 01:00:26 | 00:00:00 | |
| HSKMA3-T | 2026-09-03 10:31:50 | 52.40487 | 8.53862 | 107° | 69km/h | 15050m | 5m/s | -53.1°C | 1.5% | 125.8hPa | 2.8V | 18:12:15 | 01:00:25 | 00:00:00 | |
| DL1XH-west | 2026-09-03 10:31:49 | 52.40492 | 8.53835 | 108° | 69km/h | 15046m | 4.8m/s | -53°C | 1.5% | 125.9hPa | 2.7V | 18:12:15 | 01:00:24 | 00:00:00 | |
| DL1LOL-11 | 2026-09-03 10:31:48 | 52.40503 | 8.53779 | 109° | 71km/h | 15035m | 4.7m/s | -53.1°C | 1.8% | 126.1hPa | 2.8V | 00:00:00 | 00:00:00 | 00:00:00 | |
| EDDB2-11 | 2026-09-03 10:31:46 | 52.40522 | 8.53664 | 103° | 73km/h | 15014m | 4.1m/s | 0°C | -1.0% | -1.0hPa | 2.8V | 00:00:00 | 00:00:00 | 00:00:00 | |
| DL1XH1-15 | 2026-09-03 10:31:45 | 52.40536 | 8.53577 | 105° | 73km/h | 14998m | 5.8m/s | -53.1°C | 4.4% | 126.8hPa | 2.8V | 08:30:00 | 01:00:15 | 00:00:00 | |
| BIOWL1-15 | 2026-09-03 10:31:41 | 52.40536 | 8.53577 | 106° | 73km/h | 14998m | 5.8m/s | -53.1°C | 1.4% | 126.8hPa | 2.8V | 18:12:15 | 01:00:15 | 00:00:00 | |
| DB0DAN | 2026-09-03 10:31:40 | 52.40536 | 8.53577 | 106° | 69km/h | 14998m | 5.8m/s | -53.1°C | 1.8% | 126.82hPa | 2.8V | 00:00:00 | 00:00:00 | 00:00:00 | |
| HSKMA3-T | 2026-09-03 10:31:39 | 52.40541 | 8.53548 | 108° | 75km/h | 14992m | 6m/s | -53.1°C | 1.5% | 127hPa | 2.8V | 18:12:15 | 01:00:14 | 00:00:00 | |
| AA1-15 | 2026-09-03 10:31:38 | 52.40546 | 8.53519 | 107° | 73km/h | 14986m | 5.2m/s | -53.2°C | 1.5% | 127hPa | 2.8V | 18:12:15 | 01:00:13 | 00:00:00 | |
| DF8AY | 2026-09-03 10:31:36 | 52.40564 | 8.53431 | 109° | 77km/h | 14971m | 6m/s | -53.1°C | 1.4% | 127.3hPa | 2.7V | 18:12:15 | 01:00:10 | 00:00:00 | |
| SONCRA | 2026-09-03 10:31:36 | 52.40564 | 8.53431 | 108° | 77km/h | 14971m | 6.0m/s | -53.1°C | 1.8% | 127.3hPa | 2.7V | 00:00:00 | 00:00:00 | 00:00:00 | |
| DL1XH1-15 | 2026-09-03 10:31:35 | 52.40593 | 8.53279 | 107° | 78km/h | 14945m | 5.1m/s | -53°C | 4.4% | 127.8hPa | 2.7V | 08:30:00 | 01:00:05 | 00:00:00 | |
| HSKMA3-T | 2026-09-03 10:31:29 | 52.40599 | 8.53248 | 106° | 77km/h | 14939m | 5.4m/s | -53.1°C | 1.4% | 127.9hPa | 2.7V | 18:12:15 | 01:00:04 | 00:00:00 | |
| DL1XH-west | 2026-09-03 10:31:28 | 52.40604 | 8.53218 | 105° | 75km/h | 14934m | 5.5m/s | -53°C | 1.4% | 128.1hPa | 2.8V | 18:12:15 | 01:00:03 | 00:00:00 | |
| AA1-15 | 2026-09-03 10:31:27 | 52.40609 | 8.53189 | 106° | 73km/h | 14929m | 4m/s | -53°C | 1.4% | 128.2hPa | 2.8V | 18:12:15 | 01:00:02 | 00:00:00 | |
| AU51GT2 | 2026-09-03 10:31:26 | 52.40620 | 8.53131 | 110° | 71km/h | 14919m | 3.5m/s | -53.0°C | 1.8% | 128.4hPa | 2.8V | 00:00:00 | 00:00:00 | 00:00:00 | |
| DL1XH1-15 | 2026-09-03 10:31:25 | 52.40657 | 8.52995 | 114° | 73km/h | 14896m | 4.2m/s | -52.9°C | 4.4% | 128.9hPa | 2.8V | 08:30:00 | 00:59:55 | 00:00:00 | |
| DB0DAN | 2026-09-03 10:31:25 | 52.40620 | 8.53131 | 111° | 69km/h | 14919m | 3.5m/s | -53°C | 1.8% | 128.39hPa | 2.7V | 00:00:00 | 00:00:00 | 00:00:00 | |
| DF8AY | 2026-09-03 10:31:23 | 52.40634 | 8.53077 | 113° | 69km/h | 14910m | 4.4m/s | -53°C | 1.4% | 128.5hPa | 2.7V | 18:12:15 | 00:59:58 | 00:00:00 | |
| BIOWL1-15 | 2026-09-03 10:31:19 | 52.40664 | 8.52968 | 114° | 75km/h | 14891m | 5.3m/s | -52.9°C | 1.5% | 128.9hPa | 2.7V | 18:12:15 | 00:59:54 | 00:00:00 | |
| DL1XH-west | 2026-09-03 10:31:18 | 52.40672 | 8.52939 | 113° | 75km/h | 14886m | 4.6m/s | -52.8°C | 1.4% | 129.1hPa | 2.7V | 18:12:15 | 00:59:53 | 00:00:00 | |
| AA1-15 | 2026-09-03 10:31:16 | 52.40687 | 8.52879 | 112° | 82km/h | 14876m | 4.5m/s | -52.7°C | 1.4% | 129.3hPa | 2.8V | 18:12:15 | 00:59:51 | 00:00:00 | |
| DL1XH1-15 | 2026-09-03 10:31:15 | 52.40734 | 8.52705 | 115° | 73km/h | 14847m | 6.5m/s | -52.6°C | 4.2% | 129.8hPa | 2.8V | 08:30:00 | 00:59:45 | 00:00:00 | |
| DB0NH | 2026-09-03 10:31:15 | 52.40694 | 8.52848 | 112° | 80km/h | 14871m | 4.0m/s | -52.6°C | 4.3% | 129.3hPa | 2.8V | 00:00:00 | 00:59:50 | 00:00:00 | |
| DL1CLM-18 | 2026-09-03 10:31:14 | 52.40709 | 8.52789 | 115° | 75km/h | 14862m | 3.9m/s | -52.7°C | 1.8% | 129.6hPa | 2.8V | 00:00:00 | 00:00:00 | 00:00:00 | |
| DO9LL-15 | 2026-09-03 10:31:12 | 52.40717 | 8.52760 | 116° | 80km/h | 14858m | 4.8m/s | -52.6°C | 4.2% | 129.6hPa | 2.8V | 00:00:00 | 00:59:47 | 00:00:00 | |
| DB0DAN | 2026-09-03 10:31:10 | 52.40734 | 8.52705 | 116° | 69km/h | 14847m | 6.5m/s | -52.6°C | 1.8% | 129.78hPa | 2.8V | 00:00:00 | 00:00:00 | 00:00:00 | |
| BIOWL1-15 | 2026-09-03 10:31:09 | 52.40742 | 8.52678 | 115° | 73km/h | 14842m | 4.7m/s | -52.6°C | 1.3% | 130hPa | 2.8V | 18:12:15 | 00:59:44 | 00:00:00 | |
| HSKMA3-T | 2026-09-03 10:31:08 | 52.40750 | 8.52651 | 117° | 75km/h | 14837m | 4.4m/s | -52.6°C | 1.4% | 130.1hPa | 2.8V | 18:12:15 | 00:59:43 | 00:00:00 | |
| DL1XH-west | 2026-09-03 10:31:07 | 52.40758 | 8.52623 | 117° | 77km/h | 14832m | 5.4m/s | -52.6°C | 1.4% | 130.2hPa | 2.7V | 18:12:15 | 00:59:42 | 00:00:00 | |
| AA1-15 | 2026-09-03 10:31:05 | 52.40777 | 8.52565 | 116° | 80km/h | 14822m | 5.2m/s | -52.6°C | 1.4% | 130.4hPa | 2.7V | 18:12:15 | 00:59:40 | 00:00:00 | |
| BIOWL1-15 | 2026-09-03 10:31:02 | 52.40840 | 8.52357 | 115° | 73km/h | 14786m | 5.8m/s | -52.7°C | 1.3% | 131.1hPa | 2.8V | 18:12:15 | 00:59:33 | 00:00:00 | |
| DF8AY | 2026-09-03 10:31:00 | 52.40824 | 8.52414 | 115° | 78km/h | 14797m | 6.7m/s | -52.7°C | 1.3% | 130.9hPa | 2.7V | 18:12:15 | 00:59:35 | 00:00:00 | |
| DK5PH-5 | 2026-09-03 10:31:00 | 52.40824 | 8.52414 | 116° | 84km/h | 14797m | 6.6m/s | 0°C | 0% | 0hPa | 2.7V | 00:00:00 | 00:59:35 | 00:00:00 | |
| DL1XH-15 | 2026-09-03 10:30:59 | 52.40873 | 8.52245 | 115° | 78km/h | 14767m | 4.6m/s | -53°C | 4.4% | 131.4hPa | 2.7V | 08:30:00 | 00:59:29 | 00:00:00 | |
| DO2JMG | 2026-09-03 10:30:57 | 52.40848 | 8.52329 | 117° | 75km/h | 14781m | 4.7m/s | -52.8°C | 1.3% | 131.2hPa | 2.8V | 18:12:15 | 00:59:32 | 00:00:00 | |
| DL1XH-west | 2026-09-03 10:30:56 | 52.40857 | 8.52302 | 116° | 75km/h | 14777m | 4.4m/s | -52.9°C | 1.4% | 131.3hPa | 2.8V | 18:12:15 | 00:59:31 | 00:00:00 | |
| AA1-15 | 2026-09-03 10:30:55 | 52.40865 | 8.52273 | 116° | 77km/h | 14772m | 5m/s | -52.9°C | 1.4% | 131.4hPa | 2.7V | 18:12:15 | 00:59:30 | 00:00:00 | |
| DB0DAN | 2026-09-03 10:30:55 | 52.40865 | 8.52273 | 116° | 73km/h | 14772m | 5m/s | -52.9°C | 1.8% | 131.4hPa | 2.7V | 00:00:00 | 00:00:00 | 00:00:00 | |
| BIOWL1-15 | 2026-09-03 10:30:50 | 52.40935 | 8.52064 | 120° | 89km/h | 14738m | 4.6m/s | -53.1°C | 1.4% | 132hPa | 2.7V | 18:12:15 | 00:59:23 | 00:00:00 | |
| DF5WG-10 | 2026-09-03 10:30:50 | 52.40912 | 8.52127 | 121° | 89km/h | 14749m | 5.8m/s | -53.1°C | 4.4% | 131.8hPa | 2.7V | 00:00:00 | 00:59:25 | 08:30:00 | |
| DL1NUX | 2026-09-03 10:30:49 | 52.40982 | 8.51937 | 120° | 89km/h | 14717m | 5.4m/s | -53.2°C | 0% | 132.5hPa | 2.8V | 08:30:00 | 00:59:19 | 00:00:00 | |
| HSKMA3-T | 2026-09-03 10:30:47 | 52.40947 | 8.52032 | 121° | 89km/h | 14733m | 5.8m/s | -53.2°C | 1.4% | 132.2hPa | 2.7V | 18:12:15 | 00:59:22 | 00:00:00 | |
| DO2JMG | 2026-09-03 10:30:46 | 52.40959 | 8.52001 | 122° | 89km/h | 14728m | 5.1m/s | -53.2°C | 1.3% | 132.3hPa | 2.8V | 18:12:15 | 00:59:21 | 00:00:00 | |
| DL1XH-west | 2026-09-03 10:30:45 | 52.40970 | 8.51969 | 122° | 89km/h | 14722m | 5.7m/s | -53.2°C | 1.4% | 132.4hPa | 2.8V | 18:12:15 | 00:59:20 | 00:00:00 | |
| AA1-15 | 2026-09-03 10:30:45 | 52.40982 | 8.51937 | 120° | 89km/h | 14717m | 5.4m/s | -53.2°C | 1.4% | 132.5hPa | 2.8V | 18:12:15 | 00:59:19 | 00:00:00 | |
| DO3DL | 2026-09-03 10:30:45 | 52.40993 | 8.51905 | 121° | 89km/h | 14712m | 4.7m/s | -53.2°C | 1.9% | 132.6hPa | 2.8V | 00:00:00 | 00:00:00 | 00:00:00 | |
| DO2LYB-13 | 2026-09-03 10:30:43 | 52.40993 | 8.51905 | 121° | 89km/h | 14712m | 4.7m/s | -53.2°C | 1.9% | 132.6hPa | 2.8V | 00:00:00 | 00:00:00 | 00:00:00 | |
| DO2SHX-10 | 2026-09-03 10:30:42 | 52.41005 | 8.51873 | 121° | 89km/h | 14707m | 5.8m/s | -53.1°C | 4.4% | 132.7hPa | 2.8V | 00:00:00 | 00:59:17 | 00:00:00 | |
| DJ2DS-15 | 2026-09-03 10:30:41 | 52.41027 | 8.51808 | 116° | 91km/h | 14698m | 4.9m/s | -53.1°C | 1.8% | 132.9hPa | 2.8V | 00:00:00 | 00:00:00 | 00:00:00 | |
| DF5WG-10 | 2026-09-03 10:30:40 | 52.41027 | 8.51808 | 117° | 89km/h | 14698m | 4.9m/s | -53.0°C | 4.4% | 132.9hPa | 2.8V | 00:00:00 | 00:59:15 | 00:00:00 | |
| DL1NUX | 2026-09-03 10:30:39 | 52.41088 | 8.51598 | 113° | 88km/h | 14670m | 5.4m/s | -53°C | 0% | 133.6hPa | 2.8V | 08:30:00 | 00:59:09 | 00:00:00 | |
| DL4BBY-15 | 2026-09-03 10:30:39 | 52.41037 | 8.51774 | 116° | 89km/h | 14693m | 4.6m/s | -51.7°C | 0% | 0hPa | 2.7V | 00:00:00 | 00:00:00 | 00:00:00 | |
| GOEST3-10 | 2026-09-03 10:30:38 | 52.41047 | 8.51738 | 115° | 93km/h | 14689m | 4.1m/s | -53.0°C | 4.4% | 133.1hPa | 2.7V | 00:00:00 | 00:00:00 | 00:00:00 | |
| DM0DOS-11 | 2026-09-03 10:30:37 | 52.41105 | 8.51533 | 114° | 84km/h | 14659m | 6.4m/s | -52.9°C | 4.3% | 133.7hPa | 2.8V | 08:30:00 | 00:59:07 | 00:00:00 | |
| BIOWL1-15 | 2026-09-03 10:30:37 | 52.41058 | 8.51702 | 115° | 97km/h | 14684m | 5m/s | -53°C | 1.4% | 133.2hPa | 2.7V | 18:12:15 | 00:59:12 | 00:00:00 | |
| DO2JMG | 2026-09-03 10:30:36 | 52.41068 | 8.51666 | 116° | 95km/h | 14679m | 5m/s | -53°C | 1.4% | 133.3hPa | 2.7V | 18:12:15 | 00:59:11 | 00:00:00 | |
| DL1XH-west | 2026-09-03 10:30:34 | 52.41088 | 8.51598 | 114° | 88km/h | 14670m | 5.4m/s | -53°C | 1.3% | 133.6hPa | 2.8V | 18:12:15 | 00:59:09 | 00:00:00 | |
| SONDE2-11 | 2026-09-03 10:30:34 | 52.41096 | 8.51565 | 113° | 84km/h | 14665m | 5.0m/s | -53.0°C | 1.8% | 133.6hPa | 2.7V | 00:00:00 | 00:00:00 | 00:00:00 | |
| DB0UT-7 | 2026-09-03 10:30:33 | 52.41096 | 8.51565 | 114° | 88km/h | 14665m | 5.0m/s | -52.9°C | 4.3% | 133.6hPa | 2.7V | 00:00:00 | 00:59:08 | 00:00:00 | |
| DL8DAS-15 | 2026-09-03 10:30:32 | 52.41096 | 8.51565 | 114° | 86km/h | 14665m | 5.0m/s | -53.0°C | 0% | 133.6hPa | 2.7V | 00:00:00 | 00:00:00 | 00:00:00 | |
| SMARD9-10 | 2026-09-03 10:30:31 | 52.41105 | 8.51533 | 115° | 84km/h | 14659m | 6.4m/s | -52.9°C | 1.8% | 133.7hPa | 2.7V | 00:00:00 | 00:00:00 | 00:00:00 | |
| NBG1-10 | 2026-09-03 10:30:30 | 52.41122 | 8.51471 | 114° | 80km/h | 14649m | 6.2m/s | 0°C | 0% | 0hPa | 2.7V | 00:00:00 | 00:59:05 | 00:00:00 | |
| DL1NUX | 2026-09-03 10:30:29 | 52.41173 | 8.51268 | 113° | 97km/h | 14617m | 5.7m/s | -53°C | 0% | 134.6hPa | 2.7V | 08:30:00 | 00:58:59 | 00:00:00 | |
| GOEST3-10 | 2026-09-03 10:30:28 | 52.41138 | 8.51407 | 113° | 91km/h | 14639m | 5.1m/s | -52.9°C | 4.3% | 134.1hPa | 2.8V | 00:00:00 | 00:00:00 | 00:00:00 | |
| DM0DOS-11 | 2026-09-03 10:30:27 | 52.41193 | 8.51195 | 113° | 99km/h | 14607m | 4.9m/s | -53°C | 4.4% | 134.8hPa | 2.8V | 08:30:00 | 00:58:57 | 00:00:00 | |
| DO2JMG | 2026-09-03 10:30:26 | 52.41155 | 8.51340 | 112° | 91km/h | 14628m | 5.4m/s | -53.1°C | 1.3% | 134.3hPa | 2.8V | 18:12:15 | 00:59:01 | 00:00:00 | |
| HSKMA3-T | 2026-09-03 10:30:25 | 52.41164 | 8.51304 | 112° | 93km/h | 14623m | 5.2m/s | -53.1°C | 1.3% | 134.5hPa | 2.7V | 18:12:15 | 00:59:00 | 00:00:00 | |
| AA1-15 | 2026-09-03 10:30:24 | 52.41173 | 8.51268 | 113° | 97km/h | 14618m | 5.7m/s | -53°C | 1.3% | 134.6hPa | 2.7V | 18:12:15 | 00:58:59 | 00:00:00 | |
| DO2SHX-10 | 2026-09-03 10:30:24 | 52.41173 | 8.51268 | 114° | 97km/h | 14618m | 5.6m/s | -53.0°C | 4.4% | 134.5hPa | 2.7V | 00:00:00 | 00:58:59 | 00:00:00 | |
| DD8BA-10 | 2026-09-03 10:30:23 | 52.41183 | 8.51232 | 114° | 89km/h | 14612m | 4.8m/s | -52.9°C | 4.4% | 134.7hPa | 2.7V | 00:00:00 | 00:00:00 | 00:00:00 | |
| DL3AQ-11 | 2026-09-03 10:30:22 | 52.41202 | 8.51157 | 112° | 99km/h | 14602m | 6.3m/s | -53.0°C | 1.8% | 134.9hPa | 2.7V | 00:00:00 | 00:00:00 | 00:00:00 | |
| MET0W-2 | 2026-09-03 10:30:21 | 52.41212 | 8.51120 | 111° | 95km/h | 14596m | 5.2m/s | -52.9°C | 1.8% | 135.1hPa | 2.7V | 00:00:00 | 00:00:00 | 00:00:00 | |
| DF5WG-10 | 2026-09-03 10:30:20 | 52.41212 | 8.51120 | 112° | 86km/h | 14596m | 5.1m/s | -52.9°C | 4.4% | 135.0hPa | 2.7V | 00:00:00 | 00:58:55 | 00:00:00 | |
| DL1NUX | 2026-09-03 10:30:19 | 52.41257 | 8.50919 | 108° | 80km/h | 14564m | 6.2m/s | -52.9°C | 0% | 135.7hPa | 2.8V | 08:30:00 | 00:58:49 | 00:00:00 | |
| DJ2KF-10 | 2026-09-03 10:30:19 | 52.41221 | 8.51083 | 113° | 84km/h | 14591m | 6.2m/s | -52.9°C | 4.4% | 135.1hPa | 2.7V | 00:00:00 | 00:58:54 | 00:00:00 | |
| GOEST3-10 | 2026-09-03 10:30:18 | 52.41230 | 8.51048 | 113° | 84km/h | 14585m | 4.5m/s | -52.8°C | 4.4% | 135.2hPa | 2.7V | 00:00:00 | 00:00:00 | 00:00:00 | |
| DM0DOS-11 | 2026-09-03 10:30:17 | 52.41272 | 8.50854 | 111° | 84km/h | 14553m | 5m/s | -52.8°C | 4.3% | 135.9hPa | 2.7V | 08:30:00 | 00:58:47 | 00:00:00 | |
| DO2JMG | 2026-09-03 10:30:15 | 52.41251 | 8.50950 | 108° | 80km/h | 14569m | 4.4m/s | -52.8°C | 1.2% | 135.6hPa | 2.8V | 18:12:15 | 00:58:50 | 00:00:00 | |
| AA1-15 | 2026-09-03 10:30:14 | 52.41258 | 8.50919 | 109° | 80km/h | 14564m | 6.2m/s | -52.9°C | 1.2% | 135.7hPa | 2.8V | 18:12:15 | 00:58:49 | 00:00:00 | |
| DL1XH-west | 2026-09-03 10:30:13 | 52.41264 | 8.50887 | 110° | 84km/h | 14558m | 5.1m/s | -52.8°C | 1.2% | 135.8hPa | 2.7V | 18:12:15 | 00:58:48 | 00:00:00 | |
| DD8BA-10 | 2026-09-03 10:30:13 | 52.41264 | 8.50886 | 110° | 86km/h | 14558m | 5.1m/s | -52.8°C | 4.3% | 135.8hPa | 2.8V | 00:00:00 | 00:00:00 | 00:00:00 | |
| DO9LL-15 | 2026-09-03 10:30:12 | 52.41272 | 8.50854 | 112° | 82km/h | 14553m | 4.9m/s | -52.7°C | 4.3% | 135.9hPa | 2.8V | 00:00:00 | 00:58:47 | 00:00:00 | |
| DL1XH-15 | 2026-09-03 10:30:10 | 52.41335 | 8.50588 | 107° | 86km/h | 14507m | 6m/s | -52.4°C | 4.2% | 136.9hPa | 2.8V | 08:30:00 | 00:58:39 | 00:00:00 | |
| DL4BBY-15 | 2026-09-03 10:30:10 | 52.41295 | 8.50756 | 114° | 80km/h | 14536m | 7.0m/s | -51.3°C | 0% | 0hPa | 2.7V | 00:00:00 | 00:00:00 | 00:00:00 | |
| DO2SHX-10 | 2026-09-03 10:30:09 | 52.41295 | 8.50756 | 114° | 88km/h | 14535m | 7.0m/s | -52.6°C | 4.2% | 136.2hPa | 2.7V | 00:00:00 | 00:58:44 | 08:30:00 | |
| DL1NUX | 2026-09-03 10:30:08 | 52.41341 | 8.50554 | 107° | 84km/h | 14502m | 5m/s | -52.3°C | 0% | 137hPa | 2.8V | 08:30:00 | 00:58:38 | 00:00:00 | |
| GOEST3-10 | 2026-09-03 10:30:08 | 52.41304 | 8.50723 | 114° | 88km/h | 14529m | 5.3m/s | -52.6°C | 4.3% | 136.4hPa | 2.7V | 00:00:00 | 00:00:00 | 00:00:00 | |
| DM0DOS-11 | 2026-09-03 10:30:06 | 52.41354 | 8.50488 | 107° | 82km/h | 14491m | 5.4m/s | -52.2°C | 4.3% | 137.3hPa | 2.7V | 08:30:00 | 00:58:36 | 00:00:00 | |
| DO2JMG | 2026-09-03 10:30:05 | 52.41328 | 8.50622 | 108° | 88km/h | 14512m | 4.1m/s | -52.4°C | 1.2% | 136.8hPa | 2.7V | 18:12:15 | 00:58:40 | 00:00:00 | |
| DF8AY | 2026-09-03 10:30:04 | 52.41335 | 8.50588 | 108° | 86km/h | 14507m | 6m/s | -52.4°C | 1.2% | 136.9hPa | 2.8V | 18:12:15 | 00:58:39 | 00:00:00 | |
| AA1-15 | 2026-09-03 10:30:03 | 52.41342 | 8.50554 | 108° | 84km/h | 14502m | 5m/s | -52.3°C | 1.2% | 137hPa | 2.8V | 18:12:15 | 00:58:38 | 00:00:00 | |
| DL1XH-west | 2026-09-03 10:30:02 | 52.41348 | 8.50521 | 107° | 84km/h | 14496m | 5.7m/s | -52.4°C | 1.2% | 137.1hPa | 2.8V | 18:12:15 | 00:58:37 | 00:00:00 | |
| DO2SHX-10 | 2026-09-03 10:30:00 | 52.41360 | 8.50457 | 111° | 78km/h | 14487m | 3.0m/s | -52.2°C | 4.3% | 137.3hPa | 2.7V | 00:00:00 | 00:58:35 | 00:00:00 | |
| DL1XH-15 | 2026-09-03 10:29:59 | 52.41412 | 8.50277 | 111° | 82km/h | 14457m | 4.3m/s | -52°C | 4.3% | 138hPa | 2.7V | 08:30:00 | 00:58:29 | 00:00:00 | |
| DK5PH-5 | 2026-09-03 10:29:59 | 52.41368 | 8.50426 | 113° | 78km/h | 14482m | 6.0m/s | 0°C | 0% | 0hPa | 2.7V | 00:00:00 | 00:58:34 | 00:00:00 | |
| DL1NUX | 2026-09-03 10:29:58 | 52.41420 | 8.50246 | 110° | 78km/h | 14451m | 6.1m/s | -51.9°C | 0% | 0hPa | 2.7V | 08:30:00 | 00:58:28 | 00:00:00 | |
| GOEST3-10 | 2026-09-03 10:29:58 | 52.41376 | 8.50397 | 117° | 80km/h | 14477m | 5.0m/s | -52.1°C | 4.2% | 137.5hPa | 2.8V | 00:00:00 | 00:00:00 | 00:00:00 | |
| DO2SHX-10 | 2026-09-03 10:29:57 | 52.41385 | 8.50368 | 119° | 82km/h | 14472m | 4.3m/s | -52.1°C | 4.2% | 137.6hPa | 2.8V | 00:00:00 | 00:58:32 | 00:00:00 | |
| DM0DOS-11 | 2026-09-03 10:29:56 | 52.41433 | 8.50185 | 109° | 80km/h | 14440m | 6.5m/s | -51.8°C | 4.1% | 138.3hPa | 2.8V | 08:30:00 | 00:58:26 | 00:00:00 | |
| BIOWL1-15 | 2026-09-03 10:29:55 | 52.41404 | 8.50308 | 115° | 82km/h | 14461m | 5.2m/s | -52°C | 1.2% | 137.9hPa | 2.7V | 18:12:15 | 00:58:30 | 00:00:00 | |
| DO2JMG | 2026-09-03 10:29:54 | 52.41412 | 8.50277 | 112° | 82km/h | 14457m | 4.3m/s | -52°C | 1.2% | 138hPa | 2.7V | 18:12:15 | 00:58:29 | 00:00:00 | |
| AA1-15 | 2026-09-03 10:29:53 | 52.41420 | 8.50246 | 111° | 78km/h | 14451m | 6.1m/s | -51.9°C | 1.1% | 138.1hPa | 2.7V | 18:12:15 | 00:58:28 | 00:00:00 | |
| HSKMA3-T | 2026-09-03 10:29:52 | 52.41427 | 8.50216 | 110° | 78km/h | 14446m | 5m/s | -51.8°C | 1.2% | 138.3hPa | 2.8V | 18:12:15 | 00:58:27 | 00:00:00 | |
| DL1XH-west | 2026-09-03 10:29:51 | 52.41433 | 8.50185 | 109° | 80km/h | 14440m | 6.5m/s | -51.8°C | 1% | 138.4hPa | 2.8V | 18:12:15 | 00:58:26 | 00:00:00 | |
| DO2SHX-10 | 2026-09-03 10:29:51 | 52.41433 | 8.50185 | 110° | 80km/h | 14440m | 6.5m/s | -51.7°C | 4.1% | 138.3hPa | 2.7V | 00:00:00 | 00:58:26 | 00:00:00 | |
| DF5WG-10 | 2026-09-03 10:29:50 | 52.41440 | 8.50153 | 110° | 78km/h | 14434m | 5.3m/s | -51.7°C | 4.1% | 138.4hPa | 2.7V | 00:00:00 | 00:58:25 | 00:00:00 | |
| DL1XH-15 | 2026-09-03 10:29:49 | 52.41481 | 8.49971 | 108° | 78km/h | 14401m | 4.8m/s | -51.5°C | 4% | 139.2hPa | 2.8V | 08:30:00 | 00:58:19 | 00:00:00 | |
| DJ2KF-10 | 2026-09-03 10:29:49 | 52.41447 | 8.50122 | 112° | 78km/h | 14430m | 4.3m/s | -51.7°C | 4.1% | 138.6hPa | 2.7V | 00:00:00 | 00:58:24 | 00:00:00 | |
| DO2SHX-10 | 2026-09-03 10:29:48 | 52.41454 | 8.50092 | 112° | 77km/h | 14424m | 5.9m/s | -51.7°C | 4.1% | 138.6hPa | 2.7V | 00:00:00 | 00:58:23 | 00:00:00 | |
| DL1NUX | 2026-09-03 10:29:47 | 52.41494 | 8.49911 | 111° | 75km/h | 14390m | 4.1m/s | -51.3°C | 0% | 0hPa | 2.7V | 08:30:00 | 00:58:17 | 00:00:00 | |
| DM0DOS-11 | 2026-09-03 10:29:46 | 52.41501 | 8.49882 | 113° | 77km/h | 14386m | 4.8m/s | -51.2°C | 4% | 139.5hPa | 2.7V | 08:30:00 | 00:58:16 | 00:00:00 | |
| DO2JMG | 2026-09-03 10:29:44 | 52.41481 | 8.49971 | 108° | 78km/h | 14401m | 4.8m/s | -51.5°C | 1% | 139.2hPa | 2.8V | 18:12:15 | 00:58:19 | 00:00:00 | |
| DB0ND-19 | 2026-09-03 10:29:44 | 52.41481 | 8.49971 | 108° | 78km/h | 14401m | 4.8m/s | -51.5°C | 1.6% | 139.2hPa | 2.7V | 00:00:00 | 00:00:00 | 00:00:00 | |
| DF8AY | 2026-09-03 10:29:43 | 52.41487 | 8.49941 | 109° | 77km/h | 14395m | 6.4m/s | -51.5°C | 1.1% | 139.3hPa | 2.7V | 18:12:15 | 00:58:18 | 00:00:00 | |
| AA1-15 | 2026-09-03 10:29:42 | 52.41494 | 8.49911 | 111° | 75km/h | 14390m | 4.1m/s | -51.3°C | 1.1% | 139.4hPa | 2.7V | 18:12:15 | 00:58:17 | 00:00:00 | |
| HSKMA3-T | 2026-09-03 10:29:41 | 52.41501 | 8.49882 | 113° | 77km/h | 14386m | 4.8m/s | -51.3°C | 1% | 139.5hPa | 2.7V | 18:12:15 | 00:58:16 | 00:00:00 | |
| DL1XH-west | 2026-09-03 10:29:40 | 52.41509 | 8.49853 | 114° | 78km/h | 14380m | 5.6m/s | -51.2°C | 1.1% | 139.6hPa | 2.8V | 18:12:15 | 00:58:15 | 00:00:00 | |
| DF5WG-10 | 2026-09-03 10:29:40 | 52.41509 | 8.49853 | 115° | 77km/h | 14381m | 5.5m/s | -51.2°C | 4.0% | 139.6hPa | 2.8V | 00:00:00 | 00:58:15 | 00:00:00 | |
| DL1XH-15 | 2026-09-03 10:29:39 | 52.41563 | 8.49683 | 116° | 77km/h | 14349m | 5.1m/s | -51°C | 4.1% | 140.3hPa | 2.8V | 08:30:00 | 00:58:09 | 00:00:00 | |
| DO2SHX-10 | 2026-09-03 10:29:39 | 52.41517 | 8.49823 | 116° | 78km/h | 14375m | 5.0m/s | -51.2°C | 4.0% | 139.7hPa | 2.7V | 00:00:00 | 00:58:14 | 00:00:00 | |
| GOEST3-10 | 2026-09-03 10:29:38 | 52.41526 | 8.49793 | 118° | 77km/h | 14370m | 5.2m/s | -51.1°C | 4.0% | 139.8hPa | 2.7V | 00:00:00 | 00:00:00 | 08:30:00 | |
| BIOWL7-15 | 2026-09-03 10:29:37 | 52.41526 | 8.49793 | 118° | 78km/h | 14370m | 5.3m/s | -51.2°C | 1.7% | 139.8hPa | 2.7V | 00:00:00 | 00:00:00 | 00:00:00 | |
| DM0DOS-11 | 2026-09-03 10:29:36 | 52.41586 | 8.49597 | 109° | 73km/h | 14333m | 5.5m/s | -50.8°C | 4.1% | 140.7hPa | 2.7V | 08:30:00 | 00:58:06 | 00:00:00 | |
| DL1XH1-15 | 2026-09-03 10:29:35 | 52.41592 | 8.49568 | 108° | 75km/h | 14327m | 6.1m/s | -50.8°C | 4.1% | 140.7hPa | 2.7V | 08:30:00 | 00:58:05 | 00:00:00 | |
| BIOWL1-15 | 2026-09-03 10:29:34 | 52.41563 | 8.49683 | 117° | 77km/h | 14349m | 5.1m/s | -51°C | 1.1% | 140.3hPa | 2.8V | 18:12:15 | 00:58:09 | 00:00:00 | |
| DO2JMG | 2026-09-03 10:29:33 | 52.41571 | 8.49654 | 115° | 77km/h | 14344m | 4.8m/s | -50.9°C | 1.1% | 140.4hPa | 2.8V | 18:12:15 | 00:58:08 | 00:00:00 | |
| DF8AY | 2026-09-03 10:29:32 | 52.41579 | 8.49626 | 113° | 75km/h | 14339m | 6.1m/s | -50.9°C | 1.1% | 140.5hPa | 2.8V | 18:12:15 | 00:58:07 | 00:00:00 | |
| AA1-15 | 2026-09-03 10:29:31 | 52.41586 | 8.49597 | 110° | 73km/h | 14333m | 5.5m/s | -50.8°C | 1.1% | 140.7hPa | 2.7V | 18:12:15 | 00:58:06 | 00:00:00 | |
| DL1XH-west | 2026-09-03 10:29:29 | 52.41598 | 8.49539 | 110° | 77km/h | 14321m | 6.7m/s | -50.8°C | 1.1% | 140.9hPa | 2.7V | 18:12:15 | 00:58:04 | 00:00:00 | |
| DJ2DS-15 | 2026-09-03 10:29:29 | 52.41605 | 8.49508 | 111° | 78km/h | 14315m | 5.0m/s | -50.7°C | 1.6% | 141.1hPa | 2.8V | 00:00:00 | 00:00:00 | 00:00:00 | |
| GOEST3-10 | 2026-09-03 10:29:28 | 52.41605 | 8.49508 | 112° | 80km/h | 14315m | 5.0m/s | -50.7°C | 3.9% | 141.0hPa | 2.8V | 00:00:00 | 00:00:00 | 00:00:00 | |
| DO2SHX-10 | 2026-09-03 10:29:27 | 52.41613 | 8.49478 | 113° | 78km/h | 14309m | 7.2m/s | -50.7°C | 3.9% | 141.1hPa | 2.8V | 00:00:00 | 00:58:02 | 00:00:00 | |
| DM0DOS-11 | 2026-09-03 10:29:26 | 52.41676 | 8.49301 | 122° | 80km/h | 14275m | 5m/s | -50.4°C | 3.9% | 141.9hPa | 2.8V | 08:30:00 | 00:57:56 | 00:00:00 | |
| BIOWL1-15 | 2026-09-03 10:29:26 | 52.41641 | 8.49390 | 121° | 86km/h | 14291m | 6.8m/s | -50.6°C | 1.1% | 141.6hPa | 2.7V | 18:12:15 | 00:57:59 | 00:00:00 | |
| DL1XH1-15 | 2026-09-03 10:29:25 | 52.41686 | 8.49273 | 120° | 78km/h | 14270m | 5.2m/s | -50.4°C | 3.9% | 142hPa | 2.8V | 08:30:00 | 00:57:55 | 00:00:00 | |
| DO2JMG | 2026-09-03 10:29:23 | 52.41653 | 8.49360 | 123° | 88km/h | 14286m | 4.7m/s | -50.5°C | 1.1% | 141.7hPa | 2.7V | 18:12:15 | 00:57:58 | 00:00:00 | |
| DF8AY | 2026-09-03 10:29:21 | 52.41676 | 8.49301 | 122° | 80km/h | 14275m | 5m/s | -50.4°C | 1.1% | 141.9hPa | 2.8V | 18:12:15 | 00:57:56 | 00:00:00 | |
| AA1-15 | 2026-09-03 10:29:20 | 52.41686 | 8.49273 | 121° | 78km/h | 14270m | 5.2m/s | -50.4°C | 1% | 142hPa | 2.8V | 18:12:15 | 00:57:55 | 00:00:00 | |
| DL1XH-west | 2026-09-03 10:29:19 | 52.41696 | 8.49245 | 118° | 78km/h | 14263m | 7.7m/s | -50.4°C | 1% | 142.2hPa | 2.7V | 18:12:15 | 00:57:54 | 00:00:00 | |
| DJ2KF-10 | 2026-09-03 10:29:19 | 52.41696 | 8.49245 | 118° | 86km/h | 14264m | 7.7m/s | -50.3°C | 3.8% | 142.1hPa | 2.7V | 00:00:00 | 00:57:54 | 00:00:00 | |
| DO2SHX-10 | 2026-09-03 10:29:18 | 52.41705 | 8.49216 | 114° | 75km/h | 14257m | 5.4m/s | -50.2°C | 3.8% | 142.3hPa | 2.8V | 00:00:00 | 00:57:53 | 00:00:00 | |
| BIOWL7-15 | 2026-09-03 10:29:16 | 52.41712 | 8.49187 | 113° | 75km/h | 14251m | 6.3m/s | -50.3°C | 1.6% | 142.5hPa | 2.8V | 00:00:00 | 00:00:00 | 00:00:00 | |
| DM0DOS-11 | 2026-09-03 10:29:16 | 52.41761 | 8.49006 | 118° | 88km/h | 14218m | 6.3m/s | -50°C | 3.8% | 143.2hPa | 2.8V | 08:30:00 | 00:57:46 | 00:00:00 | |
| DL1XH1-15 | 2026-09-03 10:29:15 | 52.41771 | 8.48975 | 120° | 84km/h | 14211m | 7.3m/s | -50°C | 3.8% | 143.3hPa | 2.8V | 08:30:00 | 00:57:45 | 00:00:00 | |
| DO2JMG | 2026-09-03 10:29:13 | 52.41741 | 8.49070 | 115° | 84km/h | 14229m | 5.5m/s | -50.1°C | 1% | 142.9hPa | 2.7V | 18:12:15 | 00:57:48 | 00:00:00 | |
| AA1-15 | 2026-09-03 10:29:10 | 52.41771 | 8.48975 | 120° | 84km/h | 14211m | 7.3m/s | -50°C | 1% | 143.3hPa | 2.8V | 18:12:15 | 00:57:45 | 00:00:00 | |
| DL1XH-15 | 2026-09-03 10:29:09 | 52.41837 | 8.48801 | 122° | 84km/h | 14177m | 5.5m/s | -50°C | 3.8% | 144.1hPa | 2.7V | 08:30:00 | 00:57:39 | 00:00:00 | |
| DO2SHX-10 | 2026-09-03 10:29:09 | 52.41782 | 8.48946 | 122° | 80km/h | 14205m | 4.1m/s | -49.8°C | 3.8% | 143.4hPa | 2.7V | 00:00:00 | 00:57:44 | 00:00:00 | |
| GOEST3-10 | 2026-09-03 10:29:08 | 52.41792 | 8.48917 | 122° | 82km/h | 14200m | 5.6m/s | -49.9°C | 3.8% | 143.5hPa | 2.7V | 00:00:00 | 00:00:00 | 00:00:00 | |
| DL1XH-west | 2026-09-03 10:29:08 | 52.41793 | 8.48917 | 121° | 80km/h | 14200m | 5.7m/s | -49.9°C | 1.1% | 143.6hPa | 2.7V | 18:12:15 | 00:57:43 | 00:00:00 | |
| DO9LL-15 | 2026-09-03 10:29:07 | 52.41803 | 8.48889 | 122° | 97km/h | 14195m | 5.6m/s | -50.0°C | 3.8% | 143.6hPa | 2.7V | 00:00:00 | 00:57:42 | 08:30:00 | |
| DM0DOS-11 | 2026-09-03 10:29:06 | 52.41867 | 8.48709 | 113° | 89km/h | 14159m | 7.9m/s | -50.1°C | 3.7% | 144.4hPa | 2.7V | 08:30:00 | 00:57:36 | 00:00:00 | |
| DO2SHX-10 | 2026-09-03 10:29:06 | 52.41814 | 8.48860 | 122° | 84km/h | 14189m | 5.6m/s | -49.9°C | 3.9% | 143.7hPa | 2.7V | 00:00:00 | 00:57:41 | 00:00:00 | |
| DL1XH1-15 | 2026-09-03 10:29:05 | 52.41876 | 8.48674 | 111° | 95km/h | 14152m | 7.1m/s | -50.1°C | 3.8% | 144.6hPa | 2.7V | 08:30:00 | 00:57:35 | 00:00:00 | |
| DO2JMG | 2026-09-03 10:29:02 | 52.41858 | 8.48742 | 117° | 84km/h | 14167m | 7m/s | -50°C | 1% | 144.3hPa | 2.8V | 18:12:15 | 00:57:37 | 00:00:00 | |
| AA1-15 | 2026-09-03 10:29:00 | 52.41876 | 8.48674 | 112° | 95km/h | 14152m | 7.1m/s | -50.1°C | 1% | 144.6hPa | 2.7V | 18:12:15 | 00:57:35 | 00:00:00 | |
| HSKMA3-T | 2026-09-03 10:28:59 | 52.41885 | 8.48637 | 113° | 99km/h | 14145m | 6.3m/s | -50.1°C | 1% | 144.7hPa | 2.8V | 18:12:15 | 00:57:34 | 00:00:00 | |
| DL1XH-west | 2026-09-03 10:28:58 | 52.41895 | 8.48601 | 115° | 95km/h | 14139m | 5.9m/s | -50.2°C | 1% | 144.9hPa | 2.8V | 18:12:15 | 00:57:33 | 00:00:00 | |
| DF5WG-10 | 2026-09-03 10:28:58 | 52.41895 | 8.48601 | 115° | 93km/h | 14139m | 5.9m/s | -50.1°C | 3.8% | 144.9hPa | 2.8V | 00:00:00 | 00:57:33 | 00:00:00 | |
| DK9SH | 2026-09-03 10:28:57 | 52.41895 | 8.48601 | 116° | 95km/h | 14139m | 5.9m/s | -50.2°C | 1.6% | 144.9hPa | 2.8V | 00:00:00 | 00:00:00 | 00:00:00 | |
| DM0DOS-11 | 2026-09-03 10:28:56 | 52.41972 | 8.48366 | 114° | 99km/h | 14100m | 4.7m/s | -50.4°C | 3.8% | 145.8hPa | 2.8V | 08:30:00 | 00:57:26 | 00:00:00 | |
| DO2SHX-10 | 2026-09-03 10:28:56 | 52.41916 | 8.48533 | 119° | 88km/h | 14127m | 6.1m/s | -50.2°C | 3.7% | 145.1hPa | 2.7V | 00:00:00 | 00:57:31 | 00:00:00 | |
| DL1XH1-15 | 2026-09-03 10:28:55 | 52.41982 | 8.48329 | 113° | 99km/h | 14095m | 5.8m/s | -50.4°C | 3.9% | 145.9hPa | 2.8V | 08:30:00 | 00:57:25 | 00:00:00 | |
| BIOWL1-15 | 2026-09-03 10:28:53 | 52.41972 | 8.48366 | 114° | 99km/h | 14100m | 4.7m/s | -50.4°C | 1.1% | 145.8hPa | 2.8V | 18:12:15 | 00:57:26 | 00:00:00 | |
| DO2JMG | 2026-09-03 10:28:52 | 52.41961 | 8.48403 | 117° | 97km/h | 14105m | 4.8m/s | -50.4°C | 1.1% | 145.7hPa | 2.7V | 18:12:15 | 00:57:27 | 00:00:00 | |
| DF8AY | 2026-09-03 10:28:50 | 52.41982 | 8.48329 | 113° | 99km/h | 14095m | 5.8m/s | -50.4°C | 1.1% | 145.9hPa | 2.8V | 18:12:15 | 00:57:25 | 00:00:00 | |
| AA1-15 | 2026-09-03 10:28:49 | 52.41992 | 8.48291 | 113° | 99km/h | 14090m | 4.4m/s | -50.4°C | 1.1% | 145.9hPa | 2.8V | 18:12:15 | 00:57:24 | 00:00:00 | |
| DL1XH-west | 2026-09-03 10:28:47 | 52.42012 | 8.48214 | 114° | 104km/h | 14080m | 5m/s | -50.4°C | 1.2% | 146.2hPa | 2.7V | 18:12:15 | 00:57:22 | 00:00:00 | |
| DO2SHX-10 | 2026-09-03 10:28:47 | 52.42012 | 8.48214 | 114° | 102km/h | 14080m | 4.9m/s | -50.3°C | 3.9% | 146.2hPa | 2.7V | 00:00:00 | 00:57:22 | 08:30:00 | |
| DM0DOS-11 | 2026-09-03 10:28:46 | 52.42075 | 8.47986 | 113° | 99km/h | 14051m | 5.7m/s | -50.6°C | 3.9% | 146.9hPa | 2.7V | 08:30:00 | 00:57:16 | 00:00:00 | |
| DL3AQ-11 | 2026-09-03 10:28:46 | 52.42033 | 8.48137 | 114° | 100km/h | 14070m | 5.5m/s | -50.4°C | 1.7% | 146.5hPa | 2.7V | 00:00:00 | 00:00:00 | 00:00:00 | |
| DL1XH1-15 | 2026-09-03 10:28:45 | 52.42085 | 8.47949 | 112° | 97km/h | 14046m | 4.4m/s | -50.6°C | 3.9% | 147hPa | 2.7V | 08:30:00 | 00:57:15 | 00:00:00 | |
| BUE01 | 2026-09-03 10:28:44 | 52.42044 | 8.48099 | 114° | 99km/h | 14066m | 3.9m/s | -50.4°C | 1.7% | 146.6hPa | 2.7V | 00:00:00 | 00:00:00 | 00:00:00 | |
| DO2JMG | 2026-09-03 10:28:42 | 52.42065 | 8.48023 | 115° | 100km/h | 14056m | 4.6m/s | -50.6°C | 1.2% | 146.8hPa | 2.7V | 18:12:15 | 00:57:17 | 00:00:00 | |
| BIOWL1-15 | 2026-09-03 10:28:40 | 52.42085 | 8.47949 | 112° | 97km/h | 14046m | 4.4m/s | -50.6°C | 1.2% | 147hPa | 2.7V | 18:12:15 | 00:57:15 | 00:00:00 | |
| DF8AY | 2026-09-03 10:28:39 | 52.42094 | 8.47912 | 113° | 95km/h | 14042m | 3.7m/s | -50.8°C | 1.2% | 147hPa | 2.8V | 18:12:15 | 00:57:14 | 00:00:00 | |
| AA1-15 | 2026-09-03 10:28:38 | 52.42104 | 8.47876 | 115° | 95km/h | 14037m | 6.2m/s | -50.8°C | 1.2% | 147.2hPa | 2.8V | 18:12:15 | 00:57:13 | 00:00:00 | |
| DL1XH-west | 2026-09-03 10:28:37 | 52.42115 | 8.47840 | 118° | 97km/h | 14032m | 3.7m/s | -50.8°C | 1.2% | 147.3hPa | 2.8V | 18:12:15 | 00:57:12 | 00:00:00 | |
| DO9LL-15 | 2026-09-03 10:28:37 | 52.42115 | 8.47840 | 118° | 106km/h | 14032m | 3.7m/s | -50.7°C | 3.9% | 147.3hPa | 2.8V | 00:00:00 | 00:57:12 | 00:00:00 | |
| DM0DOS-11 | 2026-09-03 10:28:36 | 52.42192 | 8.47642 | 123° | 97km/h | 14001m | 5.9m/s | -51.2°C | 4% | 148hPa | 2.8V | 08:30:00 | 00:57:06 | 00:00:00 | |
| DL1XH1-15 | 2026-09-03 10:28:35 | 52.42205 | 8.47607 | 119° | 97km/h | 13996m | 4.8m/s | -51.3°C | 4.1% | 148.1hPa | 2.7V | 08:30:00 | 00:57:05 | 00:00:00 | |
| DO2JMG | 2026-09-03 10:28:32 | 52.42179 | 8.47675 | 125° | 99km/h | 14006m | 3.4m/s | -51.2°C | 1.3% | 148hPa | 2.8V | 18:12:15 | 00:57:07 | 00:00:00 | |
| BIOWL1-15 | 2026-09-03 10:28:31 | 52.42217 | 8.47572 | 117° | 99km/h | 13991m | 5m/s | -51.4°C | 1.4% | 148.2hPa | 2.7V | 18:12:15 | 00:57:04 | 00:00:00 | |
| DF8AY | 2026-09-03 10:28:28 | 52.42228 | 8.47535 | 116° | 100km/h | 13986m | 5.5m/s | -51.5°C | 1.3% | 148.4hPa | 2.7V | 18:12:15 | 00:57:03 | 00:00:00 | |
| AA1-15 | 2026-09-03 10:28:27 | 52.42239 | 8.47498 | 116° | 102km/h | 13981m | 5.4m/s | -51.5°C | 1.3% | 148.5hPa | 2.8V | 18:12:15 | 00:57:02 | 00:00:00 | |
| DM0DOS-11 | 2026-09-03 10:28:26 | 52.42311 | 8.47269 | 119° | 110km/h | 13950m | 5.3m/s | -51.9°C | 4.1% | 149.2hPa | 2.8V | 08:30:00 | 00:56:56 | 00:00:00 | |
| DO2SHX-10 | 2026-09-03 10:28:26 | 52.42250 | 8.47460 | 116° | 102km/h | 13976m | 5.0m/s | -51.6°C | 4.1% | 148.6hPa | 2.7V | 00:00:00 | 00:57:01 | 00:00:00 | |
| DL1XH1-15 | 2026-09-03 10:28:25 | 52.42325 | 8.47229 | 118° | 108km/h | 13944m | 6m/s | -51.9°C | 4.1% | 149.3hPa | 2.8V | 08:30:00 | 00:56:55 | 00:00:00 | |
| BIOWL1-15 | 2026-09-03 10:28:21 | 52.42338 | 8.47190 | 119° | 110km/h | 13939m | 4.9m/s | -52°C | 1.4% | 149.4hPa | 2.8V | 18:12:15 | 00:56:54 | 00:00:00 | |
| DO2JMG | 2026-09-03 10:28:21 | 52.42311 | 8.47269 | 119° | 110km/h | 13950m | 5.3m/s | -51.9°C | 1.3% | 149.2hPa | 2.8V | 18:12:15 | 00:56:56 | 00:00:00 | |
| DL1XH-15 | 2026-09-03 10:28:19 | 52.42402 | 8.46996 | 116° | 108km/h | 13917m | 4.1m/s | -52.4°C | 4.3% | 149.9hPa | 2.8V | 08:30:00 | 00:56:49 | 00:00:00 | |
| DF8AY | 2026-09-03 10:28:18 | 52.42351 | 8.47151 | 119° | 110km/h | 13934m | 4.8m/s | -52.1°C | 1.4% | 149.6hPa | 2.7V | 18:12:15 | 00:56:53 | 00:00:00 | |
| DL1XH-west | 2026-09-03 10:28:17 | 52.42365 | 8.47112 | 119° | 108km/h | 13930m | 3.5m/s | -52.2°C | 1.4% | 149.7hPa | 2.7V | 18:12:15 | 00:56:52 | 00:00:00 | |
| AA1-15 | 2026-09-03 10:28:16 | 52.42377 | 8.47073 | 119° | 106km/h | 13926m | 5.2m/s | -52.3°C | 1.4% | 149.8hPa | 2.7V | 18:12:15 | 00:56:51 | 00:00:00 | |
| DL1XH1-15 | 2026-09-03 10:28:15 | 52.42449 | 8.46827 | 112° | 111km/h | 13899m | 4.6m/s | -52.4°C | 4.4% | 150.4hPa | 2.7V | 08:30:00 | 00:56:45 | 00:00:00 | |
| BIOWL1-15 | 2026-09-03 10:28:11 | 52.42460 | 8.46784 | 112° | 111km/h | 13895m | 4.1m/s | -52.4°C | 1.5% | 150.5hPa | 2.8V | 18:12:15 | 00:56:44 | 00:00:00 | |
| DO2JMG | 2026-09-03 10:28:10 | 52.42449 | 8.46827 | 113° | 111km/h | 13899m | 4.6m/s | -52.4°C | 1.5% | 150.4hPa | 2.7V | 18:12:15 | 00:56:45 | 00:00:00 | |
| DF8AY | 2026-09-03 10:28:08 | 52.42471 | 8.46741 | 112° | 113km/h | 13890m | 5.1m/s | -52.4°C | 1.6% | 150.6hPa | 2.8V | 18:12:15 | 00:56:43 | 00:00:00 | |
| HSKMA3-T | 2026-09-03 10:28:07 | 52.42482 | 8.46698 | 113° | 111km/h | 13885m | 4.8m/s | -52.3°C | 1.5% | 150.7hPa | 2.8V | 18:12:15 | 00:56:42 | 00:00:00 | |
| DL1XH-west | 2026-09-03 10:28:06 | 52.42492 | 8.46656 | 113° | 110km/h | 13880m | 6.1m/s | -52.3°C | 1.5% | 150.8hPa | 2.7V | 18:12:15 | 00:56:41 | 00:00:00 | |
| BIOWL1-15 | 2026-09-03 10:27:59 | 52.42572 | 8.46375 | 114° | 110km/h | 13847m | 5.7m/s | -52.3°C | 1.6% | 151.6hPa | 2.8V | 18:12:15 | 00:56:34 | 00:00:00 | |
| HSKMA3-T | 2026-09-03 10:27:57 | 52.42594 | 8.46291 | 113° | 111km/h | 13837m | 5.7m/s | -52.3°C | 1.5% | 151.8hPa | 2.7V | 18:12:15 | 00:56:32 | 00:00:00 | |
| DB0DAN | 2026-09-03 10:27:55 | 52.42616 | 8.46206 | 113° | 106km/h | 13829m | 5.1m/s | -52.5°C | 2% | 152hPa | 2.8V | 00:00:00 | 00:00:00 | 00:00:00 | |
| DL1XH-west | 2026-09-03 10:27:55 | 52.42616 | 8.46206 | 114° | 111km/h | 13829m | 5.1m/s | -52.5°C | 1.6% | 152hPa | 2.8V | 18:12:15 | 00:56:30 | 00:00:00 | |
| DO2JMG | 2026-09-03 10:27:48 | 52.42706 | 8.45926 | 120° | 110km/h | 13794m | 4.3m/s | -52.7°C | 1.7% | 152.8hPa | 2.7V | 18:12:15 | 00:56:23 | 00:00:00 | |
| HSKMA3-T | 2026-09-03 10:27:46 | 52.42734 | 8.45845 | 119° | 115km/h | 13785m | 5.3m/s | -52.8°C | 1.7% | 153.1hPa | 2.8V | 18:12:15 | 00:56:21 | 00:00:00 | |
| DL1XH-west | 2026-09-03 10:27:45 | 52.42748 | 8.45803 | 118° | 119km/h | 13780m | 4.4m/s | -52.8°C | 1.8% | 153.2hPa | 2.8V | 18:12:15 | 00:56:20 | 00:00:00 | |
| AA1-15 | 2026-09-03 10:27:44 | 52.42762 | 8.45759 | 118° | 119km/h | 13776m | 4.2m/s | -52.8°C | 1.8% | 153.3hPa | 2.8V | 18:12:15 | 00:56:19 | 00:00:00 | |
| BIOWL1-15 | 2026-09-03 10:27:38 | 52.42845 | 8.45505 | 118° | 115km/h | 13749m | 5.1m/s | -53°C | 1.9% | 154hPa | 2.8V | 18:12:15 | 00:56:13 | 00:00:00 | |
| DO2JMG | 2026-09-03 10:27:37 | 52.42858 | 8.45462 | 118° | 117km/h | 13744m | 4.6m/s | -53.1°C | 1.9% | 154hPa | 2.7V | 18:12:15 | 00:56:12 | 00:00:00 | |
| DM0DOS-11 | 2026-09-03 10:27:36 | 52.42935 | 8.45195 | 113° | 122km/h | 13715m | 4.1m/s | -53.2°C | 4.6% | 154.7hPa | 2.7V | 08:30:00 | 00:56:06 | 00:00:00 | |
| HSKMA3-T | 2026-09-03 10:27:36 | 52.42872 | 8.45419 | 117° | 119km/h | 13739m | 5.5m/s | -53.1°C | 1.9% | 154.1hPa | 2.7V | 18:12:15 | 00:56:11 | 00:00:00 | |
| DF8AY | 2026-09-03 10:27:35 | 52.42885 | 8.45375 | 116° | 119km/h | 13734m | 4.2m/s | -53.1°C | 1.9% | 154.3hPa | 2.7V | 18:12:15 | 00:56:10 | 00:00:00 | |
| AA1-15 | 2026-09-03 10:27:34 | 52.42898 | 8.45331 | 115° | 119km/h | 13729m | 5.9m/s | -53.2°C | 1.9% | 154.4hPa | 2.8V | 18:12:15 | 00:56:09 | 00:00:00 | |
| DJ2DS-15 | 2026-09-03 10:27:34 | 52.42898 | 8.45331 | 115° | 115km/h | 13729m | 5.8m/s | -53.1°C | 4.6% | 154.3hPa | 2.7V | 00:00:00 | 00:56:09 | 00:00:00 | |
| DD8BA-10 | 2026-09-03 10:27:33 | 52.42910 | 8.45286 | 114° | 115km/h | 13724m | 4.1m/s | -53.1°C | 4.6% | 154.5hPa | 2.7V | 00:00:00 | 00:00:00 | 00:00:00 | |
| DO2SHX-10 | 2026-09-03 10:27:31 | 52.42935 | 8.45195 | 114° | 120km/h | 13715m | 4.0m/s | 0°C | 0% | 0hPa | 2.7V | 00:00:00 | 00:56:06 | 00:00:00 | |
| DL1XH-15 | 2026-09-03 10:27:29 | 52.43019 | 8.44897 | 114° | 104km/h | 13682m | 3.6m/s | -53.4°C | 4.8% | 155.5hPa | 2.7V | 08:30:00 | 00:55:59 | 00:00:00 | |
| BIOWL1-15 | 2026-09-03 10:27:28 | 52.42971 | 8.45061 | 115° | 115km/h | 13701m | 4.7m/s | -53.4°C | 2% | 155.1hPa | 2.8V | 18:12:15 | 00:56:03 | 00:00:00 | |
| DO2JMG | 2026-09-03 10:27:26 | 52.42996 | 8.44977 | 117° | 110km/h | 13691m | 3.9m/s | -53.4°C | 2% | 155.3hPa | 2.8V | 18:12:15 | 00:56:01 | 00:00:00 | |
| HSKMA3-T | 2026-09-03 10:27:25 | 52.43008 | 8.44936 | 116° | 108km/h | 13686m | 5.7m/s | -53.4°C | 2% | 155.4hPa | 2.7V | 18:12:15 | 00:56:00 | 00:00:00 | |
| DF8AY | 2026-09-03 10:27:24 | 52.43020 | 8.44897 | 115° | 104km/h | 13682m | 3.6m/s | -53.4°C | 2.1% | 155.5hPa | 2.7V | 18:12:15 | 00:55:59 | 00:00:00 | |
| DL1XH-west | 2026-09-03 10:27:23 | 52.43030 | 8.44857 | 114° | 106km/h | 13678m | 4.3m/s | -53.4°C | 2.1% | 155.6hPa | 2.8V | 18:12:15 | 00:55:58 | 00:00:00 | |
| DD8BA-10 | 2026-09-03 10:27:23 | 52.43030 | 8.44857 | 114° | 113km/h | 13678m | 4.3m/s | -53.4°C | 4.9% | 155.6hPa | 2.8V | 00:00:00 | 00:00:00 | 00:00:00 | |
| DO2SHX-10 | 2026-09-03 10:27:22 | 52.43041 | 8.44817 | 114° | 119km/h | 13673m | 4.8m/s | 0°C | 0% | 0hPa | 2.8V | 00:00:00 | 00:55:57 | 00:00:00 | |
| BIOWL9-15 | 2026-09-03 10:27:21 | 52.43052 | 8.44774 | 112° | 111km/h | 13669m | 3.9m/s | -53.4°C | 2.3% | 155.8hPa | 2.8V | 00:00:00 | 00:00:00 | 00:00:00 | |
| DL1XH-15 | 2026-09-03 10:27:19 | 52.43128 | 8.44465 | 112° | 111km/h | 13636m | 3.7m/s | -53.4°C | 4.9% | 156.6hPa | 2.8V | 08:30:00 | 00:55:49 | 00:00:00 | |
| BIOWL1-15 | 2026-09-03 10:27:18 | 52.43084 | 8.44642 | 111° | 115km/h | 13655m | 4.8m/s | -53.4°C | 2.2% | 156.2hPa | 2.8V | 18:12:15 | 00:55:53 | 00:00:00 | |
| DF5WG-10 | 2026-09-03 10:27:18 | 52.43084 | 8.44642 | 112° | 110km/h | 13655m | 4.7m/s | -53.4°C | 4.9% | 156.1hPa | 2.7V | 00:00:00 | 00:55:53 | 00:00:00 | |
| AU51GT2 | 2026-09-03 10:27:17 | 52.43094 | 8.44597 | 112° | 115km/h | 13650m | 5.4m/s | -53.5°C | 2.3% | 156.3hPa | 2.7V | 00:00:00 | 00:00:00 | 00:00:00 | |
| DM0DOS-11 | 2026-09-03 10:27:16 | 52.43160 | 8.44344 | 113° | 100km/h | 13620m | 5.8m/s | -53.4°C | 4.9% | 157hPa | 2.7V | 08:30:00 | 00:55:46 | 00:00:00 | |
| DO2JMG | 2026-09-03 10:27:16 | 52.43106 | 8.44553 | 112° | 117km/h | 13645m | 4.3m/s | -53.5°C | 2.2% | 156.5hPa | 2.7V | 18:12:15 | 00:55:51 | 00:00:00 | |
| HSKMA3-T | 2026-09-03 10:27:14 | 52.43128 | 8.44465 | 112° | 111km/h | 13636m | 3.7m/s | -53.4°C | 2.2% | 156.6hPa | 2.8V | 18:12:15 | 00:55:49 | 00:00:00 | |
| DL1XH-west | 2026-09-03 10:27:12 | 52.43149 | 8.44383 | 114° | 104km/h | 13625m | 4.8m/s | -53.4°C | 2.2% | 156.9hPa | 2.7V | 18:12:15 | 00:55:47 | 00:00:00 | |
| DB0DAN | 2026-09-03 10:27:10 | 52.43170 | 8.44306 | 114° | 95km/h | 13615m | 4.2m/s | -53.5°C | 2.4% | 157.12hPa | 2.7V | 00:00:00 | 00:00:00 | 00:00:00 | |
| DL1XH-15 | 2026-09-03 10:27:09 | 52.43232 | 8.44072 | 112° | 113km/h | 13587m | 5.6m/s | -53.9°C | 5.1% | 157.8hPa | 2.7V | 08:30:00 | 00:55:39 | 00:00:00 | |
| BIOWL1-15 | 2026-09-03 10:27:07 | 52.43200 | 8.44195 | 113° | 100km/h | 13601m | 4.8m/s | -53.6°C | 2.2% | 157.5hPa | 2.8V | 18:12:15 | 00:55:42 | 00:00:00 | |
| DM0DOS-11 | 2026-09-03 10:27:06 | 52.43264 | 8.43941 | 112° | 113km/h | 13571m | 4m/s | -53.9°C | 5.1% | 158.2hPa | 2.8V | 08:30:00 | 00:55:36 | 00:00:00 | |
| DO9LL-15 | 2026-09-03 10:27:06 | 52.43210 | 8.44155 | 113° | 110km/h | 13597m | 4.5m/s | -53.6°C | 4.9% | 157.5hPa | 2.7V | 00:00:00 | 00:55:41 | 00:00:00 | |
| DL1XH1-15 | 2026-09-03 10:27:05 | 52.43276 | 8.43898 | 113° | 113km/h | 13566m | 6m/s | -53.8°C | 5.1% | 158.4hPa | 2.7V | 08:30:00 | 00:55:35 | 00:00:00 | |
| DO2JMG | 2026-09-03 10:27:05 | 52.43221 | 8.44114 | 113° | 110km/h | 13592m | 4.9m/s | -53.8°C | 2.2% | 157.7hPa | 2.7V | 18:12:15 | 00:55:40 | 00:00:00 | |
| HSKMA3-T | 2026-09-03 10:27:04 | 52.43232 | 8.44072 | 113° | 113km/h | 13587m | 5.6m/s | -53.9°C | 2.4% | 157.8hPa | 2.7V | 18:12:15 | 00:55:39 | 00:00:00 | |
| AA1-15 | 2026-09-03 10:27:02 | 52.43254 | 8.43985 | 112° | 113km/h | 13576m | 5.8m/s | -53.9°C | 2.4% | 158.1hPa | 2.8V | 18:12:15 | 00:55:37 | 00:00:00 | |
| DL1XH-west | 2026-09-03 10:27:01 | 52.43264 | 8.43941 | 112° | 113km/h | 13571m | 4m/s | -53.9°C | 2.4% | 158.2hPa | 2.8V | 18:12:15 | 00:55:36 | 00:00:00 | |
| DD1CC3-15 | 2026-09-03 10:27:00 | 52.43264 | 8.43941 | 113° | 113km/h | 13571m | 4.0m/s | -53.9°C | 2.5% | 158.2hPa | 2.7V | 00:00:00 | 00:00:00 | 00:00:00 | |
| DL1XH-15 | 2026-09-03 10:26:59 | 52.43351 | 8.43663 | 119° | 102km/h | 13538m | 4.4m/s | -53.8°C | 5.1% | 159hPa | 2.7V | 08:30:00 | 00:55:29 | 00:00:00 | |
| BIOWL1-15 | 2026-09-03 10:26:57 | 52.43313 | 8.43777 | 118° | 106km/h | 13552m | 4.6m/s | -53.8°C | 2.4% | 158.7hPa | 2.8V | 18:12:15 | 00:55:32 | 00:00:00 | |
| DB0DAN | 2026-09-03 10:26:55 | 52.43338 | 8.43700 | 120° | 100km/h | 13543m | 4.7m/s | -53.7°C | 2.5% | 158.93hPa | 2.8V | 00:00:00 | 00:00:00 | 00:00:00 | |
| DL1XH1-15 | 2026-09-03 10:26:55 | 52.43402 | 8.43514 | 117° | 108km/h | 13521m | 3.8m/s | -53.8°C | 5.2% | 159.5hPa | 2.7V | 08:30:00 | 00:55:25 | 00:00:00 | |
| DO2JMG | 2026-09-03 10:26:54 | 52.43351 | 8.43663 | 120° | 102km/h | 13538m | 4.4m/s | -53.8°C | 2.4% | 159hPa | 2.7V | 18:12:15 | 00:55:29 | 00:00:00 | |
| HSKMA3-T | 2026-09-03 10:26:53 | 52.43364 | 8.43626 | 120° | 100km/h | 13534m | 4.5m/s | -53.8°C | 2.4% | 159.1hPa | 2.7V | 18:12:15 | 00:55:28 | 00:00:00 | |
| AA1-15 | 2026-09-03 10:26:52 | 52.43377 | 8.43590 | 119° | 102km/h | 13530m | 3.3m/s | -53.8°C | 2.5% | 159.2hPa | 2.8V | 18:12:15 | 00:55:27 | 00:00:00 | |
| DL1XH-west | 2026-09-03 10:26:50 | 52.43402 | 8.43514 | 118° | 110km/h | 13521m | 3.8m/s | -53.8°C | 2.5% | 159.5hPa | 2.7V | 18:12:15 | 00:55:25 | 00:00:00 | |
| BIOWL1-15 | 2026-09-03 10:26:48 | 52.43451 | 8.43346 | 115° | 115km/h | 13502m | 4.1m/s | -53.8°C | 2.5% | 159.9hPa | 2.7V | 18:12:15 | 00:55:21 | 00:00:00 | |
| DJ2KF-10 | 2026-09-03 10:26:48 | 52.43427 | 8.43431 | 115° | 115km/h | 13512m | 4.4m/s | -53.7°C | 5.2% | 159.7hPa | 2.7V | 00:00:00 | 00:55:23 | 00:00:00 | |
| DO2KSM | 2026-09-03 10:26:47 | 52.43427 | 8.43431 | 116° | 113km/h | 13512m | 4.4m/s | -53.8°C | 2.5% | 159.7hPa | 2.7V | 00:00:00 | 00:00:00 | 00:00:00 | |
| DM0DOS-11 | 2026-09-03 10:26:46 | 52.43511 | 8.43138 | 115° | 111km/h | 13479m | 5m/s | -53.9°C | 5.1% | 160.5hPa | 2.7V | 08:30:00 | 00:55:16 | 00:00:00 | |
| DL3AQ-11 | 2026-09-03 10:26:46 | 52.43463 | 8.43303 | 114° | 111km/h | 13497m | 5.3m/s | -53.7°C | 2.5% | 160.1hPa | 2.8V | 00:00:00 | 00:00:00 | 00:00:00 | |
| DF8AY | 2026-09-03 10:26:43 | 52.43487 | 8.43220 | 115° | 110km/h | 13489m | 3.4m/s | -53.8°C | 2.4% | 160.2hPa | 2.8V | 18:12:15 | 00:55:18 | 00:00:00 | |
| HSKMA3-T | 2026-09-03 10:26:42 | 52.43499 | 8.43179 | 115° | 110km/h | 13484m | 5.3m/s | -53.8°C | 2.5% | 160.4hPa | 2.8V | 18:12:15 | 00:55:17 | 00:00:00 | |
| AA1-15 | 2026-09-03 10:26:41 | 52.43511 | 8.43138 | 116° | 111km/h | 13479m | 5m/s | -53.9°C | 2.4% | 160.5hPa | 2.7V | 18:12:15 | 00:55:16 | 00:00:00 | |
| D01LWL | 2026-09-03 10:26:40 | 52.43535 | 8.43056 | 116° | 111km/h | 13469m | 4.3m/s | -53.8°C | 2.5% | 160.7hPa | 2.7V | 00:00:00 | 00:00:00 | 00:00:00 | |
| DL1XH-15 | 2026-09-03 10:26:39 | 52.43606 | 8.42846 | 120° | 119km/h | 13444m | 5m/s | -53.9°C | 5.4% | 161.4hPa | 2.7V | 08:30:00 | 00:55:09 | 00:00:00 | |
| DL1XH-west | 2026-09-03 10:26:39 | 52.43535 | 8.43056 | 117° | 111km/h | 13469m | 4.3m/s | -53.8°C | 2.5% | 160.7hPa | 2.7V | 18:12:15 | 00:55:14 | 00:00:00 | |
| DL4BBY-15 | 2026-09-03 10:26:39 | 52.43535 | 8.43056 | 117° | 119km/h | 13469m | 4.2m/s | -52.5°C | 0% | 0hPa | 2.8V | 00:00:00 | 00:00:00 | 00:00:00 | |
| DF5WG-10 | 2026-09-03 10:26:38 | 52.43548 | 8.43014 | 118° | 117km/h | 13464m | 5.9m/s | -53.8°C | 5.2% | 160.8hPa | 2.8V | 00:00:00 | 00:55:13 | 00:00:00 | |
| DL1CLM-18 | 2026-09-03 10:26:37 | 52.43562 | 8.42972 | 120° | 117km/h | 13458m | 4.5m/s | -53.9°C | 2.6% | 161.0hPa | 2.8V | 00:00:00 | 00:00:00 | 00:00:00 | |
| DM0DOS-11 | 2026-09-03 10:26:36 | 52.43649 | 8.42715 | 116° | 117km/h | 13431m | 5.1m/s | -53.8°C | 5.4% | 161.7hPa | 2.8V | 08:30:00 | 00:55:06 | 00:00:00 | |
| BIOWL1-15 | 2026-09-03 10:26:35 | 52.43591 | 8.42888 | 120° | 117km/h | 13448m | 3.4m/s | -53.9°C | 2.6% | 161.3hPa | 2.7V | 18:12:15 | 00:55:10 | 00:00:00 | |
| DO2JMG | 2026-09-03 10:26:33 | 52.43621 | 8.42803 | 120° | 120km/h | 13439m | 4.2m/s | -53.9°C | 2.6% | 161.5hPa | 2.7V | 18:12:15 | 00:55:08 | 00:00:00 | |
| HSKMA3-T | 2026-09-03 10:26:31 | 52.43649 | 8.42715 | 116° | 117km/h | 13431m | 5.1m/s | -53.8°C | 2.6% | 161.7hPa | 2.8V | 18:12:15 | 00:55:06 | 00:00:00 | |
| AA1-15 | 2026-09-03 10:26:30 | 52.43662 | 8.42672 | 115° | 115km/h | 13426m | 3.6m/s | -53.9°C | 2.7% | 161.8hPa | 2.8V | 18:12:15 | 00:55:05 | 00:00:00 | |
| DL1XH-west | 2026-09-03 10:26:28 | 52.43686 | 8.42584 | 114° | 115km/h | 13417m | 3.6m/s | -53.8°C | 2.6% | 162hPa | 2.7V | 18:12:15 | 00:55:03 | 00:00:00 | |
| DF5WG-10 | 2026-09-03 10:26:28 | 52.43686 | 8.42584 | 114° | 115km/h | 13417m | 3.6m/s | -53.8°C | 5.4% | 162.0hPa | 2.8V | 00:00:00 | 00:55:03 | 00:00:00 | |
| DO2KSM | 2026-09-03 10:26:27 | 52.43686 | 8.42584 | 115° | 115km/h | 13417m | 3.6m/s | -53.8°C | 2.7% | 162.0hPa | 2.8V | 00:00:00 | 00:00:00 | 00:00:00 | |
| DM0DOS-11 | 2026-09-03 10:26:26 | 52.43776 | 8.42297 | 121° | 117km/h | 13382m | 5.5m/s | -53.7°C | 5.2% | 162.9hPa | 2.8V | 08:30:00 | 00:54:56 | 00:00:00 | |
| BIOWL1-15 | 2026-09-03 10:26:26 | 52.43733 | 8.42415 | 118° | 110km/h | 13398m | 3.9m/s | -53.8°C | 2.5% | 162.5hPa | 2.8V | 18:12:15 | 00:54:59 | 00:00:00 | |
| DB0DAN | 2026-09-03 10:26:25 | 52.43720 | 8.42456 | 116° | 106km/h | 13402m | 5.4m/s | -53.9°C | 2.6% | 162.41hPa | 2.8V | 00:00:00 | 00:00:00 | 00:00:00 | |
| DO2JMG | 2026-09-03 10:26:22 | 52.43761 | 8.42337 | 122° | 111km/h | 13388m | 5.3m/s | -53.9°C | 2.5% | 162.8hPa | 2.7V | 18:12:15 | 00:54:57 | 00:00:00 | |
| DF8AY | 2026-09-03 10:26:21 | 52.43776 | 8.42297 | 122° | 117km/h | 13383m | 5.5m/s | -53.7°C | 2.5% | 162.9hPa | 2.8V | 18:12:15 | 00:54:56 | 00:00:00 | |
| HSKMA3-T | 2026-09-03 10:26:20 | 52.43792 | 8.42255 | 121° | 122km/h | 13378m | 4.2m/s | -53.7°C | 2.5% | 163.1hPa | 2.8V | 18:12:15 | 00:54:55 | 00:00:00 | |
| AA1-15 | 2026-09-03 10:26:19 | 52.43807 | 8.42211 | 120° | 124km/h | 13372m | 6.5m/s | -53.7°C | 2.4% | 163.2hPa | 2.7V | 18:12:15 | 00:54:54 | 00:00:00 | |
| DL1XH-west | 2026-09-03 10:26:17 | 52.43837 | 8.42119 | 116° | 126km/h | 13361m | 6.3m/s | -53.6°C | 2.4% | 163.5hPa | 2.8V | 18:12:15 | 00:54:52 | 00:00:00 | |
| BIOWL1-15 | 2026-09-03 10:26:14 | 52.43878 | 8.41977 | 116° | 124km/h | 13344m | 5.9m/s | -53.6°C | 2.4% | 163.9hPa | 2.7V | 18:12:15 | 00:54:49 | 00:00:00 | |
| DO2JMG | 2026-09-03 10:26:11 | 52.43919 | 8.41838 | 114° | 124km/h | 13328m | 4.7m/s | -53.5°C | 2.4% | 164.4hPa | 2.8V | 18:12:15 | 00:54:46 | 00:00:00 | |
| HSKMA3-T | 2026-09-03 10:26:09 | 52.43945 | 8.41745 | 115° | 124km/h | 13317m | 4.5m/s | -53.5°C | 2.4% | 164.7hPa | 2.8V | 18:12:15 | 00:54:44 | 00:00:00 | |
| AA1-15 | 2026-09-03 10:26:08 | 52.43958 | 8.41697 | 115° | 128km/h | 13313m | 4.6m/s | -53.5°C | 2.4% | 164.7hPa | 2.7V | 18:12:15 | 00:54:43 | 00:00:00 | |
| DF5WG-10 | 2026-09-03 10:26:08 | 52.43958 | 8.41697 | 115° | 128km/h | 13313m | 4.5m/s | -53.5°C | 5.1% | 164.7hPa | 2.7V | 00:00:00 | 00:54:43 | 00:00:00 | |
| BIOWL7-15 | 2026-09-03 10:26:07 | 52.43958 | 8.41697 | 116° | 128km/h | 13313m | 4.6m/s | -53.5°C | 2.5% | 164.7hPa | 2.7V | 00:00:00 | 00:00:00 | 00:00:00 | |
| DM0DOS-11 | 2026-09-03 10:26:06 | 52.44051 | 8.41358 | 112° | 126km/h | 13280m | 4m/s | -53.7°C | 5.1% | 165.7hPa | 2.7V | 08:30:00 | 00:54:36 | 00:00:00 | |
| DL1XH-west | 2026-09-03 10:26:06 | 52.43985 | 8.41599 | 114° | 131km/h | 13304m | 3.5m/s | -53.6°C | 2.4% | 165hPa | 2.7V | 18:12:15 | 00:54:41 | 00:00:00 | |
| BIOWL1-15 | 2026-09-03 10:26:06 | 52.44012 | 8.41502 | 115° | 126km/h | 13294m | 4.7m/s | -53.7°C | 2.4% | 165.2hPa | 2.8V | 18:12:15 | 00:54:39 | 00:00:00 | |
| DF8AY | 2026-09-03 10:26:01 | 52.44051 | 8.41358 | 113° | 126km/h | 13280m | 4.1m/s | -53.7°C | 2.4% | 165.7hPa | 2.7V | 18:12:15 | 00:54:36 | 00:00:00 | |
| DO2JMG | 2026-09-03 10:26:00 | 52.44063 | 8.41310 | 114° | 126km/h | 13275m | 5.5m/s | -53.7°C | 2.4% | 165.7hPa | 2.8V | 18:12:15 | 00:54:35 | 00:00:00 | |
| HSKMA3-T | 2026-09-03 10:25:58 | 52.44089 | 8.41215 | 114° | 126km/h | 13266m | 4.9m/s | -53.7°C | 2.5% | 165.9hPa | 2.7V | 18:12:15 | 00:54:33 | 00:00:00 | |
| BIOWL1-15 | 2026-09-03 10:25:58 | 52.44141 | 8.41030 | 116° | 120km/h | 13247m | 4.1m/s | -53.6°C | 2.6% | 166.5hPa | 2.8V | 18:12:15 | 00:54:29 | 00:00:00 | |
| DF5WG-10 | 2026-09-03 10:25:58 | 52.44089 | 8.41215 | 115° | 124km/h | 13266m | 4.9m/s | -53.7°C | 5.2% | 165.9hPa | 2.7V | 00:00:00 | 00:54:33 | 00:00:00 | |
| DM0DOS-11 | 2026-09-03 10:25:56 | 52.44181 | 8.40892 | 115° | 126km/h | 13234m | 4.6m/s | -53.6°C | 5.2% | 166.8hPa | 2.7V | 08:30:00 | 00:54:26 | 00:00:00 | |
| DB0DAN | 2026-09-03 10:25:55 | 52.44128 | 8.41075 | 116° | 117km/h | 13251m | 5.5m/s | -53.7°C | 2.7% | 166.36hPa | 2.8V | 00:00:00 | 00:00:00 | 00:00:00 | |
| DL1XH-west | 2026-09-03 10:25:55 | 52.44128 | 8.41075 | 116° | 122km/h | 13251m | 5.5m/s | -53.7°C | 2.5% | 166.4hPa | 2.8V | 18:12:15 | 00:54:30 | 00:00:00 | |
| DF8AY | 2026-09-03 10:25:50 | 52.44195 | 8.40846 | 116° | 126km/h | 13229m | 5.1m/s | 0°C | 0% | 166.9hPa | 2.8V | 18:12:15 | 00:54:25 | 00:00:00 | |
| DO2JMG | 2026-09-03 10:25:49 | 52.44209 | 8.40799 | 117° | 126km/h | 13225m | 4m/s | -53.5°C | 2.5% | 167.1hPa | 2.8V | 18:12:15 | 00:54:24 | 00:00:00 | |
| HSKMA3-T | 2026-09-03 10:25:48 | 52.44223 | 8.40753 | 116° | 124km/h | 13221m | 4.5m/s | -53.5°C | 2.5% | 167.2hPa | 2.8V | 18:12:15 | 00:54:23 | 00:00:00 | |
| AA1-15 | 2026-09-03 10:25:47 | 52.44236 | 8.40706 | 115° | 124km/h | 13216m | 5.3m/s | -53.4°C | 2.4% | 167.3hPa | 2.7V | 18:12:15 | 00:54:22 | 00:00:00 | |
| DJ2KF-10 | 2026-09-03 10:25:47 | 52.44236 | 8.40706 | 115° | 119km/h | 13216m | 5.2m/s | -53.4°C | 5.1% | 167.3hPa | 2.7V | 00:00:00 | 00:54:22 | 00:00:00 | |
| DM0DOS-11 | 2026-09-03 10:25:46 | 52.44319 | 8.40436 | 119° | 115km/h | 13183m | 5.8m/s | -53.2°C | 5.1% | 168.1hPa | 2.7V | 08:30:00 | 00:54:16 | 00:00:00 | |
| DL1XH-west | 2026-09-03 10:25:44 | 52.44276 | 8.40567 | 117° | 122km/h | 13201m | 5.9m/s | -53.3°C | 2.4% | 167.7hPa | 2.8V | 18:12:15 | 00:54:19 | 00:00:00 | |
| BIOWL1-15 | 2026-09-03 10:25:43 | 52.44290 | 8.40522 | 118° | 120km/h | 13196m | 5.2m/s | -53.3°C | 2.4% | 167.8hPa | 2.8V | 18:12:15 | 00:54:18 | 00:00:00 | |
| DF8AY | 2026-09-03 10:25:39 | 52.44349 | 8.40354 | 122° | 115km/h | 13174m | 5.2m/s | 0°C | 0% | 168.4hPa | 2.8V | 18:12:15 | 00:54:14 | 00:00:00 | |
| DO2JMG | 2026-09-03 10:25:38 | 52.44364 | 8.40313 | 122° | 117km/h | 13169m | 4.5m/s | -53.2°C | 2.5% | 168.4hPa | 2.8V | 18:12:15 | 00:54:13 | 00:00:00 | |
| AA1-15 | 2026-09-03 10:25:37 | 52.44380 | 8.40272 | 121° | 117km/h | 13165m | 3.7m/s | -53.2°C | 2.5% | 168.6hPa | 2.7V | 18:12:15 | 00:54:12 | 00:00:00 | |
| DO2SHX-10 | 2026-09-03 10:25:37 | 52.44380 | 8.40272 | 122° | 117km/h | 13165m | 3.6m/s | 0°C | 0% | 0hPa | 2.7V | 00:00:00 | 00:54:12 | 00:00:00 | |
| DM0DOS-11 | 2026-09-03 10:25:36 | 52.44464 | 8.40013 | 116° | 119km/h | 13136m | 4m/s | -53.1°C | 5.2% | 169.3hPa | 2.7V | 08:30:00 | 00:54:06 | 00:00:00 | |
| DO9LL-15 | 2026-09-03 10:25:36 | 52.44395 | 8.40230 | 120° | 119km/h | 13161m | 5.3m/s | -53.1°C | 5.1% | 168.7hPa | 2.7V | 00:00:00 | 00:54:11 | 00:00:00 | |
| DL1XH1-15 | 2026-09-03 10:25:35 | 52.44478 | 8.39969 | 117° | 120km/h | 13131m | 5m/s | -53.1°C | 5.1% | 169.4hPa | 2.7V | 08:30:00 | 00:54:05 | 00:00:00 | |
| BIOWL1-15 | 2026-09-03 10:25:34 | 52.44451 | 8.40057 | 117° | 119km/h | 13141m | 5.8m/s | -53.2°C | 2.6% | 169.2hPa | 2.7V | 18:12:15 | 00:54:07 | 00:00:00 | |
| DL1XH-west | 2026-09-03 10:25:34 | 52.44423 | 8.40144 | 118° | 120km/h | 13151m | 5.2m/s | -53.2°C | 2.5% | 168.9hPa | 2.8V | 18:12:15 | 00:54:09 | 00:00:00 | |
| DO2JMG | 2026-09-03 10:25:28 | 52.44507 | 8.39880 | 118° | 122km/h | 13122m | 4.4m/s | -53°C | 2.6% | 169.7hPa | 2.8V | 18:12:15 | 00:54:03 | 00:00:00 | |
| AA1-15 | 2026-09-03 10:25:27 | 52.44521 | 8.39836 | 118° | 120km/h | 13117m | 4.5m/s | -53°C | 2.6% | 169.9hPa | 2.8V | 18:12:15 | 00:54:02 | 00:00:00 | |
| DM0DOS-11 | 2026-09-03 10:25:26 | 52.44609 | 8.39577 | 120° | 117km/h | 13090m | 5.3m/s | -53.1°C | 5.2% | 170.5hPa | 2.8V | 08:30:00 | 00:53:56 | 00:00:00 | |
| HSKMA3-T | 2026-09-03 10:25:26 | 52.44535 | 8.39792 | 118° | 119km/h | 13113m | 4.1m/s | -53°C | 2.7% | 169.9hPa | 2.7V | 18:12:15 | 00:54:01 | 00:00:00 | |
| DL1XH1-15 | 2026-09-03 10:25:25 | 52.44624 | 8.39535 | 120° | 117km/h | 13084m | 5.3m/s | -53.1°C | 5.2% | 170.7hPa | 2.7V | 08:30:00 | 00:53:55 | 00:00:00 | |
| DL1XH-west | 2026-09-03 10:25:24 | 52.44564 | 8.39704 | 119° | 120km/h | 13105m | 4.5m/s | -53°C | 2.6% | 170.2hPa | 2.7V | 18:12:15 | 00:53:59 | 00:00:00 | |
| BIOWL1-15 | 2026-09-03 10:25:21 | 52.44609 | 8.39577 | 120° | 117km/h | 13090m | 5.3m/s | -53.1°C | 2.6% | 170.5hPa | 2.8V | 18:12:15 | 00:53:56 | 00:00:00 | |
| DC6BW-12 | 2026-09-03 10:25:20 | 52.44609 | 8.39577 | 121° | 117km/h | 13090m | 5.3m/s | -53.1°C | 2.7% | 170.5hPa | 2.7V | 00:00:00 | 00:00:00 | 00:00:00 | |
| DL1XH-15 | 2026-09-03 10:25:19 | 52.44708 | 8.39289 | 119° | 113km/h | 13056m | 5.5m/s | -53.2°C | 5.2% | 171.5hPa | 2.7V | 08:30:00 | 00:53:49 | 00:00:00 | |
| DO2JMG | 2026-09-03 10:25:18 | 52.44652 | 8.39453 | 119° | 113km/h | 13074m | 5.1m/s | -53.1°C | 2.7% | 171hPa | 2.8V | 18:12:15 | 00:53:53 | 00:00:00 | |
| AA1-15 | 2026-09-03 10:25:16 | 52.44679 | 8.39371 | 119° | 113km/h | 13065m | 5.3m/s | -53.2°C | 2.7% | 171.2hPa | 2.8V | 18:12:15 | 00:53:51 | 00:00:00 | |
| DO2SHX-10 | 2026-09-03 10:25:16 | 52.44679 | 8.39371 | 119° | 119km/h | 13066m | 5.3m/s | 0°C | 0% | 0hPa | 2.8V | 00:00:00 | 00:53:51 | 00:00:00 | |
| DL1XH1-15 | 2026-09-03 10:25:15 | 52.44768 | 8.39123 | 121° | 119km/h | 13035m | 5.2m/s | -53.3°C | 5.3% | 172hPa | 2.8V | 08:30:00 | 00:53:45 | 00:00:00 | |
| DL1XH-west | 2026-09-03 10:25:13 | 52.44722 | 8.39248 | 120° | 115km/h | 13051m | 4.7m/s | -53.3°C | 2.8% | 171.6hPa | 2.7V | 18:12:15 | 00:53:48 | 00:00:00 | |
| BIOWL1-15 | 2026-09-03 10:25:11 | 52.44752 | 8.39165 | 122° | 119km/h | 13040m | 5.5m/s | -53.3°C | 2.8% | 171.8hPa | 2.8V | 18:12:15 | 00:53:46 | 00:00:00 | |
| DK9SH | 2026-09-03 10:25:10 | 52.44752 | 8.39165 | 123° | 119km/h | 13040m | 5.5m/s | -53.3°C | 2.7% | 171.8hPa | 2.8V | 00:00:00 | 00:00:00 | 00:00:00 | |
| DL1XH-15 | 2026-09-03 10:25:09 | 52.44861 | 8.38871 | 120° | 117km/h | 13005m | 5.2m/s | -53.3°C | 5.4% | 172.8hPa | 2.8V | 08:30:00 | 00:53:39 | 00:00:00 | |
| DO2JMG | 2026-09-03 10:25:08 | 52.44799 | 8.39039 | 121° | 120km/h | 13025m | 5.6m/s | -53.3°C | 2.9% | 172.3hPa | 2.7V | 18:12:15 | 00:53:43 | 00:00:00 | |
| DF5WG-10 | 2026-09-03 10:25:08 | 52.44799 | 8.39039 | 122° | 119km/h | 13025m | 5.5m/s | -53.2°C | 5.4% | 172.2hPa | 2.8V | 00:00:00 | 00:53:43 | 00:00:00 | |
| BUE01 | 2026-09-03 10:25:07 | 52.44815 | 8.38996 | 121° | 120km/h | 13020m | 4.3m/s | -53.3°C | 2.8% | 172.4hPa | 2.8V | 00:00:00 | 00:00:00 | 00:00:00 | |
| DM0DOS-11 | 2026-09-03 10:25:06 | 52.44906 | 8.38745 | 119° | 117km/h | 12991m | 4.1m/s | -53.4°C | 5.5% | 173.2hPa | 2.8V | 08:30:00 | 00:53:36 | 00:00:00 | |
| AA1-15 | 2026-09-03 10:25:06 | 52.44831 | 8.38954 | 121° | 119km/h | 13015m | 5.9m/s | -53.3°C | 2.9% | 172.5hPa | 2.8V | 18:12:15 | 00:53:41 | 00:00:00 | |
| DL1XH-west | 2026-09-03 10:25:03 | 52.44876 | 8.38829 | 121° | 119km/h | 13000m | 4.2m/s | -53.3°C | 3% | 172.9hPa | 2.7V | 18:12:15 | 00:53:38 | 00:00:00 | |
| BIOWL1-15 | 2026-09-03 10:25:02 | 52.44921 | 8.38703 | 120° | 119km/h | 12987m | 4.4m/s | -53.4°C | 3% | 173.3hPa | 2.8V | 18:12:15 | 00:53:35 | 00:00:00 | |
| DL8OAI-8 | 2026-09-03 10:25:01 | 52.44891 | 8.38787 | 121° | 115km/h | 12996m | 5.1m/s | -53.4°C | 2.9% | 173.1hPa | 2.7V | 00:00:00 | 00:00:00 | 00:00:00 | |
| DC6BW-12 | 2026-09-03 10:25:00 | 52.44906 | 8.38745 | 121° | 117km/h | 12991m | 4.1m/s | -53.4°C | 3.0% | 173.2hPa | 2.7V | 00:00:00 | 00:00:00 | 00:00:00 | |
| DL1XH-15 | 2026-09-03 10:24:59 | 52.45013 | 8.38436 | 118° | 124km/h | 12959m | 5.2m/s | -53.3°C | 5.5% | 174.1hPa | 2.7V | 08:30:00 | 00:53:29 | 00:00:00 | |
| DO2JMG | 2026-09-03 10:24:57 | 52.44967 | 8.38571 | 120° | 124km/h | 12973m | 5.3m/s | -53.3°C | 3.1% | 173.7hPa | 2.8V | 18:12:15 | 00:53:32 | 00:00:00 | |
| DM0DOS-11 | 2026-09-03 10:24:56 | 52.45060 | 8.38301 | 120° | 126km/h | 12944m | 5.6m/s | -53.3°C | 5.6% | 174.5hPa | 2.8V | 08:30:00 | 00:53:26 | 00:00:00 | |
| DB0DAN | 2026-09-03 10:24:55 | 52.44998 | 8.38481 | 119° | 117km/h | 12964m | 5m/s | -53.3°C | 2.9% | 173.92hPa | 2.8V | 00:00:00 | 00:00:00 | 00:00:00 | |
| HSKMA3-T | 2026-09-03 10:24:55 | 52.44998 | 8.38481 | 119° | 124km/h | 12964m | 5m/s | -53.3°C | 3.1% | 173.9hPa | 2.8V | 18:12:15 | 00:53:30 | 00:00:00 | |
| BIOWL1-15 | 2026-09-03 10:24:53 | 52.45092 | 8.38211 | 120° | 126km/h | 12936m | 4.9m/s | -53.3°C | 3.2% | 174.7hPa | 2.8V | 18:12:15 | 00:53:24 | 00:00:00 | |
| DL1XH-west | 2026-09-03 10:24:53 | 52.45028 | 8.38391 | 120° | 124km/h | 12954m | 6m/s | -53.3°C | 3.2% | 174.2hPa | 2.7V | 18:12:15 | 00:53:28 | 00:00:00 | |
| SONCRA | 2026-09-03 10:24:52 | 52.45060 | 8.38301 | 120° | 126km/h | 12944m | 5.6m/s | -53.3°C | 3.0% | 174.5hPa | 2.8V | 00:00:00 | 00:00:00 | 00:00:00 | |
| SMARD9-10 | 2026-09-03 10:24:51 | 52.45044 | 8.38346 | 121° | 126km/h | 12949m | 3.7m/s | -53.3°C | 3.0% | 174.3hPa | 2.8V | 00:00:00 | 00:00:00 | 00:00:00 | |
| DK9SH | 2026-09-03 10:24:50 | 52.45060 | 8.38301 | 121° | 126km/h | 12944m | 5.6m/s | -53.3°C | 3.0% | 174.5hPa | 2.8V | 00:00:00 | 00:00:00 | 00:00:00 | |
| DL1XH-15 | 2026-09-03 10:24:49 | 52.45170 | 8.37987 | 119° | 120km/h | 12911m | 5m/s | -53.4°C | 5.6% | 175.4hPa | 2.8V | 08:30:00 | 00:53:19 | 00:00:00 | |
| DO2JMG | 2026-09-03 10:24:47 | 52.45124 | 8.38121 | 120° | 124km/h | 12925m | 5m/s | -53.3°C | 3.2% | 175hPa | 2.7V | 18:12:15 | 00:53:22 | 00:00:00 | |
| AA1-15 | 2026-09-03 10:24:44 | 52.45170 | 8.37987 | 119° | 120km/h | 12911m | 5m/s | -53.4°C | 3.4% | 175.4hPa | 2.8V | 18:12:15 | 00:53:19 | 00:00:00 | |
| DL1XH-west | 2026-09-03 10:24:42 | 52.45199 | 8.37899 | 118° | 120km/h | 12902m | 4.6m/s | -53.4°C | 3.5% | 175.7hPa | 2.8V | 18:12:15 | 00:53:17 | 00:00:00 | |
| BIOWL1-15 | 2026-09-03 10:24:39 | 52.45240 | 8.37768 | 117° | 117km/h | 12888m | 3.2m/s | -53.4°C | 3.5% | 176hPa | 2.7V | 18:12:15 | 00:53:14 | 00:00:00 | |
| DF8AY | 2026-09-03 10:24:37 | 52.45267 | 8.37679 | 115° | 122km/h | 12880m | 4.4m/s | 0°C | 0% | 0hPa | 2.8V | 18:12:15 | 00:53:12 | 00:00:00 | |
| DF5WG-10 | 2026-09-03 10:24:37 | 52.45267 | 8.37679 | 116° | 122km/h | 12880m | 4.4m/s | -53.5°C | 5.7% | 176.2hPa | 2.8V | 00:00:00 | 00:53:12 | 00:00:00 | |
| DM0DOS-11 | 2026-09-03 10:24:36 | 52.45351 | 8.37408 | 119° | 124km/h | 12853m | 4.3m/s | -53.8°C | 6.1% | 177hPa | 2.8V | 08:30:00 | 00:53:06 | 00:00:00 | |
| DO2JMG | 2026-09-03 10:24:36 | 52.45280 | 8.37633 | 115° | 120km/h | 12876m | 4.1m/s | -53.6°C | 3.6% | 176.4hPa | 2.8V | 18:12:15 | 00:53:11 | 00:00:00 | |
| AA1-15 | 2026-09-03 10:24:34 | 52.45306 | 8.37543 | 117° | 120km/h | 12867m | 4.8m/s | -53.7°C | 3.7% | 176.6hPa | 2.7V | 18:12:15 | 00:53:09 | 00:00:00 | |
| DL1XH-west | 2026-09-03 10:24:31 | 52.45351 | 8.37408 | 120° | 124km/h | 12853m | 4.4m/s | -53.8°C | 3.9% | 177hPa | 2.8V | 18:12:15 | 00:53:06 | 00:00:00 | |
| BIOWL1-15 | 2026-09-03 10:24:31 | 52.45381 | 8.37320 | 119° | 120km/h | 12845m | 3.1m/s | -53.9°C | 4% | 177.2hPa | 2.7V | 18:12:15 | 00:53:04 | 00:00:00 | |
| DL1XH-15 | 2026-09-03 10:24:29 | 52.45449 | 8.37097 | 116° | 120km/h | 12823m | 4.8m/s | -53.9°C | 6.4% | 177.8hPa | 2.7V | 08:30:00 | 00:52:59 | 00:00:00 | |
| GOEST3-10 | 2026-09-03 10:24:28 | 52.45395 | 8.37276 | 118° | 120km/h | 12841m | 4.9m/s | -53.8°C | 6.2% | 177.3hPa | 2.8V | 00:00:00 | 00:00:00 | 00:00:00 | |
| DF5WG-10 | 2026-09-03 10:24:27 | 52.45409 | 8.37231 | 117° | 124km/h | 12836m | 3.6m/s | -53.8°C | 6.2% | 177.4hPa | 2.8V | 00:00:00 | 00:53:02 | 00:00:00 | |
| DM0DOS-11 | 2026-09-03 10:24:26 | 52.45492 | 8.36961 | 118° | 124km/h | 12810m | 5.1m/s | -53.9°C | 6.6% | 178.2hPa | 2.8V | 08:30:00 | 00:52:56 | 00:00:00 | |
| DF8AY | 2026-09-03 10:24:26 | 52.45422 | 8.37186 | 116° | 120km/h | 12832m | 5.2m/s | 0°C | 0% | 0hPa | 2.8V | 18:12:15 | 00:53:01 | 00:00:00 | |
| DL1XH1-15 | 2026-09-03 10:24:25 | 52.45507 | 8.36916 | 119° | 126km/h | 12805m | 4.2m/s | -53.9°C | 6.7% | 178.4hPa | 2.8V | 08:30:00 | 00:52:55 | 00:00:00 | |
| DO2JMG | 2026-09-03 10:24:25 | 52.45436 | 8.37142 | 116° | 119km/h | 12827m | 4.4m/s | -53.8°C | 4.2% | 177.7hPa | 2.8V | 18:12:15 | 00:53:00 | 00:00:00 | |
| HSKMA3-T | 2026-09-03 10:24:24 | 52.45449 | 8.37097 | 116° | 120km/h | 12823m | 4.8m/s | -53.9°C | 4.3% | 177.8hPa | 2.7V | 18:12:15 | 00:52:59 | 00:00:00 | |
| DL1XH-west | 2026-09-03 10:24:20 | 52.45507 | 8.36916 | 119° | 126km/h | 12805m | 4.2m/s | -53.9°C | 4.7% | 178.4hPa | 2.8V | 18:12:15 | 00:52:55 | 00:00:00 | |
| BIOWL1-15 | 2026-09-03 10:24:18 | 52.45538 | 8.36824 | 118° | 128km/h | 12796m | 3.6m/s | -53.9°C | 4.8% | 178.7hPa | 2.7V | 18:12:15 | 00:52:53 | 00:00:00 | |
| GOEST3-10 | 2026-09-03 10:24:18 | 52.45538 | 8.36823 | 119° | 126km/h | 12796m | 3.6m/s | -53.9°C | 6.8% | 178.7hPa | 2.8V | 00:00:00 | 00:00:00 | 00:00:00 | |
| DJ2KF-10 | 2026-09-03 10:24:17 | 52.45553 | 8.36777 | 119° | 126km/h | 12792m | 5.0m/s | -53.8°C | 6.8% | 178.7hPa | 2.8V | 00:00:00 | 00:52:52 | 00:00:00 | |
| DM0DOS-11 | 2026-09-03 10:24:16 | 52.45644 | 8.36506 | 119° | 124km/h | 12764m | 5m/s | -54.1°C | 7.2% | 179.6hPa | 2.8V | 08:30:00 | 00:52:46 | 00:00:00 | |
| DL1XH1-15 | 2026-09-03 10:24:15 | 52.45659 | 8.36460 | 119° | 126km/h | 12759m | 3.9m/s | -54.1°C | 7.4% | 179.7hPa | 2.8V | 08:30:00 | 00:52:45 | 00:00:00 | |
| DO2JMG | 2026-09-03 10:24:14 | 52.45598 | 8.36641 | 118° | 126km/h | 12778m | 4.3m/s | -54.1°C | 5.2% | 179.2hPa | 2.7V | 18:12:15 | 00:52:49 | 00:00:00 | |
| AA1-15 | 2026-09-03 10:24:13 | 52.45613 | 8.36595 | 119° | 124km/h | 12773m | 5.7m/s | -54.1°C | 5.3% | 179.3hPa | 2.7V | 18:12:15 | 00:52:48 | 00:00:00 | |
| DF8AY | 2026-09-03 10:24:11 | 52.45644 | 8.36506 | 119° | 124km/h | 12764m | 5m/s | 0°C | 0% | 0hPa | 2.8V | 18:12:15 | 00:52:46 | 00:00:00 | |
| DB0DAN | 2026-09-03 10:24:10 | 52.45659 | 8.36460 | 119° | 120km/h | 12759m | 3.9m/s | -54.1°C | 4.5% | 179.67hPa | 2.8V | 00:00:00 | 00:00:00 | 00:00:00 | |
| DL1XH-west | 2026-09-03 10:24:09 | 52.45675 | 8.36415 | 120° | 124km/h | 12755m | 4.4m/s | -54.1°C | 5.7% | 179.8hPa | 2.7V | 18:12:15 | 00:52:44 | 00:00:00 | |
| DB0NH | 2026-09-03 10:24:09 | 52.45675 | 8.36415 | 120° | 162km/h | 12755m | 4.4m/s | -54.0°C | 7.3% | 179.8hPa | 2.8V | 00:00:00 | 00:52:44 | 00:00:00 | |
| MET0W-2 | 2026-09-03 10:24:08 | 52.45690 | 8.36371 | 119° | 120km/h | 12751m | 4.6m/s | 0°C | -1.0% | 179.9hPa | 2.8V | 00:00:00 | 00:00:00 | 00:00:00 | |
| DF5WG-10 | 2026-09-03 10:24:07 | 52.45706 | 8.36327 | 120° | 126km/h | 12746m | 4.3m/s | -54.0°C | 7.4% | 180.0hPa | 2.8V | 00:00:00 | 00:52:42 | 00:00:00 | |
| BIOWL1-15 | 2026-09-03 10:24:07 | 52.45706 | 8.36327 | 120° | 122km/h | 12746m | 4.4m/s | -54.1°C | 5.9% | 180.1hPa | 2.7V | 18:12:15 | 00:52:42 | 00:00:00 | |
| DM0DOS-11 | 2026-09-03 10:24:06 | 52.45797 | 8.36057 | 120° | 131km/h | 12718m | 3.2m/s | -54°C | 8.4% | 180.8hPa | 2.8V | 08:30:00 | 00:52:36 | 00:00:00 | |
| DO9LL-15 | 2026-09-03 10:24:06 | 52.45721 | 8.36283 | 119° | 131km/h | 12742m | 5.3m/s | -54.0°C | 7.5% | 180.2hPa | 2.8V | 00:00:00 | 00:52:41 | 00:00:00 | |
| DL1XH1-15 | 2026-09-03 10:24:05 | 52.45815 | 8.36010 | 122° | 131km/h | 12714m | 5m/s | -54.1°C | 8.6% | 181hPa | 2.8V | 08:30:00 | 00:52:35 | 00:00:00 | |
| AA1-15 | 2026-09-03 10:24:03 | 52.45766 | 8.36149 | 119° | 124km/h | 12727m | 4m/s | -54°C | 6.6% | 180.6hPa | 2.7V | 18:12:15 | 00:52:38 | 00:00:00 | |
| HSKMA3-T | 2026-09-03 10:24:02 | 52.45781 | 8.36104 | 119° | 128km/h | 12722m | 5.5m/s | -54°C | 6.8% | 180.8hPa | 2.7V | 18:12:15 | 00:52:37 | 00:00:00 | |
| DL1XH-west | 2026-09-03 10:23:59 | 52.45832 | 8.35965 | 123° | 131km/h | 12709m | 5m/s | -54.1°C | 7.5% | 181.1hPa | 2.8V | 18:12:15 | 00:52:34 | 00:00:00 | |
| BIOWL1-15 | 2026-09-03 10:23:59 | 52.45868 | 8.35879 | 125° | 120km/h | 12701m | 3.8m/s | -54.1°C | 7.7% | 181.4hPa | 2.7V | 18:12:15 | 00:52:32 | 00:00:00 | |
| DF8AY | 2026-09-03 10:23:58 | 52.45851 | 8.35921 | 125° | 126km/h | 12705m | 3.8m/s | 0°C | 0% | 0hPa | 2.7V | 18:12:15 | 00:52:33 | 00:00:00 | |
| GOEST3-10 | 2026-09-03 10:23:58 | 52.45851 | 8.35921 | 125° | 119km/h | 12705m | 3.7m/s | -54.1°C | 8.9% | 181.2hPa | 2.7V | 00:00:00 | 00:00:00 | 00:00:00 | |
| DF5WG-10 | 2026-09-03 10:23:57 | 52.45868 | 8.35879 | 126° | 128km/h | 12701m | 3.7m/s | -54.1°C | 8.8% | 181.3hPa | 2.7V | 00:00:00 | 00:52:32 | 00:00:00 | |
| DM0DOS-11 | 2026-09-03 10:23:56 | 52.45958 | 8.35626 | 117° | 130km/h | 12677m | 5.4m/s | -54.2°C | 9.4% | 182hPa | 2.7V | 08:30:00 | 00:52:26 | 00:00:00 | |
| DB0DAN | 2026-09-03 10:23:55 | 52.45902 | 8.35798 | 121° | 111km/h | 12692m | 4.8m/s | -54.1°C | 6% | 181.6hPa | 2.8V | 00:00:00 | 00:00:00 | 00:00:00 | |
| DL1XH1-15 | 2026-09-03 10:23:55 | 52.45974 | 8.35577 | 119° | 139km/h | 12671m | 6.4m/s | -54.2°C | 9.4% | 182.1hPa | 2.8V | 08:30:00 | 00:52:25 | 00:00:00 | |
| DO2JMG | 2026-09-03 10:23:53 | 52.45930 | 8.35715 | 118° | 113km/h | 12685m | 3.3m/s | -54.2°C | 8.5% | 181.8hPa | 2.8V | 18:12:15 | 00:52:28 | 00:00:00 | |
| AA1-15 | 2026-09-03 10:23:52 | 52.45943 | 8.35672 | 117° | 120km/h | 12682m | 4.1m/s | -54.2°C | 8.7% | 181.9hPa | 2.7V | 18:12:15 | 00:52:27 | 00:00:00 | |
| DL1XH-west | 2026-09-03 10:23:48 | 52.46012 | 8.35474 | 122° | 150km/h | 12657m | 11m/s | -54.3°C | 9.7% | 182.6hPa | 2.8V | 18:12:15 | 00:52:23 | 00:00:00 | |
| BIOWL1-15 | 2026-09-03 10:23:47 | 52.46032 | 8.35423 | 123° | 146km/h | 12646m | 10.9m/s | -54.3°C | 10% | 182.8hPa | 2.7V | 18:12:15 | 00:52:22 | 00:00:00 | |
| DO2SHX-10 | 2026-09-03 10:23:47 | 52.46032 | 8.35423 | 123° | 144km/h | 12646m | 10.8m/s | 0°C | 0% | 0hPa | 2.7V | 00:00:00 | 00:52:22 | 00:00:00 | |
| DM0DOS-11 | 2026-09-03 10:23:46 | 52.46154 | 8.35134 | 126° | 135km/h | 12607m | 5.5m/s | -54.6°C | 11.5% | 184hPa | 2.7V | 08:30:00 | 00:52:16 | 00:00:00 | |
| DL1XH1-15 | 2026-09-03 10:23:45 | 52.46174 | 8.35090 | 125° | 131km/h | 12602m | 4.9m/s | -54.6°C | 11.8% | 184.2hPa | 2.7V | 08:30:00 | 00:52:15 | 00:00:00 | |
| EDDB2-12 | 2026-09-03 10:23:44 | 52.46092 | 8.35275 | 124° | 141km/h | 12623m | 4.6m/s | -54.5°C | 7.7% | 183.6hPa | 2.8V | 00:00:00 | 00:00:00 | 00:00:00 | |
| DO2JMG | 2026-09-03 10:23:43 | 52.46113 | 8.35227 | 125° | 142km/h | 12618m | 5.5m/s | -54.5°C | 11.3% | 183.7hPa | 2.8V | 18:12:15 | 00:52:18 | 00:00:00 | |
| AA1-15 | 2026-09-03 10:23:42 | 52.46134 | 8.35180 | 127° | 141km/h | 12613m | 5.8m/s | -54.5°C | 11.6% | 183.9hPa | 2.8V | 18:12:15 | 00:52:17 | 00:00:00 | |
| HSKMA3-T | 2026-09-03 10:23:41 | 52.46154 | 8.35134 | 127° | 135km/h | 12607m | 5.5m/s | -54.6°C | 11.9% | 184hPa | 2.7V | 18:12:15 | 00:52:16 | 00:00:00 | |
| BIOWL1-15 | 2026-09-03 10:23:38 | 52.46246 | 8.34888 | 116° | 161km/h | 12583m | 6.1m/s | -55°C | 13.7% | 184.8hPa | 2.7V | 18:12:15 | 00:52:11 | 00:00:00 | |
| DL1XH-west | 2026-09-03 10:23:38 | 52.46210 | 8.34997 | 120° | 139km/h | 12595m | 4.7m/s | -54.7°C | 12.9% | 184.5hPa | 2.8V | 18:12:15 | 00:52:13 | 00:00:00 | |
| DO2SHX-10 | 2026-09-03 10:23:38 | 52.46210 | 8.34997 | 121° | 157km/h | 12595m | 4.7m/s | 0°C | 0% | 0hPa | 2.7V | 00:00:00 | 00:52:13 | 00:00:00 | |
| DF5WG-10 | 2026-09-03 10:23:37 | 52.46228 | 8.34945 | 119° | 157km/h | 12589m | 6.4m/s | -54.8°C | 12.4% | 184.6hPa | 2.7V | 00:00:00 | 00:52:12 | 00:00:00 | |
| DO9LL-15 | 2026-09-03 10:23:36 | 52.46246 | 8.34888 | 117° | 159km/h | 12583m | 6.0m/s | -54.9°C | 12.6% | 184.7hPa | 2.7V | 00:00:00 | 00:52:11 | 00:00:00 | |
| DL1XH1-15 | 2026-09-03 10:23:35 | 52.46353 | 8.34532 | 118° | 151km/h | 12544m | 6.8m/s | -55.7°C | 14% | 185.9hPa | 2.7V | 08:30:00 | 00:52:05 | 00:00:00 | |
| DO2JMG | 2026-09-03 10:23:32 | 52.46318 | 8.34645 | 116° | 157km/h | 12558m | 6.3m/s | -55.6°C | 15% | 185.6hPa | 2.8V | 18:12:15 | 00:52:07 | 00:00:00 | |
| AA1-15 | 2026-09-03 10:23:31 | 52.46335 | 8.34588 | 117° | 153km/h | 12551m | 7.4m/s | -55.6°C | 15.3% | 185.7hPa | 2.8V | 18:12:15 | 00:52:06 | 00:00:00 | |
| HSKMA3-T | 2026-09-03 10:23:30 | 52.46353 | 8.34532 | 118° | 151km/h | 12544m | 6.8m/s | -55.7°C | 15.7% | 186hPa | 2.7V | 18:12:15 | 00:52:05 | 00:00:00 | |
| HTAHTA | 2026-09-03 10:23:30 | 52.46353 | 8.34532 | 118° | 150km/h | 12544m | 6.8m/s | -55.7°C | 10.5% | 186.0hPa | 2.7V | 00:00:00 | 00:00:00 | 00:00:00 | |
| DL1XH-15 | 2026-09-03 10:23:29 | 52.46465 | 8.34194 | 118° | 157km/h | 12511m | 5.1m/s | -56.1°C | 16.8% | 187hPa | 2.7V | 08:30:00 | 00:51:59 | 00:00:00 | |
| DL1XH-west | 2026-09-03 10:23:28 | 52.46390 | 8.34422 | 119° | 151km/h | 12532m | 6.7m/s | -55.9°C | 16.4% | 186.3hPa | 2.8V | 18:12:15 | 00:52:03 | 00:00:00 | |
| BIOWL1-15 | 2026-09-03 10:23:26 | 52.46427 | 8.34309 | 118° | 159km/h | 12521m | 4.3m/s | -55.9°C | 17.3% | 186.7hPa | 2.8V | 18:12:15 | 00:52:01 | 00:00:00 | |
| DB0DAN | 2026-09-03 10:23:25 | 52.46446 | 8.34251 | 118° | 151km/h | 12516m | 5.7m/s | -56°C | 12.3% | 186.82hPa | 2.7V | 00:00:00 | 00:00:00 | 00:00:00 | |
| DL1XH1-15 | 2026-09-03 10:23:25 | 52.46541 | 8.33958 | 117° | 162km/h | 12492m | 6m/s | -56.7°C | 19.8% | 187.5hPa | 2.8V | 08:30:00 | 00:51:55 | 00:00:00 | |
| DO2JMG | 2026-09-03 10:23:22 | 52.46503 | 8.34077 | 118° | 162km/h | 12501m | 5m/s | -56.4°C | 19.5% | 187.2hPa | 2.8V | 18:12:15 | 00:51:57 | 00:00:00 | |
| HSKMA3-T | 2026-09-03 10:23:20 | 52.46541 | 8.33958 | 117° | 162km/h | 12492m | 6m/s | -56.7°C | 20.8% | 187.5hPa | 2.8V | 18:12:15 | 00:51:55 | 00:00:00 | |
| DL1XH-west | 2026-09-03 10:23:18 | 52.46577 | 8.33839 | 115° | 157km/h | 12482m | 6m/s | -56.9°C | 21.9% | 187.8hPa | 2.7V | 18:12:15 | 00:51:53 | 00:00:00 | |
| DJ2KF-10 | 2026-09-03 10:23:17 | 52.46593 | 8.33781 | 115° | 164km/h | 12477m | 5.2m/s | -57.0°C | 21.5% | 187.9hPa | 2.7V | 00:00:00 | 00:51:52 | 00:00:00 | |
| DM0DOS-11 | 2026-09-03 10:23:16 | 52.46684 | 8.33445 | 118° | 151km/h | 12453m | 5.8m/s | -57.5°C | 24.6% | 188.7hPa | 2.7V | 08:30:00 | 00:51:46 | 00:00:00 | |
| BIOWL1-15 | 2026-09-03 10:23:15 | 52.46624 | 8.33667 | 114° | 146km/h | 12467m | 3.6m/s | -57.3°C | 23.7% | 188.3hPa | 2.8V | 18:12:15 | 00:51:50 | 00:00:00 | |
| DJ2DS-15 | 2026-09-03 10:23:14 | 52.46638 | 8.33612 | 113° | 164km/h | 12463m | 5.0m/s | -57.3°C | 23.0% | 188.3hPa | 2.8V | 00:00:00 | 00:51:49 | 00:00:00 | |
| DL3AQ-11 | 2026-09-03 10:23:13 | 52.46667 | 8.33500 | 114° | 148km/h | 12457m | 3.8m/s | -57.5°C | 19.4% | 188.5hPa | 2.8V | 00:00:00 | 00:00:00 | 00:00:00 | |
| DO2SHX-10 | 2026-09-03 10:23:12 | 52.46667 | 8.33500 | 115° | 173km/h | 12458m | 3.7m/s | 0°C | 0% | 0hPa | 2.8V | 00:00:00 | 00:51:47 | 00:00:00 | |
| DO2JMG | 2026-09-03 10:23:12 | 52.46667 | 8.33500 | 115° | 148km/h | 12457m | 3.8m/s | -57.5°C | 25.3% | 188.5hPa | 2.7V | 18:12:15 | 00:51:47 | 00:00:00 | |
| DL8OAI-8 | 2026-09-03 10:23:11 | 52.46667 | 8.33500 | 116° | 148km/h | 12458m | 3.8m/s | -57.5°C | 19.4% | 188.5hPa | 2.8V | 00:00:00 | 00:00:00 | 00:00:00 | |
| DB0DAN | 2026-09-03 10:23:10 | 52.46704 | 8.33390 | 123° | 151km/h | 12446m | 7.2m/s | -57.5°C | 19.9% | 188.81hPa | 2.8V | 00:00:00 | 00:00:00 | 00:00:00 | |
| AA1-15 | 2026-09-03 10:23:09 | 52.46727 | 8.33333 | 123° | 170km/h | 12438m | 9.7m/s | -57.6°C | 26.8% | 189.1hPa | 2.8V | 18:12:15 | 00:51:44 | 00:00:00 | |
| DL4BBY-15 | 2026-09-03 10:23:09 | 52.46727 | 8.33332 | 124° | 175km/h | 12438m | 9.6m/s | -56.3°C | 0% | 0hPa | 2.7V | 00:00:00 | 00:00:00 | 00:00:00 | |
| GOEST3-10 | 2026-09-03 10:23:08 | 52.46751 | 8.33272 | 124° | 179km/h | 12429m | 9.0m/s | -57.6°C | 26.0% | 189.3hPa | 2.7V | 00:00:00 | 00:00:00 | 00:00:00 | |
| DF7PN | 2026-09-03 10:23:07 | 52.46817 | 8.33075 | 115° | 177km/h | 12408m | 7.1m/s | 0°C | -1.0% | -1.0hPa | 2.8V | 00:00:00 | 00:00:00 | 00:00:00 | |
| DL1XH-west | 2026-09-03 10:23:07 | 52.46775 | 8.33208 | 121° | 183km/h | 12421m | 7.9m/s | -57.8°C | 27.9% | 189.6hPa | 2.7V | 18:12:15 | 00:51:42 | 00:00:00 | |
| DM0DOS-11 | 2026-09-03 10:23:06 | 52.46892 | 8.32835 | 123° | 150km/h | 12372m | 7.3m/s | -58°C | 30.9% | 191hPa | 2.8V | 08:30:00 | 00:51:36 | 00:00:00 | |
| BIOWL1-15 | 2026-09-03 10:23:05 | 52.46817 | 8.33075 | 116° | 177km/h | 12408m | 7.1m/s | -57.9°C | 28.9% | 190hPa | 2.7V | 18:12:15 | 00:51:40 | 00:00:00 | |
| DO2JMG | 2026-09-03 10:23:01 | 52.46892 | 8.32835 | 123° | 151km/h | 12372m | 7.3m/s | -58°C | 31.6% | 191hPa | 2.8V | 18:12:15 | 00:51:36 | 00:00:00 | |
| AA1-15 | 2026-09-03 10:22:59 | 52.46936 | 8.32733 | 127° | 153km/h | 12361m | 4.9m/s | -57.9°C | 33.1% | 191.4hPa | 2.7V | 18:12:15 | 00:51:34 | 00:00:00 | |
| HSKMA3-T | 2026-09-03 10:22:58 | 52.46960 | 8.32680 | 126° | 164km/h | 12356m | 7m/s | -57.8°C | 33.7% | 191.5hPa | 2.7V | 18:12:15 | 00:51:33 | 00:00:00 | |
| DL1XH-west | 2026-09-03 10:22:57 | 52.46984 | 8.32623 | 123° | 170km/h | 12348m | 7m/s | -57.8°C | 34.3% | 191.7hPa | 2.8V | 18:12:15 | 00:51:32 | 00:00:00 | |
| DM0DOS-11 | 2026-09-03 10:22:56 | 52.47114 | 8.32259 | 125° | 155km/h | 12306m | 6.1m/s | -58.1°C | 37.3% | 193hPa | 2.7V | 08:30:00 | 00:51:26 | 00:00:00 | |
| DF5WG-10 | 2026-09-03 10:22:56 | 52.47008 | 8.32562 | 122° | 168km/h | 12341m | 7.2m/s | -57.8°C | 33.9% | 191.9hPa | 2.8V | 00:00:00 | 00:51:31 | 00:00:00 | |
| DL1XH1-15 | 2026-09-03 10:22:55 | 52.47138 | 8.32208 | 129° | 157km/h | 12299m | 8m/s | -58°C | 37.8% | 193.1hPa | 2.8V | 08:30:00 | 00:51:25 | 00:00:00 | |
| BIOWL1-15 | 2026-09-03 10:22:54 | 52.47052 | 8.32433 | 117° | 179km/h | 12327m | 6.7m/s | -58.2°C | 36.3% | 192.3hPa | 2.8V | 18:12:15 | 00:51:29 | 00:00:00 | |
| DO2JMG | 2026-09-03 10:22:50 | 52.47138 | 8.32208 | 129° | 157km/h | 12299m | 8m/s | -58°C | 38.7% | 193.2hPa | 2.8V | 18:12:15 | 00:51:25 | 00:00:00 | |
| AA1-15 | 2026-09-03 10:22:48 | 52.47192 | 8.32102 | 130° | 181km/h | 12283m | 7.4m/s | -58.1°C | 40.4% | 193.7hPa | 2.8V | 18:12:15 | 00:51:23 | 00:00:00 | |
| DL1XH-west | 2026-09-03 10:22:47 | 52.47221 | 8.32043 | 128° | 184km/h | 12276m | 7.6m/s | -58.1°C | 41.1% | 193.9hPa | 2.7V | 18:12:15 | 00:51:22 | 00:00:00 | |
| DJ2KF-10 | 2026-09-03 10:22:47 | 52.47221 | 8.32043 | 129° | 197km/h | 12276m | 7.5m/s | -58.1°C | 40.9% | 193.9hPa | 2.7V | 00:00:00 | 00:51:22 | 00:00:00 | |
| DM0DOS-11 | 2026-09-03 10:22:46 | 52.47377 | 8.31643 | 119° | 195km/h | 12233m | 6.7m/s | -58°C | 41.9% | 195.2hPa | 2.7V | 08:30:00 | 00:51:16 | 00:00:00 | |
| DL3AQ-11 | 2026-09-03 10:22:46 | 52.47278 | 8.31915 | 123° | 193km/h | 12259m | 10.8m/s | -58.2°C | 35.0% | 194.4hPa | 2.7V | 00:00:00 | 00:00:00 | 00:00:00 | |
| DL1XH1-15 | 2026-09-03 10:22:45 | 52.47403 | 8.31572 | 121° | 203km/h | 12225m | 8.8m/s | -57.9°C | 43% | 195.4hPa | 2.7V | 08:30:00 | 00:51:15 | 00:00:00 | |
| BIOWL1-15 | 2026-09-03 10:22:44 | 52.47304 | 8.31847 | 121° | 190km/h | 12250m | 9m/s | -58.1°C | 42.9% | 194.8hPa | 2.8V | 18:12:15 | 00:51:19 | 00:00:00 | |
| DD8BA-10 | 2026-09-03 10:22:43 | 52.47329 | 8.31780 | 121° | 193km/h | 12242m | 6.2m/s | -58.0°C | 42.2% | 194.9hPa | 2.7V | 00:00:00 | 00:00:00 | 00:00:00 | |
| EDDB2-12 | 2026-09-03 10:22:42 | 52.47353 | 8.31713 | 120° | 190km/h | 12238m | 3.2m/s | -58.0°C | -1.0% | 195.1hPa | 2.7V | 00:00:00 | 00:00:00 | 00:00:00 | |
| DB0DAN | 2026-09-03 10:22:40 | 52.47403 | 8.31572 | 121° | 193km/h | 12226m | 8.8m/s | -57.9°C | 36.9% | 195.45hPa | 2.7V | 00:00:00 | 00:00:00 | 00:00:00 | |
| DO2JMG | 2026-09-03 10:22:40 | 52.47403 | 8.31572 | 121° | 203km/h | 12225m | 8.8m/s | -57.9°C | 45.3% | 195.4hPa | 2.7V | 18:12:15 | 00:51:15 | 00:00:00 | |
| AA1-15 | 2026-09-03 10:22:38 | 52.47464 | 8.31432 | 129° | 212km/h | 12208m | 7.3m/s | -57.7°C | 47% | 196.1hPa | 2.8V | 18:12:15 | 00:51:13 | 00:00:00 | |
| HSKMA3-T | 2026-09-03 10:22:37 | 52.47498 | 8.31367 | 133° | 203km/h | 12201m | 7.3m/s | -57.6°C | 47.9% | 196.3hPa | 2.8V | 18:12:15 | 00:51:12 | 00:00:00 | |
| DM0DOS-11 | 2026-09-03 10:22:36 | 52.47670 | 8.31029 | 121° | 186km/h | 12156m | 8m/s | -58.1°C | 49.1% | 197.6hPa | 2.8V | 08:30:00 | 00:51:06 | 00:00:00 | |
| DL1XH-west | 2026-09-03 10:22:36 | 52.47533 | 8.31308 | 135° | 193km/h | 12194m | 7m/s | -57.5°C | 48.6% | 196.5hPa | 2.8V | 18:12:15 | 00:51:11 | 00:00:00 | |
| DO9LL-15 | 2026-09-03 10:22:36 | 52.47533 | 8.31308 | 136° | 204km/h | 12194m | 7.0m/s | -57.5°C | 45.1% | 196.5hPa | 2.8V | 00:00:00 | 00:51:11 | 00:00:00 | |
| DL1XH1-15 | 2026-09-03 10:22:35 | 52.47695 | 8.30961 | 121° | 199km/h | 12148m | 8m/s | -58.3°C | 51.2% | 197.8hPa | 2.8V | 08:30:00 | 00:51:05 | 00:00:00 | |
| BIOWL1-15 | 2026-09-03 10:22:33 | 52.47621 | 8.31148 | 127° | 161km/h | 12172m | 8.2m/s | -57.6°C | 51.2% | 197.1hPa | 2.7V | 18:12:15 | 00:51:08 | 00:00:00 | |
| DO2JMG | 2026-09-03 10:22:30 | 52.47695 | 8.30961 | 122° | 199km/h | 12148m | 8m/s | -58.3°C | 54.7% | 197.8hPa | 2.8V | 18:12:15 | 00:51:05 | 00:00:00 | |
| DL1XH-15 | 2026-09-03 10:22:29 | 52.47891 | 8.30564 | 133° | 193km/h | 12099m | 6.9m/s | -58.6°C | 57.6% | 199.3hPa | 2.8V | 08:30:00 | 00:50:59 | 00:00:00 | |
| AA1-15 | 2026-09-03 10:22:28 | 52.47753 | 8.30818 | 126° | 214km/h | 12130m | 8.9m/s | -58.6°C | 56.8% | 198.4hPa | 2.7V | 18:12:15 | 00:51:03 | 00:00:00 | |
| HSKMA3-T | 2026-09-03 10:22:27 | 52.47787 | 8.30748 | 130° | 215km/h | 12122m | 8.1m/s | -58.5°C | 57.6% | 198.6hPa | 2.7V | 18:12:15 | 00:51:02 | 00:00:00 | |
| DL1XH-west | 2026-09-03 10:22:26 | 52.47822 | 8.30683 | 133° | 206km/h | 12114m | 8.1m/s | -58.5°C | 58.2% | 198.8hPa | 2.7V | 18:12:15 | 00:51:01 | 00:00:00 | |
| DL1XH1-15 | 2026-09-03 10:22:25 | 52.48024 | 8.30312 | 128° | 215km/h | 12072m | 9.7m/s | -59.3°C | 63.3% | 200.2hPa | 2.7V | 08:30:00 | 00:50:55 | 00:00:00 | |
| BIOWL1-15 | 2026-09-03 10:22:23 | 52.47925 | 8.30505 | 132° | 193km/h | 12093m | 4.8m/s | -58.7°C | 60.5% | 199.5hPa | 2.8V | 18:12:15 | 00:50:58 | 00:00:00 | |
| DD8BA-10 | 2026-09-03 10:22:23 | 52.47925 | 8.30505 | 133° | 212km/h | 12093m | 4.8m/s | -58.6°C | 58.5% | 199.5hPa | 2.7V | 00:00:00 | 00:00:00 | 00:00:00 | |
| DL3AQ-11 | 2026-09-03 10:22:21 | 52.47990 | 8.30380 | 128° | 206km/h | 12080m | 7.5m/s | -59.0°C | 53.9% | 199.9hPa | 2.7V | 00:00:00 | 00:00:00 | 00:00:00 | |
| DL1XH-15 | 2026-09-03 10:22:19 | 52.48226 | 8.29886 | 125° | 219km/h | 12023m | 8.9m/s | -59.4°C | 69.1% | 201.8hPa | 2.7V | 08:30:00 | 00:50:49 | 00:00:00 | |
| DO2JMG | 2026-09-03 10:22:19 | 52.48058 | 8.30241 | 129° | 219km/h | 12061m | 11.7m/s | -59.4°C | 63.9% | 200.5hPa | 2.7V | 18:12:15 | 00:50:54 | 00:00:00 | |
| AA1-15 | 2026-09-03 10:22:18 | 52.48092 | 8.30171 | 129° | 219km/h | 12049m | 11.1m/s | -59.5°C | 64.8% | 200.9hPa | 2.8V | 18:12:15 | 00:50:53 | 00:00:00 | |
| GOEST3-10 | 2026-09-03 10:22:18 | 52.48092 | 8.30171 | 129° | 217km/h | 12050m | 11.1m/s | -59.4°C | 68.7% | 200.8hPa | 2.8V | 00:00:00 | 00:00:00 | 00:00:00 | |
| SONDE2-11 | 2026-09-03 10:22:17 | 52.48127 | 8.30100 | 128° | 215km/h | 12041m | 6.6m/s | -59.4°C | 62.3% | 201.2hPa | 2.8V | 00:00:00 | 00:00:00 | 00:00:00 | |
| DM0DOS-11 | 2026-09-03 10:22:16 | 52.48321 | 8.29661 | 124° | 219km/h | 12000m | 7.4m/s | -59.5°C | 68% | 202.5hPa | 2.8V | 08:30:00 | 00:50:46 | 00:00:00 | |
| DL1XH-west | 2026-09-03 10:22:16 | 52.48160 | 8.30030 | 128° | 215km/h | 12035m | 3.7m/s | -59.4°C | 65.9% | 201.4hPa | 2.8V | 18:12:15 | 00:50:51 | 00:00:00 | |
| BIOWL1-15 | 2026-09-03 10:22:13 | 52.48258 | 8.29812 | 125° | 221km/h | 12015m | 7.6m/s | -59.4°C | 66.6% | 202hPa | 2.7V | 18:12:15 | 00:50:48 | 00:00:00 | |
| DD8BA-10 | 2026-09-03 10:22:13 | 52.48258 | 8.29812 | 125° | 221km/h | 12015m | 7.6m/s | -59.3°C | 68.7% | 202.0hPa | 2.8V | 00:00:00 | 00:00:00 | 00:00:00 | |
| DJ2KF-10 | 2026-09-03 10:22:12 | 52.48290 | 8.29736 | 124° | 224km/h | 12007m | 7.1m/s | -59.4°C | 68.2% | 202.2hPa | 2.8V | 00:00:00 | 00:50:47 | 00:00:00 | |
| EDDB2-12 | 2026-09-03 10:22:11 | 52.48321 | 8.29661 | 124° | 219km/h | 12000m | 7.4m/s | 0°C | -1.0% | -1.0hPa | 2.8V | 00:00:00 | 00:00:00 | 00:00:00 | |
| DL1LOL-11 | 2026-09-03 10:22:10 | 52.48321 | 8.29661 | 126° | 219km/h | 12000m | 7.4m/s | -59.5°C | 60.2% | 202.5hPa | 2.8V | 00:00:00 | 00:00:00 | 00:00:00 | |
| DB0DAN | 2026-09-03 10:22:10 | 52.48353 | 8.29587 | 126° | 208km/h | 11992m | 8m/s | -59.4°C | 60% | 202.77hPa | 2.8V | 00:00:00 | 00:00:00 | 00:00:00 | |
| DL1XH-15 | 2026-09-03 10:22:09 | 52.48546 | 8.29139 | 124° | 223km/h | 11952m | 6.1m/s | -59.1°C | 67.7% | 204hPa | 2.8V | 08:30:00 | 00:50:39 | 00:00:00 | |
| DO2JMG | 2026-09-03 10:22:09 | 52.48385 | 8.29513 | 126° | 219km/h | 11985m | 6.4m/s | -59.3°C | 65.8% | 202.9hPa | 2.8V | 18:12:15 | 00:50:44 | 00:00:00 | |
| AA1-15 | 2026-09-03 10:22:07 | 52.48450 | 8.29365 | 125° | 221km/h | 11970m | 6.9m/s | -59.2°C | 65.2% | 203.4hPa | 2.7V | 18:12:15 | 00:50:42 | 00:00:00 | |
| DO3DL | 2026-09-03 10:22:06 | 52.48482 | 8.29290 | 126° | 221km/h | 11963m | 6.4m/s | -59.2°C | 59.5% | 203.7hPa | 2.7V | 00:00:00 | 00:00:00 | 00:00:00 | |
| DL1XH1-15 | 2026-09-03 10:22:05 | 52.48672 | 8.28833 | 123° | 224km/h | 11929m | 4.7m/s | -58.9°C | 67.8% | 204.8hPa | 2.7V | 08:30:00 | 00:50:35 | 00:00:00 | |
| DL1XH-west | 2026-09-03 10:22:05 | 52.48514 | 8.29215 | 125° | 221km/h | 11957m | 5.3m/s | -59.1°C | 64.7% | 203.9hPa | 2.7V | 18:12:15 | 00:50:40 | 00:00:00 | |
| BIOWL1-15 | 2026-09-03 10:22:03 | 52.48609 | 8.28987 | 124° | 223km/h | 11940m | 5.4m/s | -59°C | 64.2% | 204.4hPa | 2.8V | 18:12:15 | 00:50:37 | 00:00:00 | |
| DK9SH | 2026-09-03 10:22:03 | 52.48546 | 8.29139 | 126° | 223km/h | 11952m | 6.1m/s | -59.1°C | 59.9% | 204.0hPa | 2.8V | 00:00:00 | 00:00:00 | 00:00:00 | |
| DB0NH | 2026-09-03 10:22:02 | 52.48609 | 8.28987 | 124° | 226km/h | 11941m | 5.4m/s | -59.0°C | 0% | 204.3hPa | 2.8V | 00:00:00 | 00:50:37 | 00:00:00 | |
| DL1NUX | 2026-09-03 10:22:01 | 52.48797 | 8.28525 | 123° | 224km/h | 11911m | 5.6m/s | -58.8°C | 0% | 0hPa | 2.8V | 08:30:00 | 00:50:31 | 00:00:00 | |
| DO2JMG | 2026-09-03 10:21:59 | 52.48703 | 8.28756 | 124° | 224km/h | 11925m | 5.1m/s | -58.9°C | 63.6% | 204.9hPa | 2.7V | 18:12:15 | 00:50:34 | 00:00:00 | |
| DB0ND-19 | 2026-09-03 10:21:58 | 52.48735 | 8.28679 | 123° | 221km/h | 11920m | 4.9m/s | -58.9°C | 59.5% | 205.1hPa | 2.7V | 00:00:00 | 00:00:00 | 00:00:00 | |
| HTAHTA | 2026-09-03 10:21:57 | 52.48797 | 8.28525 | 123° | 224km/h | 11911m | 5.6m/s | -58.8°C | 59.0% | 205.4hPa | 2.7V | 00:00:00 | 00:00:00 | 00:00:00 | |
| DM0DOS-11 | 2026-09-03 10:21:56 | 52.48959 | 8.28138 | 124° | 226km/h | 11886m | 6.1m/s | -58.6°C | 65.7% | 206.2hPa | 2.7V | 08:30:00 | 00:50:26 | 00:00:00 | |
| AA1-15 | 2026-09-03 10:21:56 | 52.48797 | 8.28525 | 123° | 224km/h | 11911m | 5.6m/s | -58.8°C | 63% | 205.4hPa | 2.8V | 18:12:15 | 00:50:31 | 00:00:00 | |
| DL1XH-west | 2026-09-03 10:21:54 | 52.48861 | 8.28369 | 124° | 228km/h | 11902m | 4.5m/s | -58.7°C | 62.5% | 205.7hPa | 2.8V | 18:12:15 | 00:50:29 | 00:00:00 | |
| BIOWL1-15 | 2026-09-03 10:21:51 | 52.48959 | 8.28138 | 125° | 226km/h | 11886m | 6.1m/s | -58.6°C | 62.2% | 206.2hPa | 2.7V | 18:12:15 | 00:50:26 | 00:00:00 | |
| DO2JMG | 2026-09-03 10:21:49 | 52.49023 | 8.27982 | 123° | 226km/h | 11876m | 4.4m/s | -58.5°C | 61.9% | 206.5hPa | 2.8V | 18:12:15 | 00:50:24 | 00:00:00 | |
| GOEST3-10 | 2026-09-03 10:21:48 | 52.49054 | 8.27904 | 123° | 223km/h | 11871m | 5.9m/s | -58.5°C | 64.6% | 206.6hPa | 2.7V | 00:00:00 | 00:00:00 | 00:00:00 | |
| DM0DOS-11 | 2026-09-03 10:21:46 | 52.49269 | 8.27356 | 122° | 228km/h | 11832m | 5.6m/s | -58.3°C | 62% | 208.1hPa | 2.7V | 08:30:00 | 00:50:16 | 00:00:00 | |
| DL1XH1-15 | 2026-09-03 10:21:45 | 52.49300 | 8.27277 | 122° | 226km/h | 11827m | 5.2m/s | -58.3°C | 62.1% | 208.1hPa | 2.7V | 08:30:00 | 00:50:15 | 00:00:00 | |
| AA1-15 | 2026-09-03 10:21:45 | 52.49145 | 8.27670 | 122° | 223km/h | 11854m | 5.1m/s | -58.4°C | 61.1% | 207.2hPa | 2.8V | 18:12:15 | 00:50:20 | 00:00:00 | |
| BIOWL1-15 | 2026-09-03 10:21:43 | 52.49269 | 8.27356 | 123° | 228km/h | 11832m | 5.6m/s | -58.3°C | 60.2% | 208.1hPa | 2.7V | 18:12:15 | 00:50:16 | 00:00:00 | |
| DL1XH-west | 2026-09-03 10:21:43 | 52.49206 | 8.27514 | 123° | 226km/h | 11843m | 6.3m/s | -58.3°C | 60.6% | 207.6hPa | 2.8V | 18:12:15 | 00:50:18 | 00:00:00 | |
| GOEST3-10 | 2026-09-03 10:21:43 | 52.49206 | 8.27514 | 124° | 226km/h | 11843m | 6.2m/s | -58.3°C | 62.3% | 207.6hPa | 2.7V | 00:00:00 | 00:50:18 | 00:00:00 | |
| DD1CC1-15 | 2026-09-03 10:21:42 | 52.49206 | 8.27514 | 124° | 226km/h | 11843m | 6.3m/s | -58.3°C | 0% | 0hPa | 2.7V | 00:00:00 | 00:00:00 | 00:00:00 | |
| DB0DAN | 2026-09-03 10:21:40 | 52.49300 | 8.27277 | 123° | 217km/h | 11827m | 5.2m/s | -58.3°C | 54.7% | 208.12hPa | 2.7V | 00:00:00 | 00:00:00 | 00:00:00 | |
| BIOWL9-15 | 2026-09-03 10:21:40 | 52.49331 | 8.27198 | 122° | 224km/h | 11822m | 4.8m/s | -58.1°C | 54.8% | 208.3hPa | 2.7V | 00:00:00 | 00:00:00 | 00:00:00 | |
| DL1XH-15 | 2026-09-03 10:21:39 | 52.49481 | 8.26800 | 121° | 226km/h | 11795m | 6.3m/s | -57.9°C | 61.6% | 209.2hPa | 2.7V | 08:30:00 | 00:50:09 | 00:00:00 | |
| DO2JMG | 2026-09-03 10:21:38 | 52.49361 | 8.27119 | 122° | 226km/h | 11817m | 5.1m/s | -58.1°C | 59.6% | 208.5hPa | 2.8V | 18:12:15 | 00:50:13 | 00:00:00 | |
| GOEST3-10 | 2026-09-03 10:21:38 | 52.49361 | 8.27119 | 123° | 226km/h | 11817m | 5.0m/s | -58.0°C | 61.2% | 208.4hPa | 2.7V | 00:00:00 | 00:00:00 | 00:00:00 | |
| DL3OBA | 2026-09-03 10:21:37 | 52.49361 | 8.27119 | 123° | 226km/h | 11817m | 5.1m/s | -58.1°C | 54.0% | 208.5hPa | 2.8V | 00:00:00 | 00:00:00 | 00:00:00 | |
| DM0DOS-11 | 2026-09-03 10:21:36 | 52.49570 | 8.26560 | 122° | 224km/h | 11781m | 4.1m/s | -57.8°C | 61.9% | 209.8hPa | 2.8V | 08:30:00 | 00:50:06 | 00:00:00 | |
| DO9LL-15 | 2026-09-03 10:21:36 | 52.49421 | 8.26960 | 122° | 226km/h | 11806m | 5.6m/s | -58.0°C | 61.5% | 208.8hPa | 2.7V | 00:00:00 | 00:50:11 | 00:00:00 | |
| DL1XH1-15 | 2026-09-03 10:21:35 | 52.49601 | 8.26481 | 122° | 224km/h | 11777m | 3.4m/s | -57.8°C | 61.1% | 209.8hPa | 2.8V | 08:30:00 | 00:50:05 | 00:00:00 | |
| AA1-15 | 2026-09-03 10:21:34 | 52.49481 | 8.26800 | 121° | 228km/h | 11795m | 6.4m/s | -57.9°C | 59.2% | 209.2hPa | 2.7V | 18:12:15 | 00:50:09 | 00:00:00 | |
| HSKMA3-T | 2026-09-03 10:21:33 | 52.49511 | 8.26719 | 121° | 228km/h | 11790m | 4.1m/s | -57.9°C | 59% | 209.4hPa | 2.8V | 18:12:15 | 00:50:08 | 00:00:00 | |
| DL1XH-west | 2026-09-03 10:21:32 | 52.49540 | 8.26639 | 122° | 224km/h | 11785m | 5.7m/s | -57.9°C | 58.9% | 209.5hPa | 2.8V | 18:12:15 | 00:50:07 | 00:00:00 | |
| DO3DL | 2026-09-03 10:21:32 | 52.49540 | 8.26639 | 123° | 224km/h | 11785m | 5.7m/s | -57.9°C | 54.1% | 209.5hPa | 2.8V | 00:00:00 | 00:00:00 | 00:00:00 | |
| DD1CC3-15 | 2026-09-03 10:21:31 | 52.49540 | 8.26639 | 123° | 224km/h | 11785m | 5.7m/s | -57.9°C | 54.2% | 209.5hPa | 2.8V | 00:00:00 | 00:00:00 | 00:00:00 | |
| DL1NUX | 2026-09-03 10:21:30 | 52.49753 | 8.26082 | 121° | 228km/h | 11752m | 5m/s | 0°C | 0% | 0hPa | 2.8V | 00:00:00 | 00:50:00 | 00:00:00 | |
| BIOWL1-15 | 2026-09-03 10:21:30 | 52.49601 | 8.26481 | 123° | 224km/h | 11777m | 3.4m/s | -57.8°C | 58.8% | 209.8hPa | 2.8V | 18:12:15 | 00:50:05 | 00:00:00 | |
| DL1XH-15 | 2026-09-03 10:21:29 | 52.49783 | 8.26001 | 120° | 230km/h | 11748m | 4.6m/s | -57.6°C | 61.4% | 210.8hPa | 2.8V | 08:30:00 | 00:49:59 | 00:00:00 | |
| DO2JMG | 2026-09-03 10:21:28 | 52.49662 | 8.26323 | 122° | 228km/h | 11767m | 4.4m/s | -57.7°C | 58.7% | 210.2hPa | 2.7V | 18:12:15 | 00:50:03 | 00:00:00 | |
| SMARD9-10 | 2026-09-03 10:21:27 | 52.49662 | 8.26323 | 123° | 228km/h | 11767m | 4.4m/s | -57.7°C | 54.4% | 210.1hPa | 2.8V | 00:00:00 | 00:00:00 | 00:00:00 | |
| DM0DOS-11 | 2026-09-03 10:21:26 | 52.49871 | 8.25758 | 121° | 226km/h | 11734m | 3.9m/s | -57.5°C | 60.4% | 211.2hPa | 2.8V | 08:30:00 | 00:49:56 | 00:00:00 | |
| HTAHTA | 2026-09-03 10:21:26 | 52.49753 | 8.26082 | 121° | 228km/h | 11752m | 5.0m/s | -57.6°C | 54.1% | 210.7hPa | 2.8V | 00:00:00 | 00:00:00 | 00:00:00 | |
| DL1XH1-15 | 2026-09-03 10:21:25 | 52.49901 | 8.25677 | 121° | 228km/h | 11729m | 5.9m/s | -57.6°C | 60.8% | 211.4hPa | 2.8V | 08:30:00 | 00:49:55 | 00:00:00 | |
| AA1-15 | 2026-09-03 10:21:23 | 52.49812 | 8.25919 | 121° | 228km/h | 11743m | 4.3m/s | -57.5°C | 58.3% | 210.9hPa | 2.7V | 18:12:15 | 00:49:58 | 00:00:00 | |
| HSKMA3-T | 2026-09-03 10:21:22 | 52.49842 | 8.25838 | 121° | 226km/h | 11738m | 5m/s | -57.5°C | 58.3% | 211.2hPa | 2.7V | 18:12:15 | 00:49:57 | 00:00:00 | |
| BIOWL1-15 | 2026-09-03 10:21:22 | 52.49901 | 8.25677 | 122° | 228km/h | 11729m | 5.9m/s | -57.6°C | 58% | 211.4hPa | 2.8V | 18:12:15 | 00:49:55 | 00:00:00 | |
| DL1XH-west | 2026-09-03 10:21:21 | 52.49871 | 8.25758 | 121° | 226km/h | 11734m | 3.9m/s | -57.5°C | 58.1% | 211.2hPa | 2.8V | 18:12:15 | 00:49:56 | 00:00:00 | |
| DL1XH-15 | 2026-09-03 10:21:19 | 52.50078 | 8.25192 | 120° | 228km/h | 11701m | 5m/s | -57.2°C | 58.6% | 212.3hPa | 2.8V | 08:30:00 | 00:49:49 | 00:00:00 | |
| DO2JMG | 2026-09-03 10:21:17 | 52.49991 | 8.25435 | 121° | 226km/h | 11716m | 5.4m/s | -57.4°C | 57.9% | 211.9hPa | 2.7V | 18:12:15 | 00:49:52 | 00:00:00 | |
| DL3OBA | 2026-09-03 10:21:16 | 52.49991 | 8.25435 | 122° | 226km/h | 11716m | 5.4m/s | -57.4°C | 53.9% | 211.9hPa | 2.8V | 00:00:00 | 00:00:00 | 00:00:00 | |
| DL1XH1-15 | 2026-09-03 10:21:15 | 52.50196 | 8.24870 | 121° | 226km/h | 11678m | 4.8m/s | -57.1°C | 58.6% | 213.1hPa | 2.8V | 08:30:00 | 00:49:45 | 00:00:00 | |
| DL1NUX | 2026-09-03 10:21:14 | 52.50227 | 8.24790 | 121° | 226km/h | 11673m | 5.9m/s | 0°C | 0% | 0hPa | 2.8V | 00:00:00 | 00:49:44 | 00:00:00 | |
| AA1-15 | 2026-09-03 10:21:12 | 52.50136 | 8.25030 | 121° | 226km/h | 11689m | 5.1m/s | -57.1°C | 56.9% | 212.8hPa | 2.7V | 18:12:15 | 00:49:47 | 00:00:00 | |
| DL1XH-west | 2026-09-03 10:21:11 | 52.50166 | 8.24950 | 122° | 226km/h | 11684m | 6.1m/s | -57.1°C | 56.7% | 213hPa | 2.8V | 18:12:15 | 00:49:46 | 00:00:00 | |
| BIOWL1-15 | 2026-09-03 10:21:10 | 52.50196 | 8.24870 | 122° | 228km/h | 11678m | 4.8m/s | -57.1°C | 56.8% | 213.2hPa | 2.8V | 18:12:15 | 00:49:45 | 00:00:00 | |
| DL1XH-15 | 2026-09-03 10:21:09 | 52.50373 | 8.24389 | 119° | 224km/h | 11649m | 5m/s | -56.9°C | 58.7% | 214.2hPa | 2.8V | 08:30:00 | 00:49:39 | 00:00:00 | |
| DO2JMG | 2026-09-03 10:21:06 | 52.50316 | 8.24551 | 121° | 226km/h | 11658m | 4.1m/s | -56.9°C | 56.4% | 213.9hPa | 2.8V | 18:12:15 | 00:49:41 | 00:00:00 | |
| DO9LL-15 | 2026-09-03 10:21:06 | 52.50316 | 8.24551 | 121° | 224km/h | 11658m | 4.1m/s | -56.8°C | 59.6% | 213.8hPa | 2.8V | 00:00:00 | 00:49:41 | 00:00:00 | |
| DL1XH1-15 | 2026-09-03 10:21:05 | 52.50485 | 8.24065 | 121° | 224km/h | 11631m | 5.2m/s | -56.7°C | 57.3% | 214.8hPa | 2.8V | 08:30:00 | 00:49:35 | 00:00:00 | |
| AA1-15 | 2026-09-03 10:21:01 | 52.50456 | 8.24145 | 120° | 226km/h | 11636m | 4.2m/s | -56.8°C | 55.4% | 214.6hPa | 2.8V | 18:12:15 | 00:49:36 | 00:00:00 | |
| DL1XH-west | 2026-09-03 10:21:00 | 52.50485 | 8.24065 | 121° | 226km/h | 11631m | 5.2m/s | -56.7°C | 55.2% | 214.8hPa | 2.8V | 18:12:15 | 00:49:35 | 00:00:00 | |
| DL1XH-15 | 2026-09-03 10:20:59 | 52.50665 | 8.23590 | 121° | 223km/h | 11603m | 4.6m/s | -56.5°C | 54.6% | 215.7hPa | 2.8V | 08:30:00 | 00:49:29 | 00:00:00 | |
| BIOWL1-15 | 2026-09-03 10:20:59 | 52.50515 | 8.23985 | 122° | 226km/h | 11627m | 4.4m/s | -56.6°C | 54.9% | 214.8hPa | 2.8V | 18:12:15 | 00:49:34 | 00:00:00 | |
| BUE01 | 2026-09-03 10:20:59 | 52.50545 | 8.23905 | 121° | 226km/h | 11622m | 5.3m/s | -56.6°C | 49.7% | 215.0hPa | 2.8V | 00:00:00 | 00:00:00 | 00:00:00 | |
| GOEST3-10 | 2026-09-03 10:20:58 | 52.50545 | 8.23905 | 122° | 224km/h | 11622m | 5.3m/s | -56.6°C | 56.3% | 215.0hPa | 2.8V | 00:00:00 | 00:00:00 | 00:00:00 | |
| DM0DOS-11 | 2026-09-03 10:20:56 | 52.50751 | 8.23350 | 119° | 226km/h | 11589m | 5.5m/s | -56.4°C | 53.4% | 216.1hPa | 2.8V | 08:30:00 | 00:49:26 | 00:00:00 | |
| DB0DAN | 2026-09-03 10:20:55 | 52.50635 | 8.23668 | 122° | 210km/h | 11608m | 3.7m/s | -56.4°C | 49.1% | 215.53hPa | 2.8V | 00:00:00 | 00:00:00 | 00:00:00 | |
| DO2JMG | 2026-09-03 10:20:55 | 52.50635 | 8.23668 | 122° | 221km/h | 11608m | 3.7m/s | -56.4°C | 54.2% | 215.5hPa | 2.8V | 18:12:15 | 00:49:30 | 00:00:00 | |
| AA1-15 | 2026-09-03 10:20:51 | 52.50751 | 8.23350 | 120° | 226km/h | 11589m | 5.5m/s | -56.4°C | 53.1% | 216.2hPa | 2.8V | 18:12:15 | 00:49:26 | 00:00:00 | |
| HSKMA3-T | 2026-09-03 10:20:50 | 52.50779 | 8.23268 | 119° | 226km/h | 11584m | 4.2m/s | -56.3°C | 53% | 216.3hPa | 2.8V | 18:12:15 | 00:49:25 | 00:00:00 | |
| DL1XH-west | 2026-09-03 10:20:49 | 52.50808 | 8.23186 | 120° | 228km/h | 11579m | 5.7m/s | -56.3°C | 52.7% | 216.4hPa | 2.8V | 18:12:15 | 00:49:24 | 00:00:00 | |
| GOEST3-10 | 2026-09-03 10:20:48 | 52.50836 | 8.23104 | 120° | 224km/h | 11574m | 4.2m/s | -56.2°C | 53.0% | 216.6hPa | 2.8V | 00:00:00 | 00:00:00 | 00:00:00 | |
| DL1LOL-11 | 2026-09-03 10:20:47 | 52.50836 | 8.23104 | 121° | 228km/h | 11574m | 4.2m/s | -56.3°C | 46.6% | 216.6hPa | 2.8V | 00:00:00 | 00:00:00 | 00:00:00 | |
| DM0DOS-11 | 2026-09-03 10:20:46 | 52.51035 | 8.22542 | 118° | 223km/h | 11542m | 3.6m/s | -55.9°C | 53.9% | 217.7hPa | 2.8V | 08:30:00 | 00:49:16 | 00:00:00 | |
| DO2JMG | 2026-09-03 10:20:45 | 52.50923 | 8.22863 | 121° | 224km/h | 11560m | 4.9m/s | -56.1°C | 52% | 217.2hPa | 2.8V | 18:12:15 | 00:49:20 | 00:00:00 | |
| SONDE2-11 | 2026-09-03 10:20:44 | 52.50952 | 8.22783 | 120° | 223km/h | 11556m | 3.5m/s | -56.0°C | 47.2% | 217.3hPa | 2.8V | 00:00:00 | 00:00:00 | 00:00:00 | |
| AA1-15 | 2026-09-03 10:20:41 | 52.51035 | 8.22542 | 119° | 223km/h | 11542m | 3.6m/s | -55.9°C | 51.5% | 217.7hPa | 2.8V | 18:12:15 | 00:49:16 | 00:00:00 | |
| DL1XH-west | 2026-09-03 10:20:39 | 52.51090 | 8.22380 | 119° | 224km/h | 11533m | 4.4m/s | -56°C | 51.4% | 218.1hPa | 2.8V | 18:12:15 | 00:49:14 | 00:00:00 | |
| DL4BBY-15 | 2026-09-03 10:20:39 | 52.51090 | 8.22380 | 120° | 224km/h | 11534m | 4.4m/s | -54.7°C | 0% | 0hPa | 2.8V | 00:00:00 | 00:00:00 | 00:00:00 | |
| DJ2KF-10 | 2026-09-03 10:20:38 | 52.51118 | 8.22299 | 120° | 221km/h | 11528m | 6.3m/s | 0°C | 0% | 0hPa | 2.8V | 00:00:00 | 00:49:13 | 00:00:00 | |
| DO2LYB-13 | 2026-09-03 10:20:37 | 52.51118 | 8.22299 | 120° | 224km/h | 11528m | 6.3m/s | 0°C | 0% | 218.2hPa | 2.8V | 00:00:00 | 00:00:00 | 00:00:00 | |
| DM0DOS-11 | 2026-09-03 10:20:36 | 52.51326 | 8.21750 | 120° | 219km/h | 11492m | 5.2m/s | -55.5°C | 55.4% | 219.4hPa | 2.8V | 08:30:00 | 00:49:06 | 00:00:00 | |
| DB0NH | 2026-09-03 10:20:36 | 52.51175 | 8.22138 | 122° | 223km/h | 11518m | 5.0m/s | 0°C | 0% | 0hPa | 2.8V | 00:00:00 | 00:49:11 | 00:00:00 | |
| DL1XH1-15 | 2026-09-03 10:20:35 | 52.51353 | 8.21671 | 119° | 221km/h | 11487m | 5.5m/s | -55.5°C | 53.5% | 219.7hPa | 2.8V | 08:30:00 | 00:49:05 | 00:00:00 | |
| DO2JMG | 2026-09-03 10:20:34 | 52.51236 | 8.21982 | 123° | 223km/h | 11508m | 4.4m/s | -55.7°C | 52% | 218.9hPa | 2.8V | 18:12:15 | 00:49:09 | 00:00:00 | |
| AA1-15 | 2026-09-03 10:20:30 | 52.51353 | 8.21671 | 119° | 221km/h | 11487m | 5.5m/s | -55.5°C | 51.7% | 219.7hPa | 2.8V | 18:12:15 | 00:49:05 | 00:00:00 | |
| HSKMA3-T | 2026-09-03 10:20:29 | 52.51381 | 8.21590 | 119° | 224km/h | 11481m | 6.9m/s | -55.5°C | 51.5% | 219.8hPa | 2.8V | 18:12:15 | 00:49:04 | 00:00:00 | |
| DL1XH-west | 2026-09-03 10:20:28 | 52.51409 | 8.21509 | 120° | 226km/h | 11474m | 7m/s | -55.5°C | 51.2% | 220hPa | 2.7V | 18:12:15 | 00:49:03 | 00:00:00 | |
| BUE01 | 2026-09-03 10:20:28 | 52.51437 | 8.21427 | 120° | 228km/h | 11467m | 6.1m/s | -55.5°C | 44.8% | 220.3hPa | 2.8V | 00:00:00 | 00:00:00 | 00:00:00 | |
| D01LWL | 2026-09-03 10:20:27 | 52.51467 | 8.21345 | 120° | 232km/h | 11461m | 6.3m/s | -55.4°C | 44.0% | 220.5hPa | 2.8V | 00:00:00 | 00:00:00 | 00:00:00 | |
| DM0DOS-11 | 2026-09-03 10:20:26 | 52.51617 | 8.20934 | 121° | 221km/h | 11426m | 6.1m/s | -55.1°C | 49.7% | 221.8hPa | 2.8V | 08:30:00 | 00:48:56 | 00:00:00 | |
| DL1XH1-15 | 2026-09-03 10:20:25 | 52.51646 | 8.20856 | 121° | 219km/h | 11419m | 6.6m/s | -55°C | 49.9% | 221.9hPa | 2.8V | 08:30:00 | 00:48:55 | 00:00:00 | |
| DO2JMG | 2026-09-03 10:20:24 | 52.51528 | 8.21178 | 121° | 235km/h | 11446m | 8.7m/s | -55.3°C | 49.8% | 221hPa | 2.8V | 18:12:15 | 00:48:59 | 00:00:00 | |
| AA1-15 | 2026-09-03 10:20:19 | 52.51675 | 8.20779 | 121° | 215km/h | 11414m | 5.4m/s | -54.9°C | 48.7% | 222.1hPa | 2.8V | 18:12:15 | 00:48:54 | 00:00:00 | |
| HSKMA3-T | 2026-09-03 10:20:18 | 52.51703 | 8.20703 | 121° | 215km/h | 11408m | 4.9m/s | -54.8°C | 48.4% | 222.4hPa | 2.7V | 18:12:15 | 00:48:53 | 00:00:00 | |
| DL1XH-west | 2026-09-03 10:20:17 | 52.51731 | 8.20627 | 121° | 215km/h | 11403m | 5.5m/s | -54.8°C | 48.2% | 222.5hPa | 2.7V | 18:12:15 | 00:48:52 | 00:00:00 | |
| DM0DOS-11 | 2026-09-03 10:20:16 | 52.51902 | 8.20153 | 120° | 230km/h | 11372m | 6.1m/s | -54.5°C | 47.2% | 223.6hPa | 2.7V | 08:30:00 | 00:48:46 | 00:00:00 | |
| DL1XH1-15 | 2026-09-03 10:20:15 | 52.51932 | 8.20071 | 120° | 230km/h | 11366m | 4.8m/s | -54.4°C | 46.6% | 223.8hPa | 2.7V | 08:30:00 | 00:48:45 | 00:00:00 | |
| DO2JMG | 2026-09-03 10:20:13 | 52.51843 | 8.20315 | 121° | 224km/h | 11382m | 5.9m/s | -54.6°C | 47.5% | 223.3hPa | 2.8V | 18:12:15 | 00:48:48 | 00:00:00 | |
| DD8BA-10 | 2026-09-03 10:20:13 | 52.51843 | 8.20315 | 121° | 224km/h | 11382m | 5.8m/s | -54.5°C | 48.2% | 223.2hPa | 2.7V | 00:00:00 | 00:00:00 | 00:00:00 | |
| DF5WG-10 | 2026-09-03 10:20:12 | 52.51872 | 8.20234 | 122° | 223km/h | 11377m | 3.5m/s | -54.5°C | 47.6% | 223.4hPa | 2.7V | 00:00:00 | 00:48:47 | 08:30:00 | |
| DC6BW-12 | 2026-09-03 10:20:11 | 52.51872 | 8.20234 | 122° | 228km/h | 11377m | 3.6m/s | -54.5°C | 41.9% | 223.4hPa | 2.7V | 00:00:00 | 00:00:00 | 00:00:00 | |
| DL1XH-15 | 2026-09-03 10:20:09 | 52.52108 | 8.19598 | 121° | 217km/h | 11337m | 5m/s | -54.2°C | 45% | 224.8hPa | 2.7V | 08:30:00 | 00:48:39 | 00:00:00 | |
| AA1-15 | 2026-09-03 10:20:09 | 52.51961 | 8.19990 | 121° | 226km/h | 11361m | 5.3m/s | -54.4°C | 46.7% | 223.9hPa | 2.8V | 18:12:15 | 00:48:44 | 00:00:00 | |
| HSKMA3-T | 2026-09-03 10:20:08 | 52.51991 | 8.19910 | 122° | 224km/h | 11356m | 4.7m/s | -54.4°C | 46.4% | 224.2hPa | 2.8V | 18:12:15 | 00:48:43 | 00:00:00 | |
| DL1XH-west | 2026-09-03 10:20:07 | 52.52020 | 8.19831 | 121° | 221km/h | 11352m | 4.4m/s | -54.3°C | 46.3% | 224.3hPa | 2.8V | 18:12:15 | 00:48:42 | 00:00:00 | |
| DM0DOS-11 | 2026-09-03 10:20:06 | 52.52193 | 8.19368 | 121° | 217km/h | 11322m | 5m/s | -54.1°C | 45.2% | 225.4hPa | 2.8V | 08:30:00 | 00:48:36 | 00:00:00 | |
| DO9LL-15 | 2026-09-03 10:20:06 | 52.52049 | 8.19753 | 122° | 221km/h | 11347m | 5.1m/s | -54.2°C | 45.8% | 224.4hPa | 2.7V | 00:00:00 | 00:48:41 | 08:30:00 | |
| DL1XH1-15 | 2026-09-03 10:20:05 | 52.52222 | 8.19291 | 120° | 219km/h | 11318m | 2.4m/s | -54.1°C | 45.5% | 225.5hPa | 2.7V | 08:30:00 | 00:48:35 | 00:00:00 | |
| DO2JMG | 2026-09-03 10:20:03 | 52.52136 | 8.19521 | 121° | 215km/h | 11332m | 5m/s | -54.1°C | 45.4% | 225hPa | 2.8V | 18:12:15 | 00:48:38 | 00:00:00 | |
| DF5WG-10 | 2026-09-03 10:20:02 | 52.52164 | 8.19445 | 122° | 221km/h | 11327m | 4.8m/s | -54.1°C | 44.5% | 225.1hPa | 2.7V | 00:00:00 | 00:48:37 | 00:00:00 | |
| DB0NH | 2026-09-03 10:20:00 | 52.52222 | 8.19291 | 121° | 221km/h | 11319m | 2.4m/s | 0°C | 0% | 0hPa | 2.7V | 00:00:00 | 00:48:35 | 00:00:00 | |
| DL1XH-15 | 2026-09-03 10:19:59 | 52.52389 | 8.18811 | 119° | 223km/h | 11293m | 4.9m/s | -53.8°C | 44.2% | 226.4hPa | 2.7V | 08:30:00 | 00:48:29 | 00:00:00 | |
| AA1-15 | 2026-09-03 10:19:58 | 52.52278 | 8.19134 | 120° | 221km/h | 11310m | 4.1m/s | -54°C | 44.9% | 225.8hPa | 2.8V | 18:12:15 | 00:48:33 | 00:00:00 | |
| DL1XH-west | 2026-09-03 10:19:57 | 52.52305 | 8.19053 | 119° | 224km/h | 11305m | 4.8m/s | -54°C | 44.8% | 226hPa | 2.8V | 18:12:15 | 00:48:32 | 00:00:00 | |
| BUE01 | 2026-09-03 10:19:57 | 52.52333 | 8.18972 | 119° | 224km/h | 11301m | 3.8m/s | -53.9°C | 40.1% | 226.2hPa | 2.7V | 00:00:00 | 00:00:00 | 00:00:00 | |
| D01LWL | 2026-09-03 10:19:56 | 52.52361 | 8.18891 | 119° | 223km/h | 11297m | 4.3m/s | -53.8°C | 39.5% | 226.3hPa | 2.7V | 00:00:00 | 00:00:00 | 00:00:00 | |
| DB0DAN | 2026-09-03 10:19:55 | 52.52361 | 8.18891 | 120° | 214km/h | 11297m | 4.3m/s | -53.8°C | 39.5% | 226.28hPa | 2.7V | 00:00:00 | 00:00:00 | 00:00:00 | |
| DL1XH1-15 | 2026-09-03 10:19:55 | 52.52504 | 8.18495 | 121° | 221km/h | 11273m | 5.5m/s | -53.7°C | 43.3% | 227.1hPa | 2.8V | 08:30:00 | 00:48:25 | 00:00:00 | |
| DB0ND-19 | 2026-09-03 10:19:54 | 52.52389 | 8.18811 | 119° | 221km/h | 11293m | 4.9m/s | -53.8°C | 38.7% | 226.4hPa | 2.8V | 00:00:00 | 00:00:00 | 00:00:00 | |
| DL3AQ-11 | 2026-09-03 10:19:53 | 52.52446 | 8.18652 | 120° | 221km/h | 11283m | 4.5m/s | -53.8°C | 38.3% | 226.8hPa | 2.8V | 00:00:00 | 00:00:00 | 00:00:00 | |
| DF5WG-10 | 2026-09-03 10:19:52 | 52.52445 | 8.18652 | 121° | 221km/h | 11283m | 4.4m/s | -53.8°C | 43.8% | 226.8hPa | 2.8V | 00:00:00 | 00:48:27 | 00:00:00 | |
| DO2JMG | 2026-09-03 10:19:52 | 52.52446 | 8.18652 | 121° | 221km/h | 11283m | 4.5m/s | -53.8°C | 43.9% | 226.8hPa | 2.8V | 18:12:15 | 00:48:27 | 00:00:00 | |
| DL1LOL-11 | 2026-09-03 10:19:51 | 52.52445 | 8.18652 | 122° | 221km/h | 11283m | 4.5m/s | -53.8°C | 38.3% | 226.8hPa | 2.8V | 00:00:00 | 00:00:00 | 00:00:00 | |
| DC6BW-12 | 2026-09-03 10:19:50 | 52.52475 | 8.18573 | 122° | 221km/h | 11278m | 4.7m/s | -53.7°C | 38.4% | 226.9hPa | 2.8V | 00:00:00 | 00:00:00 | 00:00:00 | |
| DL1XH-15 | 2026-09-03 10:19:49 | 52.52679 | 8.18027 | 121° | 219km/h | 11243m | 5.2m/s | -53.4°C | 41.4% | 228.2hPa | 2.8V | 08:30:00 | 00:48:19 | 00:00:00 | |
| AA1-15 | 2026-09-03 10:19:47 | 52.52592 | 8.18261 | 122° | 223km/h | 11258m | 4.5m/s | -53.6°C | 43.2% | 227.7hPa | 2.7V | 18:12:15 | 00:48:22 | 00:00:00 | |
| DL1XH-west | 2026-09-03 10:19:46 | 52.52621 | 8.18183 | 122° | 221km/h | 11253m | 6m/s | -53.5°C | 43% | 227.8hPa | 2.8V | 18:12:15 | 00:48:21 | 00:00:00 | |
| DO2JMG | 2026-09-03 10:19:42 | 52.52736 | 8.17872 | 121° | 217km/h | 11233m | 6.2m/s | -53.5°C | 42.2% | 228.6hPa | 2.7V | 18:12:15 | 00:48:17 | 00:00:00 | |
| DF5WG-10 | 2026-09-03 10:19:42 | 52.52736 | 8.17872 | 122° | 223km/h | 11233m | 6.1m/s | -53.5°C | 40.8% | 228.5hPa | 2.7V | 00:00:00 | 00:48:17 | 00:00:00 | |
| SONCRA | 2026-09-03 10:19:41 | 52.52765 | 8.17794 | 120° | 217km/h | 11228m | 4.3m/s | -53.4°C | 35.8% | 228.7hPa | 2.7V | 00:00:00 | 00:00:00 | 00:00:00 | |
| DO2LYB-13 | 2026-09-03 10:19:40 | 52.52765 | 8.17794 | 122° | 217km/h | 11228m | 4.3m/s | 0°C | 0% | 0hPa | 2.7V | 00:00:00 | 00:00:00 | 00:00:00 | |
| DL1XH-15 | 2026-09-03 10:19:39 | 52.52972 | 8.17240 | 121° | 226km/h | 11193m | 6m/s | -53.2°C | 41.5% | 229.9hPa | 2.7V | 08:30:00 | 00:48:09 | 00:00:00 | |
| DL4BBY-15 | 2026-09-03 10:19:39 | 52.52822 | 8.17638 | 122° | 219km/h | 11217m | 4.1m/s | -51.9°C | 0% | 0hPa | 2.7V | 00:00:00 | 00:00:00 | 00:00:00 | |
| GOEST3-10 | 2026-09-03 10:19:38 | 52.52851 | 8.17559 | 121° | 226km/h | 11213m | 4.9m/s | -53.2°C | 42.1% | 229.2hPa | 2.7V | 00:00:00 | 00:00:00 | 00:00:00 | |
| DL8OAI-8 | 2026-09-03 10:19:37 | 52.52851 | 8.17559 | 122° | 224km/h | 11213m | 5.0m/s | -53.3°C | 0% | 0hPa | 2.8V | 00:00:00 | 00:00:00 | 00:00:00 | |
| DM0DOS-11 | 2026-09-03 10:19:36 | 52.53057 | 8.17004 | 120° | 215km/h | 11180m | 5.1m/s | -53.1°C | 41.2% | 230.4hPa | 2.8V | 08:30:00 | 00:48:06 | 00:00:00 | |
| AA1-15 | 2026-09-03 10:19:36 | 52.52911 | 8.17399 | 122° | 226km/h | 11203m | 5m/s | -53.3°C | 42.1% | 229.6hPa | 2.7V | 18:12:15 | 00:48:11 | 00:00:00 | |
| DL1XH-west | 2026-09-03 10:19:35 | 52.52942 | 8.17320 | 122° | 226km/h | 11199m | 4.1m/s | -53.2°C | 42% | 229.8hPa | 2.7V | 18:12:15 | 00:48:10 | 00:00:00 | |
| DO2JMG | 2026-09-03 10:19:31 | 52.53057 | 8.17004 | 120° | 215km/h | 11180m | 5.1m/s | -53.1°C | 41.3% | 230.4hPa | 2.8V | 18:12:15 | 00:48:06 | 00:00:00 | |
| DB0NH | 2026-09-03 10:19:30 | 52.53084 | 8.16927 | 121° | 215km/h | 11176m | 3.8m/s | 0°C | 0% | 0hPa | 2.7V | 00:00:00 | 00:48:05 | 00:00:00 | |
| DL1XH-15 | 2026-09-03 10:19:29 | 52.53246 | 8.16459 | 120° | 219km/h | 11146m | 5.1m/s | -52.9°C | 41.6% | 231.6hPa | 2.7V | 08:30:00 | 00:47:59 | 00:00:00 | |
| DO3DL | 2026-09-03 10:19:28 | 52.53138 | 8.16772 | 120° | 215km/h | 11167m | 5.0m/s | -53.0°C | 35.9% | 230.9hPa | 2.8V | 00:00:00 | 00:00:00 | 00:00:00 | |
| DD1CC3-15 | 2026-09-03 10:19:27 | 52.53138 | 8.16772 | 120° | 215km/h | 11167m | 5.0m/s | -53.0°C | 35.9% | 230.9hPa | 2.8V | 00:00:00 | 00:00:00 | 00:00:00 | |
| DM0DOS-11 | 2026-09-03 10:19:26 | 52.53331 | 8.16225 | 121° | 217km/h | 11133m | 3.8m/s | -52.8°C | 41.1% | 232.1hPa | 2.8V | 08:30:00 | 00:47:56 | 00:00:00 | |
| AA1-15 | 2026-09-03 10:19:25 | 52.53218 | 8.16538 | 120° | 217km/h | 11151m | 4.4m/s | -52.9°C | 41.1% | 231.5hPa | 2.8V | 18:12:15 | 00:48:00 | 00:00:00 | |
| DL1XH-west | 2026-09-03 10:19:24 | 52.53246 | 8.16459 | 120° | 219km/h | 11146m | 5.1m/s | -52.9°C | 41.1% | 231.7hPa | 2.7V | 18:12:15 | 00:47:59 | 00:00:00 | |
| DO2JMG | 2026-09-03 10:19:20 | 52.53360 | 8.16148 | 121° | 219km/h | 11129m | 4m/s | -52.8°C | 40.5% | 232.2hPa | 2.8V | 18:12:15 | 00:47:55 | 00:00:00 | |
| DL1XH-15 | 2026-09-03 10:19:19 | 52.53528 | 8.15682 | 120° | 215km/h | 11098m | 5.9m/s | -52.5°C | 37.4% | 233.3hPa | 2.8V | 08:30:00 | 00:47:49 | 00:00:00 | |
| GOEST3-10 | 2026-09-03 10:19:18 | 52.53417 | 8.15992 | 121° | 217km/h | 11119m | 4.3m/s | -52.7°C | 38.9% | 232.6hPa | 2.8V | 00:00:00 | 00:00:00 | 00:00:00 | |
| DD1CC8 | 2026-09-03 10:19:17 | 52.53473 | 8.15837 | 120° | 215km/h | 11108m | 3.4m/s | -52.6°C | 33.3% | 232.9hPa | 2.8V | 00:00:00 | 00:00:00 | 00:00:00 | |
| DM0DOS-11 | 2026-09-03 10:19:16 | 52.53608 | 8.15451 | 118° | 214km/h | 11083m | 5.7m/s | -52.2°C | 37.5% | 233.9hPa | 2.8V | 08:30:00 | 00:47:46 | 00:00:00 | |
| DJ2DS-15 | 2026-09-03 10:19:16 | 52.53473 | 8.15837 | 120° | 215km/h | 11108m | 3.4m/s | -52.6°C | 33.3% | 232.9hPa | 2.8V | 00:00:00 | 00:00:00 | 00:00:00 | |
| DL1XH1-15 | 2026-09-03 10:19:15 | 52.53634 | 8.15374 | 118° | 210km/h | 11078m | 4.4m/s | -52.2°C | 37.5% | 234.1hPa | 2.8V | 08:30:00 | 00:47:45 | 00:00:00 | |
| DL1XH-west | 2026-09-03 10:19:14 | 52.53528 | 8.15682 | 120° | 215km/h | 11098m | 5.9m/s | -52.5°C | 38.6% | 233.3hPa | 2.8V | 18:12:15 | 00:47:49 | 00:00:00 | |
| BIOWL1-15 | 2026-09-03 10:19:13 | 52.53555 | 8.15605 | 120° | 214km/h | 11093m | 5.2m/s | -52.4°C | 38.4% | 233.5hPa | 2.7V | 18:12:15 | 00:47:48 | 00:00:00 | |
| DO2JMG | 2026-09-03 10:19:09 | 52.53660 | 8.15298 | 119° | 208km/h | 11073m | 4.9m/s | -52.2°C | 37.8% | 234.2hPa | 2.8V | 18:12:15 | 00:47:44 | 00:00:00 | |
| DL4BBY-15 | 2026-09-03 10:19:09 | 52.53660 | 8.15298 | 120° | 210km/h | 11073m | 4.9m/s | -50.8°C | 0% | 0hPa | 2.7V | 00:00:00 | 00:00:00 | 00:00:00 | |
| GOEST3-10 | 2026-09-03 10:19:08 | 52.53686 | 8.15223 | 120° | 212km/h | 11069m | 3.6m/s | -52.1°C | 36.8% | 234.3hPa | 2.7V | 00:00:00 | 00:00:00 | 08:30:00 | |
| DD1CC3-15 | 2026-09-03 10:19:07 | 52.53686 | 8.15223 | 121° | 210km/h | 11069m | 3.7m/s | -52.1°C | 32.0% | 234.4hPa | 2.8V | 00:00:00 | 00:00:00 | 00:00:00 | |
| DM0DOS-11 | 2026-09-03 10:19:06 | 52.53882 | 8.14693 | 121° | 217km/h | 11036m | 4.5m/s | -51.9°C | 36.2% | 235.7hPa | 2.8V | 08:30:00 | 00:47:36 | 00:00:00 | |
| DO9LL-15 | 2026-09-03 10:19:06 | 52.53740 | 8.15071 | 122° | 208km/h | 11059m | 4.6m/s | -52.1°C | 36.5% | 234.7hPa | 2.8V | 00:00:00 | 00:47:41 | 00:00:00 | |
| DL1XH1-15 | 2026-09-03 10:19:05 | 52.53910 | 8.14617 | 121° | 215km/h | 11030m | 5.6m/s | -51.9°C | 36.5% | 235.8hPa | 2.8V | 08:30:00 | 00:47:35 | 00:00:00 | |
| HSKMA3-T | 2026-09-03 10:19:04 | 52.53797 | 8.14921 | 122° | 214km/h | 11050m | 4.8m/s | -52°C | 36.8% | 235.1hPa | 2.8V | 18:12:15 | 00:47:39 | 00:00:00 | |
| BIOWL1-15 | 2026-09-03 10:19:03 | 52.53854 | 8.14770 | 121° | 215km/h | 11041m | 5.8m/s | -52°C | 36.4% | 235.4hPa | 2.7V | 18:12:15 | 00:47:37 | 00:00:00 | |
| DL1XH-west | 2026-09-03 10:19:03 | 52.53826 | 8.14846 | 122° | 214km/h | 11046m | 4m/s | -52°C | 36.6% | 235.2hPa | 2.7V | 18:12:15 | 00:47:38 | 00:00:00 | |
| DO2JMG | 2026-09-03 10:18:59 | 52.53938 | 8.14540 | 121° | 215km/h | 11026m | 4.2m/s | -51.9°C | 36.1% | 235.9hPa | 2.8V | 18:12:15 | 00:47:34 | 00:00:00 | |
| BIOWL1-15 | 2026-09-03 10:18:57 | 52.54148 | 8.13946 | 120° | 208km/h | 10984m | 4.8m/s | -51.5°C | 34.9% | 237.5hPa | 2.7V | 18:12:15 | 00:47:26 | 00:00:00 | |
| DM0DOS-11 | 2026-09-03 10:18:56 | 52.54148 | 8.13946 | 120° | 208km/h | 10984m | 4.8m/s | -51.5°C | 34.2% | 237.5hPa | 2.7V | 08:30:00 | 00:47:26 | 00:00:00 | |
| DL1XH1-15 | 2026-09-03 10:18:55 | 52.54175 | 8.13871 | 119° | 212km/h | 10979m | 5.8m/s | -51.5°C | 33.8% | 237.7hPa | 2.8V | 08:30:00 | 00:47:25 | 00:00:00 | |
| DL1XH-west | 2026-09-03 10:18:53 | 52.54097 | 8.14093 | 120° | 199km/h | 10997m | 6.4m/s | -51.6°C | 35.2% | 237hPa | 2.8V | 18:12:15 | 00:47:28 | 00:00:00 | |
| DB0ND-19 | 2026-09-03 10:18:52 | 52.54148 | 8.13946 | 120° | 208km/h | 10984m | 4.8m/s | -51.5°C | -1.0% | -1.0hPa | 2.8V | 00:00:00 | 00:00:00 | 00:00:00 | |
| HTAHTA | 2026-09-03 10:18:50 | 52.54175 | 8.13871 | 119° | 212km/h | 10979m | 5.8m/s | -51.5°C | 29.3% | 237.7hPa | 2.8V | 00:00:00 | 00:00:00 | 00:00:00 | |
| DL1XH-15 | 2026-09-03 10:18:49 | 52.54341 | 8.13410 | 120° | 210km/h | 10946m | 6.3m/s | -51.2°C | 33.1% | 238.9hPa | 2.8V | 08:30:00 | 00:47:19 | 00:00:00 | |
| DO2JMG | 2026-09-03 10:18:48 | 52.54230 | 8.13718 | 121° | 215km/h | 10967m | 5.3m/s | -51.4°C | 34.4% | 238.1hPa | 2.8V | 18:12:15 | 00:47:23 | 00:00:00 | |
| GOEST3-10 | 2026-09-03 10:18:48 | 52.54230 | 8.13718 | 122° | 215km/h | 10967m | 5.2m/s | -51.3°C | 33.8% | 238.1hPa | 2.7V | 00:00:00 | 00:00:00 | 00:00:00 | |
| DM0DOS-11 | 2026-09-03 10:18:46 | 52.54419 | 8.13196 | 121° | 192km/h | 10928m | 5m/s | -51°C | 32.5% | 239.5hPa | 2.7V | 08:30:00 | 00:47:16 | 00:00:00 | |
| DD1CC8 | 2026-09-03 10:18:46 | 52.54314 | 8.13485 | 120° | 214km/h | 10951m | 5.4m/s | -51.2°C | 28.9% | 238.7hPa | 2.7V | 00:00:00 | 00:00:00 | 00:00:00 | |
| DL1XH1-15 | 2026-09-03 10:18:45 | 52.54445 | 8.13127 | 121° | 193km/h | 10923m | 4.6m/s | -51°C | 32.5% | 239.8hPa | 2.7V | 08:30:00 | 00:47:15 | 00:00:00 | |
| DL1XH-west | 2026-09-03 10:18:43 | 52.54368 | 8.13336 | 121° | 203km/h | 10939m | 6m/s | -51.1°C | 33.7% | 239.1hPa | 2.8V | 18:12:15 | 00:47:18 | 00:00:00 | |
| AA1-15 | 2026-09-03 10:18:42 | 52.54394 | 8.13265 | 121° | 197km/h | 10933m | 6.1m/s | -51.1°C | 33.6% | 239.4hPa | 2.8V | 18:12:15 | 00:47:17 | 00:00:00 | |
| BIOWL1-15 | 2026-09-03 10:18:40 | 52.54445 | 8.13127 | 122° | 193km/h | 10923m | 4.6m/s | -51°C | 33.3% | 239.8hPa | 2.7V | 18:12:15 | 00:47:15 | 00:00:00 | |
| DJ2DS-15 | 2026-09-03 10:18:40 | 52.54471 | 8.13059 | 122° | 193km/h | 10918m | 4.6m/s | -50.9°C | 27.7% | 239.9hPa | 2.7V | 00:00:00 | 00:00:00 | 00:00:00 | |
| DL1XH-15 | 2026-09-03 10:18:39 | 52.54603 | 8.12694 | 119° | 214km/h | 10889m | 6m/s | -50.7°C | 30.9% | 241hPa | 2.7V | 08:30:00 | 00:47:09 | 00:00:00 | |
| DO2JMG | 2026-09-03 10:18:38 | 52.54497 | 8.12990 | 122° | 199km/h | 10913m | 4.6m/s | -50.9°C | 32.9% | 240.1hPa | 2.8V | 18:12:15 | 00:47:13 | 00:00:00 | |
| GOEST3-10 | 2026-09-03 10:18:38 | 52.54497 | 8.12990 | 122° | 206km/h | 10914m | 4.6m/s | -50.8°C | 31.6% | 240.1hPa | 2.7V | 00:00:00 | 00:00:00 | 00:00:00 | |
| DM0DOS-11 | 2026-09-03 10:18:36 | 52.54684 | 8.12466 | 120° | 212km/h | 10873m | 6.3m/s | -50.6°C | 31.8% | 241.6hPa | 2.8V | 08:30:00 | 00:47:06 | 00:00:00 | |
| DO9LL-15 | 2026-09-03 10:18:36 | 52.54550 | 8.12846 | 121° | 203km/h | 10903m | 7.1m/s | -50.8°C | 30.7% | 240.4hPa | 2.7V | 00:00:00 | 00:47:11 | 00:00:00 | |
| DL1XH1-15 | 2026-09-03 10:18:35 | 52.54712 | 8.12391 | 121° | 212km/h | 10867m | 5.6m/s | -50.5°C | 32.3% | 241.8hPa | 2.7V | 08:30:00 | 00:47:05 | 00:00:00 | |
| DL1XH-west | 2026-09-03 10:18:32 | 52.54657 | 8.12542 | 121° | 212km/h | 10878m | 3.6m/s | -50.6°C | 32% | 241.4hPa | 2.8V | 18:12:15 | 00:47:07 | 00:00:00 | |
| BIOWL1-15 | 2026-09-03 10:18:31 | 52.54740 | 8.12318 | 123° | 203km/h | 10862m | 5m/s | -50.5°C | 32.1% | 242hPa | 2.7V | 18:12:15 | 00:47:04 | 00:00:00 | |
| DO2JMG | 2026-09-03 10:18:27 | 52.54794 | 8.12181 | 124° | 192km/h | 10851m | 4m/s | -50.4°C | 32.1% | 242.4hPa | 2.8V | 18:12:15 | 00:47:02 | 00:00:00 | |
| DM0DOS-11 | 2026-09-03 10:18:26 | 52.54947 | 8.11771 | 118° | 201km/h | 10821m | 8.8m/s | -50.2°C | 29.5% | 243.5hPa | 2.8V | 08:30:00 | 00:46:56 | 00:00:00 | |
| DB0DAN | 2026-09-03 10:18:25 | 52.54847 | 8.12051 | 123° | 179km/h | 10843m | 3.9m/s | -50.3°C | 27.6% | 242.7hPa | 2.8V | 00:00:00 | 00:00:00 | 00:00:00 | |
| DL1XH1-15 | 2026-09-03 10:18:25 | 52.54971 | 8.11698 | 118° | 201km/h | 10812m | 8.5m/s | -50.1°C | 29.7% | 243.8hPa | 2.8V | 08:30:00 | 00:46:55 | 00:00:00 | |
| AA1-15 | 2026-09-03 10:18:22 | 52.54922 | 8.11843 | 119° | 199km/h | 10829m | 7m/s | -50.2°C | 31.7% | 243.2hPa | 2.8V | 18:12:15 | 00:46:57 | 00:00:00 | |
| DL1XH-west | 2026-09-03 10:18:21 | 52.54947 | 8.11771 | 118° | 201km/h | 10821m | 8.8m/s | -50.2°C | 31.6% | 243.5hPa | 2.8V | 18:12:15 | 00:46:56 | 00:00:00 | |
| BIOWL1-15 | 2026-09-03 10:18:19 | 52.54996 | 8.11625 | 121° | 203km/h | 10804m | 7.1m/s | -50°C | 31.6% | 244.2hPa | 2.7V | 18:12:15 | 00:46:54 | 00:00:00 | |
| DO2JMG | 2026-09-03 10:18:17 | 52.55053 | 8.11485 | 125° | 204km/h | 10793m | 5.9m/s | -49.9°C | 31.4% | 244.6hPa | 2.8V | 18:12:15 | 00:46:52 | 00:00:00 | |
| DM0DOS-11 | 2026-09-03 10:18:16 | 52.55229 | 8.11055 | 122° | 210km/h | 10757m | 6.2m/s | -49.7°C | 29.6% | 245.9hPa | 2.8V | 08:30:00 | 00:46:46 | 00:00:00 | |
| GOEST3-10 | 2026-09-03 10:18:16 | 52.55082 | 8.11415 | 125° | 208km/h | 10787m | 6.9m/s | -49.8°C | 29.4% | 244.7hPa | 2.8V | 00:00:00 | 00:00:00 | 00:00:00 | |
| DL1XH1-15 | 2026-09-03 10:18:15 | 52.55257 | 8.10982 | 122° | 208km/h | 10751m | 4.8m/s | -49.6°C | 29.8% | 246.1hPa | 2.8V | 08:30:00 | 00:46:45 | 00:00:00 | |
| AA1-15 | 2026-09-03 10:18:12 | 52.55200 | 8.11128 | 123° | 210km/h | 10762m | 5.5m/s | -49.7°C | 31.2% | 245.7hPa | 2.7V | 18:12:15 | 00:46:47 | 00:00:00 | |
| BIOWL1-15 | 2026-09-03 10:18:10 | 52.55313 | 8.10839 | 123° | 199km/h | 10741m | 4.2m/s | -49.5°C | 31.5% | 246.5hPa | 2.7V | 18:12:15 | 00:46:43 | 00:00:00 | |
| DL1XH-west | 2026-09-03 10:18:10 | 52.55258 | 8.10982 | 122° | 208km/h | 10751m | 4.8m/s | -49.6°C | 31.4% | 246.2hPa | 2.8V | 18:12:15 | 00:46:45 | 00:00:00 | |
| DO2JMG | 2026-09-03 10:18:07 | 52.55341 | 8.10771 | 124° | 197km/h | 10736m | 3.9m/s | -49.5°C | 31.6% | 246.7hPa | 2.7V | 18:12:15 | 00:46:42 | 00:00:00 | |
| DM0DOS-11 | 2026-09-03 10:18:06 | 52.55513 | 8.10353 | 123° | 214km/h | 10705m | 4m/s | -49.4°C | 31.6% | 247.9hPa | 2.7V | 08:30:00 | 00:46:36 | 00:00:00 | |
| DO9LL-15 | 2026-09-03 10:18:06 | 52.55368 | 8.10703 | 124° | 204km/h | 10731m | 6.0m/s | -49.5°C | 30.2% | 246.8hPa | 2.8V | 00:00:00 | 00:46:41 | 00:00:00 | |
| DL1XH1-15 | 2026-09-03 10:18:05 | 52.55543 | 8.10280 | 123° | 212km/h | 10700m | 5.3m/s | -49.4°C | 31.7% | 248.1hPa | 2.8V | 08:30:00 | 00:46:35 | 00:00:00 | |
| AA1-15 | 2026-09-03 10:18:01 | 52.55513 | 8.10353 | 124° | 214km/h | 10705m | 4m/s | -49.4°C | 32.5% | 247.9hPa | 2.7V | 18:12:15 | 00:46:36 | 00:00:00 | |
| DL1XH-west | 2026-09-03 10:17:59 | 52.55573 | 8.10207 | 124° | 212km/h | 10696m | 4.2m/s | -49.4°C | 32.9% | 248.2hPa | 2.8V | 18:12:15 | 00:46:34 | 00:00:00 | |
| BIOWL1-15 | 2026-09-03 10:17:58 | 52.55602 | 8.10134 | 123° | 210km/h | 10692m | 3.5m/s | -49.4°C | 33% | 248.3hPa | 2.8V | 18:12:15 | 00:46:33 | 00:00:00 | |
| DB0NH | 2026-09-03 10:17:58 | 52.55602 | 8.10134 | 124° | 210km/h | 10692m | 3.4m/s | 0°C | 0% | 0hPa | 2.7V | 00:00:00 | 00:46:33 | 00:00:00 | |
| DO3DL | 2026-09-03 10:17:57 | 52.55602 | 8.10134 | 124° | 210km/h | 10692m | 3.5m/s | -49.4°C | 27.3% | 248.3hPa | 2.7V | 00:00:00 | 00:00:00 | 00:00:00 | |
| DM0DOS-11 | 2026-09-03 10:17:56 | 52.55805 | 8.09635 | 125° | 210km/h | 10652m | 5m/s | -49.2°C | 31.8% | 249.9hPa | 2.7V | 08:30:00 | 00:46:26 | 00:00:00 | |
| DO2JMG | 2026-09-03 10:17:56 | 52.55659 | 8.09988 | 122° | 208km/h | 10682m | 5.3m/s | -49.4°C | 33% | 248.7hPa | 2.7V | 18:12:15 | 00:46:31 | 00:00:00 | |
| DB0DAN | 2026-09-03 10:17:55 | 52.55686 | 8.09916 | 123° | 195km/h | 10676m | 6.6m/s | -49.4°C | 27% | 248.94hPa | 2.7V | 00:00:00 | 00:00:00 | 00:00:00 | |
| DL1XH1-15 | 2026-09-03 10:17:55 | 52.55835 | 8.09565 | 125° | 208km/h | 10646m | 5.3m/s | -49.3°C | 32% | 250hPa | 2.8V | 08:30:00 | 00:46:25 | 00:00:00 | |
| AA1-15 | 2026-09-03 10:17:51 | 52.55805 | 8.09635 | 126° | 210km/h | 10652m | 5m/s | -49.3°C | 33.4% | 249.9hPa | 2.7V | 18:12:15 | 00:46:26 | 00:00:00 | |
| DB0ND-19 | 2026-09-03 10:17:50 | 52.55894 | 8.09424 | 123° | 204km/h | 10638m | 2.4m/s | -49.3°C | -1.0% | -1.0hPa | 2.7V | 00:00:00 | 00:00:00 | 00:00:00 | |
| DL1XH-15 | 2026-09-03 10:17:49 | 52.56012 | 8.09146 | 126° | 201km/h | 10620m | 4.3m/s | -49.1°C | 33.4% | 251hPa | 2.7V | 08:30:00 | 00:46:19 | 00:00:00 | |
| DL1XH-west | 2026-09-03 10:17:49 | 52.55865 | 8.09494 | 124° | 206km/h | 10641m | 4.3m/s | -49.2°C | 33.6% | 250.3hPa | 2.9V | 18:12:15 | 00:46:24 | 00:00:00 | |
| HSKMA3-T | 2026-09-03 10:17:48 | 52.55894 | 8.09424 | 124° | 204km/h | 10638m | 2.4m/s | 0°C | 0% | 0hPa | 2.9V | 18:12:15 | 00:46:23 | 00:00:00 | |
| DO2JMG | 2026-09-03 10:17:46 | 52.55952 | 8.09283 | 125° | 206km/h | 10630m | 4.6m/s | -49.1°C | 34.3% | 250.8hPa | 2.8V | 18:12:15 | 00:46:21 | 00:00:00 | |
| GOEST3-10 | 2026-09-03 10:17:46 | 52.55952 | 8.09283 | 125° | 201km/h | 10630m | 4.6m/s | -49.0°C | 33.3% | 250.7hPa | 2.8V | 00:00:00 | 00:00:00 | 00:00:00 | |
| DL1XH1-15 | 2026-09-03 10:17:45 | 52.56131 | 8.08879 | 124° | 199km/h | 10602m | 3.9m/s | -49°C | 35.1% | 251.8hPa | 2.8V | 08:30:00 | 00:46:15 | 00:00:00 | |
| DL4XJ-10 | 2026-09-03 10:17:45 | 52.55982 | 8.09213 | 126° | 204km/h | 10626m | 4.6m/s | -47.6°C | 0% | 0hPa | 2.8V | 00:00:00 | 00:00:00 | 00:00:00 | |
| DO3DL | 2026-09-03 10:17:44 | 52.55982 | 8.09214 | 127° | 203km/h | 10625m | 4.6m/s | -49.0°C | 29.0% | 250.8hPa | 2.8V | 00:00:00 | 00:00:00 | 00:00:00 | |
| DD8BA-10 | 2026-09-03 10:17:43 | 52.56042 | 8.09079 | 127° | 203km/h | 10616m | 4.2m/s | -49.0°C | 33.5% | 251.2hPa | 2.8V | 00:00:00 | 00:00:00 | 00:00:00 | |
| DB0DAN | 2026-09-03 10:17:40 | 52.56131 | 8.08879 | 125° | 190km/h | 10602m | 3.9m/s | -49°C | 30.8% | 251.8hPa | 2.8V | 00:00:00 | 00:00:00 | 00:00:00 | |
| AA1-15 | 2026-09-03 10:17:40 | 52.56131 | 8.08879 | 125° | 201km/h | 10602m | 3.9m/s | -49°C | 35.7% | 251.8hPa | 2.8V | 18:12:15 | 00:46:15 | 00:00:00 | |
| DL1XH-15 | 2026-09-03 10:17:39 | 52.56319 | 8.08471 | 128° | 206km/h | 10571m | 5.5m/s | -48.8°C | 36.2% | 253hPa | 2.8V | 08:30:00 | 00:46:09 | 00:00:00 | |
| BIOWL1-15 | 2026-09-03 10:17:39 | 52.56222 | 8.08674 | 127° | 208km/h | 10588m | 4.6m/s | -48.8°C | 37.2% | 252.3hPa | 2.9V | 18:12:15 | 00:46:12 | 00:00:00 | |
| DL1XH-west | 2026-09-03 10:17:38 | 52.56190 | 8.08742 | 127° | 204km/h | 10593m | 4.2m/s | -48.8°C | 36.7% | 252.1hPa | 2.7V | 18:12:15 | 00:46:13 | 00:00:00 | |
| SONCRA | 2026-09-03 10:17:37 | 52.56222 | 8.08674 | 127° | 206km/h | 10588m | 4.6m/s | -48.8°C | 32.2% | 252.3hPa | 2.9V | 00:00:00 | 00:00:00 | 00:00:00 | |
| DM0DOS-11 | 2026-09-03 10:17:36 | 52.56416 | 8.08268 | 127° | 210km/h | 10554m | 5.4m/s | -48.6°C | 37.4% | 253.6hPa | 2.9V | 08:30:00 | 00:46:06 | 00:00:00 | |
| DO2JMG | 2026-09-03 10:17:36 | 52.56254 | 8.08606 | 128° | 208km/h | 10583m | 6.7m/s | -48.8°C | 37.6% | 252.5hPa | 2.8V | 18:12:15 | 00:46:11 | 00:00:00 | |
| AA1-15 | 2026-09-03 10:17:30 | 52.56448 | 8.08198 | 127° | 210km/h | 10548m | 6.2m/s | -48.6°C | 40.6% | 253.8hPa | 2.9V | 18:12:15 | 00:46:05 | 00:00:00 | |
| DL1XH-15 | 2026-09-03 10:17:29 | 52.56642 | 8.07799 | 127° | 199km/h | 10515m | 4.7m/s | -48.4°C | 51.4% | 255.2hPa | 2.8V | 08:30:00 | 00:45:59 | 00:00:00 | |
| BIOWL1-15 | 2026-09-03 10:17:27 | 52.56546 | 8.07995 | 129° | 204km/h | 10531m | 5.6m/s | -48.4°C | 44.1% | 254.5hPa | 2.8V | 18:12:15 | 00:46:02 | 00:00:00 | |
| DM0DOS-11 | 2026-09-03 10:17:26 | 52.56733 | 8.07601 | 126° | 201km/h | 10500m | 5.9m/s | -48.5°C | 58.2% | 255.7hPa | 2.7V | 08:30:00 | 00:45:56 | 00:00:00 | |
| GOEST3-10 | 2026-09-03 10:17:26 | 52.56579 | 8.07930 | 129° | 201km/h | 10525m | 5.2m/s | -48.3°C | 45.7% | 254.7hPa | 2.9V | 00:00:00 | 00:00:00 | 00:00:00 | |
| DL1XH1-15 | 2026-09-03 10:17:25 | 52.56763 | 8.07533 | 125° | 204km/h | 10495m | 3.2m/s | -48.5°C | 58.5% | 255.8hPa | 2.9V | 08:30:00 | 00:45:55 | 00:00:00 | |
| DO2JMG | 2026-09-03 10:17:25 | 52.56611 | 8.07865 | 129° | 201km/h | 10520m | 5.2m/s | -48.3°C | 47.9% | 254.9hPa | 2.9V | 18:12:15 | 00:46:00 | 00:00:00 | |
| BIOWL1-15 | 2026-09-03 10:17:20 | 52.56885 | 8.07261 | 127° | 199km/h | 10475m | 5m/s | -48.6°C | 58.4% | 256.6hPa | 2.7V | 18:12:15 | 00:45:51 | 00:00:00 | |
| DL1XH-15 | 2026-09-03 10:17:19 | 52.56946 | 8.07130 | 126° | 201km/h | 10464m | 5.5m/s | -48.5°C | 57.2% | 257.1hPa | 2.9V | 08:30:00 | 00:45:49 | 00:00:00 | |
| AA1-15 | 2026-09-03 10:17:19 | 52.56793 | 8.07463 | 126° | 206km/h | 10492m | 4.9m/s | -48.6°C | 58.1% | 256hPa | 2.8V | 18:12:15 | 00:45:54 | 00:00:00 | |
| DL1XH-west | 2026-09-03 10:17:17 | 52.56854 | 8.07327 | 127° | 201km/h | 10481m | 6.3m/s | -48.6°C | 58.6% | 256.4hPa | 2.8V | 18:12:15 | 00:45:52 | 00:00:00 | |
| GOEST3-10 | 2026-09-03 10:17:16 | 52.56885 | 8.07261 | 128° | 204km/h | 10475m | 5.0m/s | -48.6°C | 57.9% | 256.6hPa | 2.7V | 00:00:00 | 00:00:00 | 00:00:00 | |
| DL1XH1-15 | 2026-09-03 10:17:15 | 52.57073 | 8.06847 | 127° | 219km/h | 10442m | 4.2m/s | -48.2°C | 58.4% | 258hPa | 2.7V | 08:30:00 | 00:45:45 | 00:00:00 | |
| DO2JMG | 2026-09-03 10:17:14 | 52.56946 | 8.07130 | 127° | 201km/h | 10464m | 5.5m/s | -48.6°C | 57.8% | 257.1hPa | 2.9V | 18:12:15 | 00:45:49 | 00:00:00 | |
| DJ2DS-15 | 2026-09-03 10:17:14 | 52.56946 | 8.07130 | 127° | 212km/h | 10465m | 5.4m/s | -48.5°C | 57.2% | 257.0hPa | 2.7V | 00:00:00 | 00:45:49 | 00:00:00 | |
| DL3AQ-11 | 2026-09-03 10:17:13 | 52.57008 | 8.06991 | 125° | 212km/h | 10453m | 5.3m/s | -48.4°C | 52.3% | 257.6hPa | 2.7V | 00:00:00 | 00:00:00 | 00:00:00 | |
| DD1CC8 | 2026-09-03 10:17:12 | 52.57008 | 8.06991 | 125° | 212km/h | 10453m | 5.3m/s | -48.4°C | 52.3% | 257.6hPa | 2.7V | 00:00:00 | 00:00:00 | 00:00:00 | |
| DF5WG-10 | 2026-09-03 10:17:11 | 52.57040 | 8.06919 | 127° | 214km/h | 10447m | 7.0m/s | -48.3°C | 58.4% | 257.7hPa | 2.7V | 00:00:00 | 00:45:46 | 08:30:00 | |
| DL1XH-15 | 2026-09-03 10:17:09 | 52.57275 | 8.06433 | 128° | 212km/h | 10415m | 4.3m/s | -48°C | 59.9% | 259.1hPa | 2.7V | 08:30:00 | 00:45:39 | 00:00:00 | |
| AA1-15 | 2026-09-03 10:17:09 | 52.57107 | 8.06776 | 129° | 217km/h | 10437m | 5.5m/s | -48.2°C | 57.2% | 258.2hPa | 2.8V | 18:12:15 | 00:45:44 | 00:00:00 | |
| DL1XH-west | 2026-09-03 10:17:07 | 52.57175 | 8.06638 | 129° | 214km/h | 10427m | 5m/s | -48.1°C | 57.6% | 258.6hPa | 2.9V | 18:12:15 | 00:45:42 | 00:00:00 | |
| DM0DOS-11 | 2026-09-03 10:17:06 | 52.57378 | 8.06224 | 129° | 217km/h | 10398m | 5.8m/s | -47.9°C | 61.5% | 259.7hPa | 2.9V | 08:30:00 | 00:45:36 | 00:00:00 | |
| BIOWL1-15 | 2026-09-03 10:17:06 | 52.57209 | 8.06570 | 129° | 212km/h | 10422m | 4.6m/s | -48.1°C | 57.9% | 258.8hPa | 2.9V | 18:12:15 | 00:45:41 | 00:00:00 | |
| DO2JMG | 2026-09-03 10:17:03 | 52.57309 | 8.06364 | 129° | 214km/h | 10409m | 6.9m/s | -48°C | 58.6% | 259.3hPa | 2.8V | 18:12:15 | 00:45:38 | 00:00:00 | |
| AA1-15 | 2026-09-03 10:16:59 | 52.57446 | 8.06086 | 129° | 212km/h | 10385m | 7m/s | -47.8°C | 61.2% | 260.2hPa | 2.8V | 18:12:15 | 00:45:34 | 00:00:00 | |
| DL1XH-west | 2026-09-03 10:16:57 | 52.57513 | 8.05951 | 129° | 208km/h | 10374m | 5.3m/s | -47.8°C | 63.1% | 260.6hPa | 2.8V | 18:12:15 | 00:45:32 | 00:00:00 | |
| GOEST3-10 | 2026-09-03 10:16:56 | 52.57546 | 8.05884 | 129° | 212km/h | 10368m | 5.1m/s | -47.6°C | 65.5% | 260.9hPa | 2.9V | 00:00:00 | 00:00:00 | 00:00:00 | |
| DL1XH1-15 | 2026-09-03 10:16:55 | 52.57754 | 8.05471 | 129° | 221km/h | 10337m | 6.1m/s | -47.4°C | 64.2% | 262.2hPa | 2.9V | 08:30:00 | 00:45:25 | 00:00:00 | |
| BIOWL1-15 | 2026-09-03 10:16:55 | 52.57579 | 8.05817 | 129° | 208km/h | 10364m | 3.9m/s | -47.6°C | 63.8% | 261.1hPa | 2.9V | 18:12:15 | 00:45:30 | 00:00:00 | |
| DO2JMG | 2026-09-03 10:16:53 | 52.57683 | 8.05612 | 130° | 221km/h | 10348m | 6.3m/s | -47.5°C | 64.2% | 261.7hPa | 2.7V | 18:12:15 | 00:45:27 | 00:00:00 | |
| AA1-15 | 2026-09-03 10:16:49 | 52.57790 | 8.05401 | 130° | 221km/h | 10331m | 6.9m/s | -47.4°C | 64.6% | 262.4hPa | 2.9V | 18:12:15 | 00:45:24 | 00:00:00 | |
| DL1XH-west | 2026-09-03 10:16:46 | 52.57897 | 8.05191 | 130° | 219km/h | 10314m | 4.6m/s | -47.2°C | 66% | 263hPa | 2.8V | 18:12:15 | 00:45:21 | 00:00:00 | |
| DL3AQ-11 | 2026-09-03 10:16:46 | 52.57932 | 8.05122 | 129° | 215km/h | 10309m | 5.3m/s | -47.1°C | 62.1% | 263.3hPa | 2.8V | 00:00:00 | 00:00:00 | 00:00:00 | |
| DL1XH1-15 | 2026-09-03 10:16:45 | 52.58106 | 8.04778 | 129° | 214km/h | 10286m | 3.5m/s | -46.8°C | 69.9% | 264.2hPa | 2.8V | 08:30:00 | 00:45:15 | 00:00:00 | |
| BIOWL1-15 | 2026-09-03 10:16:44 | 52.57967 | 8.05053 | 130° | 217km/h | 10304m | 4.7m/s | -47.1°C | 66.8% | 263.4hPa | 2.9V | 18:12:15 | 00:45:19 | 00:00:00 | |
| DO2JMG | 2026-09-03 10:16:41 | 52.58072 | 8.04846 | 130° | 214km/h | 10290m | 5.4m/s | -46.9°C | 67.6% | 264hPa | 2.9V | 18:12:15 | 00:45:16 | 00:00:00 | |
| DB0DAN | 2026-09-03 10:16:40 | 52.58106 | 8.04778 | 130° | 203km/h | 10286m | 3.5m/s | -46.8°C | 64.6% | 264.21hPa | 2.8V | 00:00:00 | 00:00:00 | 00:00:00 | |
| DF5WG-10 | 2026-09-03 10:16:40 | 52.58106 | 8.04778 | 130° | 215km/h | 10286m | 3.4m/s | -46.8°C | 69.9% | 264.2hPa | 2.7V | 00:00:00 | 00:45:15 | 00:00:00 | |
| DL1XH-15 | 2026-09-03 10:16:39 | 52.58313 | 8.04358 | 127° | 219km/h | 10260m | 3.4m/s | -46.7°C | 75.9% | 265.3hPa | 2.7V | 08:30:00 | 00:45:09 | 00:00:00 | |
| AA1-15 | 2026-09-03 10:16:38 | 52.58175 | 8.04641 | 129° | 215km/h | 10278m | 4m/s | -46.8°C | 68.6% | 264.5hPa | 2.9V | 18:12:15 | 00:45:13 | 00:00:00 | |
| BIOWL1-15 | 2026-09-03 10:16:37 | 52.58347 | 8.04287 | 129° | 217km/h | 10257m | 3.1m/s | -46.7°C | 72.1% | 265.3hPa | 2.8V | 18:12:15 | 00:45:08 | 00:00:00 | |
| DO9LL-15 | 2026-09-03 10:16:36 | 52.58244 | 8.04501 | 130° | 217km/h | 10270m | 3.8m/s | -46.7°C | 72.2% | 264.8hPa | 2.9V | 00:00:00 | 00:45:11 | 00:00:00 | |
| DL1XH1-15 | 2026-09-03 10:16:35 | 52.58451 | 8.04079 | 129° | 214km/h | 10246m | 3.9m/s | -46.7°C | 75% | 265.7hPa | 2.9V | 08:30:00 | 00:45:05 | 00:00:00 | |
| DL1XH-west | 2026-09-03 10:16:35 | 52.58279 | 8.04430 | 128° | 219km/h | 10265m | 5.6m/s | -46.8°C | 70.4% | 265hPa | 2.9V | 18:12:15 | 00:45:10 | 00:00:00 | |
| DO2JMG | 2026-09-03 10:16:30 | 52.58452 | 8.04079 | 130° | 214km/h | 10246m | 3.9m/s | -46.7°C | 72.5% | 265.8hPa | 2.9V | 18:12:15 | 00:45:05 | 00:00:00 | |
| DL1XH-15 | 2026-09-03 10:16:29 | 52.58660 | 8.03660 | 128° | 223km/h | 10220m | 3.6m/s | -46.5°C | 71.8% | 266.8hPa | 2.9V | 08:30:00 | 00:44:59 | 00:00:00 | |
| AA1-15 | 2026-09-03 10:16:28 | 52.58521 | 8.03943 | 129° | 215km/h | 10238m | 4m/s | -46.6°C | 72.2% | 266.2hPa | 2.8V | 18:12:15 | 00:45:03 | 00:00:00 | |
| DF5WG-10 | 2026-09-03 10:16:28 | 52.58521 | 8.03942 | 130° | 221km/h | 10238m | 3.9m/s | -46.6°C | 73.7% | 266.1hPa | 2.8V | 00:00:00 | 00:45:03 | 00:00:00 | |
| DM0DOS-11 | 2026-09-03 10:16:26 | 52.58767 | 8.03443 | 129° | 223km/h | 10209m | 4.7m/s | -46.4°C | 71.3% | 267.3hPa | 2.8V | 08:30:00 | 00:44:56 | 00:00:00 | |
| DB0DAN | 2026-09-03 10:16:25 | 52.58625 | 8.03731 | 128° | 210km/h | 10224m | 4.8m/s | -46.6°C | 67.2% | 266.67hPa | 2.9V | 00:00:00 | 00:00:00 | 00:00:00 | |
| DL1XH-west | 2026-09-03 10:16:25 | 52.58625 | 8.03731 | 129° | 221km/h | 10225m | 4.8m/s | -46.6°C | 71.4% | 266.7hPa | 2.9V | 18:12:15 | 00:45:00 | 00:00:00 | |
| BIOWL1-15 | 2026-09-03 10:16:24 | 52.58731 | 8.03515 | 129° | 224km/h | 10213m | 4m/s | -46.5°C | 70% | 267.1hPa | 2.8V | 18:12:15 | 00:44:57 | 00:00:00 | |
| DO2JMG | 2026-09-03 10:16:20 | 52.58802 | 8.03372 | 130° | 223km/h | 10205m | 2.7m/s | -46.4°C | 69% | 267.5hPa | 2.9V | 18:12:15 | 00:44:55 | 00:00:00 | |
| BUE01 | 2026-09-03 10:16:19 | 52.58838 | 8.03302 | 130° | 219km/h | 10202m | 4.6m/s | -46.3°C | 65.4% | 267.6hPa | 2.9V | 00:00:00 | 00:00:00 | 00:00:00 | |
| DF5WG-10 | 2026-09-03 10:16:18 | 52.58874 | 8.03232 | 131° | 214km/h | 10198m | 3.0m/s | -46.2°C | 70.5% | 267.7hPa | 2.9V | 00:00:00 | 00:44:53 | 00:00:00 | |
| SMARD9-10 | 2026-09-03 10:16:17 | 52.58874 | 8.03232 | 132° | 219km/h | 10198m | 3.1m/s | -46.3°C | 65.3% | 267.8hPa | 2.9V | 00:00:00 | 00:00:00 | 00:00:00 | |
| DM0DOS-11 | 2026-09-03 10:16:16 | 52.59116 | 8.02760 | 130° | 212km/h | 10171m | 3.1m/s | -46.1°C | 70.1% | 268.9hPa | 2.9V | 08:30:00 | 00:44:46 | 00:00:00 | |
| DL1XH-west | 2026-09-03 10:16:15 | 52.58979 | 8.03027 | 130° | 212km/h | 10187m | 3.8m/s | -46.3°C | 66.6% | 268.2hPa | 2.8V | 18:12:15 | 00:44:50 | 00:00:00 | |
| BIOWL1-15 | 2026-09-03 10:16:11 | 52.59116 | 8.02760 | 131° | 212km/h | 10171m | 3.1m/s | -46.1°C | 65.7% | 268.9hPa | 2.9V | 18:12:15 | 00:44:46 | 00:00:00 | |
| DO2JMG | 2026-09-03 10:16:09 | 52.59186 | 8.02625 | 130° | 215km/h | 10163m | 3.2m/s | -46.1°C | 65.4% | 269.2hPa | 2.8V | 18:12:15 | 00:44:44 | 00:00:00 | |
| DL4BBY-15 | 2026-09-03 10:16:09 | 52.59186 | 8.02625 | 130° | 210km/h | 10163m | 3.1m/s | -44.6°C | 0% | 0hPa | 2.9V | 00:00:00 | 00:00:00 | 00:00:00 | |
| DF5WG-10 | 2026-09-03 10:16:08 | 52.59221 | 8.02555 | 130° | 208km/h | 10159m | 4.7m/s | -46.0°C | 69.6% | 269.3hPa | 2.9V | 00:00:00 | 00:44:43 | 00:00:00 | |
| DM0DOS-11 | 2026-09-03 10:16:06 | 52.59450 | 8.02078 | 129° | 199km/h | 10118m | 6.5m/s | -45.7°C | 66.3% | 271hPa | 2.9V | 08:30:00 | 00:44:36 | 00:00:00 | |
| DO9LL-15 | 2026-09-03 10:16:06 | 52.59291 | 8.02412 | 128° | 208km/h | 10151m | 5.1m/s | -45.9°C | 68.1% | 269.7hPa | 2.9V | 00:00:00 | 00:44:41 | 00:00:00 | |
| DL1XH1-15 | 2026-09-03 10:16:05 | 52.59482 | 8.02012 | 128° | 206km/h | 10112m | 6.2m/s | -45.6°C | 66.1% | 271.2hPa | 2.9V | 08:30:00 | 00:44:35 | 00:00:00 | |
| DL1XH-west | 2026-09-03 10:16:04 | 52.59357 | 8.02271 | 127° | 206km/h | 10137m | 8.5m/s | -45.9°C | 63.7% | 270.2hPa | 2.9V | 18:12:15 | 00:44:39 | 00:00:00 | |
| BIOWL1-15 | 2026-09-03 10:16:01 | 52.59450 | 8.02078 | 129° | 199km/h | 10118m | 6.5m/s | -45.7°C | 62.6% | 271hPa | 2.9V | 18:12:15 | 00:44:36 | 00:00:00 | |
| DD1CC3-15 | 2026-09-03 10:16:00 | 52.59450 | 8.02078 | 130° | 199km/h | 10118m | 6.5m/s | -45.7°C | 61.3% | 271.0hPa | 2.9V | 00:00:00 | 00:00:00 | 00:00:00 | |
| DL1XH-15 | 2026-09-03 10:15:59 | 52.59676 | 8.01582 | 130° | 210km/h | 10075m | 4.6m/s | -45.3°C | 63.1% | 272.7hPa | 2.9V | 08:30:00 | 00:44:29 | 00:00:00 | |
| DO2JMG | 2026-09-03 10:15:58 | 52.59546 | 8.01870 | 125° | 219km/h | 10100m | 6.9m/s | -45.6°C | 61.7% | 271.7hPa | 2.9V | 18:12:15 | 00:44:33 | 00:00:00 | |
| DM0DOS-11 | 2026-09-03 10:15:56 | 52.59782 | 8.01388 | 131° | 212km/h | 10054m | 8.8m/s | -45.2°C | 60.1% | 273.5hPa | 2.7V | 08:30:00 | 00:44:26 | 00:00:00 | |
| DL1XH1-15 | 2026-09-03 10:15:55 | 52.59817 | 8.01322 | 130° | 212km/h | 10047m | 6.7m/s | -45.1°C | 60.1% | 273.9hPa | 2.8V | 08:30:00 | 00:44:25 | 00:00:00 | |
| AA1-15 | 2026-09-03 10:15:54 | 52.59676 | 8.01582 | 131° | 210km/h | 10075m | 4.6m/s | -45.3°C | 60.7% | 272.7hPa | 2.9V | 18:12:15 | 00:44:29 | 00:00:00 | |
| DL1XH-west | 2026-09-03 10:15:53 | 52.59710 | 8.01517 | 132° | 208km/h | 10071m | 4.1m/s | -45.3°C | 60.2% | 272.8hPa | 2.9V | 18:12:15 | 00:44:28 | 00:00:00 | |
| BIOWL1-15 | 2026-09-03 10:15:52 | 52.59817 | 8.01322 | 131° | 214km/h | 10047m | 6.7m/s | -45.1°C | 58.6% | 273.9hPa | 2.8V | 18:12:15 | 00:44:25 | 00:00:00 | |
| GOEST3-10 | 2026-09-03 10:15:51 | 52.59782 | 8.01388 | 132° | 210km/h | 10054m | 8.8m/s | -45.2°C | 60.1% | 273.5hPa | 2.7V | 00:00:00 | 00:44:26 | 00:00:00 | |
| DL1XH-15 | 2026-09-03 10:15:49 | 52.60013 | 8.00914 | 123° | 210km/h | 10006m | 5.3m/s | -44.8°C | 58% | 275.6hPa | 2.8V | 08:30:00 | 00:44:19 | 00:00:00 | |
| DO2JMG | 2026-09-03 10:15:48 | 52.59885 | 8.01187 | 129° | 210km/h | 10035m | 6.4m/s | -45°C | 57.8% | 274.4hPa | 2.9V | 18:12:15 | 00:44:23 | 00:00:00 | |
| D01LWL | 2026-09-03 10:15:48 | 52.59919 | 8.01120 | 129° | 206km/h | 10027m | 8.4m/s | -44.9°C | 53.9% | 274.7hPa | 2.9V | 00:00:00 | 00:00:00 | 00:00:00 | |
| DO2LYB-13 | 2026-09-03 10:15:47 | 52.59885 | 8.01187 | 130° | 210km/h | 10035m | 6.4m/s | 0°C | 0% | 0hPa | 2.9V | 00:00:00 | 00:00:00 | 00:00:00 | |
| DM0DOS-11 | 2026-09-03 10:15:46 | 52.60099 | 8.00703 | 126° | 199km/h | 9991m | 5.8m/s | -44.7°C | 56.2% | 276.1hPa | 2.9V | 08:30:00 | 00:44:16 | 00:00:00 | |
| DJ2KF-10 | 2026-09-03 10:15:46 | 52.59951 | 8.01053 | 129° | 197km/h | 10020m | 6.2m/s | 0°C | 0% | 0hPa | 2.9V | 00:00:00 | 00:44:21 | 00:00:00 | |
| DL1XH1-15 | 2026-09-03 10:15:45 | 52.60130 | 8.00637 | 128° | 203km/h | 9986m | 4.8m/s | -44.6°C | 55.2% | 276.3hPa | 2.9V | 08:30:00 | 00:44:15 | 00:00:00 | |
| HTAHTA | 2026-09-03 10:15:44 | 52.60013 | 8.00914 | 123° | 208km/h | 10006m | 5.3m/s | -44.8°C | 53.4% | 275.6hPa | 2.8V | 00:00:00 | 00:00:00 | 00:00:00 | |
| DL1XH-west | 2026-09-03 10:15:43 | 52.60042 | 8.00842 | 123° | 206km/h | 10002m | 3.9m/s | -44.7°C | 55.9% | 275.7hPa | 2.8V | 18:12:15 | 00:44:18 | 00:00:00 | |
| DD8BA-10 | 2026-09-03 10:15:43 | 52.60042 | 8.00842 | 123° | 206km/h | 10002m | 3.9m/s | -44.7°C | 57.3% | 275.7hPa | 2.9V | 00:00:00 | 00:00:00 | 00:00:00 | |
| DC6BW-12 | 2026-09-03 10:15:42 | 52.60042 | 8.00842 | 124° | 206km/h | 10002m | 3.9m/s | -44.7°C | 52.8% | 275.7hPa | 2.9V | 00:00:00 | 00:00:00 | 00:00:00 | |
| DB0DAN | 2026-09-03 10:15:40 | 52.60130 | 8.00637 | 129° | 193km/h | 9986m | 4.8m/s | -44.6°C | 50.7% | 276.33hPa | 2.9V | 00:00:00 | 00:00:00 | 00:00:00 | |
| BIOWL1-15 | 2026-09-03 10:15:40 | 52.60163 | 8.00572 | 130° | 206km/h | 9980m | 5.6m/s | -44.6°C | 54.3% | 276.6hPa | 2.9V | 18:12:15 | 00:44:14 | 00:00:00 | |
| DO2JMG | 2026-09-03 10:15:37 | 52.60232 | 8.00437 | 128° | 214km/h | 9968m | 8.5m/s | -44.5°C | 53.2% | 277hPa | 2.8V | 18:12:15 | 00:44:12 | 00:00:00 | |
| DM0DOS-11 | 2026-09-03 10:15:36 | 52.60410 | 8.00024 | 124° | 193km/h | 9929m | 5.4m/s | -44.1°C | 54.5% | 278.6hPa | 2.8V | 08:30:00 | 00:44:06 | 00:00:00 | |
| DF5WG-10 | 2026-09-03 10:15:36 | 52.60264 | 8.00367 | 127° | 199km/h | 9960m | 6.8m/s | -44.4°C | 54.0% | 277.3hPa | 2.9V | 00:00:00 | 00:44:11 | 08:30:00 | |
| DL1XH1-15 | 2026-09-03 10:15:35 | 52.60437 | 7.99958 | 124° | 190km/h | 9924m | 5.2m/s | -44.1°C | 54.1% | 278.9hPa | 2.8V | 08:30:00 | 00:44:05 | 00:00:00 | |
| DL1XH-west | 2026-09-03 10:15:32 | 52.60382 | 8.00092 | 124° | 199km/h | 9935m | 5.6m/s | -44.2°C | 52.2% | 278.4hPa | 2.9V | 18:12:15 | 00:44:07 | 00:00:00 | |
| BIOWL1-15 | 2026-09-03 10:15:29 | 52.60465 | 7.99894 | 127° | 192km/h | 9918m | 5m/s | -44°C | 51.8% | 279.1hPa | 2.9V | 18:12:15 | 00:44:04 | 00:00:00 | |
| BIOWL7-15 | 2026-09-03 10:15:28 | 52.60465 | 7.99894 | 128° | 192km/h | 9918m | 5.0m/s | -44.0°C | 49.2% | 279.1hPa | 2.9V | 00:00:00 | 00:00:00 | 00:00:00 | |
| BIOWL9-15 | 2026-09-03 10:15:27 | 52.60527 | 7.99768 | 129° | 203km/h | 9908m | 5.7m/s | -44.0°C | 47.4% | 279.4hPa | 2.9V | 00:00:00 | 00:00:00 | 00:00:00 | |
| DM0DOS-11 | 2026-09-03 10:15:26 | 52.60729 | 7.99360 | 128° | 199km/h | 9873m | 4m/s | -43.6°C | 52.6% | 280.9hPa | 2.9V | 08:30:00 | 00:43:56 | 00:00:00 | |
| DO2JMG | 2026-09-03 10:15:26 | 52.60560 | 7.99702 | 129° | 208km/h | 9902m | 8.3m/s | -43.9°C | 50.8% | 279.7hPa | 2.9V | 18:12:15 | 00:44:01 | 00:00:00 | |
| DF5WG-10 | 2026-09-03 10:15:26 | 52.60560 | 7.99701 | 130° | 199km/h | 9902m | 8.2m/s | -43.9°C | 51.1% | 279.7hPa | 2.9V | 00:00:00 | 00:44:01 | 00:00:00 | |
| DL1XH1-15 | 2026-09-03 10:15:25 | 52.60760 | 7.99296 | 127° | 192km/h | 9868m | 6.7m/s | -43.6°C | 51.6% | 281.1hPa | 2.9V | 08:30:00 | 00:43:55 | 00:00:00 | |
| BIOWL1-15 | 2026-09-03 10:15:24 | 52.60814 | 7.99170 | 123° | 183km/h | 9854m | 5m/s | -43.5°C | 50.7% | 281.7hPa | 2.8V | 18:12:15 | 00:43:53 | 00:00:00 | |
| AA1-15 | 2026-09-03 10:15:21 | 52.60729 | 7.99360 | 128° | 199km/h | 9873m | 4m/s | -43.6°C | 50.8% | 280.9hPa | 2.9V | 18:12:15 | 00:43:56 | 00:00:00 | |
| GOEST3-10 | 2026-09-03 10:15:21 | 52.60729 | 7.99360 | 129° | 188km/h | 9873m | 3.9m/s | -43.6°C | 52.6% | 280.8hPa | 2.9V | 00:00:00 | 00:43:56 | 08:30:00 | |
| DL1XH-15 | 2026-09-03 10:15:19 | 52.60922 | 7.98913 | 126° | 203km/h | 9829m | 6.3m/s | -43.3°C | 51% | 282.7hPa | 2.9V | 08:30:00 | 00:43:49 | 00:00:00 | |
| DO2JMG | 2026-09-03 10:15:16 | 52.60865 | 7.99044 | 125° | 184km/h | 9842m | 7.5m/s | -43.4°C | 50.9% | 282.2hPa | 2.9V | 18:12:15 | 00:43:51 | 00:00:00 | |
| DF5WG-10 | 2026-09-03 10:15:16 | 52.60865 | 7.99044 | 125° | 201km/h | 9842m | 7.4m/s | -43.4°C | 51.6% | 282.1hPa | 2.9V | 00:00:00 | 00:43:51 | 00:00:00 | |
| DL1XH1-15 | 2026-09-03 10:15:15 | 52.61045 | 7.98636 | 126° | 204km/h | 9802m | 5m/s | -43°C | 51.5% | 283.9hPa | 2.9V | 08:30:00 | 00:43:45 | 00:00:00 | |
| DL1XH-west | 2026-09-03 10:15:11 | 52.61014 | 7.98705 | 126° | 208km/h | 9809m | 7.5m/s | -43.1°C | 51.7% | 283.6hPa | 2.8V | 18:12:15 | 00:43:46 | 00:00:00 | |
| DB0DAN | 2026-09-03 10:15:10 | 52.61045 | 7.98636 | 127° | 195km/h | 9802m | 5m/s | -43.1°C | 47.4% | 283.89hPa | 2.9V | 00:00:00 | 00:00:00 | 00:00:00 | |
| DL1XH-15 | 2026-09-03 10:15:09 | 52.61219 | 7.98235 | 124° | 195km/h | 9770m | 6m/s | -42.8°C | 52.2% | 285.3hPa | 2.8V | 08:30:00 | 00:43:39 | 00:00:00 | |
| BIOWL1-15 | 2026-09-03 10:15:08 | 52.61106 | 7.98501 | 126° | 201km/h | 9792m | 6.4m/s | -43°C | 51.8% | 284.4hPa | 2.9V | 18:12:15 | 00:43:43 | 00:00:00 | |
| DO2JMG | 2026-09-03 10:15:06 | 52.61163 | 7.98368 | 125° | 193km/h | 9780m | 5.4m/s | -42.8°C | 51.8% | 284.8hPa | 2.9V | 18:12:15 | 00:43:41 | 00:00:00 | |
| DF5WG-10 | 2026-09-03 10:15:06 | 52.61163 | 7.98368 | 126° | 195km/h | 9780m | 5.3m/s | -42.8°C | 51.2% | 284.8hPa | 2.9V | 00:00:00 | 00:43:41 | 00:00:00 | |
| DL1XH1-15 | 2026-09-03 10:15:05 | 52.61332 | 7.97966 | 124° | 195km/h | 9752m | 4.7m/s | -42.6°C | 54.3% | 286hPa | 2.9V | 08:30:00 | 00:43:35 | 00:00:00 | |
| DL4XJ-10 | 2026-09-03 10:15:05 | 52.61191 | 7.98302 | 125° | 193km/h | 9775m | 4.8m/s | -41.3°C | 0% | 0hPa | 2.9V | 00:00:00 | 00:00:00 | 00:00:00 | |
| DL1CLM-18 | 2026-09-03 10:15:04 | 52.61191 | 7.98302 | 125° | 193km/h | 9775m | 4.8m/s | -42.8°C | 47.3% | 285.0hPa | 2.9V | 00:00:00 | 00:00:00 | 00:00:00 | |
| DL3OBA | 2026-09-03 10:15:03 | 52.61219 | 7.98235 | 125° | 195km/h | 9770m | 6.1m/s | 0°C | 0% | 0hPa | 2.9V | 00:00:00 | 00:00:00 | 00:00:00 | |
| DL3AQ-11 | 2026-09-03 10:15:02 | 52.61303 | 7.98033 | 124° | 195km/h | 9756m | 3.7m/s | -42.6°C | 49.8% | 285.9hPa | 2.9V | 00:00:00 | 00:00:00 | 00:00:00 | |
| GOEST3-10 | 2026-09-03 10:15:01 | 52.61303 | 7.98033 | 125° | 193km/h | 9756m | 3.6m/s | -42.5°C | 53.8% | 285.8hPa | 2.9V | 00:00:00 | 00:43:36 | 00:00:00 | |
| DL1XH-west | 2026-09-03 10:15:01 | 52.61303 | 7.98033 | 125° | 195km/h | 9756m | 3.7m/s | -42.6°C | 53.1% | 285.9hPa | 2.9V | 18:12:15 | 00:43:36 | 00:00:00 | |
| DL1XH-15 | 2026-09-03 10:14:59 | 52.61497 | 7.97566 | 123° | 193km/h | 9727m | 4.8m/s | -42.4°C | 61.9% | 287hPa | 2.9V | 08:30:00 | 00:43:29 | 00:00:00 | |
| BIOWL1-15 | 2026-09-03 10:14:57 | 52.61414 | 7.97767 | 124° | 193km/h | 9739m | 3.6m/s | -42.5°C | 56.3% | 286.5hPa | 2.9V | 18:12:15 | 00:43:32 | 00:00:00 | |
| DM0DOS-11 | 2026-09-03 10:14:56 | 52.61576 | 7.97368 | 122° | 190km/h | 9715m | 4.9m/s | -42.3°C | 67.6% | 287.5hPa | 2.8V | 08:30:00 | 00:43:26 | 00:00:00 | |
| DB0DAN | 2026-09-03 10:14:55 | 52.61469 | 7.97633 | 124° | 186km/h | 9731m | 3.1m/s | -42.4°C | 56.5% | 286.87hPa | 2.9V | 00:00:00 | 00:00:00 | 00:00:00 | |
| DO2JMG | 2026-09-03 10:14:55 | 52.61469 | 7.97633 | 124° | 195km/h | 9731m | 3.1m/s | -42.4°C | 58.5% | 286.9hPa | 2.9V | 18:12:15 | 00:43:30 | 00:00:00 | |
| DL1XH-west | 2026-09-03 10:14:50 | 52.61602 | 7.97301 | 122° | 192km/h | 9710m | 4.6m/s | -42.3°C | 66.7% | 287.9hPa | 2.9V | 18:12:15 | 00:43:25 | 00:00:00 | |
| DL1XH-15 | 2026-09-03 10:14:49 | 52.61759 | 7.96894 | 123° | 192km/h | 9679m | 4.8m/s | -42.1°C | 67.1% | 289.2hPa | 2.8V | 08:30:00 | 00:43:19 | 00:00:00 | |
| BIOWL1-15 | 2026-09-03 10:14:47 | 52.61679 | 7.97097 | 123° | 193km/h | 9695m | 3.9m/s | -42.2°C | 66.6% | 288.5hPa | 2.9V | 18:12:15 | 00:43:22 | 00:00:00 | |
| DL3AQ-11 | 2026-09-03 10:14:46 | 52.61733 | 7.96961 | 123° | 192km/h | 9685m | 5.9m/s | -42.2°C | 62.7% | 288.9hPa | 2.9V | 00:00:00 | 00:00:00 | 00:00:00 | |
| DL1XH1-15 | 2026-09-03 10:14:45 | 52.61867 | 7.96619 | 121° | 201km/h | 9660m | 4.2m/s | -41.9°C | 67.8% | 289.9hPa | 2.9V | 08:30:00 | 00:43:15 | 00:00:00 | |
| DO2JMG | 2026-09-03 10:14:45 | 52.61733 | 7.96961 | 123° | 193km/h | 9685m | 5.9m/s | -42.2°C | 65.4% | 288.9hPa | 2.8V | 18:12:15 | 00:43:20 | 00:00:00 | |
| AA1-15 | 2026-09-03 10:14:40 | 52.61867 | 7.96619 | 122° | 201km/h | 9660m | 4.2m/s | -41.9°C | 63.1% | 289.9hPa | 2.9V | 18:12:15 | 00:43:15 | 00:00:00 | |
| DB0DAN | 2026-09-03 10:14:40 | 52.61867 | 7.96619 | 122° | 192km/h | 9660m | 4.2m/s | -41.9°C | 63.3% | 289.87hPa | 2.9V | 00:00:00 | 00:00:00 | 00:00:00 | |
| DL4XJ-10 | 2026-09-03 10:14:40 | 52.61867 | 7.96619 | 122° | 193km/h | 9660m | 4.1m/s | -40.5°C | 0% | 0hPa | 2.8V | 00:00:00 | 00:00:00 | 00:00:00 | |
| DL4BBY-15 | 2026-09-03 10:14:39 | 52.61894 | 7.96549 | 123° | 192km/h | 9656m | 4.5m/s | -40.4°C | 0% | 0hPa | 2.8V | 00:00:00 | 00:00:00 | 00:00:00 | |
| DJ2KF-10 | 2026-09-03 10:14:38 | 52.61921 | 7.96478 | 123° | 175km/h | 9652m | 3.1m/s | 0°C | 0% | 0hPa | 2.8V | 00:00:00 | 00:43:13 | 00:00:00 | |
| DD1CC8 | 2026-09-03 10:14:37 | 52.61948 | 7.96408 | 121° | 195km/h | 9648m | 5.0m/s | -41.8°C | 63.6% | 290.4hPa | 2.8V | 00:00:00 | 00:00:00 | 00:00:00 | |
| DM0DOS-11 | 2026-09-03 10:14:36 | 52.62094 | 7.96005 | 121° | 193km/h | 9614m | 5m/s | -41.6°C | 65.6% | 291.8hPa | 2.8V | 08:30:00 | 00:43:06 | 00:00:00 | |
| BIOWL1-15 | 2026-09-03 10:14:36 | 52.61973 | 7.96339 | 121° | 190km/h | 9642m | 5.4m/s | -41.8°C | 63.6% | 290.6hPa | 2.9V | 18:12:15 | 00:43:11 | 00:00:00 | |
| DO2JMG | 2026-09-03 10:14:34 | 52.62020 | 7.96206 | 120° | 183km/h | 9633m | 4.8m/s | -41.7°C | 64.1% | 291hPa | 2.9V | 18:12:15 | 00:43:09 | 00:00:00 | |
| DJ2DS-15 | 2026-09-03 10:14:34 | 52.62020 | 7.96206 | 121° | 192km/h | 9633m | 4.8m/s | -41.7°C | 66.6% | 291.0hPa | 2.8V | 00:00:00 | 00:43:09 | 00:00:00 | |
| DL3AQ-11 | 2026-09-03 10:14:33 | 52.62068 | 7.96073 | 121° | 190km/h | 9620m | 7.2m/s | -41.7°C | 61.8% | 291.6hPa | 2.8V | 00:00:00 | 00:00:00 | 00:00:00 | |
| SONCRA | 2026-09-03 10:14:31 | 52.62120 | 7.95936 | 122° | 193km/h | 9606m | 9.3m/s | -41.6°C | 60.7% | 292.1hPa | 2.8V | 00:00:00 | 00:00:00 | 00:00:00 | |
| DL1XH-15 | 2026-09-03 10:14:29 | 52.62273 | 7.95527 | 120° | 199km/h | 9566m | 4m/s | -41.4°C | 66.8% | 293.8hPa | 2.8V | 08:30:00 | 00:42:59 | 00:00:00 | |
| BIOWL1-15 | 2026-09-03 10:14:29 | 52.62248 | 7.95598 | 120° | 195km/h | 9572m | 6.5m/s | -41.5°C | 66.4% | 293.6hPa | 2.8V | 18:12:15 | 00:43:00 | 00:00:00 | |
| DL1XH-west | 2026-09-03 10:14:29 | 52.62147 | 7.95868 | 122° | 192km/h | 9597m | 9.5m/s | -41.6°C | 65.1% | 292.6hPa | 2.9V | 18:12:15 | 00:43:04 | 00:00:00 | |
| DK9SH | 2026-09-03 10:14:28 | 52.62146 | 7.95868 | 123° | 192km/h | 9597m | 9.5m/s | -41.6°C | 61.1% | 292.6hPa | 2.9V | 00:00:00 | 00:00:00 | 00:00:00 | |
| DJ2DS-15 | 2026-09-03 10:14:27 | 52.62198 | 7.95735 | 121° | 188km/h | 9583m | 6.1m/s | -41.5°C | 62.3% | 293.2hPa | 2.9V | 00:00:00 | 00:00:00 | 00:00:00 | |
| DM0DOS-11 | 2026-09-03 10:14:26 | 52.62348 | 7.95314 | 119° | 193km/h | 9549m | 5.4m/s | -41.3°C | 69.6% | 294.6hPa | 2.9V | 08:30:00 | 00:42:56 | 00:00:00 | |
| DO2JMG | 2026-09-03 10:14:23 | 52.62299 | 7.95456 | 120° | 199km/h | 9561m | 6.7m/s | -41.4°C | 66% | 294.1hPa | 2.9V | 18:12:15 | 00:42:58 | 00:00:00 | |
| AA1-15 | 2026-09-03 10:14:19 | 52.62395 | 7.95175 | 120° | 192km/h | 9540m | 5.2m/s | -41.2°C | 66.9% | 295.1hPa | 2.9V | 18:12:15 | 00:42:54 | 00:00:00 | |
| DL1XH-west | 2026-09-03 10:14:18 | 52.62420 | 7.95106 | 121° | 192km/h | 9535m | 3.4m/s | -41.1°C | 67.7% | 295.3hPa | 2.8V | 18:12:15 | 00:42:53 | 00:00:00 | |
| DO3DL | 2026-09-03 10:14:17 | 52.62420 | 7.95106 | 122° | 192km/h | 9535m | 3.4m/s | -41.1°C | 66.9% | 295.3hPa | 2.8V | 00:00:00 | 00:00:00 | 00:00:00 | |
| DM0DOS-11 | 2026-09-03 10:14:16 | 52.62592 | 7.94633 | 119° | 192km/h | 9504m | 4.8m/s | -41.1°C | 74.4% | 296.6hPa | 2.8V | 08:30:00 | 00:42:46 | 00:00:00 | |
| BIOWL1-15 | 2026-09-03 10:14:14 | 52.62519 | 7.94837 | 121° | 190km/h | 9519m | 4.6m/s | -41°C | 71.1% | 295.9hPa | 2.9V | 18:12:15 | 00:42:49 | 00:00:00 | |
| DO2JMG | 2026-09-03 10:14:12 | 52.62568 | 7.94702 | 120° | 190km/h | 9509m | 4m/s | -41°C | 72.6% | 296.4hPa | 2.9V | 18:12:15 | 00:42:47 | 00:00:00 | |
| GOEST3-10 | 2026-09-03 10:14:11 | 52.62592 | 7.94632 | 120° | 192km/h | 9505m | 4.8m/s | -41.0°C | 74.4% | 296.6hPa | 2.8V | 00:00:00 | 00:42:46 | 00:00:00 | |
| DO3DL | 2026-09-03 10:14:10 | 52.62592 | 7.94633 | 120° | 192km/h | 9505m | 4.8m/s | -41.1°C | 69.9% | 296.6hPa | 2.8V | 00:00:00 | 00:00:00 | 00:00:00 | |
| DL1XH-15 | 2026-09-03 10:14:09 | 52.62758 | 7.94151 | 121° | 192km/h | 9472m | 4.9m/s | -40.8°C | 76.2% | 298.1hPa | 2.8V | 08:30:00 | 00:42:39 | 00:00:00 | |
| AA1-15 | 2026-09-03 10:14:09 | 52.62638 | 7.94494 | 119° | 190km/h | 9496m | 3.6m/s | -40.9°C | 71.9% | 297hPa | 2.9V | 18:12:15 | 00:42:44 | 00:00:00 | |
| DL1XH-west | 2026-09-03 10:14:08 | 52.62685 | 7.94356 | 119° | 192km/h | 9487m | 4.5m/s | -40.9°C | 70.9% | 297.4hPa | 2.9V | 18:12:15 | 00:42:42 | 00:00:00 | |
| DK9SH | 2026-09-03 10:14:07 | 52.62662 | 7.94425 | 120° | 192km/h | 9491m | 5.3m/s | -41.0°C | 69.3% | 297.2hPa | 2.9V | 00:00:00 | 00:00:00 | 00:00:00 | |
| DM0DOS-11 | 2026-09-03 10:14:06 | 52.62833 | 7.93951 | 121° | 186km/h | 9459m | 3.5m/s | -40.6°C | 76.7% | 298.6hPa | 2.9V | 08:30:00 | 00:42:36 | 00:00:00 | |
| BIOWL1-15 | 2026-09-03 10:14:06 | 52.62758 | 7.94151 | 121° | 192km/h | 9472m | 4.9m/s | -40.8°C | 70.5% | 298.1hPa | 2.8V | 18:12:15 | 00:42:39 | 00:00:00 | |
| DO9LL-15 | 2026-09-03 10:14:06 | 52.62709 | 7.94287 | 120° | 186km/h | 9481m | 5.5m/s | -40.8°C | 74.7% | 297.5hPa | 2.9V | 00:00:00 | 00:42:41 | 00:00:00 | |
| DL1XH1-15 | 2026-09-03 10:14:05 | 52.62858 | 7.93884 | 121° | 188km/h | 9455m | 4.7m/s | -40.6°C | 76.4% | 298.8hPa | 2.9V | 08:30:00 | 00:42:35 | 00:00:00 | |
| DO2JMG | 2026-09-03 10:14:02 | 52.62808 | 7.94017 | 122° | 188km/h | 9463m | 4.6m/s | -40.7°C | 70.4% | 298.4hPa | 2.9V | 18:12:15 | 00:42:37 | 00:00:00 | |
| SONCRA | 2026-09-03 10:14:00 | 52.62883 | 7.93818 | 120° | 186km/h | 9451m | 2.6m/s | -40.5°C | 70.7% | 298.9hPa | 2.9V | 00:00:00 | 00:00:00 | 00:00:00 | |
| DL1XH-15 | 2026-09-03 10:13:59 | 52.63003 | 7.93482 | 120° | 188km/h | 9428m | 3.8m/s | -40.4°C | 71.8% | 300hPa | 2.9V | 08:30:00 | 00:42:29 | 00:00:00 | |
| AA1-15 | 2026-09-03 10:13:58 | 52.62907 | 7.93751 | 121° | 186km/h | 9447m | 4.6m/s | -40.6°C | 70.9% | 299.1hPa | 2.9V | 18:12:15 | 00:42:33 | 00:00:00 | |
| DL1XH-west | 2026-09-03 10:13:57 | 52.62931 | 7.93684 | 121° | 188km/h | 9443m | 4.7m/s | -40.6°C | 70.8% | 299.3hPa | 2.8V | 18:12:15 | 00:42:32 | 00:00:00 | |
| BIOWL1-15 | 2026-09-03 10:13:56 | 52.63003 | 7.93482 | 120° | 188km/h | 9428m | 3.8m/s | -40.4°C | 69.7% | 300hPa | 2.9V | 18:12:15 | 00:42:29 | 00:00:00 | |
| GOEST3-10 | 2026-09-03 10:13:56 | 52.62955 | 7.93617 | 121° | 188km/h | 9438m | 4.3m/s | -40.5°C | 72.8% | 299.5hPa | 2.8V | 00:00:00 | 00:00:00 | 00:00:00 | |
| DL1XH1-15 | 2026-09-03 10:13:55 | 52.63099 | 7.93210 | 119° | 186km/h | 9410m | 3.5m/s | -40.3°C | 71.4% | 300.8hPa | 2.8V | 08:30:00 | 00:42:25 | 00:00:00 | |
| DO2JMG | 2026-09-03 10:13:51 | 52.63075 | 7.93277 | 120° | 188km/h | 9414m | 5.5m/s | -40.4°C | 68.1% | 300.6hPa | 2.9V | 18:12:15 | 00:42:26 | 00:00:00 | |
| GOEST3-10 | 2026-09-03 10:13:51 | 52.63075 | 7.93277 | 120° | 186km/h | 9415m | 5.4m/s | -40.3°C | 71.5% | 300.5hPa | 2.9V | 00:00:00 | 00:42:26 | 08:30:00 | |
| DO3DL | 2026-09-03 10:13:50 | 52.63075 | 7.93277 | 121° | 188km/h | 9415m | 5.5m/s | -40.4°C | 67.1% | 300.6hPa | 2.9V | 00:00:00 | 00:00:00 | 00:00:00 | |
| DL1XH-15 | 2026-09-03 10:13:49 | 52.63237 | 7.92813 | 119° | 181km/h | 9384m | 3.6m/s | -40°C | 68.3% | 301.9hPa | 2.9V | 08:30:00 | 00:42:19 | 00:00:00 | |
| AA1-15 | 2026-09-03 10:13:47 | 52.63168 | 7.93008 | 120° | 183km/h | 9398m | 4.5m/s | -40.1°C | 66.1% | 301.3hPa | 2.9V | 18:12:15 | 00:42:22 | 00:00:00 | |
| DL1XH-west | 2026-09-03 10:13:46 | 52.63191 | 7.92943 | 120° | 181km/h | 9393m | 5.1m/s | -40.1°C | 65.5% | 301.5hPa | 2.9V | 18:12:15 | 00:42:21 | 00:00:00 | |
| BUE01 | 2026-09-03 10:13:44 | 52.63237 | 7.92813 | 119° | 179km/h | 9384m | 3.6m/s | -40.1°C | 64.1% | 301.9hPa | 2.8V | 00:00:00 | 00:00:00 | 00:00:00 | |
| BIOWL1-15 | 2026-09-03 10:13:43 | 52.63259 | 7.92748 | 120° | 181km/h | 9380m | 4.7m/s | -40°C | 64.3% | 302.1hPa | 2.8V | 18:12:15 | 00:42:18 | 00:00:00 | |
| DD8BA-10 | 2026-09-03 10:13:43 | 52.63259 | 7.92748 | 121° | 186km/h | 9380m | 4.6m/s | -39.9°C | 67.3% | 302.0hPa | 2.9V | 00:00:00 | 00:00:00 | 00:00:00 | |
| DB0DAN | 2026-09-03 10:13:40 | 52.63331 | 7.92552 | 120° | 177km/h | 9367m | 4.5m/s | -39.8°C | 62.9% | 302.7hPa | 2.9V | 00:00:00 | 00:00:00 | 00:00:00 | |
| DO2JMG | 2026-09-03 10:13:40 | 52.63331 | 7.92552 | 120° | 186km/h | 9367m | 4.5m/s | -39.8°C | 64.3% | 302.7hPa | 2.9V | 18:12:15 | 00:42:15 | 00:00:00 | |
| DL4XJ-10 | 2026-09-03 10:13:40 | 52.63331 | 7.92552 | 121° | 186km/h | 9367m | 4.4m/s | -38.4°C | 0% | 0hPa | 2.9V | 00:00:00 | 00:00:00 | 00:00:00 | |
| DL4BBY-15 | 2026-09-03 10:13:39 | 52.63354 | 7.92484 | 120° | 186km/h | 9363m | 4.5m/s | -38.3°C | 0% | 0hPa | 2.9V | 00:00:00 | 00:00:00 | 00:00:00 | |
| DL1XH-15 | 2026-09-03 10:13:37 | 52.63514 | 7.92004 | 119° | 186km/h | 9333m | 3.7m/s | -39.5°C | 67.1% | 304.2hPa | 2.9V | 08:30:00 | 00:42:07 | 00:00:00 | |
| AA1-15 | 2026-09-03 10:13:36 | 52.63424 | 7.92278 | 118° | 190km/h | 9349m | 4.7m/s | -39.6°C | 65.1% | 303.5hPa | 2.8V | 18:12:15 | 00:42:11 | 00:00:00 | |
| DL1XH-west | 2026-09-03 10:13:35 | 52.63446 | 7.92209 | 118° | 188km/h | 9344m | 4.6m/s | -39.6°C | 65.2% | 303.7hPa | 2.8V | 18:12:15 | 00:42:10 | 00:00:00 | |
| BIOWL1-15 | 2026-09-03 10:13:35 | 52.63492 | 7.92071 | 119° | 186km/h | 9337m | 4.5m/s | -39.6°C | 64.9% | 304hPa | 2.9V | 18:12:15 | 00:42:08 | 00:00:00 | |
| DO2JMG | 2026-09-03 10:13:29 | 52.63584 | 7.91804 | 121° | 186km/h | 9319m | 5.9m/s | -39.4°C | 64.6% | 304.8hPa | 2.8V | 18:12:15 | 00:42:04 | 00:00:00 | |
| DL1LOL-11 | 2026-09-03 10:13:28 | 52.63584 | 7.91804 | 122° | 186km/h | 9319m | 5.9m/s | -39.4°C | 63.7% | 304.8hPa | 2.8V | 00:00:00 | 00:00:00 | 00:00:00 | |
| DM0DOS-11 | 2026-09-03 10:13:26 | 52.63773 | 7.91273 | 118° | 179km/h | 9282m | 7.4m/s | -39.2°C | 70.9% | 306.5hPa | 2.8V | 08:30:00 | 00:41:56 | 00:00:00 | |
| DB0DAN | 2026-09-03 10:13:25 | 52.63681 | 7.91537 | 121° | 179km/h | 9301m | 4.2m/s | -39.2°C | 66.2% | 305.71hPa | 2.9V | 00:00:00 | 00:00:00 | 00:00:00 | |
| AA1-15 | 2026-09-03 10:13:25 | 52.63681 | 7.91537 | 121° | 188km/h | 9301m | 4.2m/s | -39.2°C | 66.2% | 305.7hPa | 2.9V | 18:12:15 | 00:42:00 | 00:00:00 | |
| DL1XH-west | 2026-09-03 10:13:24 | 52.63705 | 7.91470 | 121° | 186km/h | 9297m | 3.9m/s | -39.2°C | 66.9% | 305.8hPa | 2.9V | 18:12:15 | 00:41:59 | 00:00:00 | |
| BIOWL1-15 | 2026-09-03 10:13:22 | 52.63751 | 7.91338 | 119° | 181km/h | 9287m | 4.1m/s | -39.1°C | 68.4% | 306.2hPa | 2.8V | 18:12:15 | 00:41:57 | 00:00:00 | |
| DO2JMG | 2026-09-03 10:13:18 | 52.63839 | 7.91073 | 119° | 186km/h | 9264m | 5.3m/s | -39.1°C | 73.2% | 307.3hPa | 2.9V | 18:12:15 | 00:41:53 | 00:00:00 | |
| DO3DL | 2026-09-03 10:13:17 | 52.63861 | 7.91006 | 120° | 186km/h | 9259m | 4.7m/s | -39.1°C | 73.0% | 307.5hPa | 2.9V | 00:00:00 | 00:00:00 | 00:00:00 | |
| DM0DOS-11 | 2026-09-03 10:13:16 | 52.63999 | 7.90605 | 119° | 188km/h | 9228m | 4.5m/s | -38.9°C | 77.4% | 308.9hPa | 2.9V | 08:30:00 | 00:41:46 | 00:00:00 | |
| AA1-15 | 2026-09-03 10:13:15 | 52.63907 | 7.90872 | 120° | 184km/h | 9248m | 4.5m/s | -39.1°C | 75.2% | 308hPa | 2.9V | 18:12:15 | 00:41:50 | 00:00:00 | |
| DL1XH-west | 2026-09-03 10:13:14 | 52.63930 | 7.90806 | 119° | 184km/h | 9244m | 5.2m/s | -39°C | 75.3% | 308.2hPa | 2.8V | 18:12:15 | 00:41:49 | 00:00:00 | |
| BIOWL1-15 | 2026-09-03 10:13:13 | 52.63999 | 7.90605 | 120° | 188km/h | 9228m | 4.5m/s | -38.9°C | 74.9% | 308.9hPa | 2.9V | 18:12:15 | 00:41:46 | 00:00:00 | |
| DD8BA-10 | 2026-09-03 10:13:13 | 52.63953 | 7.90739 | 120° | 186km/h | 9238m | 4.8m/s | -38.9°C | 77.3% | 308.4hPa | 2.9V | 00:00:00 | 00:00:00 | 00:00:00 | |
| DL3AQ-11 | 2026-09-03 10:13:12 | 52.63976 | 7.90672 | 119° | 184km/h | 9233m | 5.7m/s | -38.9°C | 72.4% | 308.7hPa | 2.9V | 00:00:00 | 00:00:00 | 00:00:00 | |
| DL1CLM-18 | 2026-09-03 10:13:11 | 52.63976 | 7.90672 | 120° | 186km/h | 9233m | 5.7m/s | -38.9°C | 72.4% | 308.7hPa | 2.9V | 00:00:00 | 00:00:00 | 00:00:00 | |
| DB0DAN | 2026-09-03 10:13:10 | 52.64022 | 7.90537 | 119° | 179km/h | 9224m | 4.7m/s | -38.9°C | 73% | 309.12hPa | 2.9V | 00:00:00 | 00:00:00 | 00:00:00 | |
| DO2JMG | 2026-09-03 10:13:07 | 52.64092 | 7.90333 | 119° | 188km/h | 9209m | 5.6m/s | -38.8°C | 74% | 309.8hPa | 2.8V | 18:12:15 | 00:41:42 | 00:00:00 | |
| DO9LL-15 | 2026-09-03 10:13:06 | 52.64116 | 7.90265 | 120° | 179km/h | 9204m | 3.8m/s | -38.6°C | 78.1% | 309.9hPa | 2.9V | 00:00:00 | 00:41:41 | 00:00:00 | |
| DL1XH1-15 | 2026-09-03 10:13:05 | 52.64257 | 7.89876 | 120° | 173km/h | 9178m | 4.8m/s | -38.5°C | 80.8% | 311.2hPa | 2.9V | 08:30:00 | 00:41:35 | 00:00:00 | |
| DL1XH-west | 2026-09-03 10:13:04 | 52.64163 | 7.90131 | 121° | 184km/h | 9196m | 5.2m/s | -38.6°C | 74.2% | 310.4hPa | 2.9V | 18:12:15 | 00:41:39 | 00:00:00 | |
| BIOWL1-15 | 2026-09-03 10:13:01 | 52.64234 | 7.89938 | 121° | 177km/h | 9182m | 3.9m/s | -38.5°C | 75.1% | 311hPa | 2.9V | 18:12:15 | 00:41:36 | 00:00:00 | |
| DC6BW-12 | 2026-09-03 10:12:58 | 52.64279 | 7.89813 | 121° | 175km/h | 9173m | 3.4m/s | -38.4°C | 76.4% | 311.4hPa | 2.8V | 00:00:00 | 00:00:00 | 00:00:00 | |
| DL1XH-15 | 2026-09-03 10:12:57 | 52.64437 | 7.89352 | 120° | 186km/h | 9131m | 5.2m/s | -38.3°C | 80.3% | 313.3hPa | 2.8V | 08:30:00 | 00:41:27 | 00:00:00 | |
| DM0DOS-11 | 2026-09-03 10:12:56 | 52.64462 | 7.89286 | 121° | 184km/h | 9126m | 4m/s | -38.3°C | 80.1% | 313.5hPa | 2.8V | 08:30:00 | 00:41:26 | 00:00:00 | |
| DO2JMG | 2026-09-03 10:12:56 | 52.64345 | 7.89618 | 119° | 184km/h | 9157m | 6.4m/s | -38.6°C | 76.8% | 312hPa | 2.9V | 18:12:15 | 00:41:31 | 00:00:00 | |
| DB0DAN | 2026-09-03 10:12:55 | 52.64368 | 7.89551 | 119° | 177km/h | 9150m | 8.1m/s | -38.5°C | 75% | 312.42hPa | 2.9V | 00:00:00 | 00:00:00 | 00:00:00 | |
| DL1XH-west | 2026-09-03 10:12:54 | 52.64391 | 7.89484 | 120° | 183km/h | 9142m | 7.3m/s | -38.4°C | 76.2% | 312.8hPa | 2.9V | 18:12:15 | 00:41:29 | 00:00:00 | |
| BIOWL1-15 | 2026-09-03 10:12:51 | 52.64461 | 7.89286 | 121° | 184km/h | 9126m | 4m/s | -38.3°C | 76.6% | 313.5hPa | 2.8V | 18:12:15 | 00:41:26 | 00:00:00 | |
| GOEST3-10 | 2026-09-03 10:12:51 | 52.64461 | 7.89286 | 122° | 181km/h | 9126m | 3.9m/s | -38.2°C | 80.1% | 313.4hPa | 2.7V | 00:00:00 | 00:41:26 | 00:00:00 | |
| DO3DL | 2026-09-03 10:12:49 | 52.64486 | 7.89221 | 123° | 181km/h | 9121m | 5.8m/s | -38.2°C | 75.3% | 313.7hPa | 2.9V | 00:00:00 | 00:00:00 | 00:00:00 | |
| DL1XH-15 | 2026-09-03 10:12:47 | 52.64664 | 7.88691 | 117° | 179km/h | 9079m | 5.6m/s | -37.9°C | 77.4% | 315.6hPa | 2.9V | 08:30:00 | 00:41:17 | 00:00:00 | |
| DM0DOS-11 | 2026-09-03 10:12:46 | 52.64685 | 7.88626 | 117° | 173km/h | 9074m | 5.5m/s | -37.9°C | 78% | 315.9hPa | 2.9V | 08:30:00 | 00:41:16 | 00:00:00 | |
| GOEST3-10 | 2026-09-03 10:12:46 | 52.64577 | 7.88962 | 119° | 184km/h | 9098m | 5.8m/s | -38.1°C | 77.5% | 314.7hPa | 2.9V | 00:00:00 | 00:00:00 | 00:00:00 | |
| DL1XH1-15 | 2026-09-03 10:12:45 | 52.64706 | 7.88564 | 119° | 168km/h | 9068m | 5.8m/s | -37.9°C | 78.2% | 316.1hPa | 2.9V | 08:30:00 | 00:41:15 | 00:00:00 | |
| DO2JMG | 2026-09-03 10:12:45 | 52.64599 | 7.88894 | 118° | 188km/h | 9092m | 4.9m/s | -38.1°C | 74.6% | 315hPa | 2.9V | 18:12:15 | 00:41:20 | 00:00:00 | |
| BIOWL1-15 | 2026-09-03 10:12:44 | 52.64706 | 7.88564 | 119° | 168km/h | 9068m | 5.8m/s | -37.9°C | 72.9% | 316.1hPa | 2.9V | 18:12:15 | 00:41:15 | 00:00:00 | |
| AA1-15 | 2026-09-03 10:12:43 | 52.64643 | 7.88758 | 118° | 183km/h | 9084m | 4m/s | -38°C | 73.8% | 315.4hPa | 2.8V | 18:12:15 | 00:41:18 | 00:00:00 | |
| DD8BA-10 | 2026-09-03 10:12:43 | 52.64643 | 7.88758 | 118° | 168km/h | 9084m | 4.0m/s | -37.9°C | 77.3% | 315.4hPa | 2.9V | 00:00:00 | 00:00:00 | 00:00:00 | |
| BIOWL7-15 | 2026-09-03 10:12:42 | 52.64643 | 7.88758 | 119° | 183km/h | 9084m | 4.0m/s | -38.0°C | 73.1% | 315.4hPa | 2.9V | 00:00:00 | 00:00:00 | 00:00:00 | |
| DB0DAN | 2026-09-03 10:12:40 | 52.64706 | 7.88564 | 119° | 161km/h | 9068m | 5.8m/s | -37.9°C | 73.9% | 316.12hPa | 2.9V | 00:00:00 | 00:00:00 | 00:00:00 | |
| DL4BBY-15 | 2026-09-03 10:12:39 | 52.64727 | 7.88504 | 121° | 162km/h | 9062m | 4.7m/s | -36.4°C | 0% | 0hPa | 2.9V | 00:00:00 | 00:00:00 | 00:00:00 | |
| HTAHTA | 2026-09-03 10:12:38 | 52.64749 | 7.88446 | 122° | 159km/h | 9058m | 4.4m/s | -38.0°C | 74.4% | 316.6hPa | 2.9V | 00:00:00 | 00:00:00 | 00:00:00 | |
| DC6BW-12 | 2026-09-03 10:12:37 | 52.64749 | 7.88446 | 124° | 159km/h | 9058m | 4.4m/s | -38.0°C | 74.5% | 316.6hPa | 2.9V | 00:00:00 | 00:00:00 | 00:00:00 | |
| DM0DOS-11 | 2026-09-03 10:12:36 | 52.64906 | 7.88026 | 118° | 183km/h | 9020m | 7.1m/s | -37.8°C | 73.3% | 318.2hPa | 2.9V | 08:30:00 | 00:41:06 | 00:00:00 | |
| DO9LL-15 | 2026-09-03 10:12:36 | 52.64791 | 7.88336 | 122° | 162km/h | 9048m | 2.7m/s | -37.9°C | 79.5% | 317.1hPa | 2.7V | 00:00:00 | 00:41:11 | 00:00:00 | |
| DL1XH1-15 | 2026-09-03 10:12:35 | 52.64928 | 7.87959 | 116° | 177km/h | 9012m | 8.1m/s | -37.7°C | 72.5% | 318.7hPa | 2.9V | 08:30:00 | 00:41:05 | 00:00:00 | |
| DO2JMG | 2026-09-03 10:12:34 | 52.64836 | 7.88219 | 122° | 173km/h | 9038m | 5.4m/s | -37.9°C | 73.1% | 317.5hPa | 2.9V | 18:12:15 | 00:41:09 | 00:00:00 | |
| DL1XH-west | 2026-09-03 10:12:32 | 52.64884 | 7.88091 | 121° | 183km/h | 9026m | 5.2m/s | -37.8°C | 72.5% | 318hPa | 2.9V | 18:12:15 | 00:41:07 | 00:00:00 | |
| GOEST3-10 | 2026-09-03 10:12:31 | 52.64906 | 7.88026 | 119° | 170km/h | 9020m | 7.1m/s | -37.8°C | 73.3% | 318.2hPa | 2.9V | 00:00:00 | 00:41:06 | 00:00:00 | |
| DL1XH-15 | 2026-09-03 10:12:29 | 52.65039 | 7.87599 | 117° | 157km/h | 8971m | 6.6m/s | -37.4°C | 68.8% | 320.5hPa | 2.9V | 08:30:00 | 00:40:59 | 00:00:00 | |
| BIOWL1-15 | 2026-09-03 10:12:29 | 52.64947 | 7.87895 | 115° | 168km/h | 9005m | 6.9m/s | -37.7°C | 70.2% | 319hPa | 2.8V | 18:12:15 | 00:41:04 | 00:00:00 | |
| DL4XJ-10 | 2026-09-03 10:12:28 | 52.64965 | 7.87832 | 116° | 161km/h | 8997m | 7.8m/s | -36.2°C | 0% | 0hPa | 2.8V | 00:00:00 | 00:00:00 | 00:00:00 | |
| DM0DOS-11 | 2026-09-03 10:12:26 | 52.65096 | 7.87424 | 120° | 159km/h | 8954m | 5m/s | -37.3°C | 69.7% | 321.4hPa | 2.8V | 08:30:00 | 00:40:56 | 00:00:00 | |
| GOEST3-10 | 2026-09-03 10:12:26 | 52.65001 | 7.87714 | 118° | 157km/h | 8983m | 6.0m/s | -37.5°C | 70.1% | 319.9hPa | 2.8V | 00:00:00 | 00:00:00 | 00:00:00 | |
| DL1XH1-15 | 2026-09-03 10:12:25 | 52.65116 | 7.87367 | 121° | 159km/h | 8949m | 4.5m/s | -37.2°C | 69.1% | 321.7hPa | 2.8V | 08:30:00 | 00:40:55 | 00:00:00 | |
| DO2JMG | 2026-09-03 10:12:23 | 52.65057 | 7.87540 | 117° | 159km/h | 8964m | 7.5m/s | -37.4°C | 65.4% | 320.9hPa | 2.9V | 18:12:15 | 00:40:58 | 00:00:00 | |
| DL1XH-west | 2026-09-03 10:12:21 | 52.65095 | 7.87424 | 120° | 159km/h | 8954m | 5m/s | -37.3°C | 65.7% | 321.4hPa | 2.8V | 18:12:15 | 00:40:56 | 00:00:00 | |
| GOEST3-10 | 2026-09-03 10:12:21 | 52.65095 | 7.87424 | 121° | 159km/h | 8954m | 4.9m/s | -37.2°C | 69.7% | 321.3hPa | 2.7V | 00:00:00 | 00:40:56 | 08:30:00 | |
| SMARD9-10 | 2026-09-03 10:12:20 | 52.65095 | 7.87424 | 121° | 159km/h | 8954m | 5.0m/s | -37.3°C | 0% | 321.4hPa | 2.9V | 00:00:00 | 00:00:00 | 00:00:00 | |
| DL1XH-15 | 2026-09-03 10:12:19 | 52.65245 | 7.87028 | 120° | 164km/h | 8914m | 6.3m/s | -37°C | 64.2% | 323.2hPa | 2.9V | 08:30:00 | 00:40:49 | 00:00:00 | |
| BIOWL1-15 | 2026-09-03 10:12:19 | 52.65137 | 7.87311 | 122° | 161km/h | 8944m | 5.2m/s | -37.2°C | 65.6% | 321.8hPa | 2.9V | 18:12:15 | 00:40:54 | 00:00:00 | |
| AU51GT2 | 2026-09-03 10:12:17 | 52.65180 | 7.87199 | 121° | 159km/h | 8933m | 5.5m/s | 0°C | -1.0% | -1.0hPa | 2.9V | 00:00:00 | 00:00:00 | 00:00:00 | |
| DM0DOS-11 | 2026-09-03 10:12:16 | 52.65305 | 7.86855 | 119° | 157km/h | 8895m | 6.5m/s | -36.9°C | 63.4% | 324.1hPa | 2.9V | 08:30:00 | 00:40:46 | 00:00:00 | |
| GOEST3-10 | 2026-09-03 10:12:16 | 52.65202 | 7.87143 | 123° | 161km/h | 8927m | 6.5m/s | -37.1°C | 65.6% | 322.6hPa | 2.9V | 00:00:00 | 00:00:00 | 00:00:00 | |
| DL1XH1-15 | 2026-09-03 10:12:15 | 52.65324 | 7.86798 | 118° | 155km/h | 8889m | 4.9m/s | -36.8°C | 63.3% | 324.4hPa | 2.9V | 08:30:00 | 00:40:45 | 00:00:00 | |
| DO2JMG | 2026-09-03 10:12:12 | 52.65286 | 7.86912 | 119° | 159km/h | 8901m | 6.3m/s | -36.9°C | 62.7% | 323.7hPa | 2.8V | 18:12:15 | 00:40:47 | 00:00:00 | |
| DB0DAN | 2026-09-03 10:12:10 | 52.65324 | 7.86798 | 119° | 148km/h | 8889m | 4.9m/s | -36.8°C | 59.7% | 324.45hPa | 2.9V | 00:00:00 | 00:00:00 | 00:00:00 | |
| DL1XH-west | 2026-09-03 10:12:10 | 52.65324 | 7.86798 | 119° | 155km/h | 8889m | 4.9m/s | -36.8°C | 61.8% | 324.4hPa | 2.9V | 18:12:15 | 00:40:45 | 00:00:00 | |
| BIOWL1-15 | 2026-09-03 10:12:09 | 52.65343 | 7.86741 | 118° | 155km/h | 8884m | 5.1m/s | -36.8°C | 61.4% | 324.6hPa | 2.9V | 18:12:15 | 00:40:44 | 00:00:00 | |
| DL4BBY-15 | 2026-09-03 10:12:09 | 52.65343 | 7.86741 | 118° | 153km/h | 8885m | 5.1m/s | -35.3°C | 0% | 0hPa | 2.9V | 00:00:00 | 00:00:00 | 00:00:00 | |
| HTAHTA | 2026-09-03 10:12:07 | 52.65400 | 7.86568 | 120° | 159km/h | 8870m | 4.0m/s | -36.6°C | 58.5% | 325.3hPa | 2.9V | 00:00:00 | 00:00:00 | 00:00:00 | |
| DM0DOS-11 | 2026-09-03 10:12:06 | 52.65502 | 7.86291 | 121° | 151km/h | 8849m | 4.2m/s | -36.5°C | 60.6% | 326.3hPa | 2.9V | 08:30:00 | 00:40:36 | 00:00:00 | |
| DO9LL-15 | 2026-09-03 10:12:06 | 52.65399 | 7.86568 | 121° | 153km/h | 8871m | 3.9m/s | -36.6°C | 62.0% | 325.2hPa | 2.9V | 00:00:00 | 00:40:41 | 00:00:00 | |
| DL1XH1-15 | 2026-09-03 10:12:05 | 52.65522 | 7.86238 | 120° | 148km/h | 8845m | 5.1m/s | -36.4°C | 60.4% | 326.5hPa | 2.9V | 08:30:00 | 00:40:35 | 00:00:00 | |
| DO2JMG | 2026-09-03 10:12:02 | 52.65482 | 7.86346 | 122° | 153km/h | 8854m | 4.5m/s | -36.5°C | 58.7% | 326.1hPa | 2.9V | 18:12:15 | 00:40:37 | 00:00:00 | |
| AA1-15 | 2026-09-03 10:12:00 | 52.65522 | 7.86238 | 121° | 148km/h | 8845m | 5.1m/s | 0°C | 0% | 0hPa | 2.9V | 18:12:15 | 00:40:35 | 00:00:00 | |
| BIOWL1-15 | 2026-09-03 10:11:59 | 52.65541 | 7.86185 | 121° | 148km/h | 8840m | 4.7m/s | -36.4°C | 58% | 326.7hPa | 2.9V | 18:12:15 | 00:40:34 | 00:00:00 | |
| DM0DOS-11 | 2026-09-03 10:11:56 | 52.65698 | 7.85747 | 120° | 155km/h | 8800m | 4.6m/s | -36°C | 57.6% | 328.6hPa | 2.9V | 08:30:00 | 00:40:26 | 00:00:00 | |
| DB0DAN | 2026-09-03 10:11:55 | 52.65617 | 7.85969 | 121° | 146km/h | 8822m | 6.1m/s | -36.3°C | 54.6% | 327.59hPa | 2.9V | 00:00:00 | 00:00:00 | 00:00:00 | |
| DL1XH1-15 | 2026-09-03 10:11:55 | 52.65717 | 7.85691 | 118° | 155km/h | 8796m | 5m/s | -36°C | 57% | 328.9hPa | 2.9V | 08:30:00 | 00:40:25 | 00:00:00 | |
| DO2JMG | 2026-09-03 10:11:52 | 52.65678 | 7.85802 | 121° | 157km/h | 8806m | 6.4m/s | -36.1°C | 56% | 328.4hPa | 2.9V | 18:12:15 | 00:40:27 | 00:00:00 | |
| AA1-15 | 2026-09-03 10:11:49 | 52.65736 | 7.85634 | 117° | 155km/h | 8791m | 3.8m/s | 0°C | 0% | 0hPa | 2.8V | 18:12:15 | 00:40:24 | 00:00:00 | |
| DL1XH-west | 2026-09-03 10:11:48 | 52.65753 | 7.85576 | 116° | 155km/h | 8786m | 6.7m/s | -36°C | 55% | 329.3hPa | 2.8V | 18:12:15 | 00:40:23 | 00:00:00 | |
| DO3DL | 2026-09-03 10:11:47 | 52.65753 | 7.85576 | 117° | 155km/h | 8786m | 6.7m/s | -36.0°C | 52.0% | 329.3hPa | 2.8V | 00:00:00 | 00:00:00 | 00:00:00 | |
| DM0DOS-11 | 2026-09-03 10:11:46 | 52.65877 | 7.85183 | 119° | 153km/h | 8747m | 4m/s | -35.6°C | 55% | 331.1hPa | 2.8V | 08:30:00 | 00:40:16 | 00:00:00 | |
| DL4XJ-10 | 2026-09-03 10:11:46 | 52.65788 | 7.85462 | 117° | 150km/h | 8773m | 5.0m/s | -34.4°C | 0% | 0hPa | 2.8V | 00:00:00 | 00:00:00 | 00:00:00 | |
| DL1XH1-15 | 2026-09-03 10:11:45 | 52.65896 | 7.85128 | 120° | 151km/h | 8742m | 5.6m/s | -35.6°C | 55.3% | 331.3hPa | 2.8V | 08:30:00 | 00:40:15 | 00:00:00 | |
| DO2JMG | 2026-09-03 10:11:42 | 52.65859 | 7.85238 | 118° | 151km/h | 8752m | 6.1m/s | -35.7°C | 54.5% | 330.9hPa | 2.9V | 18:12:15 | 00:40:17 | 00:00:00 | |
| DB0DAN | 2026-09-03 10:11:40 | 52.65896 | 7.85128 | 121° | 146km/h | 8742m | 5.6m/s | -35.6°C | 52.1% | 331.33hPa | 2.8V | 00:00:00 | 00:00:00 | 00:00:00 | |
| AA1-15 | 2026-09-03 10:11:39 | 52.65916 | 7.85073 | 121° | 151km/h | 8738m | 3.6m/s | 0°C | 0% | 0hPa | 2.9V | 18:12:15 | 00:40:14 | 00:00:00 | |
| DL1XH-west | 2026-09-03 10:11:38 | 52.65935 | 7.85019 | 120° | 150km/h | 8733m | 5.1m/s | -35.5°C | 55.2% | 331.7hPa | 2.9V | 18:12:15 | 00:40:13 | 00:00:00 | |
| DM0DOS-11 | 2026-09-03 10:11:36 | 52.66053 | 7.84629 | 114° | 151km/h | 8700m | 5.2m/s | -35.2°C | 52.6% | 333.3hPa | 2.9V | 08:30:00 | 00:40:06 | 00:00:00 | |
| HTAHTA | 2026-09-03 10:11:36 | 52.65988 | 7.84853 | 117° | 150km/h | 8719m | 6.1m/s | -35.4°C | 50.8% | 332.4hPa | 2.9V | 00:00:00 | 00:00:00 | 00:00:00 | |
| DL1XH1-15 | 2026-09-03 10:11:35 | 52.66069 | 7.84572 | 115° | 151km/h | 8695m | 4.4m/s | -35.2°C | 53% | 333.6hPa | 2.9V | 08:30:00 | 00:40:05 | 00:00:00 | |
| DO2JMG | 2026-09-03 10:11:31 | 52.66053 | 7.84629 | 115° | 151km/h | 8700m | 5.2m/s | -35.2°C | 52.6% | 333.3hPa | 2.9V | 18:12:15 | 00:40:06 | 00:00:00 | |
| DL1XH-west | 2026-09-03 10:11:27 | 52.66120 | 7.84404 | 117° | 150km/h | 8683m | 3.2m/s | -35.1°C | 51.6% | 334.2hPa | 2.8V | 18:12:15 | 00:40:02 | 00:00:00 | |
| DM0DOS-11 | 2026-09-03 10:11:26 | 52.66231 | 7.84070 | 119° | 151km/h | 8658m | 3.9m/s | -34.9°C | 49.1% | 335.4hPa | 2.9V | 08:30:00 | 00:39:56 | 00:00:00 | |
| DB0DAN | 2026-09-03 10:11:25 | 52.66156 | 7.84292 | 118° | 146km/h | 8674m | 4.4m/s | -35°C | 48.6% | 334.63hPa | 2.9V | 00:00:00 | 00:00:00 | 00:00:00 | |
| DL1XH1-15 | 2026-09-03 10:11:25 | 52.66249 | 7.84015 | 118° | 151km/h | 8654m | 4.4m/s | -34.9°C | 48.4% | 335.5hPa | 2.8V | 08:30:00 | 00:39:55 | 00:00:00 | |
| DO2JMG | 2026-09-03 10:11:21 | 52.66231 | 7.84070 | 120° | 151km/h | 8658m | 3.9m/s | -34.9°C | 49.4% | 335.4hPa | 2.9V | 18:12:15 | 00:39:56 | 00:00:00 | |
| BIOWL1-15 | 2026-09-03 10:11:17 | 52.66304 | 7.83847 | 118° | 151km/h | 8640m | 5.1m/s | -34.8°C | 47.1% | 336.2hPa | 2.9V | 18:12:15 | 00:39:52 | 00:00:00 | |
| DL1XH-west | 2026-09-03 10:11:16 | 52.66322 | 7.83792 | 117° | 150km/h | 8635m | 5.7m/s | -34.7°C | 46.4% | 336.6hPa | 2.9V | 18:12:15 | 00:39:51 | 00:00:00 | |
| DL1XH1-15 | 2026-09-03 10:11:15 | 52.66416 | 7.83459 | 114° | 153km/h | 8607m | 5.2m/s | -34.5°C | 43.6% | 337.9hPa | 2.9V | 08:30:00 | 00:39:45 | 00:00:00 | |
| DJ2DS-15 | 2026-09-03 10:11:14 | 52.66354 | 7.83683 | 116° | 151km/h | 8624m | 5.7m/s | -34.6°C | 44.5% | 337.0hPa | 2.9V | 00:00:00 | 00:39:49 | 00:00:00 | |
| DD8BA-10 | 2026-09-03 10:11:13 | 52.66370 | 7.83628 | 115° | 151km/h | 8620m | 3.9m/s | -34.5°C | 44.5% | 337.3hPa | 2.9V | 00:00:00 | 00:00:00 | 00:00:00 | |
| DD1CC3-15 | 2026-09-03 10:11:12 | 52.66369 | 7.83628 | 116° | 144km/h | 8620m | 3.9m/s | -34.6°C | 41.7% | 337.3hPa | 2.9V | 00:00:00 | 00:00:00 | 00:00:00 | |
| DB0DAN | 2026-09-03 10:11:10 | 52.66416 | 7.83459 | 115° | 146km/h | 8607m | 5.2m/s | -34.5°C | 40.8% | 337.95hPa | 2.9V | 00:00:00 | 00:00:00 | 00:00:00 | |
| DO2JMG | 2026-09-03 10:11:10 | 52.66416 | 7.83459 | 115° | 153km/h | 8607m | 5.2m/s | -34.5°C | 44.2% | 337.9hPa | 2.9V | 18:12:15 | 00:39:45 | 00:00:00 | |
| BIOWL1-15 | 2026-09-03 10:11:09 | 52.66468 | 7.83284 | 117° | 157km/h | 8593m | 6.5m/s | -34.4°C | 43.5% | 338.6hPa | 2.9V | 18:12:15 | 00:39:42 | 00:00:00 | |
| DL1XH-west | 2026-09-03 10:11:06 | 52.66485 | 7.83226 | 116° | 153km/h | 8587m | 4.8m/s | -34.4°C | 43.3% | 338.9hPa | 2.9V | 18:12:15 | 00:39:41 | 00:00:00 | |
| DL4XJ-10 | 2026-09-03 10:11:06 | 52.66485 | 7.83226 | 116° | 150km/h | 8587m | 4.8m/s | 0°C | 0% | 0hPa | 2.9V | 00:00:00 | 00:00:00 | 00:00:00 | |
| DL1XH1-15 | 2026-09-03 10:11:05 | 52.66577 | 7.82886 | 113° | 151km/h | 8557m | 6.6m/s | -34.1°C | 40.6% | 340.3hPa | 2.9V | 08:30:00 | 00:39:35 | 00:00:00 | |
| HTAHTA | 2026-09-03 10:11:05 | 52.66518 | 7.83112 | 114° | 148km/h | 8577m | 4.8m/s | -34.2°C | 39.3% | 339.4hPa | 2.9V | 00:00:00 | 00:00:00 | 00:00:00 | |
| DL1XH-15 | 2026-09-03 10:11:04 | 52.66593 | 7.82828 | 114° | 153km/h | 8551m | 4.5m/s | -34°C | 40.5% | 340.6hPa | 2.9V | 08:30:00 | 00:39:34 | 00:00:00 | |
| DO2JMG | 2026-09-03 10:11:00 | 52.66577 | 7.82886 | 113° | 151km/h | 8557m | 6.6m/s | -34.1°C | 41.1% | 340.3hPa | 2.9V | 18:12:15 | 00:39:35 | 00:00:00 | |
| BIOWL1-15 | 2026-09-03 10:10:56 | 52.66640 | 7.82655 | 114° | 150km/h | 8538m | 4.1m/s | -33.9°C | 39.7% | 341.3hPa | 2.9V | 18:12:15 | 00:39:31 | 00:00:00 | |
| DB0DAN | 2026-09-03 10:10:55 | 52.66656 | 7.82599 | 114° | 142km/h | 8533m | 5.8m/s | -33.9°C | 35.7% | 341.48hPa | 2.8V | 00:00:00 | 00:00:00 | 00:00:00 | |
| DL1XH-west | 2026-09-03 10:10:55 | 52.66656 | 7.82599 | 114° | 150km/h | 8533m | 5.8m/s | -33.9°C | 39% | 341.5hPa | 2.8V | 18:12:15 | 00:39:30 | 00:00:00 | |
| DL1XH-15 | 2026-09-03 10:10:54 | 52.66747 | 7.82260 | 115° | 146km/h | 8501m | 4.8m/s | -33.6°C | 33.7% | 343hPa | 2.9V | 08:30:00 | 00:39:24 | 00:00:00 | |
| DO2JMG | 2026-09-03 10:10:49 | 52.66747 | 7.82260 | 115° | 146km/h | 8501m | 4.8m/s | -33.6°C | 35.8% | 343hPa | 2.9V | 18:12:15 | 00:39:24 | 00:00:00 | |
| BIOWL1-15 | 2026-09-03 10:10:46 | 52.66794 | 7.82096 | 115° | 144km/h | 8484m | 5.3m/s | -33.5°C | 33.8% | 344hPa | 2.8V | 18:12:15 | 00:39:21 | 00:00:00 | |
| GOEST3-10 | 2026-09-03 10:10:46 | 52.66794 | 7.82096 | 116° | 148km/h | 8484m | 5.2m/s | -33.4°C | 31.3% | 343.9hPa | 2.9V | 00:00:00 | 00:00:00 | 00:00:00 | |
| DL1XH1-15 | 2026-09-03 10:10:45 | 52.66893 | 7.81765 | 116° | 148km/h | 8455m | 3.3m/s | -33.2°C | 28.8% | 345.4hPa | 2.9V | 08:30:00 | 00:39:15 | 00:00:00 | |
| DL1XH-west | 2026-09-03 10:10:45 | 52.66810 | 7.82042 | 116° | 144km/h | 8478m | 5.8m/s | -33.4°C | 32.9% | 344.2hPa | 2.8V | 18:12:15 | 00:39:20 | 00:00:00 | |
| DO2JMG | 2026-09-03 10:10:39 | 52.66909 | 7.81710 | 115° | 146km/h | 8451m | 5.2m/s | -33.1°C | 29.6% | 345.6hPa | 2.9V | 18:12:15 | 00:39:14 | 00:00:00 | |
| DL4BBY-15 | 2026-09-03 10:10:39 | 52.66909 | 7.81710 | 116° | 150km/h | 8451m | 5.1m/s | -31.6°C | 0% | 0hPa | 2.9V | 00:00:00 | 00:00:00 | 00:00:00 | |
| DO2LYB-13 | 2026-09-03 10:10:38 | 52.66909 | 7.81710 | 116° | 146km/h | 8451m | 5.2m/s | 0°C | 0% | 0hPa | 2.9V | 00:00:00 | 00:00:00 | 00:00:00 | |
| BUE01 | 2026-09-03 10:10:37 | 52.66939 | 7.81599 | 114° | 144km/h | 8443m | 3.8m/s | -33.0°C | 25.8% | 346.0hPa | 2.9V | 00:00:00 | 00:00:00 | 00:00:00 | |
| DO9LL-15 | 2026-09-03 10:10:36 | 52.66954 | 7.81544 | 114° | 150km/h | 8439m | 4.4m/s | -32.9°C | 27.6% | 346.1hPa | 2.9V | 00:00:00 | 00:39:11 | 00:00:00 | |
| DL1XH1-15 | 2026-09-03 10:10:35 | 52.67046 | 7.81208 | 113° | 150km/h | 8412m | 6m/s | -32.8°C | 25.7% | 347.4hPa | 2.9V | 08:30:00 | 00:39:05 | 00:00:00 | |
| BIOWL1-15 | 2026-09-03 10:10:35 | 52.66970 | 7.81488 | 114° | 148km/h | 8435m | 3.3m/s | -33°C | 28.4% | 346.4hPa | 2.9V | 18:12:15 | 00:39:10 | 00:00:00 | |
| DL1XH-15 | 2026-09-03 10:10:34 | 52.67062 | 7.81151 | 114° | 151km/h | 8407m | 5.6m/s | -32.8°C | 25.4% | 347.8hPa | 2.9V | 08:30:00 | 00:39:04 | 00:00:00 | |
| DL1XH-west | 2026-09-03 10:10:34 | 52.66985 | 7.81431 | 114° | 148km/h | 8431m | 4.2m/s | -32.9°C | 28.4% | 346.6hPa | 2.9V | 18:12:15 | 00:39:09 | 00:00:00 | |
| DO2JMG | 2026-09-03 10:10:29 | 52.67062 | 7.81151 | 115° | 151km/h | 8407m | 5.6m/s | -32.8°C | 27.2% | 347.8hPa | 2.9V | 18:12:15 | 00:39:04 | 00:00:00 | |
| DD1CC8 | 2026-09-03 10:10:29 | 52.67078 | 7.81094 | 115° | 151km/h | 8402m | 5.3m/s | -32.7°C | 23.2% | 348.0hPa | 2.9V | 00:00:00 | 00:00:00 | 00:00:00 | |
| DM0DOS-11 | 2026-09-03 10:10:26 | 52.67192 | 7.80691 | 114° | 150km/h | 8368m | 6.9m/s | -32.4°C | 22.6% | 349.6hPa | 2.9V | 08:30:00 | 00:38:56 | 00:00:00 | |
| BIOWL1-15 | 2026-09-03 10:10:25 | 52.67128 | 7.80921 | 116° | 153km/h | 8387m | 5.4m/s | -32.6°C | 26% | 348.8hPa | 2.9V | 18:12:15 | 00:39:00 | 00:00:00 | |
| DL1XH-15 | 2026-09-03 10:10:24 | 52.67224 | 7.80580 | 115° | 146km/h | 8356m | 4.2m/s | -32.2°C | 22.6% | 350.3hPa | 2.8V | 08:30:00 | 00:38:54 | 00:00:00 | |
| DL1XH-west | 2026-09-03 10:10:23 | 52.67161 | 7.80806 | 114° | 151km/h | 8377m | 5.4m/s | -32.5°C | 25.3% | 349.3hPa | 2.9V | 18:12:15 | 00:38:58 | 00:00:00 | |
| DO2JMG | 2026-09-03 10:10:19 | 52.67224 | 7.80580 | 116° | 146km/h | 8356m | 4.2m/s | -32.2°C | 24.4% | 350.3hPa | 2.8V | 18:12:15 | 00:38:54 | 00:00:00 | |
| BIOWL9-15 | 2026-09-03 10:10:17 | 52.67271 | 7.80415 | 115° | 146km/h | 8342m | 4.0m/s | -32.1°C | 20.4% | 351.0hPa | 2.9V | 00:00:00 | 00:00:00 | 00:00:00 | |
| DM0DOS-11 | 2026-09-03 10:10:16 | 52.67352 | 7.80138 | 114° | 151km/h | 8320m | 2.9m/s | -31.9°C | 21.1% | 352.1hPa | 2.9V | 08:30:00 | 00:38:46 | 00:00:00 | |
| BIOWL7-15 | 2026-09-03 10:10:16 | 52.67271 | 7.80415 | 116° | 148km/h | 8342m | 4.0m/s | -32.1°C | 20.4% | 351.0hPa | 2.9V | 00:00:00 | 00:00:00 | 00:00:00 | |
| DL1XH1-15 | 2026-09-03 10:10:15 | 52.67368 | 7.80080 | 113° | 155km/h | 8316m | 5.7m/s | -31.9°C | 20.8% | 352.3hPa | 2.9V | 08:30:00 | 00:38:45 | 00:00:00 | |
| BIOWL1-15 | 2026-09-03 10:10:15 | 52.67287 | 7.80359 | 116° | 148km/h | 8338m | 4.9m/s | -32.1°C | 23.7% | 351.3hPa | 2.9V | 18:12:15 | 00:38:50 | 00:00:00 | |
| DL1XH-west | 2026-09-03 10:10:12 | 52.67336 | 7.80195 | 115° | 148km/h | 8324m | 4.6m/s | -31.9°C | 23.3% | 351.9hPa | 2.9V | 18:12:15 | 00:38:47 | 00:00:00 | |
| DB0DAN | 2026-09-03 10:10:10 | 52.67368 | 7.80080 | 114° | 148km/h | 8316m | 5.7m/s | -31.9°C | 19.1% | 352.27hPa | 2.9V | 00:00:00 | 00:00:00 | 00:00:00 | |
| DO2JMG | 2026-09-03 10:10:08 | 52.67400 | 7.79961 | 114° | 157km/h | 8306m | 5.7m/s | -31.8°C | 22.3% | 352.8hPa | 2.9V | 18:12:15 | 00:38:43 | 00:00:00 | |
| DM0DOS-11 | 2026-09-03 10:10:06 | 52.67517 | 7.79554 | 116° | 153km/h | 8273m | 5m/s | -31.5°C | 18.3% | 354.5hPa | 2.9V | 08:30:00 | 00:38:36 | 00:00:00 | |
| DO9LL-15 | 2026-09-03 10:10:06 | 52.67433 | 7.79842 | 116° | 153km/h | 8296m | 4.2m/s | -31.6°C | 19.8% | 353.3hPa | 2.9V | 00:00:00 | 00:38:41 | 00:00:00 | |
| DL1XH1-15 | 2026-09-03 10:10:05 | 52.67535 | 7.79498 | 116° | 150km/h | 8268m | 5.7m/s | -31.4°C | 18.1% | 354.7hPa | 2.9V | 08:30:00 | 00:38:35 | 00:00:00 | |
| BIOWL1-15 | 2026-09-03 10:10:04 | 52.67466 | 7.79726 | 116° | 155km/h | 8288m | 4.2m/s | -31.6°C | 20.9% | 353.8hPa | 2.8V | 18:12:15 | 00:38:39 | 00:00:00 | |
| DL1XH-west | 2026-09-03 10:10:02 | 52.67500 | 7.79611 | 116° | 153km/h | 8278m | 5.5m/s | -31.5°C | 20.4% | 354.2hPa | 2.9V | 18:12:15 | 00:38:37 | 00:00:00 | |
| DO2JMG | 2026-09-03 10:09:57 | 52.67583 | 7.79331 | 115° | 150km/h | 8254m | 4.8m/s | -31.3°C | 19.4% | 355.5hPa | 2.9V | 18:12:15 | 00:38:32 | 00:00:00 | |
| DM0DOS-11 | 2026-09-03 10:09:56 | 52.67685 | 7.78978 | 116° | 157km/h | 8222m | 5.4m/s | -31.2°C | 15.4% | 357.1hPa | 2.9V | 08:30:00 | 00:38:26 | 00:00:00 | |
| DB0DAN | 2026-09-03 10:09:55 | 52.67615 | 7.79215 | 115° | 148km/h | 8245m | 6.6m/s | -31.3°C | 15% | 355.88hPa | 2.9V | 00:00:00 | 00:00:00 | 00:00:00 | |
| DL1XH1-15 | 2026-09-03 10:09:55 | 52.67702 | 7.78920 | 116° | 155km/h | 8217m | 4.3m/s | -31.2°C | 15.5% | 357.3hPa | 2.9V | 08:30:00 | 00:38:25 | 00:00:00 | |
| BIOWL1-15 | 2026-09-03 10:09:55 | 52.67649 | 7.79097 | 116° | 157km/h | 8233m | 5.9m/s | -31.3°C | 16.9% | 356.4hPa | 2.9V | 18:12:15 | 00:38:28 | 00:00:00 | |
| DL1XH-15 | 2026-09-03 10:09:54 | 52.67719 | 7.78863 | 115° | 153km/h | 8213m | 5.5m/s | -31.1°C | 15.5% | 357.5hPa | 2.8V | 08:30:00 | 00:38:24 | 00:00:00 | |
| DL1XH-west | 2026-09-03 10:09:51 | 52.67685 | 7.78978 | 117° | 157km/h | 8222m | 5.4m/s | -31.2°C | 16.5% | 357.1hPa | 2.9V | 18:12:15 | 00:38:26 | 00:00:00 | |
| DO2JMG | 2026-09-03 10:09:47 | 52.67750 | 7.78749 | 113° | 148km/h | 8202m | 5.9m/s | -31.1°C | 16.4% | 358hPa | 2.9V | 18:12:15 | 00:38:22 | 00:00:00 | |
| DM0DOS-11 | 2026-09-03 10:09:46 | 52.67834 | 7.78401 | 113° | 161km/h | 8173m | 4.3m/s | -30.9°C | 14.4% | 359.6hPa | 2.9V | 08:30:00 | 00:38:16 | 00:00:00 | |
| GOEST3-10 | 2026-09-03 10:09:46 | 52.67764 | 7.78693 | 112° | 150km/h | 8198m | 4.4m/s | -31.0°C | 15.1% | 358.2hPa | 2.9V | 00:00:00 | 00:00:00 | 00:00:00 | |
| DL1XH1-15 | 2026-09-03 10:09:45 | 52.67850 | 7.78340 | 114° | 161km/h | 8168m | 6.6m/s | -30.9°C | 14.2% | 359.7hPa | 2.9V | 08:30:00 | 00:38:15 | 00:00:00 | |
| BIOWL1-15 | 2026-09-03 10:09:45 | 52.67804 | 7.78522 | 111° | 150km/h | 8184m | 6m/s | -31°C | 16% | 359.1hPa | 2.9V | 18:12:15 | 00:38:18 | 00:00:00 | |
| DL1XH-west | 2026-09-03 10:09:41 | 52.67834 | 7.78401 | 113° | 161km/h | 8173m | 4.3m/s | -30.9°C | 15.8% | 359.6hPa | 2.9V | 18:12:15 | 00:38:16 | 00:00:00 | |
| DB0DAN | 2026-09-03 10:09:40 | 52.67850 | 7.78340 | 114° | 153km/h | 8168m | 6.6m/s | -30.9°C | 12.8% | 359.71hPa | 2.9V | 00:00:00 | 00:00:00 | 00:00:00 | |
| DL4BBY-15 | 2026-09-03 10:09:39 | 52.67867 | 7.78280 | 116° | 146km/h | 8160m | 9.0m/s | -29.3°C | 0% | 0hPa | 2.9V | 00:00:00 | 00:00:00 | 00:00:00 | |
| DF4FW | 2026-09-03 10:09:38 | 52.67867 | 7.78280 | 117° | 157km/h | 8160m | 9.0m/s | -30.8°C | 12.7% | 360.2hPa | 2.9V | 00:00:00 | 00:00:00 | 00:00:00 | |
| DO3DL | 2026-09-03 10:09:37 | 52.67885 | 7.78223 | 119° | 150km/h | 8152m | 6.9m/s | -30.8°C | 12.8% | 360.7hPa | 2.9V | 00:00:00 | 00:00:00 | 00:00:00 | |
| DM0DOS-11 | 2026-09-03 10:09:36 | 52.68011 | 7.77830 | 114° | 150km/h | 8110m | 7.8m/s | -30.6°C | 14.2% | 362.7hPa | 2.9V | 08:30:00 | 00:38:06 | 00:00:00 | |
| DO2JMG | 2026-09-03 10:09:36 | 52.67922 | 7.78117 | 120° | 148km/h | 8141m | 4.9m/s | -30.8°C | 15.2% | 361.1hPa | 2.9V | 18:12:15 | 00:38:11 | 00:00:00 | |
| DO9LL-15 | 2026-09-03 10:09:36 | 52.67921 | 7.78117 | 121° | 144km/h | 8142m | 4.8m/s | -30.7°C | 14.0% | 361.1hPa | 2.9V | 00:00:00 | 00:38:11 | 00:00:00 | |
| DL1XH1-15 | 2026-09-03 10:09:35 | 52.68027 | 7.77776 | 116° | 141km/h | 8103m | 7.1m/s | -30.6°C | 14.3% | 363.1hPa | 2.9V | 08:30:00 | 00:38:05 | 00:00:00 | |
| BIOWL1-15 | 2026-09-03 10:09:34 | 52.67994 | 7.77888 | 115° | 157km/h | 8118m | 7.7m/s | -30.6°C | 15.3% | 362.3hPa | 2.9V | 18:12:15 | 00:38:07 | 00:00:00 | |
| DJ2DS-15 | 2026-09-03 10:09:34 | 52.67959 | 7.78006 | 118° | 144km/h | 8129m | 5.9m/s | -30.6°C | 14.0% | 361.7hPa | 2.9V | 00:00:00 | 00:38:09 | 00:00:00 | |
| DL1XH-15 | 2026-09-03 10:09:33 | 52.68059 | 7.77674 | 119° | 139km/h | 8091m | 5.3m/s | -30.5°C | 14.1% | 363.7hPa | 2.9V | 08:30:00 | 00:38:03 | 00:00:00 | |
| DL1XH-west | 2026-09-03 10:09:30 | 52.68027 | 7.77776 | 116° | 141km/h | 8103m | 7.1m/s | -30.6°C | 15.5% | 363.1hPa | 2.9V | 18:12:15 | 00:38:05 | 00:00:00 | |
| DO2JMG | 2026-09-03 10:09:26 | 52.68094 | 7.77571 | 118° | 146km/h | 8080m | 5.1m/s | -30.4°C | 15.3% | 364.3hPa | 2.8V | 18:12:15 | 00:38:01 | 00:00:00 | |
| DB0DAN | 2026-09-03 10:09:25 | 52.68111 | 7.77516 | 116° | 142km/h | 8074m | 5.4m/s | -30.3°C | 12.6% | 364.49hPa | 2.8V | 00:00:00 | 00:00:00 | 00:00:00 | |
| DL1XH1-15 | 2026-09-03 10:09:25 | 52.68189 | 7.77240 | 115° | 146km/h | 8039m | 6.3m/s | -30°C | 14.1% | 366.4hPa | 2.9V | 08:30:00 | 00:37:55 | 00:00:00 | |
| DO3DL | 2026-09-03 10:09:24 | 52.68111 | 7.77516 | 117° | 150km/h | 8074m | 5.4m/s | -30.3°C | 12.6% | 364.5hPa | 2.9V | 00:00:00 | 00:00:00 | 00:00:00 | |
| DL1XH-15 | 2026-09-03 10:09:23 | 52.68218 | 7.77128 | 111° | 144km/h | 8027m | 6.5m/s | -29.9°C | 14% | 366.9hPa | 2.9V | 08:30:00 | 00:37:53 | 00:00:00 | |
| BIOWL1-15 | 2026-09-03 10:09:22 | 52.68158 | 7.77349 | 115° | 144km/h | 8052m | 6.8m/s | -30.1°C | 15% | 365.6hPa | 2.9V | 18:12:15 | 00:37:57 | 00:00:00 | |
| DL1XH-west | 2026-09-03 10:09:20 | 52.68189 | 7.77240 | 115° | 146km/h | 8039m | 6.3m/s | -30°C | 15% | 366.4hPa | 2.9V | 18:12:15 | 00:37:55 | 00:00:00 | |
| DK9SH | 2026-09-03 10:09:19 | 52.68189 | 7.77240 | 116° | 146km/h | 8039m | 6.3m/s | -30.0°C | 12.7% | 366.4hPa | 2.9V | 00:00:00 | 00:00:00 | 00:00:00 | |
| DL1LOL-11 | 2026-09-03 10:09:18 | 52.68204 | 7.77184 | 114° | 148km/h | 8033m | 5.7m/s | -30.0°C | 12.7% | 366.7hPa | 2.9V | 00:00:00 | 00:00:00 | 00:00:00 | |
| DF4FW | 2026-09-03 10:09:17 | 52.68218 | 7.77128 | 113° | 144km/h | 8027m | 6.6m/s | -29.9°C | 12.7% | 366.9hPa | 2.9V | 00:00:00 | 00:00:00 | 00:00:00 | |
| DM0DOS-11 | 2026-09-03 10:09:16 | 52.68324 | 7.76757 | 117° | 150km/h | 7982m | 6.3m/s | -29.5°C | 13.6% | 369.2hPa | 2.9V | 08:30:00 | 00:37:46 | 00:00:00 | |
| DO2JMG | 2026-09-03 10:09:16 | 52.68244 | 7.77020 | 112° | 135km/h | 8016m | 6.1m/s | -29.8°C | 15.3% | 367.5hPa | 2.8V | 18:12:15 | 00:37:51 | 00:00:00 | |
| BIOWL9-15 | 2026-09-03 10:09:15 | 52.68272 | 7.76918 | 117° | 139km/h | 8001m | 8.1m/s | -29.7°C | 12.3% | 368.2hPa | 2.9V | 00:00:00 | 00:00:00 | 00:00:00 | |
| DL1XH-15 | 2026-09-03 10:09:13 | 52.68371 | 7.76598 | 114° | 135km/h | 7964m | 7.3m/s | -29.4°C | 13.6% | 370.1hPa | 2.9V | 08:30:00 | 00:37:43 | 00:00:00 | |
| DL3AQ-11 | 2026-09-03 10:09:13 | 52.68306 | 7.76812 | 118° | 150km/h | 7988m | 5.4m/s | -29.6°C | 12.3% | 368.9hPa | 2.9V | 00:00:00 | 00:00:00 | 00:00:00 | |
| BIOWL7-15 | 2026-09-03 10:09:12 | 52.68306 | 7.76812 | 120° | 150km/h | 7988m | 5.4m/s | -29.6°C | 12.3% | 368.9hPa | 2.9V | 00:00:00 | 00:00:00 | 00:00:00 | |
| DO3DL | 2026-09-03 10:09:11 | 52.68306 | 7.76812 | 120° | 150km/h | 7988m | 5.4m/s | -29.6°C | 12.3% | 368.9hPa | 2.9V | 00:00:00 | 00:00:00 | 00:00:00 | |
| DB0DAN | 2026-09-03 10:09:10 | 52.68341 | 7.76703 | 116° | 137km/h | 7976m | 5.7m/s | -29.5°C | 12.5% | 369.53hPa | 2.9V | 00:00:00 | 00:00:00 | 00:00:00 | |
| DL1XH-west | 2026-09-03 10:09:09 | 52.68357 | 7.76649 | 115° | 139km/h | 7971m | 5.8m/s | -29.5°C | 15.1% | 369.8hPa | 2.9V | 18:12:15 | 00:37:44 | 00:00:00 | |
| DL4BBY-15 | 2026-09-03 10:09:09 | 52.68356 | 7.76649 | 116° | 131km/h | 7970m | 5.8m/s | -27.9°C | 0% | 0hPa | 2.9V | 00:00:00 | 00:00:00 | 00:00:00 | |
| DL1CLM-18 | 2026-09-03 10:09:08 | 52.68357 | 7.76649 | 116° | 139km/h | 7971m | 5.8m/s | -29.5°C | 12.5% | 369.8hPa | 2.9V | 00:00:00 | 00:00:00 | 00:00:00 | |
| DM0DOS-11 | 2026-09-03 10:09:06 | 52.68462 | 7.76257 | 114° | 135km/h | 7926m | 4.2m/s | -29.1°C | 14.3% | 372.2hPa | 2.9V | 08:30:00 | 00:37:36 | 00:00:00 | |
| DO9LL-15 | 2026-09-03 10:09:06 | 52.68399 | 7.76499 | 116° | 133km/h | 7949m | 4.9m/s | -29.2°C | 13.8% | 370.9hPa | 2.9V | 00:00:00 | 00:37:41 | 00:00:00 | |
| DL1XH1-15 | 2026-09-03 10:09:05 | 52.68476 | 7.76206 | 115° | 135km/h | 7921m | 6.6m/s | -29.2°C | 14.3% | 372.5hPa | 2.9V | 08:30:00 | 00:37:35 | 00:00:00 | |
| DO2JMG | 2026-09-03 10:09:05 | 52.68412 | 7.76452 | 114° | 122km/h | 7944m | 4.5m/s | -29.2°C | 14.8% | 371.2hPa | 2.8V | 18:12:15 | 00:37:40 | 00:00:00 | |
| BUE01 | 2026-09-03 10:09:04 | 52.68424 | 7.76405 | 111° | 122km/h | 7939m | 5.3m/s | -29.2°C | 12.7% | 371.5hPa | 2.9V | 00:00:00 | 00:00:00 | 00:00:00 | |
| DL1XH-15 | 2026-09-03 10:09:03 | 52.68506 | 7.76108 | 118° | 131km/h | 7903m | 8m/s | -29°C | 14.1% | 373.2hPa | 2.9V | 08:30:00 | 00:37:33 | 00:00:00 | |
| BIOWL1-15 | 2026-09-03 10:09:01 | 52.68491 | 7.76156 | 117° | 133km/h | 7912m | 9.2m/s | -29.1°C | 15.3% | 372.7hPa | 2.9V | 18:12:15 | 00:37:34 | 00:00:00 | |
| DL1XH-west | 2026-09-03 10:08:58 | 52.68506 | 7.76108 | 119° | 131km/h | 7903m | 8m/s | -29°C | 15.3% | 373.2hPa | 2.9V | 18:12:15 | 00:37:33 | 00:00:00 | |
| DM0DOS-11 | 2026-09-03 10:08:56 | 52.68611 | 7.75752 | 111° | 130km/h | 7858m | 9.1m/s | -28.7°C | 14% | 375.6hPa | 2.9V | 08:30:00 | 00:37:26 | 00:00:00 | |
| GOEST3-10 | 2026-09-03 10:08:56 | 52.68538 | 7.76013 | 120° | 139km/h | 7893m | 6.3m/s | -28.9°C | 14.2% | 373.7hPa | 2.9V | 00:00:00 | 00:00:00 | 00:00:00 | |
| DL1XH1-15 | 2026-09-03 10:08:55 | 52.68622 | 7.75702 | 110° | 124km/h | 7850m | 5.3m/s | -28.6°C | 14% | 376hPa | 2.9V | 08:30:00 | 00:37:25 | 00:00:00 | |
| DO2JMG | 2026-09-03 10:08:54 | 52.68569 | 7.75911 | 114° | 141km/h | 7882m | 4.2m/s | -28.8°C | 15.7% | 374.4hPa | 2.9V | 18:12:15 | 00:37:29 | 00:00:00 | |
| BIOWL1-15 | 2026-09-03 10:08:49 | 52.68634 | 7.75653 | 112° | 126km/h | 7844m | 8.2m/s | -28.6°C | 15.2% | 376.3hPa | 2.9V | 18:12:15 | 00:37:24 | 00:00:00 | |
| DL1XH-west | 2026-09-03 10:08:47 | 52.68660 | 7.75553 | 114° | 135km/h | 7828m | 6.6m/s | -28.4°C | 15% | 377.1hPa | 2.9V | 18:12:15 | 00:37:22 | 00:00:00 | |
| DM0DOS-11 | 2026-09-03 10:08:46 | 52.68739 | 7.75246 | 118° | 128km/h | 7790m | 5.4m/s | -28.2°C | 13.3% | 379.2hPa | 2.9V | 08:30:00 | 00:37:16 | 00:00:00 | |
| GOEST3-10 | 2026-09-03 10:08:46 | 52.68674 | 7.75500 | 113° | 133km/h | 7822m | 4.6m/s | -28.3°C | 13.9% | 377.5hPa | 2.9V | 00:00:00 | 00:00:00 | 00:00:00 | |
| DL1XH1-15 | 2026-09-03 10:08:45 | 52.68754 | 7.75198 | 117° | 135km/h | 7785m | 5.3m/s | -28.3°C | 13.1% | 379.5hPa | 2.9V | 08:30:00 | 00:37:15 | 00:00:00 | |
| DO2JMG | 2026-09-03 10:08:43 | 52.68712 | 7.75343 | 112° | 128km/h | 7803m | 6.3m/s | -28.3°C | 14.9% | 378.5hPa | 2.9V | 18:12:15 | 00:37:18 | 00:00:00 | |
| BIOWL1-15 | 2026-09-03 10:08:38 | 52.68785 | 7.75094 | 114° | 142km/h | 7772m | 5.8m/s | -28.2°C | 13.9% | 380.1hPa | 2.9V | 18:12:15 | 00:37:13 | 00:00:00 | |
| DO3DL | 2026-09-03 10:08:37 | 52.68785 | 7.75094 | 114° | 142km/h | 7772m | 5.8m/s | -28.2°C | 11.7% | 380.1hPa | 2.9V | 00:00:00 | 00:00:00 | 00:00:00 | |
| DM0DOS-11 | 2026-09-03 10:08:36 | 52.68860 | 7.74768 | 113° | 117km/h | 7729m | 5m/s | -28°C | 11.9% | 382.4hPa | 2.9V | 08:30:00 | 00:37:06 | 00:00:00 | |
| DL1XH-west | 2026-09-03 10:08:36 | 52.68810 | 7.74989 | 109° | 128km/h | 7761m | 6.7m/s | -28.2°C | 13.5% | 380.8hPa | 2.9V | 18:12:15 | 00:37:11 | 00:00:00 | |
| DO9LL-15 | 2026-09-03 10:08:36 | 52.68810 | 7.74989 | 109° | 115km/h | 7761m | 6.7m/s | -28.1°C | 12.5% | 380.7hPa | 2.8V | 00:00:00 | 00:37:11 | 00:00:00 | |
| DL1XH1-15 | 2026-09-03 10:08:35 | 52.68872 | 7.74723 | 112° | 122km/h | 7724m | 6.1m/s | -27.9°C | 11.8% | 382.7hPa | 2.8V | 08:30:00 | 00:37:05 | 00:00:00 | |
| DL1XH-15 | 2026-09-03 10:08:33 | 52.68894 | 7.74628 | 111° | 120km/h | 7711m | 6.2m/s | -27.9°C | 11.5% | 383.4hPa | 2.9V | 08:30:00 | 00:37:03 | 00:00:00 | |
| DO2JMG | 2026-09-03 10:08:32 | 52.68849 | 7.74812 | 113° | 113km/h | 7735m | 5.5m/s | -28°C | 12.9% | 382.1hPa | 2.9V | 18:12:15 | 00:37:07 | 00:00:00 | |
| BIOWL1-15 | 2026-09-03 10:08:27 | 52.68906 | 7.74582 | 112° | 119km/h | 7704m | 8.3m/s | -27.8°C | 12.2% | 383.7hPa | 2.9V | 18:12:15 | 00:37:02 | 00:00:00 | |
| DM0DOS-11 | 2026-09-03 10:08:26 | 52.68973 | 7.74306 | 111° | 124km/h | 7664m | 6.1m/s | -27.5°C | 10.5% | 385.8hPa | 2.9V | 08:30:00 | 00:36:56 | 00:00:00 | |
| DL1XH-west | 2026-09-03 10:08:26 | 52.68917 | 7.74537 | 114° | 117km/h | 7697m | 6m/s | -27.8°C | 12.1% | 384.1hPa | 2.9V | 18:12:15 | 00:37:01 | 00:00:00 | |
| DB0DAN | 2026-09-03 10:08:25 | 52.68929 | 7.74492 | 113° | 111km/h | 7690m | 6.4m/s | -27.7°C | 9.9% | 384.53hPa | 2.9V | 00:00:00 | 00:00:00 | 00:00:00 | |
| DL1XH1-15 | 2026-09-03 10:08:25 | 52.68985 | 7.74259 | 113° | 122km/h | 7659m | 4.3m/s | -27.5°C | 10.4% | 386.2hPa | 2.9V | 08:30:00 | 00:36:55 | 00:00:00 | |
| DL1XH-15 | 2026-09-03 10:08:23 | 52.69010 | 7.74169 | 117° | 119km/h | 7649m | 4.3m/s | -27.4°C | 10.3% | 386.7hPa | 2.9V | 08:30:00 | 00:36:53 | 00:00:00 | |
| DO2JMG | 2026-09-03 10:08:22 | 52.68962 | 7.74354 | 111° | 120km/h | 7670m | 5.7m/s | -27.6°C | 11.4% | 385.6hPa | 2.9V | 18:12:15 | 00:36:57 | 00:00:00 | |
| BIOWL1-15 | 2026-09-03 10:08:17 | 52.69024 | 7.74125 | 117° | 117km/h | 7643m | 5.8m/s | -27.4°C | 11% | 386.9hPa | 2.9V | 18:12:15 | 00:36:52 | 00:00:00 | |
| DL1XH-west | 2026-09-03 10:08:16 | 52.69037 | 7.74082 | 116° | 115km/h | 7638m | 5.7m/s | -27.4°C | 11% | 387.3hPa | 2.9V | 18:12:15 | 00:36:51 | 00:00:00 | |
| DL1XH1-15 | 2026-09-03 10:08:15 | 52.69104 | 7.73832 | 111° | 108km/h | 7608m | 5.9m/s | -27.1°C | 9.9% | 389hPa | 2.9V | 08:30:00 | 00:36:45 | 00:00:00 | |
| DL1XH-15 | 2026-09-03 10:08:13 | 52.69124 | 7.73747 | 111° | 113km/h | 7598m | 5m/s | -27°C | 10% | 389.5hPa | 2.9V | 08:30:00 | 00:36:43 | 00:00:00 | |
| DO2JMG | 2026-09-03 10:08:11 | 52.69094 | 7.73874 | 111° | 108km/h | 7612m | 3.9m/s | -27.1°C | 10.6% | 388.7hPa | 2.9V | 18:12:15 | 00:36:46 | 00:00:00 | |
| DB0DAN | 2026-09-03 10:08:10 | 52.69104 | 7.73832 | 111° | 104km/h | 7608m | 5.9m/s | -27.1°C | 9% | 389hPa | 2.9V | 00:00:00 | 00:00:00 | 00:00:00 | |
| BIOWL1-15 | 2026-09-03 10:08:07 | 52.69135 | 7.73703 | 113° | 115km/h | 7593m | 4.2m/s | -26.9°C | 10.4% | 389.8hPa | 2.9V | 18:12:15 | 00:36:42 | 00:00:00 | |
| DL1XH-west | 2026-09-03 10:08:06 | 52.69147 | 7.73659 | 114° | 117km/h | 7589m | 4.6m/s | -26.9°C | 10.4% | 390hPa | 2.9V | 18:12:15 | 00:36:41 | 00:00:00 | |
| DL1XH1-15 | 2026-09-03 10:08:05 | 52.69221 | 7.73398 | 112° | 113km/h | 7563m | 4.3m/s | -26.6°C | 9.9% | 391.4hPa | 2.9V | 08:30:00 | 00:36:35 | 00:00:00 | |
| DO2JMG | 2026-09-03 10:08:01 | 52.69209 | 7.73441 | 115° | 113km/h | 7567m | 4.3m/s | -26.7°C | 10.4% | 391.1hPa | 2.9V | 18:12:15 | 00:36:36 | 00:00:00 | |
| BIOWL1-15 | 2026-09-03 10:07:56 | 52.69264 | 7.73221 | 112° | 115km/h | 7542m | 5m/s | -26.5°C | 10.4% | 392.5hPa | 2.9V | 18:12:15 | 00:36:31 | 00:00:00 | |
| DB0DAN | 2026-09-03 10:07:55 | 52.69275 | 7.73176 | 111° | 111km/h | 7537m | 5.3m/s | -26.4°C | 8.9% | 392.85hPa | 2.9V | 00:00:00 | 00:00:00 | 00:00:00 | |
| DL1XH1-15 | 2026-09-03 10:07:55 | 52.69328 | 7.72951 | 111° | 115km/h | 7513m | 5.2m/s | -26.2°C | 9.6% | 394.1hPa | 2.9V | 08:30:00 | 00:36:25 | 00:00:00 | |
| DL1XH-west | 2026-09-03 10:07:55 | 52.69275 | 7.73176 | 111° | 117km/h | 7537m | 5.3m/s | -26.4°C | 10.4% | 392.9hPa | 2.9V | 18:12:15 | 00:36:30 | 00:00:00 | |
| DO2JMG | 2026-09-03 10:07:50 | 52.69328 | 7.72951 | 111° | 115km/h | 7513m | 5.2m/s | -26.2°C | 10.2% | 394.1hPa | 2.9V | 18:12:15 | 00:36:25 | 00:00:00 | |
| SONCRA | 2026-09-03 10:07:47 | 52.69360 | 7.72816 | 112° | 117km/h | 7500m | 3.6m/s | -26.1°C | 8.6% | 394.9hPa | 2.8V | 00:00:00 | 00:00:00 | 00:00:00 | |
| DM0DOS-11 | 2026-09-03 10:07:46 | 52.69429 | 7.72545 | 112° | 119km/h | 7473m | 5.3m/s | -25.9°C | 9.2% | 396.4hPa | 2.8V | 08:30:00 | 00:36:16 | 00:00:00 | |
| DL1XH-west | 2026-09-03 10:07:45 | 52.69383 | 7.72726 | 113° | 119km/h | 7491m | 4.2m/s | -26°C | 9.8% | 395.4hPa | 2.9V | 18:12:15 | 00:36:20 | 00:00:00 | |
| DD8BA-10 | 2026-09-03 10:07:43 | 52.69406 | 7.72635 | 113° | 119km/h | 7482m | 4.4m/s | -25.9°C | 9.3% | 395.9hPa | 2.9V | 00:00:00 | 00:00:00 | 00:00:00 | |
| DL1XH-15 | 2026-09-03 10:07:42 | 52.69476 | 7.72364 | 113° | 120km/h | 7455m | 4.6m/s | -25.7°C | 9% | 397.4hPa | 2.9V | 08:30:00 | 00:36:12 | 00:00:00 | |
| DB0DAN | 2026-09-03 10:07:40 | 52.69440 | 7.72499 | 113° | 113km/h | 7469m | 4.7m/s | -25.8°C | 8.3% | 396.69hPa | 2.8V | 00:00:00 | 00:00:00 | 00:00:00 | |
| DO2JMG | 2026-09-03 10:07:40 | 52.69440 | 7.72499 | 113° | 119km/h | 7469m | 4.7m/s | -25.8°C | 9.5% | 396.7hPa | 2.8V | 18:12:15 | 00:36:15 | 00:00:00 | |
| DL4BBY-15 | 2026-09-03 10:07:39 | 52.69452 | 7.72454 | 114° | 119km/h | 7465m | 4.3m/s | -24.2°C | 0% | 0hPa | 2.9V | 00:00:00 | 00:00:00 | 00:00:00 | |
| DK9SH | 2026-09-03 10:07:38 | 52.69464 | 7.72410 | 115° | 117km/h | 7460m | 4.8m/s | -25.7°C | 8.2% | 397.2hPa | 2.9V | 00:00:00 | 00:00:00 | 00:00:00 | |
| DO3DL | 2026-09-03 10:07:37 | 52.69464 | 7.72410 | 115° | 117km/h | 7460m | 4.8m/s | 0°C | 0% | 0hPa | 2.9V | 00:00:00 | 00:00:00 | 00:00:00 | |
| DM0DOS-11 | 2026-09-03 10:07:36 | 52.69542 | 7.72088 | 111° | 119km/h | 7423m | 5.5m/s | -25.4°C | 8.4% | 399.2hPa | 2.9V | 08:30:00 | 00:36:06 | 00:00:00 | |
| DL1XH-west | 2026-09-03 10:07:35 | 52.69499 | 7.72272 | 112° | 119km/h | 7444m | 5.1m/s | -25.6°C | 9.3% | 398hPa | 2.9V | 18:12:15 | 00:36:10 | 00:00:00 | |
| WEDDY | 2026-09-03 10:07:34 | 52.69499 | 7.72272 | 113° | 119km/h | 7444m | 5.1m/s | 0°C | 0% | 0hPa | 2.7V | 00:00:00 | 00:00:00 | 00:00:00 | |
| DD8BA-10 | 2026-09-03 10:07:33 | 52.69521 | 7.72181 | 112° | 117km/h | 7433m | 5.4m/s | -25.5°C | 8.6% | 398.6hPa | 2.7V | 00:00:00 | 00:00:00 | 08:30:00 | |
| DL1XH-15 | 2026-09-03 10:07:32 | 52.69585 | 7.71907 | 112° | 117km/h | 7404m | 5.3m/s | -25.3°C | 7.3% | 400.3hPa | 2.8V | 08:30:00 | 00:36:02 | 00:00:00 | |
| DO2JMG | 2026-09-03 10:07:29 | 52.69564 | 7.71997 | 111° | 117km/h | 7413m | 5m/s | -25.3°C | 8.4% | 399.7hPa | 2.9V | 18:12:15 | 00:36:04 | 00:00:00 | |
| HTAHTA | 2026-09-03 10:07:27 | 52.69585 | 7.71907 | 112° | 115km/h | 7404m | 5.3m/s | -25.3°C | 6.5% | 400.3hPa | 2.8V | 00:00:00 | 00:00:00 | 00:00:00 | |
| DM0DOS-11 | 2026-09-03 10:07:26 | 52.69653 | 7.71634 | 111° | 120km/h | 7373m | 6.1m/s | -25.2°C | 4.5% | 402.1hPa | 2.8V | 08:30:00 | 00:35:56 | 00:00:00 | |
| DB0DAN | 2026-09-03 10:07:25 | 52.69608 | 7.71818 | 112° | 111km/h | 7394m | 5.5m/s | -25.2°C | 5.5% | 400.79hPa | 2.9V | 00:00:00 | 00:00:00 | 00:00:00 | |
| DL1XH1-15 | 2026-09-03 10:07:25 | 52.69664 | 7.71588 | 111° | 119km/h | 7367m | 6m/s | -25.3°C | 4.3% | 402.3hPa | 2.9V | 08:30:00 | 00:35:55 | 00:00:00 | |
| DL1XH-west | 2026-09-03 10:07:24 | 52.69619 | 7.71772 | 112° | 119km/h | 7389m | 4.6m/s | -25.2°C | 5.2% | 401.1hPa | 2.9V | 18:12:15 | 00:35:59 | 00:00:00 | |
| DO9LL-15 | 2026-09-03 10:07:23 | 52.69630 | 7.71727 | 113° | 113km/h | 7384m | 5.9m/s | -25.2°C | 5.2% | 401.4hPa | 2.9V | 00:00:00 | 00:35:58 | 00:00:00 | |
| DL1XH-15 | 2026-09-03 10:07:22 | 52.69697 | 7.71451 | 110° | 120km/h | 7353m | 3.8m/s | -25.3°C | 4.1% | 403.1hPa | 2.9V | 08:30:00 | 00:35:52 | 00:00:00 | |
| DO2JMG | 2026-09-03 10:07:18 | 52.69686 | 7.71497 | 111° | 119km/h | 7357m | 4.5m/s | -25.3°C | 3% | 402.9hPa | 2.9V | 18:12:15 | 00:35:53 | 00:00:00 | |
| Es werden nur die letzten 3500 von 4502 Frames angezeigt. GPX/KML und Diagramme bleiben verfügbar. | |||||||||||||||